<?xml version="1.0" encoding="UTF-8" standalone="no" ?>
<gpx xmlns="http://www.topografix.com/GPX/1/1" xmlns:xsi="http://www.w3.org/2001/XMLSchema-instance" xsi:schemaLocation="http://www.topografix.com/GPX/1/1 http://www.topografix.com/GPX/1/1/gpx.xsd" version="1.1" creator="VisuGPX - https://www.visugpx.com">
  <metadata>
    <name>Balade en forêt</name>
  </metadata>
  <trk>
    <name><![CDATA[Balade en forêt]]></name>
    <trkseg>
      <trkpt lat="48.3599" lon="2.74188">
        <ele>133.6</ele>
        <time>2021-08-21T10:07:14Z</time>
      </trkpt>
      <trkpt lat="48.3599" lon="2.74189">
        <ele>133.6</ele>
        <time>2021-08-21T10:07:15Z</time>
      </trkpt>
      <trkpt lat="48.3599" lon="2.74189">
        <ele>133.6</ele>
        <time>2021-08-21T10:07:16Z</time>
      </trkpt>
      <trkpt lat="48.3599" lon="2.74189">
        <ele>133.6</ele>
        <time>2021-08-21T10:07:17Z</time>
      </trkpt>
      <trkpt lat="48.35989" lon="2.74189">
        <ele>133.6</ele>
        <time>2021-08-21T10:07:18Z</time>
      </trkpt>
      <trkpt lat="48.35989" lon="2.74189">
        <ele>133.6</ele>
        <time>2021-08-21T10:07:19Z</time>
      </trkpt>
      <trkpt lat="48.35989" lon="2.74189">
        <ele>133.6</ele>
        <time>2021-08-21T10:07:20Z</time>
      </trkpt>
      <trkpt lat="48.35989" lon="2.74189">
        <ele>133.6</ele>
        <time>2021-08-21T10:07:21Z</time>
      </trkpt>
      <trkpt lat="48.35989" lon="2.74189">
        <ele>133.6</ele>
        <time>2021-08-21T10:07:22Z</time>
      </trkpt>
      <trkpt lat="48.35989" lon="2.7419">
        <ele>133.6</ele>
        <time>2021-08-21T10:07:23Z</time>
      </trkpt>
      <trkpt lat="48.35989" lon="2.7419">
        <ele>133.6</ele>
        <time>2021-08-21T10:07:24Z</time>
      </trkpt>
      <trkpt lat="48.35988" lon="2.7419">
        <ele>133.6</ele>
        <time>2021-08-21T10:07:25Z</time>
      </trkpt>
      <trkpt lat="48.35988" lon="2.7419">
        <ele>133.6</ele>
        <time>2021-08-21T10:07:27Z</time>
      </trkpt>
      <trkpt lat="48.35988" lon="2.7419">
        <ele>133.6</ele>
        <time>2021-08-21T10:07:28Z</time>
      </trkpt>
      <trkpt lat="48.35988" lon="2.7419">
        <ele>133.6</ele>
        <time>2021-08-21T10:07:30Z</time>
      </trkpt>
      <trkpt lat="48.35988" lon="2.7419">
        <ele>133.6</ele>
        <time>2021-08-21T10:07:31Z</time>
      </trkpt>
      <trkpt lat="48.35988" lon="2.7419">
        <ele>133.6</ele>
        <time>2021-08-21T10:07:32Z</time>
      </trkpt>
      <trkpt lat="48.35988" lon="2.74191">
        <ele>133.6</ele>
        <time>2021-08-21T10:07:33Z</time>
      </trkpt>
      <trkpt lat="48.35987" lon="2.74191">
        <ele>133.6</ele>
        <time>2021-08-21T10:07:34Z</time>
      </trkpt>
      <trkpt lat="48.35987" lon="2.74191">
        <ele>133.6</ele>
        <time>2021-08-21T10:07:35Z</time>
      </trkpt>
      <trkpt lat="48.35987" lon="2.74191">
        <ele>133.5</ele>
        <time>2021-08-21T10:07:36Z</time>
      </trkpt>
      <trkpt lat="48.35987" lon="2.74191">
        <ele>133.5</ele>
        <time>2021-08-21T10:07:37Z</time>
      </trkpt>
      <trkpt lat="48.35987" lon="2.74191">
        <ele>133.5</ele>
        <time>2021-08-21T10:07:38Z</time>
      </trkpt>
      <trkpt lat="48.35987" lon="2.74191">
        <ele>133.5</ele>
        <time>2021-08-21T10:07:39Z</time>
      </trkpt>
      <trkpt lat="48.35987" lon="2.74191">
        <ele>133.5</ele>
        <time>2021-08-21T10:07:41Z</time>
      </trkpt>
      <trkpt lat="48.35987" lon="2.74191">
        <ele>133.5</ele>
        <time>2021-08-21T10:07:42Z</time>
      </trkpt>
      <trkpt lat="48.35986" lon="2.74192">
        <ele>133.5</ele>
        <time>2021-08-21T10:07:43Z</time>
      </trkpt>
      <trkpt lat="48.35986" lon="2.74192">
        <ele>133.5</ele>
        <time>2021-08-21T10:07:44Z</time>
      </trkpt>
      <trkpt lat="48.35986" lon="2.74192">
        <ele>133.5</ele>
        <time>2021-08-21T10:07:45Z</time>
      </trkpt>
      <trkpt lat="48.35986" lon="2.74192">
        <ele>133.5</ele>
        <time>2021-08-21T10:07:46Z</time>
      </trkpt>
      <trkpt lat="48.35984" lon="2.74194">
        <ele>133.4</ele>
        <time>2021-08-21T10:07:47Z</time>
      </trkpt>
      <trkpt lat="48.35981" lon="2.74198">
        <ele>133.2</ele>
        <time>2021-08-21T10:07:48Z</time>
      </trkpt>
      <trkpt lat="48.3598" lon="2.74199">
        <ele>133.1</ele>
        <time>2021-08-21T10:07:49Z</time>
      </trkpt>
      <trkpt lat="48.35979" lon="2.74201">
        <ele>133</ele>
        <time>2021-08-21T10:07:50Z</time>
      </trkpt>
      <trkpt lat="48.35978" lon="2.74203">
        <ele>132.8</ele>
        <time>2021-08-21T10:07:51Z</time>
      </trkpt>
      <trkpt lat="48.35977" lon="2.74204">
        <ele>132.7</ele>
        <time>2021-08-21T10:07:52Z</time>
      </trkpt>
      <trkpt lat="48.35976" lon="2.74206">
        <ele>132.6</ele>
        <time>2021-08-21T10:07:54Z</time>
      </trkpt>
      <trkpt lat="48.35975" lon="2.74208">
        <ele>132.4</ele>
        <time>2021-08-21T10:07:55Z</time>
      </trkpt>
      <trkpt lat="48.35974" lon="2.7421">
        <ele>132.3</ele>
        <time>2021-08-21T10:07:56Z</time>
      </trkpt>
      <trkpt lat="48.35972" lon="2.74213">
        <ele>132.1</ele>
        <time>2021-08-21T10:07:57Z</time>
      </trkpt>
      <trkpt lat="48.35972" lon="2.74214">
        <ele>132</ele>
        <time>2021-08-21T10:07:58Z</time>
      </trkpt>
      <trkpt lat="48.35972" lon="2.74215">
        <ele>131.9</ele>
        <time>2021-08-21T10:07:59Z</time>
      </trkpt>
      <trkpt lat="48.35971" lon="2.74217">
        <ele>131.8</ele>
        <time>2021-08-21T10:08:01Z</time>
      </trkpt>
      <trkpt lat="48.3597" lon="2.74219">
        <ele>131.6</ele>
        <time>2021-08-21T10:08:02Z</time>
      </trkpt>
      <trkpt lat="48.35969" lon="2.7422">
        <ele>131.5</ele>
        <time>2021-08-21T10:08:03Z</time>
      </trkpt>
      <trkpt lat="48.35968" lon="2.74221">
        <ele>131.4</ele>
        <time>2021-08-21T10:08:04Z</time>
      </trkpt>
      <trkpt lat="48.35967" lon="2.74222">
        <ele>131.2</ele>
        <time>2021-08-21T10:08:05Z</time>
      </trkpt>
      <trkpt lat="48.35966" lon="2.74223">
        <ele>131.1</ele>
        <time>2021-08-21T10:08:06Z</time>
      </trkpt>
      <trkpt lat="48.35965" lon="2.74224">
        <ele>131</ele>
        <time>2021-08-21T10:08:07Z</time>
      </trkpt>
      <trkpt lat="48.35964" lon="2.74224">
        <ele>130.9</ele>
        <time>2021-08-21T10:08:09Z</time>
      </trkpt>
      <trkpt lat="48.35963" lon="2.74224">
        <ele>130.8</ele>
        <time>2021-08-21T10:08:10Z</time>
      </trkpt>
      <trkpt lat="48.35962" lon="2.74224">
        <ele>130.7</ele>
        <time>2021-08-21T10:08:11Z</time>
      </trkpt>
      <trkpt lat="48.35961" lon="2.74224">
        <ele>130.6</ele>
        <time>2021-08-21T10:08:12Z</time>
      </trkpt>
      <trkpt lat="48.35961" lon="2.74223">
        <ele>130.6</ele>
        <time>2021-08-21T10:08:13Z</time>
      </trkpt>
      <trkpt lat="48.3596" lon="2.74223">
        <ele>130.5</ele>
        <time>2021-08-21T10:08:15Z</time>
      </trkpt>
      <trkpt lat="48.35959" lon="2.74223">
        <ele>130.4</ele>
        <time>2021-08-21T10:08:16Z</time>
      </trkpt>
      <trkpt lat="48.35958" lon="2.74223">
        <ele>130.3</ele>
        <time>2021-08-21T10:08:17Z</time>
      </trkpt>
      <trkpt lat="48.35958" lon="2.74223">
        <ele>130.3</ele>
        <time>2021-08-21T10:08:18Z</time>
      </trkpt>
      <trkpt lat="48.35957" lon="2.74222">
        <ele>130.2</ele>
        <time>2021-08-21T10:08:19Z</time>
      </trkpt>
      <trkpt lat="48.35956" lon="2.74222">
        <ele>130.1</ele>
        <time>2021-08-21T10:08:20Z</time>
      </trkpt>
      <trkpt lat="48.35955" lon="2.74221">
        <ele>130</ele>
        <time>2021-08-21T10:08:22Z</time>
      </trkpt>
      <trkpt lat="48.35954" lon="2.74221">
        <ele>129.9</ele>
        <time>2021-08-21T10:08:23Z</time>
      </trkpt>
      <trkpt lat="48.35954" lon="2.7422">
        <ele>129.8</ele>
        <time>2021-08-21T10:08:24Z</time>
      </trkpt>
      <trkpt lat="48.35953" lon="2.74218">
        <ele>129.7</ele>
        <time>2021-08-21T10:08:25Z</time>
      </trkpt>
      <trkpt lat="48.35952" lon="2.74217">
        <ele>129.7</ele>
        <time>2021-08-21T10:08:26Z</time>
      </trkpt>
      <trkpt lat="48.35951" lon="2.74215">
        <ele>129.5</ele>
        <time>2021-08-21T10:08:27Z</time>
      </trkpt>
      <trkpt lat="48.35951" lon="2.74215">
        <ele>129.5</ele>
        <time>2021-08-21T10:08:28Z</time>
      </trkpt>
      <trkpt lat="48.35951" lon="2.74214">
        <ele>129.4</ele>
        <time>2021-08-21T10:08:29Z</time>
      </trkpt>
      <trkpt lat="48.35951" lon="2.74213">
        <ele>129.4</ele>
        <time>2021-08-21T10:08:30Z</time>
      </trkpt>
      <trkpt lat="48.3595" lon="2.7421">
        <ele>129.2</ele>
        <time>2021-08-21T10:08:31Z</time>
      </trkpt>
      <trkpt lat="48.3595" lon="2.74209">
        <ele>129.1</ele>
        <time>2021-08-21T10:08:32Z</time>
      </trkpt>
      <trkpt lat="48.35949" lon="2.74208">
        <ele>129.1</ele>
        <time>2021-08-21T10:08:33Z</time>
      </trkpt>
      <trkpt lat="48.35949" lon="2.74207">
        <ele>129</ele>
        <time>2021-08-21T10:08:34Z</time>
      </trkpt>
      <trkpt lat="48.35949" lon="2.74206">
        <ele>129</ele>
        <time>2021-08-21T10:08:35Z</time>
      </trkpt>
      <trkpt lat="48.35949" lon="2.74205">
        <ele>128.9</ele>
        <time>2021-08-21T10:08:36Z</time>
      </trkpt>
      <trkpt lat="48.35949" lon="2.74204">
        <ele>128.9</ele>
        <time>2021-08-21T10:08:38Z</time>
      </trkpt>
      <trkpt lat="48.35948" lon="2.74202">
        <ele>128.8</ele>
        <time>2021-08-21T10:08:39Z</time>
      </trkpt>
      <trkpt lat="48.35948" lon="2.74201">
        <ele>128.8</ele>
        <time>2021-08-21T10:08:40Z</time>
      </trkpt>
      <trkpt lat="48.35948" lon="2.742">
        <ele>128.7</ele>
        <time>2021-08-21T10:08:41Z</time>
      </trkpt>
      <trkpt lat="48.35948" lon="2.74197">
        <ele>128.5</ele>
        <time>2021-08-21T10:08:42Z</time>
      </trkpt>
      <trkpt lat="48.35948" lon="2.74195">
        <ele>128.5</ele>
        <time>2021-08-21T10:08:43Z</time>
      </trkpt>
      <trkpt lat="48.35949" lon="2.74192">
        <ele>128.3</ele>
        <time>2021-08-21T10:08:44Z</time>
      </trkpt>
      <trkpt lat="48.35949" lon="2.74191">
        <ele>128.3</ele>
        <time>2021-08-21T10:08:45Z</time>
      </trkpt>
      <trkpt lat="48.35949" lon="2.74189">
        <ele>128.2</ele>
        <time>2021-08-21T10:08:46Z</time>
      </trkpt>
      <trkpt lat="48.35949" lon="2.74188">
        <ele>128.1</ele>
        <time>2021-08-21T10:08:47Z</time>
      </trkpt>
      <trkpt lat="48.3595" lon="2.74187">
        <ele>128.1</ele>
        <time>2021-08-21T10:08:48Z</time>
      </trkpt>
      <trkpt lat="48.3595" lon="2.74185">
        <ele>128</ele>
        <time>2021-08-21T10:08:49Z</time>
      </trkpt>
      <trkpt lat="48.35951" lon="2.74183">
        <ele>127.9</ele>
        <time>2021-08-21T10:08:51Z</time>
      </trkpt>
      <trkpt lat="48.35952" lon="2.74181">
        <ele>127.7</ele>
        <time>2021-08-21T10:08:52Z</time>
      </trkpt>
      <trkpt lat="48.35953" lon="2.74179">
        <ele>127.6</ele>
        <time>2021-08-21T10:08:53Z</time>
      </trkpt>
      <trkpt lat="48.35954" lon="2.74178">
        <ele>127.5</ele>
        <time>2021-08-21T10:08:54Z</time>
      </trkpt>
      <trkpt lat="48.35955" lon="2.74176">
        <ele>127.4</ele>
        <time>2021-08-21T10:08:55Z</time>
      </trkpt>
      <trkpt lat="48.35956" lon="2.74173">
        <ele>127.3</ele>
        <time>2021-08-21T10:08:57Z</time>
      </trkpt>
      <trkpt lat="48.35958" lon="2.74171">
        <ele>127.1</ele>
        <time>2021-08-21T10:08:58Z</time>
      </trkpt>
      <trkpt lat="48.35958" lon="2.7417">
        <ele>127.1</ele>
        <time>2021-08-21T10:08:59Z</time>
      </trkpt>
      <trkpt lat="48.35959" lon="2.7417">
        <ele>127</ele>
        <time>2021-08-21T10:09:00Z</time>
      </trkpt>
      <trkpt lat="48.35961" lon="2.74167">
        <ele>126.8</ele>
        <time>2021-08-21T10:09:02Z</time>
      </trkpt>
      <trkpt lat="48.35963" lon="2.74166">
        <ele>126.7</ele>
        <time>2021-08-21T10:09:03Z</time>
      </trkpt>
      <trkpt lat="48.35964" lon="2.74165">
        <ele>126.6</ele>
        <time>2021-08-21T10:09:04Z</time>
      </trkpt>
      <trkpt lat="48.35965" lon="2.74164">
        <ele>126.5</ele>
        <time>2021-08-21T10:09:05Z</time>
      </trkpt>
      <trkpt lat="48.35967" lon="2.74162">
        <ele>126.3</ele>
        <time>2021-08-21T10:09:06Z</time>
      </trkpt>
      <trkpt lat="48.35967" lon="2.74161">
        <ele>126.3</ele>
        <time>2021-08-21T10:09:08Z</time>
      </trkpt>
      <trkpt lat="48.35968" lon="2.7416">
        <ele>126.2</ele>
        <time>2021-08-21T10:09:09Z</time>
      </trkpt>
      <trkpt lat="48.35969" lon="2.74159">
        <ele>126.1</ele>
        <time>2021-08-21T10:09:10Z</time>
      </trkpt>
      <trkpt lat="48.3597" lon="2.74156">
        <ele>125.9</ele>
        <time>2021-08-21T10:09:12Z</time>
      </trkpt>
      <trkpt lat="48.35972" lon="2.74155">
        <ele>125.8</ele>
        <time>2021-08-21T10:09:13Z</time>
      </trkpt>
      <trkpt lat="48.35973" lon="2.74153">
        <ele>125.7</ele>
        <time>2021-08-21T10:09:14Z</time>
      </trkpt>
      <trkpt lat="48.35974" lon="2.74152">
        <ele>125.6</ele>
        <time>2021-08-21T10:09:15Z</time>
      </trkpt>
      <trkpt lat="48.35975" lon="2.74151">
        <ele>125.5</ele>
        <time>2021-08-21T10:09:16Z</time>
      </trkpt>
      <trkpt lat="48.35976" lon="2.74151">
        <ele>125.5</ele>
        <time>2021-08-21T10:09:18Z</time>
      </trkpt>
      <trkpt lat="48.35976" lon="2.7415">
        <ele>125.4</ele>
        <time>2021-08-21T10:09:19Z</time>
      </trkpt>
      <trkpt lat="48.35977" lon="2.74149">
        <ele>125.3</ele>
        <time>2021-08-21T10:09:20Z</time>
      </trkpt>
      <trkpt lat="48.35978" lon="2.74148">
        <ele>125.3</ele>
        <time>2021-08-21T10:09:21Z</time>
      </trkpt>
      <trkpt lat="48.35979" lon="2.74147">
        <ele>125.1</ele>
        <time>2021-08-21T10:09:22Z</time>
      </trkpt>
      <trkpt lat="48.3598" lon="2.74146">
        <ele>125.1</ele>
        <time>2021-08-21T10:09:23Z</time>
      </trkpt>
      <trkpt lat="48.3598" lon="2.74145">
        <ele>125</ele>
        <time>2021-08-21T10:09:24Z</time>
      </trkpt>
      <trkpt lat="48.35981" lon="2.74144">
        <ele>124.9</ele>
        <time>2021-08-21T10:09:25Z</time>
      </trkpt>
      <trkpt lat="48.35982" lon="2.74143">
        <ele>124.9</ele>
        <time>2021-08-21T10:09:26Z</time>
      </trkpt>
      <trkpt lat="48.35983" lon="2.74142">
        <ele>124.8</ele>
        <time>2021-08-21T10:09:27Z</time>
      </trkpt>
      <trkpt lat="48.35984" lon="2.74142">
        <ele>124.7</ele>
        <time>2021-08-21T10:09:28Z</time>
      </trkpt>
      <trkpt lat="48.35985" lon="2.74142">
        <ele>124.6</ele>
        <time>2021-08-21T10:09:29Z</time>
      </trkpt>
      <trkpt lat="48.35986" lon="2.74141">
        <ele>124.6</ele>
        <time>2021-08-21T10:09:30Z</time>
      </trkpt>
      <trkpt lat="48.35987" lon="2.74141">
        <ele>124.5</ele>
        <time>2021-08-21T10:09:31Z</time>
      </trkpt>
      <trkpt lat="48.35989" lon="2.7414">
        <ele>124.4</ele>
        <time>2021-08-21T10:09:32Z</time>
      </trkpt>
      <trkpt lat="48.3599" lon="2.7414">
        <ele>124.3</ele>
        <time>2021-08-21T10:09:33Z</time>
      </trkpt>
      <trkpt lat="48.35991" lon="2.7414">
        <ele>124.2</ele>
        <time>2021-08-21T10:09:34Z</time>
      </trkpt>
      <trkpt lat="48.35992" lon="2.74139">
        <ele>124.1</ele>
        <time>2021-08-21T10:09:35Z</time>
      </trkpt>
      <trkpt lat="48.35996" lon="2.74138">
        <ele>123.9</ele>
        <time>2021-08-21T10:09:36Z</time>
      </trkpt>
      <trkpt lat="48.35996" lon="2.74138">
        <ele>123.8</ele>
        <time>2021-08-21T10:09:38Z</time>
      </trkpt>
      <trkpt lat="48.35997" lon="2.74138">
        <ele>123.8</ele>
        <time>2021-08-21T10:09:39Z</time>
      </trkpt>
      <trkpt lat="48.35998" lon="2.74137">
        <ele>123.7</ele>
        <time>2021-08-21T10:09:40Z</time>
      </trkpt>
      <trkpt lat="48.35999" lon="2.74137">
        <ele>123.7</ele>
        <time>2021-08-21T10:09:41Z</time>
      </trkpt>
      <trkpt lat="48.36" lon="2.74136">
        <ele>123.5</ele>
        <time>2021-08-21T10:09:42Z</time>
      </trkpt>
      <trkpt lat="48.36001" lon="2.74135">
        <ele>123.5</ele>
        <time>2021-08-21T10:09:44Z</time>
      </trkpt>
      <trkpt lat="48.36002" lon="2.74135">
        <ele>123.4</ele>
        <time>2021-08-21T10:09:45Z</time>
      </trkpt>
      <trkpt lat="48.36003" lon="2.74135">
        <ele>123.4</ele>
        <time>2021-08-21T10:09:46Z</time>
      </trkpt>
      <trkpt lat="48.36004" lon="2.74134">
        <ele>123.3</ele>
        <time>2021-08-21T10:09:48Z</time>
      </trkpt>
      <trkpt lat="48.36004" lon="2.74135">
        <ele>123.3</ele>
        <time>2021-08-21T10:09:49Z</time>
      </trkpt>
      <trkpt lat="48.36004" lon="2.74135">
        <ele>123.3</ele>
        <time>2021-08-21T10:09:50Z</time>
      </trkpt>
      <trkpt lat="48.36004" lon="2.74136">
        <ele>123.3</ele>
        <time>2021-08-21T10:09:51Z</time>
      </trkpt>
      <trkpt lat="48.36004" lon="2.74137">
        <ele>123.2</ele>
        <time>2021-08-21T10:09:52Z</time>
      </trkpt>
      <trkpt lat="48.36005" lon="2.74138">
        <ele>123.1</ele>
        <time>2021-08-21T10:09:53Z</time>
      </trkpt>
      <trkpt lat="48.36005" lon="2.74139">
        <ele>123.1</ele>
        <time>2021-08-21T10:09:54Z</time>
      </trkpt>
      <trkpt lat="48.36006" lon="2.74139">
        <ele>123</ele>
        <time>2021-08-21T10:09:55Z</time>
      </trkpt>
      <trkpt lat="48.36007" lon="2.7414">
        <ele>123</ele>
        <time>2021-08-21T10:09:56Z</time>
      </trkpt>
      <trkpt lat="48.36008" lon="2.7414">
        <ele>122.9</ele>
        <time>2021-08-21T10:09:58Z</time>
      </trkpt>
      <trkpt lat="48.36009" lon="2.7414">
        <ele>122.8</ele>
        <time>2021-08-21T10:09:59Z</time>
      </trkpt>
      <trkpt lat="48.3601" lon="2.7414">
        <ele>122.7</ele>
        <time>2021-08-21T10:10:00Z</time>
      </trkpt>
      <trkpt lat="48.36011" lon="2.74139">
        <ele>122.7</ele>
        <time>2021-08-21T10:10:01Z</time>
      </trkpt>
      <trkpt lat="48.36013" lon="2.74139">
        <ele>122.5</ele>
        <time>2021-08-21T10:10:02Z</time>
      </trkpt>
      <trkpt lat="48.36013" lon="2.74138">
        <ele>122.5</ele>
        <time>2021-08-21T10:10:04Z</time>
      </trkpt>
      <trkpt lat="48.36014" lon="2.74138">
        <ele>122.4</ele>
        <time>2021-08-21T10:10:05Z</time>
      </trkpt>
      <trkpt lat="48.36014" lon="2.74137">
        <ele>122.4</ele>
        <time>2021-08-21T10:10:06Z</time>
      </trkpt>
      <trkpt lat="48.36016" lon="2.74136">
        <ele>122.3</ele>
        <time>2021-08-21T10:10:07Z</time>
      </trkpt>
      <trkpt lat="48.36017" lon="2.74136">
        <ele>122.2</ele>
        <time>2021-08-21T10:10:08Z</time>
      </trkpt>
      <trkpt lat="48.36018" lon="2.74136">
        <ele>122.1</ele>
        <time>2021-08-21T10:10:09Z</time>
      </trkpt>
      <trkpt lat="48.36018" lon="2.74136">
        <ele>122.1</ele>
        <time>2021-08-21T10:10:10Z</time>
      </trkpt>
      <trkpt lat="48.3602" lon="2.74136">
        <ele>121.9</ele>
        <time>2021-08-21T10:10:12Z</time>
      </trkpt>
      <trkpt lat="48.36021" lon="2.74136">
        <ele>121.9</ele>
        <time>2021-08-21T10:10:13Z</time>
      </trkpt>
      <trkpt lat="48.36022" lon="2.74137">
        <ele>121.8</ele>
        <time>2021-08-21T10:10:14Z</time>
      </trkpt>
      <trkpt lat="48.36023" lon="2.74138">
        <ele>121.7</ele>
        <time>2021-08-21T10:10:15Z</time>
      </trkpt>
      <trkpt lat="48.36024" lon="2.74138">
        <ele>121.6</ele>
        <time>2021-08-21T10:10:16Z</time>
      </trkpt>
      <trkpt lat="48.36025" lon="2.7414">
        <ele>121.5</ele>
        <time>2021-08-21T10:10:17Z</time>
      </trkpt>
      <trkpt lat="48.36026" lon="2.7414">
        <ele>121.4</ele>
        <time>2021-08-21T10:10:19Z</time>
      </trkpt>
      <trkpt lat="48.36027" lon="2.74141">
        <ele>121.4</ele>
        <time>2021-08-21T10:10:20Z</time>
      </trkpt>
      <trkpt lat="48.36028" lon="2.74142">
        <ele>121.3</ele>
        <time>2021-08-21T10:10:21Z</time>
      </trkpt>
      <trkpt lat="48.36031" lon="2.74143">
        <ele>121.1</ele>
        <time>2021-08-21T10:10:22Z</time>
      </trkpt>
      <trkpt lat="48.36031" lon="2.74144">
        <ele>121</ele>
        <time>2021-08-21T10:10:23Z</time>
      </trkpt>
      <trkpt lat="48.36032" lon="2.74144">
        <ele>120.9</ele>
        <time>2021-08-21T10:10:24Z</time>
      </trkpt>
      <trkpt lat="48.36034" lon="2.74145">
        <ele>120.8</ele>
        <time>2021-08-21T10:10:25Z</time>
      </trkpt>
      <trkpt lat="48.36035" lon="2.74145">
        <ele>120.8</ele>
        <time>2021-08-21T10:10:26Z</time>
      </trkpt>
      <trkpt lat="48.36037" lon="2.74147">
        <ele>120.6</ele>
        <time>2021-08-21T10:10:27Z</time>
      </trkpt>
      <trkpt lat="48.36037" lon="2.74148">
        <ele>120.5</ele>
        <time>2021-08-21T10:10:28Z</time>
      </trkpt>
      <trkpt lat="48.36038" lon="2.74149">
        <ele>120.4</ele>
        <time>2021-08-21T10:10:29Z</time>
      </trkpt>
      <trkpt lat="48.36039" lon="2.7415">
        <ele>120.4</ele>
        <time>2021-08-21T10:10:30Z</time>
      </trkpt>
      <trkpt lat="48.3604" lon="2.74151">
        <ele>120.3</ele>
        <time>2021-08-21T10:10:31Z</time>
      </trkpt>
      <trkpt lat="48.36041" lon="2.74153">
        <ele>120.1</ele>
        <time>2021-08-21T10:10:33Z</time>
      </trkpt>
      <trkpt lat="48.36042" lon="2.74153">
        <ele>120.1</ele>
        <time>2021-08-21T10:10:34Z</time>
      </trkpt>
      <trkpt lat="48.36042" lon="2.74154">
        <ele>120</ele>
        <time>2021-08-21T10:10:35Z</time>
      </trkpt>
      <trkpt lat="48.36043" lon="2.74155">
        <ele>120</ele>
        <time>2021-08-21T10:10:36Z</time>
      </trkpt>
      <trkpt lat="48.36045" lon="2.74157">
        <ele>119.8</ele>
        <time>2021-08-21T10:10:37Z</time>
      </trkpt>
      <trkpt lat="48.36047" lon="2.74158">
        <ele>119.7</ele>
        <time>2021-08-21T10:10:38Z</time>
      </trkpt>
      <trkpt lat="48.36047" lon="2.74158">
        <ele>119.6</ele>
        <time>2021-08-21T10:10:39Z</time>
      </trkpt>
      <trkpt lat="48.36048" lon="2.74159">
        <ele>119.6</ele>
        <time>2021-08-21T10:10:40Z</time>
      </trkpt>
      <trkpt lat="48.36049" lon="2.74159">
        <ele>119.5</ele>
        <time>2021-08-21T10:10:41Z</time>
      </trkpt>
      <trkpt lat="48.3605" lon="2.7416">
        <ele>119.4</ele>
        <time>2021-08-21T10:10:42Z</time>
      </trkpt>
      <trkpt lat="48.36051" lon="2.7416">
        <ele>119.3</ele>
        <time>2021-08-21T10:10:43Z</time>
      </trkpt>
      <trkpt lat="48.36052" lon="2.74161">
        <ele>119.3</ele>
        <time>2021-08-21T10:10:45Z</time>
      </trkpt>
      <trkpt lat="48.36053" lon="2.74161">
        <ele>119.2</ele>
        <time>2021-08-21T10:10:46Z</time>
      </trkpt>
      <trkpt lat="48.36054" lon="2.74162">
        <ele>119.1</ele>
        <time>2021-08-21T10:10:47Z</time>
      </trkpt>
      <trkpt lat="48.36055" lon="2.74163">
        <ele>119</ele>
        <time>2021-08-21T10:10:48Z</time>
      </trkpt>
      <trkpt lat="48.36056" lon="2.74165">
        <ele>118.9</ele>
        <time>2021-08-21T10:10:49Z</time>
      </trkpt>
      <trkpt lat="48.36057" lon="2.74166">
        <ele>118.8</ele>
        <time>2021-08-21T10:10:50Z</time>
      </trkpt>
      <trkpt lat="48.36057" lon="2.74167">
        <ele>118.8</ele>
        <time>2021-08-21T10:10:51Z</time>
      </trkpt>
      <trkpt lat="48.36058" lon="2.74168">
        <ele>118.7</ele>
        <time>2021-08-21T10:10:52Z</time>
      </trkpt>
      <trkpt lat="48.36059" lon="2.74169">
        <ele>118.6</ele>
        <time>2021-08-21T10:10:53Z</time>
      </trkpt>
      <trkpt lat="48.36059" lon="2.7417">
        <ele>118.5</ele>
        <time>2021-08-21T10:10:55Z</time>
      </trkpt>
      <trkpt lat="48.3606" lon="2.74172">
        <ele>118.4</ele>
        <time>2021-08-21T10:10:56Z</time>
      </trkpt>
      <trkpt lat="48.36063" lon="2.74172">
        <ele>118.1</ele>
        <time>2021-08-21T10:10:57Z</time>
      </trkpt>
      <trkpt lat="48.36064" lon="2.74172">
        <ele>118</ele>
        <time>2021-08-21T10:10:59Z</time>
      </trkpt>
      <trkpt lat="48.36065" lon="2.74172">
        <ele>117.9</ele>
        <time>2021-08-21T10:11:00Z</time>
      </trkpt>
      <trkpt lat="48.36066" lon="2.74172">
        <ele>117.8</ele>
        <time>2021-08-21T10:11:01Z</time>
      </trkpt>
      <trkpt lat="48.36067" lon="2.74173">
        <ele>117.7</ele>
        <time>2021-08-21T10:11:02Z</time>
      </trkpt>
      <trkpt lat="48.36068" lon="2.74172">
        <ele>117.7</ele>
        <time>2021-08-21T10:11:03Z</time>
      </trkpt>
      <trkpt lat="48.36068" lon="2.74172">
        <ele>117.6</ele>
        <time>2021-08-21T10:11:04Z</time>
      </trkpt>
      <trkpt lat="48.36069" lon="2.74171">
        <ele>117.5</ele>
        <time>2021-08-21T10:11:05Z</time>
      </trkpt>
      <trkpt lat="48.3607" lon="2.7417">
        <ele>117.4</ele>
        <time>2021-08-21T10:11:06Z</time>
      </trkpt>
      <trkpt lat="48.36073" lon="2.74166">
        <ele>117</ele>
        <time>2021-08-21T10:11:07Z</time>
      </trkpt>
      <trkpt lat="48.36074" lon="2.74165">
        <ele>116.9</ele>
        <time>2021-08-21T10:11:09Z</time>
      </trkpt>
      <trkpt lat="48.36074" lon="2.74163">
        <ele>116.7</ele>
        <time>2021-08-21T10:11:10Z</time>
      </trkpt>
      <trkpt lat="48.36075" lon="2.74161">
        <ele>116.6</ele>
        <time>2021-08-21T10:11:11Z</time>
      </trkpt>
      <trkpt lat="48.36076" lon="2.74158">
        <ele>116.3</ele>
        <time>2021-08-21T10:11:12Z</time>
      </trkpt>
      <trkpt lat="48.36077" lon="2.74156">
        <ele>116.1</ele>
        <time>2021-08-21T10:11:14Z</time>
      </trkpt>
      <trkpt lat="48.36078" lon="2.74151">
        <ele>115.8</ele>
        <time>2021-08-21T10:11:15Z</time>
      </trkpt>
      <trkpt lat="48.36078" lon="2.7415">
        <ele>115.7</ele>
        <time>2021-08-21T10:11:16Z</time>
      </trkpt>
      <trkpt lat="48.36078" lon="2.74145">
        <ele>115.3</ele>
        <time>2021-08-21T10:11:17Z</time>
      </trkpt>
      <trkpt lat="48.36078" lon="2.74142">
        <ele>115.1</ele>
        <time>2021-08-21T10:11:18Z</time>
      </trkpt>
      <trkpt lat="48.36078" lon="2.7414">
        <ele>114.9</ele>
        <time>2021-08-21T10:11:19Z</time>
      </trkpt>
      <trkpt lat="48.36078" lon="2.74135">
        <ele>114.6</ele>
        <time>2021-08-21T10:11:21Z</time>
      </trkpt>
      <trkpt lat="48.36078" lon="2.7413">
        <ele>114.2</ele>
        <time>2021-08-21T10:11:22Z</time>
      </trkpt>
      <trkpt lat="48.36078" lon="2.74128">
        <ele>114.1</ele>
        <time>2021-08-21T10:11:23Z</time>
      </trkpt>
      <trkpt lat="48.36078" lon="2.74125">
        <ele>113.9</ele>
        <time>2021-08-21T10:11:25Z</time>
      </trkpt>
      <trkpt lat="48.36078" lon="2.74123">
        <ele>113.7</ele>
        <time>2021-08-21T10:11:26Z</time>
      </trkpt>
      <trkpt lat="48.36078" lon="2.7412">
        <ele>113.6</ele>
        <time>2021-08-21T10:11:27Z</time>
      </trkpt>
      <trkpt lat="48.36078" lon="2.74117">
        <ele>113.4</ele>
        <time>2021-08-21T10:11:28Z</time>
      </trkpt>
      <trkpt lat="48.36078" lon="2.74116">
        <ele>113.3</ele>
        <time>2021-08-21T10:11:29Z</time>
      </trkpt>
      <trkpt lat="48.36077" lon="2.74112">
        <ele>113.1</ele>
        <time>2021-08-21T10:11:30Z</time>
      </trkpt>
      <trkpt lat="48.36077" lon="2.74111">
        <ele>113</ele>
        <time>2021-08-21T10:11:31Z</time>
      </trkpt>
      <trkpt lat="48.36077" lon="2.7411">
        <ele>112.9</ele>
        <time>2021-08-21T10:11:32Z</time>
      </trkpt>
      <trkpt lat="48.36076" lon="2.74106">
        <ele>112.7</ele>
        <time>2021-08-21T10:11:33Z</time>
      </trkpt>
      <trkpt lat="48.36076" lon="2.74105">
        <ele>112.6</ele>
        <time>2021-08-21T10:11:34Z</time>
      </trkpt>
      <trkpt lat="48.36076" lon="2.74103">
        <ele>112.4</ele>
        <time>2021-08-21T10:11:35Z</time>
      </trkpt>
      <trkpt lat="48.36075" lon="2.74101">
        <ele>112.3</ele>
        <time>2021-08-21T10:11:36Z</time>
      </trkpt>
      <trkpt lat="48.36074" lon="2.74099">
        <ele>112.2</ele>
        <time>2021-08-21T10:11:37Z</time>
      </trkpt>
      <trkpt lat="48.36074" lon="2.74096">
        <ele>112</ele>
        <time>2021-08-21T10:11:38Z</time>
      </trkpt>
      <trkpt lat="48.36074" lon="2.74094">
        <ele>111.9</ele>
        <time>2021-08-21T10:11:39Z</time>
      </trkpt>
      <trkpt lat="48.36073" lon="2.74092">
        <ele>111.8</ele>
        <time>2021-08-21T10:11:40Z</time>
      </trkpt>
      <trkpt lat="48.36073" lon="2.74091">
        <ele>111.7</ele>
        <time>2021-08-21T10:11:41Z</time>
      </trkpt>
      <trkpt lat="48.36073" lon="2.74089">
        <ele>111.5</ele>
        <time>2021-08-21T10:11:42Z</time>
      </trkpt>
      <trkpt lat="48.36073" lon="2.74086">
        <ele>111.4</ele>
        <time>2021-08-21T10:11:43Z</time>
      </trkpt>
      <trkpt lat="48.36073" lon="2.74085">
        <ele>111.3</ele>
        <time>2021-08-21T10:11:44Z</time>
      </trkpt>
      <trkpt lat="48.36073" lon="2.74083">
        <ele>111.2</ele>
        <time>2021-08-21T10:11:45Z</time>
      </trkpt>
      <trkpt lat="48.36072" lon="2.74082">
        <ele>111.1</ele>
        <time>2021-08-21T10:11:46Z</time>
      </trkpt>
      <trkpt lat="48.36072" lon="2.74077">
        <ele>110.8</ele>
        <time>2021-08-21T10:11:48Z</time>
      </trkpt>
      <trkpt lat="48.36071" lon="2.74076">
        <ele>110.8</ele>
        <time>2021-08-21T10:11:49Z</time>
      </trkpt>
      <trkpt lat="48.36071" lon="2.74073">
        <ele>110.5</ele>
        <time>2021-08-21T10:11:50Z</time>
      </trkpt>
      <trkpt lat="48.36071" lon="2.74072">
        <ele>110.5</ele>
        <time>2021-08-21T10:11:51Z</time>
      </trkpt>
      <trkpt lat="48.36071" lon="2.7407">
        <ele>110.4</ele>
        <time>2021-08-21T10:11:52Z</time>
      </trkpt>
      <trkpt lat="48.3607" lon="2.74067">
        <ele>110.2</ele>
        <time>2021-08-21T10:11:53Z</time>
      </trkpt>
      <trkpt lat="48.3607" lon="2.74066">
        <ele>110.1</ele>
        <time>2021-08-21T10:11:54Z</time>
      </trkpt>
      <trkpt lat="48.3607" lon="2.74064">
        <ele>109.9</ele>
        <time>2021-08-21T10:11:55Z</time>
      </trkpt>
      <trkpt lat="48.36069" lon="2.74062">
        <ele>109.8</ele>
        <time>2021-08-21T10:11:56Z</time>
      </trkpt>
      <trkpt lat="48.36069" lon="2.74059">
        <ele>109.6</ele>
        <time>2021-08-21T10:11:58Z</time>
      </trkpt>
      <trkpt lat="48.36068" lon="2.74058">
        <ele>109.5</ele>
        <time>2021-08-21T10:11:59Z</time>
      </trkpt>
      <trkpt lat="48.36068" lon="2.74056">
        <ele>109.4</ele>
        <time>2021-08-21T10:12:00Z</time>
      </trkpt>
      <trkpt lat="48.36067" lon="2.74055">
        <ele>109.3</ele>
        <time>2021-08-21T10:12:01Z</time>
      </trkpt>
      <trkpt lat="48.36067" lon="2.74053">
        <ele>109.1</ele>
        <time>2021-08-21T10:12:02Z</time>
      </trkpt>
      <trkpt lat="48.36066" lon="2.7405">
        <ele>108.9</ele>
        <time>2021-08-21T10:12:03Z</time>
      </trkpt>
      <trkpt lat="48.36066" lon="2.74049">
        <ele>108.8</ele>
        <time>2021-08-21T10:12:04Z</time>
      </trkpt>
      <trkpt lat="48.36065" lon="2.74047">
        <ele>108.7</ele>
        <time>2021-08-21T10:12:05Z</time>
      </trkpt>
      <trkpt lat="48.36065" lon="2.74046">
        <ele>108.6</ele>
        <time>2021-08-21T10:12:06Z</time>
      </trkpt>
      <trkpt lat="48.36063" lon="2.74043">
        <ele>108.3</ele>
        <time>2021-08-21T10:12:08Z</time>
      </trkpt>
      <trkpt lat="48.36062" lon="2.74042">
        <ele>108.2</ele>
        <time>2021-08-21T10:12:09Z</time>
      </trkpt>
      <trkpt lat="48.36062" lon="2.7404">
        <ele>108.1</ele>
        <time>2021-08-21T10:12:10Z</time>
      </trkpt>
      <trkpt lat="48.36061" lon="2.74039">
        <ele>108</ele>
        <time>2021-08-21T10:12:11Z</time>
      </trkpt>
      <trkpt lat="48.3606" lon="2.74038">
        <ele>107.9</ele>
        <time>2021-08-21T10:12:12Z</time>
      </trkpt>
      <trkpt lat="48.36059" lon="2.74036">
        <ele>107.7</ele>
        <time>2021-08-21T10:12:13Z</time>
      </trkpt>
      <trkpt lat="48.36058" lon="2.74035">
        <ele>107.6</ele>
        <time>2021-08-21T10:12:14Z</time>
      </trkpt>
      <trkpt lat="48.36057" lon="2.74034">
        <ele>107.5</ele>
        <time>2021-08-21T10:12:15Z</time>
      </trkpt>
      <trkpt lat="48.36055" lon="2.74033">
        <ele>107.3</ele>
        <time>2021-08-21T10:12:16Z</time>
      </trkpt>
      <trkpt lat="48.36055" lon="2.74032">
        <ele>107.2</ele>
        <time>2021-08-21T10:12:17Z</time>
      </trkpt>
      <trkpt lat="48.36054" lon="2.74031">
        <ele>107.1</ele>
        <time>2021-08-21T10:12:18Z</time>
      </trkpt>
      <trkpt lat="48.36052" lon="2.74031">
        <ele>106.9</ele>
        <time>2021-08-21T10:12:20Z</time>
      </trkpt>
      <trkpt lat="48.36051" lon="2.7403">
        <ele>106.8</ele>
        <time>2021-08-21T10:12:21Z</time>
      </trkpt>
      <trkpt lat="48.36049" lon="2.74029">
        <ele>106.6</ele>
        <time>2021-08-21T10:12:22Z</time>
      </trkpt>
      <trkpt lat="48.36048" lon="2.74029">
        <ele>106.5</ele>
        <time>2021-08-21T10:12:23Z</time>
      </trkpt>
      <trkpt lat="48.36048" lon="2.74028">
        <ele>106.5</ele>
        <time>2021-08-21T10:12:24Z</time>
      </trkpt>
      <trkpt lat="48.36046" lon="2.74027">
        <ele>106.3</ele>
        <time>2021-08-21T10:12:25Z</time>
      </trkpt>
      <trkpt lat="48.36045" lon="2.74027">
        <ele>106.2</ele>
        <time>2021-08-21T10:12:26Z</time>
      </trkpt>
      <trkpt lat="48.36044" lon="2.74026">
        <ele>106.1</ele>
        <time>2021-08-21T10:12:27Z</time>
      </trkpt>
      <trkpt lat="48.36043" lon="2.74025">
        <ele>106</ele>
        <time>2021-08-21T10:12:28Z</time>
      </trkpt>
      <trkpt lat="48.36042" lon="2.74024">
        <ele>105.9</ele>
        <time>2021-08-21T10:12:29Z</time>
      </trkpt>
      <trkpt lat="48.36041" lon="2.74024">
        <ele>105.7</ele>
        <time>2021-08-21T10:12:30Z</time>
      </trkpt>
      <trkpt lat="48.3604" lon="2.74023">
        <ele>105.6</ele>
        <time>2021-08-21T10:12:31Z</time>
      </trkpt>
      <trkpt lat="48.36039" lon="2.74022">
        <ele>105.5</ele>
        <time>2021-08-21T10:12:32Z</time>
      </trkpt>
      <trkpt lat="48.36038" lon="2.74021">
        <ele>105.4</ele>
        <time>2021-08-21T10:12:33Z</time>
      </trkpt>
      <trkpt lat="48.36036" lon="2.7402">
        <ele>105.3</ele>
        <time>2021-08-21T10:12:35Z</time>
      </trkpt>
      <trkpt lat="48.36035" lon="2.7402">
        <ele>105.2</ele>
        <time>2021-08-21T10:12:36Z</time>
      </trkpt>
      <trkpt lat="48.36034" lon="2.74019">
        <ele>105.1</ele>
        <time>2021-08-21T10:12:37Z</time>
      </trkpt>
      <trkpt lat="48.36032" lon="2.74018">
        <ele>104.9</ele>
        <time>2021-08-21T10:12:38Z</time>
      </trkpt>
      <trkpt lat="48.36031" lon="2.74018">
        <ele>104.8</ele>
        <time>2021-08-21T10:12:39Z</time>
      </trkpt>
      <trkpt lat="48.3603" lon="2.74017">
        <ele>104.7</ele>
        <time>2021-08-21T10:12:40Z</time>
      </trkpt>
      <trkpt lat="48.36029" lon="2.74016">
        <ele>104.6</ele>
        <time>2021-08-21T10:12:41Z</time>
      </trkpt>
      <trkpt lat="48.36028" lon="2.74015">
        <ele>104.5</ele>
        <time>2021-08-21T10:12:42Z</time>
      </trkpt>
      <trkpt lat="48.36026" lon="2.74013">
        <ele>104.3</ele>
        <time>2021-08-21T10:12:43Z</time>
      </trkpt>
      <trkpt lat="48.36024" lon="2.74012">
        <ele>104.1</ele>
        <time>2021-08-21T10:12:44Z</time>
      </trkpt>
      <trkpt lat="48.36023" lon="2.74011">
        <ele>104</ele>
        <time>2021-08-21T10:12:45Z</time>
      </trkpt>
      <trkpt lat="48.36022" lon="2.74011">
        <ele>103.9</ele>
        <time>2021-08-21T10:12:46Z</time>
      </trkpt>
      <trkpt lat="48.36021" lon="2.7401">
        <ele>103.8</ele>
        <time>2021-08-21T10:12:48Z</time>
      </trkpt>
      <trkpt lat="48.36019" lon="2.74009">
        <ele>103.6</ele>
        <time>2021-08-21T10:12:49Z</time>
      </trkpt>
      <trkpt lat="48.36018" lon="2.74008">
        <ele>103.5</ele>
        <time>2021-08-21T10:12:50Z</time>
      </trkpt>
      <trkpt lat="48.36016" lon="2.74007">
        <ele>103.4</ele>
        <time>2021-08-21T10:12:51Z</time>
      </trkpt>
      <trkpt lat="48.36015" lon="2.74006">
        <ele>103.2</ele>
        <time>2021-08-21T10:12:52Z</time>
      </trkpt>
      <trkpt lat="48.36013" lon="2.74005">
        <ele>103</ele>
        <time>2021-08-21T10:12:53Z</time>
      </trkpt>
      <trkpt lat="48.36012" lon="2.74004">
        <ele>102.9</ele>
        <time>2021-08-21T10:12:54Z</time>
      </trkpt>
      <trkpt lat="48.36012" lon="2.74004">
        <ele>102.9</ele>
        <time>2021-08-21T10:12:56Z</time>
      </trkpt>
      <trkpt lat="48.36011" lon="2.74003">
        <ele>102.8</ele>
        <time>2021-08-21T10:12:57Z</time>
      </trkpt>
      <trkpt lat="48.3601" lon="2.74002">
        <ele>102.7</ele>
        <time>2021-08-21T10:12:58Z</time>
      </trkpt>
      <trkpt lat="48.36009" lon="2.74001">
        <ele>102.5</ele>
        <time>2021-08-21T10:12:59Z</time>
      </trkpt>
      <trkpt lat="48.36008" lon="2.74001">
        <ele>102.5</ele>
        <time>2021-08-21T10:13:00Z</time>
      </trkpt>
      <trkpt lat="48.36007" lon="2.74">
        <ele>102.4</ele>
        <time>2021-08-21T10:13:01Z</time>
      </trkpt>
      <trkpt lat="48.36007" lon="2.74">
        <ele>102.4</ele>
        <time>2021-08-21T10:13:02Z</time>
      </trkpt>
      <trkpt lat="48.36005" lon="2.73999">
        <ele>102.2</ele>
        <time>2021-08-21T10:13:04Z</time>
      </trkpt>
      <trkpt lat="48.36004" lon="2.73999">
        <ele>102.1</ele>
        <time>2021-08-21T10:13:05Z</time>
      </trkpt>
      <trkpt lat="48.36004" lon="2.73998">
        <ele>102.1</ele>
        <time>2021-08-21T10:13:06Z</time>
      </trkpt>
      <trkpt lat="48.36003" lon="2.73997">
        <ele>102</ele>
        <time>2021-08-21T10:13:07Z</time>
      </trkpt>
      <trkpt lat="48.36001" lon="2.73995">
        <ele>101.8</ele>
        <time>2021-08-21T10:13:08Z</time>
      </trkpt>
      <trkpt lat="48.36001" lon="2.73994">
        <ele>101.7</ele>
        <time>2021-08-21T10:13:09Z</time>
      </trkpt>
      <trkpt lat="48.35999" lon="2.73992">
        <ele>101.6</ele>
        <time>2021-08-21T10:13:11Z</time>
      </trkpt>
      <trkpt lat="48.35999" lon="2.73991">
        <ele>101.5</ele>
        <time>2021-08-21T10:13:12Z</time>
      </trkpt>
      <trkpt lat="48.35998" lon="2.7399">
        <ele>101.4</ele>
        <time>2021-08-21T10:13:13Z</time>
      </trkpt>
      <trkpt lat="48.35997" lon="2.7399">
        <ele>101.4</ele>
        <time>2021-08-21T10:13:14Z</time>
      </trkpt>
      <trkpt lat="48.35995" lon="2.73989">
        <ele>101.2</ele>
        <time>2021-08-21T10:13:15Z</time>
      </trkpt>
      <trkpt lat="48.35994" lon="2.73988">
        <ele>101.2</ele>
        <time>2021-08-21T10:13:16Z</time>
      </trkpt>
      <trkpt lat="48.35993" lon="2.73987">
        <ele>101.1</ele>
        <time>2021-08-21T10:13:17Z</time>
      </trkpt>
      <trkpt lat="48.35993" lon="2.73987">
        <ele>101</ele>
        <time>2021-08-21T10:13:18Z</time>
      </trkpt>
      <trkpt lat="48.35992" lon="2.73986">
        <ele>101</ele>
        <time>2021-08-21T10:13:20Z</time>
      </trkpt>
      <trkpt lat="48.35991" lon="2.73986">
        <ele>100.9</ele>
        <time>2021-08-21T10:13:21Z</time>
      </trkpt>
      <trkpt lat="48.3599" lon="2.73986">
        <ele>100.8</ele>
        <time>2021-08-21T10:13:22Z</time>
      </trkpt>
      <trkpt lat="48.35989" lon="2.73986">
        <ele>100.8</ele>
        <time>2021-08-21T10:13:23Z</time>
      </trkpt>
      <trkpt lat="48.35988" lon="2.73985">
        <ele>100.7</ele>
        <time>2021-08-21T10:13:24Z</time>
      </trkpt>
      <trkpt lat="48.35987" lon="2.73985">
        <ele>100.6</ele>
        <time>2021-08-21T10:13:25Z</time>
      </trkpt>
      <trkpt lat="48.35986" lon="2.73985">
        <ele>100.6</ele>
        <time>2021-08-21T10:13:26Z</time>
      </trkpt>
      <trkpt lat="48.35984" lon="2.73984">
        <ele>100.4</ele>
        <time>2021-08-21T10:13:27Z</time>
      </trkpt>
      <trkpt lat="48.35983" lon="2.73984">
        <ele>100.4</ele>
        <time>2021-08-21T10:13:28Z</time>
      </trkpt>
      <trkpt lat="48.35982" lon="2.73983">
        <ele>100.3</ele>
        <time>2021-08-21T10:13:29Z</time>
      </trkpt>
      <trkpt lat="48.35981" lon="2.73982">
        <ele>100.2</ele>
        <time>2021-08-21T10:13:30Z</time>
      </trkpt>
      <trkpt lat="48.3598" lon="2.73981">
        <ele>100.1</ele>
        <time>2021-08-21T10:13:31Z</time>
      </trkpt>
      <trkpt lat="48.35979" lon="2.73981">
        <ele>100.1</ele>
        <time>2021-08-21T10:13:32Z</time>
      </trkpt>
      <trkpt lat="48.35977" lon="2.73979">
        <ele>99.9</ele>
        <time>2021-08-21T10:13:33Z</time>
      </trkpt>
      <trkpt lat="48.35977" lon="2.73979">
        <ele>99.9</ele>
        <time>2021-08-21T10:13:34Z</time>
      </trkpt>
      <trkpt lat="48.35976" lon="2.73978">
        <ele>99.9</ele>
        <time>2021-08-21T10:13:35Z</time>
      </trkpt>
      <trkpt lat="48.35974" lon="2.73977">
        <ele>99.7</ele>
        <time>2021-08-21T10:13:37Z</time>
      </trkpt>
      <trkpt lat="48.35973" lon="2.73977">
        <ele>99.7</ele>
        <time>2021-08-21T10:13:38Z</time>
      </trkpt>
      <trkpt lat="48.35972" lon="2.73976">
        <ele>99.6</ele>
        <time>2021-08-21T10:13:39Z</time>
      </trkpt>
      <trkpt lat="48.35972" lon="2.73976">
        <ele>99.6</ele>
        <time>2021-08-21T10:13:40Z</time>
      </trkpt>
      <trkpt lat="48.35971" lon="2.73975">
        <ele>99.5</ele>
        <time>2021-08-21T10:13:41Z</time>
      </trkpt>
      <trkpt lat="48.3597" lon="2.73975">
        <ele>99.4</ele>
        <time>2021-08-21T10:13:42Z</time>
      </trkpt>
      <trkpt lat="48.35968" lon="2.73974">
        <ele>99.3</ele>
        <time>2021-08-21T10:13:43Z</time>
      </trkpt>
      <trkpt lat="48.35967" lon="2.73973">
        <ele>99.3</ele>
        <time>2021-08-21T10:13:45Z</time>
      </trkpt>
      <trkpt lat="48.35966" lon="2.73973">
        <ele>99.2</ele>
        <time>2021-08-21T10:13:46Z</time>
      </trkpt>
      <trkpt lat="48.35965" lon="2.73973">
        <ele>99.2</ele>
        <time>2021-08-21T10:13:47Z</time>
      </trkpt>
      <trkpt lat="48.35965" lon="2.73972">
        <ele>99.1</ele>
        <time>2021-08-21T10:13:48Z</time>
      </trkpt>
      <trkpt lat="48.35963" lon="2.73971">
        <ele>99</ele>
        <time>2021-08-21T10:13:49Z</time>
      </trkpt>
      <trkpt lat="48.35962" lon="2.73971">
        <ele>99</ele>
        <time>2021-08-21T10:13:50Z</time>
      </trkpt>
      <trkpt lat="48.35961" lon="2.7397">
        <ele>98.9</ele>
        <time>2021-08-21T10:13:51Z</time>
      </trkpt>
      <trkpt lat="48.35961" lon="2.7397">
        <ele>98.8</ele>
        <time>2021-08-21T10:13:52Z</time>
      </trkpt>
      <trkpt lat="48.35959" lon="2.73969">
        <ele>98.7</ele>
        <time>2021-08-21T10:13:54Z</time>
      </trkpt>
      <trkpt lat="48.35958" lon="2.73969">
        <ele>98.7</ele>
        <time>2021-08-21T10:13:55Z</time>
      </trkpt>
      <trkpt lat="48.35957" lon="2.73969">
        <ele>98.6</ele>
        <time>2021-08-21T10:13:56Z</time>
      </trkpt>
      <trkpt lat="48.35956" lon="2.73969">
        <ele>98.5</ele>
        <time>2021-08-21T10:13:57Z</time>
      </trkpt>
      <trkpt lat="48.35955" lon="2.73969">
        <ele>98.5</ele>
        <time>2021-08-21T10:13:58Z</time>
      </trkpt>
      <trkpt lat="48.35953" lon="2.73968">
        <ele>98.4</ele>
        <time>2021-08-21T10:13:59Z</time>
      </trkpt>
      <trkpt lat="48.35951" lon="2.73968">
        <ele>98.3</ele>
        <time>2021-08-21T10:14:01Z</time>
      </trkpt>
      <trkpt lat="48.35951" lon="2.73968">
        <ele>98.2</ele>
        <time>2021-08-21T10:14:02Z</time>
      </trkpt>
      <trkpt lat="48.3595" lon="2.73968">
        <ele>98.2</ele>
        <time>2021-08-21T10:14:03Z</time>
      </trkpt>
      <trkpt lat="48.35948" lon="2.73968">
        <ele>98.1</ele>
        <time>2021-08-21T10:14:04Z</time>
      </trkpt>
      <trkpt lat="48.35947" lon="2.73967">
        <ele>98</ele>
        <time>2021-08-21T10:14:05Z</time>
      </trkpt>
      <trkpt lat="48.35946" lon="2.73967">
        <ele>98</ele>
        <time>2021-08-21T10:14:06Z</time>
      </trkpt>
      <trkpt lat="48.35945" lon="2.73967">
        <ele>97.9</ele>
        <time>2021-08-21T10:14:07Z</time>
      </trkpt>
      <trkpt lat="48.35943" lon="2.73966">
        <ele>97.8</ele>
        <time>2021-08-21T10:14:09Z</time>
      </trkpt>
      <trkpt lat="48.35942" lon="2.73966">
        <ele>97.8</ele>
        <time>2021-08-21T10:14:10Z</time>
      </trkpt>
      <trkpt lat="48.35941" lon="2.73966">
        <ele>97.7</ele>
        <time>2021-08-21T10:14:11Z</time>
      </trkpt>
      <trkpt lat="48.3594" lon="2.73965">
        <ele>97.6</ele>
        <time>2021-08-21T10:14:12Z</time>
      </trkpt>
      <trkpt lat="48.35938" lon="2.73965">
        <ele>97.5</ele>
        <time>2021-08-21T10:14:13Z</time>
      </trkpt>
      <trkpt lat="48.35937" lon="2.73964">
        <ele>97.4</ele>
        <time>2021-08-21T10:14:14Z</time>
      </trkpt>
      <trkpt lat="48.35936" lon="2.73964">
        <ele>97.4</ele>
        <time>2021-08-21T10:14:15Z</time>
      </trkpt>
      <trkpt lat="48.35935" lon="2.73963">
        <ele>97.3</ele>
        <time>2021-08-21T10:14:16Z</time>
      </trkpt>
      <trkpt lat="48.35934" lon="2.73963">
        <ele>97.2</ele>
        <time>2021-08-21T10:14:17Z</time>
      </trkpt>
      <trkpt lat="48.35932" lon="2.73962">
        <ele>97.1</ele>
        <time>2021-08-21T10:14:19Z</time>
      </trkpt>
      <trkpt lat="48.35931" lon="2.73962">
        <ele>97.1</ele>
        <time>2021-08-21T10:14:20Z</time>
      </trkpt>
      <trkpt lat="48.35929" lon="2.73961">
        <ele>97</ele>
        <time>2021-08-21T10:14:21Z</time>
      </trkpt>
      <trkpt lat="48.35928" lon="2.73961">
        <ele>96.9</ele>
        <time>2021-08-21T10:14:22Z</time>
      </trkpt>
      <trkpt lat="48.35927" lon="2.73961">
        <ele>96.8</ele>
        <time>2021-08-21T10:14:23Z</time>
      </trkpt>
      <trkpt lat="48.35925" lon="2.7396">
        <ele>96.8</ele>
        <time>2021-08-21T10:14:24Z</time>
      </trkpt>
      <trkpt lat="48.35924" lon="2.73959">
        <ele>96.7</ele>
        <time>2021-08-21T10:14:25Z</time>
      </trkpt>
      <trkpt lat="48.35923" lon="2.73958">
        <ele>96.6</ele>
        <time>2021-08-21T10:14:27Z</time>
      </trkpt>
      <trkpt lat="48.35922" lon="2.73957">
        <ele>96.5</ele>
        <time>2021-08-21T10:14:28Z</time>
      </trkpt>
      <trkpt lat="48.35919" lon="2.73956">
        <ele>96.3</ele>
        <time>2021-08-21T10:14:29Z</time>
      </trkpt>
      <trkpt lat="48.35918" lon="2.73956">
        <ele>96.3</ele>
        <time>2021-08-21T10:14:30Z</time>
      </trkpt>
      <trkpt lat="48.35917" lon="2.73956">
        <ele>96.2</ele>
        <time>2021-08-21T10:14:31Z</time>
      </trkpt>
      <trkpt lat="48.35916" lon="2.73956">
        <ele>96.2</ele>
        <time>2021-08-21T10:14:32Z</time>
      </trkpt>
      <trkpt lat="48.35915" lon="2.73956">
        <ele>96.1</ele>
        <time>2021-08-21T10:14:33Z</time>
      </trkpt>
      <trkpt lat="48.35913" lon="2.73956">
        <ele>96</ele>
        <time>2021-08-21T10:14:34Z</time>
      </trkpt>
      <trkpt lat="48.35912" lon="2.73955">
        <ele>95.9</ele>
        <time>2021-08-21T10:14:36Z</time>
      </trkpt>
      <trkpt lat="48.35911" lon="2.73955">
        <ele>95.8</ele>
        <time>2021-08-21T10:14:37Z</time>
      </trkpt>
      <trkpt lat="48.35909" lon="2.73956">
        <ele>95.7</ele>
        <time>2021-08-21T10:14:38Z</time>
      </trkpt>
      <trkpt lat="48.35908" lon="2.73955">
        <ele>95.6</ele>
        <time>2021-08-21T10:14:39Z</time>
      </trkpt>
      <trkpt lat="48.35907" lon="2.73955">
        <ele>95.6</ele>
        <time>2021-08-21T10:14:40Z</time>
      </trkpt>
      <trkpt lat="48.35906" lon="2.73955">
        <ele>95.5</ele>
        <time>2021-08-21T10:14:41Z</time>
      </trkpt>
      <trkpt lat="48.35904" lon="2.73954">
        <ele>95.4</ele>
        <time>2021-08-21T10:14:42Z</time>
      </trkpt>
      <trkpt lat="48.35903" lon="2.73954">
        <ele>95.3</ele>
        <time>2021-08-21T10:14:43Z</time>
      </trkpt>
      <trkpt lat="48.35902" lon="2.73954">
        <ele>95.3</ele>
        <time>2021-08-21T10:14:44Z</time>
      </trkpt>
      <trkpt lat="48.35901" lon="2.73954">
        <ele>95.2</ele>
        <time>2021-08-21T10:14:45Z</time>
      </trkpt>
      <trkpt lat="48.359" lon="2.73953">
        <ele>95.1</ele>
        <time>2021-08-21T10:14:46Z</time>
      </trkpt>
      <trkpt lat="48.35899" lon="2.73953">
        <ele>95</ele>
        <time>2021-08-21T10:14:47Z</time>
      </trkpt>
      <trkpt lat="48.35897" lon="2.73953">
        <ele>95</ele>
        <time>2021-08-21T10:14:48Z</time>
      </trkpt>
      <trkpt lat="48.35896" lon="2.73953">
        <ele>94.9</ele>
        <time>2021-08-21T10:14:49Z</time>
      </trkpt>
      <trkpt lat="48.35895" lon="2.73952">
        <ele>94.8</ele>
        <time>2021-08-21T10:14:50Z</time>
      </trkpt>
      <trkpt lat="48.35893" lon="2.73952">
        <ele>94.7</ele>
        <time>2021-08-21T10:14:52Z</time>
      </trkpt>
      <trkpt lat="48.35892" lon="2.73952">
        <ele>94.6</ele>
        <time>2021-08-21T10:14:53Z</time>
      </trkpt>
      <trkpt lat="48.35891" lon="2.73952">
        <ele>94.6</ele>
        <time>2021-08-21T10:14:54Z</time>
      </trkpt>
      <trkpt lat="48.3589" lon="2.73951">
        <ele>94.5</ele>
        <time>2021-08-21T10:14:55Z</time>
      </trkpt>
      <trkpt lat="48.35889" lon="2.73951">
        <ele>94.5</ele>
        <time>2021-08-21T10:14:56Z</time>
      </trkpt>
      <trkpt lat="48.35889" lon="2.73951">
        <ele>94.4</ele>
        <time>2021-08-21T10:14:57Z</time>
      </trkpt>
      <trkpt lat="48.35887" lon="2.7395">
        <ele>94.3</ele>
        <time>2021-08-21T10:14:59Z</time>
      </trkpt>
      <trkpt lat="48.35885" lon="2.7395">
        <ele>94.2</ele>
        <time>2021-08-21T10:15:00Z</time>
      </trkpt>
      <trkpt lat="48.35885" lon="2.7395">
        <ele>94.2</ele>
        <time>2021-08-21T10:15:01Z</time>
      </trkpt>
      <trkpt lat="48.35884" lon="2.7395">
        <ele>94.1</ele>
        <time>2021-08-21T10:15:02Z</time>
      </trkpt>
      <trkpt lat="48.35883" lon="2.7395">
        <ele>94</ele>
        <time>2021-08-21T10:15:03Z</time>
      </trkpt>
      <trkpt lat="48.35881" lon="2.73949">
        <ele>93.9</ele>
        <time>2021-08-21T10:15:04Z</time>
      </trkpt>
      <trkpt lat="48.3588" lon="2.73948">
        <ele>93.9</ele>
        <time>2021-08-21T10:15:06Z</time>
      </trkpt>
      <trkpt lat="48.35879" lon="2.73947">
        <ele>93.8</ele>
        <time>2021-08-21T10:15:07Z</time>
      </trkpt>
      <trkpt lat="48.35878" lon="2.73947">
        <ele>93.8</ele>
        <time>2021-08-21T10:15:08Z</time>
      </trkpt>
      <trkpt lat="48.35876" lon="2.73945">
        <ele>93.7</ele>
        <time>2021-08-21T10:15:09Z</time>
      </trkpt>
      <trkpt lat="48.35875" lon="2.73945">
        <ele>93.6</ele>
        <time>2021-08-21T10:15:10Z</time>
      </trkpt>
      <trkpt lat="48.35874" lon="2.73944">
        <ele>93.6</ele>
        <time>2021-08-21T10:15:12Z</time>
      </trkpt>
      <trkpt lat="48.35873" lon="2.73944">
        <ele>93.5</ele>
        <time>2021-08-21T10:15:13Z</time>
      </trkpt>
      <trkpt lat="48.35871" lon="2.73943">
        <ele>93.5</ele>
        <time>2021-08-21T10:15:15Z</time>
      </trkpt>
      <trkpt lat="48.35872" lon="2.73941">
        <ele>93.4</ele>
        <time>2021-08-21T10:15:16Z</time>
      </trkpt>
      <trkpt lat="48.35871" lon="2.7394">
        <ele>93.4</ele>
        <time>2021-08-21T10:15:17Z</time>
      </trkpt>
      <trkpt lat="48.35869" lon="2.7394">
        <ele>93.3</ele>
        <time>2021-08-21T10:15:18Z</time>
      </trkpt>
      <trkpt lat="48.35868" lon="2.73939">
        <ele>93.3</ele>
        <time>2021-08-21T10:15:19Z</time>
      </trkpt>
      <trkpt lat="48.35867" lon="2.73939">
        <ele>93.2</ele>
        <time>2021-08-21T10:15:20Z</time>
      </trkpt>
      <trkpt lat="48.35865" lon="2.73938">
        <ele>93.2</ele>
        <time>2021-08-21T10:15:22Z</time>
      </trkpt>
      <trkpt lat="48.35864" lon="2.73937">
        <ele>93.1</ele>
        <time>2021-08-21T10:15:23Z</time>
      </trkpt>
      <trkpt lat="48.35862" lon="2.73935">
        <ele>93.1</ele>
        <time>2021-08-21T10:15:24Z</time>
      </trkpt>
      <trkpt lat="48.35862" lon="2.73934">
        <ele>93</ele>
        <time>2021-08-21T10:15:25Z</time>
      </trkpt>
      <trkpt lat="48.35861" lon="2.73933">
        <ele>93</ele>
        <time>2021-08-21T10:15:26Z</time>
      </trkpt>
      <trkpt lat="48.3586" lon="2.73932">
        <ele>93</ele>
        <time>2021-08-21T10:15:28Z</time>
      </trkpt>
      <trkpt lat="48.35859" lon="2.73931">
        <ele>93</ele>
        <time>2021-08-21T10:15:29Z</time>
      </trkpt>
      <trkpt lat="48.35858" lon="2.73931">
        <ele>92.9</ele>
        <time>2021-08-21T10:15:30Z</time>
      </trkpt>
      <trkpt lat="48.35856" lon="2.73932">
        <ele>92.9</ele>
        <time>2021-08-21T10:15:31Z</time>
      </trkpt>
      <trkpt lat="48.35855" lon="2.73932">
        <ele>92.9</ele>
        <time>2021-08-21T10:15:32Z</time>
      </trkpt>
      <trkpt lat="48.35855" lon="2.73932">
        <ele>92.9</ele>
        <time>2021-08-21T10:15:33Z</time>
      </trkpt>
      <trkpt lat="48.35854" lon="2.73933">
        <ele>92.9</ele>
        <time>2021-08-21T10:15:34Z</time>
      </trkpt>
      <trkpt lat="48.35853" lon="2.73933">
        <ele>92.8</ele>
        <time>2021-08-21T10:15:36Z</time>
      </trkpt>
      <trkpt lat="48.35852" lon="2.73934">
        <ele>92.8</ele>
        <time>2021-08-21T10:15:37Z</time>
      </trkpt>
      <trkpt lat="48.3585" lon="2.73934">
        <ele>92.8</ele>
        <time>2021-08-21T10:15:39Z</time>
      </trkpt>
      <trkpt lat="48.35848" lon="2.73934">
        <ele>92.7</ele>
        <time>2021-08-21T10:15:40Z</time>
      </trkpt>
      <trkpt lat="48.35847" lon="2.73935">
        <ele>92.7</ele>
        <time>2021-08-21T10:15:41Z</time>
      </trkpt>
      <trkpt lat="48.35846" lon="2.73935">
        <ele>92.7</ele>
        <time>2021-08-21T10:15:42Z</time>
      </trkpt>
      <trkpt lat="48.35845" lon="2.73935">
        <ele>92.7</ele>
        <time>2021-08-21T10:15:43Z</time>
      </trkpt>
      <trkpt lat="48.35843" lon="2.73935">
        <ele>92.7</ele>
        <time>2021-08-21T10:15:45Z</time>
      </trkpt>
      <trkpt lat="48.35842" lon="2.73935">
        <ele>92.6</ele>
        <time>2021-08-21T10:15:46Z</time>
      </trkpt>
      <trkpt lat="48.35841" lon="2.73935">
        <ele>92.6</ele>
        <time>2021-08-21T10:15:47Z</time>
      </trkpt>
      <trkpt lat="48.3584" lon="2.73935">
        <ele>92.6</ele>
        <time>2021-08-21T10:15:48Z</time>
      </trkpt>
      <trkpt lat="48.35839" lon="2.73935">
        <ele>92.6</ele>
        <time>2021-08-21T10:15:49Z</time>
      </trkpt>
      <trkpt lat="48.35837" lon="2.73935">
        <ele>92.6</ele>
        <time>2021-08-21T10:15:50Z</time>
      </trkpt>
      <trkpt lat="48.35836" lon="2.73935">
        <ele>92.6</ele>
        <time>2021-08-21T10:15:51Z</time>
      </trkpt>
      <trkpt lat="48.35835" lon="2.73935">
        <ele>92.6</ele>
        <time>2021-08-21T10:15:52Z</time>
      </trkpt>
      <trkpt lat="48.35833" lon="2.73935">
        <ele>92.6</ele>
        <time>2021-08-21T10:15:54Z</time>
      </trkpt>
      <trkpt lat="48.35831" lon="2.73934">
        <ele>92.6</ele>
        <time>2021-08-21T10:15:55Z</time>
      </trkpt>
      <trkpt lat="48.3583" lon="2.73934">
        <ele>92.6</ele>
        <time>2021-08-21T10:15:56Z</time>
      </trkpt>
      <trkpt lat="48.35829" lon="2.73933">
        <ele>92.6</ele>
        <time>2021-08-21T10:15:57Z</time>
      </trkpt>
      <trkpt lat="48.35827" lon="2.73932">
        <ele>92.6</ele>
        <time>2021-08-21T10:15:58Z</time>
      </trkpt>
      <trkpt lat="48.35825" lon="2.73931">
        <ele>92.7</ele>
        <time>2021-08-21T10:15:59Z</time>
      </trkpt>
      <trkpt lat="48.35824" lon="2.7393">
        <ele>92.7</ele>
        <time>2021-08-21T10:16:01Z</time>
      </trkpt>
      <trkpt lat="48.35823" lon="2.7393">
        <ele>92.7</ele>
        <time>2021-08-21T10:16:02Z</time>
      </trkpt>
      <trkpt lat="48.35821" lon="2.73929">
        <ele>92.7</ele>
        <time>2021-08-21T10:16:03Z</time>
      </trkpt>
      <trkpt lat="48.3582" lon="2.73928">
        <ele>92.7</ele>
        <time>2021-08-21T10:16:04Z</time>
      </trkpt>
      <trkpt lat="48.35818" lon="2.73927">
        <ele>92.8</ele>
        <time>2021-08-21T10:16:05Z</time>
      </trkpt>
      <trkpt lat="48.35817" lon="2.73926">
        <ele>92.8</ele>
        <time>2021-08-21T10:16:06Z</time>
      </trkpt>
      <trkpt lat="48.35816" lon="2.73926">
        <ele>92.8</ele>
        <time>2021-08-21T10:16:07Z</time>
      </trkpt>
      <trkpt lat="48.35815" lon="2.73925">
        <ele>92.8</ele>
        <time>2021-08-21T10:16:08Z</time>
      </trkpt>
      <trkpt lat="48.35813" lon="2.73924">
        <ele>92.9</ele>
        <time>2021-08-21T10:16:10Z</time>
      </trkpt>
      <trkpt lat="48.35813" lon="2.73924">
        <ele>92.9</ele>
        <time>2021-08-21T10:16:11Z</time>
      </trkpt>
      <trkpt lat="48.35812" lon="2.73924">
        <ele>92.9</ele>
        <time>2021-08-21T10:16:12Z</time>
      </trkpt>
      <trkpt lat="48.3581" lon="2.73923">
        <ele>93</ele>
        <time>2021-08-21T10:16:13Z</time>
      </trkpt>
      <trkpt lat="48.35809" lon="2.73923">
        <ele>93</ele>
        <time>2021-08-21T10:16:14Z</time>
      </trkpt>
      <trkpt lat="48.35808" lon="2.73923">
        <ele>93</ele>
        <time>2021-08-21T10:16:15Z</time>
      </trkpt>
      <trkpt lat="48.35807" lon="2.73923">
        <ele>93.1</ele>
        <time>2021-08-21T10:16:16Z</time>
      </trkpt>
      <trkpt lat="48.35806" lon="2.73923">
        <ele>93.1</ele>
        <time>2021-08-21T10:16:17Z</time>
      </trkpt>
      <trkpt lat="48.35805" lon="2.73923">
        <ele>93.1</ele>
        <time>2021-08-21T10:16:18Z</time>
      </trkpt>
      <trkpt lat="48.35804" lon="2.73923">
        <ele>93.2</ele>
        <time>2021-08-21T10:16:19Z</time>
      </trkpt>
      <trkpt lat="48.35803" lon="2.73923">
        <ele>93.2</ele>
        <time>2021-08-21T10:16:20Z</time>
      </trkpt>
      <trkpt lat="48.35802" lon="2.73923">
        <ele>93.2</ele>
        <time>2021-08-21T10:16:21Z</time>
      </trkpt>
      <trkpt lat="48.358" lon="2.73923">
        <ele>93.3</ele>
        <time>2021-08-21T10:16:23Z</time>
      </trkpt>
      <trkpt lat="48.35799" lon="2.73923">
        <ele>93.3</ele>
        <time>2021-08-21T10:16:24Z</time>
      </trkpt>
      <trkpt lat="48.35799" lon="2.73923">
        <ele>93.3</ele>
        <time>2021-08-21T10:16:25Z</time>
      </trkpt>
      <trkpt lat="48.35798" lon="2.73923">
        <ele>93.4</ele>
        <time>2021-08-21T10:16:26Z</time>
      </trkpt>
      <trkpt lat="48.35797" lon="2.73922">
        <ele>93.4</ele>
        <time>2021-08-21T10:16:27Z</time>
      </trkpt>
      <trkpt lat="48.35795" lon="2.73922">
        <ele>93.5</ele>
        <time>2021-08-21T10:16:28Z</time>
      </trkpt>
      <trkpt lat="48.35793" lon="2.73922">
        <ele>93.6</ele>
        <time>2021-08-21T10:16:29Z</time>
      </trkpt>
      <trkpt lat="48.35792" lon="2.73922">
        <ele>93.6</ele>
        <time>2021-08-21T10:16:31Z</time>
      </trkpt>
      <trkpt lat="48.35791" lon="2.73921">
        <ele>93.6</ele>
        <time>2021-08-21T10:16:32Z</time>
      </trkpt>
      <trkpt lat="48.35789" lon="2.73921">
        <ele>93.7</ele>
        <time>2021-08-21T10:16:33Z</time>
      </trkpt>
      <trkpt lat="48.35788" lon="2.73921">
        <ele>93.8</ele>
        <time>2021-08-21T10:16:34Z</time>
      </trkpt>
      <trkpt lat="48.35786" lon="2.7392">
        <ele>93.9</ele>
        <time>2021-08-21T10:16:35Z</time>
      </trkpt>
      <trkpt lat="48.35785" lon="2.7392">
        <ele>93.9</ele>
        <time>2021-08-21T10:16:36Z</time>
      </trkpt>
      <trkpt lat="48.35784" lon="2.73919">
        <ele>94</ele>
        <time>2021-08-21T10:16:37Z</time>
      </trkpt>
      <trkpt lat="48.35783" lon="2.73919">
        <ele>94.1</ele>
        <time>2021-08-21T10:16:39Z</time>
      </trkpt>
      <trkpt lat="48.3578" lon="2.73918">
        <ele>94.2</ele>
        <time>2021-08-21T10:16:40Z</time>
      </trkpt>
      <trkpt lat="48.3578" lon="2.73918">
        <ele>94.2</ele>
        <time>2021-08-21T10:16:41Z</time>
      </trkpt>
      <trkpt lat="48.35778" lon="2.73918">
        <ele>94.3</ele>
        <time>2021-08-21T10:16:42Z</time>
      </trkpt>
      <trkpt lat="48.35777" lon="2.73917">
        <ele>94.4</ele>
        <time>2021-08-21T10:16:43Z</time>
      </trkpt>
      <trkpt lat="48.35774" lon="2.73917">
        <ele>94.5</ele>
        <time>2021-08-21T10:16:45Z</time>
      </trkpt>
      <trkpt lat="48.35773" lon="2.73916">
        <ele>94.6</ele>
        <time>2021-08-21T10:16:46Z</time>
      </trkpt>
      <trkpt lat="48.35772" lon="2.73916">
        <ele>94.7</ele>
        <time>2021-08-21T10:16:48Z</time>
      </trkpt>
      <trkpt lat="48.3577" lon="2.73915">
        <ele>94.8</ele>
        <time>2021-08-21T10:16:49Z</time>
      </trkpt>
      <trkpt lat="48.35768" lon="2.73914">
        <ele>94.9</ele>
        <time>2021-08-21T10:16:50Z</time>
      </trkpt>
      <trkpt lat="48.35766" lon="2.73913">
        <ele>95</ele>
        <time>2021-08-21T10:16:51Z</time>
      </trkpt>
      <trkpt lat="48.35766" lon="2.73913">
        <ele>95.1</ele>
        <time>2021-08-21T10:16:53Z</time>
      </trkpt>
      <trkpt lat="48.35765" lon="2.73913">
        <ele>95.1</ele>
        <time>2021-08-21T10:16:54Z</time>
      </trkpt>
      <trkpt lat="48.35763" lon="2.73912">
        <ele>95.3</ele>
        <time>2021-08-21T10:16:55Z</time>
      </trkpt>
      <trkpt lat="48.35762" lon="2.73912">
        <ele>95.3</ele>
        <time>2021-08-21T10:16:57Z</time>
      </trkpt>
      <trkpt lat="48.35761" lon="2.73912">
        <ele>95.4</ele>
        <time>2021-08-21T10:16:58Z</time>
      </trkpt>
      <trkpt lat="48.3576" lon="2.73912">
        <ele>95.4</ele>
        <time>2021-08-21T10:16:59Z</time>
      </trkpt>
      <trkpt lat="48.35759" lon="2.73911">
        <ele>95.5</ele>
        <time>2021-08-21T10:17:00Z</time>
      </trkpt>
      <trkpt lat="48.35758" lon="2.73911">
        <ele>95.6</ele>
        <time>2021-08-21T10:17:01Z</time>
      </trkpt>
      <trkpt lat="48.35757" lon="2.73911">
        <ele>95.7</ele>
        <time>2021-08-21T10:17:02Z</time>
      </trkpt>
      <trkpt lat="48.35756" lon="2.73912">
        <ele>95.7</ele>
        <time>2021-08-21T10:17:03Z</time>
      </trkpt>
      <trkpt lat="48.35754" lon="2.73912">
        <ele>95.9</ele>
        <time>2021-08-21T10:17:05Z</time>
      </trkpt>
      <trkpt lat="48.35754" lon="2.73912">
        <ele>95.9</ele>
        <time>2021-08-21T10:17:06Z</time>
      </trkpt>
      <trkpt lat="48.35753" lon="2.73912">
        <ele>96</ele>
        <time>2021-08-21T10:17:07Z</time>
      </trkpt>
      <trkpt lat="48.35751" lon="2.73912">
        <ele>96.2</ele>
        <time>2021-08-21T10:17:08Z</time>
      </trkpt>
      <trkpt lat="48.3575" lon="2.73912">
        <ele>96.2</ele>
        <time>2021-08-21T10:17:10Z</time>
      </trkpt>
      <trkpt lat="48.35749" lon="2.73912">
        <ele>96.3</ele>
        <time>2021-08-21T10:17:11Z</time>
      </trkpt>
      <trkpt lat="48.35748" lon="2.73912">
        <ele>96.4</ele>
        <time>2021-08-21T10:17:13Z</time>
      </trkpt>
      <trkpt lat="48.35747" lon="2.73912">
        <ele>96.5</ele>
        <time>2021-08-21T10:17:14Z</time>
      </trkpt>
      <trkpt lat="48.35746" lon="2.73912">
        <ele>96.6</ele>
        <time>2021-08-21T10:17:15Z</time>
      </trkpt>
      <trkpt lat="48.35745" lon="2.73911">
        <ele>96.7</ele>
        <time>2021-08-21T10:17:16Z</time>
      </trkpt>
      <trkpt lat="48.35744" lon="2.73911">
        <ele>96.8</ele>
        <time>2021-08-21T10:17:17Z</time>
      </trkpt>
      <trkpt lat="48.35743" lon="2.73911">
        <ele>96.8</ele>
        <time>2021-08-21T10:17:19Z</time>
      </trkpt>
      <trkpt lat="48.35742" lon="2.73911">
        <ele>96.9</ele>
        <time>2021-08-21T10:17:20Z</time>
      </trkpt>
      <trkpt lat="48.35741" lon="2.73912">
        <ele>97</ele>
        <time>2021-08-21T10:17:21Z</time>
      </trkpt>
      <trkpt lat="48.3574" lon="2.73912">
        <ele>97.1</ele>
        <time>2021-08-21T10:17:22Z</time>
      </trkpt>
      <trkpt lat="48.35739" lon="2.73912">
        <ele>97.2</ele>
        <time>2021-08-21T10:17:24Z</time>
      </trkpt>
      <trkpt lat="48.35738" lon="2.73912">
        <ele>97.3</ele>
        <time>2021-08-21T10:17:25Z</time>
      </trkpt>
      <trkpt lat="48.35737" lon="2.73912">
        <ele>97.5</ele>
        <time>2021-08-21T10:17:26Z</time>
      </trkpt>
      <trkpt lat="48.35736" lon="2.73913">
        <ele>97.5</ele>
        <time>2021-08-21T10:17:28Z</time>
      </trkpt>
      <trkpt lat="48.35735" lon="2.73913">
        <ele>97.6</ele>
        <time>2021-08-21T10:17:29Z</time>
      </trkpt>
      <trkpt lat="48.35735" lon="2.73913">
        <ele>97.7</ele>
        <time>2021-08-21T10:17:30Z</time>
      </trkpt>
      <trkpt lat="48.35733" lon="2.73912">
        <ele>97.9</ele>
        <time>2021-08-21T10:17:31Z</time>
      </trkpt>
      <trkpt lat="48.35732" lon="2.73912">
        <ele>98</ele>
        <time>2021-08-21T10:17:32Z</time>
      </trkpt>
      <trkpt lat="48.35732" lon="2.73911">
        <ele>98.1</ele>
        <time>2021-08-21T10:17:34Z</time>
      </trkpt>
      <trkpt lat="48.35731" lon="2.73911">
        <ele>98.2</ele>
        <time>2021-08-21T10:17:35Z</time>
      </trkpt>
      <trkpt lat="48.3573" lon="2.73911">
        <ele>98.2</ele>
        <time>2021-08-21T10:17:37Z</time>
      </trkpt>
      <trkpt lat="48.35729" lon="2.7391">
        <ele>98.4</ele>
        <time>2021-08-21T10:17:39Z</time>
      </trkpt>
      <trkpt lat="48.35728" lon="2.7391">
        <ele>98.6</ele>
        <time>2021-08-21T10:17:40Z</time>
      </trkpt>
      <trkpt lat="48.35726" lon="2.7391">
        <ele>98.8</ele>
        <time>2021-08-21T10:17:42Z</time>
      </trkpt>
      <trkpt lat="48.35725" lon="2.7391">
        <ele>98.9</ele>
        <time>2021-08-21T10:17:43Z</time>
      </trkpt>
      <trkpt lat="48.35724" lon="2.7391">
        <ele>99</ele>
        <time>2021-08-21T10:17:45Z</time>
      </trkpt>
      <trkpt lat="48.35723" lon="2.7391">
        <ele>99.2</ele>
        <time>2021-08-21T10:17:46Z</time>
      </trkpt>
      <trkpt lat="48.35722" lon="2.7391">
        <ele>99.3</ele>
        <time>2021-08-21T10:17:48Z</time>
      </trkpt>
      <trkpt lat="48.35721" lon="2.7391">
        <ele>99.5</ele>
        <time>2021-08-21T10:17:49Z</time>
      </trkpt>
      <trkpt lat="48.35721" lon="2.7391">
        <ele>99.6</ele>
        <time>2021-08-21T10:17:50Z</time>
      </trkpt>
      <trkpt lat="48.3572" lon="2.7391">
        <ele>99.6</ele>
        <time>2021-08-21T10:17:51Z</time>
      </trkpt>
      <trkpt lat="48.3572" lon="2.7391">
        <ele>99.7</ele>
        <time>2021-08-21T10:17:53Z</time>
      </trkpt>
      <trkpt lat="48.35719" lon="2.73911">
        <ele>99.8</ele>
        <time>2021-08-21T10:17:54Z</time>
      </trkpt>
      <trkpt lat="48.35719" lon="2.73911">
        <ele>99.9</ele>
        <time>2021-08-21T10:17:55Z</time>
      </trkpt>
      <trkpt lat="48.35719" lon="2.73912">
        <ele>100</ele>
        <time>2021-08-21T10:17:56Z</time>
      </trkpt>
      <trkpt lat="48.35718" lon="2.73911">
        <ele>100.1</ele>
        <time>2021-08-21T10:17:57Z</time>
      </trkpt>
      <trkpt lat="48.35717" lon="2.73911">
        <ele>100.2</ele>
        <time>2021-08-21T10:17:58Z</time>
      </trkpt>
      <trkpt lat="48.35717" lon="2.73912">
        <ele>100.3</ele>
        <time>2021-08-21T10:17:59Z</time>
      </trkpt>
      <trkpt lat="48.35715" lon="2.73912">
        <ele>100.6</ele>
        <time>2021-08-21T10:18:00Z</time>
      </trkpt>
      <trkpt lat="48.35715" lon="2.73911">
        <ele>100.6</ele>
        <time>2021-08-21T10:18:02Z</time>
      </trkpt>
      <trkpt lat="48.35714" lon="2.73911">
        <ele>100.8</ele>
        <time>2021-08-21T10:18:04Z</time>
      </trkpt>
      <trkpt lat="48.35714" lon="2.73911">
        <ele>100.9</ele>
        <time>2021-08-21T10:18:05Z</time>
      </trkpt>
      <trkpt lat="48.35713" lon="2.73911">
        <ele>101</ele>
        <time>2021-08-21T10:18:06Z</time>
      </trkpt>
      <trkpt lat="48.35713" lon="2.73911">
        <ele>101</ele>
        <time>2021-08-21T10:18:07Z</time>
      </trkpt>
      <trkpt lat="48.35713" lon="2.73911">
        <ele>101.1</ele>
        <time>2021-08-21T10:18:08Z</time>
      </trkpt>
      <trkpt lat="48.35712" lon="2.73911">
        <ele>101.1</ele>
        <time>2021-08-21T10:18:09Z</time>
      </trkpt>
      <trkpt lat="48.35712" lon="2.73911">
        <ele>101.2</ele>
        <time>2021-08-21T10:18:10Z</time>
      </trkpt>
      <trkpt lat="48.35711" lon="2.73911">
        <ele>101.3</ele>
        <time>2021-08-21T10:18:12Z</time>
      </trkpt>
      <trkpt lat="48.35711" lon="2.73912">
        <ele>101.4</ele>
        <time>2021-08-21T10:18:14Z</time>
      </trkpt>
      <trkpt lat="48.35711" lon="2.73912">
        <ele>101.5</ele>
        <time>2021-08-21T10:18:15Z</time>
      </trkpt>
      <trkpt lat="48.3571" lon="2.73913">
        <ele>101.6</ele>
        <time>2021-08-21T10:18:16Z</time>
      </trkpt>
      <trkpt lat="48.3571" lon="2.73913">
        <ele>101.7</ele>
        <time>2021-08-21T10:18:17Z</time>
      </trkpt>
      <trkpt lat="48.35709" lon="2.73913">
        <ele>101.8</ele>
        <time>2021-08-21T10:18:19Z</time>
      </trkpt>
      <trkpt lat="48.35709" lon="2.73913">
        <ele>101.9</ele>
        <time>2021-08-21T10:18:20Z</time>
      </trkpt>
      <trkpt lat="48.35708" lon="2.73914">
        <ele>102.1</ele>
        <time>2021-08-21T10:18:21Z</time>
      </trkpt>
      <trkpt lat="48.35707" lon="2.73914">
        <ele>102.2</ele>
        <time>2021-08-21T10:18:22Z</time>
      </trkpt>
      <trkpt lat="48.35707" lon="2.73914">
        <ele>102.3</ele>
        <time>2021-08-21T10:18:23Z</time>
      </trkpt>
      <trkpt lat="48.35706" lon="2.73913">
        <ele>102.6</ele>
        <time>2021-08-21T10:18:24Z</time>
      </trkpt>
      <trkpt lat="48.35704" lon="2.73914">
        <ele>102.8</ele>
        <time>2021-08-21T10:18:26Z</time>
      </trkpt>
      <trkpt lat="48.35704" lon="2.73913">
        <ele>103</ele>
        <time>2021-08-21T10:18:27Z</time>
      </trkpt>
      <trkpt lat="48.35703" lon="2.73913">
        <ele>103.2</ele>
        <time>2021-08-21T10:18:28Z</time>
      </trkpt>
      <trkpt lat="48.35702" lon="2.73913">
        <ele>103.4</ele>
        <time>2021-08-21T10:18:29Z</time>
      </trkpt>
      <trkpt lat="48.357" lon="2.73913">
        <ele>103.8</ele>
        <time>2021-08-21T10:18:30Z</time>
      </trkpt>
      <trkpt lat="48.35699" lon="2.73913">
        <ele>104.1</ele>
        <time>2021-08-21T10:18:32Z</time>
      </trkpt>
      <trkpt lat="48.35697" lon="2.73913">
        <ele>104.5</ele>
        <time>2021-08-21T10:18:33Z</time>
      </trkpt>
      <trkpt lat="48.35696" lon="2.73913">
        <ele>104.9</ele>
        <time>2021-08-21T10:18:35Z</time>
      </trkpt>
      <trkpt lat="48.35694" lon="2.73912">
        <ele>105.3</ele>
        <time>2021-08-21T10:18:37Z</time>
      </trkpt>
      <trkpt lat="48.35694" lon="2.73911">
        <ele>105.5</ele>
        <time>2021-08-21T10:18:38Z</time>
      </trkpt>
      <trkpt lat="48.35692" lon="2.73912">
        <ele>105.9</ele>
        <time>2021-08-21T10:18:39Z</time>
      </trkpt>
      <trkpt lat="48.3569" lon="2.73911">
        <ele>106.5</ele>
        <time>2021-08-21T10:18:41Z</time>
      </trkpt>
      <trkpt lat="48.3569" lon="2.73912">
        <ele>106.7</ele>
        <time>2021-08-21T10:18:43Z</time>
      </trkpt>
      <trkpt lat="48.35689" lon="2.73913">
        <ele>106.8</ele>
        <time>2021-08-21T10:18:44Z</time>
      </trkpt>
      <trkpt lat="48.35689" lon="2.73913">
        <ele>107</ele>
        <time>2021-08-21T10:18:45Z</time>
      </trkpt>
      <trkpt lat="48.35688" lon="2.73914">
        <ele>107.2</ele>
        <time>2021-08-21T10:18:46Z</time>
      </trkpt>
      <trkpt lat="48.35688" lon="2.73914">
        <ele>107.4</ele>
        <time>2021-08-21T10:18:47Z</time>
      </trkpt>
      <trkpt lat="48.35688" lon="2.73914">
        <ele>107.4</ele>
        <time>2021-08-21T10:18:48Z</time>
      </trkpt>
      <trkpt lat="48.35687" lon="2.73915">
        <ele>107.6</ele>
        <time>2021-08-21T10:18:49Z</time>
      </trkpt>
      <trkpt lat="48.35687" lon="2.73915">
        <ele>107.6</ele>
        <time>2021-08-21T10:18:50Z</time>
      </trkpt>
      <trkpt lat="48.35687" lon="2.73915">
        <ele>107.7</ele>
        <time>2021-08-21T10:18:51Z</time>
      </trkpt>
      <trkpt lat="48.35687" lon="2.73915">
        <ele>107.7</ele>
        <time>2021-08-21T10:18:52Z</time>
      </trkpt>
      <trkpt lat="48.35687" lon="2.73915">
        <ele>107.8</ele>
        <time>2021-08-21T10:18:53Z</time>
      </trkpt>
      <trkpt lat="48.35686" lon="2.73916">
        <ele>107.9</ele>
        <time>2021-08-21T10:18:54Z</time>
      </trkpt>
      <trkpt lat="48.35685" lon="2.73916">
        <ele>108.2</ele>
        <time>2021-08-21T10:18:55Z</time>
      </trkpt>
      <trkpt lat="48.35685" lon="2.73916">
        <ele>108.2</ele>
        <time>2021-08-21T10:18:57Z</time>
      </trkpt>
      <trkpt lat="48.35685" lon="2.73916">
        <ele>108.4</ele>
        <time>2021-08-21T10:18:58Z</time>
      </trkpt>
      <trkpt lat="48.35684" lon="2.73916">
        <ele>108.5</ele>
        <time>2021-08-21T10:18:59Z</time>
      </trkpt>
      <trkpt lat="48.35684" lon="2.73916">
        <ele>108.6</ele>
        <time>2021-08-21T10:19:00Z</time>
      </trkpt>
      <trkpt lat="48.35683" lon="2.73917">
        <ele>108.9</ele>
        <time>2021-08-21T10:19:01Z</time>
      </trkpt>
      <trkpt lat="48.35683" lon="2.73917">
        <ele>109</ele>
        <time>2021-08-21T10:19:02Z</time>
      </trkpt>
      <trkpt lat="48.35683" lon="2.73918">
        <ele>109.2</ele>
        <time>2021-08-21T10:19:03Z</time>
      </trkpt>
      <trkpt lat="48.35681" lon="2.73919">
        <ele>109.8</ele>
        <time>2021-08-21T10:19:04Z</time>
      </trkpt>
      <trkpt lat="48.3568" lon="2.7392">
        <ele>110.1</ele>
        <time>2021-08-21T10:19:05Z</time>
      </trkpt>
      <trkpt lat="48.35679" lon="2.73921">
        <ele>110.4</ele>
        <time>2021-08-21T10:19:07Z</time>
      </trkpt>
      <trkpt lat="48.35678" lon="2.73922">
        <ele>110.7</ele>
        <time>2021-08-21T10:19:09Z</time>
      </trkpt>
      <trkpt lat="48.35677" lon="2.73923">
        <ele>111.1</ele>
        <time>2021-08-21T10:19:10Z</time>
      </trkpt>
      <trkpt lat="48.35677" lon="2.73924">
        <ele>111.4</ele>
        <time>2021-08-21T10:19:11Z</time>
      </trkpt>
      <trkpt lat="48.35675" lon="2.73924">
        <ele>111.8</ele>
        <time>2021-08-21T10:19:13Z</time>
      </trkpt>
      <trkpt lat="48.35674" lon="2.73925">
        <ele>112.2</ele>
        <time>2021-08-21T10:19:14Z</time>
      </trkpt>
      <trkpt lat="48.35674" lon="2.73922">
        <ele>112.8</ele>
        <time>2021-08-21T10:19:16Z</time>
      </trkpt>
      <trkpt lat="48.35674" lon="2.73922">
        <ele>112.9</ele>
        <time>2021-08-21T10:19:17Z</time>
      </trkpt>
      <trkpt lat="48.35674" lon="2.73922">
        <ele>113</ele>
        <time>2021-08-21T10:19:18Z</time>
      </trkpt>
      <trkpt lat="48.35673" lon="2.73922">
        <ele>113.1</ele>
        <time>2021-08-21T10:19:19Z</time>
      </trkpt>
      <trkpt lat="48.35673" lon="2.73923">
        <ele>113.2</ele>
        <time>2021-08-21T10:19:20Z</time>
      </trkpt>
      <trkpt lat="48.35673" lon="2.73923">
        <ele>113.3</ele>
        <time>2021-08-21T10:19:21Z</time>
      </trkpt>
      <trkpt lat="48.35673" lon="2.73923">
        <ele>113.3</ele>
        <time>2021-08-21T10:19:22Z</time>
      </trkpt>
      <trkpt lat="48.35673" lon="2.73924">
        <ele>113.4</ele>
        <time>2021-08-21T10:19:23Z</time>
      </trkpt>
      <trkpt lat="48.35673" lon="2.73924">
        <ele>113.4</ele>
        <time>2021-08-21T10:19:24Z</time>
      </trkpt>
      <trkpt lat="48.35672" lon="2.73925">
        <ele>113.8</ele>
        <time>2021-08-21T10:19:26Z</time>
      </trkpt>
      <trkpt lat="48.35672" lon="2.73925">
        <ele>113.8</ele>
        <time>2021-08-21T10:19:27Z</time>
      </trkpt>
      <trkpt lat="48.35672" lon="2.73925">
        <ele>113.9</ele>
        <time>2021-08-21T10:19:28Z</time>
      </trkpt>
      <trkpt lat="48.35673" lon="2.73925">
        <ele>113.9</ele>
        <time>2021-08-21T10:19:29Z</time>
      </trkpt>
      <trkpt lat="48.35673" lon="2.73924">
        <ele>114</ele>
        <time>2021-08-21T10:19:30Z</time>
      </trkpt>
      <trkpt lat="48.35672" lon="2.73924">
        <ele>114.1</ele>
        <time>2021-08-21T10:19:31Z</time>
      </trkpt>
      <trkpt lat="48.35672" lon="2.73924">
        <ele>114.2</ele>
        <time>2021-08-21T10:19:32Z</time>
      </trkpt>
      <trkpt lat="48.35672" lon="2.73924">
        <ele>114.3</ele>
        <time>2021-08-21T10:19:33Z</time>
      </trkpt>
      <trkpt lat="48.35672" lon="2.73923">
        <ele>114.3</ele>
        <time>2021-08-21T10:19:34Z</time>
      </trkpt>
      <trkpt lat="48.35672" lon="2.73923">
        <ele>114.4</ele>
        <time>2021-08-21T10:19:35Z</time>
      </trkpt>
      <trkpt lat="48.35672" lon="2.73923">
        <ele>114.5</ele>
        <time>2021-08-21T10:19:36Z</time>
      </trkpt>
      <trkpt lat="48.35671" lon="2.73922">
        <ele>114.7</ele>
        <time>2021-08-21T10:19:37Z</time>
      </trkpt>
      <trkpt lat="48.35671" lon="2.73922">
        <ele>114.8</ele>
        <time>2021-08-21T10:19:38Z</time>
      </trkpt>
      <trkpt lat="48.35671" lon="2.73922">
        <ele>114.8</ele>
        <time>2021-08-21T10:19:39Z</time>
      </trkpt>
      <trkpt lat="48.35671" lon="2.73922">
        <ele>115</ele>
        <time>2021-08-21T10:19:40Z</time>
      </trkpt>
      <trkpt lat="48.35672" lon="2.73921">
        <ele>115.2</ele>
        <time>2021-08-21T10:19:41Z</time>
      </trkpt>
      <trkpt lat="48.35672" lon="2.73921">
        <ele>115.2</ele>
        <time>2021-08-21T10:19:42Z</time>
      </trkpt>
      <trkpt lat="48.35672" lon="2.73921">
        <ele>115.2</ele>
        <time>2021-08-21T10:19:43Z</time>
      </trkpt>
      <trkpt lat="48.35672" lon="2.73921">
        <ele>115.3</ele>
        <time>2021-08-21T10:19:44Z</time>
      </trkpt>
      <trkpt lat="48.35672" lon="2.73921">
        <ele>115.3</ele>
        <time>2021-08-21T10:19:45Z</time>
      </trkpt>
      <trkpt lat="48.35672" lon="2.73921">
        <ele>115.3</ele>
        <time>2021-08-21T10:19:46Z</time>
      </trkpt>
      <trkpt lat="48.35672" lon="2.73921">
        <ele>115.3</ele>
        <time>2021-08-21T10:19:47Z</time>
      </trkpt>
      <trkpt lat="48.35672" lon="2.73921">
        <ele>115.3</ele>
        <time>2021-08-21T10:19:48Z</time>
      </trkpt>
      <trkpt lat="48.35672" lon="2.73921">
        <ele>115.3</ele>
        <time>2021-08-21T10:19:49Z</time>
      </trkpt>
      <trkpt lat="48.35672" lon="2.73921">
        <ele>115.3</ele>
        <time>2021-08-21T10:19:50Z</time>
      </trkpt>
      <trkpt lat="48.35672" lon="2.73921">
        <ele>115.3</ele>
        <time>2021-08-21T10:19:51Z</time>
      </trkpt>
      <trkpt lat="48.35672" lon="2.73921">
        <ele>115.3</ele>
        <time>2021-08-21T10:19:52Z</time>
      </trkpt>
      <trkpt lat="48.35672" lon="2.73921">
        <ele>115.3</ele>
        <time>2021-08-21T10:19:53Z</time>
      </trkpt>
      <trkpt lat="48.35672" lon="2.73921">
        <ele>115.3</ele>
        <time>2021-08-21T10:19:54Z</time>
      </trkpt>
      <trkpt lat="48.35672" lon="2.73921">
        <ele>115.3</ele>
        <time>2021-08-21T10:19:55Z</time>
      </trkpt>
      <trkpt lat="48.35672" lon="2.73921">
        <ele>115.3</ele>
        <time>2021-08-21T10:19:56Z</time>
      </trkpt>
      <trkpt lat="48.35672" lon="2.73921">
        <ele>115.3</ele>
        <time>2021-08-21T10:19:57Z</time>
      </trkpt>
      <trkpt lat="48.35672" lon="2.73921">
        <ele>115.3</ele>
        <time>2021-08-21T10:19:58Z</time>
      </trkpt>
      <trkpt lat="48.35672" lon="2.73921">
        <ele>115.3</ele>
        <time>2021-08-21T10:19:59Z</time>
      </trkpt>
      <trkpt lat="48.35672" lon="2.73921">
        <ele>115.3</ele>
        <time>2021-08-21T10:20:00Z</time>
      </trkpt>
      <trkpt lat="48.35672" lon="2.73921">
        <ele>115.3</ele>
        <time>2021-08-21T10:20:01Z</time>
      </trkpt>
      <trkpt lat="48.35672" lon="2.73921">
        <ele>115.4</ele>
        <time>2021-08-21T10:20:02Z</time>
      </trkpt>
      <trkpt lat="48.35673" lon="2.73921">
        <ele>115.6</ele>
        <time>2021-08-21T10:20:03Z</time>
      </trkpt>
      <trkpt lat="48.35673" lon="2.73921">
        <ele>115.7</ele>
        <time>2021-08-21T10:20:04Z</time>
      </trkpt>
      <trkpt lat="48.35673" lon="2.73921">
        <ele>115.8</ele>
        <time>2021-08-21T10:20:05Z</time>
      </trkpt>
      <trkpt lat="48.35673" lon="2.73919">
        <ele>116.1</ele>
        <time>2021-08-21T10:20:06Z</time>
      </trkpt>
      <trkpt lat="48.35673" lon="2.73919">
        <ele>116.1</ele>
        <time>2021-08-21T10:20:07Z</time>
      </trkpt>
      <trkpt lat="48.35673" lon="2.73919">
        <ele>116.2</ele>
        <time>2021-08-21T10:20:08Z</time>
      </trkpt>
      <trkpt lat="48.35673" lon="2.7392">
        <ele>116.3</ele>
        <time>2021-08-21T10:20:09Z</time>
      </trkpt>
      <trkpt lat="48.35673" lon="2.7392">
        <ele>116.3</ele>
        <time>2021-08-21T10:20:10Z</time>
      </trkpt>
      <trkpt lat="48.35673" lon="2.7392">
        <ele>116.3</ele>
        <time>2021-08-21T10:20:11Z</time>
      </trkpt>
      <trkpt lat="48.35673" lon="2.7392">
        <ele>116.3</ele>
        <time>2021-08-21T10:20:12Z</time>
      </trkpt>
      <trkpt lat="48.35673" lon="2.7392">
        <ele>116.3</ele>
        <time>2021-08-21T10:20:13Z</time>
      </trkpt>
      <trkpt lat="48.35673" lon="2.7392">
        <ele>116.4</ele>
        <time>2021-08-21T10:20:14Z</time>
      </trkpt>
      <trkpt lat="48.35673" lon="2.7392">
        <ele>116.4</ele>
        <time>2021-08-21T10:20:15Z</time>
      </trkpt>
      <trkpt lat="48.35673" lon="2.7392">
        <ele>116.5</ele>
        <time>2021-08-21T10:20:16Z</time>
      </trkpt>
      <trkpt lat="48.35673" lon="2.7392">
        <ele>116.5</ele>
        <time>2021-08-21T10:20:18Z</time>
      </trkpt>
      <trkpt lat="48.35673" lon="2.7392">
        <ele>116.6</ele>
        <time>2021-08-21T10:20:19Z</time>
      </trkpt>
      <trkpt lat="48.35672" lon="2.7392">
        <ele>116.6</ele>
        <time>2021-08-21T10:20:20Z</time>
      </trkpt>
      <trkpt lat="48.35672" lon="2.7392">
        <ele>116.7</ele>
        <time>2021-08-21T10:20:22Z</time>
      </trkpt>
      <trkpt lat="48.35672" lon="2.73921">
        <ele>116.8</ele>
        <time>2021-08-21T10:20:23Z</time>
      </trkpt>
      <trkpt lat="48.35672" lon="2.73921">
        <ele>116.9</ele>
        <time>2021-08-21T10:20:24Z</time>
      </trkpt>
      <trkpt lat="48.35672" lon="2.73921">
        <ele>117</ele>
        <time>2021-08-21T10:20:25Z</time>
      </trkpt>
      <trkpt lat="48.35671" lon="2.73922">
        <ele>117.1</ele>
        <time>2021-08-21T10:20:27Z</time>
      </trkpt>
      <trkpt lat="48.35671" lon="2.73922">
        <ele>117.2</ele>
        <time>2021-08-21T10:20:28Z</time>
      </trkpt>
      <trkpt lat="48.35671" lon="2.73922">
        <ele>117.3</ele>
        <time>2021-08-21T10:20:29Z</time>
      </trkpt>
      <trkpt lat="48.35671" lon="2.73922">
        <ele>117.3</ele>
        <time>2021-08-21T10:20:30Z</time>
      </trkpt>
      <trkpt lat="48.35671" lon="2.73923">
        <ele>117.5</ele>
        <time>2021-08-21T10:20:32Z</time>
      </trkpt>
      <trkpt lat="48.35671" lon="2.73923">
        <ele>117.5</ele>
        <time>2021-08-21T10:20:33Z</time>
      </trkpt>
      <trkpt lat="48.35671" lon="2.73924">
        <ele>117.7</ele>
        <time>2021-08-21T10:20:34Z</time>
      </trkpt>
      <trkpt lat="48.3567" lon="2.73924">
        <ele>117.8</ele>
        <time>2021-08-21T10:20:35Z</time>
      </trkpt>
      <trkpt lat="48.3567" lon="2.73925">
        <ele>117.9</ele>
        <time>2021-08-21T10:20:36Z</time>
      </trkpt>
      <trkpt lat="48.3567" lon="2.73925">
        <ele>117.9</ele>
        <time>2021-08-21T10:20:37Z</time>
      </trkpt>
      <trkpt lat="48.3567" lon="2.73925">
        <ele>117.9</ele>
        <time>2021-08-21T10:20:38Z</time>
      </trkpt>
      <trkpt lat="48.3567" lon="2.73925">
        <ele>117.9</ele>
        <time>2021-08-21T10:20:39Z</time>
      </trkpt>
      <trkpt lat="48.3567" lon="2.73924">
        <ele>117.9</ele>
        <time>2021-08-21T10:20:40Z</time>
      </trkpt>
      <trkpt lat="48.3567" lon="2.73924">
        <ele>118</ele>
        <time>2021-08-21T10:20:41Z</time>
      </trkpt>
      <trkpt lat="48.3567" lon="2.73924">
        <ele>118</ele>
        <time>2021-08-21T10:20:42Z</time>
      </trkpt>
      <trkpt lat="48.3567" lon="2.73924">
        <ele>118.1</ele>
        <time>2021-08-21T10:20:43Z</time>
      </trkpt>
      <trkpt lat="48.3567" lon="2.73924">
        <ele>118.1</ele>
        <time>2021-08-21T10:20:44Z</time>
      </trkpt>
      <trkpt lat="48.3567" lon="2.73924">
        <ele>118.1</ele>
        <time>2021-08-21T10:20:45Z</time>
      </trkpt>
      <trkpt lat="48.3567" lon="2.73924">
        <ele>118.2</ele>
        <time>2021-08-21T10:20:46Z</time>
      </trkpt>
      <trkpt lat="48.3567" lon="2.73924">
        <ele>118.2</ele>
        <time>2021-08-21T10:20:47Z</time>
      </trkpt>
      <trkpt lat="48.3567" lon="2.73924">
        <ele>118.2</ele>
        <time>2021-08-21T10:20:48Z</time>
      </trkpt>
      <trkpt lat="48.3567" lon="2.73924">
        <ele>118.3</ele>
        <time>2021-08-21T10:20:49Z</time>
      </trkpt>
      <trkpt lat="48.35669" lon="2.73924">
        <ele>118.3</ele>
        <time>2021-08-21T10:20:50Z</time>
      </trkpt>
      <trkpt lat="48.35669" lon="2.73924">
        <ele>118.4</ele>
        <time>2021-08-21T10:20:51Z</time>
      </trkpt>
      <trkpt lat="48.35669" lon="2.73924">
        <ele>118.4</ele>
        <time>2021-08-21T10:20:52Z</time>
      </trkpt>
      <trkpt lat="48.35669" lon="2.73924">
        <ele>118.4</ele>
        <time>2021-08-21T10:20:53Z</time>
      </trkpt>
      <trkpt lat="48.35669" lon="2.73924">
        <ele>118.4</ele>
        <time>2021-08-21T10:20:54Z</time>
      </trkpt>
      <trkpt lat="48.35669" lon="2.73924">
        <ele>118.4</ele>
        <time>2021-08-21T10:20:55Z</time>
      </trkpt>
      <trkpt lat="48.35669" lon="2.73924">
        <ele>118.4</ele>
        <time>2021-08-21T10:20:56Z</time>
      </trkpt>
      <trkpt lat="48.35669" lon="2.73924">
        <ele>118.4</ele>
        <time>2021-08-21T10:20:57Z</time>
      </trkpt>
      <trkpt lat="48.35669" lon="2.73924">
        <ele>118.5</ele>
        <time>2021-08-21T10:20:58Z</time>
      </trkpt>
      <trkpt lat="48.35669" lon="2.73924">
        <ele>118.5</ele>
        <time>2021-08-21T10:20:59Z</time>
      </trkpt>
      <trkpt lat="48.35669" lon="2.73924">
        <ele>118.5</ele>
        <time>2021-08-21T10:21:00Z</time>
      </trkpt>
      <trkpt lat="48.35669" lon="2.73924">
        <ele>118.5</ele>
        <time>2021-08-21T10:21:01Z</time>
      </trkpt>
      <trkpt lat="48.35669" lon="2.73924">
        <ele>118.5</ele>
        <time>2021-08-21T10:21:02Z</time>
      </trkpt>
      <trkpt lat="48.35669" lon="2.73924">
        <ele>118.5</ele>
        <time>2021-08-21T10:21:03Z</time>
      </trkpt>
      <trkpt lat="48.35669" lon="2.73924">
        <ele>118.5</ele>
        <time>2021-08-21T10:21:04Z</time>
      </trkpt>
      <trkpt lat="48.35669" lon="2.73924">
        <ele>118.5</ele>
        <time>2021-08-21T10:21:05Z</time>
      </trkpt>
      <trkpt lat="48.35669" lon="2.73924">
        <ele>118.5</ele>
        <time>2021-08-21T10:21:06Z</time>
      </trkpt>
      <trkpt lat="48.35669" lon="2.73924">
        <ele>118.5</ele>
        <time>2021-08-21T10:21:07Z</time>
      </trkpt>
      <trkpt lat="48.35669" lon="2.73924">
        <ele>118.5</ele>
        <time>2021-08-21T10:21:08Z</time>
      </trkpt>
      <trkpt lat="48.35669" lon="2.73924">
        <ele>118.5</ele>
        <time>2021-08-21T10:21:09Z</time>
      </trkpt>
      <trkpt lat="48.35669" lon="2.73924">
        <ele>118.5</ele>
        <time>2021-08-21T10:21:10Z</time>
      </trkpt>
      <trkpt lat="48.35669" lon="2.73924">
        <ele>118.5</ele>
        <time>2021-08-21T10:21:11Z</time>
      </trkpt>
      <trkpt lat="48.35669" lon="2.73924">
        <ele>118.5</ele>
        <time>2021-08-21T10:21:12Z</time>
      </trkpt>
      <trkpt lat="48.35669" lon="2.73924">
        <ele>118.5</ele>
        <time>2021-08-21T10:21:13Z</time>
      </trkpt>
      <trkpt lat="48.35669" lon="2.73924">
        <ele>118.5</ele>
        <time>2021-08-21T10:21:14Z</time>
      </trkpt>
      <trkpt lat="48.35669" lon="2.73924">
        <ele>118.5</ele>
        <time>2021-08-21T10:21:15Z</time>
      </trkpt>
      <trkpt lat="48.35669" lon="2.73924">
        <ele>118.5</ele>
        <time>2021-08-21T10:21:16Z</time>
      </trkpt>
      <trkpt lat="48.35669" lon="2.73924">
        <ele>118.5</ele>
        <time>2021-08-21T10:21:17Z</time>
      </trkpt>
      <trkpt lat="48.35669" lon="2.73924">
        <ele>118.5</ele>
        <time>2021-08-21T10:21:18Z</time>
      </trkpt>
      <trkpt lat="48.35669" lon="2.73924">
        <ele>118.5</ele>
        <time>2021-08-21T10:21:19Z</time>
      </trkpt>
      <trkpt lat="48.35669" lon="2.73924">
        <ele>118.5</ele>
        <time>2021-08-21T10:21:20Z</time>
      </trkpt>
      <trkpt lat="48.35669" lon="2.73924">
        <ele>118.5</ele>
        <time>2021-08-21T10:21:21Z</time>
      </trkpt>
      <trkpt lat="48.35669" lon="2.73924">
        <ele>118.5</ele>
        <time>2021-08-21T10:21:22Z</time>
      </trkpt>
      <trkpt lat="48.35669" lon="2.73924">
        <ele>118.5</ele>
        <time>2021-08-21T10:21:23Z</time>
      </trkpt>
      <trkpt lat="48.35669" lon="2.73924">
        <ele>118.5</ele>
        <time>2021-08-21T10:21:24Z</time>
      </trkpt>
      <trkpt lat="48.35669" lon="2.73924">
        <ele>118.5</ele>
        <time>2021-08-21T10:21:25Z</time>
      </trkpt>
      <trkpt lat="48.35669" lon="2.73924">
        <ele>118.5</ele>
        <time>2021-08-21T10:21:26Z</time>
      </trkpt>
      <trkpt lat="48.35669" lon="2.73924">
        <ele>118.5</ele>
        <time>2021-08-21T10:21:27Z</time>
      </trkpt>
      <trkpt lat="48.35669" lon="2.73924">
        <ele>118.5</ele>
        <time>2021-08-21T10:21:28Z</time>
      </trkpt>
      <trkpt lat="48.35669" lon="2.73924">
        <ele>118.5</ele>
        <time>2021-08-21T10:21:29Z</time>
      </trkpt>
      <trkpt lat="48.35669" lon="2.73924">
        <ele>118.5</ele>
        <time>2021-08-21T10:21:30Z</time>
      </trkpt>
      <trkpt lat="48.35669" lon="2.73924">
        <ele>118.5</ele>
        <time>2021-08-21T10:21:31Z</time>
      </trkpt>
      <trkpt lat="48.35669" lon="2.73924">
        <ele>118.5</ele>
        <time>2021-08-21T10:21:32Z</time>
      </trkpt>
      <trkpt lat="48.35669" lon="2.73924">
        <ele>118.5</ele>
        <time>2021-08-21T10:21:33Z</time>
      </trkpt>
      <trkpt lat="48.35669" lon="2.73924">
        <ele>118.5</ele>
        <time>2021-08-21T10:21:34Z</time>
      </trkpt>
      <trkpt lat="48.35669" lon="2.73924">
        <ele>118.5</ele>
        <time>2021-08-21T10:21:35Z</time>
      </trkpt>
      <trkpt lat="48.35669" lon="2.73924">
        <ele>118.5</ele>
        <time>2021-08-21T10:21:36Z</time>
      </trkpt>
      <trkpt lat="48.35669" lon="2.73924">
        <ele>118.5</ele>
        <time>2021-08-21T10:21:37Z</time>
      </trkpt>
      <trkpt lat="48.35669" lon="2.73924">
        <ele>118.5</ele>
        <time>2021-08-21T10:21:38Z</time>
      </trkpt>
      <trkpt lat="48.35669" lon="2.73924">
        <ele>118.5</ele>
        <time>2021-08-21T10:21:39Z</time>
      </trkpt>
      <trkpt lat="48.35669" lon="2.73924">
        <ele>118.5</ele>
        <time>2021-08-21T10:21:40Z</time>
      </trkpt>
      <trkpt lat="48.35669" lon="2.73924">
        <ele>118.5</ele>
        <time>2021-08-21T10:21:41Z</time>
      </trkpt>
      <trkpt lat="48.35669" lon="2.73924">
        <ele>118.5</ele>
        <time>2021-08-21T10:21:42Z</time>
      </trkpt>
      <trkpt lat="48.35669" lon="2.73924">
        <ele>118.5</ele>
        <time>2021-08-21T10:21:43Z</time>
      </trkpt>
      <trkpt lat="48.35669" lon="2.73924">
        <ele>118.5</ele>
        <time>2021-08-21T10:21:44Z</time>
      </trkpt>
      <trkpt lat="48.35669" lon="2.73924">
        <ele>118.5</ele>
        <time>2021-08-21T10:21:45Z</time>
      </trkpt>
      <trkpt lat="48.35669" lon="2.73924">
        <ele>118.5</ele>
        <time>2021-08-21T10:21:46Z</time>
      </trkpt>
      <trkpt lat="48.35669" lon="2.73924">
        <ele>118.5</ele>
        <time>2021-08-21T10:21:47Z</time>
      </trkpt>
      <trkpt lat="48.35669" lon="2.73924">
        <ele>118.5</ele>
        <time>2021-08-21T10:21:48Z</time>
      </trkpt>
      <trkpt lat="48.35669" lon="2.73924">
        <ele>118.5</ele>
        <time>2021-08-21T10:21:49Z</time>
      </trkpt>
      <trkpt lat="48.35669" lon="2.73924">
        <ele>118.5</ele>
        <time>2021-08-21T10:21:50Z</time>
      </trkpt>
      <trkpt lat="48.35669" lon="2.73924">
        <ele>118.5</ele>
        <time>2021-08-21T10:21:51Z</time>
      </trkpt>
      <trkpt lat="48.35669" lon="2.73924">
        <ele>118.5</ele>
        <time>2021-08-21T10:21:52Z</time>
      </trkpt>
      <trkpt lat="48.35669" lon="2.73924">
        <ele>118.5</ele>
        <time>2021-08-21T10:21:53Z</time>
      </trkpt>
      <trkpt lat="48.35669" lon="2.73924">
        <ele>118.5</ele>
        <time>2021-08-21T10:21:54Z</time>
      </trkpt>
      <trkpt lat="48.35669" lon="2.73924">
        <ele>118.5</ele>
        <time>2021-08-21T10:21:55Z</time>
      </trkpt>
      <trkpt lat="48.35669" lon="2.73924">
        <ele>118.5</ele>
        <time>2021-08-21T10:21:56Z</time>
      </trkpt>
      <trkpt lat="48.35669" lon="2.73924">
        <ele>118.5</ele>
        <time>2021-08-21T10:21:57Z</time>
      </trkpt>
      <trkpt lat="48.35669" lon="2.73924">
        <ele>118.5</ele>
        <time>2021-08-21T10:21:58Z</time>
      </trkpt>
      <trkpt lat="48.35669" lon="2.73924">
        <ele>118.5</ele>
        <time>2021-08-21T10:21:59Z</time>
      </trkpt>
      <trkpt lat="48.35669" lon="2.73924">
        <ele>118.5</ele>
        <time>2021-08-21T10:22:00Z</time>
      </trkpt>
      <trkpt lat="48.35669" lon="2.73924">
        <ele>118.5</ele>
        <time>2021-08-21T10:22:01Z</time>
      </trkpt>
      <trkpt lat="48.35669" lon="2.73924">
        <ele>118.5</ele>
        <time>2021-08-21T10:22:02Z</time>
      </trkpt>
      <trkpt lat="48.35669" lon="2.73924">
        <ele>118.5</ele>
        <time>2021-08-21T10:22:03Z</time>
      </trkpt>
      <trkpt lat="48.35669" lon="2.73924">
        <ele>118.5</ele>
        <time>2021-08-21T10:22:04Z</time>
      </trkpt>
      <trkpt lat="48.35669" lon="2.73924">
        <ele>118.5</ele>
        <time>2021-08-21T10:22:05Z</time>
      </trkpt>
      <trkpt lat="48.35669" lon="2.73924">
        <ele>118.5</ele>
        <time>2021-08-21T10:22:06Z</time>
      </trkpt>
      <trkpt lat="48.35669" lon="2.73924">
        <ele>118.5</ele>
        <time>2021-08-21T10:22:07Z</time>
      </trkpt>
      <trkpt lat="48.35669" lon="2.73924">
        <ele>118.5</ele>
        <time>2021-08-21T10:22:08Z</time>
      </trkpt>
      <trkpt lat="48.35669" lon="2.73924">
        <ele>118.5</ele>
        <time>2021-08-21T10:22:09Z</time>
      </trkpt>
      <trkpt lat="48.35669" lon="2.73924">
        <ele>118.5</ele>
        <time>2021-08-21T10:22:10Z</time>
      </trkpt>
      <trkpt lat="48.35669" lon="2.73924">
        <ele>118.5</ele>
        <time>2021-08-21T10:22:11Z</time>
      </trkpt>
      <trkpt lat="48.35669" lon="2.73924">
        <ele>118.5</ele>
        <time>2021-08-21T10:22:12Z</time>
      </trkpt>
      <trkpt lat="48.35669" lon="2.73924">
        <ele>118.5</ele>
        <time>2021-08-21T10:22:13Z</time>
      </trkpt>
      <trkpt lat="48.35669" lon="2.73924">
        <ele>118.5</ele>
        <time>2021-08-21T10:22:14Z</time>
      </trkpt>
      <trkpt lat="48.35669" lon="2.73924">
        <ele>118.5</ele>
        <time>2021-08-21T10:22:15Z</time>
      </trkpt>
      <trkpt lat="48.35669" lon="2.73924">
        <ele>118.5</ele>
        <time>2021-08-21T10:22:16Z</time>
      </trkpt>
      <trkpt lat="48.35669" lon="2.73924">
        <ele>118.5</ele>
        <time>2021-08-21T10:22:17Z</time>
      </trkpt>
      <trkpt lat="48.35669" lon="2.73924">
        <ele>118.5</ele>
        <time>2021-08-21T10:22:18Z</time>
      </trkpt>
      <trkpt lat="48.35669" lon="2.73924">
        <ele>118.5</ele>
        <time>2021-08-21T10:22:19Z</time>
      </trkpt>
      <trkpt lat="48.35669" lon="2.73924">
        <ele>118.5</ele>
        <time>2021-08-21T10:22:20Z</time>
      </trkpt>
      <trkpt lat="48.35669" lon="2.73924">
        <ele>118.5</ele>
        <time>2021-08-21T10:22:21Z</time>
      </trkpt>
      <trkpt lat="48.35669" lon="2.73924">
        <ele>118.5</ele>
        <time>2021-08-21T10:22:22Z</time>
      </trkpt>
      <trkpt lat="48.35669" lon="2.73924">
        <ele>118.5</ele>
        <time>2021-08-21T10:22:23Z</time>
      </trkpt>
      <trkpt lat="48.35669" lon="2.73924">
        <ele>118.5</ele>
        <time>2021-08-21T10:22:24Z</time>
      </trkpt>
      <trkpt lat="48.35669" lon="2.73924">
        <ele>118.5</ele>
        <time>2021-08-21T10:22:25Z</time>
      </trkpt>
      <trkpt lat="48.35669" lon="2.73924">
        <ele>118.5</ele>
        <time>2021-08-21T10:22:26Z</time>
      </trkpt>
      <trkpt lat="48.35669" lon="2.73924">
        <ele>118.5</ele>
        <time>2021-08-21T10:22:27Z</time>
      </trkpt>
      <trkpt lat="48.35669" lon="2.73924">
        <ele>118.5</ele>
        <time>2021-08-21T10:22:28Z</time>
      </trkpt>
      <trkpt lat="48.35669" lon="2.73924">
        <ele>118.5</ele>
        <time>2021-08-21T10:22:29Z</time>
      </trkpt>
      <trkpt lat="48.35669" lon="2.73924">
        <ele>118.6</ele>
        <time>2021-08-21T10:22:30Z</time>
      </trkpt>
      <trkpt lat="48.35669" lon="2.73924">
        <ele>118.6</ele>
        <time>2021-08-21T10:22:31Z</time>
      </trkpt>
      <trkpt lat="48.35669" lon="2.73924">
        <ele>118.6</ele>
        <time>2021-08-21T10:22:32Z</time>
      </trkpt>
      <trkpt lat="48.35669" lon="2.73924">
        <ele>118.6</ele>
        <time>2021-08-21T10:22:33Z</time>
      </trkpt>
      <trkpt lat="48.35669" lon="2.73924">
        <ele>118.6</ele>
        <time>2021-08-21T10:22:34Z</time>
      </trkpt>
      <trkpt lat="48.35669" lon="2.73924">
        <ele>118.6</ele>
        <time>2021-08-21T10:22:35Z</time>
      </trkpt>
      <trkpt lat="48.35669" lon="2.73924">
        <ele>118.6</ele>
        <time>2021-08-21T10:22:36Z</time>
      </trkpt>
      <trkpt lat="48.35669" lon="2.73924">
        <ele>118.6</ele>
        <time>2021-08-21T10:22:37Z</time>
      </trkpt>
      <trkpt lat="48.35669" lon="2.73924">
        <ele>118.6</ele>
        <time>2021-08-21T10:22:38Z</time>
      </trkpt>
      <trkpt lat="48.35669" lon="2.73924">
        <ele>118.6</ele>
        <time>2021-08-21T10:22:39Z</time>
      </trkpt>
      <trkpt lat="48.35669" lon="2.73924">
        <ele>118.6</ele>
        <time>2021-08-21T10:22:40Z</time>
      </trkpt>
      <trkpt lat="48.35669" lon="2.73924">
        <ele>118.6</ele>
        <time>2021-08-21T10:22:41Z</time>
      </trkpt>
      <trkpt lat="48.35669" lon="2.73924">
        <ele>118.6</ele>
        <time>2021-08-21T10:22:42Z</time>
      </trkpt>
      <trkpt lat="48.35669" lon="2.73924">
        <ele>118.6</ele>
        <time>2021-08-21T10:22:43Z</time>
      </trkpt>
      <trkpt lat="48.35669" lon="2.73924">
        <ele>118.6</ele>
        <time>2021-08-21T10:22:44Z</time>
      </trkpt>
      <trkpt lat="48.35669" lon="2.73924">
        <ele>118.6</ele>
        <time>2021-08-21T10:22:45Z</time>
      </trkpt>
      <trkpt lat="48.35669" lon="2.73924">
        <ele>118.6</ele>
        <time>2021-08-21T10:22:46Z</time>
      </trkpt>
      <trkpt lat="48.35669" lon="2.73924">
        <ele>118.6</ele>
        <time>2021-08-21T10:22:47Z</time>
      </trkpt>
      <trkpt lat="48.35669" lon="2.73924">
        <ele>118.6</ele>
        <time>2021-08-21T10:22:48Z</time>
      </trkpt>
      <trkpt lat="48.35669" lon="2.73924">
        <ele>118.6</ele>
        <time>2021-08-21T10:22:49Z</time>
      </trkpt>
      <trkpt lat="48.35669" lon="2.73924">
        <ele>118.6</ele>
        <time>2021-08-21T10:22:50Z</time>
      </trkpt>
      <trkpt lat="48.35669" lon="2.73924">
        <ele>118.7</ele>
        <time>2021-08-21T10:22:51Z</time>
      </trkpt>
      <trkpt lat="48.35669" lon="2.73925">
        <ele>118.8</ele>
        <time>2021-08-21T10:22:52Z</time>
      </trkpt>
      <trkpt lat="48.35669" lon="2.73925">
        <ele>118.9</ele>
        <time>2021-08-21T10:22:53Z</time>
      </trkpt>
      <trkpt lat="48.35669" lon="2.73925">
        <ele>118.9</ele>
        <time>2021-08-21T10:22:54Z</time>
      </trkpt>
      <trkpt lat="48.35669" lon="2.73925">
        <ele>118.9</ele>
        <time>2021-08-21T10:22:55Z</time>
      </trkpt>
      <trkpt lat="48.35669" lon="2.73925">
        <ele>119</ele>
        <time>2021-08-21T10:22:56Z</time>
      </trkpt>
      <trkpt lat="48.35669" lon="2.73925">
        <ele>119</ele>
        <time>2021-08-21T10:22:57Z</time>
      </trkpt>
      <trkpt lat="48.35669" lon="2.73925">
        <ele>119</ele>
        <time>2021-08-21T10:22:58Z</time>
      </trkpt>
      <trkpt lat="48.35669" lon="2.73924">
        <ele>119.1</ele>
        <time>2021-08-21T10:23:00Z</time>
      </trkpt>
      <trkpt lat="48.35669" lon="2.73924">
        <ele>119.1</ele>
        <time>2021-08-21T10:23:01Z</time>
      </trkpt>
      <trkpt lat="48.35669" lon="2.73924">
        <ele>119.1</ele>
        <time>2021-08-21T10:23:03Z</time>
      </trkpt>
      <trkpt lat="48.35669" lon="2.73924">
        <ele>119.1</ele>
        <time>2021-08-21T10:23:04Z</time>
      </trkpt>
      <trkpt lat="48.35669" lon="2.73924">
        <ele>119.2</ele>
        <time>2021-08-21T10:23:05Z</time>
      </trkpt>
      <trkpt lat="48.35669" lon="2.73924">
        <ele>119.2</ele>
        <time>2021-08-21T10:23:06Z</time>
      </trkpt>
      <trkpt lat="48.35669" lon="2.73924">
        <ele>119.2</ele>
        <time>2021-08-21T10:23:08Z</time>
      </trkpt>
      <trkpt lat="48.35669" lon="2.73923">
        <ele>119.3</ele>
        <time>2021-08-21T10:23:09Z</time>
      </trkpt>
      <trkpt lat="48.35669" lon="2.73923">
        <ele>119.3</ele>
        <time>2021-08-21T10:23:10Z</time>
      </trkpt>
      <trkpt lat="48.35669" lon="2.73923">
        <ele>119.3</ele>
        <time>2021-08-21T10:23:11Z</time>
      </trkpt>
      <trkpt lat="48.35669" lon="2.73923">
        <ele>119.4</ele>
        <time>2021-08-21T10:23:13Z</time>
      </trkpt>
      <trkpt lat="48.35669" lon="2.73923">
        <ele>119.4</ele>
        <time>2021-08-21T10:23:14Z</time>
      </trkpt>
      <trkpt lat="48.35669" lon="2.73923">
        <ele>119.4</ele>
        <time>2021-08-21T10:23:15Z</time>
      </trkpt>
      <trkpt lat="48.35669" lon="2.73923">
        <ele>119.4</ele>
        <time>2021-08-21T10:23:16Z</time>
      </trkpt>
      <trkpt lat="48.35669" lon="2.73923">
        <ele>119.5</ele>
        <time>2021-08-21T10:23:17Z</time>
      </trkpt>
      <trkpt lat="48.35669" lon="2.73922">
        <ele>119.5</ele>
        <time>2021-08-21T10:23:18Z</time>
      </trkpt>
      <trkpt lat="48.35669" lon="2.73922">
        <ele>119.5</ele>
        <time>2021-08-21T10:23:19Z</time>
      </trkpt>
      <trkpt lat="48.35669" lon="2.73922">
        <ele>119.5</ele>
        <time>2021-08-21T10:23:20Z</time>
      </trkpt>
      <trkpt lat="48.35669" lon="2.73922">
        <ele>119.6</ele>
        <time>2021-08-21T10:23:21Z</time>
      </trkpt>
      <trkpt lat="48.35669" lon="2.73922">
        <ele>119.6</ele>
        <time>2021-08-21T10:23:22Z</time>
      </trkpt>
      <trkpt lat="48.35669" lon="2.73922">
        <ele>119.7</ele>
        <time>2021-08-21T10:23:23Z</time>
      </trkpt>
      <trkpt lat="48.35669" lon="2.73922">
        <ele>119.7</ele>
        <time>2021-08-21T10:23:24Z</time>
      </trkpt>
      <trkpt lat="48.35669" lon="2.73922">
        <ele>119.7</ele>
        <time>2021-08-21T10:23:25Z</time>
      </trkpt>
      <trkpt lat="48.35669" lon="2.73921">
        <ele>119.7</ele>
        <time>2021-08-21T10:23:26Z</time>
      </trkpt>
      <trkpt lat="48.35669" lon="2.73921">
        <ele>119.8</ele>
        <time>2021-08-21T10:23:27Z</time>
      </trkpt>
      <trkpt lat="48.35669" lon="2.73921">
        <ele>119.8</ele>
        <time>2021-08-21T10:23:28Z</time>
      </trkpt>
      <trkpt lat="48.35669" lon="2.73921">
        <ele>119.8</ele>
        <time>2021-08-21T10:23:30Z</time>
      </trkpt>
      <trkpt lat="48.35669" lon="2.73921">
        <ele>119.9</ele>
        <time>2021-08-21T10:23:32Z</time>
      </trkpt>
      <trkpt lat="48.35669" lon="2.73921">
        <ele>119.9</ele>
        <time>2021-08-21T10:23:34Z</time>
      </trkpt>
      <trkpt lat="48.35669" lon="2.73921">
        <ele>119.9</ele>
        <time>2021-08-21T10:23:35Z</time>
      </trkpt>
      <trkpt lat="48.35669" lon="2.73921">
        <ele>119.9</ele>
        <time>2021-08-21T10:23:36Z</time>
      </trkpt>
      <trkpt lat="48.35669" lon="2.7392">
        <ele>120</ele>
        <time>2021-08-21T10:23:37Z</time>
      </trkpt>
      <trkpt lat="48.35669" lon="2.73919">
        <ele>120.3</ele>
        <time>2021-08-21T10:23:39Z</time>
      </trkpt>
      <trkpt lat="48.35669" lon="2.73918">
        <ele>120.6</ele>
        <time>2021-08-21T10:23:40Z</time>
      </trkpt>
      <trkpt lat="48.3567" lon="2.73916">
        <ele>121</ele>
        <time>2021-08-21T10:23:42Z</time>
      </trkpt>
      <trkpt lat="48.35671" lon="2.73915">
        <ele>121.3</ele>
        <time>2021-08-21T10:23:44Z</time>
      </trkpt>
      <trkpt lat="48.35671" lon="2.73914">
        <ele>121.4</ele>
        <time>2021-08-21T10:23:45Z</time>
      </trkpt>
      <trkpt lat="48.35671" lon="2.73913">
        <ele>121.6</ele>
        <time>2021-08-21T10:23:46Z</time>
      </trkpt>
      <trkpt lat="48.35671" lon="2.73913">
        <ele>121.7</ele>
        <time>2021-08-21T10:23:47Z</time>
      </trkpt>
      <trkpt lat="48.35672" lon="2.73912">
        <ele>121.9</ele>
        <time>2021-08-21T10:23:48Z</time>
      </trkpt>
      <trkpt lat="48.35672" lon="2.73911">
        <ele>122</ele>
        <time>2021-08-21T10:23:49Z</time>
      </trkpt>
      <trkpt lat="48.35672" lon="2.7391">
        <ele>122.3</ele>
        <time>2021-08-21T10:23:50Z</time>
      </trkpt>
      <trkpt lat="48.35672" lon="2.73907">
        <ele>122.9</ele>
        <time>2021-08-21T10:23:52Z</time>
      </trkpt>
      <trkpt lat="48.35672" lon="2.73906">
        <ele>123.1</ele>
        <time>2021-08-21T10:23:54Z</time>
      </trkpt>
      <trkpt lat="48.35671" lon="2.73905">
        <ele>123.3</ele>
        <time>2021-08-21T10:23:55Z</time>
      </trkpt>
      <trkpt lat="48.35672" lon="2.73903">
        <ele>123.6</ele>
        <time>2021-08-21T10:23:56Z</time>
      </trkpt>
      <trkpt lat="48.35672" lon="2.73901">
        <ele>123.9</ele>
        <time>2021-08-21T10:23:58Z</time>
      </trkpt>
      <trkpt lat="48.35671" lon="2.73899">
        <ele>124.2</ele>
        <time>2021-08-21T10:23:59Z</time>
      </trkpt>
      <trkpt lat="48.3567" lon="2.73898">
        <ele>124.5</ele>
        <time>2021-08-21T10:24:01Z</time>
      </trkpt>
      <trkpt lat="48.35669" lon="2.73898">
        <ele>124.8</ele>
        <time>2021-08-21T10:24:02Z</time>
      </trkpt>
      <trkpt lat="48.35668" lon="2.73898">
        <ele>125</ele>
        <time>2021-08-21T10:24:04Z</time>
      </trkpt>
      <trkpt lat="48.35668" lon="2.73898">
        <ele>125</ele>
        <time>2021-08-21T10:24:05Z</time>
      </trkpt>
      <trkpt lat="48.35669" lon="2.73898">
        <ele>125.1</ele>
        <time>2021-08-21T10:24:06Z</time>
      </trkpt>
      <trkpt lat="48.35669" lon="2.73898">
        <ele>125.1</ele>
        <time>2021-08-21T10:24:07Z</time>
      </trkpt>
      <trkpt lat="48.35669" lon="2.73898">
        <ele>125.2</ele>
        <time>2021-08-21T10:24:08Z</time>
      </trkpt>
      <trkpt lat="48.35669" lon="2.73897">
        <ele>125.2</ele>
        <time>2021-08-21T10:24:09Z</time>
      </trkpt>
      <trkpt lat="48.35668" lon="2.73897">
        <ele>125.3</ele>
        <time>2021-08-21T10:24:10Z</time>
      </trkpt>
      <trkpt lat="48.35668" lon="2.73897">
        <ele>125.4</ele>
        <time>2021-08-21T10:24:11Z</time>
      </trkpt>
      <trkpt lat="48.35668" lon="2.73896">
        <ele>125.5</ele>
        <time>2021-08-21T10:24:12Z</time>
      </trkpt>
      <trkpt lat="48.35667" lon="2.73896">
        <ele>125.7</ele>
        <time>2021-08-21T10:24:13Z</time>
      </trkpt>
      <trkpt lat="48.35667" lon="2.73896">
        <ele>125.8</ele>
        <time>2021-08-21T10:24:14Z</time>
      </trkpt>
      <trkpt lat="48.35666" lon="2.73895">
        <ele>126</ele>
        <time>2021-08-21T10:24:16Z</time>
      </trkpt>
      <trkpt lat="48.35665" lon="2.73891">
        <ele>126.6</ele>
        <time>2021-08-21T10:24:17Z</time>
      </trkpt>
      <trkpt lat="48.35666" lon="2.73891">
        <ele>126.7</ele>
        <time>2021-08-21T10:24:19Z</time>
      </trkpt>
      <trkpt lat="48.35667" lon="2.73891">
        <ele>126.8</ele>
        <time>2021-08-21T10:24:20Z</time>
      </trkpt>
      <trkpt lat="48.35667" lon="2.7389">
        <ele>127</ele>
        <time>2021-08-21T10:24:21Z</time>
      </trkpt>
      <trkpt lat="48.35667" lon="2.73889">
        <ele>127.2</ele>
        <time>2021-08-21T10:24:23Z</time>
      </trkpt>
      <trkpt lat="48.35667" lon="2.73889">
        <ele>127.4</ele>
        <time>2021-08-21T10:24:24Z</time>
      </trkpt>
      <trkpt lat="48.35666" lon="2.73888">
        <ele>127.5</ele>
        <time>2021-08-21T10:24:25Z</time>
      </trkpt>
      <trkpt lat="48.35665" lon="2.73887">
        <ele>127.8</ele>
        <time>2021-08-21T10:24:26Z</time>
      </trkpt>
      <trkpt lat="48.35663" lon="2.73887">
        <ele>128.2</ele>
        <time>2021-08-21T10:24:28Z</time>
      </trkpt>
      <trkpt lat="48.35662" lon="2.73888">
        <ele>128.6</ele>
        <time>2021-08-21T10:24:29Z</time>
      </trkpt>
      <trkpt lat="48.35661" lon="2.73888">
        <ele>128.9</ele>
        <time>2021-08-21T10:24:31Z</time>
      </trkpt>
      <trkpt lat="48.3566" lon="2.73888">
        <ele>129.1</ele>
        <time>2021-08-21T10:24:32Z</time>
      </trkpt>
      <trkpt lat="48.35659" lon="2.73887">
        <ele>129.4</ele>
        <time>2021-08-21T10:24:33Z</time>
      </trkpt>
      <trkpt lat="48.35658" lon="2.73886">
        <ele>129.6</ele>
        <time>2021-08-21T10:24:34Z</time>
      </trkpt>
      <trkpt lat="48.35658" lon="2.73885">
        <ele>129.8</ele>
        <time>2021-08-21T10:24:36Z</time>
      </trkpt>
      <trkpt lat="48.35657" lon="2.73884">
        <ele>129.9</ele>
        <time>2021-08-21T10:24:37Z</time>
      </trkpt>
      <trkpt lat="48.35657" lon="2.73883">
        <ele>130.1</ele>
        <time>2021-08-21T10:24:38Z</time>
      </trkpt>
      <trkpt lat="48.35657" lon="2.73882">
        <ele>130.3</ele>
        <time>2021-08-21T10:24:39Z</time>
      </trkpt>
      <trkpt lat="48.35657" lon="2.73881">
        <ele>130.5</ele>
        <time>2021-08-21T10:24:40Z</time>
      </trkpt>
      <trkpt lat="48.35657" lon="2.73879">
        <ele>130.7</ele>
        <time>2021-08-21T10:24:41Z</time>
      </trkpt>
      <trkpt lat="48.35658" lon="2.73878">
        <ele>130.9</ele>
        <time>2021-08-21T10:24:42Z</time>
      </trkpt>
      <trkpt lat="48.35658" lon="2.73875">
        <ele>131.2</ele>
        <time>2021-08-21T10:24:43Z</time>
      </trkpt>
      <trkpt lat="48.35658" lon="2.73875">
        <ele>131.3</ele>
        <time>2021-08-21T10:24:44Z</time>
      </trkpt>
      <trkpt lat="48.35658" lon="2.73874">
        <ele>131.4</ele>
        <time>2021-08-21T10:24:45Z</time>
      </trkpt>
      <trkpt lat="48.35658" lon="2.73873">
        <ele>133.9</ele>
        <time>2021-08-21T10:24:48Z</time>
      </trkpt>
      <trkpt lat="48.35658" lon="2.73872">
        <ele>133.8</ele>
        <time>2021-08-21T10:24:49Z</time>
      </trkpt>
      <trkpt lat="48.35659" lon="2.73872">
        <ele>133.8</ele>
        <time>2021-08-21T10:24:50Z</time>
      </trkpt>
      <trkpt lat="48.35659" lon="2.73871">
        <ele>133.8</ele>
        <time>2021-08-21T10:24:51Z</time>
      </trkpt>
      <trkpt lat="48.35659" lon="2.73871">
        <ele>133.8</ele>
        <time>2021-08-21T10:24:52Z</time>
      </trkpt>
      <trkpt lat="48.35658" lon="2.7387">
        <ele>133.8</ele>
        <time>2021-08-21T10:24:53Z</time>
      </trkpt>
      <trkpt lat="48.35658" lon="2.7387">
        <ele>133.8</ele>
        <time>2021-08-21T10:24:54Z</time>
      </trkpt>
      <trkpt lat="48.35658" lon="2.7387">
        <ele>133.8</ele>
        <time>2021-08-21T10:24:55Z</time>
      </trkpt>
      <trkpt lat="48.35658" lon="2.73869">
        <ele>133.7</ele>
        <time>2021-08-21T10:24:56Z</time>
      </trkpt>
      <trkpt lat="48.35658" lon="2.73869">
        <ele>133.7</ele>
        <time>2021-08-21T10:24:57Z</time>
      </trkpt>
      <trkpt lat="48.35658" lon="2.73869">
        <ele>133.7</ele>
        <time>2021-08-21T10:24:58Z</time>
      </trkpt>
      <trkpt lat="48.35657" lon="2.73869">
        <ele>133.7</ele>
        <time>2021-08-21T10:24:59Z</time>
      </trkpt>
      <trkpt lat="48.35658" lon="2.73869">
        <ele>133.7</ele>
        <time>2021-08-21T10:25:00Z</time>
      </trkpt>
      <trkpt lat="48.35658" lon="2.73868">
        <ele>133.7</ele>
        <time>2021-08-21T10:25:01Z</time>
      </trkpt>
      <trkpt lat="48.35658" lon="2.73868">
        <ele>133.7</ele>
        <time>2021-08-21T10:25:02Z</time>
      </trkpt>
      <trkpt lat="48.35659" lon="2.73868">
        <ele>133.7</ele>
        <time>2021-08-21T10:25:03Z</time>
      </trkpt>
      <trkpt lat="48.35659" lon="2.73867">
        <ele>133.7</ele>
        <time>2021-08-21T10:25:04Z</time>
      </trkpt>
      <trkpt lat="48.35659" lon="2.73867">
        <ele>133.7</ele>
        <time>2021-08-21T10:25:05Z</time>
      </trkpt>
      <trkpt lat="48.35659" lon="2.73867">
        <ele>133.6</ele>
        <time>2021-08-21T10:25:06Z</time>
      </trkpt>
      <trkpt lat="48.35659" lon="2.73867">
        <ele>133.6</ele>
        <time>2021-08-21T10:25:07Z</time>
      </trkpt>
      <trkpt lat="48.35659" lon="2.73867">
        <ele>133.6</ele>
        <time>2021-08-21T10:25:08Z</time>
      </trkpt>
      <trkpt lat="48.35659" lon="2.73867">
        <ele>133.6</ele>
        <time>2021-08-21T10:25:09Z</time>
      </trkpt>
      <trkpt lat="48.35659" lon="2.73867">
        <ele>133.6</ele>
        <time>2021-08-21T10:25:10Z</time>
      </trkpt>
      <trkpt lat="48.35659" lon="2.73867">
        <ele>133.6</ele>
        <time>2021-08-21T10:25:11Z</time>
      </trkpt>
      <trkpt lat="48.3566" lon="2.73867">
        <ele>133.6</ele>
        <time>2021-08-21T10:25:12Z</time>
      </trkpt>
      <trkpt lat="48.3566" lon="2.73867">
        <ele>133.6</ele>
        <time>2021-08-21T10:25:13Z</time>
      </trkpt>
      <trkpt lat="48.3566" lon="2.73867">
        <ele>133.6</ele>
        <time>2021-08-21T10:25:15Z</time>
      </trkpt>
      <trkpt lat="48.35661" lon="2.73867">
        <ele>133.6</ele>
        <time>2021-08-21T10:25:16Z</time>
      </trkpt>
      <trkpt lat="48.35662" lon="2.73867">
        <ele>133.5</ele>
        <time>2021-08-21T10:25:18Z</time>
      </trkpt>
      <trkpt lat="48.35662" lon="2.73867">
        <ele>133.5</ele>
        <time>2021-08-21T10:25:19Z</time>
      </trkpt>
      <trkpt lat="48.35662" lon="2.73867">
        <ele>133.5</ele>
        <time>2021-08-21T10:25:20Z</time>
      </trkpt>
      <trkpt lat="48.35662" lon="2.73867">
        <ele>133.5</ele>
        <time>2021-08-21T10:25:21Z</time>
      </trkpt>
      <trkpt lat="48.35662" lon="2.73867">
        <ele>133.5</ele>
        <time>2021-08-21T10:25:22Z</time>
      </trkpt>
      <trkpt lat="48.35662" lon="2.73867">
        <ele>133.5</ele>
        <time>2021-08-21T10:25:23Z</time>
      </trkpt>
      <trkpt lat="48.35662" lon="2.73867">
        <ele>133.5</ele>
        <time>2021-08-21T10:25:24Z</time>
      </trkpt>
      <trkpt lat="48.35662" lon="2.73867">
        <ele>133.5</ele>
        <time>2021-08-21T10:25:25Z</time>
      </trkpt>
      <trkpt lat="48.35662" lon="2.73867">
        <ele>133.5</ele>
        <time>2021-08-21T10:25:26Z</time>
      </trkpt>
      <trkpt lat="48.35662" lon="2.73867">
        <ele>133.5</ele>
        <time>2021-08-21T10:25:27Z</time>
      </trkpt>
      <trkpt lat="48.35662" lon="2.73866">
        <ele>133.4</ele>
        <time>2021-08-21T10:25:28Z</time>
      </trkpt>
      <trkpt lat="48.35663" lon="2.73865">
        <ele>133.4</ele>
        <time>2021-08-21T10:25:29Z</time>
      </trkpt>
      <trkpt lat="48.35663" lon="2.73864">
        <ele>133.4</ele>
        <time>2021-08-21T10:25:30Z</time>
      </trkpt>
      <trkpt lat="48.35664" lon="2.73862">
        <ele>133.3</ele>
        <time>2021-08-21T10:25:33Z</time>
      </trkpt>
      <trkpt lat="48.35665" lon="2.73861">
        <ele>133.3</ele>
        <time>2021-08-21T10:25:34Z</time>
      </trkpt>
      <trkpt lat="48.35666" lon="2.7386">
        <ele>133.2</ele>
        <time>2021-08-21T10:25:36Z</time>
      </trkpt>
      <trkpt lat="48.35666" lon="2.7386">
        <ele>133.2</ele>
        <time>2021-08-21T10:25:37Z</time>
      </trkpt>
      <trkpt lat="48.35666" lon="2.73859">
        <ele>133.2</ele>
        <time>2021-08-21T10:25:38Z</time>
      </trkpt>
      <trkpt lat="48.35666" lon="2.7386">
        <ele>133.2</ele>
        <time>2021-08-21T10:25:39Z</time>
      </trkpt>
      <trkpt lat="48.35666" lon="2.7386">
        <ele>133.2</ele>
        <time>2021-08-21T10:25:40Z</time>
      </trkpt>
      <trkpt lat="48.35666" lon="2.7386">
        <ele>133.2</ele>
        <time>2021-08-21T10:25:41Z</time>
      </trkpt>
      <trkpt lat="48.35666" lon="2.7386">
        <ele>133.2</ele>
        <time>2021-08-21T10:25:42Z</time>
      </trkpt>
      <trkpt lat="48.35666" lon="2.7386">
        <ele>133.1</ele>
        <time>2021-08-21T10:25:43Z</time>
      </trkpt>
      <trkpt lat="48.35666" lon="2.73859">
        <ele>133.1</ele>
        <time>2021-08-21T10:25:44Z</time>
      </trkpt>
      <trkpt lat="48.35666" lon="2.73859">
        <ele>133.1</ele>
        <time>2021-08-21T10:25:45Z</time>
      </trkpt>
      <trkpt lat="48.35667" lon="2.73859">
        <ele>133.1</ele>
        <time>2021-08-21T10:25:46Z</time>
      </trkpt>
      <trkpt lat="48.35667" lon="2.73858">
        <ele>133.1</ele>
        <time>2021-08-21T10:25:47Z</time>
      </trkpt>
      <trkpt lat="48.35668" lon="2.73858">
        <ele>133</ele>
        <time>2021-08-21T10:25:49Z</time>
      </trkpt>
      <trkpt lat="48.35669" lon="2.73859">
        <ele>133</ele>
        <time>2021-08-21T10:25:50Z</time>
      </trkpt>
      <trkpt lat="48.3567" lon="2.7386">
        <ele>132.9</ele>
        <time>2021-08-21T10:25:51Z</time>
      </trkpt>
      <trkpt lat="48.35672" lon="2.73861">
        <ele>132.8</ele>
        <time>2021-08-21T10:25:53Z</time>
      </trkpt>
      <trkpt lat="48.35673" lon="2.73861">
        <ele>132.8</ele>
        <time>2021-08-21T10:25:54Z</time>
      </trkpt>
      <trkpt lat="48.35674" lon="2.7386">
        <ele>132.7</ele>
        <time>2021-08-21T10:25:55Z</time>
      </trkpt>
      <trkpt lat="48.35675" lon="2.7386">
        <ele>132.7</ele>
        <time>2021-08-21T10:25:56Z</time>
      </trkpt>
      <trkpt lat="48.35676" lon="2.73858">
        <ele>132.6</ele>
        <time>2021-08-21T10:25:57Z</time>
      </trkpt>
      <trkpt lat="48.35677" lon="2.73856">
        <ele>132.6</ele>
        <time>2021-08-21T10:25:58Z</time>
      </trkpt>
      <trkpt lat="48.35678" lon="2.73855">
        <ele>132.5</ele>
        <time>2021-08-21T10:25:59Z</time>
      </trkpt>
      <trkpt lat="48.35679" lon="2.73854">
        <ele>132.5</ele>
        <time>2021-08-21T10:26:00Z</time>
      </trkpt>
      <trkpt lat="48.35679" lon="2.73853">
        <ele>132.4</ele>
        <time>2021-08-21T10:26:01Z</time>
      </trkpt>
      <trkpt lat="48.3568" lon="2.73852">
        <ele>132.4</ele>
        <time>2021-08-21T10:26:02Z</time>
      </trkpt>
      <trkpt lat="48.35681" lon="2.7385">
        <ele>132.4</ele>
        <time>2021-08-21T10:26:03Z</time>
      </trkpt>
      <trkpt lat="48.35681" lon="2.7385">
        <ele>132.4</ele>
        <time>2021-08-21T10:26:05Z</time>
      </trkpt>
      <trkpt lat="48.35682" lon="2.7385">
        <ele>132.4</ele>
        <time>2021-08-21T10:26:06Z</time>
      </trkpt>
      <trkpt lat="48.35683" lon="2.7385">
        <ele>132.4</ele>
        <time>2021-08-21T10:26:07Z</time>
      </trkpt>
      <trkpt lat="48.35683" lon="2.73851">
        <ele>132.3</ele>
        <time>2021-08-21T10:26:09Z</time>
      </trkpt>
      <trkpt lat="48.35683" lon="2.73852">
        <ele>132.3</ele>
        <time>2021-08-21T10:26:10Z</time>
      </trkpt>
      <trkpt lat="48.35684" lon="2.73853">
        <ele>132.3</ele>
        <time>2021-08-21T10:26:12Z</time>
      </trkpt>
      <trkpt lat="48.35684" lon="2.73854">
        <ele>132.3</ele>
        <time>2021-08-21T10:26:13Z</time>
      </trkpt>
      <trkpt lat="48.35685" lon="2.73854">
        <ele>132.3</ele>
        <time>2021-08-21T10:26:15Z</time>
      </trkpt>
      <trkpt lat="48.35685" lon="2.73854">
        <ele>132.3</ele>
        <time>2021-08-21T10:26:16Z</time>
      </trkpt>
      <trkpt lat="48.35685" lon="2.73854">
        <ele>132.3</ele>
        <time>2021-08-21T10:26:17Z</time>
      </trkpt>
      <trkpt lat="48.35684" lon="2.73854">
        <ele>132.3</ele>
        <time>2021-08-21T10:26:18Z</time>
      </trkpt>
      <trkpt lat="48.35684" lon="2.73854">
        <ele>132.3</ele>
        <time>2021-08-21T10:26:19Z</time>
      </trkpt>
      <trkpt lat="48.35684" lon="2.73854">
        <ele>132.3</ele>
        <time>2021-08-21T10:26:20Z</time>
      </trkpt>
      <trkpt lat="48.35684" lon="2.73854">
        <ele>132.3</ele>
        <time>2021-08-21T10:26:21Z</time>
      </trkpt>
      <trkpt lat="48.35683" lon="2.73855">
        <ele>132.3</ele>
        <time>2021-08-21T10:26:22Z</time>
      </trkpt>
      <trkpt lat="48.35683" lon="2.73855">
        <ele>132.3</ele>
        <time>2021-08-21T10:26:23Z</time>
      </trkpt>
      <trkpt lat="48.35683" lon="2.73855">
        <ele>132.3</ele>
        <time>2021-08-21T10:26:24Z</time>
      </trkpt>
      <trkpt lat="48.35683" lon="2.73855">
        <ele>132.3</ele>
        <time>2021-08-21T10:26:25Z</time>
      </trkpt>
      <trkpt lat="48.35683" lon="2.73855">
        <ele>132.3</ele>
        <time>2021-08-21T10:26:26Z</time>
      </trkpt>
      <trkpt lat="48.35683" lon="2.73855">
        <ele>132.3</ele>
        <time>2021-08-21T10:26:27Z</time>
      </trkpt>
      <trkpt lat="48.35682" lon="2.73855">
        <ele>132.3</ele>
        <time>2021-08-21T10:26:29Z</time>
      </trkpt>
      <trkpt lat="48.35682" lon="2.73855">
        <ele>132.3</ele>
        <time>2021-08-21T10:26:30Z</time>
      </trkpt>
      <trkpt lat="48.35682" lon="2.73855">
        <ele>132.3</ele>
        <time>2021-08-21T10:26:31Z</time>
      </trkpt>
      <trkpt lat="48.35682" lon="2.73855">
        <ele>132.3</ele>
        <time>2021-08-21T10:26:32Z</time>
      </trkpt>
      <trkpt lat="48.35681" lon="2.73855">
        <ele>132.3</ele>
        <time>2021-08-21T10:26:33Z</time>
      </trkpt>
      <trkpt lat="48.35681" lon="2.73855">
        <ele>132.3</ele>
        <time>2021-08-21T10:26:34Z</time>
      </trkpt>
      <trkpt lat="48.35681" lon="2.73855">
        <ele>132.3</ele>
        <time>2021-08-21T10:26:35Z</time>
      </trkpt>
      <trkpt lat="48.35681" lon="2.73854">
        <ele>132.3</ele>
        <time>2021-08-21T10:26:36Z</time>
      </trkpt>
      <trkpt lat="48.35681" lon="2.73854">
        <ele>132.3</ele>
        <time>2021-08-21T10:26:37Z</time>
      </trkpt>
      <trkpt lat="48.35681" lon="2.73854">
        <ele>132.3</ele>
        <time>2021-08-21T10:26:38Z</time>
      </trkpt>
      <trkpt lat="48.35681" lon="2.73854">
        <ele>132.3</ele>
        <time>2021-08-21T10:26:39Z</time>
      </trkpt>
      <trkpt lat="48.35681" lon="2.73854">
        <ele>132.3</ele>
        <time>2021-08-21T10:26:40Z</time>
      </trkpt>
      <trkpt lat="48.35681" lon="2.73854">
        <ele>132.3</ele>
        <time>2021-08-21T10:26:41Z</time>
      </trkpt>
      <trkpt lat="48.35681" lon="2.73853">
        <ele>132.3</ele>
        <time>2021-08-21T10:26:42Z</time>
      </trkpt>
      <trkpt lat="48.35681" lon="2.73853">
        <ele>132.3</ele>
        <time>2021-08-21T10:26:43Z</time>
      </trkpt>
      <trkpt lat="48.35681" lon="2.73853">
        <ele>132.3</ele>
        <time>2021-08-21T10:26:44Z</time>
      </trkpt>
      <trkpt lat="48.35681" lon="2.73853">
        <ele>132.3</ele>
        <time>2021-08-21T10:26:45Z</time>
      </trkpt>
      <trkpt lat="48.35681" lon="2.73853">
        <ele>132.3</ele>
        <time>2021-08-21T10:26:46Z</time>
      </trkpt>
      <trkpt lat="48.35682" lon="2.73853">
        <ele>132.3</ele>
        <time>2021-08-21T10:26:47Z</time>
      </trkpt>
      <trkpt lat="48.35682" lon="2.73854">
        <ele>132.3</ele>
        <time>2021-08-21T10:26:48Z</time>
      </trkpt>
      <trkpt lat="48.35682" lon="2.73854">
        <ele>132.3</ele>
        <time>2021-08-21T10:26:49Z</time>
      </trkpt>
      <trkpt lat="48.35682" lon="2.73854">
        <ele>132.3</ele>
        <time>2021-08-21T10:26:50Z</time>
      </trkpt>
      <trkpt lat="48.35683" lon="2.73855">
        <ele>132.3</ele>
        <time>2021-08-21T10:26:51Z</time>
      </trkpt>
      <trkpt lat="48.35683" lon="2.73855">
        <ele>132.3</ele>
        <time>2021-08-21T10:26:52Z</time>
      </trkpt>
      <trkpt lat="48.35684" lon="2.73855">
        <ele>132.3</ele>
        <time>2021-08-21T10:26:53Z</time>
      </trkpt>
      <trkpt lat="48.35684" lon="2.73855">
        <ele>132.3</ele>
        <time>2021-08-21T10:26:54Z</time>
      </trkpt>
      <trkpt lat="48.35686" lon="2.73853">
        <ele>132.3</ele>
        <time>2021-08-21T10:26:55Z</time>
      </trkpt>
      <trkpt lat="48.35687" lon="2.73852">
        <ele>132.3</ele>
        <time>2021-08-21T10:26:56Z</time>
      </trkpt>
      <trkpt lat="48.35687" lon="2.73851">
        <ele>132.4</ele>
        <time>2021-08-21T10:26:57Z</time>
      </trkpt>
      <trkpt lat="48.35688" lon="2.7385">
        <ele>132.4</ele>
        <time>2021-08-21T10:26:58Z</time>
      </trkpt>
      <trkpt lat="48.35688" lon="2.73849">
        <ele>132.4</ele>
        <time>2021-08-21T10:27:00Z</time>
      </trkpt>
      <trkpt lat="48.35689" lon="2.73848">
        <ele>132.4</ele>
        <time>2021-08-21T10:27:02Z</time>
      </trkpt>
      <trkpt lat="48.35691" lon="2.73846">
        <ele>132.4</ele>
        <time>2021-08-21T10:27:03Z</time>
      </trkpt>
      <trkpt lat="48.35691" lon="2.73845">
        <ele>132.3</ele>
        <time>2021-08-21T10:27:04Z</time>
      </trkpt>
      <trkpt lat="48.35691" lon="2.73844">
        <ele>132.3</ele>
        <time>2021-08-21T10:27:06Z</time>
      </trkpt>
      <trkpt lat="48.35691" lon="2.73843">
        <ele>132.3</ele>
        <time>2021-08-21T10:27:07Z</time>
      </trkpt>
      <trkpt lat="48.35692" lon="2.73841">
        <ele>132.3</ele>
        <time>2021-08-21T10:27:08Z</time>
      </trkpt>
      <trkpt lat="48.35692" lon="2.73839">
        <ele>132.3</ele>
        <time>2021-08-21T10:27:10Z</time>
      </trkpt>
      <trkpt lat="48.35692" lon="2.73838">
        <ele>132.3</ele>
        <time>2021-08-21T10:27:11Z</time>
      </trkpt>
      <trkpt lat="48.35692" lon="2.73837">
        <ele>132.3</ele>
        <time>2021-08-21T10:27:12Z</time>
      </trkpt>
      <trkpt lat="48.35693" lon="2.73835">
        <ele>132.3</ele>
        <time>2021-08-21T10:27:13Z</time>
      </trkpt>
      <trkpt lat="48.35695" lon="2.73833">
        <ele>132.3</ele>
        <time>2021-08-21T10:27:14Z</time>
      </trkpt>
      <trkpt lat="48.35696" lon="2.73833">
        <ele>132.3</ele>
        <time>2021-08-21T10:27:15Z</time>
      </trkpt>
      <trkpt lat="48.35696" lon="2.73832">
        <ele>132.3</ele>
        <time>2021-08-21T10:27:17Z</time>
      </trkpt>
      <trkpt lat="48.35697" lon="2.73831">
        <ele>132.3</ele>
        <time>2021-08-21T10:27:18Z</time>
      </trkpt>
      <trkpt lat="48.35698" lon="2.7383">
        <ele>132.3</ele>
        <time>2021-08-21T10:27:19Z</time>
      </trkpt>
      <trkpt lat="48.357" lon="2.73828">
        <ele>132.3</ele>
        <time>2021-08-21T10:27:20Z</time>
      </trkpt>
      <trkpt lat="48.35701" lon="2.73827">
        <ele>132.3</ele>
        <time>2021-08-21T10:27:21Z</time>
      </trkpt>
      <trkpt lat="48.35701" lon="2.73827">
        <ele>132.3</ele>
        <time>2021-08-21T10:27:22Z</time>
      </trkpt>
      <trkpt lat="48.35703" lon="2.73824">
        <ele>132.3</ele>
        <time>2021-08-21T10:27:24Z</time>
      </trkpt>
      <trkpt lat="48.35703" lon="2.73824">
        <ele>132.3</ele>
        <time>2021-08-21T10:27:25Z</time>
      </trkpt>
      <trkpt lat="48.35705" lon="2.73822">
        <ele>132.3</ele>
        <time>2021-08-21T10:27:26Z</time>
      </trkpt>
      <trkpt lat="48.35706" lon="2.73821">
        <ele>132.3</ele>
        <time>2021-08-21T10:27:27Z</time>
      </trkpt>
      <trkpt lat="48.35707" lon="2.73821">
        <ele>132.3</ele>
        <time>2021-08-21T10:27:28Z</time>
      </trkpt>
      <trkpt lat="48.35708" lon="2.73819">
        <ele>132.4</ele>
        <time>2021-08-21T10:27:29Z</time>
      </trkpt>
      <trkpt lat="48.35708" lon="2.73818">
        <ele>132.4</ele>
        <time>2021-08-21T10:27:31Z</time>
      </trkpt>
      <trkpt lat="48.35709" lon="2.73817">
        <ele>132.4</ele>
        <time>2021-08-21T10:27:32Z</time>
      </trkpt>
      <trkpt lat="48.35709" lon="2.73816">
        <ele>132.4</ele>
        <time>2021-08-21T10:27:33Z</time>
      </trkpt>
      <trkpt lat="48.3571" lon="2.73814">
        <ele>132.4</ele>
        <time>2021-08-21T10:27:35Z</time>
      </trkpt>
      <trkpt lat="48.3571" lon="2.73813">
        <ele>132.4</ele>
        <time>2021-08-21T10:27:36Z</time>
      </trkpt>
      <trkpt lat="48.3571" lon="2.73812">
        <ele>132.4</ele>
        <time>2021-08-21T10:27:37Z</time>
      </trkpt>
      <trkpt lat="48.35711" lon="2.7381">
        <ele>132.5</ele>
        <time>2021-08-21T10:27:39Z</time>
      </trkpt>
      <trkpt lat="48.35711" lon="2.73809">
        <ele>132.5</ele>
        <time>2021-08-21T10:27:40Z</time>
      </trkpt>
      <trkpt lat="48.3571" lon="2.73807">
        <ele>132.5</ele>
        <time>2021-08-21T10:27:42Z</time>
      </trkpt>
      <trkpt lat="48.3571" lon="2.73806">
        <ele>132.5</ele>
        <time>2021-08-21T10:27:43Z</time>
      </trkpt>
      <trkpt lat="48.3571" lon="2.73804">
        <ele>132.5</ele>
        <time>2021-08-21T10:27:44Z</time>
      </trkpt>
      <trkpt lat="48.3571" lon="2.73804">
        <ele>132.5</ele>
        <time>2021-08-21T10:27:45Z</time>
      </trkpt>
      <trkpt lat="48.35709" lon="2.73802">
        <ele>132.6</ele>
        <time>2021-08-21T10:27:46Z</time>
      </trkpt>
      <trkpt lat="48.35709" lon="2.738">
        <ele>132.6</ele>
        <time>2021-08-21T10:27:47Z</time>
      </trkpt>
      <trkpt lat="48.35708" lon="2.73798">
        <ele>132.6</ele>
        <time>2021-08-21T10:27:49Z</time>
      </trkpt>
      <trkpt lat="48.35708" lon="2.73796">
        <ele>132.6</ele>
        <time>2021-08-21T10:27:50Z</time>
      </trkpt>
      <trkpt lat="48.35707" lon="2.73795">
        <ele>132.6</ele>
        <time>2021-08-21T10:27:52Z</time>
      </trkpt>
      <trkpt lat="48.35706" lon="2.73793">
        <ele>132.7</ele>
        <time>2021-08-21T10:27:54Z</time>
      </trkpt>
      <trkpt lat="48.35705" lon="2.73792">
        <ele>132.7</ele>
        <time>2021-08-21T10:27:55Z</time>
      </trkpt>
      <trkpt lat="48.35704" lon="2.73791">
        <ele>132.7</ele>
        <time>2021-08-21T10:27:56Z</time>
      </trkpt>
      <trkpt lat="48.35704" lon="2.7379">
        <ele>132.7</ele>
        <time>2021-08-21T10:27:57Z</time>
      </trkpt>
      <trkpt lat="48.35703" lon="2.73789">
        <ele>132.7</ele>
        <time>2021-08-21T10:27:58Z</time>
      </trkpt>
      <trkpt lat="48.35703" lon="2.73789">
        <ele>132.7</ele>
        <time>2021-08-21T10:28:00Z</time>
      </trkpt>
      <trkpt lat="48.35702" lon="2.73786">
        <ele>132.7</ele>
        <time>2021-08-21T10:28:01Z</time>
      </trkpt>
      <trkpt lat="48.35701" lon="2.73785">
        <ele>132.7</ele>
        <time>2021-08-21T10:28:03Z</time>
      </trkpt>
      <trkpt lat="48.35701" lon="2.73782">
        <ele>132.7</ele>
        <time>2021-08-21T10:28:04Z</time>
      </trkpt>
      <trkpt lat="48.35702" lon="2.73781">
        <ele>132.7</ele>
        <time>2021-08-21T10:28:05Z</time>
      </trkpt>
      <trkpt lat="48.35703" lon="2.7378">
        <ele>132.7</ele>
        <time>2021-08-21T10:28:06Z</time>
      </trkpt>
      <trkpt lat="48.35703" lon="2.73779">
        <ele>132.7</ele>
        <time>2021-08-21T10:28:08Z</time>
      </trkpt>
      <trkpt lat="48.35704" lon="2.73778">
        <ele>132.7</ele>
        <time>2021-08-21T10:28:09Z</time>
      </trkpt>
      <trkpt lat="48.35704" lon="2.73778">
        <ele>132.7</ele>
        <time>2021-08-21T10:28:10Z</time>
      </trkpt>
      <trkpt lat="48.35705" lon="2.73777">
        <ele>132.7</ele>
        <time>2021-08-21T10:28:11Z</time>
      </trkpt>
      <trkpt lat="48.35702" lon="2.73772">
        <ele>132.8</ele>
        <time>2021-08-21T10:28:13Z</time>
      </trkpt>
      <trkpt lat="48.35702" lon="2.73771">
        <ele>132.8</ele>
        <time>2021-08-21T10:28:14Z</time>
      </trkpt>
      <trkpt lat="48.357" lon="2.73769">
        <ele>132.8</ele>
        <time>2021-08-21T10:28:15Z</time>
      </trkpt>
      <trkpt lat="48.35699" lon="2.73768">
        <ele>132.8</ele>
        <time>2021-08-21T10:28:17Z</time>
      </trkpt>
      <trkpt lat="48.35698" lon="2.73767">
        <ele>132.8</ele>
        <time>2021-08-21T10:28:18Z</time>
      </trkpt>
      <trkpt lat="48.35698" lon="2.73767">
        <ele>132.8</ele>
        <time>2021-08-21T10:28:19Z</time>
      </trkpt>
      <trkpt lat="48.35698" lon="2.73766">
        <ele>132.8</ele>
        <time>2021-08-21T10:28:21Z</time>
      </trkpt>
      <trkpt lat="48.35699" lon="2.73766">
        <ele>132.8</ele>
        <time>2021-08-21T10:28:22Z</time>
      </trkpt>
      <trkpt lat="48.35699" lon="2.73765">
        <ele>132.8</ele>
        <time>2021-08-21T10:28:24Z</time>
      </trkpt>
      <trkpt lat="48.357" lon="2.73765">
        <ele>132.8</ele>
        <time>2021-08-21T10:28:25Z</time>
      </trkpt>
      <trkpt lat="48.357" lon="2.73766">
        <ele>132.8</ele>
        <time>2021-08-21T10:28:26Z</time>
      </trkpt>
      <trkpt lat="48.357" lon="2.73766">
        <ele>132.8</ele>
        <time>2021-08-21T10:28:27Z</time>
      </trkpt>
      <trkpt lat="48.357" lon="2.73768">
        <ele>132.8</ele>
        <time>2021-08-21T10:28:29Z</time>
      </trkpt>
      <trkpt lat="48.357" lon="2.73768">
        <ele>132.8</ele>
        <time>2021-08-21T10:28:30Z</time>
      </trkpt>
      <trkpt lat="48.35701" lon="2.7377">
        <ele>132.8</ele>
        <time>2021-08-21T10:28:31Z</time>
      </trkpt>
      <trkpt lat="48.35702" lon="2.73772">
        <ele>132.9</ele>
        <time>2021-08-21T10:28:33Z</time>
      </trkpt>
      <trkpt lat="48.35703" lon="2.73773">
        <ele>132.9</ele>
        <time>2021-08-21T10:28:34Z</time>
      </trkpt>
      <trkpt lat="48.35703" lon="2.73774">
        <ele>132.9</ele>
        <time>2021-08-21T10:28:35Z</time>
      </trkpt>
      <trkpt lat="48.35704" lon="2.73775">
        <ele>132.9</ele>
        <time>2021-08-21T10:28:36Z</time>
      </trkpt>
      <trkpt lat="48.35705" lon="2.73775">
        <ele>132.9</ele>
        <time>2021-08-21T10:28:37Z</time>
      </trkpt>
      <trkpt lat="48.35705" lon="2.73776">
        <ele>132.9</ele>
        <time>2021-08-21T10:28:38Z</time>
      </trkpt>
      <trkpt lat="48.35706" lon="2.73776">
        <ele>133</ele>
        <time>2021-08-21T10:28:39Z</time>
      </trkpt>
      <trkpt lat="48.35707" lon="2.73776">
        <ele>133</ele>
        <time>2021-08-21T10:28:40Z</time>
      </trkpt>
      <trkpt lat="48.35708" lon="2.73777">
        <ele>133</ele>
        <time>2021-08-21T10:28:42Z</time>
      </trkpt>
      <trkpt lat="48.35709" lon="2.73777">
        <ele>133</ele>
        <time>2021-08-21T10:28:43Z</time>
      </trkpt>
      <trkpt lat="48.3571" lon="2.73778">
        <ele>133.1</ele>
        <time>2021-08-21T10:28:44Z</time>
      </trkpt>
      <trkpt lat="48.3571" lon="2.73778">
        <ele>133.1</ele>
        <time>2021-08-21T10:28:45Z</time>
      </trkpt>
      <trkpt lat="48.35712" lon="2.73778">
        <ele>133.2</ele>
        <time>2021-08-21T10:28:47Z</time>
      </trkpt>
      <trkpt lat="48.35714" lon="2.73778">
        <ele>133.2</ele>
        <time>2021-08-21T10:28:49Z</time>
      </trkpt>
      <trkpt lat="48.35715" lon="2.73778">
        <ele>133.3</ele>
        <time>2021-08-21T10:28:51Z</time>
      </trkpt>
      <trkpt lat="48.35716" lon="2.73777">
        <ele>133.3</ele>
        <time>2021-08-21T10:28:52Z</time>
      </trkpt>
      <trkpt lat="48.35717" lon="2.73777">
        <ele>133.4</ele>
        <time>2021-08-21T10:28:53Z</time>
      </trkpt>
      <trkpt lat="48.35719" lon="2.73772">
        <ele>133.6</ele>
        <time>2021-08-21T10:28:55Z</time>
      </trkpt>
      <trkpt lat="48.35721" lon="2.73767">
        <ele>133.8</ele>
        <time>2021-08-21T10:28:57Z</time>
      </trkpt>
      <trkpt lat="48.35723" lon="2.73762">
        <ele>134.1</ele>
        <time>2021-08-21T10:28:59Z</time>
      </trkpt>
      <trkpt lat="48.35725" lon="2.73758">
        <ele>134.3</ele>
        <time>2021-08-21T10:29:00Z</time>
      </trkpt>
      <trkpt lat="48.35726" lon="2.73753">
        <ele>134.6</ele>
        <time>2021-08-21T10:29:01Z</time>
      </trkpt>
      <trkpt lat="48.35727" lon="2.73751">
        <ele>134.7</ele>
        <time>2021-08-21T10:29:02Z</time>
      </trkpt>
      <trkpt lat="48.35728" lon="2.73749">
        <ele>134.8</ele>
        <time>2021-08-21T10:29:04Z</time>
      </trkpt>
      <trkpt lat="48.35728" lon="2.73747">
        <ele>134.9</ele>
        <time>2021-08-21T10:29:06Z</time>
      </trkpt>
      <trkpt lat="48.35728" lon="2.73745">
        <ele>135</ele>
        <time>2021-08-21T10:29:07Z</time>
      </trkpt>
      <trkpt lat="48.35729" lon="2.73742">
        <ele>135.1</ele>
        <time>2021-08-21T10:29:09Z</time>
      </trkpt>
      <trkpt lat="48.3573" lon="2.7374">
        <ele>135.2</ele>
        <time>2021-08-21T10:29:11Z</time>
      </trkpt>
      <trkpt lat="48.3573" lon="2.73738">
        <ele>135.2</ele>
        <time>2021-08-21T10:29:12Z</time>
      </trkpt>
      <trkpt lat="48.35731" lon="2.73736">
        <ele>135.3</ele>
        <time>2021-08-21T10:29:13Z</time>
      </trkpt>
      <trkpt lat="48.35731" lon="2.73735">
        <ele>135.3</ele>
        <time>2021-08-21T10:29:14Z</time>
      </trkpt>
      <trkpt lat="48.35731" lon="2.73734">
        <ele>135.4</ele>
        <time>2021-08-21T10:29:16Z</time>
      </trkpt>
      <trkpt lat="48.35731" lon="2.73732">
        <ele>135.4</ele>
        <time>2021-08-21T10:29:17Z</time>
      </trkpt>
      <trkpt lat="48.35731" lon="2.7373">
        <ele>135.5</ele>
        <time>2021-08-21T10:29:19Z</time>
      </trkpt>
      <trkpt lat="48.3573" lon="2.73729">
        <ele>135.5</ele>
        <time>2021-08-21T10:29:20Z</time>
      </trkpt>
      <trkpt lat="48.3573" lon="2.73728">
        <ele>135.5</ele>
        <time>2021-08-21T10:29:21Z</time>
      </trkpt>
      <trkpt lat="48.35729" lon="2.73727">
        <ele>135.5</ele>
        <time>2021-08-21T10:29:22Z</time>
      </trkpt>
      <trkpt lat="48.35729" lon="2.73727">
        <ele>135.5</ele>
        <time>2021-08-21T10:29:23Z</time>
      </trkpt>
      <trkpt lat="48.35728" lon="2.73726">
        <ele>135.6</ele>
        <time>2021-08-21T10:29:24Z</time>
      </trkpt>
      <trkpt lat="48.35728" lon="2.73725">
        <ele>135.6</ele>
        <time>2021-08-21T10:29:25Z</time>
      </trkpt>
      <trkpt lat="48.35727" lon="2.73725">
        <ele>135.6</ele>
        <time>2021-08-21T10:29:26Z</time>
      </trkpt>
      <trkpt lat="48.35727" lon="2.73724">
        <ele>135.6</ele>
        <time>2021-08-21T10:29:27Z</time>
      </trkpt>
      <trkpt lat="48.35727" lon="2.73721">
        <ele>135.6</ele>
        <time>2021-08-21T10:29:29Z</time>
      </trkpt>
      <trkpt lat="48.35728" lon="2.7372">
        <ele>135.6</ele>
        <time>2021-08-21T10:29:31Z</time>
      </trkpt>
      <trkpt lat="48.35728" lon="2.73719">
        <ele>135.6</ele>
        <time>2021-08-21T10:29:32Z</time>
      </trkpt>
      <trkpt lat="48.35728" lon="2.73717">
        <ele>135.5</ele>
        <time>2021-08-21T10:29:33Z</time>
      </trkpt>
      <trkpt lat="48.35728" lon="2.73715">
        <ele>135.5</ele>
        <time>2021-08-21T10:29:35Z</time>
      </trkpt>
      <trkpt lat="48.35728" lon="2.73715">
        <ele>135.5</ele>
        <time>2021-08-21T10:29:36Z</time>
      </trkpt>
      <trkpt lat="48.35728" lon="2.73714">
        <ele>135.5</ele>
        <time>2021-08-21T10:29:38Z</time>
      </trkpt>
      <trkpt lat="48.35728" lon="2.73713">
        <ele>135.5</ele>
        <time>2021-08-21T10:29:39Z</time>
      </trkpt>
      <trkpt lat="48.35728" lon="2.73713">
        <ele>135.5</ele>
        <time>2021-08-21T10:29:41Z</time>
      </trkpt>
      <trkpt lat="48.35728" lon="2.73713">
        <ele>135.5</ele>
        <time>2021-08-21T10:29:42Z</time>
      </trkpt>
      <trkpt lat="48.35728" lon="2.73712">
        <ele>135.5</ele>
        <time>2021-08-21T10:29:43Z</time>
      </trkpt>
      <trkpt lat="48.35728" lon="2.73711">
        <ele>135.4</ele>
        <time>2021-08-21T10:29:44Z</time>
      </trkpt>
      <trkpt lat="48.35727" lon="2.73709">
        <ele>135.4</ele>
        <time>2021-08-21T10:29:46Z</time>
      </trkpt>
      <trkpt lat="48.35727" lon="2.73708">
        <ele>135.4</ele>
        <time>2021-08-21T10:29:47Z</time>
      </trkpt>
      <trkpt lat="48.35727" lon="2.73706">
        <ele>135.3</ele>
        <time>2021-08-21T10:29:48Z</time>
      </trkpt>
      <trkpt lat="48.35726" lon="2.73703">
        <ele>135.3</ele>
        <time>2021-08-21T10:29:49Z</time>
      </trkpt>
      <trkpt lat="48.35726" lon="2.73703">
        <ele>135.2</ele>
        <time>2021-08-21T10:29:50Z</time>
      </trkpt>
      <trkpt lat="48.35726" lon="2.73702">
        <ele>135.2</ele>
        <time>2021-08-21T10:29:51Z</time>
      </trkpt>
      <trkpt lat="48.35726" lon="2.73699">
        <ele>135.1</ele>
        <time>2021-08-21T10:29:52Z</time>
      </trkpt>
      <trkpt lat="48.35726" lon="2.73697">
        <ele>135.1</ele>
        <time>2021-08-21T10:29:53Z</time>
      </trkpt>
      <trkpt lat="48.35726" lon="2.73695">
        <ele>135</ele>
        <time>2021-08-21T10:29:55Z</time>
      </trkpt>
      <trkpt lat="48.35726" lon="2.73694">
        <ele>135</ele>
        <time>2021-08-21T10:29:56Z</time>
      </trkpt>
      <trkpt lat="48.35727" lon="2.73692">
        <ele>134.9</ele>
        <time>2021-08-21T10:29:57Z</time>
      </trkpt>
      <trkpt lat="48.35727" lon="2.7369">
        <ele>134.9</ele>
        <time>2021-08-21T10:29:58Z</time>
      </trkpt>
      <trkpt lat="48.35727" lon="2.73687">
        <ele>134.8</ele>
        <time>2021-08-21T10:29:59Z</time>
      </trkpt>
      <trkpt lat="48.35727" lon="2.73685">
        <ele>134.7</ele>
        <time>2021-08-21T10:30:00Z</time>
      </trkpt>
      <trkpt lat="48.35726" lon="2.73685">
        <ele>134.7</ele>
        <time>2021-08-21T10:30:02Z</time>
      </trkpt>
      <trkpt lat="48.35726" lon="2.73686">
        <ele>134.7</ele>
        <time>2021-08-21T10:30:03Z</time>
      </trkpt>
      <trkpt lat="48.35726" lon="2.73685">
        <ele>134.6</ele>
        <time>2021-08-21T10:30:04Z</time>
      </trkpt>
      <trkpt lat="48.35727" lon="2.73684">
        <ele>134.6</ele>
        <time>2021-08-21T10:30:05Z</time>
      </trkpt>
      <trkpt lat="48.35728" lon="2.73683">
        <ele>134.5</ele>
        <time>2021-08-21T10:30:06Z</time>
      </trkpt>
      <trkpt lat="48.35729" lon="2.73682">
        <ele>134.5</ele>
        <time>2021-08-21T10:30:07Z</time>
      </trkpt>
      <trkpt lat="48.35729" lon="2.7368">
        <ele>134.5</ele>
        <time>2021-08-21T10:30:08Z</time>
      </trkpt>
      <trkpt lat="48.3573" lon="2.73679">
        <ele>134.4</ele>
        <time>2021-08-21T10:30:10Z</time>
      </trkpt>
      <trkpt lat="48.35731" lon="2.73678">
        <ele>134.4</ele>
        <time>2021-08-21T10:30:11Z</time>
      </trkpt>
      <trkpt lat="48.35732" lon="2.73677">
        <ele>134.4</ele>
        <time>2021-08-21T10:30:12Z</time>
      </trkpt>
      <trkpt lat="48.35732" lon="2.73677">
        <ele>134.4</ele>
        <time>2021-08-21T10:30:13Z</time>
      </trkpt>
      <trkpt lat="48.35733" lon="2.73675">
        <ele>134.4</ele>
        <time>2021-08-21T10:30:15Z</time>
      </trkpt>
      <trkpt lat="48.35734" lon="2.73675">
        <ele>134.3</ele>
        <time>2021-08-21T10:30:16Z</time>
      </trkpt>
      <trkpt lat="48.35734" lon="2.73674">
        <ele>134.3</ele>
        <time>2021-08-21T10:30:17Z</time>
      </trkpt>
      <trkpt lat="48.35735" lon="2.73674">
        <ele>134.3</ele>
        <time>2021-08-21T10:30:18Z</time>
      </trkpt>
      <trkpt lat="48.35735" lon="2.73672">
        <ele>134.3</ele>
        <time>2021-08-21T10:30:19Z</time>
      </trkpt>
      <trkpt lat="48.35735" lon="2.73671">
        <ele>134.3</ele>
        <time>2021-08-21T10:30:21Z</time>
      </trkpt>
      <trkpt lat="48.35736" lon="2.7367">
        <ele>134.3</ele>
        <time>2021-08-21T10:30:22Z</time>
      </trkpt>
      <trkpt lat="48.35736" lon="2.73669">
        <ele>134.3</ele>
        <time>2021-08-21T10:30:23Z</time>
      </trkpt>
      <trkpt lat="48.35736" lon="2.73668">
        <ele>134.3</ele>
        <time>2021-08-21T10:30:24Z</time>
      </trkpt>
      <trkpt lat="48.35736" lon="2.73665">
        <ele>134.3</ele>
        <time>2021-08-21T10:30:25Z</time>
      </trkpt>
      <trkpt lat="48.35736" lon="2.73665">
        <ele>134.3</ele>
        <time>2021-08-21T10:30:26Z</time>
      </trkpt>
      <trkpt lat="48.35736" lon="2.73665">
        <ele>134.3</ele>
        <time>2021-08-21T10:30:27Z</time>
      </trkpt>
      <trkpt lat="48.35736" lon="2.73665">
        <ele>134.3</ele>
        <time>2021-08-21T10:30:28Z</time>
      </trkpt>
      <trkpt lat="48.35736" lon="2.73665">
        <ele>134.3</ele>
        <time>2021-08-21T10:30:29Z</time>
      </trkpt>
      <trkpt lat="48.35736" lon="2.73665">
        <ele>134.3</ele>
        <time>2021-08-21T10:30:30Z</time>
      </trkpt>
      <trkpt lat="48.35736" lon="2.73665">
        <ele>134.3</ele>
        <time>2021-08-21T10:30:31Z</time>
      </trkpt>
      <trkpt lat="48.35736" lon="2.73664">
        <ele>134.3</ele>
        <time>2021-08-21T10:30:32Z</time>
      </trkpt>
      <trkpt lat="48.35736" lon="2.73664">
        <ele>134.3</ele>
        <time>2021-08-21T10:30:33Z</time>
      </trkpt>
      <trkpt lat="48.35736" lon="2.73664">
        <ele>134.3</ele>
        <time>2021-08-21T10:30:34Z</time>
      </trkpt>
      <trkpt lat="48.35735" lon="2.73664">
        <ele>134.3</ele>
        <time>2021-08-21T10:30:35Z</time>
      </trkpt>
      <trkpt lat="48.35735" lon="2.73664">
        <ele>134.3</ele>
        <time>2021-08-21T10:30:36Z</time>
      </trkpt>
      <trkpt lat="48.35735" lon="2.73664">
        <ele>134.3</ele>
        <time>2021-08-21T10:30:37Z</time>
      </trkpt>
      <trkpt lat="48.35735" lon="2.73664">
        <ele>134.3</ele>
        <time>2021-08-21T10:30:38Z</time>
      </trkpt>
      <trkpt lat="48.35735" lon="2.73664">
        <ele>134.3</ele>
        <time>2021-08-21T10:30:39Z</time>
      </trkpt>
      <trkpt lat="48.35735" lon="2.73663">
        <ele>134.3</ele>
        <time>2021-08-21T10:30:40Z</time>
      </trkpt>
      <trkpt lat="48.35735" lon="2.73663">
        <ele>134.3</ele>
        <time>2021-08-21T10:30:41Z</time>
      </trkpt>
      <trkpt lat="48.35735" lon="2.73663">
        <ele>134.3</ele>
        <time>2021-08-21T10:30:42Z</time>
      </trkpt>
      <trkpt lat="48.35735" lon="2.73663">
        <ele>134.3</ele>
        <time>2021-08-21T10:30:43Z</time>
      </trkpt>
      <trkpt lat="48.35735" lon="2.73663">
        <ele>134.3</ele>
        <time>2021-08-21T10:30:44Z</time>
      </trkpt>
      <trkpt lat="48.35734" lon="2.73663">
        <ele>134.3</ele>
        <time>2021-08-21T10:30:45Z</time>
      </trkpt>
      <trkpt lat="48.35734" lon="2.73661">
        <ele>134.3</ele>
        <time>2021-08-21T10:30:46Z</time>
      </trkpt>
      <trkpt lat="48.35734" lon="2.7366">
        <ele>134.4</ele>
        <time>2021-08-21T10:30:47Z</time>
      </trkpt>
      <trkpt lat="48.35734" lon="2.73661">
        <ele>134.4</ele>
        <time>2021-08-21T10:30:48Z</time>
      </trkpt>
      <trkpt lat="48.35734" lon="2.73661">
        <ele>134.4</ele>
        <time>2021-08-21T10:30:49Z</time>
      </trkpt>
      <trkpt lat="48.35735" lon="2.73662">
        <ele>134.4</ele>
        <time>2021-08-21T10:30:50Z</time>
      </trkpt>
      <trkpt lat="48.35734" lon="2.73661">
        <ele>134.4</ele>
        <time>2021-08-21T10:30:51Z</time>
      </trkpt>
      <trkpt lat="48.35734" lon="2.73661">
        <ele>134.4</ele>
        <time>2021-08-21T10:30:52Z</time>
      </trkpt>
      <trkpt lat="48.35735" lon="2.7366">
        <ele>134.4</ele>
        <time>2021-08-21T10:30:53Z</time>
      </trkpt>
      <trkpt lat="48.35735" lon="2.73659">
        <ele>134.4</ele>
        <time>2021-08-21T10:30:54Z</time>
      </trkpt>
      <trkpt lat="48.35735" lon="2.73658">
        <ele>134.5</ele>
        <time>2021-08-21T10:30:55Z</time>
      </trkpt>
      <trkpt lat="48.35736" lon="2.73658">
        <ele>134.5</ele>
        <time>2021-08-21T10:30:56Z</time>
      </trkpt>
      <trkpt lat="48.35737" lon="2.73656">
        <ele>134.5</ele>
        <time>2021-08-21T10:30:57Z</time>
      </trkpt>
      <trkpt lat="48.35737" lon="2.73654">
        <ele>134.6</ele>
        <time>2021-08-21T10:30:58Z</time>
      </trkpt>
      <trkpt lat="48.35738" lon="2.73652">
        <ele>134.6</ele>
        <time>2021-08-21T10:30:59Z</time>
      </trkpt>
      <trkpt lat="48.35739" lon="2.73651">
        <ele>134.7</ele>
        <time>2021-08-21T10:31:01Z</time>
      </trkpt>
      <trkpt lat="48.35739" lon="2.73649">
        <ele>134.7</ele>
        <time>2021-08-21T10:31:03Z</time>
      </trkpt>
      <trkpt lat="48.35739" lon="2.73647">
        <ele>134.8</ele>
        <time>2021-08-21T10:31:05Z</time>
      </trkpt>
      <trkpt lat="48.35739" lon="2.73646">
        <ele>134.8</ele>
        <time>2021-08-21T10:31:06Z</time>
      </trkpt>
      <trkpt lat="48.35739" lon="2.73646">
        <ele>134.8</ele>
        <time>2021-08-21T10:31:07Z</time>
      </trkpt>
      <trkpt lat="48.35739" lon="2.73645">
        <ele>134.8</ele>
        <time>2021-08-21T10:31:09Z</time>
      </trkpt>
      <trkpt lat="48.35739" lon="2.73644">
        <ele>134.9</ele>
        <time>2021-08-21T10:31:10Z</time>
      </trkpt>
      <trkpt lat="48.3574" lon="2.73643">
        <ele>134.9</ele>
        <time>2021-08-21T10:31:11Z</time>
      </trkpt>
      <trkpt lat="48.3574" lon="2.73642">
        <ele>134.9</ele>
        <time>2021-08-21T10:31:13Z</time>
      </trkpt>
      <trkpt lat="48.35742" lon="2.73638">
        <ele>135</ele>
        <time>2021-08-21T10:31:15Z</time>
      </trkpt>
      <trkpt lat="48.35742" lon="2.73637">
        <ele>135.1</ele>
        <time>2021-08-21T10:31:16Z</time>
      </trkpt>
      <trkpt lat="48.35742" lon="2.73635">
        <ele>135.1</ele>
        <time>2021-08-21T10:31:18Z</time>
      </trkpt>
      <trkpt lat="48.35742" lon="2.73634">
        <ele>135.1</ele>
        <time>2021-08-21T10:31:19Z</time>
      </trkpt>
      <trkpt lat="48.35741" lon="2.73633">
        <ele>135.2</ele>
        <time>2021-08-21T10:31:20Z</time>
      </trkpt>
      <trkpt lat="48.35741" lon="2.73632">
        <ele>135.2</ele>
        <time>2021-08-21T10:31:22Z</time>
      </trkpt>
      <trkpt lat="48.35741" lon="2.73631">
        <ele>135.2</ele>
        <time>2021-08-21T10:31:23Z</time>
      </trkpt>
      <trkpt lat="48.35741" lon="2.73629">
        <ele>135.2</ele>
        <time>2021-08-21T10:31:25Z</time>
      </trkpt>
      <trkpt lat="48.3574" lon="2.73628">
        <ele>135.2</ele>
        <time>2021-08-21T10:31:26Z</time>
      </trkpt>
      <trkpt lat="48.3574" lon="2.73627">
        <ele>135.3</ele>
        <time>2021-08-21T10:31:27Z</time>
      </trkpt>
      <trkpt lat="48.3574" lon="2.73625">
        <ele>135.3</ele>
        <time>2021-08-21T10:31:28Z</time>
      </trkpt>
      <trkpt lat="48.3574" lon="2.73623">
        <ele>135.3</ele>
        <time>2021-08-21T10:31:30Z</time>
      </trkpt>
      <trkpt lat="48.35741" lon="2.73622">
        <ele>135.3</ele>
        <time>2021-08-21T10:31:31Z</time>
      </trkpt>
      <trkpt lat="48.35741" lon="2.7362">
        <ele>135.3</ele>
        <time>2021-08-21T10:31:32Z</time>
      </trkpt>
      <trkpt lat="48.35741" lon="2.73618">
        <ele>135.3</ele>
        <time>2021-08-21T10:31:34Z</time>
      </trkpt>
      <trkpt lat="48.3574" lon="2.73614">
        <ele>135.3</ele>
        <time>2021-08-21T10:31:36Z</time>
      </trkpt>
      <trkpt lat="48.3574" lon="2.73612">
        <ele>135.3</ele>
        <time>2021-08-21T10:31:37Z</time>
      </trkpt>
      <trkpt lat="48.35739" lon="2.7361">
        <ele>135.2</ele>
        <time>2021-08-21T10:31:38Z</time>
      </trkpt>
      <trkpt lat="48.35738" lon="2.73608">
        <ele>135.2</ele>
        <time>2021-08-21T10:31:40Z</time>
      </trkpt>
      <trkpt lat="48.35738" lon="2.73606">
        <ele>135.2</ele>
        <time>2021-08-21T10:31:41Z</time>
      </trkpt>
      <trkpt lat="48.35738" lon="2.73603">
        <ele>135.1</ele>
        <time>2021-08-21T10:31:42Z</time>
      </trkpt>
      <trkpt lat="48.35738" lon="2.73601">
        <ele>135.1</ele>
        <time>2021-08-21T10:31:44Z</time>
      </trkpt>
      <trkpt lat="48.35738" lon="2.73598">
        <ele>135</ele>
        <time>2021-08-21T10:31:45Z</time>
      </trkpt>
      <trkpt lat="48.35738" lon="2.73596">
        <ele>135</ele>
        <time>2021-08-21T10:31:47Z</time>
      </trkpt>
      <trkpt lat="48.35738" lon="2.73594">
        <ele>134.9</ele>
        <time>2021-08-21T10:31:48Z</time>
      </trkpt>
      <trkpt lat="48.35739" lon="2.73591">
        <ele>134.9</ele>
        <time>2021-08-21T10:31:50Z</time>
      </trkpt>
      <trkpt lat="48.35739" lon="2.73591">
        <ele>134.9</ele>
        <time>2021-08-21T10:31:51Z</time>
      </trkpt>
      <trkpt lat="48.35739" lon="2.7359">
        <ele>134.8</ele>
        <time>2021-08-21T10:31:52Z</time>
      </trkpt>
      <trkpt lat="48.35739" lon="2.73588">
        <ele>134.8</ele>
        <time>2021-08-21T10:31:53Z</time>
      </trkpt>
      <trkpt lat="48.35739" lon="2.73585">
        <ele>134.7</ele>
        <time>2021-08-21T10:31:55Z</time>
      </trkpt>
      <trkpt lat="48.35739" lon="2.73583">
        <ele>134.7</ele>
        <time>2021-08-21T10:31:56Z</time>
      </trkpt>
      <trkpt lat="48.35739" lon="2.73582">
        <ele>134.6</ele>
        <time>2021-08-21T10:31:57Z</time>
      </trkpt>
      <trkpt lat="48.35739" lon="2.73581">
        <ele>134.6</ele>
        <time>2021-08-21T10:31:58Z</time>
      </trkpt>
      <trkpt lat="48.35739" lon="2.73579">
        <ele>134.6</ele>
        <time>2021-08-21T10:32:00Z</time>
      </trkpt>
      <trkpt lat="48.35739" lon="2.73578">
        <ele>134.5</ele>
        <time>2021-08-21T10:32:01Z</time>
      </trkpt>
      <trkpt lat="48.3574" lon="2.73577">
        <ele>134.5</ele>
        <time>2021-08-21T10:32:03Z</time>
      </trkpt>
      <trkpt lat="48.3574" lon="2.73576">
        <ele>134.5</ele>
        <time>2021-08-21T10:32:04Z</time>
      </trkpt>
      <trkpt lat="48.35741" lon="2.73574">
        <ele>134.4</ele>
        <time>2021-08-21T10:32:05Z</time>
      </trkpt>
      <trkpt lat="48.35741" lon="2.73574">
        <ele>134.4</ele>
        <time>2021-08-21T10:32:06Z</time>
      </trkpt>
      <trkpt lat="48.35741" lon="2.73573">
        <ele>134.4</ele>
        <time>2021-08-21T10:32:07Z</time>
      </trkpt>
      <trkpt lat="48.35741" lon="2.73572">
        <ele>134.3</ele>
        <time>2021-08-21T10:32:08Z</time>
      </trkpt>
      <trkpt lat="48.35741" lon="2.73571">
        <ele>134.3</ele>
        <time>2021-08-21T10:32:09Z</time>
      </trkpt>
      <trkpt lat="48.35741" lon="2.7357">
        <ele>134.3</ele>
        <time>2021-08-21T10:32:10Z</time>
      </trkpt>
      <trkpt lat="48.3574" lon="2.73569">
        <ele>134.3</ele>
        <time>2021-08-21T10:32:12Z</time>
      </trkpt>
      <trkpt lat="48.3574" lon="2.73568">
        <ele>134.2</ele>
        <time>2021-08-21T10:32:13Z</time>
      </trkpt>
      <trkpt lat="48.3574" lon="2.73567">
        <ele>134.2</ele>
        <time>2021-08-21T10:32:15Z</time>
      </trkpt>
      <trkpt lat="48.3574" lon="2.73566">
        <ele>134.1</ele>
        <time>2021-08-21T10:32:16Z</time>
      </trkpt>
      <trkpt lat="48.3574" lon="2.73564">
        <ele>134.1</ele>
        <time>2021-08-21T10:32:17Z</time>
      </trkpt>
      <trkpt lat="48.35741" lon="2.73562">
        <ele>134</ele>
        <time>2021-08-21T10:32:18Z</time>
      </trkpt>
      <trkpt lat="48.35741" lon="2.73559">
        <ele>133.9</ele>
        <time>2021-08-21T10:32:20Z</time>
      </trkpt>
      <trkpt lat="48.35741" lon="2.73558">
        <ele>133.9</ele>
        <time>2021-08-21T10:32:21Z</time>
      </trkpt>
      <trkpt lat="48.35741" lon="2.73557">
        <ele>133.8</ele>
        <time>2021-08-21T10:32:22Z</time>
      </trkpt>
      <trkpt lat="48.35741" lon="2.73556">
        <ele>133.8</ele>
        <time>2021-08-21T10:32:23Z</time>
      </trkpt>
      <trkpt lat="48.35741" lon="2.73553">
        <ele>133.6</ele>
        <time>2021-08-21T10:32:25Z</time>
      </trkpt>
      <trkpt lat="48.35742" lon="2.73552">
        <ele>133.6</ele>
        <time>2021-08-21T10:32:27Z</time>
      </trkpt>
      <trkpt lat="48.35742" lon="2.73551">
        <ele>133.5</ele>
        <time>2021-08-21T10:32:28Z</time>
      </trkpt>
      <trkpt lat="48.35743" lon="2.7355">
        <ele>133.4</ele>
        <time>2021-08-21T10:32:29Z</time>
      </trkpt>
      <trkpt lat="48.35744" lon="2.73549">
        <ele>133.4</ele>
        <time>2021-08-21T10:32:31Z</time>
      </trkpt>
      <trkpt lat="48.35744" lon="2.73547">
        <ele>133.3</ele>
        <time>2021-08-21T10:32:32Z</time>
      </trkpt>
      <trkpt lat="48.35744" lon="2.73546">
        <ele>133.2</ele>
        <time>2021-08-21T10:32:34Z</time>
      </trkpt>
      <trkpt lat="48.35745" lon="2.73544">
        <ele>133.1</ele>
        <time>2021-08-21T10:32:35Z</time>
      </trkpt>
      <trkpt lat="48.35746" lon="2.73542">
        <ele>132.9</ele>
        <time>2021-08-21T10:32:37Z</time>
      </trkpt>
      <trkpt lat="48.35746" lon="2.73541">
        <ele>132.8</ele>
        <time>2021-08-21T10:32:38Z</time>
      </trkpt>
      <trkpt lat="48.35747" lon="2.7354">
        <ele>132.8</ele>
        <time>2021-08-21T10:32:40Z</time>
      </trkpt>
      <trkpt lat="48.35747" lon="2.73539">
        <ele>132.7</ele>
        <time>2021-08-21T10:32:41Z</time>
      </trkpt>
      <trkpt lat="48.35748" lon="2.73537">
        <ele>132.6</ele>
        <time>2021-08-21T10:32:42Z</time>
      </trkpt>
      <trkpt lat="48.35748" lon="2.73536">
        <ele>132.6</ele>
        <time>2021-08-21T10:32:44Z</time>
      </trkpt>
      <trkpt lat="48.35749" lon="2.73535">
        <ele>132.5</ele>
        <time>2021-08-21T10:32:45Z</time>
      </trkpt>
      <trkpt lat="48.35749" lon="2.73534">
        <ele>132.3</ele>
        <time>2021-08-21T10:32:46Z</time>
      </trkpt>
      <trkpt lat="48.3575" lon="2.73533">
        <ele>132.2</ele>
        <time>2021-08-21T10:32:47Z</time>
      </trkpt>
      <trkpt lat="48.3575" lon="2.73531">
        <ele>132.1</ele>
        <time>2021-08-21T10:32:49Z</time>
      </trkpt>
      <trkpt lat="48.35751" lon="2.73528">
        <ele>131.9</ele>
        <time>2021-08-21T10:32:50Z</time>
      </trkpt>
      <trkpt lat="48.35751" lon="2.73526">
        <ele>131.7</ele>
        <time>2021-08-21T10:32:51Z</time>
      </trkpt>
      <trkpt lat="48.35751" lon="2.73523">
        <ele>131.4</ele>
        <time>2021-08-21T10:32:53Z</time>
      </trkpt>
      <trkpt lat="48.35751" lon="2.73521">
        <ele>131.3</ele>
        <time>2021-08-21T10:32:54Z</time>
      </trkpt>
      <trkpt lat="48.35751" lon="2.7352">
        <ele>131.2</ele>
        <time>2021-08-21T10:32:55Z</time>
      </trkpt>
      <trkpt lat="48.3575" lon="2.73519">
        <ele>131</ele>
        <time>2021-08-21T10:32:56Z</time>
      </trkpt>
      <trkpt lat="48.3575" lon="2.73517">
        <ele>130.9</ele>
        <time>2021-08-21T10:32:57Z</time>
      </trkpt>
      <trkpt lat="48.3575" lon="2.73516">
        <ele>130.8</ele>
        <time>2021-08-21T10:32:58Z</time>
      </trkpt>
      <trkpt lat="48.3575" lon="2.73513">
        <ele>130.5</ele>
        <time>2021-08-21T10:33:00Z</time>
      </trkpt>
      <trkpt lat="48.35749" lon="2.73511">
        <ele>130.2</ele>
        <time>2021-08-21T10:33:01Z</time>
      </trkpt>
      <trkpt lat="48.35749" lon="2.7351">
        <ele>130</ele>
        <time>2021-08-21T10:33:02Z</time>
      </trkpt>
      <trkpt lat="48.35749" lon="2.73509">
        <ele>129.9</ele>
        <time>2021-08-21T10:33:04Z</time>
      </trkpt>
      <trkpt lat="48.35749" lon="2.73508">
        <ele>129.8</ele>
        <time>2021-08-21T10:33:05Z</time>
      </trkpt>
      <trkpt lat="48.3575" lon="2.73506">
        <ele>129.5</ele>
        <time>2021-08-21T10:33:06Z</time>
      </trkpt>
      <trkpt lat="48.3575" lon="2.73504">
        <ele>129.3</ele>
        <time>2021-08-21T10:33:07Z</time>
      </trkpt>
      <trkpt lat="48.35751" lon="2.73503">
        <ele>129.1</ele>
        <time>2021-08-21T10:33:08Z</time>
      </trkpt>
      <trkpt lat="48.35752" lon="2.735">
        <ele>128.7</ele>
        <time>2021-08-21T10:33:10Z</time>
      </trkpt>
      <trkpt lat="48.35753" lon="2.73499">
        <ele>128.4</ele>
        <time>2021-08-21T10:33:11Z</time>
      </trkpt>
      <trkpt lat="48.35754" lon="2.73497">
        <ele>128.2</ele>
        <time>2021-08-21T10:33:13Z</time>
      </trkpt>
      <trkpt lat="48.35755" lon="2.73496">
        <ele>127.8</ele>
        <time>2021-08-21T10:33:14Z</time>
      </trkpt>
      <trkpt lat="48.35756" lon="2.73492">
        <ele>127.3</ele>
        <time>2021-08-21T10:33:15Z</time>
      </trkpt>
      <trkpt lat="48.35756" lon="2.7349">
        <ele>127</ele>
        <time>2021-08-21T10:33:17Z</time>
      </trkpt>
      <trkpt lat="48.35756" lon="2.73488">
        <ele>126.8</ele>
        <time>2021-08-21T10:33:18Z</time>
      </trkpt>
      <trkpt lat="48.35756" lon="2.73486">
        <ele>126.4</ele>
        <time>2021-08-21T10:33:19Z</time>
      </trkpt>
      <trkpt lat="48.35756" lon="2.73484">
        <ele>126.2</ele>
        <time>2021-08-21T10:33:20Z</time>
      </trkpt>
      <trkpt lat="48.35757" lon="2.73483">
        <ele>125.9</ele>
        <time>2021-08-21T10:33:22Z</time>
      </trkpt>
      <trkpt lat="48.35758" lon="2.73482">
        <ele>125.7</ele>
        <time>2021-08-21T10:33:23Z</time>
      </trkpt>
      <trkpt lat="48.35758" lon="2.73482">
        <ele>125.5</ele>
        <time>2021-08-21T10:33:24Z</time>
      </trkpt>
      <trkpt lat="48.35759" lon="2.73481">
        <ele>125.4</ele>
        <time>2021-08-21T10:33:25Z</time>
      </trkpt>
      <trkpt lat="48.3576" lon="2.7348">
        <ele>125.2</ele>
        <time>2021-08-21T10:33:26Z</time>
      </trkpt>
      <trkpt lat="48.3576" lon="2.7348">
        <ele>125.1</ele>
        <time>2021-08-21T10:33:28Z</time>
      </trkpt>
      <trkpt lat="48.3576" lon="2.73479">
        <ele>125</ele>
        <time>2021-08-21T10:33:29Z</time>
      </trkpt>
      <trkpt lat="48.35761" lon="2.73478">
        <ele>124.8</ele>
        <time>2021-08-21T10:33:31Z</time>
      </trkpt>
      <trkpt lat="48.35761" lon="2.73478">
        <ele>124.7</ele>
        <time>2021-08-21T10:33:32Z</time>
      </trkpt>
      <trkpt lat="48.35761" lon="2.73477">
        <ele>124.6</ele>
        <time>2021-08-21T10:33:33Z</time>
      </trkpt>
      <trkpt lat="48.35759" lon="2.73474">
        <ele>124.1</ele>
        <time>2021-08-21T10:33:34Z</time>
      </trkpt>
      <trkpt lat="48.35758" lon="2.7347">
        <ele>123.6</ele>
        <time>2021-08-21T10:33:36Z</time>
      </trkpt>
      <trkpt lat="48.35757" lon="2.73468">
        <ele>123.3</ele>
        <time>2021-08-21T10:33:37Z</time>
      </trkpt>
      <trkpt lat="48.35756" lon="2.73467">
        <ele>123.1</ele>
        <time>2021-08-21T10:33:38Z</time>
      </trkpt>
      <trkpt lat="48.35757" lon="2.73466">
        <ele>122.9</ele>
        <time>2021-08-21T10:33:39Z</time>
      </trkpt>
      <trkpt lat="48.35757" lon="2.73466">
        <ele>122.8</ele>
        <time>2021-08-21T10:33:40Z</time>
      </trkpt>
      <trkpt lat="48.35758" lon="2.73466">
        <ele>122.7</ele>
        <time>2021-08-21T10:33:42Z</time>
      </trkpt>
      <trkpt lat="48.35758" lon="2.73466">
        <ele>122.7</ele>
        <time>2021-08-21T10:33:43Z</time>
      </trkpt>
      <trkpt lat="48.35759" lon="2.73466">
        <ele>122.6</ele>
        <time>2021-08-21T10:33:44Z</time>
      </trkpt>
      <trkpt lat="48.35759" lon="2.73466">
        <ele>122.5</ele>
        <time>2021-08-21T10:33:46Z</time>
      </trkpt>
      <trkpt lat="48.3576" lon="2.73467">
        <ele>122.4</ele>
        <time>2021-08-21T10:33:47Z</time>
      </trkpt>
      <trkpt lat="48.3576" lon="2.73467">
        <ele>122.3</ele>
        <time>2021-08-21T10:33:48Z</time>
      </trkpt>
      <trkpt lat="48.35761" lon="2.73467">
        <ele>122.2</ele>
        <time>2021-08-21T10:33:49Z</time>
      </trkpt>
      <trkpt lat="48.35761" lon="2.73468">
        <ele>122.1</ele>
        <time>2021-08-21T10:33:51Z</time>
      </trkpt>
      <trkpt lat="48.35762" lon="2.73469">
        <ele>121.9</ele>
        <time>2021-08-21T10:33:52Z</time>
      </trkpt>
      <trkpt lat="48.35763" lon="2.7347">
        <ele>121.8</ele>
        <time>2021-08-21T10:33:53Z</time>
      </trkpt>
      <trkpt lat="48.35764" lon="2.7347">
        <ele>121.6</ele>
        <time>2021-08-21T10:33:54Z</time>
      </trkpt>
      <trkpt lat="48.35766" lon="2.73471">
        <ele>121.4</ele>
        <time>2021-08-21T10:33:55Z</time>
      </trkpt>
      <trkpt lat="48.35767" lon="2.7347">
        <ele>121.3</ele>
        <time>2021-08-21T10:33:57Z</time>
      </trkpt>
      <trkpt lat="48.35768" lon="2.73469">
        <ele>121</ele>
        <time>2021-08-21T10:33:58Z</time>
      </trkpt>
      <trkpt lat="48.35769" lon="2.73468">
        <ele>120.9</ele>
        <time>2021-08-21T10:33:59Z</time>
      </trkpt>
      <trkpt lat="48.3577" lon="2.73464">
        <ele>120.6</ele>
        <time>2021-08-21T10:34:01Z</time>
      </trkpt>
      <trkpt lat="48.3577" lon="2.73463">
        <ele>120.5</ele>
        <time>2021-08-21T10:34:03Z</time>
      </trkpt>
      <trkpt lat="48.35771" lon="2.73463">
        <ele>120.4</ele>
        <time>2021-08-21T10:34:04Z</time>
      </trkpt>
      <trkpt lat="48.35771" lon="2.73462">
        <ele>120.4</ele>
        <time>2021-08-21T10:34:05Z</time>
      </trkpt>
      <trkpt lat="48.35771" lon="2.73461">
        <ele>120.2</ele>
        <time>2021-08-21T10:34:06Z</time>
      </trkpt>
      <trkpt lat="48.3577" lon="2.73461">
        <ele>120.2</ele>
        <time>2021-08-21T10:34:08Z</time>
      </trkpt>
      <trkpt lat="48.35771" lon="2.73461">
        <ele>120.2</ele>
        <time>2021-08-21T10:34:09Z</time>
      </trkpt>
      <trkpt lat="48.35771" lon="2.7346">
        <ele>120.2</ele>
        <time>2021-08-21T10:34:10Z</time>
      </trkpt>
      <trkpt lat="48.3577" lon="2.7346">
        <ele>120.1</ele>
        <time>2021-08-21T10:34:11Z</time>
      </trkpt>
      <trkpt lat="48.3577" lon="2.7346">
        <ele>120.1</ele>
        <time>2021-08-21T10:34:12Z</time>
      </trkpt>
      <trkpt lat="48.3577" lon="2.7346">
        <ele>120.1</ele>
        <time>2021-08-21T10:34:13Z</time>
      </trkpt>
      <trkpt lat="48.3577" lon="2.7346">
        <ele>120.1</ele>
        <time>2021-08-21T10:34:14Z</time>
      </trkpt>
      <trkpt lat="48.3577" lon="2.7346">
        <ele>120.1</ele>
        <time>2021-08-21T10:34:15Z</time>
      </trkpt>
      <trkpt lat="48.3577" lon="2.7346">
        <ele>120.1</ele>
        <time>2021-08-21T10:34:16Z</time>
      </trkpt>
      <trkpt lat="48.3577" lon="2.7346">
        <ele>120.1</ele>
        <time>2021-08-21T10:34:17Z</time>
      </trkpt>
      <trkpt lat="48.3577" lon="2.7346">
        <ele>120.1</ele>
        <time>2021-08-21T10:34:18Z</time>
      </trkpt>
      <trkpt lat="48.3577" lon="2.7346">
        <ele>120.1</ele>
        <time>2021-08-21T10:34:19Z</time>
      </trkpt>
      <trkpt lat="48.3577" lon="2.7346">
        <ele>120.1</ele>
        <time>2021-08-21T10:34:20Z</time>
      </trkpt>
      <trkpt lat="48.3577" lon="2.7346">
        <ele>120.1</ele>
        <time>2021-08-21T10:34:21Z</time>
      </trkpt>
      <trkpt lat="48.3577" lon="2.7346">
        <ele>120.1</ele>
        <time>2021-08-21T10:34:22Z</time>
      </trkpt>
      <trkpt lat="48.3577" lon="2.7346">
        <ele>120.1</ele>
        <time>2021-08-21T10:34:23Z</time>
      </trkpt>
      <trkpt lat="48.3577" lon="2.7346">
        <ele>120.1</ele>
        <time>2021-08-21T10:34:24Z</time>
      </trkpt>
      <trkpt lat="48.3577" lon="2.7346">
        <ele>120.1</ele>
        <time>2021-08-21T10:34:25Z</time>
      </trkpt>
      <trkpt lat="48.3577" lon="2.7346">
        <ele>120</ele>
        <time>2021-08-21T10:34:26Z</time>
      </trkpt>
      <trkpt lat="48.3577" lon="2.7346">
        <ele>120</ele>
        <time>2021-08-21T10:34:27Z</time>
      </trkpt>
      <trkpt lat="48.3577" lon="2.7346">
        <ele>120</ele>
        <time>2021-08-21T10:34:28Z</time>
      </trkpt>
      <trkpt lat="48.3577" lon="2.7346">
        <ele>120</ele>
        <time>2021-08-21T10:34:29Z</time>
      </trkpt>
      <trkpt lat="48.35769" lon="2.7346">
        <ele>119.9</ele>
        <time>2021-08-21T10:34:30Z</time>
      </trkpt>
      <trkpt lat="48.3577" lon="2.73459">
        <ele>119.9</ele>
        <time>2021-08-21T10:34:31Z</time>
      </trkpt>
      <trkpt lat="48.3577" lon="2.73458">
        <ele>119.8</ele>
        <time>2021-08-21T10:34:32Z</time>
      </trkpt>
      <trkpt lat="48.35771" lon="2.73458">
        <ele>119.7</ele>
        <time>2021-08-21T10:34:33Z</time>
      </trkpt>
      <trkpt lat="48.35771" lon="2.73458">
        <ele>119.6</ele>
        <time>2021-08-21T10:34:34Z</time>
      </trkpt>
      <trkpt lat="48.35772" lon="2.73458">
        <ele>119.6</ele>
        <time>2021-08-21T10:34:35Z</time>
      </trkpt>
      <trkpt lat="48.35772" lon="2.73457">
        <ele>119.5</ele>
        <time>2021-08-21T10:34:36Z</time>
      </trkpt>
      <trkpt lat="48.35773" lon="2.73457">
        <ele>119.4</ele>
        <time>2021-08-21T10:34:37Z</time>
      </trkpt>
      <trkpt lat="48.35774" lon="2.73456">
        <ele>118.5</ele>
        <time>2021-08-21T10:34:39Z</time>
      </trkpt>
      <trkpt lat="48.35774" lon="2.73454">
        <ele>118.5</ele>
        <time>2021-08-21T10:34:40Z</time>
      </trkpt>
      <trkpt lat="48.35774" lon="2.73452">
        <ele>118.5</ele>
        <time>2021-08-21T10:34:41Z</time>
      </trkpt>
      <trkpt lat="48.35774" lon="2.73453">
        <ele>118.5</ele>
        <time>2021-08-21T10:34:42Z</time>
      </trkpt>
      <trkpt lat="48.35774" lon="2.73453">
        <ele>118.6</ele>
        <time>2021-08-21T10:34:43Z</time>
      </trkpt>
      <trkpt lat="48.35774" lon="2.73454">
        <ele>118.6</ele>
        <time>2021-08-21T10:34:44Z</time>
      </trkpt>
      <trkpt lat="48.35775" lon="2.73454">
        <ele>118.6</ele>
        <time>2021-08-21T10:34:45Z</time>
      </trkpt>
      <trkpt lat="48.35775" lon="2.73454">
        <ele>118.6</ele>
        <time>2021-08-21T10:34:46Z</time>
      </trkpt>
      <trkpt lat="48.35775" lon="2.73455">
        <ele>118.6</ele>
        <time>2021-08-21T10:34:48Z</time>
      </trkpt>
      <trkpt lat="48.35776" lon="2.73455">
        <ele>118.6</ele>
        <time>2021-08-21T10:34:49Z</time>
      </trkpt>
      <trkpt lat="48.35776" lon="2.73455">
        <ele>118.6</ele>
        <time>2021-08-21T10:34:51Z</time>
      </trkpt>
      <trkpt lat="48.35776" lon="2.73455">
        <ele>117.9</ele>
        <time>2021-08-21T10:34:52Z</time>
      </trkpt>
      <trkpt lat="48.35777" lon="2.73456">
        <ele>117.9</ele>
        <time>2021-08-21T10:34:53Z</time>
      </trkpt>
      <trkpt lat="48.35777" lon="2.73456">
        <ele>117.9</ele>
        <time>2021-08-21T10:34:54Z</time>
      </trkpt>
      <trkpt lat="48.35777" lon="2.73456">
        <ele>117.9</ele>
        <time>2021-08-21T10:34:55Z</time>
      </trkpt>
      <trkpt lat="48.35778" lon="2.73456">
        <ele>117.9</ele>
        <time>2021-08-21T10:34:57Z</time>
      </trkpt>
      <trkpt lat="48.35778" lon="2.73456">
        <ele>117.9</ele>
        <time>2021-08-21T10:34:58Z</time>
      </trkpt>
      <trkpt lat="48.35779" lon="2.73456">
        <ele>117.2</ele>
        <time>2021-08-21T10:34:59Z</time>
      </trkpt>
      <trkpt lat="48.3578" lon="2.73456">
        <ele>117.2</ele>
        <time>2021-08-21T10:35:00Z</time>
      </trkpt>
      <trkpt lat="48.35782" lon="2.73457">
        <ele>117.4</ele>
        <time>2021-08-21T10:35:01Z</time>
      </trkpt>
      <trkpt lat="48.35782" lon="2.73457">
        <ele>116.6</ele>
        <time>2021-08-21T10:35:02Z</time>
      </trkpt>
      <trkpt lat="48.35782" lon="2.73459">
        <ele>116.6</ele>
        <time>2021-08-21T10:35:03Z</time>
      </trkpt>
      <trkpt lat="48.35782" lon="2.7346">
        <ele>116.7</ele>
        <time>2021-08-21T10:35:04Z</time>
      </trkpt>
      <trkpt lat="48.35783" lon="2.73461">
        <ele>116.8</ele>
        <time>2021-08-21T10:35:06Z</time>
      </trkpt>
      <trkpt lat="48.35783" lon="2.73462">
        <ele>116.8</ele>
        <time>2021-08-21T10:35:07Z</time>
      </trkpt>
      <trkpt lat="48.35783" lon="2.73463">
        <ele>116.8</ele>
        <time>2021-08-21T10:35:08Z</time>
      </trkpt>
      <trkpt lat="48.35783" lon="2.73464">
        <ele>116.8</ele>
        <time>2021-08-21T10:35:09Z</time>
      </trkpt>
      <trkpt lat="48.35783" lon="2.73465">
        <ele>116.8</ele>
        <time>2021-08-21T10:35:10Z</time>
      </trkpt>
      <trkpt lat="48.35783" lon="2.73467">
        <ele>116.9</ele>
        <time>2021-08-21T10:35:11Z</time>
      </trkpt>
      <trkpt lat="48.35783" lon="2.73468">
        <ele>116.9</ele>
        <time>2021-08-21T10:35:12Z</time>
      </trkpt>
      <trkpt lat="48.35783" lon="2.7347">
        <ele>117</ele>
        <time>2021-08-21T10:35:13Z</time>
      </trkpt>
      <trkpt lat="48.35783" lon="2.73471">
        <ele>117</ele>
        <time>2021-08-21T10:35:15Z</time>
      </trkpt>
      <trkpt lat="48.35783" lon="2.73474">
        <ele>117</ele>
        <time>2021-08-21T10:35:16Z</time>
      </trkpt>
      <trkpt lat="48.35782" lon="2.73475">
        <ele>117</ele>
        <time>2021-08-21T10:35:17Z</time>
      </trkpt>
      <trkpt lat="48.35782" lon="2.73477">
        <ele>117.7</ele>
        <time>2021-08-21T10:35:19Z</time>
      </trkpt>
      <trkpt lat="48.35781" lon="2.7348">
        <ele>117.7</ele>
        <time>2021-08-21T10:35:20Z</time>
      </trkpt>
      <trkpt lat="48.3578" lon="2.73483">
        <ele>117.7</ele>
        <time>2021-08-21T10:35:21Z</time>
      </trkpt>
      <trkpt lat="48.35779" lon="2.73484">
        <ele>117.7</ele>
        <time>2021-08-21T10:35:23Z</time>
      </trkpt>
      <trkpt lat="48.35779" lon="2.73486">
        <ele>117.7</ele>
        <time>2021-08-21T10:35:24Z</time>
      </trkpt>
      <trkpt lat="48.35778" lon="2.73488">
        <ele>118.3</ele>
        <time>2021-08-21T10:35:25Z</time>
      </trkpt>
      <trkpt lat="48.35777" lon="2.73491">
        <ele>118.3</ele>
        <time>2021-08-21T10:35:26Z</time>
      </trkpt>
      <trkpt lat="48.35776" lon="2.73492">
        <ele>118.2</ele>
        <time>2021-08-21T10:35:27Z</time>
      </trkpt>
      <trkpt lat="48.35775" lon="2.73495">
        <ele>119</ele>
        <time>2021-08-21T10:35:28Z</time>
      </trkpt>
      <trkpt lat="48.35775" lon="2.73497">
        <ele>118.9</ele>
        <time>2021-08-21T10:35:30Z</time>
      </trkpt>
      <trkpt lat="48.35775" lon="2.73499">
        <ele>118.9</ele>
        <time>2021-08-21T10:35:31Z</time>
      </trkpt>
      <trkpt lat="48.35774" lon="2.73503">
        <ele>118.8</ele>
        <time>2021-08-21T10:35:32Z</time>
      </trkpt>
      <trkpt lat="48.35774" lon="2.73504">
        <ele>118.7</ele>
        <time>2021-08-21T10:35:33Z</time>
      </trkpt>
      <trkpt lat="48.35774" lon="2.73505">
        <ele>118.7</ele>
        <time>2021-08-21T10:35:34Z</time>
      </trkpt>
      <trkpt lat="48.35774" lon="2.73508">
        <ele>118.7</ele>
        <time>2021-08-21T10:35:36Z</time>
      </trkpt>
      <trkpt lat="48.35773" lon="2.73509">
        <ele>118.7</ele>
        <time>2021-08-21T10:35:37Z</time>
      </trkpt>
      <trkpt lat="48.35773" lon="2.7351">
        <ele>118.7</ele>
        <time>2021-08-21T10:35:38Z</time>
      </trkpt>
      <trkpt lat="48.35774" lon="2.7351">
        <ele>118.7</ele>
        <time>2021-08-21T10:35:39Z</time>
      </trkpt>
      <trkpt lat="48.35774" lon="2.73511">
        <ele>118.7</ele>
        <time>2021-08-21T10:35:41Z</time>
      </trkpt>
      <trkpt lat="48.35774" lon="2.73511">
        <ele>118.7</ele>
        <time>2021-08-21T10:35:42Z</time>
      </trkpt>
      <trkpt lat="48.35774" lon="2.73512">
        <ele>118.8</ele>
        <time>2021-08-21T10:35:44Z</time>
      </trkpt>
      <trkpt lat="48.35774" lon="2.73512">
        <ele>118.8</ele>
        <time>2021-08-21T10:35:45Z</time>
      </trkpt>
      <trkpt lat="48.35774" lon="2.73512">
        <ele>118.8</ele>
        <time>2021-08-21T10:35:47Z</time>
      </trkpt>
      <trkpt lat="48.35774" lon="2.73512">
        <ele>118.8</ele>
        <time>2021-08-21T10:35:48Z</time>
      </trkpt>
      <trkpt lat="48.35774" lon="2.73513">
        <ele>118.8</ele>
        <time>2021-08-21T10:35:49Z</time>
      </trkpt>
      <trkpt lat="48.35775" lon="2.73513">
        <ele>118.8</ele>
        <time>2021-08-21T10:35:50Z</time>
      </trkpt>
      <trkpt lat="48.35776" lon="2.73514">
        <ele>118.8</ele>
        <time>2021-08-21T10:35:52Z</time>
      </trkpt>
      <trkpt lat="48.35776" lon="2.73515">
        <ele>118.1</ele>
        <time>2021-08-21T10:35:53Z</time>
      </trkpt>
      <trkpt lat="48.35777" lon="2.73515">
        <ele>118.1</ele>
        <time>2021-08-21T10:35:54Z</time>
      </trkpt>
      <trkpt lat="48.35778" lon="2.73515">
        <ele>118.1</ele>
        <time>2021-08-21T10:35:55Z</time>
      </trkpt>
      <trkpt lat="48.35778" lon="2.73515">
        <ele>118.1</ele>
        <time>2021-08-21T10:35:56Z</time>
      </trkpt>
      <trkpt lat="48.35779" lon="2.73515">
        <ele>118.1</ele>
        <time>2021-08-21T10:35:57Z</time>
      </trkpt>
      <trkpt lat="48.35779" lon="2.73514">
        <ele>117.4</ele>
        <time>2021-08-21T10:35:58Z</time>
      </trkpt>
      <trkpt lat="48.35779" lon="2.73514">
        <ele>117.4</ele>
        <time>2021-08-21T10:36:00Z</time>
      </trkpt>
      <trkpt lat="48.3578" lon="2.73513">
        <ele>117.4</ele>
        <time>2021-08-21T10:36:01Z</time>
      </trkpt>
      <trkpt lat="48.3578" lon="2.73512">
        <ele>117.4</ele>
        <time>2021-08-21T10:36:02Z</time>
      </trkpt>
      <trkpt lat="48.35781" lon="2.73511">
        <ele>117.4</ele>
        <time>2021-08-21T10:36:03Z</time>
      </trkpt>
      <trkpt lat="48.35781" lon="2.73509">
        <ele>117.4</ele>
        <time>2021-08-21T10:36:04Z</time>
      </trkpt>
      <trkpt lat="48.35782" lon="2.73507">
        <ele>117.4</ele>
        <time>2021-08-21T10:36:06Z</time>
      </trkpt>
      <trkpt lat="48.35782" lon="2.73505">
        <ele>117.4</ele>
        <time>2021-08-21T10:36:08Z</time>
      </trkpt>
      <trkpt lat="48.35782" lon="2.73503">
        <ele>117.5</ele>
        <time>2021-08-21T10:36:09Z</time>
      </trkpt>
      <trkpt lat="48.35782" lon="2.735">
        <ele>116.8</ele>
        <time>2021-08-21T10:36:10Z</time>
      </trkpt>
      <trkpt lat="48.35782" lon="2.73498">
        <ele>117.6</ele>
        <time>2021-08-21T10:36:12Z</time>
      </trkpt>
      <trkpt lat="48.35782" lon="2.73497">
        <ele>117.6</ele>
        <time>2021-08-21T10:36:13Z</time>
      </trkpt>
      <trkpt lat="48.35782" lon="2.73494">
        <ele>117.7</ele>
        <time>2021-08-21T10:36:14Z</time>
      </trkpt>
      <trkpt lat="48.35782" lon="2.73493">
        <ele>117.7</ele>
        <time>2021-08-21T10:36:15Z</time>
      </trkpt>
      <trkpt lat="48.35782" lon="2.73492">
        <ele>117.7</ele>
        <time>2021-08-21T10:36:16Z</time>
      </trkpt>
      <trkpt lat="48.35782" lon="2.73489">
        <ele>117.9</ele>
        <time>2021-08-21T10:36:17Z</time>
      </trkpt>
      <trkpt lat="48.35782" lon="2.73488">
        <ele>117.9</ele>
        <time>2021-08-21T10:36:19Z</time>
      </trkpt>
      <trkpt lat="48.35782" lon="2.73486">
        <ele>118</ele>
        <time>2021-08-21T10:36:20Z</time>
      </trkpt>
      <trkpt lat="48.35782" lon="2.73485">
        <ele>118</ele>
        <time>2021-08-21T10:36:21Z</time>
      </trkpt>
      <trkpt lat="48.35783" lon="2.73484">
        <ele>117.3</ele>
        <time>2021-08-21T10:36:22Z</time>
      </trkpt>
      <trkpt lat="48.35783" lon="2.73482">
        <ele>117.3</ele>
        <time>2021-08-21T10:36:24Z</time>
      </trkpt>
      <trkpt lat="48.35784" lon="2.73481">
        <ele>117.3</ele>
        <time>2021-08-21T10:36:25Z</time>
      </trkpt>
      <trkpt lat="48.35784" lon="2.73478">
        <ele>117.4</ele>
        <time>2021-08-21T10:36:26Z</time>
      </trkpt>
      <trkpt lat="48.35784" lon="2.73477">
        <ele>117.4</ele>
        <time>2021-08-21T10:36:27Z</time>
      </trkpt>
      <trkpt lat="48.35785" lon="2.73475">
        <ele>116.7</ele>
        <time>2021-08-21T10:36:29Z</time>
      </trkpt>
      <trkpt lat="48.35785" lon="2.73473">
        <ele>116.5</ele>
        <time>2021-08-21T10:36:30Z</time>
      </trkpt>
      <trkpt lat="48.35785" lon="2.7347">
        <ele>116.3</ele>
        <time>2021-08-21T10:36:32Z</time>
      </trkpt>
      <trkpt lat="48.35786" lon="2.73469">
        <ele>116.2</ele>
        <time>2021-08-21T10:36:33Z</time>
      </trkpt>
      <trkpt lat="48.35787" lon="2.73468">
        <ele>116</ele>
        <time>2021-08-21T10:36:34Z</time>
      </trkpt>
      <trkpt lat="48.35787" lon="2.73467">
        <ele>115.9</ele>
        <time>2021-08-21T10:36:35Z</time>
      </trkpt>
      <trkpt lat="48.35788" lon="2.73465">
        <ele>115.8</ele>
        <time>2021-08-21T10:36:36Z</time>
      </trkpt>
      <trkpt lat="48.35787" lon="2.73464">
        <ele>115.7</ele>
        <time>2021-08-21T10:36:38Z</time>
      </trkpt>
      <trkpt lat="48.35787" lon="2.73463">
        <ele>115.6</ele>
        <time>2021-08-21T10:36:39Z</time>
      </trkpt>
      <trkpt lat="48.35787" lon="2.73462">
        <ele>115.5</ele>
        <time>2021-08-21T10:36:40Z</time>
      </trkpt>
      <trkpt lat="48.35787" lon="2.73461">
        <ele>115.4</ele>
        <time>2021-08-21T10:36:41Z</time>
      </trkpt>
      <trkpt lat="48.35787" lon="2.73459">
        <ele>115.3</ele>
        <time>2021-08-21T10:36:42Z</time>
      </trkpt>
      <trkpt lat="48.35787" lon="2.73458">
        <ele>115.2</ele>
        <time>2021-08-21T10:36:43Z</time>
      </trkpt>
      <trkpt lat="48.35787" lon="2.73456">
        <ele>115.1</ele>
        <time>2021-08-21T10:36:44Z</time>
      </trkpt>
      <trkpt lat="48.35787" lon="2.73455">
        <ele>115</ele>
        <time>2021-08-21T10:36:45Z</time>
      </trkpt>
      <trkpt lat="48.35787" lon="2.73453">
        <ele>114.9</ele>
        <time>2021-08-21T10:36:47Z</time>
      </trkpt>
      <trkpt lat="48.35787" lon="2.73452">
        <ele>114.8</ele>
        <time>2021-08-21T10:36:48Z</time>
      </trkpt>
      <trkpt lat="48.35787" lon="2.7345">
        <ele>114.7</ele>
        <time>2021-08-21T10:36:49Z</time>
      </trkpt>
      <trkpt lat="48.35787" lon="2.73449">
        <ele>114.6</ele>
        <time>2021-08-21T10:36:50Z</time>
      </trkpt>
      <trkpt lat="48.35787" lon="2.73447">
        <ele>114.5</ele>
        <time>2021-08-21T10:36:52Z</time>
      </trkpt>
      <trkpt lat="48.35787" lon="2.73446">
        <ele>114.4</ele>
        <time>2021-08-21T10:36:53Z</time>
      </trkpt>
      <trkpt lat="48.35787" lon="2.73444">
        <ele>114.4</ele>
        <time>2021-08-21T10:36:55Z</time>
      </trkpt>
      <trkpt lat="48.35788" lon="2.73443">
        <ele>114.3</ele>
        <time>2021-08-21T10:36:56Z</time>
      </trkpt>
      <trkpt lat="48.35788" lon="2.73442">
        <ele>114.2</ele>
        <time>2021-08-21T10:36:57Z</time>
      </trkpt>
      <trkpt lat="48.35788" lon="2.73441">
        <ele>114.2</ele>
        <time>2021-08-21T10:36:58Z</time>
      </trkpt>
      <trkpt lat="48.35789" lon="2.73441">
        <ele>114.1</ele>
        <time>2021-08-21T10:36:59Z</time>
      </trkpt>
      <trkpt lat="48.35789" lon="2.73439">
        <ele>114</ele>
        <time>2021-08-21T10:37:00Z</time>
      </trkpt>
      <trkpt lat="48.35789" lon="2.73437">
        <ele>113.9</ele>
        <time>2021-08-21T10:37:02Z</time>
      </trkpt>
      <trkpt lat="48.35789" lon="2.73435">
        <ele>113.8</ele>
        <time>2021-08-21T10:37:03Z</time>
      </trkpt>
      <trkpt lat="48.3579" lon="2.73434">
        <ele>113.8</ele>
        <time>2021-08-21T10:37:04Z</time>
      </trkpt>
      <trkpt lat="48.35791" lon="2.73433">
        <ele>113.7</ele>
        <time>2021-08-21T10:37:06Z</time>
      </trkpt>
      <trkpt lat="48.35792" lon="2.73432">
        <ele>113.6</ele>
        <time>2021-08-21T10:37:07Z</time>
      </trkpt>
      <trkpt lat="48.35793" lon="2.73431">
        <ele>113.5</ele>
        <time>2021-08-21T10:37:08Z</time>
      </trkpt>
      <trkpt lat="48.35793" lon="2.73429">
        <ele>113.4</ele>
        <time>2021-08-21T10:37:10Z</time>
      </trkpt>
      <trkpt lat="48.35794" lon="2.73427">
        <ele>113.3</ele>
        <time>2021-08-21T10:37:11Z</time>
      </trkpt>
      <trkpt lat="48.35794" lon="2.73424">
        <ele>113.2</ele>
        <time>2021-08-21T10:37:12Z</time>
      </trkpt>
      <trkpt lat="48.35794" lon="2.73423">
        <ele>113.1</ele>
        <time>2021-08-21T10:37:14Z</time>
      </trkpt>
      <trkpt lat="48.35794" lon="2.73421">
        <ele>113</ele>
        <time>2021-08-21T10:37:15Z</time>
      </trkpt>
      <trkpt lat="48.35794" lon="2.7342">
        <ele>113</ele>
        <time>2021-08-21T10:37:16Z</time>
      </trkpt>
      <trkpt lat="48.35795" lon="2.73418">
        <ele>112.9</ele>
        <time>2021-08-21T10:37:17Z</time>
      </trkpt>
      <trkpt lat="48.35796" lon="2.73417">
        <ele>112.8</ele>
        <time>2021-08-21T10:37:18Z</time>
      </trkpt>
      <trkpt lat="48.35797" lon="2.73417">
        <ele>112.7</ele>
        <time>2021-08-21T10:37:19Z</time>
      </trkpt>
      <trkpt lat="48.35797" lon="2.73416">
        <ele>112.6</ele>
        <time>2021-08-21T10:37:21Z</time>
      </trkpt>
      <trkpt lat="48.35798" lon="2.73414">
        <ele>112.5</ele>
        <time>2021-08-21T10:37:22Z</time>
      </trkpt>
      <trkpt lat="48.35799" lon="2.73414">
        <ele>112.5</ele>
        <time>2021-08-21T10:37:24Z</time>
      </trkpt>
      <trkpt lat="48.35799" lon="2.73413">
        <ele>112.4</ele>
        <time>2021-08-21T10:37:25Z</time>
      </trkpt>
      <trkpt lat="48.35799" lon="2.73413">
        <ele>112.4</ele>
        <time>2021-08-21T10:37:26Z</time>
      </trkpt>
      <trkpt lat="48.35799" lon="2.73412">
        <ele>112.3</ele>
        <time>2021-08-21T10:37:27Z</time>
      </trkpt>
      <trkpt lat="48.35799" lon="2.73412">
        <ele>112.3</ele>
        <time>2021-08-21T10:37:28Z</time>
      </trkpt>
      <trkpt lat="48.35799" lon="2.73411">
        <ele>112.2</ele>
        <time>2021-08-21T10:37:29Z</time>
      </trkpt>
      <trkpt lat="48.35799" lon="2.73411">
        <ele>112.2</ele>
        <time>2021-08-21T10:37:30Z</time>
      </trkpt>
      <trkpt lat="48.35799" lon="2.73411">
        <ele>112.2</ele>
        <time>2021-08-21T10:37:32Z</time>
      </trkpt>
      <trkpt lat="48.35799" lon="2.73411">
        <ele>112.2</ele>
        <time>2021-08-21T10:37:33Z</time>
      </trkpt>
      <trkpt lat="48.35799" lon="2.73411">
        <ele>112.2</ele>
        <time>2021-08-21T10:37:35Z</time>
      </trkpt>
      <trkpt lat="48.35799" lon="2.73411">
        <ele>112.2</ele>
        <time>2021-08-21T10:37:36Z</time>
      </trkpt>
      <trkpt lat="48.358" lon="2.73412">
        <ele>112.1</ele>
        <time>2021-08-21T10:37:37Z</time>
      </trkpt>
      <trkpt lat="48.35801" lon="2.73411">
        <ele>112</ele>
        <time>2021-08-21T10:37:39Z</time>
      </trkpt>
      <trkpt lat="48.35801" lon="2.73411">
        <ele>112</ele>
        <time>2021-08-21T10:37:40Z</time>
      </trkpt>
      <trkpt lat="48.35801" lon="2.73412">
        <ele>111.9</ele>
        <time>2021-08-21T10:37:41Z</time>
      </trkpt>
      <trkpt lat="48.35801" lon="2.73413">
        <ele>111.9</ele>
        <time>2021-08-21T10:37:43Z</time>
      </trkpt>
      <trkpt lat="48.35801" lon="2.73414">
        <ele>111.8</ele>
        <time>2021-08-21T10:37:44Z</time>
      </trkpt>
      <trkpt lat="48.35802" lon="2.73414">
        <ele>111.7</ele>
        <time>2021-08-21T10:37:45Z</time>
      </trkpt>
      <trkpt lat="48.35803" lon="2.73415">
        <ele>111.6</ele>
        <time>2021-08-21T10:37:46Z</time>
      </trkpt>
      <trkpt lat="48.35803" lon="2.73416">
        <ele>111.4</ele>
        <time>2021-08-21T10:37:47Z</time>
      </trkpt>
      <trkpt lat="48.35804" lon="2.73417">
        <ele>111.3</ele>
        <time>2021-08-21T10:37:48Z</time>
      </trkpt>
      <trkpt lat="48.35805" lon="2.7342">
        <ele>111</ele>
        <time>2021-08-21T10:37:50Z</time>
      </trkpt>
      <trkpt lat="48.35805" lon="2.73421">
        <ele>110.9</ele>
        <time>2021-08-21T10:37:51Z</time>
      </trkpt>
      <trkpt lat="48.35806" lon="2.73422">
        <ele>110.7</ele>
        <time>2021-08-21T10:37:52Z</time>
      </trkpt>
      <trkpt lat="48.35807" lon="2.73423">
        <ele>110.5</ele>
        <time>2021-08-21T10:37:53Z</time>
      </trkpt>
      <trkpt lat="48.35808" lon="2.73424">
        <ele>110.3</ele>
        <time>2021-08-21T10:37:54Z</time>
      </trkpt>
      <trkpt lat="48.35809" lon="2.73424">
        <ele>110.2</ele>
        <time>2021-08-21T10:37:55Z</time>
      </trkpt>
      <trkpt lat="48.3581" lon="2.73423">
        <ele>109.9</ele>
        <time>2021-08-21T10:37:57Z</time>
      </trkpt>
      <trkpt lat="48.3581" lon="2.73424">
        <ele>109.9</ele>
        <time>2021-08-21T10:37:58Z</time>
      </trkpt>
      <trkpt lat="48.35811" lon="2.73424">
        <ele>109.8</ele>
        <time>2021-08-21T10:37:59Z</time>
      </trkpt>
      <trkpt lat="48.35811" lon="2.73424">
        <ele>109.8</ele>
        <time>2021-08-21T10:38:00Z</time>
      </trkpt>
      <trkpt lat="48.35811" lon="2.73425">
        <ele>109.6</ele>
        <time>2021-08-21T10:38:01Z</time>
      </trkpt>
      <trkpt lat="48.35812" lon="2.73425">
        <ele>109.5</ele>
        <time>2021-08-21T10:38:02Z</time>
      </trkpt>
      <trkpt lat="48.35813" lon="2.73425">
        <ele>109.3</ele>
        <time>2021-08-21T10:38:03Z</time>
      </trkpt>
      <trkpt lat="48.35813" lon="2.73424">
        <ele>109.3</ele>
        <time>2021-08-21T10:38:05Z</time>
      </trkpt>
      <trkpt lat="48.35813" lon="2.73424">
        <ele>109.2</ele>
        <time>2021-08-21T10:38:06Z</time>
      </trkpt>
      <trkpt lat="48.35813" lon="2.73423">
        <ele>109.1</ele>
        <time>2021-08-21T10:38:07Z</time>
      </trkpt>
      <trkpt lat="48.35813" lon="2.73422">
        <ele>109</ele>
        <time>2021-08-21T10:38:09Z</time>
      </trkpt>
      <trkpt lat="48.35813" lon="2.73422">
        <ele>108.9</ele>
        <time>2021-08-21T10:38:10Z</time>
      </trkpt>
      <trkpt lat="48.35814" lon="2.73421">
        <ele>108.8</ele>
        <time>2021-08-21T10:38:12Z</time>
      </trkpt>
      <trkpt lat="48.35814" lon="2.73421">
        <ele>108.7</ele>
        <time>2021-08-21T10:38:13Z</time>
      </trkpt>
      <trkpt lat="48.35814" lon="2.7342">
        <ele>108.7</ele>
        <time>2021-08-21T10:38:15Z</time>
      </trkpt>
      <trkpt lat="48.35814" lon="2.7342">
        <ele>108.6</ele>
        <time>2021-08-21T10:38:16Z</time>
      </trkpt>
      <trkpt lat="48.35814" lon="2.73419">
        <ele>108.4</ele>
        <time>2021-08-21T10:38:17Z</time>
      </trkpt>
      <trkpt lat="48.35815" lon="2.73418">
        <ele>108.3</ele>
        <time>2021-08-21T10:38:18Z</time>
      </trkpt>
      <trkpt lat="48.35815" lon="2.73418">
        <ele>108.2</ele>
        <time>2021-08-21T10:38:20Z</time>
      </trkpt>
      <trkpt lat="48.35816" lon="2.73417">
        <ele>107.9</ele>
        <time>2021-08-21T10:38:21Z</time>
      </trkpt>
      <trkpt lat="48.35816" lon="2.73416">
        <ele>107.7</ele>
        <time>2021-08-21T10:38:22Z</time>
      </trkpt>
      <trkpt lat="48.35816" lon="2.73414">
        <ele>107.6</ele>
        <time>2021-08-21T10:38:24Z</time>
      </trkpt>
      <trkpt lat="48.35816" lon="2.73413">
        <ele>107.3</ele>
        <time>2021-08-21T10:38:25Z</time>
      </trkpt>
      <trkpt lat="48.35816" lon="2.73412">
        <ele>107.1</ele>
        <time>2021-08-21T10:38:26Z</time>
      </trkpt>
      <trkpt lat="48.35816" lon="2.7341">
        <ele>106.8</ele>
        <time>2021-08-21T10:38:27Z</time>
      </trkpt>
      <trkpt lat="48.35816" lon="2.73409">
        <ele>106.7</ele>
        <time>2021-08-21T10:38:28Z</time>
      </trkpt>
      <trkpt lat="48.35816" lon="2.73408">
        <ele>106.5</ele>
        <time>2021-08-21T10:38:29Z</time>
      </trkpt>
      <trkpt lat="48.35816" lon="2.73407">
        <ele>106.3</ele>
        <time>2021-08-21T10:38:30Z</time>
      </trkpt>
      <trkpt lat="48.35816" lon="2.73405">
        <ele>106.1</ele>
        <time>2021-08-21T10:38:31Z</time>
      </trkpt>
      <trkpt lat="48.35816" lon="2.73403">
        <ele>105.8</ele>
        <time>2021-08-21T10:38:32Z</time>
      </trkpt>
      <trkpt lat="48.35816" lon="2.73402">
        <ele>105.6</ele>
        <time>2021-08-21T10:38:33Z</time>
      </trkpt>
      <trkpt lat="48.35816" lon="2.734">
        <ele>105.3</ele>
        <time>2021-08-21T10:38:34Z</time>
      </trkpt>
      <trkpt lat="48.35816" lon="2.73398">
        <ele>105</ele>
        <time>2021-08-21T10:38:35Z</time>
      </trkpt>
      <trkpt lat="48.35815" lon="2.73395">
        <ele>104.4</ele>
        <time>2021-08-21T10:38:37Z</time>
      </trkpt>
      <trkpt lat="48.35814" lon="2.73394">
        <ele>104.2</ele>
        <time>2021-08-21T10:38:38Z</time>
      </trkpt>
      <trkpt lat="48.35814" lon="2.73392">
        <ele>103.8</ele>
        <time>2021-08-21T10:38:39Z</time>
      </trkpt>
      <trkpt lat="48.35813" lon="2.7339">
        <ele>103.5</ele>
        <time>2021-08-21T10:38:41Z</time>
      </trkpt>
      <trkpt lat="48.35812" lon="2.73386">
        <ele>102.9</ele>
        <time>2021-08-21T10:38:42Z</time>
      </trkpt>
      <trkpt lat="48.35812" lon="2.73385">
        <ele>102.7</ele>
        <time>2021-08-21T10:38:43Z</time>
      </trkpt>
      <trkpt lat="48.35812" lon="2.73383">
        <ele>102.5</ele>
        <time>2021-08-21T10:38:45Z</time>
      </trkpt>
      <trkpt lat="48.35812" lon="2.73379">
        <ele>101.9</ele>
        <time>2021-08-21T10:38:47Z</time>
      </trkpt>
      <trkpt lat="48.35812" lon="2.73377">
        <ele>101.7</ele>
        <time>2021-08-21T10:38:48Z</time>
      </trkpt>
      <trkpt lat="48.35812" lon="2.73376">
        <ele>101.5</ele>
        <time>2021-08-21T10:38:49Z</time>
      </trkpt>
      <trkpt lat="48.35812" lon="2.73374">
        <ele>101.3</ele>
        <time>2021-08-21T10:38:50Z</time>
      </trkpt>
      <trkpt lat="48.35812" lon="2.73372">
        <ele>101</ele>
        <time>2021-08-21T10:38:52Z</time>
      </trkpt>
      <trkpt lat="48.35811" lon="2.7337">
        <ele>100.8</ele>
        <time>2021-08-21T10:38:53Z</time>
      </trkpt>
      <trkpt lat="48.3581" lon="2.73368">
        <ele>100.5</ele>
        <time>2021-08-21T10:38:55Z</time>
      </trkpt>
      <trkpt lat="48.3581" lon="2.73366">
        <ele>100.4</ele>
        <time>2021-08-21T10:38:56Z</time>
      </trkpt>
      <trkpt lat="48.35809" lon="2.73365">
        <ele>100.2</ele>
        <time>2021-08-21T10:38:57Z</time>
      </trkpt>
      <trkpt lat="48.35809" lon="2.73365">
        <ele>100.1</ele>
        <time>2021-08-21T10:38:58Z</time>
      </trkpt>
      <trkpt lat="48.35808" lon="2.73364">
        <ele>100</ele>
        <time>2021-08-21T10:39:00Z</time>
      </trkpt>
      <trkpt lat="48.35807" lon="2.73364">
        <ele>99.9</ele>
        <time>2021-08-21T10:39:01Z</time>
      </trkpt>
      <trkpt lat="48.35806" lon="2.73363">
        <ele>99.8</ele>
        <time>2021-08-21T10:39:02Z</time>
      </trkpt>
      <trkpt lat="48.35805" lon="2.73363">
        <ele>99.6</ele>
        <time>2021-08-21T10:39:04Z</time>
      </trkpt>
      <trkpt lat="48.35804" lon="2.73363">
        <ele>99.5</ele>
        <time>2021-08-21T10:39:05Z</time>
      </trkpt>
      <trkpt lat="48.35803" lon="2.73362">
        <ele>99.4</ele>
        <time>2021-08-21T10:39:06Z</time>
      </trkpt>
      <trkpt lat="48.35802" lon="2.73362">
        <ele>99.3</ele>
        <time>2021-08-21T10:39:08Z</time>
      </trkpt>
      <trkpt lat="48.35801" lon="2.73361">
        <ele>99.2</ele>
        <time>2021-08-21T10:39:09Z</time>
      </trkpt>
      <trkpt lat="48.35801" lon="2.7336">
        <ele>99.2</ele>
        <time>2021-08-21T10:39:11Z</time>
      </trkpt>
      <trkpt lat="48.358" lon="2.73359">
        <ele>99.1</ele>
        <time>2021-08-21T10:39:12Z</time>
      </trkpt>
      <trkpt lat="48.358" lon="2.73358">
        <ele>99</ele>
        <time>2021-08-21T10:39:13Z</time>
      </trkpt>
      <trkpt lat="48.35799" lon="2.73357">
        <ele>99</ele>
        <time>2021-08-21T10:39:14Z</time>
      </trkpt>
      <trkpt lat="48.35799" lon="2.73356">
        <ele>98.9</ele>
        <time>2021-08-21T10:39:15Z</time>
      </trkpt>
      <trkpt lat="48.35799" lon="2.73355">
        <ele>98.9</ele>
        <time>2021-08-21T10:39:16Z</time>
      </trkpt>
      <trkpt lat="48.35798" lon="2.73353">
        <ele>98.8</ele>
        <time>2021-08-21T10:39:18Z</time>
      </trkpt>
      <trkpt lat="48.35798" lon="2.73351">
        <ele>98.7</ele>
        <time>2021-08-21T10:39:19Z</time>
      </trkpt>
      <trkpt lat="48.35799" lon="2.73351">
        <ele>98.7</ele>
        <time>2021-08-21T10:39:21Z</time>
      </trkpt>
      <trkpt lat="48.358" lon="2.73348">
        <ele>98.7</ele>
        <time>2021-08-21T10:39:23Z</time>
      </trkpt>
      <trkpt lat="48.358" lon="2.73347">
        <ele>98.6</ele>
        <time>2021-08-21T10:39:24Z</time>
      </trkpt>
      <trkpt lat="48.358" lon="2.73346">
        <ele>98.6</ele>
        <time>2021-08-21T10:39:25Z</time>
      </trkpt>
      <trkpt lat="48.358" lon="2.73344">
        <ele>98.6</ele>
        <time>2021-08-21T10:39:27Z</time>
      </trkpt>
      <trkpt lat="48.35799" lon="2.73341">
        <ele>98.6</ele>
        <time>2021-08-21T10:39:28Z</time>
      </trkpt>
      <trkpt lat="48.35799" lon="2.73339">
        <ele>98.6</ele>
        <time>2021-08-21T10:39:30Z</time>
      </trkpt>
      <trkpt lat="48.35799" lon="2.73337">
        <ele>98.6</ele>
        <time>2021-08-21T10:39:31Z</time>
      </trkpt>
      <trkpt lat="48.35798" lon="2.73334">
        <ele>98.6</ele>
        <time>2021-08-21T10:39:33Z</time>
      </trkpt>
      <trkpt lat="48.35798" lon="2.73333">
        <ele>98.7</ele>
        <time>2021-08-21T10:39:34Z</time>
      </trkpt>
      <trkpt lat="48.35798" lon="2.73331">
        <ele>98.7</ele>
        <time>2021-08-21T10:39:35Z</time>
      </trkpt>
      <trkpt lat="48.35798" lon="2.7333">
        <ele>98.7</ele>
        <time>2021-08-21T10:39:36Z</time>
      </trkpt>
      <trkpt lat="48.35798" lon="2.73327">
        <ele>98.8</ele>
        <time>2021-08-21T10:39:37Z</time>
      </trkpt>
      <trkpt lat="48.35798" lon="2.73326">
        <ele>98.8</ele>
        <time>2021-08-21T10:39:38Z</time>
      </trkpt>
      <trkpt lat="48.35798" lon="2.73325">
        <ele>98.9</ele>
        <time>2021-08-21T10:39:40Z</time>
      </trkpt>
      <trkpt lat="48.35799" lon="2.73323">
        <ele>98.9</ele>
        <time>2021-08-21T10:39:41Z</time>
      </trkpt>
      <trkpt lat="48.35799" lon="2.73322">
        <ele>99</ele>
        <time>2021-08-21T10:39:42Z</time>
      </trkpt>
      <trkpt lat="48.35799" lon="2.73321">
        <ele>99</ele>
        <time>2021-08-21T10:39:44Z</time>
      </trkpt>
      <trkpt lat="48.35799" lon="2.73321">
        <ele>99.1</ele>
        <time>2021-08-21T10:39:45Z</time>
      </trkpt>
      <trkpt lat="48.358" lon="2.73321">
        <ele>99.1</ele>
        <time>2021-08-21T10:39:46Z</time>
      </trkpt>
      <trkpt lat="48.358" lon="2.73321">
        <ele>99.1</ele>
        <time>2021-08-21T10:39:47Z</time>
      </trkpt>
      <trkpt lat="48.35801" lon="2.7332">
        <ele>99.2</ele>
        <time>2021-08-21T10:39:48Z</time>
      </trkpt>
      <trkpt lat="48.35801" lon="2.7332">
        <ele>99.2</ele>
        <time>2021-08-21T10:39:49Z</time>
      </trkpt>
      <trkpt lat="48.35801" lon="2.73319">
        <ele>99.2</ele>
        <time>2021-08-21T10:39:50Z</time>
      </trkpt>
      <trkpt lat="48.35802" lon="2.73318">
        <ele>99.3</ele>
        <time>2021-08-21T10:39:51Z</time>
      </trkpt>
      <trkpt lat="48.35803" lon="2.73317">
        <ele>99.4</ele>
        <time>2021-08-21T10:39:53Z</time>
      </trkpt>
      <trkpt lat="48.35804" lon="2.73317">
        <ele>99.5</ele>
        <time>2021-08-21T10:39:54Z</time>
      </trkpt>
      <trkpt lat="48.35805" lon="2.73315">
        <ele>99.6</ele>
        <time>2021-08-21T10:39:56Z</time>
      </trkpt>
      <trkpt lat="48.35805" lon="2.73314">
        <ele>99.7</ele>
        <time>2021-08-21T10:39:57Z</time>
      </trkpt>
      <trkpt lat="48.35806" lon="2.73312">
        <ele>99.8</ele>
        <time>2021-08-21T10:39:58Z</time>
      </trkpt>
      <trkpt lat="48.35806" lon="2.73311">
        <ele>99.8</ele>
        <time>2021-08-21T10:40:00Z</time>
      </trkpt>
      <trkpt lat="48.35806" lon="2.73311">
        <ele>99.9</ele>
        <time>2021-08-21T10:40:01Z</time>
      </trkpt>
      <trkpt lat="48.35806" lon="2.7331">
        <ele>99.9</ele>
        <time>2021-08-21T10:40:02Z</time>
      </trkpt>
      <trkpt lat="48.35807" lon="2.73309">
        <ele>100</ele>
        <time>2021-08-21T10:40:03Z</time>
      </trkpt>
      <trkpt lat="48.35807" lon="2.73308">
        <ele>100</ele>
        <time>2021-08-21T10:40:04Z</time>
      </trkpt>
      <trkpt lat="48.35806" lon="2.73307">
        <ele>100.1</ele>
        <time>2021-08-21T10:40:05Z</time>
      </trkpt>
      <trkpt lat="48.35805" lon="2.73306">
        <ele>100.2</ele>
        <time>2021-08-21T10:40:06Z</time>
      </trkpt>
      <trkpt lat="48.35805" lon="2.73305">
        <ele>100.3</ele>
        <time>2021-08-21T10:40:08Z</time>
      </trkpt>
      <trkpt lat="48.35805" lon="2.73304">
        <ele>100.3</ele>
        <time>2021-08-21T10:40:10Z</time>
      </trkpt>
      <trkpt lat="48.35804" lon="2.73303">
        <ele>100.4</ele>
        <time>2021-08-21T10:40:11Z</time>
      </trkpt>
      <trkpt lat="48.35804" lon="2.73302">
        <ele>100.4</ele>
        <time>2021-08-21T10:40:12Z</time>
      </trkpt>
      <trkpt lat="48.35804" lon="2.73301">
        <ele>100.5</ele>
        <time>2021-08-21T10:40:13Z</time>
      </trkpt>
      <trkpt lat="48.35803" lon="2.733">
        <ele>100.5</ele>
        <time>2021-08-21T10:40:14Z</time>
      </trkpt>
      <trkpt lat="48.35803" lon="2.733">
        <ele>100.6</ele>
        <time>2021-08-21T10:40:15Z</time>
      </trkpt>
      <trkpt lat="48.35803" lon="2.73299">
        <ele>100.6</ele>
        <time>2021-08-21T10:40:16Z</time>
      </trkpt>
      <trkpt lat="48.35801" lon="2.73296">
        <ele>100.8</ele>
        <time>2021-08-21T10:40:18Z</time>
      </trkpt>
      <trkpt lat="48.35801" lon="2.73296">
        <ele>100.9</ele>
        <time>2021-08-21T10:40:19Z</time>
      </trkpt>
      <trkpt lat="48.35803" lon="2.73295">
        <ele>101</ele>
        <time>2021-08-21T10:40:21Z</time>
      </trkpt>
      <trkpt lat="48.35803" lon="2.73293">
        <ele>101.1</ele>
        <time>2021-08-21T10:40:22Z</time>
      </trkpt>
      <trkpt lat="48.35804" lon="2.7329">
        <ele>101.3</ele>
        <time>2021-08-21T10:40:23Z</time>
      </trkpt>
      <trkpt lat="48.35802" lon="2.73287">
        <ele>101.6</ele>
        <time>2021-08-21T10:40:26Z</time>
      </trkpt>
      <trkpt lat="48.358" lon="2.73286">
        <ele>101.8</ele>
        <time>2021-08-21T10:40:27Z</time>
      </trkpt>
      <trkpt lat="48.358" lon="2.73285">
        <ele>101.9</ele>
        <time>2021-08-21T10:40:29Z</time>
      </trkpt>
      <trkpt lat="48.358" lon="2.73285">
        <ele>101.9</ele>
        <time>2021-08-21T10:40:30Z</time>
      </trkpt>
      <trkpt lat="48.35801" lon="2.73285">
        <ele>101.9</ele>
        <time>2021-08-21T10:40:31Z</time>
      </trkpt>
      <trkpt lat="48.35801" lon="2.73285">
        <ele>102</ele>
        <time>2021-08-21T10:40:32Z</time>
      </trkpt>
      <trkpt lat="48.35801" lon="2.73284">
        <ele>102</ele>
        <time>2021-08-21T10:40:33Z</time>
      </trkpt>
      <trkpt lat="48.35801" lon="2.73284">
        <ele>102.1</ele>
        <time>2021-08-21T10:40:34Z</time>
      </trkpt>
      <trkpt lat="48.35801" lon="2.73283">
        <ele>102.1</ele>
        <time>2021-08-21T10:40:35Z</time>
      </trkpt>
      <trkpt lat="48.35802" lon="2.73282">
        <ele>102.2</ele>
        <time>2021-08-21T10:40:36Z</time>
      </trkpt>
      <trkpt lat="48.35802" lon="2.73279">
        <ele>102.4</ele>
        <time>2021-08-21T10:40:38Z</time>
      </trkpt>
      <trkpt lat="48.35802" lon="2.73279">
        <ele>102.5</ele>
        <time>2021-08-21T10:40:39Z</time>
      </trkpt>
      <trkpt lat="48.35803" lon="2.73277">
        <ele>102.6</ele>
        <time>2021-08-21T10:40:41Z</time>
      </trkpt>
      <trkpt lat="48.35803" lon="2.73275">
        <ele>102.8</ele>
        <time>2021-08-21T10:40:43Z</time>
      </trkpt>
      <trkpt lat="48.35804" lon="2.73274">
        <ele>102.9</ele>
        <time>2021-08-21T10:40:44Z</time>
      </trkpt>
      <trkpt lat="48.35804" lon="2.73272">
        <ele>103.1</ele>
        <time>2021-08-21T10:40:46Z</time>
      </trkpt>
      <trkpt lat="48.35804" lon="2.7327">
        <ele>103.3</ele>
        <time>2021-08-21T10:40:47Z</time>
      </trkpt>
      <trkpt lat="48.35805" lon="2.7327">
        <ele>103.4</ele>
        <time>2021-08-21T10:40:49Z</time>
      </trkpt>
      <trkpt lat="48.35806" lon="2.73269">
        <ele>103.5</ele>
        <time>2021-08-21T10:40:51Z</time>
      </trkpt>
      <trkpt lat="48.35807" lon="2.73269">
        <ele>103.6</ele>
        <time>2021-08-21T10:40:52Z</time>
      </trkpt>
      <trkpt lat="48.35807" lon="2.7327">
        <ele>103.7</ele>
        <time>2021-08-21T10:40:53Z</time>
      </trkpt>
      <trkpt lat="48.35807" lon="2.7327">
        <ele>103.7</ele>
        <time>2021-08-21T10:40:54Z</time>
      </trkpt>
      <trkpt lat="48.35807" lon="2.73271">
        <ele>103.8</ele>
        <time>2021-08-21T10:40:56Z</time>
      </trkpt>
      <trkpt lat="48.35806" lon="2.73271">
        <ele>103.9</ele>
        <time>2021-08-21T10:40:58Z</time>
      </trkpt>
      <trkpt lat="48.35806" lon="2.73272">
        <ele>103.9</ele>
        <time>2021-08-21T10:40:59Z</time>
      </trkpt>
      <trkpt lat="48.35806" lon="2.73272">
        <ele>103.9</ele>
        <time>2021-08-21T10:41:00Z</time>
      </trkpt>
      <trkpt lat="48.35806" lon="2.73272">
        <ele>104</ele>
        <time>2021-08-21T10:41:01Z</time>
      </trkpt>
      <trkpt lat="48.35806" lon="2.73273">
        <ele>104</ele>
        <time>2021-08-21T10:41:02Z</time>
      </trkpt>
      <trkpt lat="48.35806" lon="2.73273">
        <ele>104.1</ele>
        <time>2021-08-21T10:41:03Z</time>
      </trkpt>
      <trkpt lat="48.35806" lon="2.73273">
        <ele>104.1</ele>
        <time>2021-08-21T10:41:04Z</time>
      </trkpt>
      <trkpt lat="48.35806" lon="2.73273">
        <ele>104.1</ele>
        <time>2021-08-21T10:41:05Z</time>
      </trkpt>
      <trkpt lat="48.35805" lon="2.73273">
        <ele>104.1</ele>
        <time>2021-08-21T10:41:06Z</time>
      </trkpt>
      <trkpt lat="48.35805" lon="2.73274">
        <ele>104.1</ele>
        <time>2021-08-21T10:41:07Z</time>
      </trkpt>
      <trkpt lat="48.35805" lon="2.73274">
        <ele>104.2</ele>
        <time>2021-08-21T10:41:08Z</time>
      </trkpt>
      <trkpt lat="48.35805" lon="2.73274">
        <ele>104.2</ele>
        <time>2021-08-21T10:41:10Z</time>
      </trkpt>
      <trkpt lat="48.35805" lon="2.73274">
        <ele>104.3</ele>
        <time>2021-08-21T10:41:11Z</time>
      </trkpt>
      <trkpt lat="48.35805" lon="2.73273">
        <ele>104.3</ele>
        <time>2021-08-21T10:41:12Z</time>
      </trkpt>
      <trkpt lat="48.35805" lon="2.73272">
        <ele>104.4</ele>
        <time>2021-08-21T10:41:13Z</time>
      </trkpt>
      <trkpt lat="48.35806" lon="2.73271">
        <ele>104.6</ele>
        <time>2021-08-21T10:41:14Z</time>
      </trkpt>
      <trkpt lat="48.35807" lon="2.73271">
        <ele>104.7</ele>
        <time>2021-08-21T10:41:16Z</time>
      </trkpt>
      <trkpt lat="48.35807" lon="2.73271">
        <ele>104.8</ele>
        <time>2021-08-21T10:41:17Z</time>
      </trkpt>
      <trkpt lat="48.35808" lon="2.73272">
        <ele>104.9</ele>
        <time>2021-08-21T10:41:19Z</time>
      </trkpt>
      <trkpt lat="48.35808" lon="2.73272">
        <ele>105</ele>
        <time>2021-08-21T10:41:20Z</time>
      </trkpt>
      <trkpt lat="48.35808" lon="2.73272">
        <ele>105</ele>
        <time>2021-08-21T10:41:21Z</time>
      </trkpt>
      <trkpt lat="48.35808" lon="2.73271">
        <ele>105</ele>
        <time>2021-08-21T10:41:22Z</time>
      </trkpt>
      <trkpt lat="48.35809" lon="2.73271">
        <ele>105.1</ele>
        <time>2021-08-21T10:41:23Z</time>
      </trkpt>
      <trkpt lat="48.35809" lon="2.73271">
        <ele>105.1</ele>
        <time>2021-08-21T10:41:25Z</time>
      </trkpt>
      <trkpt lat="48.35809" lon="2.73271">
        <ele>105.2</ele>
        <time>2021-08-21T10:41:26Z</time>
      </trkpt>
      <trkpt lat="48.35809" lon="2.73271">
        <ele>105.2</ele>
        <time>2021-08-21T10:41:27Z</time>
      </trkpt>
      <trkpt lat="48.35809" lon="2.73271">
        <ele>105.2</ele>
        <time>2021-08-21T10:41:28Z</time>
      </trkpt>
      <trkpt lat="48.35809" lon="2.73271">
        <ele>105.2</ele>
        <time>2021-08-21T10:41:29Z</time>
      </trkpt>
      <trkpt lat="48.35809" lon="2.73271">
        <ele>105.2</ele>
        <time>2021-08-21T10:41:30Z</time>
      </trkpt>
      <trkpt lat="48.35809" lon="2.73271">
        <ele>105.3</ele>
        <time>2021-08-21T10:41:31Z</time>
      </trkpt>
      <trkpt lat="48.35809" lon="2.7327">
        <ele>105.3</ele>
        <time>2021-08-21T10:41:32Z</time>
      </trkpt>
      <trkpt lat="48.35809" lon="2.7327">
        <ele>105.3</ele>
        <time>2021-08-21T10:41:33Z</time>
      </trkpt>
      <trkpt lat="48.35809" lon="2.7327">
        <ele>105.4</ele>
        <time>2021-08-21T10:41:35Z</time>
      </trkpt>
      <trkpt lat="48.35809" lon="2.73269">
        <ele>105.5</ele>
        <time>2021-08-21T10:41:37Z</time>
      </trkpt>
      <trkpt lat="48.35809" lon="2.73269">
        <ele>105.5</ele>
        <time>2021-08-21T10:41:39Z</time>
      </trkpt>
      <trkpt lat="48.35808" lon="2.73268">
        <ele>105.6</ele>
        <time>2021-08-21T10:41:40Z</time>
      </trkpt>
      <trkpt lat="48.35808" lon="2.73267">
        <ele>105.8</ele>
        <time>2021-08-21T10:41:41Z</time>
      </trkpt>
      <trkpt lat="48.35808" lon="2.73265">
        <ele>106</ele>
        <time>2021-08-21T10:41:43Z</time>
      </trkpt>
      <trkpt lat="48.35809" lon="2.73264">
        <ele>106.3</ele>
        <time>2021-08-21T10:41:44Z</time>
      </trkpt>
      <trkpt lat="48.35809" lon="2.73265">
        <ele>106.4</ele>
        <time>2021-08-21T10:41:45Z</time>
      </trkpt>
      <trkpt lat="48.35808" lon="2.73265">
        <ele>106.5</ele>
        <time>2021-08-21T10:41:46Z</time>
      </trkpt>
      <trkpt lat="48.35808" lon="2.73265">
        <ele>106.6</ele>
        <time>2021-08-21T10:41:47Z</time>
      </trkpt>
      <trkpt lat="48.35806" lon="2.73265">
        <ele>106.9</ele>
        <time>2021-08-21T10:41:48Z</time>
      </trkpt>
      <trkpt lat="48.35805" lon="2.73265">
        <ele>107</ele>
        <time>2021-08-21T10:41:49Z</time>
      </trkpt>
      <trkpt lat="48.35804" lon="2.73264">
        <ele>107.3</ele>
        <time>2021-08-21T10:41:51Z</time>
      </trkpt>
      <trkpt lat="48.35803" lon="2.73263">
        <ele>107.5</ele>
        <time>2021-08-21T10:41:52Z</time>
      </trkpt>
      <trkpt lat="48.35801" lon="2.73262">
        <ele>107.9</ele>
        <time>2021-08-21T10:41:53Z</time>
      </trkpt>
      <trkpt lat="48.35798" lon="2.7326">
        <ele>108.4</ele>
        <time>2021-08-21T10:41:54Z</time>
      </trkpt>
      <trkpt lat="48.35798" lon="2.73259">
        <ele>108.6</ele>
        <time>2021-08-21T10:41:55Z</time>
      </trkpt>
      <trkpt lat="48.35797" lon="2.73258">
        <ele>108.8</ele>
        <time>2021-08-21T10:41:56Z</time>
      </trkpt>
      <trkpt lat="48.35796" lon="2.73258">
        <ele>108.9</ele>
        <time>2021-08-21T10:41:57Z</time>
      </trkpt>
      <trkpt lat="48.35796" lon="2.73257">
        <ele>109</ele>
        <time>2021-08-21T10:41:58Z</time>
      </trkpt>
      <trkpt lat="48.35795" lon="2.73257">
        <ele>109.1</ele>
        <time>2021-08-21T10:41:59Z</time>
      </trkpt>
      <trkpt lat="48.35795" lon="2.73257">
        <ele>109.1</ele>
        <time>2021-08-21T10:42:00Z</time>
      </trkpt>
      <trkpt lat="48.35794" lon="2.73257">
        <ele>109.2</ele>
        <time>2021-08-21T10:42:01Z</time>
      </trkpt>
      <trkpt lat="48.35794" lon="2.73257">
        <ele>109.2</ele>
        <time>2021-08-21T10:42:02Z</time>
      </trkpt>
      <trkpt lat="48.35794" lon="2.73257">
        <ele>109.3</ele>
        <time>2021-08-21T10:42:03Z</time>
      </trkpt>
      <trkpt lat="48.35794" lon="2.73257">
        <ele>109.3</ele>
        <time>2021-08-21T10:42:04Z</time>
      </trkpt>
      <trkpt lat="48.35794" lon="2.73257">
        <ele>109.3</ele>
        <time>2021-08-21T10:42:05Z</time>
      </trkpt>
      <trkpt lat="48.35794" lon="2.73257">
        <ele>109.3</ele>
        <time>2021-08-21T10:42:06Z</time>
      </trkpt>
      <trkpt lat="48.35794" lon="2.73257">
        <ele>109.3</ele>
        <time>2021-08-21T10:42:07Z</time>
      </trkpt>
      <trkpt lat="48.35794" lon="2.73257">
        <ele>109.3</ele>
        <time>2021-08-21T10:42:08Z</time>
      </trkpt>
      <trkpt lat="48.35794" lon="2.73257">
        <ele>109.3</ele>
        <time>2021-08-21T10:42:09Z</time>
      </trkpt>
      <trkpt lat="48.35794" lon="2.73257">
        <ele>109.3</ele>
        <time>2021-08-21T10:42:11Z</time>
      </trkpt>
      <trkpt lat="48.35794" lon="2.73257">
        <ele>109.3</ele>
        <time>2021-08-21T10:42:12Z</time>
      </trkpt>
      <trkpt lat="48.35794" lon="2.73257">
        <ele>109.4</ele>
        <time>2021-08-21T10:42:13Z</time>
      </trkpt>
      <trkpt lat="48.35794" lon="2.73256">
        <ele>109.4</ele>
        <time>2021-08-21T10:42:14Z</time>
      </trkpt>
      <trkpt lat="48.35795" lon="2.73256">
        <ele>109.4</ele>
        <time>2021-08-21T10:42:15Z</time>
      </trkpt>
      <trkpt lat="48.35795" lon="2.73256">
        <ele>109.4</ele>
        <time>2021-08-21T10:42:16Z</time>
      </trkpt>
      <trkpt lat="48.35795" lon="2.73256">
        <ele>109.4</ele>
        <time>2021-08-21T10:42:17Z</time>
      </trkpt>
      <trkpt lat="48.35795" lon="2.73256">
        <ele>109.5</ele>
        <time>2021-08-21T10:42:18Z</time>
      </trkpt>
      <trkpt lat="48.35795" lon="2.73256">
        <ele>109.5</ele>
        <time>2021-08-21T10:42:19Z</time>
      </trkpt>
      <trkpt lat="48.35795" lon="2.73256">
        <ele>109.5</ele>
        <time>2021-08-21T10:42:20Z</time>
      </trkpt>
      <trkpt lat="48.35795" lon="2.73256">
        <ele>109.6</ele>
        <time>2021-08-21T10:42:21Z</time>
      </trkpt>
      <trkpt lat="48.35795" lon="2.73256">
        <ele>109.6</ele>
        <time>2021-08-21T10:42:22Z</time>
      </trkpt>
      <trkpt lat="48.35795" lon="2.73256">
        <ele>109.6</ele>
        <time>2021-08-21T10:42:23Z</time>
      </trkpt>
      <trkpt lat="48.35796" lon="2.73256">
        <ele>109.6</ele>
        <time>2021-08-21T10:42:24Z</time>
      </trkpt>
      <trkpt lat="48.35796" lon="2.73256">
        <ele>109.6</ele>
        <time>2021-08-21T10:42:25Z</time>
      </trkpt>
      <trkpt lat="48.35796" lon="2.73256">
        <ele>109.6</ele>
        <time>2021-08-21T10:42:26Z</time>
      </trkpt>
      <trkpt lat="48.35796" lon="2.73256">
        <ele>109.6</ele>
        <time>2021-08-21T10:42:27Z</time>
      </trkpt>
      <trkpt lat="48.35796" lon="2.73256">
        <ele>109.6</ele>
        <time>2021-08-21T10:42:28Z</time>
      </trkpt>
      <trkpt lat="48.35796" lon="2.73256">
        <ele>109.7</ele>
        <time>2021-08-21T10:42:29Z</time>
      </trkpt>
      <trkpt lat="48.35796" lon="2.73256">
        <ele>109.7</ele>
        <time>2021-08-21T10:42:30Z</time>
      </trkpt>
      <trkpt lat="48.35796" lon="2.73256">
        <ele>109.7</ele>
        <time>2021-08-21T10:42:31Z</time>
      </trkpt>
      <trkpt lat="48.35796" lon="2.73256">
        <ele>109.7</ele>
        <time>2021-08-21T10:42:32Z</time>
      </trkpt>
      <trkpt lat="48.35795" lon="2.73256">
        <ele>109.8</ele>
        <time>2021-08-21T10:42:33Z</time>
      </trkpt>
      <trkpt lat="48.35795" lon="2.73256">
        <ele>109.9</ele>
        <time>2021-08-21T10:42:34Z</time>
      </trkpt>
      <trkpt lat="48.35795" lon="2.73256">
        <ele>109.9</ele>
        <time>2021-08-21T10:42:35Z</time>
      </trkpt>
      <trkpt lat="48.35795" lon="2.73256">
        <ele>109.9</ele>
        <time>2021-08-21T10:42:36Z</time>
      </trkpt>
      <trkpt lat="48.35795" lon="2.73256">
        <ele>109.9</ele>
        <time>2021-08-21T10:42:37Z</time>
      </trkpt>
      <trkpt lat="48.35795" lon="2.73256">
        <ele>109.9</ele>
        <time>2021-08-21T10:42:38Z</time>
      </trkpt>
      <trkpt lat="48.35795" lon="2.73256">
        <ele>109.9</ele>
        <time>2021-08-21T10:42:39Z</time>
      </trkpt>
      <trkpt lat="48.35795" lon="2.73256">
        <ele>109.9</ele>
        <time>2021-08-21T10:42:40Z</time>
      </trkpt>
      <trkpt lat="48.35795" lon="2.73256">
        <ele>109.9</ele>
        <time>2021-08-21T10:42:41Z</time>
      </trkpt>
      <trkpt lat="48.35795" lon="2.73256">
        <ele>109.9</ele>
        <time>2021-08-21T10:42:42Z</time>
      </trkpt>
      <trkpt lat="48.35795" lon="2.73256">
        <ele>109.9</ele>
        <time>2021-08-21T10:42:43Z</time>
      </trkpt>
      <trkpt lat="48.35795" lon="2.73256">
        <ele>109.9</ele>
        <time>2021-08-21T10:42:44Z</time>
      </trkpt>
      <trkpt lat="48.35795" lon="2.73256">
        <ele>109.9</ele>
        <time>2021-08-21T10:42:45Z</time>
      </trkpt>
      <trkpt lat="48.35795" lon="2.73256">
        <ele>109.9</ele>
        <time>2021-08-21T10:42:46Z</time>
      </trkpt>
      <trkpt lat="48.35795" lon="2.73256">
        <ele>109.9</ele>
        <time>2021-08-21T10:42:47Z</time>
      </trkpt>
      <trkpt lat="48.35795" lon="2.73256">
        <ele>109.9</ele>
        <time>2021-08-21T10:42:48Z</time>
      </trkpt>
      <trkpt lat="48.35795" lon="2.73256">
        <ele>109.9</ele>
        <time>2021-08-21T10:42:49Z</time>
      </trkpt>
      <trkpt lat="48.35795" lon="2.73256">
        <ele>109.9</ele>
        <time>2021-08-21T10:42:50Z</time>
      </trkpt>
      <trkpt lat="48.35795" lon="2.73256">
        <ele>109.9</ele>
        <time>2021-08-21T10:42:51Z</time>
      </trkpt>
      <trkpt lat="48.35795" lon="2.73256">
        <ele>109.9</ele>
        <time>2021-08-21T10:42:52Z</time>
      </trkpt>
      <trkpt lat="48.35795" lon="2.73256">
        <ele>109.9</ele>
        <time>2021-08-21T10:42:53Z</time>
      </trkpt>
      <trkpt lat="48.35795" lon="2.73256">
        <ele>109.9</ele>
        <time>2021-08-21T10:42:54Z</time>
      </trkpt>
      <trkpt lat="48.35795" lon="2.73256">
        <ele>109.9</ele>
        <time>2021-08-21T10:42:55Z</time>
      </trkpt>
      <trkpt lat="48.35795" lon="2.73256">
        <ele>109.9</ele>
        <time>2021-08-21T10:42:56Z</time>
      </trkpt>
      <trkpt lat="48.35795" lon="2.73256">
        <ele>109.9</ele>
        <time>2021-08-21T10:42:57Z</time>
      </trkpt>
      <trkpt lat="48.35795" lon="2.73256">
        <ele>109.9</ele>
        <time>2021-08-21T10:42:58Z</time>
      </trkpt>
      <trkpt lat="48.35795" lon="2.73256">
        <ele>109.9</ele>
        <time>2021-08-21T10:42:59Z</time>
      </trkpt>
      <trkpt lat="48.35795" lon="2.73256">
        <ele>109.9</ele>
        <time>2021-08-21T10:43:00Z</time>
      </trkpt>
      <trkpt lat="48.35795" lon="2.73256">
        <ele>109.9</ele>
        <time>2021-08-21T10:43:01Z</time>
      </trkpt>
      <trkpt lat="48.35795" lon="2.73256">
        <ele>109.9</ele>
        <time>2021-08-21T10:43:02Z</time>
      </trkpt>
      <trkpt lat="48.35795" lon="2.73256">
        <ele>109.9</ele>
        <time>2021-08-21T10:43:03Z</time>
      </trkpt>
      <trkpt lat="48.35795" lon="2.73256">
        <ele>109.9</ele>
        <time>2021-08-21T10:43:04Z</time>
      </trkpt>
      <trkpt lat="48.35795" lon="2.73256">
        <ele>109.9</ele>
        <time>2021-08-21T10:43:05Z</time>
      </trkpt>
      <trkpt lat="48.35795" lon="2.73256">
        <ele>109.9</ele>
        <time>2021-08-21T10:43:06Z</time>
      </trkpt>
      <trkpt lat="48.35795" lon="2.73255">
        <ele>110</ele>
        <time>2021-08-21T10:43:07Z</time>
      </trkpt>
      <trkpt lat="48.35795" lon="2.73255">
        <ele>110</ele>
        <time>2021-08-21T10:43:08Z</time>
      </trkpt>
      <trkpt lat="48.35795" lon="2.73255">
        <ele>110</ele>
        <time>2021-08-21T10:43:09Z</time>
      </trkpt>
      <trkpt lat="48.35795" lon="2.73255">
        <ele>110</ele>
        <time>2021-08-21T10:43:10Z</time>
      </trkpt>
      <trkpt lat="48.35795" lon="2.73255">
        <ele>110</ele>
        <time>2021-08-21T10:43:11Z</time>
      </trkpt>
      <trkpt lat="48.35795" lon="2.73255">
        <ele>110.1</ele>
        <time>2021-08-21T10:43:12Z</time>
      </trkpt>
      <trkpt lat="48.35795" lon="2.73255">
        <ele>110.1</ele>
        <time>2021-08-21T10:43:13Z</time>
      </trkpt>
      <trkpt lat="48.35795" lon="2.73255">
        <ele>110.1</ele>
        <time>2021-08-21T10:43:14Z</time>
      </trkpt>
      <trkpt lat="48.35795" lon="2.73255">
        <ele>110.1</ele>
        <time>2021-08-21T10:43:15Z</time>
      </trkpt>
      <trkpt lat="48.35795" lon="2.73255">
        <ele>110.1</ele>
        <time>2021-08-21T10:43:16Z</time>
      </trkpt>
      <trkpt lat="48.35795" lon="2.73255">
        <ele>110.1</ele>
        <time>2021-08-21T10:43:17Z</time>
      </trkpt>
      <trkpt lat="48.35795" lon="2.73255">
        <ele>110.1</ele>
        <time>2021-08-21T10:43:18Z</time>
      </trkpt>
      <trkpt lat="48.35795" lon="2.73255">
        <ele>110.1</ele>
        <time>2021-08-21T10:43:19Z</time>
      </trkpt>
      <trkpt lat="48.35795" lon="2.73255">
        <ele>110.1</ele>
        <time>2021-08-21T10:43:20Z</time>
      </trkpt>
      <trkpt lat="48.35795" lon="2.73255">
        <ele>110.1</ele>
        <time>2021-08-21T10:43:21Z</time>
      </trkpt>
      <trkpt lat="48.35795" lon="2.73255">
        <ele>110.1</ele>
        <time>2021-08-21T10:43:22Z</time>
      </trkpt>
      <trkpt lat="48.35796" lon="2.73255">
        <ele>110.2</ele>
        <time>2021-08-21T10:43:23Z</time>
      </trkpt>
      <trkpt lat="48.35796" lon="2.73254">
        <ele>110.3</ele>
        <time>2021-08-21T10:43:24Z</time>
      </trkpt>
      <trkpt lat="48.35796" lon="2.73254">
        <ele>110.3</ele>
        <time>2021-08-21T10:43:25Z</time>
      </trkpt>
      <trkpt lat="48.35796" lon="2.73254">
        <ele>110.3</ele>
        <time>2021-08-21T10:43:26Z</time>
      </trkpt>
      <trkpt lat="48.35796" lon="2.73254">
        <ele>110.3</ele>
        <time>2021-08-21T10:43:27Z</time>
      </trkpt>
      <trkpt lat="48.35796" lon="2.73254">
        <ele>110.3</ele>
        <time>2021-08-21T10:43:28Z</time>
      </trkpt>
      <trkpt lat="48.35796" lon="2.73254">
        <ele>110.3</ele>
        <time>2021-08-21T10:43:29Z</time>
      </trkpt>
      <trkpt lat="48.35796" lon="2.73254">
        <ele>110.3</ele>
        <time>2021-08-21T10:43:30Z</time>
      </trkpt>
      <trkpt lat="48.35796" lon="2.73254">
        <ele>110.4</ele>
        <time>2021-08-21T10:43:31Z</time>
      </trkpt>
      <trkpt lat="48.35796" lon="2.73254">
        <ele>110.4</ele>
        <time>2021-08-21T10:43:32Z</time>
      </trkpt>
      <trkpt lat="48.35796" lon="2.73254">
        <ele>110.4</ele>
        <time>2021-08-21T10:43:33Z</time>
      </trkpt>
      <trkpt lat="48.35796" lon="2.73255">
        <ele>110.4</ele>
        <time>2021-08-21T10:43:34Z</time>
      </trkpt>
      <trkpt lat="48.35796" lon="2.73255">
        <ele>110.4</ele>
        <time>2021-08-21T10:43:35Z</time>
      </trkpt>
      <trkpt lat="48.35796" lon="2.73255">
        <ele>110.4</ele>
        <time>2021-08-21T10:43:36Z</time>
      </trkpt>
      <trkpt lat="48.35796" lon="2.73255">
        <ele>110.4</ele>
        <time>2021-08-21T10:43:37Z</time>
      </trkpt>
      <trkpt lat="48.35796" lon="2.73255">
        <ele>110.4</ele>
        <time>2021-08-21T10:43:38Z</time>
      </trkpt>
      <trkpt lat="48.35796" lon="2.73255">
        <ele>110.4</ele>
        <time>2021-08-21T10:43:39Z</time>
      </trkpt>
      <trkpt lat="48.35796" lon="2.73255">
        <ele>110.4</ele>
        <time>2021-08-21T10:43:40Z</time>
      </trkpt>
      <trkpt lat="48.35796" lon="2.73255">
        <ele>110.4</ele>
        <time>2021-08-21T10:43:41Z</time>
      </trkpt>
      <trkpt lat="48.35796" lon="2.73255">
        <ele>110.4</ele>
        <time>2021-08-21T10:43:42Z</time>
      </trkpt>
      <trkpt lat="48.35796" lon="2.73255">
        <ele>110.4</ele>
        <time>2021-08-21T10:43:43Z</time>
      </trkpt>
      <trkpt lat="48.35796" lon="2.73255">
        <ele>110.4</ele>
        <time>2021-08-21T10:43:44Z</time>
      </trkpt>
      <trkpt lat="48.35796" lon="2.73255">
        <ele>110.4</ele>
        <time>2021-08-21T10:43:45Z</time>
      </trkpt>
      <trkpt lat="48.35797" lon="2.73255">
        <ele>110.5</ele>
        <time>2021-08-21T10:43:46Z</time>
      </trkpt>
      <trkpt lat="48.35797" lon="2.73255">
        <ele>110.5</ele>
        <time>2021-08-21T10:43:47Z</time>
      </trkpt>
      <trkpt lat="48.35797" lon="2.73255">
        <ele>110.5</ele>
        <time>2021-08-21T10:43:48Z</time>
      </trkpt>
      <trkpt lat="48.35798" lon="2.73254">
        <ele>110.6</ele>
        <time>2021-08-21T10:43:49Z</time>
      </trkpt>
      <trkpt lat="48.35798" lon="2.73254">
        <ele>110.6</ele>
        <time>2021-08-21T10:43:50Z</time>
      </trkpt>
      <trkpt lat="48.35797" lon="2.73255">
        <ele>110.7</ele>
        <time>2021-08-21T10:43:51Z</time>
      </trkpt>
      <trkpt lat="48.35797" lon="2.73255">
        <ele>110.7</ele>
        <time>2021-08-21T10:43:52Z</time>
      </trkpt>
      <trkpt lat="48.35797" lon="2.73255">
        <ele>110.8</ele>
        <time>2021-08-21T10:43:53Z</time>
      </trkpt>
      <trkpt lat="48.35797" lon="2.73255">
        <ele>110.8</ele>
        <time>2021-08-21T10:43:54Z</time>
      </trkpt>
      <trkpt lat="48.35797" lon="2.73255">
        <ele>110.8</ele>
        <time>2021-08-21T10:43:55Z</time>
      </trkpt>
      <trkpt lat="48.35797" lon="2.73255">
        <ele>110.8</ele>
        <time>2021-08-21T10:43:56Z</time>
      </trkpt>
      <trkpt lat="48.35797" lon="2.73255">
        <ele>110.8</ele>
        <time>2021-08-21T10:43:57Z</time>
      </trkpt>
      <trkpt lat="48.35797" lon="2.73255">
        <ele>110.8</ele>
        <time>2021-08-21T10:43:58Z</time>
      </trkpt>
      <trkpt lat="48.35797" lon="2.73255">
        <ele>110.8</ele>
        <time>2021-08-21T10:43:59Z</time>
      </trkpt>
      <trkpt lat="48.35797" lon="2.73255">
        <ele>110.8</ele>
        <time>2021-08-21T10:44:00Z</time>
      </trkpt>
      <trkpt lat="48.35797" lon="2.73255">
        <ele>110.8</ele>
        <time>2021-08-21T10:44:01Z</time>
      </trkpt>
      <trkpt lat="48.35797" lon="2.73255">
        <ele>110.8</ele>
        <time>2021-08-21T10:44:02Z</time>
      </trkpt>
      <trkpt lat="48.35797" lon="2.73255">
        <ele>110.8</ele>
        <time>2021-08-21T10:44:03Z</time>
      </trkpt>
      <trkpt lat="48.35797" lon="2.73255">
        <ele>110.8</ele>
        <time>2021-08-21T10:44:04Z</time>
      </trkpt>
      <trkpt lat="48.35797" lon="2.73255">
        <ele>110.8</ele>
        <time>2021-08-21T10:44:05Z</time>
      </trkpt>
      <trkpt lat="48.35797" lon="2.73255">
        <ele>110.8</ele>
        <time>2021-08-21T10:44:06Z</time>
      </trkpt>
      <trkpt lat="48.35797" lon="2.73255">
        <ele>110.8</ele>
        <time>2021-08-21T10:44:07Z</time>
      </trkpt>
      <trkpt lat="48.35797" lon="2.73255">
        <ele>110.8</ele>
        <time>2021-08-21T10:44:08Z</time>
      </trkpt>
      <trkpt lat="48.35797" lon="2.73255">
        <ele>110.8</ele>
        <time>2021-08-21T10:44:09Z</time>
      </trkpt>
      <trkpt lat="48.35797" lon="2.73255">
        <ele>110.8</ele>
        <time>2021-08-21T10:44:10Z</time>
      </trkpt>
      <trkpt lat="48.35797" lon="2.73255">
        <ele>110.8</ele>
        <time>2021-08-21T10:44:11Z</time>
      </trkpt>
      <trkpt lat="48.35797" lon="2.73255">
        <ele>110.8</ele>
        <time>2021-08-21T10:44:12Z</time>
      </trkpt>
      <trkpt lat="48.35797" lon="2.73255">
        <ele>110.8</ele>
        <time>2021-08-21T10:44:13Z</time>
      </trkpt>
      <trkpt lat="48.35797" lon="2.73255">
        <ele>110.8</ele>
        <time>2021-08-21T10:44:14Z</time>
      </trkpt>
      <trkpt lat="48.35797" lon="2.73255">
        <ele>110.8</ele>
        <time>2021-08-21T10:44:15Z</time>
      </trkpt>
      <trkpt lat="48.35797" lon="2.73255">
        <ele>110.8</ele>
        <time>2021-08-21T10:44:16Z</time>
      </trkpt>
      <trkpt lat="48.35797" lon="2.73255">
        <ele>110.8</ele>
        <time>2021-08-21T10:44:17Z</time>
      </trkpt>
      <trkpt lat="48.35797" lon="2.73255">
        <ele>110.8</ele>
        <time>2021-08-21T10:44:18Z</time>
      </trkpt>
      <trkpt lat="48.35797" lon="2.73255">
        <ele>110.8</ele>
        <time>2021-08-21T10:44:19Z</time>
      </trkpt>
      <trkpt lat="48.35797" lon="2.73255">
        <ele>110.8</ele>
        <time>2021-08-21T10:44:20Z</time>
      </trkpt>
      <trkpt lat="48.35797" lon="2.73255">
        <ele>110.8</ele>
        <time>2021-08-21T10:44:21Z</time>
      </trkpt>
      <trkpt lat="48.35797" lon="2.73255">
        <ele>110.8</ele>
        <time>2021-08-21T10:44:22Z</time>
      </trkpt>
      <trkpt lat="48.35797" lon="2.73255">
        <ele>110.8</ele>
        <time>2021-08-21T10:44:23Z</time>
      </trkpt>
      <trkpt lat="48.35797" lon="2.73255">
        <ele>110.8</ele>
        <time>2021-08-21T10:44:24Z</time>
      </trkpt>
      <trkpt lat="48.35797" lon="2.73255">
        <ele>110.8</ele>
        <time>2021-08-21T10:44:25Z</time>
      </trkpt>
      <trkpt lat="48.35797" lon="2.73255">
        <ele>110.8</ele>
        <time>2021-08-21T10:44:26Z</time>
      </trkpt>
      <trkpt lat="48.35797" lon="2.73255">
        <ele>110.8</ele>
        <time>2021-08-21T10:44:27Z</time>
      </trkpt>
      <trkpt lat="48.35797" lon="2.73255">
        <ele>110.8</ele>
        <time>2021-08-21T10:44:28Z</time>
      </trkpt>
      <trkpt lat="48.35797" lon="2.73255">
        <ele>110.8</ele>
        <time>2021-08-21T10:44:29Z</time>
      </trkpt>
      <trkpt lat="48.35797" lon="2.73255">
        <ele>110.8</ele>
        <time>2021-08-21T10:44:30Z</time>
      </trkpt>
      <trkpt lat="48.35797" lon="2.73255">
        <ele>110.8</ele>
        <time>2021-08-21T10:44:31Z</time>
      </trkpt>
      <trkpt lat="48.35797" lon="2.73255">
        <ele>110.8</ele>
        <time>2021-08-21T10:44:32Z</time>
      </trkpt>
      <trkpt lat="48.35797" lon="2.73255">
        <ele>110.8</ele>
        <time>2021-08-21T10:44:33Z</time>
      </trkpt>
      <trkpt lat="48.35797" lon="2.73255">
        <ele>110.8</ele>
        <time>2021-08-21T10:44:34Z</time>
      </trkpt>
      <trkpt lat="48.35797" lon="2.73255">
        <ele>110.8</ele>
        <time>2021-08-21T10:44:35Z</time>
      </trkpt>
      <trkpt lat="48.35797" lon="2.73255">
        <ele>110.8</ele>
        <time>2021-08-21T10:44:36Z</time>
      </trkpt>
      <trkpt lat="48.35797" lon="2.73255">
        <ele>110.8</ele>
        <time>2021-08-21T10:44:37Z</time>
      </trkpt>
      <trkpt lat="48.35797" lon="2.73255">
        <ele>110.8</ele>
        <time>2021-08-21T10:44:38Z</time>
      </trkpt>
      <trkpt lat="48.35797" lon="2.73255">
        <ele>110.8</ele>
        <time>2021-08-21T10:44:39Z</time>
      </trkpt>
      <trkpt lat="48.35797" lon="2.73255">
        <ele>110.8</ele>
        <time>2021-08-21T10:44:40Z</time>
      </trkpt>
      <trkpt lat="48.35797" lon="2.73255">
        <ele>110.8</ele>
        <time>2021-08-21T10:44:41Z</time>
      </trkpt>
      <trkpt lat="48.35797" lon="2.73255">
        <ele>110.8</ele>
        <time>2021-08-21T10:44:42Z</time>
      </trkpt>
      <trkpt lat="48.35797" lon="2.73255">
        <ele>110.8</ele>
        <time>2021-08-21T10:44:43Z</time>
      </trkpt>
      <trkpt lat="48.35797" lon="2.73255">
        <ele>110.8</ele>
        <time>2021-08-21T10:44:44Z</time>
      </trkpt>
      <trkpt lat="48.35797" lon="2.73255">
        <ele>110.8</ele>
        <time>2021-08-21T10:44:45Z</time>
      </trkpt>
      <trkpt lat="48.35797" lon="2.73255">
        <ele>110.8</ele>
        <time>2021-08-21T10:44:46Z</time>
      </trkpt>
      <trkpt lat="48.35797" lon="2.73255">
        <ele>110.8</ele>
        <time>2021-08-21T10:44:47Z</time>
      </trkpt>
      <trkpt lat="48.35797" lon="2.73255">
        <ele>110.8</ele>
        <time>2021-08-21T10:44:48Z</time>
      </trkpt>
      <trkpt lat="48.35797" lon="2.73255">
        <ele>110.8</ele>
        <time>2021-08-21T10:44:49Z</time>
      </trkpt>
      <trkpt lat="48.35797" lon="2.73255">
        <ele>110.8</ele>
        <time>2021-08-21T10:44:50Z</time>
      </trkpt>
      <trkpt lat="48.35797" lon="2.73255">
        <ele>110.8</ele>
        <time>2021-08-21T10:44:51Z</time>
      </trkpt>
      <trkpt lat="48.35797" lon="2.73255">
        <ele>110.8</ele>
        <time>2021-08-21T10:44:52Z</time>
      </trkpt>
      <trkpt lat="48.35797" lon="2.73255">
        <ele>110.8</ele>
        <time>2021-08-21T10:44:53Z</time>
      </trkpt>
      <trkpt lat="48.35797" lon="2.73255">
        <ele>110.8</ele>
        <time>2021-08-21T10:44:54Z</time>
      </trkpt>
      <trkpt lat="48.35797" lon="2.73255">
        <ele>110.8</ele>
        <time>2021-08-21T10:44:55Z</time>
      </trkpt>
      <trkpt lat="48.35797" lon="2.73255">
        <ele>110.8</ele>
        <time>2021-08-21T10:44:56Z</time>
      </trkpt>
      <trkpt lat="48.35797" lon="2.73255">
        <ele>110.8</ele>
        <time>2021-08-21T10:44:57Z</time>
      </trkpt>
      <trkpt lat="48.35797" lon="2.73255">
        <ele>110.8</ele>
        <time>2021-08-21T10:44:58Z</time>
      </trkpt>
      <trkpt lat="48.35797" lon="2.73255">
        <ele>110.8</ele>
        <time>2021-08-21T10:44:59Z</time>
      </trkpt>
      <trkpt lat="48.35797" lon="2.73255">
        <ele>110.8</ele>
        <time>2021-08-21T10:45:00Z</time>
      </trkpt>
      <trkpt lat="48.35797" lon="2.73255">
        <ele>110.8</ele>
        <time>2021-08-21T10:45:01Z</time>
      </trkpt>
      <trkpt lat="48.35797" lon="2.73255">
        <ele>110.8</ele>
        <time>2021-08-21T10:45:02Z</time>
      </trkpt>
      <trkpt lat="48.35797" lon="2.73255">
        <ele>110.8</ele>
        <time>2021-08-21T10:45:03Z</time>
      </trkpt>
      <trkpt lat="48.35797" lon="2.73255">
        <ele>110.8</ele>
        <time>2021-08-21T10:45:04Z</time>
      </trkpt>
      <trkpt lat="48.35797" lon="2.73255">
        <ele>110.8</ele>
        <time>2021-08-21T10:45:05Z</time>
      </trkpt>
      <trkpt lat="48.35797" lon="2.73255">
        <ele>110.8</ele>
        <time>2021-08-21T10:45:06Z</time>
      </trkpt>
      <trkpt lat="48.35797" lon="2.73255">
        <ele>110.8</ele>
        <time>2021-08-21T10:45:07Z</time>
      </trkpt>
      <trkpt lat="48.35797" lon="2.73255">
        <ele>110.8</ele>
        <time>2021-08-21T10:45:08Z</time>
      </trkpt>
      <trkpt lat="48.35797" lon="2.73255">
        <ele>110.8</ele>
        <time>2021-08-21T10:45:09Z</time>
      </trkpt>
      <trkpt lat="48.35797" lon="2.73255">
        <ele>110.8</ele>
        <time>2021-08-21T10:45:10Z</time>
      </trkpt>
      <trkpt lat="48.35797" lon="2.73255">
        <ele>110.8</ele>
        <time>2021-08-21T10:45:11Z</time>
      </trkpt>
      <trkpt lat="48.35797" lon="2.73255">
        <ele>110.8</ele>
        <time>2021-08-21T10:45:12Z</time>
      </trkpt>
      <trkpt lat="48.35797" lon="2.73255">
        <ele>110.8</ele>
        <time>2021-08-21T10:45:13Z</time>
      </trkpt>
      <trkpt lat="48.35797" lon="2.73255">
        <ele>110.8</ele>
        <time>2021-08-21T10:45:14Z</time>
      </trkpt>
      <trkpt lat="48.35797" lon="2.73255">
        <ele>110.8</ele>
        <time>2021-08-21T10:45:15Z</time>
      </trkpt>
      <trkpt lat="48.35797" lon="2.73255">
        <ele>110.8</ele>
        <time>2021-08-21T10:45:16Z</time>
      </trkpt>
      <trkpt lat="48.35797" lon="2.73255">
        <ele>110.8</ele>
        <time>2021-08-21T10:45:17Z</time>
      </trkpt>
      <trkpt lat="48.35797" lon="2.73255">
        <ele>110.8</ele>
        <time>2021-08-21T10:45:18Z</time>
      </trkpt>
      <trkpt lat="48.35797" lon="2.73255">
        <ele>110.8</ele>
        <time>2021-08-21T10:45:19Z</time>
      </trkpt>
      <trkpt lat="48.35797" lon="2.73255">
        <ele>110.8</ele>
        <time>2021-08-21T10:45:20Z</time>
      </trkpt>
      <trkpt lat="48.35797" lon="2.73255">
        <ele>110.8</ele>
        <time>2021-08-21T10:45:21Z</time>
      </trkpt>
      <trkpt lat="48.35797" lon="2.73255">
        <ele>110.8</ele>
        <time>2021-08-21T10:45:22Z</time>
      </trkpt>
      <trkpt lat="48.35797" lon="2.73255">
        <ele>110.8</ele>
        <time>2021-08-21T10:45:23Z</time>
      </trkpt>
      <trkpt lat="48.35797" lon="2.73255">
        <ele>110.8</ele>
        <time>2021-08-21T10:45:24Z</time>
      </trkpt>
      <trkpt lat="48.35797" lon="2.73255">
        <ele>110.8</ele>
        <time>2021-08-21T10:45:25Z</time>
      </trkpt>
      <trkpt lat="48.35797" lon="2.73255">
        <ele>110.8</ele>
        <time>2021-08-21T10:45:26Z</time>
      </trkpt>
      <trkpt lat="48.35797" lon="2.73255">
        <ele>110.8</ele>
        <time>2021-08-21T10:45:27Z</time>
      </trkpt>
      <trkpt lat="48.35797" lon="2.73255">
        <ele>110.8</ele>
        <time>2021-08-21T10:45:28Z</time>
      </trkpt>
      <trkpt lat="48.35797" lon="2.73255">
        <ele>110.8</ele>
        <time>2021-08-21T10:45:29Z</time>
      </trkpt>
      <trkpt lat="48.35797" lon="2.73255">
        <ele>110.8</ele>
        <time>2021-08-21T10:45:30Z</time>
      </trkpt>
      <trkpt lat="48.35797" lon="2.73255">
        <ele>110.8</ele>
        <time>2021-08-21T10:45:31Z</time>
      </trkpt>
      <trkpt lat="48.35797" lon="2.73255">
        <ele>110.8</ele>
        <time>2021-08-21T10:45:32Z</time>
      </trkpt>
      <trkpt lat="48.35797" lon="2.73255">
        <ele>110.8</ele>
        <time>2021-08-21T10:45:33Z</time>
      </trkpt>
      <trkpt lat="48.35797" lon="2.73255">
        <ele>110.8</ele>
        <time>2021-08-21T10:45:34Z</time>
      </trkpt>
      <trkpt lat="48.35797" lon="2.73255">
        <ele>110.8</ele>
        <time>2021-08-21T10:45:35Z</time>
      </trkpt>
      <trkpt lat="48.35797" lon="2.73255">
        <ele>110.8</ele>
        <time>2021-08-21T10:45:36Z</time>
      </trkpt>
      <trkpt lat="48.35797" lon="2.73255">
        <ele>110.8</ele>
        <time>2021-08-21T10:45:37Z</time>
      </trkpt>
      <trkpt lat="48.35797" lon="2.73255">
        <ele>110.8</ele>
        <time>2021-08-21T10:45:38Z</time>
      </trkpt>
      <trkpt lat="48.35797" lon="2.73255">
        <ele>110.8</ele>
        <time>2021-08-21T10:45:39Z</time>
      </trkpt>
      <trkpt lat="48.35797" lon="2.73255">
        <ele>110.8</ele>
        <time>2021-08-21T10:45:40Z</time>
      </trkpt>
      <trkpt lat="48.35797" lon="2.73255">
        <ele>110.8</ele>
        <time>2021-08-21T10:45:41Z</time>
      </trkpt>
      <trkpt lat="48.35797" lon="2.73255">
        <ele>110.8</ele>
        <time>2021-08-21T10:45:42Z</time>
      </trkpt>
      <trkpt lat="48.35797" lon="2.73255">
        <ele>110.8</ele>
        <time>2021-08-21T10:45:43Z</time>
      </trkpt>
      <trkpt lat="48.35797" lon="2.73255">
        <ele>110.8</ele>
        <time>2021-08-21T10:45:44Z</time>
      </trkpt>
      <trkpt lat="48.35797" lon="2.73255">
        <ele>110.8</ele>
        <time>2021-08-21T10:45:45Z</time>
      </trkpt>
      <trkpt lat="48.35797" lon="2.73255">
        <ele>110.8</ele>
        <time>2021-08-21T10:45:46Z</time>
      </trkpt>
      <trkpt lat="48.35797" lon="2.73255">
        <ele>110.8</ele>
        <time>2021-08-21T10:45:47Z</time>
      </trkpt>
      <trkpt lat="48.35797" lon="2.73255">
        <ele>110.8</ele>
        <time>2021-08-21T10:45:48Z</time>
      </trkpt>
      <trkpt lat="48.35797" lon="2.73255">
        <ele>110.8</ele>
        <time>2021-08-21T10:45:49Z</time>
      </trkpt>
      <trkpt lat="48.35797" lon="2.73255">
        <ele>110.8</ele>
        <time>2021-08-21T10:45:50Z</time>
      </trkpt>
      <trkpt lat="48.35797" lon="2.73255">
        <ele>110.8</ele>
        <time>2021-08-21T10:45:51Z</time>
      </trkpt>
      <trkpt lat="48.35797" lon="2.73255">
        <ele>110.8</ele>
        <time>2021-08-21T10:45:52Z</time>
      </trkpt>
      <trkpt lat="48.35797" lon="2.73255">
        <ele>110.8</ele>
        <time>2021-08-21T10:45:53Z</time>
      </trkpt>
      <trkpt lat="48.35797" lon="2.73255">
        <ele>110.8</ele>
        <time>2021-08-21T10:45:54Z</time>
      </trkpt>
      <trkpt lat="48.35797" lon="2.73255">
        <ele>110.8</ele>
        <time>2021-08-21T10:45:55Z</time>
      </trkpt>
      <trkpt lat="48.35797" lon="2.73255">
        <ele>110.8</ele>
        <time>2021-08-21T10:45:56Z</time>
      </trkpt>
      <trkpt lat="48.35797" lon="2.73255">
        <ele>110.8</ele>
        <time>2021-08-21T10:45:57Z</time>
      </trkpt>
      <trkpt lat="48.35797" lon="2.73255">
        <ele>110.8</ele>
        <time>2021-08-21T10:45:58Z</time>
      </trkpt>
      <trkpt lat="48.35797" lon="2.73255">
        <ele>110.8</ele>
        <time>2021-08-21T10:45:59Z</time>
      </trkpt>
      <trkpt lat="48.35797" lon="2.73255">
        <ele>110.8</ele>
        <time>2021-08-21T10:46:00Z</time>
      </trkpt>
      <trkpt lat="48.35797" lon="2.73255">
        <ele>110.8</ele>
        <time>2021-08-21T10:46:01Z</time>
      </trkpt>
      <trkpt lat="48.35797" lon="2.73255">
        <ele>110.8</ele>
        <time>2021-08-21T10:46:02Z</time>
      </trkpt>
      <trkpt lat="48.35797" lon="2.73255">
        <ele>110.8</ele>
        <time>2021-08-21T10:46:03Z</time>
      </trkpt>
      <trkpt lat="48.35797" lon="2.73255">
        <ele>110.8</ele>
        <time>2021-08-21T10:46:04Z</time>
      </trkpt>
      <trkpt lat="48.35797" lon="2.73255">
        <ele>110.8</ele>
        <time>2021-08-21T10:46:05Z</time>
      </trkpt>
      <trkpt lat="48.35797" lon="2.73255">
        <ele>110.8</ele>
        <time>2021-08-21T10:46:06Z</time>
      </trkpt>
      <trkpt lat="48.35797" lon="2.73255">
        <ele>110.8</ele>
        <time>2021-08-21T10:46:07Z</time>
      </trkpt>
      <trkpt lat="48.35797" lon="2.73255">
        <ele>110.8</ele>
        <time>2021-08-21T10:46:08Z</time>
      </trkpt>
      <trkpt lat="48.35797" lon="2.73255">
        <ele>110.8</ele>
        <time>2021-08-21T10:46:09Z</time>
      </trkpt>
      <trkpt lat="48.35797" lon="2.73255">
        <ele>110.8</ele>
        <time>2021-08-21T10:46:10Z</time>
      </trkpt>
      <trkpt lat="48.35797" lon="2.73255">
        <ele>110.8</ele>
        <time>2021-08-21T10:46:11Z</time>
      </trkpt>
      <trkpt lat="48.35797" lon="2.73255">
        <ele>110.8</ele>
        <time>2021-08-21T10:46:12Z</time>
      </trkpt>
      <trkpt lat="48.35797" lon="2.73255">
        <ele>110.8</ele>
        <time>2021-08-21T10:46:13Z</time>
      </trkpt>
      <trkpt lat="48.35797" lon="2.73255">
        <ele>110.8</ele>
        <time>2021-08-21T10:46:14Z</time>
      </trkpt>
      <trkpt lat="48.35797" lon="2.73255">
        <ele>110.8</ele>
        <time>2021-08-21T10:46:15Z</time>
      </trkpt>
      <trkpt lat="48.35797" lon="2.73255">
        <ele>110.8</ele>
        <time>2021-08-21T10:46:16Z</time>
      </trkpt>
      <trkpt lat="48.35797" lon="2.73255">
        <ele>110.8</ele>
        <time>2021-08-21T10:46:17Z</time>
      </trkpt>
      <trkpt lat="48.35797" lon="2.73255">
        <ele>110.8</ele>
        <time>2021-08-21T10:46:18Z</time>
      </trkpt>
      <trkpt lat="48.35797" lon="2.73255">
        <ele>110.8</ele>
        <time>2021-08-21T10:46:19Z</time>
      </trkpt>
      <trkpt lat="48.35797" lon="2.73255">
        <ele>110.8</ele>
        <time>2021-08-21T10:46:20Z</time>
      </trkpt>
      <trkpt lat="48.35797" lon="2.73255">
        <ele>110.8</ele>
        <time>2021-08-21T10:46:21Z</time>
      </trkpt>
      <trkpt lat="48.35797" lon="2.73255">
        <ele>110.8</ele>
        <time>2021-08-21T10:46:22Z</time>
      </trkpt>
      <trkpt lat="48.35797" lon="2.73255">
        <ele>110.8</ele>
        <time>2021-08-21T10:46:23Z</time>
      </trkpt>
      <trkpt lat="48.35797" lon="2.73255">
        <ele>110.8</ele>
        <time>2021-08-21T10:46:24Z</time>
      </trkpt>
      <trkpt lat="48.35797" lon="2.73255">
        <ele>110.8</ele>
        <time>2021-08-21T10:46:25Z</time>
      </trkpt>
      <trkpt lat="48.35797" lon="2.73255">
        <ele>110.8</ele>
        <time>2021-08-21T10:46:26Z</time>
      </trkpt>
      <trkpt lat="48.35797" lon="2.73255">
        <ele>110.8</ele>
        <time>2021-08-21T10:46:27Z</time>
      </trkpt>
      <trkpt lat="48.35797" lon="2.73255">
        <ele>110.8</ele>
        <time>2021-08-21T10:46:28Z</time>
      </trkpt>
      <trkpt lat="48.35797" lon="2.73255">
        <ele>110.8</ele>
        <time>2021-08-21T10:46:29Z</time>
      </trkpt>
      <trkpt lat="48.35797" lon="2.73255">
        <ele>110.8</ele>
        <time>2021-08-21T10:46:30Z</time>
      </trkpt>
      <trkpt lat="48.35797" lon="2.73255">
        <ele>110.8</ele>
        <time>2021-08-21T10:46:31Z</time>
      </trkpt>
      <trkpt lat="48.35797" lon="2.73255">
        <ele>110.8</ele>
        <time>2021-08-21T10:46:32Z</time>
      </trkpt>
      <trkpt lat="48.35797" lon="2.73255">
        <ele>110.8</ele>
        <time>2021-08-21T10:46:33Z</time>
      </trkpt>
      <trkpt lat="48.35797" lon="2.73255">
        <ele>110.8</ele>
        <time>2021-08-21T10:46:34Z</time>
      </trkpt>
      <trkpt lat="48.35797" lon="2.73255">
        <ele>110.8</ele>
        <time>2021-08-21T10:46:35Z</time>
      </trkpt>
      <trkpt lat="48.35797" lon="2.73255">
        <ele>110.8</ele>
        <time>2021-08-21T10:46:36Z</time>
      </trkpt>
      <trkpt lat="48.35797" lon="2.73255">
        <ele>110.8</ele>
        <time>2021-08-21T10:46:37Z</time>
      </trkpt>
      <trkpt lat="48.35797" lon="2.73255">
        <ele>110.8</ele>
        <time>2021-08-21T10:46:38Z</time>
      </trkpt>
      <trkpt lat="48.35797" lon="2.73255">
        <ele>110.8</ele>
        <time>2021-08-21T10:46:39Z</time>
      </trkpt>
      <trkpt lat="48.35797" lon="2.73255">
        <ele>110.8</ele>
        <time>2021-08-21T10:46:40Z</time>
      </trkpt>
      <trkpt lat="48.35797" lon="2.73255">
        <ele>110.8</ele>
        <time>2021-08-21T10:46:41Z</time>
      </trkpt>
      <trkpt lat="48.35797" lon="2.73255">
        <ele>110.8</ele>
        <time>2021-08-21T10:46:42Z</time>
      </trkpt>
      <trkpt lat="48.35797" lon="2.73255">
        <ele>110.8</ele>
        <time>2021-08-21T10:46:43Z</time>
      </trkpt>
      <trkpt lat="48.35797" lon="2.73255">
        <ele>110.8</ele>
        <time>2021-08-21T10:46:44Z</time>
      </trkpt>
      <trkpt lat="48.35797" lon="2.73255">
        <ele>110.8</ele>
        <time>2021-08-21T10:46:45Z</time>
      </trkpt>
      <trkpt lat="48.35797" lon="2.73255">
        <ele>110.8</ele>
        <time>2021-08-21T10:46:46Z</time>
      </trkpt>
      <trkpt lat="48.35797" lon="2.73255">
        <ele>110.8</ele>
        <time>2021-08-21T10:46:47Z</time>
      </trkpt>
      <trkpt lat="48.35797" lon="2.73255">
        <ele>110.8</ele>
        <time>2021-08-21T10:46:48Z</time>
      </trkpt>
      <trkpt lat="48.35797" lon="2.73255">
        <ele>110.8</ele>
        <time>2021-08-21T10:46:49Z</time>
      </trkpt>
      <trkpt lat="48.35797" lon="2.73255">
        <ele>110.8</ele>
        <time>2021-08-21T10:46:50Z</time>
      </trkpt>
      <trkpt lat="48.35797" lon="2.73255">
        <ele>110.8</ele>
        <time>2021-08-21T10:46:51Z</time>
      </trkpt>
      <trkpt lat="48.35797" lon="2.73255">
        <ele>110.8</ele>
        <time>2021-08-21T10:46:52Z</time>
      </trkpt>
      <trkpt lat="48.35797" lon="2.73255">
        <ele>110.8</ele>
        <time>2021-08-21T10:46:53Z</time>
      </trkpt>
      <trkpt lat="48.35796" lon="2.73255">
        <ele>110.8</ele>
        <time>2021-08-21T10:46:54Z</time>
      </trkpt>
      <trkpt lat="48.35796" lon="2.73256">
        <ele>110.9</ele>
        <time>2021-08-21T10:46:55Z</time>
      </trkpt>
      <trkpt lat="48.35796" lon="2.73256">
        <ele>110.9</ele>
        <time>2021-08-21T10:46:56Z</time>
      </trkpt>
      <trkpt lat="48.35796" lon="2.73256">
        <ele>110.9</ele>
        <time>2021-08-21T10:46:57Z</time>
      </trkpt>
      <trkpt lat="48.35796" lon="2.73256">
        <ele>111</ele>
        <time>2021-08-21T10:46:58Z</time>
      </trkpt>
      <trkpt lat="48.35796" lon="2.73256">
        <ele>111</ele>
        <time>2021-08-21T10:46:59Z</time>
      </trkpt>
      <trkpt lat="48.35796" lon="2.73256">
        <ele>111</ele>
        <time>2021-08-21T10:47:00Z</time>
      </trkpt>
      <trkpt lat="48.35796" lon="2.73256">
        <ele>111</ele>
        <time>2021-08-21T10:47:01Z</time>
      </trkpt>
      <trkpt lat="48.35796" lon="2.73256">
        <ele>111</ele>
        <time>2021-08-21T10:47:02Z</time>
      </trkpt>
      <trkpt lat="48.35796" lon="2.73256">
        <ele>111</ele>
        <time>2021-08-21T10:47:03Z</time>
      </trkpt>
      <trkpt lat="48.35796" lon="2.73256">
        <ele>111</ele>
        <time>2021-08-21T10:47:04Z</time>
      </trkpt>
      <trkpt lat="48.35796" lon="2.73256">
        <ele>111</ele>
        <time>2021-08-21T10:47:05Z</time>
      </trkpt>
      <trkpt lat="48.35796" lon="2.73256">
        <ele>111</ele>
        <time>2021-08-21T10:47:06Z</time>
      </trkpt>
      <trkpt lat="48.35796" lon="2.73256">
        <ele>111</ele>
        <time>2021-08-21T10:47:07Z</time>
      </trkpt>
      <trkpt lat="48.35796" lon="2.73256">
        <ele>111</ele>
        <time>2021-08-21T10:47:08Z</time>
      </trkpt>
      <trkpt lat="48.35796" lon="2.73256">
        <ele>111</ele>
        <time>2021-08-21T10:47:09Z</time>
      </trkpt>
      <trkpt lat="48.35796" lon="2.73256">
        <ele>111</ele>
        <time>2021-08-21T10:47:10Z</time>
      </trkpt>
      <trkpt lat="48.35796" lon="2.73256">
        <ele>111</ele>
        <time>2021-08-21T10:47:11Z</time>
      </trkpt>
      <trkpt lat="48.35796" lon="2.73256">
        <ele>111</ele>
        <time>2021-08-21T10:47:12Z</time>
      </trkpt>
      <trkpt lat="48.35796" lon="2.73256">
        <ele>111</ele>
        <time>2021-08-21T10:47:13Z</time>
      </trkpt>
      <trkpt lat="48.35796" lon="2.73256">
        <ele>111</ele>
        <time>2021-08-21T10:47:14Z</time>
      </trkpt>
      <trkpt lat="48.35796" lon="2.73256">
        <ele>111</ele>
        <time>2021-08-21T10:47:15Z</time>
      </trkpt>
      <trkpt lat="48.35796" lon="2.73256">
        <ele>111</ele>
        <time>2021-08-21T10:47:16Z</time>
      </trkpt>
      <trkpt lat="48.35796" lon="2.73256">
        <ele>111</ele>
        <time>2021-08-21T10:47:17Z</time>
      </trkpt>
      <trkpt lat="48.35796" lon="2.73256">
        <ele>111</ele>
        <time>2021-08-21T10:47:18Z</time>
      </trkpt>
      <trkpt lat="48.35796" lon="2.73256">
        <ele>111</ele>
        <time>2021-08-21T10:47:19Z</time>
      </trkpt>
      <trkpt lat="48.35796" lon="2.73256">
        <ele>111</ele>
        <time>2021-08-21T10:47:20Z</time>
      </trkpt>
      <trkpt lat="48.35796" lon="2.73256">
        <ele>111</ele>
        <time>2021-08-21T10:47:21Z</time>
      </trkpt>
      <trkpt lat="48.35796" lon="2.73256">
        <ele>111</ele>
        <time>2021-08-21T10:47:22Z</time>
      </trkpt>
      <trkpt lat="48.35796" lon="2.73256">
        <ele>111</ele>
        <time>2021-08-21T10:47:23Z</time>
      </trkpt>
      <trkpt lat="48.35796" lon="2.73256">
        <ele>111</ele>
        <time>2021-08-21T10:47:24Z</time>
      </trkpt>
      <trkpt lat="48.35796" lon="2.73256">
        <ele>111</ele>
        <time>2021-08-21T10:47:25Z</time>
      </trkpt>
      <trkpt lat="48.35796" lon="2.73256">
        <ele>111</ele>
        <time>2021-08-21T10:47:26Z</time>
      </trkpt>
      <trkpt lat="48.35796" lon="2.73256">
        <ele>111</ele>
        <time>2021-08-21T10:47:27Z</time>
      </trkpt>
      <trkpt lat="48.35796" lon="2.73256">
        <ele>111</ele>
        <time>2021-08-21T10:47:28Z</time>
      </trkpt>
      <trkpt lat="48.35796" lon="2.73256">
        <ele>111</ele>
        <time>2021-08-21T10:47:29Z</time>
      </trkpt>
      <trkpt lat="48.35796" lon="2.73256">
        <ele>111</ele>
        <time>2021-08-21T10:47:30Z</time>
      </trkpt>
      <trkpt lat="48.35796" lon="2.73256">
        <ele>111</ele>
        <time>2021-08-21T10:47:31Z</time>
      </trkpt>
      <trkpt lat="48.35796" lon="2.73256">
        <ele>111</ele>
        <time>2021-08-21T10:47:32Z</time>
      </trkpt>
      <trkpt lat="48.35796" lon="2.73256">
        <ele>111</ele>
        <time>2021-08-21T10:47:33Z</time>
      </trkpt>
      <trkpt lat="48.35796" lon="2.73256">
        <ele>111</ele>
        <time>2021-08-21T10:47:34Z</time>
      </trkpt>
      <trkpt lat="48.35796" lon="2.73256">
        <ele>111</ele>
        <time>2021-08-21T10:47:35Z</time>
      </trkpt>
      <trkpt lat="48.35796" lon="2.73256">
        <ele>111</ele>
        <time>2021-08-21T10:47:36Z</time>
      </trkpt>
      <trkpt lat="48.35796" lon="2.73256">
        <ele>111</ele>
        <time>2021-08-21T10:47:37Z</time>
      </trkpt>
      <trkpt lat="48.35796" lon="2.73256">
        <ele>111</ele>
        <time>2021-08-21T10:47:38Z</time>
      </trkpt>
      <trkpt lat="48.35796" lon="2.73256">
        <ele>111</ele>
        <time>2021-08-21T10:47:39Z</time>
      </trkpt>
      <trkpt lat="48.35796" lon="2.73256">
        <ele>111</ele>
        <time>2021-08-21T10:47:40Z</time>
      </trkpt>
      <trkpt lat="48.35796" lon="2.73256">
        <ele>111</ele>
        <time>2021-08-21T10:47:41Z</time>
      </trkpt>
      <trkpt lat="48.35796" lon="2.73256">
        <ele>111</ele>
        <time>2021-08-21T10:47:42Z</time>
      </trkpt>
      <trkpt lat="48.35796" lon="2.73256">
        <ele>111</ele>
        <time>2021-08-21T10:47:43Z</time>
      </trkpt>
      <trkpt lat="48.35796" lon="2.73256">
        <ele>111</ele>
        <time>2021-08-21T10:47:44Z</time>
      </trkpt>
      <trkpt lat="48.35796" lon="2.73256">
        <ele>111</ele>
        <time>2021-08-21T10:47:45Z</time>
      </trkpt>
      <trkpt lat="48.35796" lon="2.73256">
        <ele>111</ele>
        <time>2021-08-21T10:47:46Z</time>
      </trkpt>
      <trkpt lat="48.35796" lon="2.73256">
        <ele>111</ele>
        <time>2021-08-21T10:47:47Z</time>
      </trkpt>
      <trkpt lat="48.35796" lon="2.73256">
        <ele>111</ele>
        <time>2021-08-21T10:47:48Z</time>
      </trkpt>
      <trkpt lat="48.35796" lon="2.73256">
        <ele>111</ele>
        <time>2021-08-21T10:47:49Z</time>
      </trkpt>
      <trkpt lat="48.35796" lon="2.73256">
        <ele>111</ele>
        <time>2021-08-21T10:47:50Z</time>
      </trkpt>
      <trkpt lat="48.35796" lon="2.73256">
        <ele>111</ele>
        <time>2021-08-21T10:47:51Z</time>
      </trkpt>
      <trkpt lat="48.35796" lon="2.73256">
        <ele>111</ele>
        <time>2021-08-21T10:47:52Z</time>
      </trkpt>
      <trkpt lat="48.35796" lon="2.73256">
        <ele>111</ele>
        <time>2021-08-21T10:47:53Z</time>
      </trkpt>
      <trkpt lat="48.35796" lon="2.73256">
        <ele>111</ele>
        <time>2021-08-21T10:47:54Z</time>
      </trkpt>
      <trkpt lat="48.35796" lon="2.73256">
        <ele>111</ele>
        <time>2021-08-21T10:47:55Z</time>
      </trkpt>
      <trkpt lat="48.35796" lon="2.73256">
        <ele>111</ele>
        <time>2021-08-21T10:47:56Z</time>
      </trkpt>
      <trkpt lat="48.35796" lon="2.73256">
        <ele>111</ele>
        <time>2021-08-21T10:47:57Z</time>
      </trkpt>
      <trkpt lat="48.35796" lon="2.73256">
        <ele>111</ele>
        <time>2021-08-21T10:47:58Z</time>
      </trkpt>
      <trkpt lat="48.35796" lon="2.73256">
        <ele>111</ele>
        <time>2021-08-21T10:47:59Z</time>
      </trkpt>
      <trkpt lat="48.35796" lon="2.73256">
        <ele>111</ele>
        <time>2021-08-21T10:48:00Z</time>
      </trkpt>
      <trkpt lat="48.35796" lon="2.73256">
        <ele>111</ele>
        <time>2021-08-21T10:48:01Z</time>
      </trkpt>
      <trkpt lat="48.35796" lon="2.73256">
        <ele>111</ele>
        <time>2021-08-21T10:48:02Z</time>
      </trkpt>
      <trkpt lat="48.35796" lon="2.73256">
        <ele>111</ele>
        <time>2021-08-21T10:48:03Z</time>
      </trkpt>
      <trkpt lat="48.35796" lon="2.73256">
        <ele>111</ele>
        <time>2021-08-21T10:48:04Z</time>
      </trkpt>
      <trkpt lat="48.35796" lon="2.73256">
        <ele>111</ele>
        <time>2021-08-21T10:48:05Z</time>
      </trkpt>
      <trkpt lat="48.35796" lon="2.73256">
        <ele>111</ele>
        <time>2021-08-21T10:48:06Z</time>
      </trkpt>
      <trkpt lat="48.35796" lon="2.73256">
        <ele>111</ele>
        <time>2021-08-21T10:48:07Z</time>
      </trkpt>
      <trkpt lat="48.35796" lon="2.73256">
        <ele>111</ele>
        <time>2021-08-21T10:48:08Z</time>
      </trkpt>
      <trkpt lat="48.35796" lon="2.73256">
        <ele>111</ele>
        <time>2021-08-21T10:48:09Z</time>
      </trkpt>
      <trkpt lat="48.35796" lon="2.73256">
        <ele>111</ele>
        <time>2021-08-21T10:48:10Z</time>
      </trkpt>
      <trkpt lat="48.35796" lon="2.73256">
        <ele>111</ele>
        <time>2021-08-21T10:48:11Z</time>
      </trkpt>
      <trkpt lat="48.35796" lon="2.73256">
        <ele>111</ele>
        <time>2021-08-21T10:48:12Z</time>
      </trkpt>
      <trkpt lat="48.35796" lon="2.73256">
        <ele>111</ele>
        <time>2021-08-21T10:48:13Z</time>
      </trkpt>
      <trkpt lat="48.35796" lon="2.73256">
        <ele>111</ele>
        <time>2021-08-21T10:48:14Z</time>
      </trkpt>
      <trkpt lat="48.35796" lon="2.73256">
        <ele>111</ele>
        <time>2021-08-21T10:48:15Z</time>
      </trkpt>
      <trkpt lat="48.35796" lon="2.73256">
        <ele>111</ele>
        <time>2021-08-21T10:48:16Z</time>
      </trkpt>
      <trkpt lat="48.35796" lon="2.73256">
        <ele>111</ele>
        <time>2021-08-21T10:48:17Z</time>
      </trkpt>
      <trkpt lat="48.35796" lon="2.73256">
        <ele>111</ele>
        <time>2021-08-21T10:48:18Z</time>
      </trkpt>
      <trkpt lat="48.35796" lon="2.73256">
        <ele>111</ele>
        <time>2021-08-21T10:48:19Z</time>
      </trkpt>
      <trkpt lat="48.35796" lon="2.73256">
        <ele>111</ele>
        <time>2021-08-21T10:48:20Z</time>
      </trkpt>
      <trkpt lat="48.35796" lon="2.73256">
        <ele>111</ele>
        <time>2021-08-21T10:48:21Z</time>
      </trkpt>
      <trkpt lat="48.35796" lon="2.73256">
        <ele>111</ele>
        <time>2021-08-21T10:48:22Z</time>
      </trkpt>
      <trkpt lat="48.35796" lon="2.73256">
        <ele>111</ele>
        <time>2021-08-21T10:48:23Z</time>
      </trkpt>
      <trkpt lat="48.35796" lon="2.73256">
        <ele>111</ele>
        <time>2021-08-21T10:48:24Z</time>
      </trkpt>
      <trkpt lat="48.35796" lon="2.73256">
        <ele>111</ele>
        <time>2021-08-21T10:48:25Z</time>
      </trkpt>
      <trkpt lat="48.35796" lon="2.73256">
        <ele>111</ele>
        <time>2021-08-21T10:48:26Z</time>
      </trkpt>
      <trkpt lat="48.35796" lon="2.73256">
        <ele>111</ele>
        <time>2021-08-21T10:48:27Z</time>
      </trkpt>
      <trkpt lat="48.35796" lon="2.73256">
        <ele>111</ele>
        <time>2021-08-21T10:48:28Z</time>
      </trkpt>
      <trkpt lat="48.35796" lon="2.73256">
        <ele>111</ele>
        <time>2021-08-21T10:48:29Z</time>
      </trkpt>
      <trkpt lat="48.35796" lon="2.73256">
        <ele>111</ele>
        <time>2021-08-21T10:48:30Z</time>
      </trkpt>
      <trkpt lat="48.35796" lon="2.73256">
        <ele>111</ele>
        <time>2021-08-21T10:48:31Z</time>
      </trkpt>
      <trkpt lat="48.35796" lon="2.73256">
        <ele>111</ele>
        <time>2021-08-21T10:48:32Z</time>
      </trkpt>
      <trkpt lat="48.35796" lon="2.73256">
        <ele>111</ele>
        <time>2021-08-21T10:48:33Z</time>
      </trkpt>
      <trkpt lat="48.35796" lon="2.73256">
        <ele>111</ele>
        <time>2021-08-21T10:48:34Z</time>
      </trkpt>
      <trkpt lat="48.35796" lon="2.73256">
        <ele>111</ele>
        <time>2021-08-21T10:48:35Z</time>
      </trkpt>
      <trkpt lat="48.35796" lon="2.73256">
        <ele>111</ele>
        <time>2021-08-21T10:48:36Z</time>
      </trkpt>
      <trkpt lat="48.35796" lon="2.73256">
        <ele>111</ele>
        <time>2021-08-21T10:48:37Z</time>
      </trkpt>
      <trkpt lat="48.35796" lon="2.73256">
        <ele>111</ele>
        <time>2021-08-21T10:48:38Z</time>
      </trkpt>
      <trkpt lat="48.35796" lon="2.73256">
        <ele>111</ele>
        <time>2021-08-21T10:48:39Z</time>
      </trkpt>
      <trkpt lat="48.35796" lon="2.73256">
        <ele>111</ele>
        <time>2021-08-21T10:48:40Z</time>
      </trkpt>
      <trkpt lat="48.35796" lon="2.73256">
        <ele>111</ele>
        <time>2021-08-21T10:48:41Z</time>
      </trkpt>
      <trkpt lat="48.35796" lon="2.73256">
        <ele>111</ele>
        <time>2021-08-21T10:48:42Z</time>
      </trkpt>
      <trkpt lat="48.35796" lon="2.73256">
        <ele>111</ele>
        <time>2021-08-21T10:48:43Z</time>
      </trkpt>
      <trkpt lat="48.35796" lon="2.73256">
        <ele>111</ele>
        <time>2021-08-21T10:48:44Z</time>
      </trkpt>
      <trkpt lat="48.35796" lon="2.73256">
        <ele>111</ele>
        <time>2021-08-21T10:48:45Z</time>
      </trkpt>
      <trkpt lat="48.35796" lon="2.73256">
        <ele>111</ele>
        <time>2021-08-21T10:48:46Z</time>
      </trkpt>
      <trkpt lat="48.35796" lon="2.73256">
        <ele>111</ele>
        <time>2021-08-21T10:48:47Z</time>
      </trkpt>
      <trkpt lat="48.35796" lon="2.73256">
        <ele>111</ele>
        <time>2021-08-21T10:48:48Z</time>
      </trkpt>
      <trkpt lat="48.35796" lon="2.73256">
        <ele>111</ele>
        <time>2021-08-21T10:48:49Z</time>
      </trkpt>
      <trkpt lat="48.35796" lon="2.73256">
        <ele>111</ele>
        <time>2021-08-21T10:48:50Z</time>
      </trkpt>
      <trkpt lat="48.35796" lon="2.73256">
        <ele>111</ele>
        <time>2021-08-21T10:48:51Z</time>
      </trkpt>
      <trkpt lat="48.35796" lon="2.73256">
        <ele>111</ele>
        <time>2021-08-21T10:48:52Z</time>
      </trkpt>
      <trkpt lat="48.35796" lon="2.73256">
        <ele>111</ele>
        <time>2021-08-21T10:48:53Z</time>
      </trkpt>
      <trkpt lat="48.35796" lon="2.73256">
        <ele>111</ele>
        <time>2021-08-21T10:48:54Z</time>
      </trkpt>
      <trkpt lat="48.35796" lon="2.73256">
        <ele>111</ele>
        <time>2021-08-21T10:48:55Z</time>
      </trkpt>
      <trkpt lat="48.35796" lon="2.73256">
        <ele>111</ele>
        <time>2021-08-21T10:48:56Z</time>
      </trkpt>
      <trkpt lat="48.35796" lon="2.73256">
        <ele>111</ele>
        <time>2021-08-21T10:48:57Z</time>
      </trkpt>
      <trkpt lat="48.35796" lon="2.73256">
        <ele>111</ele>
        <time>2021-08-21T10:48:58Z</time>
      </trkpt>
      <trkpt lat="48.35796" lon="2.73256">
        <ele>111</ele>
        <time>2021-08-21T10:48:59Z</time>
      </trkpt>
      <trkpt lat="48.35796" lon="2.73256">
        <ele>111</ele>
        <time>2021-08-21T10:49:00Z</time>
      </trkpt>
      <trkpt lat="48.35796" lon="2.73256">
        <ele>111</ele>
        <time>2021-08-21T10:49:01Z</time>
      </trkpt>
      <trkpt lat="48.35796" lon="2.73256">
        <ele>111</ele>
        <time>2021-08-21T10:49:02Z</time>
      </trkpt>
      <trkpt lat="48.35796" lon="2.73256">
        <ele>111</ele>
        <time>2021-08-21T10:49:03Z</time>
      </trkpt>
      <trkpt lat="48.35796" lon="2.73256">
        <ele>111</ele>
        <time>2021-08-21T10:49:04Z</time>
      </trkpt>
      <trkpt lat="48.35796" lon="2.73256">
        <ele>111</ele>
        <time>2021-08-21T10:49:05Z</time>
      </trkpt>
      <trkpt lat="48.35796" lon="2.73256">
        <ele>111</ele>
        <time>2021-08-21T10:49:06Z</time>
      </trkpt>
      <trkpt lat="48.35796" lon="2.73256">
        <ele>111</ele>
        <time>2021-08-21T10:49:07Z</time>
      </trkpt>
      <trkpt lat="48.35796" lon="2.73256">
        <ele>111</ele>
        <time>2021-08-21T10:49:08Z</time>
      </trkpt>
      <trkpt lat="48.35796" lon="2.73256">
        <ele>111</ele>
        <time>2021-08-21T10:49:09Z</time>
      </trkpt>
      <trkpt lat="48.35796" lon="2.73256">
        <ele>111</ele>
        <time>2021-08-21T10:49:10Z</time>
      </trkpt>
      <trkpt lat="48.35796" lon="2.73256">
        <ele>111</ele>
        <time>2021-08-21T10:49:11Z</time>
      </trkpt>
      <trkpt lat="48.35796" lon="2.73256">
        <ele>111</ele>
        <time>2021-08-21T10:49:12Z</time>
      </trkpt>
      <trkpt lat="48.35796" lon="2.73256">
        <ele>111</ele>
        <time>2021-08-21T10:49:13Z</time>
      </trkpt>
      <trkpt lat="48.35796" lon="2.73256">
        <ele>111</ele>
        <time>2021-08-21T10:49:14Z</time>
      </trkpt>
      <trkpt lat="48.35796" lon="2.73256">
        <ele>111</ele>
        <time>2021-08-21T10:49:15Z</time>
      </trkpt>
      <trkpt lat="48.35796" lon="2.73256">
        <ele>111</ele>
        <time>2021-08-21T10:49:16Z</time>
      </trkpt>
      <trkpt lat="48.35796" lon="2.73256">
        <ele>111</ele>
        <time>2021-08-21T10:49:17Z</time>
      </trkpt>
      <trkpt lat="48.35796" lon="2.73256">
        <ele>111</ele>
        <time>2021-08-21T10:49:18Z</time>
      </trkpt>
      <trkpt lat="48.35796" lon="2.73256">
        <ele>111</ele>
        <time>2021-08-21T10:49:19Z</time>
      </trkpt>
      <trkpt lat="48.35796" lon="2.73256">
        <ele>111</ele>
        <time>2021-08-21T10:49:20Z</time>
      </trkpt>
      <trkpt lat="48.35796" lon="2.73256">
        <ele>111</ele>
        <time>2021-08-21T10:49:21Z</time>
      </trkpt>
      <trkpt lat="48.35796" lon="2.73256">
        <ele>111</ele>
        <time>2021-08-21T10:49:22Z</time>
      </trkpt>
      <trkpt lat="48.35796" lon="2.73256">
        <ele>111</ele>
        <time>2021-08-21T10:49:23Z</time>
      </trkpt>
      <trkpt lat="48.35796" lon="2.73256">
        <ele>111</ele>
        <time>2021-08-21T10:49:24Z</time>
      </trkpt>
      <trkpt lat="48.35796" lon="2.73256">
        <ele>111</ele>
        <time>2021-08-21T10:49:25Z</time>
      </trkpt>
      <trkpt lat="48.35796" lon="2.73256">
        <ele>111</ele>
        <time>2021-08-21T10:49:26Z</time>
      </trkpt>
      <trkpt lat="48.35796" lon="2.73256">
        <ele>111</ele>
        <time>2021-08-21T10:49:27Z</time>
      </trkpt>
      <trkpt lat="48.35796" lon="2.73256">
        <ele>111</ele>
        <time>2021-08-21T10:49:28Z</time>
      </trkpt>
      <trkpt lat="48.35796" lon="2.73256">
        <ele>111</ele>
        <time>2021-08-21T10:49:29Z</time>
      </trkpt>
      <trkpt lat="48.35796" lon="2.73256">
        <ele>111</ele>
        <time>2021-08-21T10:49:30Z</time>
      </trkpt>
      <trkpt lat="48.35796" lon="2.73256">
        <ele>111</ele>
        <time>2021-08-21T10:49:31Z</time>
      </trkpt>
      <trkpt lat="48.35796" lon="2.73256">
        <ele>111</ele>
        <time>2021-08-21T10:49:32Z</time>
      </trkpt>
      <trkpt lat="48.35796" lon="2.73256">
        <ele>111</ele>
        <time>2021-08-21T10:49:33Z</time>
      </trkpt>
      <trkpt lat="48.35796" lon="2.73256">
        <ele>111</ele>
        <time>2021-08-21T10:49:34Z</time>
      </trkpt>
      <trkpt lat="48.35796" lon="2.73256">
        <ele>111</ele>
        <time>2021-08-21T10:49:35Z</time>
      </trkpt>
      <trkpt lat="48.35796" lon="2.73256">
        <ele>111</ele>
        <time>2021-08-21T10:49:36Z</time>
      </trkpt>
      <trkpt lat="48.35796" lon="2.73256">
        <ele>111</ele>
        <time>2021-08-21T10:49:37Z</time>
      </trkpt>
      <trkpt lat="48.35796" lon="2.73256">
        <ele>111</ele>
        <time>2021-08-21T10:49:38Z</time>
      </trkpt>
      <trkpt lat="48.35796" lon="2.73256">
        <ele>111</ele>
        <time>2021-08-21T10:49:39Z</time>
      </trkpt>
      <trkpt lat="48.35796" lon="2.73256">
        <ele>111</ele>
        <time>2021-08-21T10:49:40Z</time>
      </trkpt>
      <trkpt lat="48.35796" lon="2.73256">
        <ele>111</ele>
        <time>2021-08-21T10:49:41Z</time>
      </trkpt>
      <trkpt lat="48.35796" lon="2.73256">
        <ele>111</ele>
        <time>2021-08-21T10:49:42Z</time>
      </trkpt>
      <trkpt lat="48.35796" lon="2.73256">
        <ele>111</ele>
        <time>2021-08-21T10:49:43Z</time>
      </trkpt>
      <trkpt lat="48.35796" lon="2.73256">
        <ele>111</ele>
        <time>2021-08-21T10:49:44Z</time>
      </trkpt>
      <trkpt lat="48.35796" lon="2.73256">
        <ele>111</ele>
        <time>2021-08-21T10:49:45Z</time>
      </trkpt>
      <trkpt lat="48.35796" lon="2.73256">
        <ele>111</ele>
        <time>2021-08-21T10:49:46Z</time>
      </trkpt>
      <trkpt lat="48.35796" lon="2.73256">
        <ele>111</ele>
        <time>2021-08-21T10:49:47Z</time>
      </trkpt>
      <trkpt lat="48.35796" lon="2.73256">
        <ele>111</ele>
        <time>2021-08-21T10:49:48Z</time>
      </trkpt>
      <trkpt lat="48.35796" lon="2.73256">
        <ele>111</ele>
        <time>2021-08-21T10:49:49Z</time>
      </trkpt>
      <trkpt lat="48.35796" lon="2.73256">
        <ele>111</ele>
        <time>2021-08-21T10:49:50Z</time>
      </trkpt>
      <trkpt lat="48.35796" lon="2.73256">
        <ele>111</ele>
        <time>2021-08-21T10:49:51Z</time>
      </trkpt>
      <trkpt lat="48.35796" lon="2.73256">
        <ele>111</ele>
        <time>2021-08-21T10:49:52Z</time>
      </trkpt>
      <trkpt lat="48.35796" lon="2.73256">
        <ele>111</ele>
        <time>2021-08-21T10:49:53Z</time>
      </trkpt>
      <trkpt lat="48.35796" lon="2.73256">
        <ele>111</ele>
        <time>2021-08-21T10:49:54Z</time>
      </trkpt>
      <trkpt lat="48.35796" lon="2.73256">
        <ele>111</ele>
        <time>2021-08-21T10:49:55Z</time>
      </trkpt>
      <trkpt lat="48.35796" lon="2.73256">
        <ele>111</ele>
        <time>2021-08-21T10:49:56Z</time>
      </trkpt>
      <trkpt lat="48.35796" lon="2.73256">
        <ele>111</ele>
        <time>2021-08-21T10:49:57Z</time>
      </trkpt>
      <trkpt lat="48.35796" lon="2.73256">
        <ele>111</ele>
        <time>2021-08-21T10:49:58Z</time>
      </trkpt>
      <trkpt lat="48.35796" lon="2.73256">
        <ele>111</ele>
        <time>2021-08-21T10:49:59Z</time>
      </trkpt>
      <trkpt lat="48.35796" lon="2.73256">
        <ele>111</ele>
        <time>2021-08-21T10:50:00Z</time>
      </trkpt>
      <trkpt lat="48.35796" lon="2.73256">
        <ele>111</ele>
        <time>2021-08-21T10:50:01Z</time>
      </trkpt>
      <trkpt lat="48.35796" lon="2.73256">
        <ele>111</ele>
        <time>2021-08-21T10:50:02Z</time>
      </trkpt>
      <trkpt lat="48.35796" lon="2.73256">
        <ele>111</ele>
        <time>2021-08-21T10:50:03Z</time>
      </trkpt>
      <trkpt lat="48.35796" lon="2.73256">
        <ele>111</ele>
        <time>2021-08-21T10:50:04Z</time>
      </trkpt>
      <trkpt lat="48.35796" lon="2.73256">
        <ele>111</ele>
        <time>2021-08-21T10:50:05Z</time>
      </trkpt>
      <trkpt lat="48.35796" lon="2.73256">
        <ele>111</ele>
        <time>2021-08-21T10:50:06Z</time>
      </trkpt>
      <trkpt lat="48.35796" lon="2.73256">
        <ele>111</ele>
        <time>2021-08-21T10:50:07Z</time>
      </trkpt>
      <trkpt lat="48.35796" lon="2.73256">
        <ele>111</ele>
        <time>2021-08-21T10:50:08Z</time>
      </trkpt>
      <trkpt lat="48.35796" lon="2.73256">
        <ele>111</ele>
        <time>2021-08-21T10:50:09Z</time>
      </trkpt>
      <trkpt lat="48.35796" lon="2.73256">
        <ele>111</ele>
        <time>2021-08-21T10:50:10Z</time>
      </trkpt>
      <trkpt lat="48.35796" lon="2.73256">
        <ele>111</ele>
        <time>2021-08-21T10:50:11Z</time>
      </trkpt>
      <trkpt lat="48.35796" lon="2.73256">
        <ele>111</ele>
        <time>2021-08-21T10:50:12Z</time>
      </trkpt>
      <trkpt lat="48.35796" lon="2.73256">
        <ele>111</ele>
        <time>2021-08-21T10:50:13Z</time>
      </trkpt>
      <trkpt lat="48.35796" lon="2.73256">
        <ele>111</ele>
        <time>2021-08-21T10:50:14Z</time>
      </trkpt>
      <trkpt lat="48.35796" lon="2.73256">
        <ele>111</ele>
        <time>2021-08-21T10:50:15Z</time>
      </trkpt>
      <trkpt lat="48.35796" lon="2.73256">
        <ele>111</ele>
        <time>2021-08-21T10:50:16Z</time>
      </trkpt>
      <trkpt lat="48.35796" lon="2.73256">
        <ele>111</ele>
        <time>2021-08-21T10:50:17Z</time>
      </trkpt>
      <trkpt lat="48.35796" lon="2.73256">
        <ele>111</ele>
        <time>2021-08-21T10:50:18Z</time>
      </trkpt>
      <trkpt lat="48.35796" lon="2.73256">
        <ele>111</ele>
        <time>2021-08-21T10:50:19Z</time>
      </trkpt>
      <trkpt lat="48.35796" lon="2.73256">
        <ele>111</ele>
        <time>2021-08-21T10:50:20Z</time>
      </trkpt>
      <trkpt lat="48.35796" lon="2.73256">
        <ele>111</ele>
        <time>2021-08-21T10:50:21Z</time>
      </trkpt>
      <trkpt lat="48.35796" lon="2.73256">
        <ele>111</ele>
        <time>2021-08-21T10:50:22Z</time>
      </trkpt>
      <trkpt lat="48.35796" lon="2.73256">
        <ele>111</ele>
        <time>2021-08-21T10:50:23Z</time>
      </trkpt>
      <trkpt lat="48.35796" lon="2.73256">
        <ele>111</ele>
        <time>2021-08-21T10:50:24Z</time>
      </trkpt>
      <trkpt lat="48.35796" lon="2.73256">
        <ele>111</ele>
        <time>2021-08-21T10:50:25Z</time>
      </trkpt>
      <trkpt lat="48.35796" lon="2.73256">
        <ele>111</ele>
        <time>2021-08-21T10:50:26Z</time>
      </trkpt>
      <trkpt lat="48.35796" lon="2.73256">
        <ele>111</ele>
        <time>2021-08-21T10:50:27Z</time>
      </trkpt>
      <trkpt lat="48.35796" lon="2.73256">
        <ele>111</ele>
        <time>2021-08-21T10:50:28Z</time>
      </trkpt>
      <trkpt lat="48.35796" lon="2.73256">
        <ele>111</ele>
        <time>2021-08-21T10:50:29Z</time>
      </trkpt>
      <trkpt lat="48.35796" lon="2.73256">
        <ele>111</ele>
        <time>2021-08-21T10:50:30Z</time>
      </trkpt>
      <trkpt lat="48.35796" lon="2.73256">
        <ele>111</ele>
        <time>2021-08-21T10:50:31Z</time>
      </trkpt>
      <trkpt lat="48.35796" lon="2.73256">
        <ele>111</ele>
        <time>2021-08-21T10:50:32Z</time>
      </trkpt>
      <trkpt lat="48.35796" lon="2.73256">
        <ele>111</ele>
        <time>2021-08-21T10:50:33Z</time>
      </trkpt>
      <trkpt lat="48.35796" lon="2.73256">
        <ele>111</ele>
        <time>2021-08-21T10:50:34Z</time>
      </trkpt>
      <trkpt lat="48.35796" lon="2.73256">
        <ele>111</ele>
        <time>2021-08-21T10:50:35Z</time>
      </trkpt>
      <trkpt lat="48.35796" lon="2.73256">
        <ele>111</ele>
        <time>2021-08-21T10:50:36Z</time>
      </trkpt>
      <trkpt lat="48.35796" lon="2.73256">
        <ele>111</ele>
        <time>2021-08-21T10:50:37Z</time>
      </trkpt>
      <trkpt lat="48.35796" lon="2.73256">
        <ele>111</ele>
        <time>2021-08-21T10:50:38Z</time>
      </trkpt>
      <trkpt lat="48.35796" lon="2.73256">
        <ele>111</ele>
        <time>2021-08-21T10:50:39Z</time>
      </trkpt>
      <trkpt lat="48.35796" lon="2.73256">
        <ele>111</ele>
        <time>2021-08-21T10:50:40Z</time>
      </trkpt>
      <trkpt lat="48.35796" lon="2.73256">
        <ele>111</ele>
        <time>2021-08-21T10:50:41Z</time>
      </trkpt>
      <trkpt lat="48.35796" lon="2.73256">
        <ele>111</ele>
        <time>2021-08-21T10:50:42Z</time>
      </trkpt>
      <trkpt lat="48.35796" lon="2.73256">
        <ele>111</ele>
        <time>2021-08-21T10:50:43Z</time>
      </trkpt>
      <trkpt lat="48.35796" lon="2.73256">
        <ele>111</ele>
        <time>2021-08-21T10:50:44Z</time>
      </trkpt>
      <trkpt lat="48.35796" lon="2.73256">
        <ele>111</ele>
        <time>2021-08-21T10:50:45Z</time>
      </trkpt>
      <trkpt lat="48.35796" lon="2.73256">
        <ele>111</ele>
        <time>2021-08-21T10:50:46Z</time>
      </trkpt>
      <trkpt lat="48.35796" lon="2.73256">
        <ele>111</ele>
        <time>2021-08-21T10:50:47Z</time>
      </trkpt>
      <trkpt lat="48.35796" lon="2.73256">
        <ele>111</ele>
        <time>2021-08-21T10:50:48Z</time>
      </trkpt>
      <trkpt lat="48.35796" lon="2.73256">
        <ele>111</ele>
        <time>2021-08-21T10:50:49Z</time>
      </trkpt>
      <trkpt lat="48.35796" lon="2.73256">
        <ele>111</ele>
        <time>2021-08-21T10:50:50Z</time>
      </trkpt>
      <trkpt lat="48.35796" lon="2.73256">
        <ele>111</ele>
        <time>2021-08-21T10:50:51Z</time>
      </trkpt>
      <trkpt lat="48.35796" lon="2.73256">
        <ele>111</ele>
        <time>2021-08-21T10:50:52Z</time>
      </trkpt>
      <trkpt lat="48.35796" lon="2.73256">
        <ele>111</ele>
        <time>2021-08-21T10:50:53Z</time>
      </trkpt>
      <trkpt lat="48.35796" lon="2.73256">
        <ele>111</ele>
        <time>2021-08-21T10:50:54Z</time>
      </trkpt>
      <trkpt lat="48.35796" lon="2.73256">
        <ele>111</ele>
        <time>2021-08-21T10:50:55Z</time>
      </trkpt>
      <trkpt lat="48.35796" lon="2.73256">
        <ele>111</ele>
        <time>2021-08-21T10:50:56Z</time>
      </trkpt>
      <trkpt lat="48.35796" lon="2.73256">
        <ele>111</ele>
        <time>2021-08-21T10:50:57Z</time>
      </trkpt>
      <trkpt lat="48.35796" lon="2.73256">
        <ele>111</ele>
        <time>2021-08-21T10:50:58Z</time>
      </trkpt>
      <trkpt lat="48.35796" lon="2.73256">
        <ele>111</ele>
        <time>2021-08-21T10:50:59Z</time>
      </trkpt>
      <trkpt lat="48.35796" lon="2.73256">
        <ele>111</ele>
        <time>2021-08-21T10:51:00Z</time>
      </trkpt>
      <trkpt lat="48.35796" lon="2.73256">
        <ele>111</ele>
        <time>2021-08-21T10:51:01Z</time>
      </trkpt>
      <trkpt lat="48.35796" lon="2.73256">
        <ele>111</ele>
        <time>2021-08-21T10:51:02Z</time>
      </trkpt>
      <trkpt lat="48.35796" lon="2.73256">
        <ele>111</ele>
        <time>2021-08-21T10:51:03Z</time>
      </trkpt>
      <trkpt lat="48.35796" lon="2.73256">
        <ele>111</ele>
        <time>2021-08-21T10:51:04Z</time>
      </trkpt>
      <trkpt lat="48.35796" lon="2.73256">
        <ele>111</ele>
        <time>2021-08-21T10:51:05Z</time>
      </trkpt>
      <trkpt lat="48.35796" lon="2.73256">
        <ele>111</ele>
        <time>2021-08-21T10:51:06Z</time>
      </trkpt>
      <trkpt lat="48.35796" lon="2.73256">
        <ele>111</ele>
        <time>2021-08-21T10:51:07Z</time>
      </trkpt>
      <trkpt lat="48.35796" lon="2.73256">
        <ele>111</ele>
        <time>2021-08-21T10:51:08Z</time>
      </trkpt>
      <trkpt lat="48.35796" lon="2.73256">
        <ele>111</ele>
        <time>2021-08-21T10:51:09Z</time>
      </trkpt>
      <trkpt lat="48.35796" lon="2.73256">
        <ele>111</ele>
        <time>2021-08-21T10:51:10Z</time>
      </trkpt>
      <trkpt lat="48.35796" lon="2.73256">
        <ele>111</ele>
        <time>2021-08-21T10:51:11Z</time>
      </trkpt>
      <trkpt lat="48.35796" lon="2.73256">
        <ele>111</ele>
        <time>2021-08-21T10:51:12Z</time>
      </trkpt>
      <trkpt lat="48.35796" lon="2.73256">
        <ele>111</ele>
        <time>2021-08-21T10:51:13Z</time>
      </trkpt>
      <trkpt lat="48.35796" lon="2.73256">
        <ele>111</ele>
        <time>2021-08-21T10:51:14Z</time>
      </trkpt>
      <trkpt lat="48.35796" lon="2.73256">
        <ele>111</ele>
        <time>2021-08-21T10:51:15Z</time>
      </trkpt>
      <trkpt lat="48.35796" lon="2.73256">
        <ele>111</ele>
        <time>2021-08-21T10:51:16Z</time>
      </trkpt>
      <trkpt lat="48.35796" lon="2.73256">
        <ele>111</ele>
        <time>2021-08-21T10:51:17Z</time>
      </trkpt>
      <trkpt lat="48.35796" lon="2.73256">
        <ele>111</ele>
        <time>2021-08-21T10:51:18Z</time>
      </trkpt>
      <trkpt lat="48.35796" lon="2.73256">
        <ele>111</ele>
        <time>2021-08-21T10:51:19Z</time>
      </trkpt>
      <trkpt lat="48.35796" lon="2.73256">
        <ele>111</ele>
        <time>2021-08-21T10:51:20Z</time>
      </trkpt>
      <trkpt lat="48.35796" lon="2.73256">
        <ele>111</ele>
        <time>2021-08-21T10:51:21Z</time>
      </trkpt>
      <trkpt lat="48.35796" lon="2.73256">
        <ele>111</ele>
        <time>2021-08-21T10:51:22Z</time>
      </trkpt>
      <trkpt lat="48.35796" lon="2.73256">
        <ele>111</ele>
        <time>2021-08-21T10:51:23Z</time>
      </trkpt>
      <trkpt lat="48.35796" lon="2.73256">
        <ele>111</ele>
        <time>2021-08-21T10:51:24Z</time>
      </trkpt>
      <trkpt lat="48.35796" lon="2.73256">
        <ele>111</ele>
        <time>2021-08-21T10:51:25Z</time>
      </trkpt>
      <trkpt lat="48.35796" lon="2.73256">
        <ele>111</ele>
        <time>2021-08-21T10:51:26Z</time>
      </trkpt>
      <trkpt lat="48.35796" lon="2.73256">
        <ele>111</ele>
        <time>2021-08-21T10:51:27Z</time>
      </trkpt>
      <trkpt lat="48.35796" lon="2.73256">
        <ele>111</ele>
        <time>2021-08-21T10:51:28Z</time>
      </trkpt>
      <trkpt lat="48.35796" lon="2.73256">
        <ele>111</ele>
        <time>2021-08-21T10:51:29Z</time>
      </trkpt>
      <trkpt lat="48.35796" lon="2.73256">
        <ele>111</ele>
        <time>2021-08-21T10:51:30Z</time>
      </trkpt>
      <trkpt lat="48.35796" lon="2.73256">
        <ele>111</ele>
        <time>2021-08-21T10:51:31Z</time>
      </trkpt>
      <trkpt lat="48.35796" lon="2.73256">
        <ele>111</ele>
        <time>2021-08-21T10:51:32Z</time>
      </trkpt>
      <trkpt lat="48.35796" lon="2.73256">
        <ele>111</ele>
        <time>2021-08-21T10:51:33Z</time>
      </trkpt>
      <trkpt lat="48.35796" lon="2.73256">
        <ele>111</ele>
        <time>2021-08-21T10:51:34Z</time>
      </trkpt>
      <trkpt lat="48.35796" lon="2.73256">
        <ele>111</ele>
        <time>2021-08-21T10:51:35Z</time>
      </trkpt>
      <trkpt lat="48.35796" lon="2.73256">
        <ele>111</ele>
        <time>2021-08-21T10:51:36Z</time>
      </trkpt>
      <trkpt lat="48.35796" lon="2.73256">
        <ele>111</ele>
        <time>2021-08-21T10:51:37Z</time>
      </trkpt>
      <trkpt lat="48.35796" lon="2.73256">
        <ele>111</ele>
        <time>2021-08-21T10:51:38Z</time>
      </trkpt>
      <trkpt lat="48.35796" lon="2.73256">
        <ele>111</ele>
        <time>2021-08-21T10:51:39Z</time>
      </trkpt>
      <trkpt lat="48.35796" lon="2.73256">
        <ele>111</ele>
        <time>2021-08-21T10:51:40Z</time>
      </trkpt>
      <trkpt lat="48.35796" lon="2.73256">
        <ele>111</ele>
        <time>2021-08-21T10:51:41Z</time>
      </trkpt>
      <trkpt lat="48.35796" lon="2.73256">
        <ele>111</ele>
        <time>2021-08-21T10:51:42Z</time>
      </trkpt>
      <trkpt lat="48.35796" lon="2.73256">
        <ele>111</ele>
        <time>2021-08-21T10:51:43Z</time>
      </trkpt>
      <trkpt lat="48.35796" lon="2.73256">
        <ele>111</ele>
        <time>2021-08-21T10:51:44Z</time>
      </trkpt>
      <trkpt lat="48.35796" lon="2.73256">
        <ele>111</ele>
        <time>2021-08-21T10:51:45Z</time>
      </trkpt>
      <trkpt lat="48.35796" lon="2.73256">
        <ele>111</ele>
        <time>2021-08-21T10:51:46Z</time>
      </trkpt>
      <trkpt lat="48.35796" lon="2.73256">
        <ele>111</ele>
        <time>2021-08-21T10:51:47Z</time>
      </trkpt>
      <trkpt lat="48.35796" lon="2.73256">
        <ele>111</ele>
        <time>2021-08-21T10:51:48Z</time>
      </trkpt>
      <trkpt lat="48.35796" lon="2.73256">
        <ele>111</ele>
        <time>2021-08-21T10:51:49Z</time>
      </trkpt>
      <trkpt lat="48.35796" lon="2.73256">
        <ele>111</ele>
        <time>2021-08-21T10:51:50Z</time>
      </trkpt>
      <trkpt lat="48.35796" lon="2.73256">
        <ele>111</ele>
        <time>2021-08-21T10:51:51Z</time>
      </trkpt>
      <trkpt lat="48.35796" lon="2.73256">
        <ele>111</ele>
        <time>2021-08-21T10:51:52Z</time>
      </trkpt>
      <trkpt lat="48.35796" lon="2.73256">
        <ele>111</ele>
        <time>2021-08-21T10:51:53Z</time>
      </trkpt>
      <trkpt lat="48.35796" lon="2.73256">
        <ele>111</ele>
        <time>2021-08-21T10:51:54Z</time>
      </trkpt>
      <trkpt lat="48.35796" lon="2.73256">
        <ele>111</ele>
        <time>2021-08-21T10:51:55Z</time>
      </trkpt>
      <trkpt lat="48.35796" lon="2.73256">
        <ele>111</ele>
        <time>2021-08-21T10:51:56Z</time>
      </trkpt>
      <trkpt lat="48.35796" lon="2.73256">
        <ele>111</ele>
        <time>2021-08-21T10:51:57Z</time>
      </trkpt>
      <trkpt lat="48.35796" lon="2.73256">
        <ele>111</ele>
        <time>2021-08-21T10:51:58Z</time>
      </trkpt>
      <trkpt lat="48.35796" lon="2.73256">
        <ele>111</ele>
        <time>2021-08-21T10:51:59Z</time>
      </trkpt>
      <trkpt lat="48.35796" lon="2.73256">
        <ele>111</ele>
        <time>2021-08-21T10:52:00Z</time>
      </trkpt>
      <trkpt lat="48.35796" lon="2.73256">
        <ele>111</ele>
        <time>2021-08-21T10:52:01Z</time>
      </trkpt>
      <trkpt lat="48.35796" lon="2.73256">
        <ele>111</ele>
        <time>2021-08-21T10:52:02Z</time>
      </trkpt>
      <trkpt lat="48.35796" lon="2.73256">
        <ele>111</ele>
        <time>2021-08-21T10:52:03Z</time>
      </trkpt>
      <trkpt lat="48.35796" lon="2.73256">
        <ele>111</ele>
        <time>2021-08-21T10:52:04Z</time>
      </trkpt>
      <trkpt lat="48.35796" lon="2.73256">
        <ele>111</ele>
        <time>2021-08-21T10:52:05Z</time>
      </trkpt>
      <trkpt lat="48.35796" lon="2.73256">
        <ele>111</ele>
        <time>2021-08-21T10:52:06Z</time>
      </trkpt>
      <trkpt lat="48.35796" lon="2.73256">
        <ele>111</ele>
        <time>2021-08-21T10:52:07Z</time>
      </trkpt>
      <trkpt lat="48.35796" lon="2.73256">
        <ele>111</ele>
        <time>2021-08-21T10:52:08Z</time>
      </trkpt>
      <trkpt lat="48.35796" lon="2.73256">
        <ele>111</ele>
        <time>2021-08-21T10:52:09Z</time>
      </trkpt>
      <trkpt lat="48.35796" lon="2.73256">
        <ele>111</ele>
        <time>2021-08-21T10:52:10Z</time>
      </trkpt>
      <trkpt lat="48.35796" lon="2.73256">
        <ele>111</ele>
        <time>2021-08-21T10:52:11Z</time>
      </trkpt>
      <trkpt lat="48.35796" lon="2.73256">
        <ele>111</ele>
        <time>2021-08-21T10:52:12Z</time>
      </trkpt>
      <trkpt lat="48.35796" lon="2.73256">
        <ele>111</ele>
        <time>2021-08-21T10:52:13Z</time>
      </trkpt>
      <trkpt lat="48.35796" lon="2.73256">
        <ele>111</ele>
        <time>2021-08-21T10:52:14Z</time>
      </trkpt>
      <trkpt lat="48.35796" lon="2.73256">
        <ele>111</ele>
        <time>2021-08-21T10:52:15Z</time>
      </trkpt>
      <trkpt lat="48.35796" lon="2.73256">
        <ele>111</ele>
        <time>2021-08-21T10:52:16Z</time>
      </trkpt>
      <trkpt lat="48.35796" lon="2.73256">
        <ele>111</ele>
        <time>2021-08-21T10:52:17Z</time>
      </trkpt>
      <trkpt lat="48.35796" lon="2.73256">
        <ele>111</ele>
        <time>2021-08-21T10:52:18Z</time>
      </trkpt>
      <trkpt lat="48.35796" lon="2.73256">
        <ele>111</ele>
        <time>2021-08-21T10:52:19Z</time>
      </trkpt>
      <trkpt lat="48.35796" lon="2.73256">
        <ele>111</ele>
        <time>2021-08-21T10:52:20Z</time>
      </trkpt>
      <trkpt lat="48.35796" lon="2.73256">
        <ele>111</ele>
        <time>2021-08-21T10:52:21Z</time>
      </trkpt>
      <trkpt lat="48.35796" lon="2.73256">
        <ele>111</ele>
        <time>2021-08-21T10:52:22Z</time>
      </trkpt>
      <trkpt lat="48.35796" lon="2.73256">
        <ele>111</ele>
        <time>2021-08-21T10:52:23Z</time>
      </trkpt>
      <trkpt lat="48.35796" lon="2.73256">
        <ele>111</ele>
        <time>2021-08-21T10:52:24Z</time>
      </trkpt>
      <trkpt lat="48.35796" lon="2.73256">
        <ele>111</ele>
        <time>2021-08-21T10:52:25Z</time>
      </trkpt>
      <trkpt lat="48.35796" lon="2.73256">
        <ele>111</ele>
        <time>2021-08-21T10:52:26Z</time>
      </trkpt>
      <trkpt lat="48.35796" lon="2.73256">
        <ele>111</ele>
        <time>2021-08-21T10:52:27Z</time>
      </trkpt>
      <trkpt lat="48.35796" lon="2.73256">
        <ele>111</ele>
        <time>2021-08-21T10:52:28Z</time>
      </trkpt>
      <trkpt lat="48.35796" lon="2.73256">
        <ele>111</ele>
        <time>2021-08-21T10:52:29Z</time>
      </trkpt>
      <trkpt lat="48.35796" lon="2.73256">
        <ele>111</ele>
        <time>2021-08-21T10:52:30Z</time>
      </trkpt>
      <trkpt lat="48.35796" lon="2.73256">
        <ele>111</ele>
        <time>2021-08-21T10:52:31Z</time>
      </trkpt>
      <trkpt lat="48.35796" lon="2.73256">
        <ele>111</ele>
        <time>2021-08-21T10:52:32Z</time>
      </trkpt>
      <trkpt lat="48.35796" lon="2.73256">
        <ele>111</ele>
        <time>2021-08-21T10:52:33Z</time>
      </trkpt>
      <trkpt lat="48.35796" lon="2.73256">
        <ele>111</ele>
        <time>2021-08-21T10:52:34Z</time>
      </trkpt>
      <trkpt lat="48.35796" lon="2.73256">
        <ele>111</ele>
        <time>2021-08-21T10:52:35Z</time>
      </trkpt>
      <trkpt lat="48.35796" lon="2.73256">
        <ele>111</ele>
        <time>2021-08-21T10:52:36Z</time>
      </trkpt>
      <trkpt lat="48.35796" lon="2.73256">
        <ele>111</ele>
        <time>2021-08-21T10:52:37Z</time>
      </trkpt>
      <trkpt lat="48.35796" lon="2.73256">
        <ele>111</ele>
        <time>2021-08-21T10:52:38Z</time>
      </trkpt>
      <trkpt lat="48.35796" lon="2.73256">
        <ele>111</ele>
        <time>2021-08-21T10:52:39Z</time>
      </trkpt>
      <trkpt lat="48.35796" lon="2.73256">
        <ele>111</ele>
        <time>2021-08-21T10:52:40Z</time>
      </trkpt>
      <trkpt lat="48.35796" lon="2.73256">
        <ele>111</ele>
        <time>2021-08-21T10:52:41Z</time>
      </trkpt>
      <trkpt lat="48.35796" lon="2.73256">
        <ele>111</ele>
        <time>2021-08-21T10:52:42Z</time>
      </trkpt>
      <trkpt lat="48.35796" lon="2.73256">
        <ele>111</ele>
        <time>2021-08-21T10:52:43Z</time>
      </trkpt>
      <trkpt lat="48.35796" lon="2.73256">
        <ele>111</ele>
        <time>2021-08-21T10:52:44Z</time>
      </trkpt>
      <trkpt lat="48.35796" lon="2.73256">
        <ele>111</ele>
        <time>2021-08-21T10:52:45Z</time>
      </trkpt>
      <trkpt lat="48.35796" lon="2.73256">
        <ele>111</ele>
        <time>2021-08-21T10:52:46Z</time>
      </trkpt>
      <trkpt lat="48.35796" lon="2.73256">
        <ele>111</ele>
        <time>2021-08-21T10:52:47Z</time>
      </trkpt>
      <trkpt lat="48.35796" lon="2.73256">
        <ele>111</ele>
        <time>2021-08-21T10:52:48Z</time>
      </trkpt>
      <trkpt lat="48.35796" lon="2.73256">
        <ele>111</ele>
        <time>2021-08-21T10:52:49Z</time>
      </trkpt>
      <trkpt lat="48.35796" lon="2.73256">
        <ele>111</ele>
        <time>2021-08-21T10:52:50Z</time>
      </trkpt>
      <trkpt lat="48.35796" lon="2.73256">
        <ele>111</ele>
        <time>2021-08-21T10:52:51Z</time>
      </trkpt>
      <trkpt lat="48.35796" lon="2.73256">
        <ele>111</ele>
        <time>2021-08-21T10:52:52Z</time>
      </trkpt>
      <trkpt lat="48.35796" lon="2.73256">
        <ele>111</ele>
        <time>2021-08-21T10:52:53Z</time>
      </trkpt>
      <trkpt lat="48.35796" lon="2.73256">
        <ele>111</ele>
        <time>2021-08-21T10:52:54Z</time>
      </trkpt>
      <trkpt lat="48.35796" lon="2.73256">
        <ele>111</ele>
        <time>2021-08-21T10:52:55Z</time>
      </trkpt>
      <trkpt lat="48.35796" lon="2.73256">
        <ele>111</ele>
        <time>2021-08-21T10:52:56Z</time>
      </trkpt>
      <trkpt lat="48.35796" lon="2.73256">
        <ele>111</ele>
        <time>2021-08-21T10:52:57Z</time>
      </trkpt>
      <trkpt lat="48.35796" lon="2.73256">
        <ele>111</ele>
        <time>2021-08-21T10:52:58Z</time>
      </trkpt>
      <trkpt lat="48.35796" lon="2.73256">
        <ele>111</ele>
        <time>2021-08-21T10:52:59Z</time>
      </trkpt>
      <trkpt lat="48.35796" lon="2.73256">
        <ele>111</ele>
        <time>2021-08-21T10:53:00Z</time>
      </trkpt>
      <trkpt lat="48.35796" lon="2.73256">
        <ele>111</ele>
        <time>2021-08-21T10:53:01Z</time>
      </trkpt>
      <trkpt lat="48.35796" lon="2.73256">
        <ele>111</ele>
        <time>2021-08-21T10:53:02Z</time>
      </trkpt>
      <trkpt lat="48.35796" lon="2.73256">
        <ele>111</ele>
        <time>2021-08-21T10:53:03Z</time>
      </trkpt>
      <trkpt lat="48.35796" lon="2.73256">
        <ele>111</ele>
        <time>2021-08-21T10:53:04Z</time>
      </trkpt>
      <trkpt lat="48.35796" lon="2.73256">
        <ele>111</ele>
        <time>2021-08-21T10:53:05Z</time>
      </trkpt>
      <trkpt lat="48.35796" lon="2.73256">
        <ele>111</ele>
        <time>2021-08-21T10:53:06Z</time>
      </trkpt>
      <trkpt lat="48.35796" lon="2.73256">
        <ele>111</ele>
        <time>2021-08-21T10:53:07Z</time>
      </trkpt>
      <trkpt lat="48.35796" lon="2.73256">
        <ele>111</ele>
        <time>2021-08-21T10:53:08Z</time>
      </trkpt>
      <trkpt lat="48.35796" lon="2.73256">
        <ele>111</ele>
        <time>2021-08-21T10:53:09Z</time>
      </trkpt>
      <trkpt lat="48.35796" lon="2.73256">
        <ele>111</ele>
        <time>2021-08-21T10:53:10Z</time>
      </trkpt>
      <trkpt lat="48.35796" lon="2.73256">
        <ele>111</ele>
        <time>2021-08-21T10:53:11Z</time>
      </trkpt>
      <trkpt lat="48.35796" lon="2.73256">
        <ele>111</ele>
        <time>2021-08-21T10:53:12Z</time>
      </trkpt>
      <trkpt lat="48.35796" lon="2.73256">
        <ele>111</ele>
        <time>2021-08-21T10:53:13Z</time>
      </trkpt>
      <trkpt lat="48.35796" lon="2.73256">
        <ele>111</ele>
        <time>2021-08-21T10:53:14Z</time>
      </trkpt>
      <trkpt lat="48.35796" lon="2.73256">
        <ele>111</ele>
        <time>2021-08-21T10:53:15Z</time>
      </trkpt>
      <trkpt lat="48.35796" lon="2.73256">
        <ele>111</ele>
        <time>2021-08-21T10:53:16Z</time>
      </trkpt>
      <trkpt lat="48.35796" lon="2.73256">
        <ele>111</ele>
        <time>2021-08-21T10:53:17Z</time>
      </trkpt>
      <trkpt lat="48.35796" lon="2.73256">
        <ele>111</ele>
        <time>2021-08-21T10:53:18Z</time>
      </trkpt>
      <trkpt lat="48.35796" lon="2.73256">
        <ele>111</ele>
        <time>2021-08-21T10:53:19Z</time>
      </trkpt>
      <trkpt lat="48.35796" lon="2.73256">
        <ele>111</ele>
        <time>2021-08-21T10:53:20Z</time>
      </trkpt>
      <trkpt lat="48.35796" lon="2.73256">
        <ele>111</ele>
        <time>2021-08-21T10:53:21Z</time>
      </trkpt>
      <trkpt lat="48.35796" lon="2.73256">
        <ele>111</ele>
        <time>2021-08-21T10:53:22Z</time>
      </trkpt>
      <trkpt lat="48.35796" lon="2.73256">
        <ele>111</ele>
        <time>2021-08-21T10:53:23Z</time>
      </trkpt>
      <trkpt lat="48.35796" lon="2.73256">
        <ele>111</ele>
        <time>2021-08-21T10:53:24Z</time>
      </trkpt>
      <trkpt lat="48.35796" lon="2.73256">
        <ele>111</ele>
        <time>2021-08-21T10:53:25Z</time>
      </trkpt>
      <trkpt lat="48.35796" lon="2.73256">
        <ele>111</ele>
        <time>2021-08-21T10:53:26Z</time>
      </trkpt>
      <trkpt lat="48.35796" lon="2.73256">
        <ele>111</ele>
        <time>2021-08-21T10:53:27Z</time>
      </trkpt>
      <trkpt lat="48.35796" lon="2.73256">
        <ele>111</ele>
        <time>2021-08-21T10:53:28Z</time>
      </trkpt>
      <trkpt lat="48.35796" lon="2.73256">
        <ele>111</ele>
        <time>2021-08-21T10:53:29Z</time>
      </trkpt>
      <trkpt lat="48.35796" lon="2.73256">
        <ele>111</ele>
        <time>2021-08-21T10:53:30Z</time>
      </trkpt>
      <trkpt lat="48.35796" lon="2.73256">
        <ele>111</ele>
        <time>2021-08-21T10:53:31Z</time>
      </trkpt>
      <trkpt lat="48.35796" lon="2.73256">
        <ele>111</ele>
        <time>2021-08-21T10:53:32Z</time>
      </trkpt>
      <trkpt lat="48.35796" lon="2.73256">
        <ele>111</ele>
        <time>2021-08-21T10:53:33Z</time>
      </trkpt>
      <trkpt lat="48.35796" lon="2.73256">
        <ele>111</ele>
        <time>2021-08-21T10:53:34Z</time>
      </trkpt>
      <trkpt lat="48.35796" lon="2.73256">
        <ele>111</ele>
        <time>2021-08-21T10:53:35Z</time>
      </trkpt>
      <trkpt lat="48.35796" lon="2.73256">
        <ele>111</ele>
        <time>2021-08-21T10:53:36Z</time>
      </trkpt>
      <trkpt lat="48.35796" lon="2.73256">
        <ele>111</ele>
        <time>2021-08-21T10:53:37Z</time>
      </trkpt>
      <trkpt lat="48.35796" lon="2.73256">
        <ele>111</ele>
        <time>2021-08-21T10:53:38Z</time>
      </trkpt>
      <trkpt lat="48.35796" lon="2.73256">
        <ele>111</ele>
        <time>2021-08-21T10:53:39Z</time>
      </trkpt>
      <trkpt lat="48.35796" lon="2.73256">
        <ele>111</ele>
        <time>2021-08-21T10:53:40Z</time>
      </trkpt>
      <trkpt lat="48.35796" lon="2.73256">
        <ele>111</ele>
        <time>2021-08-21T10:53:41Z</time>
      </trkpt>
      <trkpt lat="48.35796" lon="2.73256">
        <ele>111</ele>
        <time>2021-08-21T10:53:42Z</time>
      </trkpt>
      <trkpt lat="48.35796" lon="2.73256">
        <ele>111</ele>
        <time>2021-08-21T10:53:43Z</time>
      </trkpt>
      <trkpt lat="48.35796" lon="2.73256">
        <ele>111</ele>
        <time>2021-08-21T10:53:44Z</time>
      </trkpt>
      <trkpt lat="48.35796" lon="2.73256">
        <ele>111</ele>
        <time>2021-08-21T10:53:45Z</time>
      </trkpt>
      <trkpt lat="48.35796" lon="2.73256">
        <ele>111</ele>
        <time>2021-08-21T10:53:46Z</time>
      </trkpt>
      <trkpt lat="48.35796" lon="2.73256">
        <ele>111</ele>
        <time>2021-08-21T10:53:47Z</time>
      </trkpt>
      <trkpt lat="48.35796" lon="2.73256">
        <ele>111</ele>
        <time>2021-08-21T10:53:48Z</time>
      </trkpt>
      <trkpt lat="48.35796" lon="2.73256">
        <ele>111</ele>
        <time>2021-08-21T10:53:49Z</time>
      </trkpt>
      <trkpt lat="48.35796" lon="2.73256">
        <ele>111</ele>
        <time>2021-08-21T10:53:50Z</time>
      </trkpt>
      <trkpt lat="48.35796" lon="2.73256">
        <ele>111</ele>
        <time>2021-08-21T10:53:51Z</time>
      </trkpt>
      <trkpt lat="48.35796" lon="2.73256">
        <ele>111</ele>
        <time>2021-08-21T10:53:52Z</time>
      </trkpt>
      <trkpt lat="48.35796" lon="2.73256">
        <ele>111</ele>
        <time>2021-08-21T10:53:53Z</time>
      </trkpt>
      <trkpt lat="48.35796" lon="2.73256">
        <ele>111</ele>
        <time>2021-08-21T10:53:54Z</time>
      </trkpt>
      <trkpt lat="48.35796" lon="2.73256">
        <ele>111</ele>
        <time>2021-08-21T10:53:55Z</time>
      </trkpt>
      <trkpt lat="48.35796" lon="2.73256">
        <ele>111</ele>
        <time>2021-08-21T10:53:56Z</time>
      </trkpt>
      <trkpt lat="48.35796" lon="2.73256">
        <ele>111</ele>
        <time>2021-08-21T10:53:57Z</time>
      </trkpt>
      <trkpt lat="48.35796" lon="2.73256">
        <ele>111</ele>
        <time>2021-08-21T10:53:58Z</time>
      </trkpt>
      <trkpt lat="48.35796" lon="2.73256">
        <ele>111</ele>
        <time>2021-08-21T10:53:59Z</time>
      </trkpt>
      <trkpt lat="48.35796" lon="2.73256">
        <ele>111</ele>
        <time>2021-08-21T10:54:00Z</time>
      </trkpt>
      <trkpt lat="48.35796" lon="2.73256">
        <ele>111</ele>
        <time>2021-08-21T10:54:01Z</time>
      </trkpt>
      <trkpt lat="48.35796" lon="2.73256">
        <ele>111</ele>
        <time>2021-08-21T10:54:02Z</time>
      </trkpt>
      <trkpt lat="48.35796" lon="2.73256">
        <ele>111</ele>
        <time>2021-08-21T10:54:03Z</time>
      </trkpt>
      <trkpt lat="48.35796" lon="2.73256">
        <ele>111</ele>
        <time>2021-08-21T10:54:04Z</time>
      </trkpt>
      <trkpt lat="48.35796" lon="2.73256">
        <ele>111</ele>
        <time>2021-08-21T10:54:05Z</time>
      </trkpt>
      <trkpt lat="48.35796" lon="2.73256">
        <ele>111</ele>
        <time>2021-08-21T10:54:06Z</time>
      </trkpt>
      <trkpt lat="48.35796" lon="2.73256">
        <ele>111</ele>
        <time>2021-08-21T10:54:07Z</time>
      </trkpt>
      <trkpt lat="48.35796" lon="2.73256">
        <ele>111</ele>
        <time>2021-08-21T10:54:08Z</time>
      </trkpt>
      <trkpt lat="48.35796" lon="2.73256">
        <ele>111</ele>
        <time>2021-08-21T10:54:09Z</time>
      </trkpt>
      <trkpt lat="48.35796" lon="2.73256">
        <ele>111</ele>
        <time>2021-08-21T10:54:10Z</time>
      </trkpt>
      <trkpt lat="48.35796" lon="2.73256">
        <ele>111</ele>
        <time>2021-08-21T10:54:11Z</time>
      </trkpt>
      <trkpt lat="48.35796" lon="2.73256">
        <ele>111</ele>
        <time>2021-08-21T10:54:12Z</time>
      </trkpt>
      <trkpt lat="48.35796" lon="2.73256">
        <ele>111</ele>
        <time>2021-08-21T10:54:13Z</time>
      </trkpt>
      <trkpt lat="48.35796" lon="2.73256">
        <ele>111</ele>
        <time>2021-08-21T10:54:14Z</time>
      </trkpt>
      <trkpt lat="48.35796" lon="2.73256">
        <ele>111</ele>
        <time>2021-08-21T10:54:15Z</time>
      </trkpt>
      <trkpt lat="48.35796" lon="2.73256">
        <ele>111</ele>
        <time>2021-08-21T10:54:16Z</time>
      </trkpt>
      <trkpt lat="48.35796" lon="2.73256">
        <ele>111</ele>
        <time>2021-08-21T10:54:17Z</time>
      </trkpt>
      <trkpt lat="48.35796" lon="2.73256">
        <ele>111</ele>
        <time>2021-08-21T10:54:18Z</time>
      </trkpt>
      <trkpt lat="48.35796" lon="2.73256">
        <ele>111.1</ele>
        <time>2021-08-21T10:54:19Z</time>
      </trkpt>
      <trkpt lat="48.35796" lon="2.73256">
        <ele>111.1</ele>
        <time>2021-08-21T10:54:20Z</time>
      </trkpt>
      <trkpt lat="48.35796" lon="2.73256">
        <ele>111.1</ele>
        <time>2021-08-21T10:54:21Z</time>
      </trkpt>
      <trkpt lat="48.35796" lon="2.73256">
        <ele>111.1</ele>
        <time>2021-08-21T10:54:22Z</time>
      </trkpt>
      <trkpt lat="48.35796" lon="2.73256">
        <ele>111.1</ele>
        <time>2021-08-21T10:54:23Z</time>
      </trkpt>
      <trkpt lat="48.35796" lon="2.73256">
        <ele>111.1</ele>
        <time>2021-08-21T10:54:24Z</time>
      </trkpt>
      <trkpt lat="48.35796" lon="2.73256">
        <ele>111.1</ele>
        <time>2021-08-21T10:54:25Z</time>
      </trkpt>
      <trkpt lat="48.35796" lon="2.73256">
        <ele>111.1</ele>
        <time>2021-08-21T10:54:26Z</time>
      </trkpt>
      <trkpt lat="48.35796" lon="2.73256">
        <ele>111.1</ele>
        <time>2021-08-21T10:54:27Z</time>
      </trkpt>
      <trkpt lat="48.35796" lon="2.73256">
        <ele>111.1</ele>
        <time>2021-08-21T10:54:28Z</time>
      </trkpt>
      <trkpt lat="48.35796" lon="2.73256">
        <ele>111.1</ele>
        <time>2021-08-21T10:54:29Z</time>
      </trkpt>
      <trkpt lat="48.35796" lon="2.73256">
        <ele>111.1</ele>
        <time>2021-08-21T10:54:30Z</time>
      </trkpt>
      <trkpt lat="48.35796" lon="2.73256">
        <ele>111.2</ele>
        <time>2021-08-21T10:54:31Z</time>
      </trkpt>
      <trkpt lat="48.35796" lon="2.73256">
        <ele>111.2</ele>
        <time>2021-08-21T10:54:32Z</time>
      </trkpt>
      <trkpt lat="48.35796" lon="2.73256">
        <ele>111.2</ele>
        <time>2021-08-21T10:54:33Z</time>
      </trkpt>
      <trkpt lat="48.35796" lon="2.73256">
        <ele>111.2</ele>
        <time>2021-08-21T10:54:34Z</time>
      </trkpt>
      <trkpt lat="48.35796" lon="2.73256">
        <ele>111.2</ele>
        <time>2021-08-21T10:54:35Z</time>
      </trkpt>
      <trkpt lat="48.35796" lon="2.73256">
        <ele>111.2</ele>
        <time>2021-08-21T10:54:36Z</time>
      </trkpt>
      <trkpt lat="48.35796" lon="2.73256">
        <ele>111.2</ele>
        <time>2021-08-21T10:54:37Z</time>
      </trkpt>
      <trkpt lat="48.35796" lon="2.73256">
        <ele>111.2</ele>
        <time>2021-08-21T10:54:38Z</time>
      </trkpt>
      <trkpt lat="48.35796" lon="2.73256">
        <ele>111.2</ele>
        <time>2021-08-21T10:54:39Z</time>
      </trkpt>
      <trkpt lat="48.35796" lon="2.73256">
        <ele>111.2</ele>
        <time>2021-08-21T10:54:40Z</time>
      </trkpt>
      <trkpt lat="48.35796" lon="2.73256">
        <ele>111.2</ele>
        <time>2021-08-21T10:54:41Z</time>
      </trkpt>
      <trkpt lat="48.35796" lon="2.73256">
        <ele>111.2</ele>
        <time>2021-08-21T10:54:42Z</time>
      </trkpt>
      <trkpt lat="48.35796" lon="2.73256">
        <ele>111.2</ele>
        <time>2021-08-21T10:54:43Z</time>
      </trkpt>
      <trkpt lat="48.35796" lon="2.73256">
        <ele>111.3</ele>
        <time>2021-08-21T10:54:44Z</time>
      </trkpt>
      <trkpt lat="48.35796" lon="2.73256">
        <ele>111.3</ele>
        <time>2021-08-21T10:54:45Z</time>
      </trkpt>
      <trkpt lat="48.35796" lon="2.73256">
        <ele>111.3</ele>
        <time>2021-08-21T10:54:46Z</time>
      </trkpt>
      <trkpt lat="48.35796" lon="2.73256">
        <ele>111.3</ele>
        <time>2021-08-21T10:54:47Z</time>
      </trkpt>
      <trkpt lat="48.35796" lon="2.73256">
        <ele>111.3</ele>
        <time>2021-08-21T10:54:48Z</time>
      </trkpt>
      <trkpt lat="48.35796" lon="2.73256">
        <ele>111.3</ele>
        <time>2021-08-21T10:54:49Z</time>
      </trkpt>
      <trkpt lat="48.35796" lon="2.73256">
        <ele>111.3</ele>
        <time>2021-08-21T10:54:50Z</time>
      </trkpt>
      <trkpt lat="48.35796" lon="2.73256">
        <ele>111.3</ele>
        <time>2021-08-21T10:54:51Z</time>
      </trkpt>
      <trkpt lat="48.35796" lon="2.73256">
        <ele>111.3</ele>
        <time>2021-08-21T10:54:52Z</time>
      </trkpt>
      <trkpt lat="48.35796" lon="2.73256">
        <ele>111.3</ele>
        <time>2021-08-21T10:54:53Z</time>
      </trkpt>
      <trkpt lat="48.35796" lon="2.73256">
        <ele>111.3</ele>
        <time>2021-08-21T10:54:54Z</time>
      </trkpt>
      <trkpt lat="48.35796" lon="2.73256">
        <ele>111.3</ele>
        <time>2021-08-21T10:54:55Z</time>
      </trkpt>
      <trkpt lat="48.35796" lon="2.73256">
        <ele>111.4</ele>
        <time>2021-08-21T10:54:56Z</time>
      </trkpt>
      <trkpt lat="48.35796" lon="2.73256">
        <ele>111.4</ele>
        <time>2021-08-21T10:54:57Z</time>
      </trkpt>
      <trkpt lat="48.35796" lon="2.73256">
        <ele>111.4</ele>
        <time>2021-08-21T10:54:58Z</time>
      </trkpt>
      <trkpt lat="48.35796" lon="2.73256">
        <ele>111.4</ele>
        <time>2021-08-21T10:54:59Z</time>
      </trkpt>
      <trkpt lat="48.35796" lon="2.73256">
        <ele>111.4</ele>
        <time>2021-08-21T10:55:00Z</time>
      </trkpt>
      <trkpt lat="48.35796" lon="2.73256">
        <ele>111.4</ele>
        <time>2021-08-21T10:55:01Z</time>
      </trkpt>
      <trkpt lat="48.35796" lon="2.73256">
        <ele>111.4</ele>
        <time>2021-08-21T10:55:02Z</time>
      </trkpt>
      <trkpt lat="48.35796" lon="2.73256">
        <ele>111.4</ele>
        <time>2021-08-21T10:55:03Z</time>
      </trkpt>
      <trkpt lat="48.35796" lon="2.73256">
        <ele>111.4</ele>
        <time>2021-08-21T10:55:04Z</time>
      </trkpt>
      <trkpt lat="48.35796" lon="2.73256">
        <ele>111.4</ele>
        <time>2021-08-21T10:55:05Z</time>
      </trkpt>
      <trkpt lat="48.35796" lon="2.73256">
        <ele>111.4</ele>
        <time>2021-08-21T10:55:06Z</time>
      </trkpt>
      <trkpt lat="48.35796" lon="2.73256">
        <ele>111.4</ele>
        <time>2021-08-21T10:55:07Z</time>
      </trkpt>
      <trkpt lat="48.35796" lon="2.73256">
        <ele>111.4</ele>
        <time>2021-08-21T10:55:08Z</time>
      </trkpt>
      <trkpt lat="48.35796" lon="2.73256">
        <ele>111.5</ele>
        <time>2021-08-21T10:55:09Z</time>
      </trkpt>
      <trkpt lat="48.35796" lon="2.73256">
        <ele>111.5</ele>
        <time>2021-08-21T10:55:10Z</time>
      </trkpt>
      <trkpt lat="48.35796" lon="2.73256">
        <ele>111.5</ele>
        <time>2021-08-21T10:55:11Z</time>
      </trkpt>
      <trkpt lat="48.35796" lon="2.73256">
        <ele>111.5</ele>
        <time>2021-08-21T10:55:12Z</time>
      </trkpt>
      <trkpt lat="48.35796" lon="2.73256">
        <ele>111.5</ele>
        <time>2021-08-21T10:55:13Z</time>
      </trkpt>
      <trkpt lat="48.35796" lon="2.73256">
        <ele>111.5</ele>
        <time>2021-08-21T10:55:14Z</time>
      </trkpt>
      <trkpt lat="48.35796" lon="2.73256">
        <ele>111.5</ele>
        <time>2021-08-21T10:55:15Z</time>
      </trkpt>
      <trkpt lat="48.35796" lon="2.73256">
        <ele>111.5</ele>
        <time>2021-08-21T10:55:16Z</time>
      </trkpt>
      <trkpt lat="48.35796" lon="2.73256">
        <ele>111.5</ele>
        <time>2021-08-21T10:55:17Z</time>
      </trkpt>
      <trkpt lat="48.35796" lon="2.73256">
        <ele>111.5</ele>
        <time>2021-08-21T10:55:18Z</time>
      </trkpt>
      <trkpt lat="48.35796" lon="2.73256">
        <ele>111.5</ele>
        <time>2021-08-21T10:55:19Z</time>
      </trkpt>
      <trkpt lat="48.35796" lon="2.73256">
        <ele>111.5</ele>
        <time>2021-08-21T10:55:20Z</time>
      </trkpt>
      <trkpt lat="48.35796" lon="2.73256">
        <ele>111.6</ele>
        <time>2021-08-21T10:55:21Z</time>
      </trkpt>
      <trkpt lat="48.35796" lon="2.73256">
        <ele>111.6</ele>
        <time>2021-08-21T10:55:22Z</time>
      </trkpt>
      <trkpt lat="48.35796" lon="2.73256">
        <ele>111.6</ele>
        <time>2021-08-21T10:55:23Z</time>
      </trkpt>
      <trkpt lat="48.35796" lon="2.73256">
        <ele>111.6</ele>
        <time>2021-08-21T10:55:24Z</time>
      </trkpt>
      <trkpt lat="48.35796" lon="2.73256">
        <ele>111.6</ele>
        <time>2021-08-21T10:55:25Z</time>
      </trkpt>
      <trkpt lat="48.35796" lon="2.73256">
        <ele>111.6</ele>
        <time>2021-08-21T10:55:26Z</time>
      </trkpt>
      <trkpt lat="48.35796" lon="2.73256">
        <ele>111.6</ele>
        <time>2021-08-21T10:55:27Z</time>
      </trkpt>
      <trkpt lat="48.35796" lon="2.73256">
        <ele>111.6</ele>
        <time>2021-08-21T10:55:28Z</time>
      </trkpt>
      <trkpt lat="48.35796" lon="2.73256">
        <ele>111.6</ele>
        <time>2021-08-21T10:55:29Z</time>
      </trkpt>
      <trkpt lat="48.35796" lon="2.73256">
        <ele>111.6</ele>
        <time>2021-08-21T10:55:30Z</time>
      </trkpt>
      <trkpt lat="48.35796" lon="2.73256">
        <ele>111.6</ele>
        <time>2021-08-21T10:55:31Z</time>
      </trkpt>
      <trkpt lat="48.35796" lon="2.73256">
        <ele>111.6</ele>
        <time>2021-08-21T10:55:32Z</time>
      </trkpt>
      <trkpt lat="48.35796" lon="2.73256">
        <ele>111.6</ele>
        <time>2021-08-21T10:55:33Z</time>
      </trkpt>
      <trkpt lat="48.35796" lon="2.73256">
        <ele>111.7</ele>
        <time>2021-08-21T10:55:34Z</time>
      </trkpt>
      <trkpt lat="48.35796" lon="2.73256">
        <ele>111.7</ele>
        <time>2021-08-21T10:55:35Z</time>
      </trkpt>
      <trkpt lat="48.35796" lon="2.73256">
        <ele>111.7</ele>
        <time>2021-08-21T10:55:36Z</time>
      </trkpt>
      <trkpt lat="48.35796" lon="2.73256">
        <ele>111.7</ele>
        <time>2021-08-21T10:55:37Z</time>
      </trkpt>
      <trkpt lat="48.35796" lon="2.73256">
        <ele>111.7</ele>
        <time>2021-08-21T10:55:38Z</time>
      </trkpt>
      <trkpt lat="48.35796" lon="2.73256">
        <ele>111.7</ele>
        <time>2021-08-21T10:55:39Z</time>
      </trkpt>
      <trkpt lat="48.35796" lon="2.73256">
        <ele>111.7</ele>
        <time>2021-08-21T10:55:40Z</time>
      </trkpt>
      <trkpt lat="48.35796" lon="2.73256">
        <ele>111.7</ele>
        <time>2021-08-21T10:55:41Z</time>
      </trkpt>
      <trkpt lat="48.35796" lon="2.73256">
        <ele>111.7</ele>
        <time>2021-08-21T10:55:42Z</time>
      </trkpt>
      <trkpt lat="48.35796" lon="2.73256">
        <ele>111.7</ele>
        <time>2021-08-21T10:55:43Z</time>
      </trkpt>
      <trkpt lat="48.35796" lon="2.73256">
        <ele>111.7</ele>
        <time>2021-08-21T10:55:44Z</time>
      </trkpt>
      <trkpt lat="48.35796" lon="2.73256">
        <ele>111.7</ele>
        <time>2021-08-21T10:55:45Z</time>
      </trkpt>
      <trkpt lat="48.35796" lon="2.73256">
        <ele>111.8</ele>
        <time>2021-08-21T10:55:46Z</time>
      </trkpt>
      <trkpt lat="48.35796" lon="2.73256">
        <ele>111.8</ele>
        <time>2021-08-21T10:55:47Z</time>
      </trkpt>
      <trkpt lat="48.35796" lon="2.73256">
        <ele>111.8</ele>
        <time>2021-08-21T10:55:48Z</time>
      </trkpt>
      <trkpt lat="48.35796" lon="2.73256">
        <ele>111.8</ele>
        <time>2021-08-21T10:55:49Z</time>
      </trkpt>
      <trkpt lat="48.35796" lon="2.73256">
        <ele>111.8</ele>
        <time>2021-08-21T10:55:50Z</time>
      </trkpt>
      <trkpt lat="48.35796" lon="2.73256">
        <ele>111.8</ele>
        <time>2021-08-21T10:55:51Z</time>
      </trkpt>
      <trkpt lat="48.35796" lon="2.73256">
        <ele>111.8</ele>
        <time>2021-08-21T10:55:52Z</time>
      </trkpt>
      <trkpt lat="48.35796" lon="2.73256">
        <ele>111.8</ele>
        <time>2021-08-21T10:55:53Z</time>
      </trkpt>
      <trkpt lat="48.35796" lon="2.73256">
        <ele>111.8</ele>
        <time>2021-08-21T10:55:54Z</time>
      </trkpt>
      <trkpt lat="48.35796" lon="2.73256">
        <ele>111.8</ele>
        <time>2021-08-21T10:55:55Z</time>
      </trkpt>
      <trkpt lat="48.35796" lon="2.73256">
        <ele>111.8</ele>
        <time>2021-08-21T10:55:56Z</time>
      </trkpt>
      <trkpt lat="48.35796" lon="2.73256">
        <ele>111.8</ele>
        <time>2021-08-21T10:55:57Z</time>
      </trkpt>
      <trkpt lat="48.35796" lon="2.73256">
        <ele>111.8</ele>
        <time>2021-08-21T10:55:58Z</time>
      </trkpt>
      <trkpt lat="48.35796" lon="2.73256">
        <ele>111.8</ele>
        <time>2021-08-21T10:55:59Z</time>
      </trkpt>
      <trkpt lat="48.35796" lon="2.73256">
        <ele>111.8</ele>
        <time>2021-08-21T10:56:00Z</time>
      </trkpt>
      <trkpt lat="48.35796" lon="2.73256">
        <ele>111.8</ele>
        <time>2021-08-21T10:56:01Z</time>
      </trkpt>
      <trkpt lat="48.35796" lon="2.73256">
        <ele>111.8</ele>
        <time>2021-08-21T10:56:02Z</time>
      </trkpt>
      <trkpt lat="48.35796" lon="2.73256">
        <ele>111.8</ele>
        <time>2021-08-21T10:56:03Z</time>
      </trkpt>
      <trkpt lat="48.35796" lon="2.73256">
        <ele>111.8</ele>
        <time>2021-08-21T10:56:04Z</time>
      </trkpt>
      <trkpt lat="48.35796" lon="2.73256">
        <ele>111.8</ele>
        <time>2021-08-21T10:56:05Z</time>
      </trkpt>
      <trkpt lat="48.35796" lon="2.73256">
        <ele>111.8</ele>
        <time>2021-08-21T10:56:06Z</time>
      </trkpt>
      <trkpt lat="48.35796" lon="2.73256">
        <ele>111.8</ele>
        <time>2021-08-21T10:56:07Z</time>
      </trkpt>
      <trkpt lat="48.35796" lon="2.73256">
        <ele>111.8</ele>
        <time>2021-08-21T10:56:08Z</time>
      </trkpt>
      <trkpt lat="48.35796" lon="2.73256">
        <ele>111.8</ele>
        <time>2021-08-21T10:56:09Z</time>
      </trkpt>
      <trkpt lat="48.35796" lon="2.73256">
        <ele>111.8</ele>
        <time>2021-08-21T10:56:10Z</time>
      </trkpt>
      <trkpt lat="48.35796" lon="2.73256">
        <ele>111.8</ele>
        <time>2021-08-21T10:56:11Z</time>
      </trkpt>
      <trkpt lat="48.35796" lon="2.73256">
        <ele>111.8</ele>
        <time>2021-08-21T10:56:12Z</time>
      </trkpt>
      <trkpt lat="48.35796" lon="2.73256">
        <ele>111.8</ele>
        <time>2021-08-21T10:56:13Z</time>
      </trkpt>
      <trkpt lat="48.35796" lon="2.73256">
        <ele>111.8</ele>
        <time>2021-08-21T10:56:14Z</time>
      </trkpt>
      <trkpt lat="48.35796" lon="2.73256">
        <ele>111.8</ele>
        <time>2021-08-21T10:56:15Z</time>
      </trkpt>
      <trkpt lat="48.35796" lon="2.73256">
        <ele>111.8</ele>
        <time>2021-08-21T10:56:16Z</time>
      </trkpt>
      <trkpt lat="48.35796" lon="2.73256">
        <ele>111.8</ele>
        <time>2021-08-21T10:56:17Z</time>
      </trkpt>
      <trkpt lat="48.35796" lon="2.73256">
        <ele>111.8</ele>
        <time>2021-08-21T10:56:18Z</time>
      </trkpt>
      <trkpt lat="48.35796" lon="2.73256">
        <ele>111.8</ele>
        <time>2021-08-21T10:56:19Z</time>
      </trkpt>
      <trkpt lat="48.35796" lon="2.73256">
        <ele>111.8</ele>
        <time>2021-08-21T10:56:20Z</time>
      </trkpt>
      <trkpt lat="48.35796" lon="2.73256">
        <ele>111.8</ele>
        <time>2021-08-21T10:56:21Z</time>
      </trkpt>
      <trkpt lat="48.35796" lon="2.73256">
        <ele>111.8</ele>
        <time>2021-08-21T10:56:22Z</time>
      </trkpt>
      <trkpt lat="48.35796" lon="2.73256">
        <ele>111.8</ele>
        <time>2021-08-21T10:56:23Z</time>
      </trkpt>
      <trkpt lat="48.35796" lon="2.73256">
        <ele>111.8</ele>
        <time>2021-08-21T10:56:24Z</time>
      </trkpt>
      <trkpt lat="48.35796" lon="2.73256">
        <ele>111.8</ele>
        <time>2021-08-21T10:56:25Z</time>
      </trkpt>
      <trkpt lat="48.35796" lon="2.73256">
        <ele>111.8</ele>
        <time>2021-08-21T10:56:26Z</time>
      </trkpt>
      <trkpt lat="48.35796" lon="2.73256">
        <ele>111.8</ele>
        <time>2021-08-21T10:56:27Z</time>
      </trkpt>
      <trkpt lat="48.35796" lon="2.73256">
        <ele>111.8</ele>
        <time>2021-08-21T10:56:28Z</time>
      </trkpt>
      <trkpt lat="48.35796" lon="2.73256">
        <ele>111.8</ele>
        <time>2021-08-21T10:56:29Z</time>
      </trkpt>
      <trkpt lat="48.35796" lon="2.73256">
        <ele>111.8</ele>
        <time>2021-08-21T10:56:30Z</time>
      </trkpt>
      <trkpt lat="48.35796" lon="2.73256">
        <ele>111.8</ele>
        <time>2021-08-21T10:56:31Z</time>
      </trkpt>
      <trkpt lat="48.35796" lon="2.73256">
        <ele>111.8</ele>
        <time>2021-08-21T10:56:32Z</time>
      </trkpt>
      <trkpt lat="48.35796" lon="2.73256">
        <ele>111.8</ele>
        <time>2021-08-21T10:56:33Z</time>
      </trkpt>
      <trkpt lat="48.35796" lon="2.73256">
        <ele>111.8</ele>
        <time>2021-08-21T10:56:34Z</time>
      </trkpt>
      <trkpt lat="48.35796" lon="2.73256">
        <ele>111.8</ele>
        <time>2021-08-21T10:56:35Z</time>
      </trkpt>
      <trkpt lat="48.35796" lon="2.73256">
        <ele>111.8</ele>
        <time>2021-08-21T10:56:36Z</time>
      </trkpt>
      <trkpt lat="48.35796" lon="2.73256">
        <ele>111.8</ele>
        <time>2021-08-21T10:56:37Z</time>
      </trkpt>
      <trkpt lat="48.35796" lon="2.73256">
        <ele>111.8</ele>
        <time>2021-08-21T10:56:38Z</time>
      </trkpt>
      <trkpt lat="48.35796" lon="2.73256">
        <ele>111.8</ele>
        <time>2021-08-21T10:56:39Z</time>
      </trkpt>
      <trkpt lat="48.35796" lon="2.73256">
        <ele>111.8</ele>
        <time>2021-08-21T10:56:40Z</time>
      </trkpt>
      <trkpt lat="48.35796" lon="2.73256">
        <ele>111.8</ele>
        <time>2021-08-21T10:56:41Z</time>
      </trkpt>
      <trkpt lat="48.35796" lon="2.73256">
        <ele>111.8</ele>
        <time>2021-08-21T10:56:42Z</time>
      </trkpt>
      <trkpt lat="48.35796" lon="2.73256">
        <ele>111.8</ele>
        <time>2021-08-21T10:56:43Z</time>
      </trkpt>
      <trkpt lat="48.35796" lon="2.73256">
        <ele>111.8</ele>
        <time>2021-08-21T10:56:44Z</time>
      </trkpt>
      <trkpt lat="48.35796" lon="2.73256">
        <ele>111.8</ele>
        <time>2021-08-21T10:56:45Z</time>
      </trkpt>
      <trkpt lat="48.35796" lon="2.73256">
        <ele>111.8</ele>
        <time>2021-08-21T10:56:46Z</time>
      </trkpt>
      <trkpt lat="48.35796" lon="2.73256">
        <ele>111.8</ele>
        <time>2021-08-21T10:56:47Z</time>
      </trkpt>
      <trkpt lat="48.35796" lon="2.73256">
        <ele>111.8</ele>
        <time>2021-08-21T10:56:48Z</time>
      </trkpt>
      <trkpt lat="48.35796" lon="2.73256">
        <ele>111.8</ele>
        <time>2021-08-21T10:56:49Z</time>
      </trkpt>
      <trkpt lat="48.35796" lon="2.73256">
        <ele>111.8</ele>
        <time>2021-08-21T10:56:50Z</time>
      </trkpt>
      <trkpt lat="48.35796" lon="2.73256">
        <ele>111.8</ele>
        <time>2021-08-21T10:56:51Z</time>
      </trkpt>
      <trkpt lat="48.35796" lon="2.73256">
        <ele>111.8</ele>
        <time>2021-08-21T10:56:52Z</time>
      </trkpt>
      <trkpt lat="48.35796" lon="2.73256">
        <ele>111.8</ele>
        <time>2021-08-21T10:56:53Z</time>
      </trkpt>
      <trkpt lat="48.35796" lon="2.73256">
        <ele>111.8</ele>
        <time>2021-08-21T10:56:54Z</time>
      </trkpt>
      <trkpt lat="48.35796" lon="2.73256">
        <ele>111.8</ele>
        <time>2021-08-21T10:56:55Z</time>
      </trkpt>
      <trkpt lat="48.35796" lon="2.73256">
        <ele>111.8</ele>
        <time>2021-08-21T10:56:56Z</time>
      </trkpt>
      <trkpt lat="48.35796" lon="2.73256">
        <ele>111.8</ele>
        <time>2021-08-21T10:56:57Z</time>
      </trkpt>
      <trkpt lat="48.35796" lon="2.73256">
        <ele>111.8</ele>
        <time>2021-08-21T10:56:58Z</time>
      </trkpt>
      <trkpt lat="48.35796" lon="2.73256">
        <ele>111.8</ele>
        <time>2021-08-21T10:56:59Z</time>
      </trkpt>
      <trkpt lat="48.35796" lon="2.73256">
        <ele>111.8</ele>
        <time>2021-08-21T10:57:00Z</time>
      </trkpt>
      <trkpt lat="48.35796" lon="2.73256">
        <ele>111.8</ele>
        <time>2021-08-21T10:57:01Z</time>
      </trkpt>
      <trkpt lat="48.35796" lon="2.73256">
        <ele>111.8</ele>
        <time>2021-08-21T10:57:02Z</time>
      </trkpt>
      <trkpt lat="48.35796" lon="2.73256">
        <ele>111.8</ele>
        <time>2021-08-21T10:57:03Z</time>
      </trkpt>
      <trkpt lat="48.35796" lon="2.73256">
        <ele>111.8</ele>
        <time>2021-08-21T10:57:04Z</time>
      </trkpt>
      <trkpt lat="48.35796" lon="2.73256">
        <ele>111.8</ele>
        <time>2021-08-21T10:57:05Z</time>
      </trkpt>
      <trkpt lat="48.35796" lon="2.73256">
        <ele>111.8</ele>
        <time>2021-08-21T10:57:06Z</time>
      </trkpt>
      <trkpt lat="48.35796" lon="2.73256">
        <ele>111.8</ele>
        <time>2021-08-21T10:57:07Z</time>
      </trkpt>
      <trkpt lat="48.35796" lon="2.73256">
        <ele>111.8</ele>
        <time>2021-08-21T10:57:08Z</time>
      </trkpt>
      <trkpt lat="48.35796" lon="2.73256">
        <ele>111.8</ele>
        <time>2021-08-21T10:57:09Z</time>
      </trkpt>
      <trkpt lat="48.35796" lon="2.73256">
        <ele>111.8</ele>
        <time>2021-08-21T10:57:10Z</time>
      </trkpt>
      <trkpt lat="48.35796" lon="2.73256">
        <ele>111.8</ele>
        <time>2021-08-21T10:57:11Z</time>
      </trkpt>
      <trkpt lat="48.35795" lon="2.73256">
        <ele>111.8</ele>
        <time>2021-08-21T10:57:12Z</time>
      </trkpt>
      <trkpt lat="48.35795" lon="2.73256">
        <ele>111.8</ele>
        <time>2021-08-21T10:57:13Z</time>
      </trkpt>
      <trkpt lat="48.35796" lon="2.73257">
        <ele>111.8</ele>
        <time>2021-08-21T10:57:14Z</time>
      </trkpt>
      <trkpt lat="48.35796" lon="2.73257">
        <ele>111.8</ele>
        <time>2021-08-21T10:57:15Z</time>
      </trkpt>
      <trkpt lat="48.35796" lon="2.73257">
        <ele>111.8</ele>
        <time>2021-08-21T10:57:16Z</time>
      </trkpt>
      <trkpt lat="48.35796" lon="2.73257">
        <ele>111.9</ele>
        <time>2021-08-21T10:57:17Z</time>
      </trkpt>
      <trkpt lat="48.35796" lon="2.73257">
        <ele>111.9</ele>
        <time>2021-08-21T10:57:18Z</time>
      </trkpt>
      <trkpt lat="48.35797" lon="2.73257">
        <ele>111.9</ele>
        <time>2021-08-21T10:57:19Z</time>
      </trkpt>
      <trkpt lat="48.35797" lon="2.73257">
        <ele>111.9</ele>
        <time>2021-08-21T10:57:20Z</time>
      </trkpt>
      <trkpt lat="48.35797" lon="2.73257">
        <ele>111.9</ele>
        <time>2021-08-21T10:57:21Z</time>
      </trkpt>
      <trkpt lat="48.35797" lon="2.73257">
        <ele>111.9</ele>
        <time>2021-08-21T10:57:22Z</time>
      </trkpt>
      <trkpt lat="48.35797" lon="2.73258">
        <ele>112</ele>
        <time>2021-08-21T10:57:23Z</time>
      </trkpt>
      <trkpt lat="48.35797" lon="2.73258">
        <ele>112</ele>
        <time>2021-08-21T10:57:24Z</time>
      </trkpt>
      <trkpt lat="48.35797" lon="2.73258">
        <ele>112</ele>
        <time>2021-08-21T10:57:25Z</time>
      </trkpt>
      <trkpt lat="48.35797" lon="2.73257">
        <ele>112</ele>
        <time>2021-08-21T10:57:26Z</time>
      </trkpt>
      <trkpt lat="48.35797" lon="2.73257">
        <ele>112</ele>
        <time>2021-08-21T10:57:27Z</time>
      </trkpt>
      <trkpt lat="48.35797" lon="2.73256">
        <ele>112.1</ele>
        <time>2021-08-21T10:57:28Z</time>
      </trkpt>
      <trkpt lat="48.35797" lon="2.73255">
        <ele>112.1</ele>
        <time>2021-08-21T10:57:29Z</time>
      </trkpt>
      <trkpt lat="48.35797" lon="2.73255">
        <ele>112.1</ele>
        <time>2021-08-21T10:57:30Z</time>
      </trkpt>
      <trkpt lat="48.35797" lon="2.73254">
        <ele>112.2</ele>
        <time>2021-08-21T10:57:31Z</time>
      </trkpt>
      <trkpt lat="48.35796" lon="2.73254">
        <ele>112.2</ele>
        <time>2021-08-21T10:57:32Z</time>
      </trkpt>
      <trkpt lat="48.35796" lon="2.73253">
        <ele>112.3</ele>
        <time>2021-08-21T10:57:33Z</time>
      </trkpt>
      <trkpt lat="48.35795" lon="2.73252">
        <ele>112.3</ele>
        <time>2021-08-21T10:57:34Z</time>
      </trkpt>
      <trkpt lat="48.35795" lon="2.73252">
        <ele>112.3</ele>
        <time>2021-08-21T10:57:35Z</time>
      </trkpt>
      <trkpt lat="48.35795" lon="2.73252">
        <ele>112.3</ele>
        <time>2021-08-21T10:57:36Z</time>
      </trkpt>
      <trkpt lat="48.35795" lon="2.73251">
        <ele>112.4</ele>
        <time>2021-08-21T10:57:37Z</time>
      </trkpt>
      <trkpt lat="48.35794" lon="2.73251">
        <ele>112.4</ele>
        <time>2021-08-21T10:57:38Z</time>
      </trkpt>
      <trkpt lat="48.35793" lon="2.73252">
        <ele>112.5</ele>
        <time>2021-08-21T10:57:39Z</time>
      </trkpt>
      <trkpt lat="48.35794" lon="2.73251">
        <ele>112.5</ele>
        <time>2021-08-21T10:57:40Z</time>
      </trkpt>
      <trkpt lat="48.35795" lon="2.73251">
        <ele>112.5</ele>
        <time>2021-08-21T10:57:41Z</time>
      </trkpt>
      <trkpt lat="48.35795" lon="2.7325">
        <ele>112.6</ele>
        <time>2021-08-21T10:57:42Z</time>
      </trkpt>
      <trkpt lat="48.35795" lon="2.7325">
        <ele>112.6</ele>
        <time>2021-08-21T10:57:43Z</time>
      </trkpt>
      <trkpt lat="48.35795" lon="2.73249">
        <ele>112.7</ele>
        <time>2021-08-21T10:57:44Z</time>
      </trkpt>
      <trkpt lat="48.35794" lon="2.73248">
        <ele>112.7</ele>
        <time>2021-08-21T10:57:45Z</time>
      </trkpt>
      <trkpt lat="48.35794" lon="2.73248">
        <ele>112.7</ele>
        <time>2021-08-21T10:57:46Z</time>
      </trkpt>
      <trkpt lat="48.35794" lon="2.73248">
        <ele>112.7</ele>
        <time>2021-08-21T10:57:47Z</time>
      </trkpt>
      <trkpt lat="48.35794" lon="2.73249">
        <ele>112.7</ele>
        <time>2021-08-21T10:57:48Z</time>
      </trkpt>
      <trkpt lat="48.35794" lon="2.73249">
        <ele>112.8</ele>
        <time>2021-08-21T10:57:49Z</time>
      </trkpt>
      <trkpt lat="48.35795" lon="2.73249">
        <ele>112.8</ele>
        <time>2021-08-21T10:57:50Z</time>
      </trkpt>
      <trkpt lat="48.35795" lon="2.73249">
        <ele>112.8</ele>
        <time>2021-08-21T10:57:51Z</time>
      </trkpt>
      <trkpt lat="48.35795" lon="2.73249">
        <ele>112.8</ele>
        <time>2021-08-21T10:57:52Z</time>
      </trkpt>
      <trkpt lat="48.35795" lon="2.73249">
        <ele>112.8</ele>
        <time>2021-08-21T10:57:53Z</time>
      </trkpt>
      <trkpt lat="48.35795" lon="2.73249">
        <ele>112.8</ele>
        <time>2021-08-21T10:57:54Z</time>
      </trkpt>
      <trkpt lat="48.35795" lon="2.73249">
        <ele>112.8</ele>
        <time>2021-08-21T10:57:55Z</time>
      </trkpt>
      <trkpt lat="48.35795" lon="2.73249">
        <ele>112.8</ele>
        <time>2021-08-21T10:57:56Z</time>
      </trkpt>
      <trkpt lat="48.35795" lon="2.73249">
        <ele>112.8</ele>
        <time>2021-08-21T10:57:57Z</time>
      </trkpt>
      <trkpt lat="48.35795" lon="2.73249">
        <ele>112.8</ele>
        <time>2021-08-21T10:57:58Z</time>
      </trkpt>
      <trkpt lat="48.35795" lon="2.73249">
        <ele>112.8</ele>
        <time>2021-08-21T10:57:59Z</time>
      </trkpt>
      <trkpt lat="48.35795" lon="2.73249">
        <ele>112.8</ele>
        <time>2021-08-21T10:58:00Z</time>
      </trkpt>
      <trkpt lat="48.35795" lon="2.73249">
        <ele>112.8</ele>
        <time>2021-08-21T10:58:01Z</time>
      </trkpt>
      <trkpt lat="48.35795" lon="2.73249">
        <ele>112.8</ele>
        <time>2021-08-21T10:58:02Z</time>
      </trkpt>
      <trkpt lat="48.35795" lon="2.73249">
        <ele>112.8</ele>
        <time>2021-08-21T10:58:03Z</time>
      </trkpt>
      <trkpt lat="48.35795" lon="2.73249">
        <ele>112.8</ele>
        <time>2021-08-21T10:58:04Z</time>
      </trkpt>
      <trkpt lat="48.35795" lon="2.73249">
        <ele>112.8</ele>
        <time>2021-08-21T10:58:05Z</time>
      </trkpt>
      <trkpt lat="48.35795" lon="2.73249">
        <ele>112.8</ele>
        <time>2021-08-21T10:58:06Z</time>
      </trkpt>
      <trkpt lat="48.35795" lon="2.73249">
        <ele>112.8</ele>
        <time>2021-08-21T10:58:07Z</time>
      </trkpt>
      <trkpt lat="48.35795" lon="2.73249">
        <ele>112.8</ele>
        <time>2021-08-21T10:58:08Z</time>
      </trkpt>
      <trkpt lat="48.35795" lon="2.73249">
        <ele>112.8</ele>
        <time>2021-08-21T10:58:09Z</time>
      </trkpt>
      <trkpt lat="48.35795" lon="2.73249">
        <ele>112.8</ele>
        <time>2021-08-21T10:58:10Z</time>
      </trkpt>
      <trkpt lat="48.35795" lon="2.73249">
        <ele>112.8</ele>
        <time>2021-08-21T10:58:11Z</time>
      </trkpt>
      <trkpt lat="48.35795" lon="2.73249">
        <ele>112.8</ele>
        <time>2021-08-21T10:58:12Z</time>
      </trkpt>
      <trkpt lat="48.35795" lon="2.73249">
        <ele>112.8</ele>
        <time>2021-08-21T10:58:13Z</time>
      </trkpt>
      <trkpt lat="48.35795" lon="2.73249">
        <ele>112.8</ele>
        <time>2021-08-21T10:58:14Z</time>
      </trkpt>
      <trkpt lat="48.35795" lon="2.73249">
        <ele>112.8</ele>
        <time>2021-08-21T10:58:15Z</time>
      </trkpt>
      <trkpt lat="48.35795" lon="2.73249">
        <ele>112.8</ele>
        <time>2021-08-21T10:58:16Z</time>
      </trkpt>
      <trkpt lat="48.35795" lon="2.73249">
        <ele>112.8</ele>
        <time>2021-08-21T10:58:17Z</time>
      </trkpt>
      <trkpt lat="48.35795" lon="2.73249">
        <ele>112.8</ele>
        <time>2021-08-21T10:58:18Z</time>
      </trkpt>
      <trkpt lat="48.35795" lon="2.73249">
        <ele>112.8</ele>
        <time>2021-08-21T10:58:19Z</time>
      </trkpt>
      <trkpt lat="48.35795" lon="2.73249">
        <ele>112.8</ele>
        <time>2021-08-21T10:58:20Z</time>
      </trkpt>
      <trkpt lat="48.35795" lon="2.73249">
        <ele>112.8</ele>
        <time>2021-08-21T10:58:21Z</time>
      </trkpt>
      <trkpt lat="48.35795" lon="2.73249">
        <ele>112.8</ele>
        <time>2021-08-21T10:58:22Z</time>
      </trkpt>
      <trkpt lat="48.35795" lon="2.73249">
        <ele>112.8</ele>
        <time>2021-08-21T10:58:23Z</time>
      </trkpt>
      <trkpt lat="48.35795" lon="2.73249">
        <ele>112.8</ele>
        <time>2021-08-21T10:58:24Z</time>
      </trkpt>
      <trkpt lat="48.35795" lon="2.73249">
        <ele>112.8</ele>
        <time>2021-08-21T10:58:25Z</time>
      </trkpt>
      <trkpt lat="48.35795" lon="2.73249">
        <ele>112.8</ele>
        <time>2021-08-21T10:58:26Z</time>
      </trkpt>
      <trkpt lat="48.35795" lon="2.73249">
        <ele>112.8</ele>
        <time>2021-08-21T10:58:27Z</time>
      </trkpt>
      <trkpt lat="48.35795" lon="2.73249">
        <ele>112.8</ele>
        <time>2021-08-21T10:58:28Z</time>
      </trkpt>
      <trkpt lat="48.35795" lon="2.73249">
        <ele>112.8</ele>
        <time>2021-08-21T10:58:29Z</time>
      </trkpt>
      <trkpt lat="48.35795" lon="2.73249">
        <ele>112.8</ele>
        <time>2021-08-21T10:58:30Z</time>
      </trkpt>
      <trkpt lat="48.35795" lon="2.73249">
        <ele>112.8</ele>
        <time>2021-08-21T10:58:31Z</time>
      </trkpt>
      <trkpt lat="48.35795" lon="2.73249">
        <ele>112.8</ele>
        <time>2021-08-21T10:58:32Z</time>
      </trkpt>
      <trkpt lat="48.35795" lon="2.73249">
        <ele>112.8</ele>
        <time>2021-08-21T10:58:33Z</time>
      </trkpt>
      <trkpt lat="48.35795" lon="2.73249">
        <ele>112.8</ele>
        <time>2021-08-21T10:58:34Z</time>
      </trkpt>
      <trkpt lat="48.35795" lon="2.73249">
        <ele>112.8</ele>
        <time>2021-08-21T10:58:35Z</time>
      </trkpt>
      <trkpt lat="48.35795" lon="2.7325">
        <ele>112.8</ele>
        <time>2021-08-21T10:58:36Z</time>
      </trkpt>
      <trkpt lat="48.35795" lon="2.7325">
        <ele>112.8</ele>
        <time>2021-08-21T10:58:37Z</time>
      </trkpt>
      <trkpt lat="48.35795" lon="2.7325">
        <ele>112.8</ele>
        <time>2021-08-21T10:58:38Z</time>
      </trkpt>
      <trkpt lat="48.35795" lon="2.7325">
        <ele>112.8</ele>
        <time>2021-08-21T10:58:39Z</time>
      </trkpt>
      <trkpt lat="48.35795" lon="2.7325">
        <ele>112.8</ele>
        <time>2021-08-21T10:58:40Z</time>
      </trkpt>
      <trkpt lat="48.35795" lon="2.7325">
        <ele>112.8</ele>
        <time>2021-08-21T10:58:41Z</time>
      </trkpt>
      <trkpt lat="48.35795" lon="2.7325">
        <ele>112.8</ele>
        <time>2021-08-21T10:58:42Z</time>
      </trkpt>
      <trkpt lat="48.35795" lon="2.7325">
        <ele>112.8</ele>
        <time>2021-08-21T10:58:43Z</time>
      </trkpt>
      <trkpt lat="48.35795" lon="2.7325">
        <ele>112.8</ele>
        <time>2021-08-21T10:58:44Z</time>
      </trkpt>
      <trkpt lat="48.35795" lon="2.7325">
        <ele>112.8</ele>
        <time>2021-08-21T10:58:45Z</time>
      </trkpt>
      <trkpt lat="48.35795" lon="2.7325">
        <ele>112.8</ele>
        <time>2021-08-21T10:58:46Z</time>
      </trkpt>
      <trkpt lat="48.35795" lon="2.7325">
        <ele>112.8</ele>
        <time>2021-08-21T10:58:47Z</time>
      </trkpt>
      <trkpt lat="48.35795" lon="2.7325">
        <ele>112.8</ele>
        <time>2021-08-21T10:58:48Z</time>
      </trkpt>
      <trkpt lat="48.35795" lon="2.7325">
        <ele>112.8</ele>
        <time>2021-08-21T10:58:49Z</time>
      </trkpt>
      <trkpt lat="48.35795" lon="2.7325">
        <ele>112.8</ele>
        <time>2021-08-21T10:58:50Z</time>
      </trkpt>
      <trkpt lat="48.35795" lon="2.7325">
        <ele>112.8</ele>
        <time>2021-08-21T10:58:51Z</time>
      </trkpt>
      <trkpt lat="48.35795" lon="2.7325">
        <ele>112.8</ele>
        <time>2021-08-21T10:58:52Z</time>
      </trkpt>
      <trkpt lat="48.35795" lon="2.7325">
        <ele>112.8</ele>
        <time>2021-08-21T10:58:53Z</time>
      </trkpt>
      <trkpt lat="48.35795" lon="2.7325">
        <ele>112.8</ele>
        <time>2021-08-21T10:58:54Z</time>
      </trkpt>
      <trkpt lat="48.35795" lon="2.7325">
        <ele>112.8</ele>
        <time>2021-08-21T10:58:55Z</time>
      </trkpt>
      <trkpt lat="48.35795" lon="2.7325">
        <ele>112.8</ele>
        <time>2021-08-21T10:58:56Z</time>
      </trkpt>
      <trkpt lat="48.35795" lon="2.7325">
        <ele>112.8</ele>
        <time>2021-08-21T10:58:57Z</time>
      </trkpt>
      <trkpt lat="48.35795" lon="2.7325">
        <ele>112.8</ele>
        <time>2021-08-21T10:58:58Z</time>
      </trkpt>
      <trkpt lat="48.35795" lon="2.7325">
        <ele>112.8</ele>
        <time>2021-08-21T10:58:59Z</time>
      </trkpt>
      <trkpt lat="48.35795" lon="2.7325">
        <ele>112.8</ele>
        <time>2021-08-21T10:59:00Z</time>
      </trkpt>
      <trkpt lat="48.35795" lon="2.7325">
        <ele>112.8</ele>
        <time>2021-08-21T10:59:01Z</time>
      </trkpt>
      <trkpt lat="48.35795" lon="2.7325">
        <ele>112.8</ele>
        <time>2021-08-21T10:59:02Z</time>
      </trkpt>
      <trkpt lat="48.35795" lon="2.7325">
        <ele>112.9</ele>
        <time>2021-08-21T10:59:03Z</time>
      </trkpt>
      <trkpt lat="48.35795" lon="2.7325">
        <ele>112.9</ele>
        <time>2021-08-21T10:59:04Z</time>
      </trkpt>
      <trkpt lat="48.35794" lon="2.7325">
        <ele>112.9</ele>
        <time>2021-08-21T10:59:05Z</time>
      </trkpt>
      <trkpt lat="48.35794" lon="2.7325">
        <ele>112.9</ele>
        <time>2021-08-21T10:59:06Z</time>
      </trkpt>
      <trkpt lat="48.35795" lon="2.7325">
        <ele>112.9</ele>
        <time>2021-08-21T10:59:07Z</time>
      </trkpt>
      <trkpt lat="48.35795" lon="2.7325">
        <ele>112.9</ele>
        <time>2021-08-21T10:59:08Z</time>
      </trkpt>
      <trkpt lat="48.35795" lon="2.7325">
        <ele>112.9</ele>
        <time>2021-08-21T10:59:09Z</time>
      </trkpt>
      <trkpt lat="48.35795" lon="2.7325">
        <ele>113</ele>
        <time>2021-08-21T10:59:10Z</time>
      </trkpt>
      <trkpt lat="48.35795" lon="2.7325">
        <ele>113</ele>
        <time>2021-08-21T10:59:11Z</time>
      </trkpt>
      <trkpt lat="48.35795" lon="2.7325">
        <ele>113</ele>
        <time>2021-08-21T10:59:12Z</time>
      </trkpt>
      <trkpt lat="48.35795" lon="2.7325">
        <ele>113</ele>
        <time>2021-08-21T10:59:13Z</time>
      </trkpt>
      <trkpt lat="48.35795" lon="2.7325">
        <ele>113</ele>
        <time>2021-08-21T10:59:14Z</time>
      </trkpt>
      <trkpt lat="48.35795" lon="2.7325">
        <ele>113</ele>
        <time>2021-08-21T10:59:15Z</time>
      </trkpt>
      <trkpt lat="48.35795" lon="2.7325">
        <ele>113</ele>
        <time>2021-08-21T10:59:16Z</time>
      </trkpt>
      <trkpt lat="48.35795" lon="2.7325">
        <ele>113</ele>
        <time>2021-08-21T10:59:17Z</time>
      </trkpt>
      <trkpt lat="48.35795" lon="2.7325">
        <ele>113</ele>
        <time>2021-08-21T10:59:18Z</time>
      </trkpt>
      <trkpt lat="48.35795" lon="2.7325">
        <ele>113</ele>
        <time>2021-08-21T10:59:19Z</time>
      </trkpt>
      <trkpt lat="48.35795" lon="2.7325">
        <ele>113</ele>
        <time>2021-08-21T10:59:20Z</time>
      </trkpt>
      <trkpt lat="48.35795" lon="2.7325">
        <ele>113</ele>
        <time>2021-08-21T10:59:21Z</time>
      </trkpt>
      <trkpt lat="48.35795" lon="2.7325">
        <ele>113</ele>
        <time>2021-08-21T10:59:22Z</time>
      </trkpt>
      <trkpt lat="48.35795" lon="2.7325">
        <ele>113</ele>
        <time>2021-08-21T10:59:23Z</time>
      </trkpt>
      <trkpt lat="48.35795" lon="2.7325">
        <ele>113</ele>
        <time>2021-08-21T10:59:24Z</time>
      </trkpt>
      <trkpt lat="48.35795" lon="2.7325">
        <ele>113</ele>
        <time>2021-08-21T10:59:25Z</time>
      </trkpt>
      <trkpt lat="48.35795" lon="2.7325">
        <ele>113</ele>
        <time>2021-08-21T10:59:26Z</time>
      </trkpt>
      <trkpt lat="48.35795" lon="2.7325">
        <ele>113</ele>
        <time>2021-08-21T10:59:27Z</time>
      </trkpt>
      <trkpt lat="48.35795" lon="2.7325">
        <ele>113</ele>
        <time>2021-08-21T10:59:28Z</time>
      </trkpt>
      <trkpt lat="48.35795" lon="2.73251">
        <ele>113</ele>
        <time>2021-08-21T10:59:29Z</time>
      </trkpt>
      <trkpt lat="48.35795" lon="2.7325">
        <ele>113</ele>
        <time>2021-08-21T10:59:30Z</time>
      </trkpt>
      <trkpt lat="48.35795" lon="2.73251">
        <ele>113.1</ele>
        <time>2021-08-21T10:59:31Z</time>
      </trkpt>
      <trkpt lat="48.35795" lon="2.73251">
        <ele>113.1</ele>
        <time>2021-08-21T10:59:32Z</time>
      </trkpt>
      <trkpt lat="48.35795" lon="2.7325">
        <ele>113.1</ele>
        <time>2021-08-21T10:59:33Z</time>
      </trkpt>
      <trkpt lat="48.35795" lon="2.7325">
        <ele>113.2</ele>
        <time>2021-08-21T10:59:34Z</time>
      </trkpt>
      <trkpt lat="48.35795" lon="2.73249">
        <ele>113.2</ele>
        <time>2021-08-21T10:59:35Z</time>
      </trkpt>
      <trkpt lat="48.35795" lon="2.73249">
        <ele>113.2</ele>
        <time>2021-08-21T10:59:36Z</time>
      </trkpt>
      <trkpt lat="48.35794" lon="2.73249">
        <ele>113.3</ele>
        <time>2021-08-21T10:59:37Z</time>
      </trkpt>
      <trkpt lat="48.35794" lon="2.73248">
        <ele>113.3</ele>
        <time>2021-08-21T10:59:38Z</time>
      </trkpt>
      <trkpt lat="48.35793" lon="2.73247">
        <ele>113.4</ele>
        <time>2021-08-21T10:59:39Z</time>
      </trkpt>
      <trkpt lat="48.35792" lon="2.73245">
        <ele>113.5</ele>
        <time>2021-08-21T10:59:40Z</time>
      </trkpt>
      <trkpt lat="48.35792" lon="2.73246">
        <ele>113.6</ele>
        <time>2021-08-21T10:59:41Z</time>
      </trkpt>
      <trkpt lat="48.35791" lon="2.73245">
        <ele>113.6</ele>
        <time>2021-08-21T10:59:42Z</time>
      </trkpt>
      <trkpt lat="48.35791" lon="2.73245">
        <ele>113.6</ele>
        <time>2021-08-21T10:59:43Z</time>
      </trkpt>
      <trkpt lat="48.35791" lon="2.73245">
        <ele>113.7</ele>
        <time>2021-08-21T10:59:44Z</time>
      </trkpt>
      <trkpt lat="48.3579" lon="2.73245">
        <ele>113.8</ele>
        <time>2021-08-21T10:59:45Z</time>
      </trkpt>
      <trkpt lat="48.35789" lon="2.73245">
        <ele>113.8</ele>
        <time>2021-08-21T10:59:46Z</time>
      </trkpt>
      <trkpt lat="48.35788" lon="2.73245">
        <ele>113.9</ele>
        <time>2021-08-21T10:59:47Z</time>
      </trkpt>
      <trkpt lat="48.35788" lon="2.73245">
        <ele>114</ele>
        <time>2021-08-21T10:59:48Z</time>
      </trkpt>
      <trkpt lat="48.35787" lon="2.73245">
        <ele>114</ele>
        <time>2021-08-21T10:59:49Z</time>
      </trkpt>
      <trkpt lat="48.35786" lon="2.73245">
        <ele>114.1</ele>
        <time>2021-08-21T10:59:50Z</time>
      </trkpt>
      <trkpt lat="48.35786" lon="2.73245">
        <ele>114.1</ele>
        <time>2021-08-21T10:59:51Z</time>
      </trkpt>
      <trkpt lat="48.35786" lon="2.73244">
        <ele>114.2</ele>
        <time>2021-08-21T10:59:52Z</time>
      </trkpt>
      <trkpt lat="48.35785" lon="2.73244">
        <ele>114.2</ele>
        <time>2021-08-21T10:59:53Z</time>
      </trkpt>
      <trkpt lat="48.35784" lon="2.73243">
        <ele>114.3</ele>
        <time>2021-08-21T10:59:54Z</time>
      </trkpt>
      <trkpt lat="48.35784" lon="2.73242">
        <ele>114.4</ele>
        <time>2021-08-21T10:59:55Z</time>
      </trkpt>
      <trkpt lat="48.35784" lon="2.73241">
        <ele>114.4</ele>
        <time>2021-08-21T10:59:56Z</time>
      </trkpt>
      <trkpt lat="48.35783" lon="2.7324">
        <ele>114.6</ele>
        <time>2021-08-21T10:59:57Z</time>
      </trkpt>
      <trkpt lat="48.35782" lon="2.73239">
        <ele>114.6</ele>
        <time>2021-08-21T10:59:58Z</time>
      </trkpt>
      <trkpt lat="48.35781" lon="2.73239">
        <ele>114.7</ele>
        <time>2021-08-21T10:59:59Z</time>
      </trkpt>
      <trkpt lat="48.35781" lon="2.73238">
        <ele>114.8</ele>
        <time>2021-08-21T11:00:00Z</time>
      </trkpt>
      <trkpt lat="48.3578" lon="2.73238">
        <ele>114.8</ele>
        <time>2021-08-21T11:00:01Z</time>
      </trkpt>
      <trkpt lat="48.3578" lon="2.73237">
        <ele>114.9</ele>
        <time>2021-08-21T11:00:02Z</time>
      </trkpt>
      <trkpt lat="48.35779" lon="2.73236">
        <ele>115</ele>
        <time>2021-08-21T11:00:03Z</time>
      </trkpt>
      <trkpt lat="48.35778" lon="2.73235">
        <ele>115</ele>
        <time>2021-08-21T11:00:04Z</time>
      </trkpt>
      <trkpt lat="48.35776" lon="2.73235">
        <ele>115.2</ele>
        <time>2021-08-21T11:00:05Z</time>
      </trkpt>
      <trkpt lat="48.35776" lon="2.73235">
        <ele>115.2</ele>
        <time>2021-08-21T11:00:06Z</time>
      </trkpt>
      <trkpt lat="48.35775" lon="2.73235">
        <ele>115.2</ele>
        <time>2021-08-21T11:00:07Z</time>
      </trkpt>
      <trkpt lat="48.35775" lon="2.73235">
        <ele>115.3</ele>
        <time>2021-08-21T11:00:08Z</time>
      </trkpt>
      <trkpt lat="48.35774" lon="2.73235">
        <ele>115.3</ele>
        <time>2021-08-21T11:00:09Z</time>
      </trkpt>
      <trkpt lat="48.35773" lon="2.73234">
        <ele>115.4</ele>
        <time>2021-08-21T11:00:10Z</time>
      </trkpt>
      <trkpt lat="48.35773" lon="2.73233">
        <ele>115.4</ele>
        <time>2021-08-21T11:00:11Z</time>
      </trkpt>
      <trkpt lat="48.35773" lon="2.73233">
        <ele>115.4</ele>
        <time>2021-08-21T11:00:12Z</time>
      </trkpt>
      <trkpt lat="48.35772" lon="2.73232">
        <ele>115.5</ele>
        <time>2021-08-21T11:00:13Z</time>
      </trkpt>
      <trkpt lat="48.35772" lon="2.73233">
        <ele>115.5</ele>
        <time>2021-08-21T11:00:14Z</time>
      </trkpt>
      <trkpt lat="48.35771" lon="2.73233">
        <ele>115.6</ele>
        <time>2021-08-21T11:00:15Z</time>
      </trkpt>
      <trkpt lat="48.3577" lon="2.73233">
        <ele>115.6</ele>
        <time>2021-08-21T11:00:16Z</time>
      </trkpt>
      <trkpt lat="48.3577" lon="2.73233">
        <ele>115.6</ele>
        <time>2021-08-21T11:00:17Z</time>
      </trkpt>
      <trkpt lat="48.35769" lon="2.73233">
        <ele>115.6</ele>
        <time>2021-08-21T11:00:18Z</time>
      </trkpt>
      <trkpt lat="48.35769" lon="2.73233">
        <ele>115.7</ele>
        <time>2021-08-21T11:00:19Z</time>
      </trkpt>
      <trkpt lat="48.35768" lon="2.73234">
        <ele>115.7</ele>
        <time>2021-08-21T11:00:20Z</time>
      </trkpt>
      <trkpt lat="48.35768" lon="2.73234">
        <ele>115.7</ele>
        <time>2021-08-21T11:00:21Z</time>
      </trkpt>
      <trkpt lat="48.35768" lon="2.73234">
        <ele>115.7</ele>
        <time>2021-08-21T11:00:22Z</time>
      </trkpt>
      <trkpt lat="48.35767" lon="2.73234">
        <ele>115.8</ele>
        <time>2021-08-21T11:00:23Z</time>
      </trkpt>
      <trkpt lat="48.35766" lon="2.73235">
        <ele>115.8</ele>
        <time>2021-08-21T11:00:24Z</time>
      </trkpt>
      <trkpt lat="48.35765" lon="2.73235">
        <ele>115.9</ele>
        <time>2021-08-21T11:00:25Z</time>
      </trkpt>
      <trkpt lat="48.35765" lon="2.73235">
        <ele>115.9</ele>
        <time>2021-08-21T11:00:26Z</time>
      </trkpt>
      <trkpt lat="48.35765" lon="2.73235">
        <ele>115.9</ele>
        <time>2021-08-21T11:00:27Z</time>
      </trkpt>
      <trkpt lat="48.35764" lon="2.73235">
        <ele>115.9</ele>
        <time>2021-08-21T11:00:28Z</time>
      </trkpt>
      <trkpt lat="48.35764" lon="2.73235">
        <ele>115.9</ele>
        <time>2021-08-21T11:00:29Z</time>
      </trkpt>
      <trkpt lat="48.35764" lon="2.73234">
        <ele>116</ele>
        <time>2021-08-21T11:00:30Z</time>
      </trkpt>
      <trkpt lat="48.35763" lon="2.73234">
        <ele>116</ele>
        <time>2021-08-21T11:00:31Z</time>
      </trkpt>
      <trkpt lat="48.35762" lon="2.73234">
        <ele>116.1</ele>
        <time>2021-08-21T11:00:32Z</time>
      </trkpt>
      <trkpt lat="48.35761" lon="2.73234">
        <ele>116.1</ele>
        <time>2021-08-21T11:00:33Z</time>
      </trkpt>
      <trkpt lat="48.35761" lon="2.73234">
        <ele>116.1</ele>
        <time>2021-08-21T11:00:34Z</time>
      </trkpt>
      <trkpt lat="48.3576" lon="2.73235">
        <ele>116.2</ele>
        <time>2021-08-21T11:00:35Z</time>
      </trkpt>
      <trkpt lat="48.35759" lon="2.73234">
        <ele>116.2</ele>
        <time>2021-08-21T11:00:36Z</time>
      </trkpt>
      <trkpt lat="48.35758" lon="2.73234">
        <ele>116.3</ele>
        <time>2021-08-21T11:00:37Z</time>
      </trkpt>
      <trkpt lat="48.35758" lon="2.73234">
        <ele>116.3</ele>
        <time>2021-08-21T11:00:38Z</time>
      </trkpt>
      <trkpt lat="48.35757" lon="2.73233">
        <ele>116.4</ele>
        <time>2021-08-21T11:00:39Z</time>
      </trkpt>
      <trkpt lat="48.35756" lon="2.73231">
        <ele>116.5</ele>
        <time>2021-08-21T11:00:40Z</time>
      </trkpt>
      <trkpt lat="48.35755" lon="2.73232">
        <ele>116.5</ele>
        <time>2021-08-21T11:00:41Z</time>
      </trkpt>
      <trkpt lat="48.35754" lon="2.73231">
        <ele>116.6</ele>
        <time>2021-08-21T11:00:42Z</time>
      </trkpt>
      <trkpt lat="48.35754" lon="2.7323">
        <ele>116.6</ele>
        <time>2021-08-21T11:00:43Z</time>
      </trkpt>
      <trkpt lat="48.35753" lon="2.73229">
        <ele>116.7</ele>
        <time>2021-08-21T11:00:44Z</time>
      </trkpt>
      <trkpt lat="48.35751" lon="2.73228">
        <ele>116.8</ele>
        <time>2021-08-21T11:00:45Z</time>
      </trkpt>
      <trkpt lat="48.35751" lon="2.73228">
        <ele>116.9</ele>
        <time>2021-08-21T11:00:46Z</time>
      </trkpt>
      <trkpt lat="48.3575" lon="2.73227">
        <ele>116.9</ele>
        <time>2021-08-21T11:00:47Z</time>
      </trkpt>
      <trkpt lat="48.35749" lon="2.73226">
        <ele>117</ele>
        <time>2021-08-21T11:00:48Z</time>
      </trkpt>
      <trkpt lat="48.35748" lon="2.73226">
        <ele>117.1</ele>
        <time>2021-08-21T11:00:49Z</time>
      </trkpt>
      <trkpt lat="48.35747" lon="2.73226">
        <ele>117.3</ele>
        <time>2021-08-21T11:00:50Z</time>
      </trkpt>
      <trkpt lat="48.35746" lon="2.73225">
        <ele>117.4</ele>
        <time>2021-08-21T11:00:51Z</time>
      </trkpt>
      <trkpt lat="48.35745" lon="2.73225">
        <ele>117.5</ele>
        <time>2021-08-21T11:00:52Z</time>
      </trkpt>
      <trkpt lat="48.35745" lon="2.73224">
        <ele>117.5</ele>
        <time>2021-08-21T11:00:53Z</time>
      </trkpt>
      <trkpt lat="48.35744" lon="2.73224">
        <ele>117.6</ele>
        <time>2021-08-21T11:00:54Z</time>
      </trkpt>
      <trkpt lat="48.35743" lon="2.73223">
        <ele>117.8</ele>
        <time>2021-08-21T11:00:55Z</time>
      </trkpt>
      <trkpt lat="48.35743" lon="2.73222">
        <ele>117.9</ele>
        <time>2021-08-21T11:00:56Z</time>
      </trkpt>
      <trkpt lat="48.35742" lon="2.73221">
        <ele>118</ele>
        <time>2021-08-21T11:00:57Z</time>
      </trkpt>
      <trkpt lat="48.35742" lon="2.73221">
        <ele>118.1</ele>
        <time>2021-08-21T11:00:58Z</time>
      </trkpt>
      <trkpt lat="48.35741" lon="2.73219">
        <ele>118.2</ele>
        <time>2021-08-21T11:00:59Z</time>
      </trkpt>
      <trkpt lat="48.35741" lon="2.73218">
        <ele>118.3</ele>
        <time>2021-08-21T11:01:00Z</time>
      </trkpt>
      <trkpt lat="48.3574" lon="2.73217">
        <ele>118.5</ele>
        <time>2021-08-21T11:01:01Z</time>
      </trkpt>
      <trkpt lat="48.3574" lon="2.73216">
        <ele>118.6</ele>
        <time>2021-08-21T11:01:02Z</time>
      </trkpt>
      <trkpt lat="48.3574" lon="2.73216">
        <ele>118.6</ele>
        <time>2021-08-21T11:01:03Z</time>
      </trkpt>
      <trkpt lat="48.3574" lon="2.73215">
        <ele>118.7</ele>
        <time>2021-08-21T11:01:04Z</time>
      </trkpt>
      <trkpt lat="48.3574" lon="2.73214">
        <ele>118.8</ele>
        <time>2021-08-21T11:01:05Z</time>
      </trkpt>
      <trkpt lat="48.35739" lon="2.73213">
        <ele>118.9</ele>
        <time>2021-08-21T11:01:06Z</time>
      </trkpt>
      <trkpt lat="48.35739" lon="2.73213">
        <ele>119</ele>
        <time>2021-08-21T11:01:07Z</time>
      </trkpt>
      <trkpt lat="48.35739" lon="2.73212">
        <ele>119.1</ele>
        <time>2021-08-21T11:01:08Z</time>
      </trkpt>
      <trkpt lat="48.35738" lon="2.73211">
        <ele>119.2</ele>
        <time>2021-08-21T11:01:09Z</time>
      </trkpt>
      <trkpt lat="48.35738" lon="2.7321">
        <ele>119.4</ele>
        <time>2021-08-21T11:01:10Z</time>
      </trkpt>
      <trkpt lat="48.35737" lon="2.73209">
        <ele>119.5</ele>
        <time>2021-08-21T11:01:11Z</time>
      </trkpt>
      <trkpt lat="48.35737" lon="2.73208">
        <ele>119.6</ele>
        <time>2021-08-21T11:01:12Z</time>
      </trkpt>
      <trkpt lat="48.35737" lon="2.73207">
        <ele>119.7</ele>
        <time>2021-08-21T11:01:13Z</time>
      </trkpt>
      <trkpt lat="48.35737" lon="2.73206">
        <ele>119.9</ele>
        <time>2021-08-21T11:01:14Z</time>
      </trkpt>
      <trkpt lat="48.35737" lon="2.73205">
        <ele>120</ele>
        <time>2021-08-21T11:01:15Z</time>
      </trkpt>
      <trkpt lat="48.35737" lon="2.73204">
        <ele>120.2</ele>
        <time>2021-08-21T11:01:16Z</time>
      </trkpt>
      <trkpt lat="48.35737" lon="2.73203">
        <ele>120.3</ele>
        <time>2021-08-21T11:01:17Z</time>
      </trkpt>
      <trkpt lat="48.35737" lon="2.73203">
        <ele>120.4</ele>
        <time>2021-08-21T11:01:18Z</time>
      </trkpt>
      <trkpt lat="48.35737" lon="2.73202">
        <ele>120.5</ele>
        <time>2021-08-21T11:01:19Z</time>
      </trkpt>
      <trkpt lat="48.35737" lon="2.73201">
        <ele>120.6</ele>
        <time>2021-08-21T11:01:20Z</time>
      </trkpt>
      <trkpt lat="48.35737" lon="2.73199">
        <ele>120.8</ele>
        <time>2021-08-21T11:01:21Z</time>
      </trkpt>
      <trkpt lat="48.35737" lon="2.73199">
        <ele>121</ele>
        <time>2021-08-21T11:01:22Z</time>
      </trkpt>
      <trkpt lat="48.35737" lon="2.73198">
        <ele>121.1</ele>
        <time>2021-08-21T11:01:23Z</time>
      </trkpt>
      <trkpt lat="48.35737" lon="2.73197">
        <ele>121.3</ele>
        <time>2021-08-21T11:01:24Z</time>
      </trkpt>
      <trkpt lat="48.35737" lon="2.73196">
        <ele>121.4</ele>
        <time>2021-08-21T11:01:25Z</time>
      </trkpt>
      <trkpt lat="48.35737" lon="2.73194">
        <ele>121.6</ele>
        <time>2021-08-21T11:01:26Z</time>
      </trkpt>
      <trkpt lat="48.35737" lon="2.73194">
        <ele>121.7</ele>
        <time>2021-08-21T11:01:27Z</time>
      </trkpt>
      <trkpt lat="48.35737" lon="2.73193">
        <ele>121.8</ele>
        <time>2021-08-21T11:01:28Z</time>
      </trkpt>
      <trkpt lat="48.35736" lon="2.73192">
        <ele>122</ele>
        <time>2021-08-21T11:01:29Z</time>
      </trkpt>
      <trkpt lat="48.35736" lon="2.73191">
        <ele>122.1</ele>
        <time>2021-08-21T11:01:30Z</time>
      </trkpt>
      <trkpt lat="48.35735" lon="2.7319">
        <ele>122.4</ele>
        <time>2021-08-21T11:01:31Z</time>
      </trkpt>
      <trkpt lat="48.35735" lon="2.73189">
        <ele>122.5</ele>
        <time>2021-08-21T11:01:32Z</time>
      </trkpt>
      <trkpt lat="48.35735" lon="2.73188">
        <ele>122.7</ele>
        <time>2021-08-21T11:01:33Z</time>
      </trkpt>
      <trkpt lat="48.35735" lon="2.73186">
        <ele>122.9</ele>
        <time>2021-08-21T11:01:34Z</time>
      </trkpt>
      <trkpt lat="48.35736" lon="2.73185">
        <ele>123.1</ele>
        <time>2021-08-21T11:01:35Z</time>
      </trkpt>
      <trkpt lat="48.35736" lon="2.73183">
        <ele>123.4</ele>
        <time>2021-08-21T11:01:36Z</time>
      </trkpt>
      <trkpt lat="48.35736" lon="2.73183">
        <ele>123.5</ele>
        <time>2021-08-21T11:01:37Z</time>
      </trkpt>
      <trkpt lat="48.35735" lon="2.73182">
        <ele>123.6</ele>
        <time>2021-08-21T11:01:38Z</time>
      </trkpt>
      <trkpt lat="48.35735" lon="2.73181">
        <ele>123.7</ele>
        <time>2021-08-21T11:01:39Z</time>
      </trkpt>
      <trkpt lat="48.35735" lon="2.7318">
        <ele>123.8</ele>
        <time>2021-08-21T11:01:40Z</time>
      </trkpt>
      <trkpt lat="48.35735" lon="2.73179">
        <ele>124</ele>
        <time>2021-08-21T11:01:41Z</time>
      </trkpt>
      <trkpt lat="48.35735" lon="2.73178">
        <ele>124.1</ele>
        <time>2021-08-21T11:01:42Z</time>
      </trkpt>
      <trkpt lat="48.35735" lon="2.73178">
        <ele>124.2</ele>
        <time>2021-08-21T11:01:43Z</time>
      </trkpt>
      <trkpt lat="48.35735" lon="2.73178">
        <ele>124.3</ele>
        <time>2021-08-21T11:01:44Z</time>
      </trkpt>
      <trkpt lat="48.35735" lon="2.73178">
        <ele>124.3</ele>
        <time>2021-08-21T11:01:45Z</time>
      </trkpt>
      <trkpt lat="48.35736" lon="2.73179">
        <ele>124.4</ele>
        <time>2021-08-21T11:01:46Z</time>
      </trkpt>
      <trkpt lat="48.35736" lon="2.73179">
        <ele>124.4</ele>
        <time>2021-08-21T11:01:47Z</time>
      </trkpt>
      <trkpt lat="48.35736" lon="2.73179">
        <ele>124.4</ele>
        <time>2021-08-21T11:01:48Z</time>
      </trkpt>
      <trkpt lat="48.35736" lon="2.73179">
        <ele>124.4</ele>
        <time>2021-08-21T11:01:49Z</time>
      </trkpt>
      <trkpt lat="48.35736" lon="2.73179">
        <ele>124.5</ele>
        <time>2021-08-21T11:01:50Z</time>
      </trkpt>
      <trkpt lat="48.35736" lon="2.73179">
        <ele>124.6</ele>
        <time>2021-08-21T11:01:51Z</time>
      </trkpt>
      <trkpt lat="48.35736" lon="2.73179">
        <ele>124.6</ele>
        <time>2021-08-21T11:01:52Z</time>
      </trkpt>
      <trkpt lat="48.35736" lon="2.73179">
        <ele>124.6</ele>
        <time>2021-08-21T11:01:53Z</time>
      </trkpt>
      <trkpt lat="48.35736" lon="2.73179">
        <ele>124.7</ele>
        <time>2021-08-21T11:01:54Z</time>
      </trkpt>
      <trkpt lat="48.35735" lon="2.73178">
        <ele>124.8</ele>
        <time>2021-08-21T11:01:55Z</time>
      </trkpt>
      <trkpt lat="48.35735" lon="2.73178">
        <ele>124.8</ele>
        <time>2021-08-21T11:01:56Z</time>
      </trkpt>
      <trkpt lat="48.35735" lon="2.73178">
        <ele>124.8</ele>
        <time>2021-08-21T11:01:57Z</time>
      </trkpt>
      <trkpt lat="48.35735" lon="2.73178">
        <ele>124.9</ele>
        <time>2021-08-21T11:01:58Z</time>
      </trkpt>
      <trkpt lat="48.35735" lon="2.73178">
        <ele>124.9</ele>
        <time>2021-08-21T11:01:59Z</time>
      </trkpt>
      <trkpt lat="48.35735" lon="2.73178">
        <ele>125</ele>
        <time>2021-08-21T11:02:00Z</time>
      </trkpt>
      <trkpt lat="48.35735" lon="2.73179">
        <ele>125.2</ele>
        <time>2021-08-21T11:02:01Z</time>
      </trkpt>
      <trkpt lat="48.35735" lon="2.73179">
        <ele>125.2</ele>
        <time>2021-08-21T11:02:02Z</time>
      </trkpt>
      <trkpt lat="48.35735" lon="2.73179">
        <ele>125.3</ele>
        <time>2021-08-21T11:02:03Z</time>
      </trkpt>
      <trkpt lat="48.35735" lon="2.73179">
        <ele>125.3</ele>
        <time>2021-08-21T11:02:04Z</time>
      </trkpt>
      <trkpt lat="48.35735" lon="2.73179">
        <ele>125.3</ele>
        <time>2021-08-21T11:02:05Z</time>
      </trkpt>
      <trkpt lat="48.35735" lon="2.73178">
        <ele>125.4</ele>
        <time>2021-08-21T11:02:06Z</time>
      </trkpt>
      <trkpt lat="48.35735" lon="2.73178">
        <ele>125.4</ele>
        <time>2021-08-21T11:02:07Z</time>
      </trkpt>
      <trkpt lat="48.35735" lon="2.73178">
        <ele>125.4</ele>
        <time>2021-08-21T11:02:08Z</time>
      </trkpt>
      <trkpt lat="48.35736" lon="2.73178">
        <ele>125.5</ele>
        <time>2021-08-21T11:02:09Z</time>
      </trkpt>
      <trkpt lat="48.35736" lon="2.73178">
        <ele>125.5</ele>
        <time>2021-08-21T11:02:10Z</time>
      </trkpt>
      <trkpt lat="48.35735" lon="2.73178">
        <ele>125.6</ele>
        <time>2021-08-21T11:02:11Z</time>
      </trkpt>
      <trkpt lat="48.35735" lon="2.73178">
        <ele>125.6</ele>
        <time>2021-08-21T11:02:12Z</time>
      </trkpt>
      <trkpt lat="48.35735" lon="2.73178">
        <ele>125.7</ele>
        <time>2021-08-21T11:02:13Z</time>
      </trkpt>
      <trkpt lat="48.35735" lon="2.73178">
        <ele>125.7</ele>
        <time>2021-08-21T11:02:14Z</time>
      </trkpt>
      <trkpt lat="48.35734" lon="2.73178">
        <ele>125.8</ele>
        <time>2021-08-21T11:02:15Z</time>
      </trkpt>
      <trkpt lat="48.35734" lon="2.73178">
        <ele>125.9</ele>
        <time>2021-08-21T11:02:16Z</time>
      </trkpt>
      <trkpt lat="48.35734" lon="2.73178">
        <ele>126</ele>
        <time>2021-08-21T11:02:17Z</time>
      </trkpt>
      <trkpt lat="48.35733" lon="2.73178">
        <ele>126.1</ele>
        <time>2021-08-21T11:02:18Z</time>
      </trkpt>
      <trkpt lat="48.35733" lon="2.73178">
        <ele>126.2</ele>
        <time>2021-08-21T11:02:19Z</time>
      </trkpt>
      <trkpt lat="48.35732" lon="2.73179">
        <ele>126.3</ele>
        <time>2021-08-21T11:02:20Z</time>
      </trkpt>
      <trkpt lat="48.35731" lon="2.73179">
        <ele>126.6</ele>
        <time>2021-08-21T11:02:21Z</time>
      </trkpt>
      <trkpt lat="48.3573" lon="2.73179">
        <ele>126.8</ele>
        <time>2021-08-21T11:02:22Z</time>
      </trkpt>
      <trkpt lat="48.35729" lon="2.73179">
        <ele>127</ele>
        <time>2021-08-21T11:02:23Z</time>
      </trkpt>
      <trkpt lat="48.35728" lon="2.73179">
        <ele>127.1</ele>
        <time>2021-08-21T11:02:24Z</time>
      </trkpt>
      <trkpt lat="48.35728" lon="2.73178">
        <ele>127.2</ele>
        <time>2021-08-21T11:02:25Z</time>
      </trkpt>
      <trkpt lat="48.35727" lon="2.73177">
        <ele>127.4</ele>
        <time>2021-08-21T11:02:26Z</time>
      </trkpt>
      <trkpt lat="48.35727" lon="2.73177">
        <ele>127.5</ele>
        <time>2021-08-21T11:02:27Z</time>
      </trkpt>
      <trkpt lat="48.35727" lon="2.73176">
        <ele>127.6</ele>
        <time>2021-08-21T11:02:28Z</time>
      </trkpt>
      <trkpt lat="48.35726" lon="2.73175">
        <ele>127.7</ele>
        <time>2021-08-21T11:02:29Z</time>
      </trkpt>
      <trkpt lat="48.35726" lon="2.73174">
        <ele>127.9</ele>
        <time>2021-08-21T11:02:30Z</time>
      </trkpt>
      <trkpt lat="48.35725" lon="2.73174">
        <ele>128.1</ele>
        <time>2021-08-21T11:02:31Z</time>
      </trkpt>
      <trkpt lat="48.35725" lon="2.73174">
        <ele>128.1</ele>
        <time>2021-08-21T11:02:32Z</time>
      </trkpt>
      <trkpt lat="48.35725" lon="2.73173">
        <ele>128.2</ele>
        <time>2021-08-21T11:02:33Z</time>
      </trkpt>
      <trkpt lat="48.35725" lon="2.73173">
        <ele>128.2</ele>
        <time>2021-08-21T11:02:34Z</time>
      </trkpt>
      <trkpt lat="48.35725" lon="2.73172">
        <ele>128.3</ele>
        <time>2021-08-21T11:02:35Z</time>
      </trkpt>
      <trkpt lat="48.35725" lon="2.7317">
        <ele>128.5</ele>
        <time>2021-08-21T11:02:36Z</time>
      </trkpt>
      <trkpt lat="48.35725" lon="2.7317">
        <ele>128.6</ele>
        <time>2021-08-21T11:02:37Z</time>
      </trkpt>
      <trkpt lat="48.35725" lon="2.73169">
        <ele>128.6</ele>
        <time>2021-08-21T11:02:38Z</time>
      </trkpt>
      <trkpt lat="48.35724" lon="2.73168">
        <ele>128.7</ele>
        <time>2021-08-21T11:02:39Z</time>
      </trkpt>
      <trkpt lat="48.35724" lon="2.73167">
        <ele>128.8</ele>
        <time>2021-08-21T11:02:40Z</time>
      </trkpt>
      <trkpt lat="48.35724" lon="2.73166">
        <ele>129</ele>
        <time>2021-08-21T11:02:41Z</time>
      </trkpt>
      <trkpt lat="48.35724" lon="2.73165">
        <ele>129.1</ele>
        <time>2021-08-21T11:02:42Z</time>
      </trkpt>
      <trkpt lat="48.35724" lon="2.73165">
        <ele>129.2</ele>
        <time>2021-08-21T11:02:43Z</time>
      </trkpt>
      <trkpt lat="48.35724" lon="2.73164">
        <ele>129.3</ele>
        <time>2021-08-21T11:02:44Z</time>
      </trkpt>
      <trkpt lat="48.35723" lon="2.73163">
        <ele>129.4</ele>
        <time>2021-08-21T11:02:45Z</time>
      </trkpt>
      <trkpt lat="48.35723" lon="2.73161">
        <ele>129.6</ele>
        <time>2021-08-21T11:02:46Z</time>
      </trkpt>
      <trkpt lat="48.35723" lon="2.7316">
        <ele>129.6</ele>
        <time>2021-08-21T11:02:47Z</time>
      </trkpt>
      <trkpt lat="48.35722" lon="2.7316">
        <ele>129.7</ele>
        <time>2021-08-21T11:02:48Z</time>
      </trkpt>
      <trkpt lat="48.35722" lon="2.7316">
        <ele>129.8</ele>
        <time>2021-08-21T11:02:49Z</time>
      </trkpt>
      <trkpt lat="48.35721" lon="2.73159">
        <ele>129.9</ele>
        <time>2021-08-21T11:02:50Z</time>
      </trkpt>
      <trkpt lat="48.35721" lon="2.73158">
        <ele>130.1</ele>
        <time>2021-08-21T11:02:51Z</time>
      </trkpt>
      <trkpt lat="48.3572" lon="2.73157">
        <ele>130.2</ele>
        <time>2021-08-21T11:02:52Z</time>
      </trkpt>
      <trkpt lat="48.3572" lon="2.73156">
        <ele>130.3</ele>
        <time>2021-08-21T11:02:53Z</time>
      </trkpt>
      <trkpt lat="48.3572" lon="2.73155">
        <ele>130.4</ele>
        <time>2021-08-21T11:02:54Z</time>
      </trkpt>
      <trkpt lat="48.35719" lon="2.73153">
        <ele>130.5</ele>
        <time>2021-08-21T11:02:55Z</time>
      </trkpt>
      <trkpt lat="48.35719" lon="2.73152">
        <ele>130.7</ele>
        <time>2021-08-21T11:02:56Z</time>
      </trkpt>
      <trkpt lat="48.35719" lon="2.73151">
        <ele>130.7</ele>
        <time>2021-08-21T11:02:57Z</time>
      </trkpt>
      <trkpt lat="48.35719" lon="2.7315">
        <ele>130.8</ele>
        <time>2021-08-21T11:02:58Z</time>
      </trkpt>
      <trkpt lat="48.35719" lon="2.73149">
        <ele>130.9</ele>
        <time>2021-08-21T11:02:59Z</time>
      </trkpt>
      <trkpt lat="48.35718" lon="2.73148">
        <ele>131</ele>
        <time>2021-08-21T11:03:00Z</time>
      </trkpt>
      <trkpt lat="48.35718" lon="2.73146">
        <ele>131.1</ele>
        <time>2021-08-21T11:03:01Z</time>
      </trkpt>
      <trkpt lat="48.35718" lon="2.73146">
        <ele>131.1</ele>
        <time>2021-08-21T11:03:02Z</time>
      </trkpt>
      <trkpt lat="48.35718" lon="2.73145">
        <ele>131.2</ele>
        <time>2021-08-21T11:03:03Z</time>
      </trkpt>
      <trkpt lat="48.35718" lon="2.73144">
        <ele>131.3</ele>
        <time>2021-08-21T11:03:04Z</time>
      </trkpt>
      <trkpt lat="48.35719" lon="2.73143">
        <ele>131.3</ele>
        <time>2021-08-21T11:03:05Z</time>
      </trkpt>
      <trkpt lat="48.35719" lon="2.73143">
        <ele>131.4</ele>
        <time>2021-08-21T11:03:06Z</time>
      </trkpt>
      <trkpt lat="48.35719" lon="2.73142">
        <ele>131.4</ele>
        <time>2021-08-21T11:03:07Z</time>
      </trkpt>
      <trkpt lat="48.35719" lon="2.7314">
        <ele>131.5</ele>
        <time>2021-08-21T11:03:08Z</time>
      </trkpt>
      <trkpt lat="48.35719" lon="2.73139">
        <ele>131.6</ele>
        <time>2021-08-21T11:03:09Z</time>
      </trkpt>
      <trkpt lat="48.35718" lon="2.73139">
        <ele>131.6</ele>
        <time>2021-08-21T11:03:10Z</time>
      </trkpt>
      <trkpt lat="48.35719" lon="2.73137">
        <ele>131.7</ele>
        <time>2021-08-21T11:03:11Z</time>
      </trkpt>
      <trkpt lat="48.35719" lon="2.73137">
        <ele>131.7</ele>
        <time>2021-08-21T11:03:12Z</time>
      </trkpt>
      <trkpt lat="48.35719" lon="2.73135">
        <ele>131.8</ele>
        <time>2021-08-21T11:03:13Z</time>
      </trkpt>
      <trkpt lat="48.35719" lon="2.73134">
        <ele>131.8</ele>
        <time>2021-08-21T11:03:14Z</time>
      </trkpt>
      <trkpt lat="48.35719" lon="2.73134">
        <ele>131.9</ele>
        <time>2021-08-21T11:03:15Z</time>
      </trkpt>
      <trkpt lat="48.35719" lon="2.73134">
        <ele>131.9</ele>
        <time>2021-08-21T11:03:16Z</time>
      </trkpt>
      <trkpt lat="48.35719" lon="2.73133">
        <ele>131.9</ele>
        <time>2021-08-21T11:03:17Z</time>
      </trkpt>
      <trkpt lat="48.3572" lon="2.73131">
        <ele>132</ele>
        <time>2021-08-21T11:03:18Z</time>
      </trkpt>
      <trkpt lat="48.35721" lon="2.7313">
        <ele>132</ele>
        <time>2021-08-21T11:03:19Z</time>
      </trkpt>
      <trkpt lat="48.35721" lon="2.73129">
        <ele>132.1</ele>
        <time>2021-08-21T11:03:20Z</time>
      </trkpt>
      <trkpt lat="48.35722" lon="2.73127">
        <ele>132.2</ele>
        <time>2021-08-21T11:03:21Z</time>
      </trkpt>
      <trkpt lat="48.35722" lon="2.73126">
        <ele>132.2</ele>
        <time>2021-08-21T11:03:22Z</time>
      </trkpt>
      <trkpt lat="48.35722" lon="2.73123">
        <ele>132.3</ele>
        <time>2021-08-21T11:03:23Z</time>
      </trkpt>
      <trkpt lat="48.35722" lon="2.73122">
        <ele>132.3</ele>
        <time>2021-08-21T11:03:24Z</time>
      </trkpt>
      <trkpt lat="48.35722" lon="2.73121">
        <ele>132.3</ele>
        <time>2021-08-21T11:03:25Z</time>
      </trkpt>
      <trkpt lat="48.35722" lon="2.7312">
        <ele>132.4</ele>
        <time>2021-08-21T11:03:26Z</time>
      </trkpt>
      <trkpt lat="48.35721" lon="2.7312">
        <ele>132.4</ele>
        <time>2021-08-21T11:03:27Z</time>
      </trkpt>
      <trkpt lat="48.35721" lon="2.7312">
        <ele>132.4</ele>
        <time>2021-08-21T11:03:28Z</time>
      </trkpt>
      <trkpt lat="48.35721" lon="2.7312">
        <ele>132.4</ele>
        <time>2021-08-21T11:03:29Z</time>
      </trkpt>
      <trkpt lat="48.35721" lon="2.7312">
        <ele>132.4</ele>
        <time>2021-08-21T11:03:30Z</time>
      </trkpt>
      <trkpt lat="48.35721" lon="2.7312">
        <ele>132.4</ele>
        <time>2021-08-21T11:03:31Z</time>
      </trkpt>
      <trkpt lat="48.35721" lon="2.7312">
        <ele>132.4</ele>
        <time>2021-08-21T11:03:32Z</time>
      </trkpt>
      <trkpt lat="48.3572" lon="2.7312">
        <ele>132.4</ele>
        <time>2021-08-21T11:03:33Z</time>
      </trkpt>
      <trkpt lat="48.3572" lon="2.7312">
        <ele>132.5</ele>
        <time>2021-08-21T11:03:34Z</time>
      </trkpt>
      <trkpt lat="48.3572" lon="2.7312">
        <ele>132.5</ele>
        <time>2021-08-21T11:03:35Z</time>
      </trkpt>
      <trkpt lat="48.3572" lon="2.7312">
        <ele>132.5</ele>
        <time>2021-08-21T11:03:36Z</time>
      </trkpt>
      <trkpt lat="48.3572" lon="2.7312">
        <ele>132.5</ele>
        <time>2021-08-21T11:03:37Z</time>
      </trkpt>
      <trkpt lat="48.3572" lon="2.7312">
        <ele>132.5</ele>
        <time>2021-08-21T11:03:38Z</time>
      </trkpt>
      <trkpt lat="48.3572" lon="2.7312">
        <ele>132.5</ele>
        <time>2021-08-21T11:03:39Z</time>
      </trkpt>
      <trkpt lat="48.3572" lon="2.7312">
        <ele>132.5</ele>
        <time>2021-08-21T11:03:40Z</time>
      </trkpt>
      <trkpt lat="48.3572" lon="2.7312">
        <ele>132.5</ele>
        <time>2021-08-21T11:03:41Z</time>
      </trkpt>
      <trkpt lat="48.3572" lon="2.7312">
        <ele>132.5</ele>
        <time>2021-08-21T11:03:42Z</time>
      </trkpt>
      <trkpt lat="48.3572" lon="2.7312">
        <ele>132.5</ele>
        <time>2021-08-21T11:03:43Z</time>
      </trkpt>
      <trkpt lat="48.3572" lon="2.73119">
        <ele>132.5</ele>
        <time>2021-08-21T11:03:44Z</time>
      </trkpt>
      <trkpt lat="48.3572" lon="2.73119">
        <ele>132.5</ele>
        <time>2021-08-21T11:03:45Z</time>
      </trkpt>
      <trkpt lat="48.3572" lon="2.73118">
        <ele>132.5</ele>
        <time>2021-08-21T11:03:46Z</time>
      </trkpt>
      <trkpt lat="48.3572" lon="2.73118">
        <ele>132.5</ele>
        <time>2021-08-21T11:03:47Z</time>
      </trkpt>
      <trkpt lat="48.3572" lon="2.73117">
        <ele>132.5</ele>
        <time>2021-08-21T11:03:48Z</time>
      </trkpt>
      <trkpt lat="48.3572" lon="2.73116">
        <ele>132.6</ele>
        <time>2021-08-21T11:03:49Z</time>
      </trkpt>
      <trkpt lat="48.3572" lon="2.73115">
        <ele>132.6</ele>
        <time>2021-08-21T11:03:50Z</time>
      </trkpt>
      <trkpt lat="48.3572" lon="2.73114">
        <ele>132.6</ele>
        <time>2021-08-21T11:03:51Z</time>
      </trkpt>
      <trkpt lat="48.3572" lon="2.73113">
        <ele>132.6</ele>
        <time>2021-08-21T11:03:52Z</time>
      </trkpt>
      <trkpt lat="48.3572" lon="2.73112">
        <ele>132.6</ele>
        <time>2021-08-21T11:03:53Z</time>
      </trkpt>
      <trkpt lat="48.35719" lon="2.73111">
        <ele>132.7</ele>
        <time>2021-08-21T11:03:54Z</time>
      </trkpt>
      <trkpt lat="48.35719" lon="2.7311">
        <ele>132.7</ele>
        <time>2021-08-21T11:03:55Z</time>
      </trkpt>
      <trkpt lat="48.35719" lon="2.73109">
        <ele>132.7</ele>
        <time>2021-08-21T11:03:56Z</time>
      </trkpt>
      <trkpt lat="48.35719" lon="2.73108">
        <ele>132.8</ele>
        <time>2021-08-21T11:03:57Z</time>
      </trkpt>
      <trkpt lat="48.35718" lon="2.73107">
        <ele>132.8</ele>
        <time>2021-08-21T11:03:58Z</time>
      </trkpt>
      <trkpt lat="48.35718" lon="2.73107">
        <ele>132.8</ele>
        <time>2021-08-21T11:03:59Z</time>
      </trkpt>
      <trkpt lat="48.35718" lon="2.73107">
        <ele>132.8</ele>
        <time>2021-08-21T11:04:00Z</time>
      </trkpt>
      <trkpt lat="48.35717" lon="2.73105">
        <ele>132.9</ele>
        <time>2021-08-21T11:04:01Z</time>
      </trkpt>
      <trkpt lat="48.35717" lon="2.73105">
        <ele>132.9</ele>
        <time>2021-08-21T11:04:02Z</time>
      </trkpt>
      <trkpt lat="48.35716" lon="2.73104">
        <ele>132.9</ele>
        <time>2021-08-21T11:04:03Z</time>
      </trkpt>
      <trkpt lat="48.35716" lon="2.73104">
        <ele>132.9</ele>
        <time>2021-08-21T11:04:04Z</time>
      </trkpt>
      <trkpt lat="48.35715" lon="2.73103">
        <ele>133</ele>
        <time>2021-08-21T11:04:05Z</time>
      </trkpt>
      <trkpt lat="48.35715" lon="2.73103">
        <ele>133</ele>
        <time>2021-08-21T11:04:06Z</time>
      </trkpt>
      <trkpt lat="48.35714" lon="2.73102">
        <ele>133.1</ele>
        <time>2021-08-21T11:04:07Z</time>
      </trkpt>
      <trkpt lat="48.35713" lon="2.73101">
        <ele>133.1</ele>
        <time>2021-08-21T11:04:08Z</time>
      </trkpt>
      <trkpt lat="48.35713" lon="2.73101">
        <ele>133.2</ele>
        <time>2021-08-21T11:04:09Z</time>
      </trkpt>
      <trkpt lat="48.35712" lon="2.731">
        <ele>133.2</ele>
        <time>2021-08-21T11:04:10Z</time>
      </trkpt>
      <trkpt lat="48.35711" lon="2.73099">
        <ele>133.3</ele>
        <time>2021-08-21T11:04:11Z</time>
      </trkpt>
      <trkpt lat="48.3571" lon="2.73098">
        <ele>133.4</ele>
        <time>2021-08-21T11:04:12Z</time>
      </trkpt>
      <trkpt lat="48.35709" lon="2.73098">
        <ele>133.5</ele>
        <time>2021-08-21T11:04:13Z</time>
      </trkpt>
      <trkpt lat="48.35708" lon="2.73097">
        <ele>133.6</ele>
        <time>2021-08-21T11:04:14Z</time>
      </trkpt>
      <trkpt lat="48.35707" lon="2.73097">
        <ele>133.7</ele>
        <time>2021-08-21T11:04:15Z</time>
      </trkpt>
      <trkpt lat="48.35706" lon="2.73096">
        <ele>133.8</ele>
        <time>2021-08-21T11:04:16Z</time>
      </trkpt>
      <trkpt lat="48.35704" lon="2.73096">
        <ele>133.9</ele>
        <time>2021-08-21T11:04:17Z</time>
      </trkpt>
      <trkpt lat="48.35704" lon="2.73095">
        <ele>134</ele>
        <time>2021-08-21T11:04:18Z</time>
      </trkpt>
      <trkpt lat="48.35703" lon="2.73095">
        <ele>134.1</ele>
        <time>2021-08-21T11:04:19Z</time>
      </trkpt>
      <trkpt lat="48.35702" lon="2.73094">
        <ele>134.2</ele>
        <time>2021-08-21T11:04:20Z</time>
      </trkpt>
      <trkpt lat="48.35701" lon="2.73094">
        <ele>134.3</ele>
        <time>2021-08-21T11:04:21Z</time>
      </trkpt>
      <trkpt lat="48.357" lon="2.73094">
        <ele>134.4</ele>
        <time>2021-08-21T11:04:22Z</time>
      </trkpt>
      <trkpt lat="48.35699" lon="2.73093">
        <ele>134.5</ele>
        <time>2021-08-21T11:04:23Z</time>
      </trkpt>
      <trkpt lat="48.35699" lon="2.73093">
        <ele>134.6</ele>
        <time>2021-08-21T11:04:24Z</time>
      </trkpt>
      <trkpt lat="48.35699" lon="2.73093">
        <ele>134.6</ele>
        <time>2021-08-21T11:04:25Z</time>
      </trkpt>
      <trkpt lat="48.35699" lon="2.73093">
        <ele>134.6</ele>
        <time>2021-08-21T11:04:26Z</time>
      </trkpt>
      <trkpt lat="48.35699" lon="2.73094">
        <ele>134.6</ele>
        <time>2021-08-21T11:04:27Z</time>
      </trkpt>
      <trkpt lat="48.35698" lon="2.73094">
        <ele>134.7</ele>
        <time>2021-08-21T11:04:28Z</time>
      </trkpt>
      <trkpt lat="48.35698" lon="2.73094">
        <ele>134.7</ele>
        <time>2021-08-21T11:04:29Z</time>
      </trkpt>
      <trkpt lat="48.35698" lon="2.73095">
        <ele>134.8</ele>
        <time>2021-08-21T11:04:30Z</time>
      </trkpt>
      <trkpt lat="48.35698" lon="2.73095">
        <ele>134.8</ele>
        <time>2021-08-21T11:04:31Z</time>
      </trkpt>
      <trkpt lat="48.35697" lon="2.73094">
        <ele>134.9</ele>
        <time>2021-08-21T11:04:32Z</time>
      </trkpt>
      <trkpt lat="48.35697" lon="2.73094">
        <ele>134.9</ele>
        <time>2021-08-21T11:04:33Z</time>
      </trkpt>
      <trkpt lat="48.35696" lon="2.73094">
        <ele>135</ele>
        <time>2021-08-21T11:04:34Z</time>
      </trkpt>
      <trkpt lat="48.35696" lon="2.73093">
        <ele>135.1</ele>
        <time>2021-08-21T11:04:35Z</time>
      </trkpt>
      <trkpt lat="48.35696" lon="2.73092">
        <ele>135.1</ele>
        <time>2021-08-21T11:04:36Z</time>
      </trkpt>
      <trkpt lat="48.35696" lon="2.73091">
        <ele>135.2</ele>
        <time>2021-08-21T11:04:37Z</time>
      </trkpt>
      <trkpt lat="48.35695" lon="2.73091">
        <ele>135.3</ele>
        <time>2021-08-21T11:04:38Z</time>
      </trkpt>
      <trkpt lat="48.35695" lon="2.73091">
        <ele>135.3</ele>
        <time>2021-08-21T11:04:39Z</time>
      </trkpt>
      <trkpt lat="48.35695" lon="2.73091">
        <ele>135.3</ele>
        <time>2021-08-21T11:04:40Z</time>
      </trkpt>
      <trkpt lat="48.35695" lon="2.73091">
        <ele>135.4</ele>
        <time>2021-08-21T11:04:41Z</time>
      </trkpt>
      <trkpt lat="48.35694" lon="2.73091">
        <ele>135.4</ele>
        <time>2021-08-21T11:04:42Z</time>
      </trkpt>
      <trkpt lat="48.35694" lon="2.73091">
        <ele>135.5</ele>
        <time>2021-08-21T11:04:43Z</time>
      </trkpt>
      <trkpt lat="48.35694" lon="2.73091">
        <ele>135.5</ele>
        <time>2021-08-21T11:04:44Z</time>
      </trkpt>
      <trkpt lat="48.35694" lon="2.73091">
        <ele>135.6</ele>
        <time>2021-08-21T11:04:45Z</time>
      </trkpt>
      <trkpt lat="48.35693" lon="2.73091">
        <ele>135.6</ele>
        <time>2021-08-21T11:04:46Z</time>
      </trkpt>
      <trkpt lat="48.35693" lon="2.73091">
        <ele>135.7</ele>
        <time>2021-08-21T11:04:47Z</time>
      </trkpt>
      <trkpt lat="48.35693" lon="2.7309">
        <ele>135.7</ele>
        <time>2021-08-21T11:04:48Z</time>
      </trkpt>
      <trkpt lat="48.35692" lon="2.7309">
        <ele>135.9</ele>
        <time>2021-08-21T11:04:49Z</time>
      </trkpt>
      <trkpt lat="48.35692" lon="2.73089">
        <ele>135.9</ele>
        <time>2021-08-21T11:04:50Z</time>
      </trkpt>
      <trkpt lat="48.35691" lon="2.73089">
        <ele>136</ele>
        <time>2021-08-21T11:04:51Z</time>
      </trkpt>
      <trkpt lat="48.35691" lon="2.73088">
        <ele>136</ele>
        <time>2021-08-21T11:04:52Z</time>
      </trkpt>
      <trkpt lat="48.35692" lon="2.73088">
        <ele>136</ele>
        <time>2021-08-21T11:04:53Z</time>
      </trkpt>
      <trkpt lat="48.35692" lon="2.73088">
        <ele>136</ele>
        <time>2021-08-21T11:04:54Z</time>
      </trkpt>
      <trkpt lat="48.35692" lon="2.73088">
        <ele>136.1</ele>
        <time>2021-08-21T11:04:55Z</time>
      </trkpt>
      <trkpt lat="48.35692" lon="2.73088">
        <ele>136.1</ele>
        <time>2021-08-21T11:04:56Z</time>
      </trkpt>
      <trkpt lat="48.35692" lon="2.73089">
        <ele>136.1</ele>
        <time>2021-08-21T11:04:57Z</time>
      </trkpt>
      <trkpt lat="48.35692" lon="2.73089">
        <ele>136.1</ele>
        <time>2021-08-21T11:04:58Z</time>
      </trkpt>
      <trkpt lat="48.35692" lon="2.73089">
        <ele>136.2</ele>
        <time>2021-08-21T11:04:59Z</time>
      </trkpt>
      <trkpt lat="48.35692" lon="2.73089">
        <ele>136.2</ele>
        <time>2021-08-21T11:05:00Z</time>
      </trkpt>
      <trkpt lat="48.35692" lon="2.73089">
        <ele>136.2</ele>
        <time>2021-08-21T11:05:01Z</time>
      </trkpt>
      <trkpt lat="48.35692" lon="2.73089">
        <ele>136.2</ele>
        <time>2021-08-21T11:05:02Z</time>
      </trkpt>
      <trkpt lat="48.35692" lon="2.7309">
        <ele>136.3</ele>
        <time>2021-08-21T11:05:03Z</time>
      </trkpt>
      <trkpt lat="48.35692" lon="2.7309">
        <ele>136.3</ele>
        <time>2021-08-21T11:05:04Z</time>
      </trkpt>
      <trkpt lat="48.35692" lon="2.73089">
        <ele>136.3</ele>
        <time>2021-08-21T11:05:05Z</time>
      </trkpt>
      <trkpt lat="48.35692" lon="2.73089">
        <ele>136.3</ele>
        <time>2021-08-21T11:05:06Z</time>
      </trkpt>
      <trkpt lat="48.35692" lon="2.73089">
        <ele>136.4</ele>
        <time>2021-08-21T11:05:07Z</time>
      </trkpt>
      <trkpt lat="48.35692" lon="2.73089">
        <ele>136.4</ele>
        <time>2021-08-21T11:05:08Z</time>
      </trkpt>
      <trkpt lat="48.35692" lon="2.73089">
        <ele>136.4</ele>
        <time>2021-08-21T11:05:09Z</time>
      </trkpt>
      <trkpt lat="48.35692" lon="2.73089">
        <ele>136.4</ele>
        <time>2021-08-21T11:05:10Z</time>
      </trkpt>
      <trkpt lat="48.35692" lon="2.73088">
        <ele>136.5</ele>
        <time>2021-08-21T11:05:11Z</time>
      </trkpt>
      <trkpt lat="48.35691" lon="2.73086">
        <ele>136.7</ele>
        <time>2021-08-21T11:05:12Z</time>
      </trkpt>
      <trkpt lat="48.3569" lon="2.73086">
        <ele>136.8</ele>
        <time>2021-08-21T11:05:13Z</time>
      </trkpt>
      <trkpt lat="48.3569" lon="2.73086">
        <ele>136.9</ele>
        <time>2021-08-21T11:05:14Z</time>
      </trkpt>
      <trkpt lat="48.3569" lon="2.73086">
        <ele>136.9</ele>
        <time>2021-08-21T11:05:15Z</time>
      </trkpt>
      <trkpt lat="48.3569" lon="2.73086">
        <ele>137</ele>
        <time>2021-08-21T11:05:16Z</time>
      </trkpt>
      <trkpt lat="48.3569" lon="2.73086">
        <ele>137</ele>
        <time>2021-08-21T11:05:17Z</time>
      </trkpt>
      <trkpt lat="48.3569" lon="2.73086">
        <ele>137</ele>
        <time>2021-08-21T11:05:18Z</time>
      </trkpt>
      <trkpt lat="48.35689" lon="2.73086">
        <ele>137</ele>
        <time>2021-08-21T11:05:19Z</time>
      </trkpt>
      <trkpt lat="48.35689" lon="2.73087">
        <ele>137.1</ele>
        <time>2021-08-21T11:05:20Z</time>
      </trkpt>
      <trkpt lat="48.35689" lon="2.73087">
        <ele>137.1</ele>
        <time>2021-08-21T11:05:21Z</time>
      </trkpt>
      <trkpt lat="48.35689" lon="2.73086">
        <ele>137.1</ele>
        <time>2021-08-21T11:05:22Z</time>
      </trkpt>
      <trkpt lat="48.35689" lon="2.73087">
        <ele>137.1</ele>
        <time>2021-08-21T11:05:23Z</time>
      </trkpt>
      <trkpt lat="48.35689" lon="2.73087">
        <ele>137.2</ele>
        <time>2021-08-21T11:05:24Z</time>
      </trkpt>
      <trkpt lat="48.35689" lon="2.73087">
        <ele>137.2</ele>
        <time>2021-08-21T11:05:25Z</time>
      </trkpt>
      <trkpt lat="48.35689" lon="2.73087">
        <ele>137.2</ele>
        <time>2021-08-21T11:05:26Z</time>
      </trkpt>
      <trkpt lat="48.35689" lon="2.73087">
        <ele>137.2</ele>
        <time>2021-08-21T11:05:27Z</time>
      </trkpt>
      <trkpt lat="48.35689" lon="2.73087">
        <ele>137.2</ele>
        <time>2021-08-21T11:05:28Z</time>
      </trkpt>
      <trkpt lat="48.35689" lon="2.73087">
        <ele>137.2</ele>
        <time>2021-08-21T11:05:29Z</time>
      </trkpt>
      <trkpt lat="48.35689" lon="2.73087">
        <ele>137.2</ele>
        <time>2021-08-21T11:05:30Z</time>
      </trkpt>
      <trkpt lat="48.35689" lon="2.73087">
        <ele>137.2</ele>
        <time>2021-08-21T11:05:31Z</time>
      </trkpt>
      <trkpt lat="48.35689" lon="2.73087">
        <ele>137.2</ele>
        <time>2021-08-21T11:05:32Z</time>
      </trkpt>
      <trkpt lat="48.35689" lon="2.73088">
        <ele>137.2</ele>
        <time>2021-08-21T11:05:33Z</time>
      </trkpt>
      <trkpt lat="48.35689" lon="2.73088">
        <ele>137.2</ele>
        <time>2021-08-21T11:05:34Z</time>
      </trkpt>
      <trkpt lat="48.35689" lon="2.73088">
        <ele>137.2</ele>
        <time>2021-08-21T11:05:35Z</time>
      </trkpt>
      <trkpt lat="48.35689" lon="2.73088">
        <ele>137.2</ele>
        <time>2021-08-21T11:05:36Z</time>
      </trkpt>
      <trkpt lat="48.35689" lon="2.73088">
        <ele>137.2</ele>
        <time>2021-08-21T11:05:37Z</time>
      </trkpt>
      <trkpt lat="48.35689" lon="2.73088">
        <ele>137.2</ele>
        <time>2021-08-21T11:05:38Z</time>
      </trkpt>
      <trkpt lat="48.35689" lon="2.73088">
        <ele>137.2</ele>
        <time>2021-08-21T11:05:39Z</time>
      </trkpt>
      <trkpt lat="48.35689" lon="2.73088">
        <ele>137.2</ele>
        <time>2021-08-21T11:05:40Z</time>
      </trkpt>
      <trkpt lat="48.35689" lon="2.73088">
        <ele>137.2</ele>
        <time>2021-08-21T11:05:41Z</time>
      </trkpt>
      <trkpt lat="48.35689" lon="2.73088">
        <ele>137.2</ele>
        <time>2021-08-21T11:05:42Z</time>
      </trkpt>
      <trkpt lat="48.35689" lon="2.73088">
        <ele>137.2</ele>
        <time>2021-08-21T11:05:43Z</time>
      </trkpt>
      <trkpt lat="48.35689" lon="2.73088">
        <ele>137.2</ele>
        <time>2021-08-21T11:05:44Z</time>
      </trkpt>
      <trkpt lat="48.35689" lon="2.73088">
        <ele>137.2</ele>
        <time>2021-08-21T11:05:45Z</time>
      </trkpt>
      <trkpt lat="48.35689" lon="2.73088">
        <ele>137.2</ele>
        <time>2021-08-21T11:05:46Z</time>
      </trkpt>
      <trkpt lat="48.35689" lon="2.73088">
        <ele>137.2</ele>
        <time>2021-08-21T11:05:47Z</time>
      </trkpt>
      <trkpt lat="48.35689" lon="2.73088">
        <ele>137.2</ele>
        <time>2021-08-21T11:05:48Z</time>
      </trkpt>
      <trkpt lat="48.35689" lon="2.73088">
        <ele>137.2</ele>
        <time>2021-08-21T11:05:49Z</time>
      </trkpt>
      <trkpt lat="48.35689" lon="2.73088">
        <ele>137.2</ele>
        <time>2021-08-21T11:05:50Z</time>
      </trkpt>
      <trkpt lat="48.35689" lon="2.73088">
        <ele>137.2</ele>
        <time>2021-08-21T11:05:51Z</time>
      </trkpt>
      <trkpt lat="48.35689" lon="2.73088">
        <ele>137.2</ele>
        <time>2021-08-21T11:05:52Z</time>
      </trkpt>
      <trkpt lat="48.35689" lon="2.73088">
        <ele>137.2</ele>
        <time>2021-08-21T11:05:53Z</time>
      </trkpt>
      <trkpt lat="48.35689" lon="2.73088">
        <ele>137.2</ele>
        <time>2021-08-21T11:05:54Z</time>
      </trkpt>
      <trkpt lat="48.35689" lon="2.73088">
        <ele>137.2</ele>
        <time>2021-08-21T11:05:55Z</time>
      </trkpt>
      <trkpt lat="48.35689" lon="2.73088">
        <ele>137.2</ele>
        <time>2021-08-21T11:05:56Z</time>
      </trkpt>
      <trkpt lat="48.35689" lon="2.73088">
        <ele>137.2</ele>
        <time>2021-08-21T11:05:57Z</time>
      </trkpt>
      <trkpt lat="48.35689" lon="2.73088">
        <ele>137.2</ele>
        <time>2021-08-21T11:05:58Z</time>
      </trkpt>
      <trkpt lat="48.35689" lon="2.73088">
        <ele>137.2</ele>
        <time>2021-08-21T11:05:59Z</time>
      </trkpt>
      <trkpt lat="48.35689" lon="2.73088">
        <ele>137.2</ele>
        <time>2021-08-21T11:06:00Z</time>
      </trkpt>
      <trkpt lat="48.35689" lon="2.73088">
        <ele>137.2</ele>
        <time>2021-08-21T11:06:01Z</time>
      </trkpt>
      <trkpt lat="48.35689" lon="2.73088">
        <ele>137.2</ele>
        <time>2021-08-21T11:06:02Z</time>
      </trkpt>
      <trkpt lat="48.35689" lon="2.73088">
        <ele>137.2</ele>
        <time>2021-08-21T11:06:03Z</time>
      </trkpt>
      <trkpt lat="48.35689" lon="2.73088">
        <ele>137.2</ele>
        <time>2021-08-21T11:06:04Z</time>
      </trkpt>
      <trkpt lat="48.35689" lon="2.73088">
        <ele>137.2</ele>
        <time>2021-08-21T11:06:05Z</time>
      </trkpt>
      <trkpt lat="48.35689" lon="2.73088">
        <ele>137.2</ele>
        <time>2021-08-21T11:06:06Z</time>
      </trkpt>
      <trkpt lat="48.35689" lon="2.73088">
        <ele>137.2</ele>
        <time>2021-08-21T11:06:07Z</time>
      </trkpt>
      <trkpt lat="48.35689" lon="2.73088">
        <ele>137.2</ele>
        <time>2021-08-21T11:06:08Z</time>
      </trkpt>
      <trkpt lat="48.35689" lon="2.73088">
        <ele>137.2</ele>
        <time>2021-08-21T11:06:09Z</time>
      </trkpt>
      <trkpt lat="48.35689" lon="2.73088">
        <ele>137.2</ele>
        <time>2021-08-21T11:06:10Z</time>
      </trkpt>
      <trkpt lat="48.35689" lon="2.73088">
        <ele>137.2</ele>
        <time>2021-08-21T11:06:11Z</time>
      </trkpt>
      <trkpt lat="48.35689" lon="2.73088">
        <ele>137.2</ele>
        <time>2021-08-21T11:06:12Z</time>
      </trkpt>
      <trkpt lat="48.35689" lon="2.73088">
        <ele>137.2</ele>
        <time>2021-08-21T11:06:13Z</time>
      </trkpt>
      <trkpt lat="48.35689" lon="2.73088">
        <ele>137.2</ele>
        <time>2021-08-21T11:06:14Z</time>
      </trkpt>
      <trkpt lat="48.35689" lon="2.73088">
        <ele>137.2</ele>
        <time>2021-08-21T11:06:15Z</time>
      </trkpt>
      <trkpt lat="48.35689" lon="2.73088">
        <ele>137.2</ele>
        <time>2021-08-21T11:06:16Z</time>
      </trkpt>
      <trkpt lat="48.35689" lon="2.73088">
        <ele>137.2</ele>
        <time>2021-08-21T11:06:17Z</time>
      </trkpt>
      <trkpt lat="48.35689" lon="2.73088">
        <ele>137.2</ele>
        <time>2021-08-21T11:06:18Z</time>
      </trkpt>
      <trkpt lat="48.35689" lon="2.73088">
        <ele>137.2</ele>
        <time>2021-08-21T11:06:19Z</time>
      </trkpt>
      <trkpt lat="48.35689" lon="2.73088">
        <ele>137.2</ele>
        <time>2021-08-21T11:06:20Z</time>
      </trkpt>
      <trkpt lat="48.35689" lon="2.73088">
        <ele>137.2</ele>
        <time>2021-08-21T11:06:21Z</time>
      </trkpt>
      <trkpt lat="48.35689" lon="2.73088">
        <ele>137.2</ele>
        <time>2021-08-21T11:06:22Z</time>
      </trkpt>
      <trkpt lat="48.35689" lon="2.73088">
        <ele>137.2</ele>
        <time>2021-08-21T11:06:23Z</time>
      </trkpt>
      <trkpt lat="48.35689" lon="2.73088">
        <ele>137.2</ele>
        <time>2021-08-21T11:06:24Z</time>
      </trkpt>
      <trkpt lat="48.35689" lon="2.73088">
        <ele>137.2</ele>
        <time>2021-08-21T11:06:25Z</time>
      </trkpt>
      <trkpt lat="48.35689" lon="2.73088">
        <ele>137.2</ele>
        <time>2021-08-21T11:06:26Z</time>
      </trkpt>
      <trkpt lat="48.35689" lon="2.73087">
        <ele>137.3</ele>
        <time>2021-08-21T11:06:27Z</time>
      </trkpt>
      <trkpt lat="48.35688" lon="2.73087">
        <ele>137.3</ele>
        <time>2021-08-21T11:06:28Z</time>
      </trkpt>
      <trkpt lat="48.35688" lon="2.73086">
        <ele>137.4</ele>
        <time>2021-08-21T11:06:29Z</time>
      </trkpt>
      <trkpt lat="48.35688" lon="2.73086">
        <ele>137.4</ele>
        <time>2021-08-21T11:06:30Z</time>
      </trkpt>
      <trkpt lat="48.35688" lon="2.73086">
        <ele>137.4</ele>
        <time>2021-08-21T11:06:31Z</time>
      </trkpt>
      <trkpt lat="48.35688" lon="2.73086">
        <ele>137.5</ele>
        <time>2021-08-21T11:06:32Z</time>
      </trkpt>
      <trkpt lat="48.35688" lon="2.73086">
        <ele>137.5</ele>
        <time>2021-08-21T11:06:33Z</time>
      </trkpt>
      <trkpt lat="48.35688" lon="2.73086">
        <ele>137.5</ele>
        <time>2021-08-21T11:06:34Z</time>
      </trkpt>
      <trkpt lat="48.35688" lon="2.73086">
        <ele>137.6</ele>
        <time>2021-08-21T11:06:35Z</time>
      </trkpt>
      <trkpt lat="48.35687" lon="2.73085">
        <ele>137.7</ele>
        <time>2021-08-21T11:06:36Z</time>
      </trkpt>
      <trkpt lat="48.35687" lon="2.73085">
        <ele>137.9</ele>
        <time>2021-08-21T11:06:37Z</time>
      </trkpt>
      <trkpt lat="48.35686" lon="2.73084">
        <ele>137.9</ele>
        <time>2021-08-21T11:06:38Z</time>
      </trkpt>
      <trkpt lat="48.35686" lon="2.73083">
        <ele>137.9</ele>
        <time>2021-08-21T11:06:39Z</time>
      </trkpt>
      <trkpt lat="48.35686" lon="2.73083">
        <ele>137.9</ele>
        <time>2021-08-21T11:06:40Z</time>
      </trkpt>
      <trkpt lat="48.35686" lon="2.73083">
        <ele>137.9</ele>
        <time>2021-08-21T11:06:41Z</time>
      </trkpt>
      <trkpt lat="48.35687" lon="2.73083">
        <ele>137.9</ele>
        <time>2021-08-21T11:06:42Z</time>
      </trkpt>
      <trkpt lat="48.35687" lon="2.73083">
        <ele>137.9</ele>
        <time>2021-08-21T11:06:43Z</time>
      </trkpt>
      <trkpt lat="48.35687" lon="2.73083">
        <ele>137.9</ele>
        <time>2021-08-21T11:06:44Z</time>
      </trkpt>
      <trkpt lat="48.35687" lon="2.73083">
        <ele>137.9</ele>
        <time>2021-08-21T11:06:45Z</time>
      </trkpt>
      <trkpt lat="48.35687" lon="2.73083">
        <ele>137.9</ele>
        <time>2021-08-21T11:06:46Z</time>
      </trkpt>
      <trkpt lat="48.35688" lon="2.73084">
        <ele>137.9</ele>
        <time>2021-08-21T11:06:47Z</time>
      </trkpt>
      <trkpt lat="48.35688" lon="2.73084">
        <ele>137.9</ele>
        <time>2021-08-21T11:06:48Z</time>
      </trkpt>
      <trkpt lat="48.35689" lon="2.73084">
        <ele>137.9</ele>
        <time>2021-08-21T11:06:49Z</time>
      </trkpt>
      <trkpt lat="48.35688" lon="2.73083">
        <ele>137.9</ele>
        <time>2021-08-21T11:06:50Z</time>
      </trkpt>
      <trkpt lat="48.35688" lon="2.73082">
        <ele>137.9</ele>
        <time>2021-08-21T11:06:51Z</time>
      </trkpt>
      <trkpt lat="48.35688" lon="2.73082">
        <ele>137.9</ele>
        <time>2021-08-21T11:06:52Z</time>
      </trkpt>
      <trkpt lat="48.35688" lon="2.73081">
        <ele>137.9</ele>
        <time>2021-08-21T11:06:53Z</time>
      </trkpt>
      <trkpt lat="48.35688" lon="2.73081">
        <ele>137.9</ele>
        <time>2021-08-21T11:06:54Z</time>
      </trkpt>
      <trkpt lat="48.35688" lon="2.7308">
        <ele>137.9</ele>
        <time>2021-08-21T11:06:55Z</time>
      </trkpt>
      <trkpt lat="48.35688" lon="2.7308">
        <ele>137.9</ele>
        <time>2021-08-21T11:06:56Z</time>
      </trkpt>
      <trkpt lat="48.35688" lon="2.73079">
        <ele>137.9</ele>
        <time>2021-08-21T11:06:57Z</time>
      </trkpt>
      <trkpt lat="48.35687" lon="2.73078">
        <ele>137.9</ele>
        <time>2021-08-21T11:06:58Z</time>
      </trkpt>
      <trkpt lat="48.35687" lon="2.73077">
        <ele>137.9</ele>
        <time>2021-08-21T11:06:59Z</time>
      </trkpt>
      <trkpt lat="48.35686" lon="2.73076">
        <ele>137.9</ele>
        <time>2021-08-21T11:07:00Z</time>
      </trkpt>
      <trkpt lat="48.35686" lon="2.73076">
        <ele>138</ele>
        <time>2021-08-21T11:07:01Z</time>
      </trkpt>
      <trkpt lat="48.35685" lon="2.73076">
        <ele>138</ele>
        <time>2021-08-21T11:07:02Z</time>
      </trkpt>
      <trkpt lat="48.35684" lon="2.73075">
        <ele>138</ele>
        <time>2021-08-21T11:07:03Z</time>
      </trkpt>
      <trkpt lat="48.35684" lon="2.73075">
        <ele>138</ele>
        <time>2021-08-21T11:07:04Z</time>
      </trkpt>
      <trkpt lat="48.35684" lon="2.73074">
        <ele>138</ele>
        <time>2021-08-21T11:07:05Z</time>
      </trkpt>
      <trkpt lat="48.35684" lon="2.73074">
        <ele>138</ele>
        <time>2021-08-21T11:07:06Z</time>
      </trkpt>
      <trkpt lat="48.35683" lon="2.73074">
        <ele>138</ele>
        <time>2021-08-21T11:07:07Z</time>
      </trkpt>
      <trkpt lat="48.35683" lon="2.73074">
        <ele>138</ele>
        <time>2021-08-21T11:07:08Z</time>
      </trkpt>
      <trkpt lat="48.35683" lon="2.73074">
        <ele>138</ele>
        <time>2021-08-21T11:07:09Z</time>
      </trkpt>
      <trkpt lat="48.35684" lon="2.73074">
        <ele>138</ele>
        <time>2021-08-21T11:07:10Z</time>
      </trkpt>
      <trkpt lat="48.35683" lon="2.73073">
        <ele>138</ele>
        <time>2021-08-21T11:07:11Z</time>
      </trkpt>
      <trkpt lat="48.35683" lon="2.73072">
        <ele>138</ele>
        <time>2021-08-21T11:07:12Z</time>
      </trkpt>
      <trkpt lat="48.35682" lon="2.73071">
        <ele>138</ele>
        <time>2021-08-21T11:07:13Z</time>
      </trkpt>
      <trkpt lat="48.35682" lon="2.73071">
        <ele>138</ele>
        <time>2021-08-21T11:07:14Z</time>
      </trkpt>
      <trkpt lat="48.35682" lon="2.7307">
        <ele>138</ele>
        <time>2021-08-21T11:07:15Z</time>
      </trkpt>
      <trkpt lat="48.35683" lon="2.7307">
        <ele>138</ele>
        <time>2021-08-21T11:07:16Z</time>
      </trkpt>
      <trkpt lat="48.35683" lon="2.7307">
        <ele>138</ele>
        <time>2021-08-21T11:07:17Z</time>
      </trkpt>
      <trkpt lat="48.35684" lon="2.73069">
        <ele>138</ele>
        <time>2021-08-21T11:07:18Z</time>
      </trkpt>
      <trkpt lat="48.35684" lon="2.73069">
        <ele>138</ele>
        <time>2021-08-21T11:07:19Z</time>
      </trkpt>
      <trkpt lat="48.35685" lon="2.73069">
        <ele>138</ele>
        <time>2021-08-21T11:07:20Z</time>
      </trkpt>
      <trkpt lat="48.35686" lon="2.73069">
        <ele>138</ele>
        <time>2021-08-21T11:07:21Z</time>
      </trkpt>
      <trkpt lat="48.35687" lon="2.73068">
        <ele>138</ele>
        <time>2021-08-21T11:07:22Z</time>
      </trkpt>
      <trkpt lat="48.35688" lon="2.73068">
        <ele>138</ele>
        <time>2021-08-21T11:07:23Z</time>
      </trkpt>
      <trkpt lat="48.35689" lon="2.73068">
        <ele>138</ele>
        <time>2021-08-21T11:07:24Z</time>
      </trkpt>
      <trkpt lat="48.3569" lon="2.73068">
        <ele>138</ele>
        <time>2021-08-21T11:07:25Z</time>
      </trkpt>
      <trkpt lat="48.35691" lon="2.73068">
        <ele>138.1</ele>
        <time>2021-08-21T11:07:26Z</time>
      </trkpt>
      <trkpt lat="48.35692" lon="2.73068">
        <ele>138.1</ele>
        <time>2021-08-21T11:07:27Z</time>
      </trkpt>
      <trkpt lat="48.35693" lon="2.73069">
        <ele>138.1</ele>
        <time>2021-08-21T11:07:28Z</time>
      </trkpt>
      <trkpt lat="48.35695" lon="2.73069">
        <ele>138.1</ele>
        <time>2021-08-21T11:07:29Z</time>
      </trkpt>
      <trkpt lat="48.35696" lon="2.7307">
        <ele>138.1</ele>
        <time>2021-08-21T11:07:30Z</time>
      </trkpt>
      <trkpt lat="48.35698" lon="2.7307">
        <ele>138.1</ele>
        <time>2021-08-21T11:07:31Z</time>
      </trkpt>
      <trkpt lat="48.35698" lon="2.7307">
        <ele>138.1</ele>
        <time>2021-08-21T11:07:32Z</time>
      </trkpt>
      <trkpt lat="48.35699" lon="2.7307">
        <ele>138.1</ele>
        <time>2021-08-21T11:07:33Z</time>
      </trkpt>
      <trkpt lat="48.35699" lon="2.7307">
        <ele>138.1</ele>
        <time>2021-08-21T11:07:34Z</time>
      </trkpt>
      <trkpt lat="48.35699" lon="2.7307">
        <ele>138.1</ele>
        <time>2021-08-21T11:07:35Z</time>
      </trkpt>
      <trkpt lat="48.35699" lon="2.7307">
        <ele>138.1</ele>
        <time>2021-08-21T11:07:36Z</time>
      </trkpt>
      <trkpt lat="48.35699" lon="2.7307">
        <ele>138.1</ele>
        <time>2021-08-21T11:07:37Z</time>
      </trkpt>
      <trkpt lat="48.35699" lon="2.7307">
        <ele>138.1</ele>
        <time>2021-08-21T11:07:38Z</time>
      </trkpt>
      <trkpt lat="48.35699" lon="2.7307">
        <ele>138.1</ele>
        <time>2021-08-21T11:07:39Z</time>
      </trkpt>
      <trkpt lat="48.35699" lon="2.7307">
        <ele>138.1</ele>
        <time>2021-08-21T11:07:40Z</time>
      </trkpt>
      <trkpt lat="48.35699" lon="2.7307">
        <ele>138.1</ele>
        <time>2021-08-21T11:07:41Z</time>
      </trkpt>
      <trkpt lat="48.35699" lon="2.7307">
        <ele>138.1</ele>
        <time>2021-08-21T11:07:42Z</time>
      </trkpt>
      <trkpt lat="48.35699" lon="2.7307">
        <ele>138.1</ele>
        <time>2021-08-21T11:07:43Z</time>
      </trkpt>
      <trkpt lat="48.35699" lon="2.7307">
        <ele>138.1</ele>
        <time>2021-08-21T11:07:44Z</time>
      </trkpt>
      <trkpt lat="48.35699" lon="2.7307">
        <ele>138.1</ele>
        <time>2021-08-21T11:07:45Z</time>
      </trkpt>
      <trkpt lat="48.35699" lon="2.7307">
        <ele>138.1</ele>
        <time>2021-08-21T11:07:46Z</time>
      </trkpt>
      <trkpt lat="48.35699" lon="2.7307">
        <ele>138.1</ele>
        <time>2021-08-21T11:07:47Z</time>
      </trkpt>
      <trkpt lat="48.35699" lon="2.7307">
        <ele>138.1</ele>
        <time>2021-08-21T11:07:48Z</time>
      </trkpt>
      <trkpt lat="48.35699" lon="2.7307">
        <ele>138.1</ele>
        <time>2021-08-21T11:07:49Z</time>
      </trkpt>
      <trkpt lat="48.35699" lon="2.7307">
        <ele>138.1</ele>
        <time>2021-08-21T11:07:50Z</time>
      </trkpt>
      <trkpt lat="48.35699" lon="2.7307">
        <ele>138.1</ele>
        <time>2021-08-21T11:07:51Z</time>
      </trkpt>
      <trkpt lat="48.35699" lon="2.7307">
        <ele>138.1</ele>
        <time>2021-08-21T11:07:52Z</time>
      </trkpt>
      <trkpt lat="48.35699" lon="2.7307">
        <ele>138.1</ele>
        <time>2021-08-21T11:07:53Z</time>
      </trkpt>
      <trkpt lat="48.35699" lon="2.7307">
        <ele>138.1</ele>
        <time>2021-08-21T11:07:54Z</time>
      </trkpt>
      <trkpt lat="48.35699" lon="2.7307">
        <ele>138.1</ele>
        <time>2021-08-21T11:07:55Z</time>
      </trkpt>
      <trkpt lat="48.35699" lon="2.7307">
        <ele>138.1</ele>
        <time>2021-08-21T11:07:56Z</time>
      </trkpt>
      <trkpt lat="48.35699" lon="2.7307">
        <ele>138.1</ele>
        <time>2021-08-21T11:07:57Z</time>
      </trkpt>
      <trkpt lat="48.35699" lon="2.7307">
        <ele>138.1</ele>
        <time>2021-08-21T11:07:58Z</time>
      </trkpt>
      <trkpt lat="48.35699" lon="2.7307">
        <ele>138.1</ele>
        <time>2021-08-21T11:07:59Z</time>
      </trkpt>
      <trkpt lat="48.35699" lon="2.7307">
        <ele>138.1</ele>
        <time>2021-08-21T11:08:00Z</time>
      </trkpt>
      <trkpt lat="48.35699" lon="2.7307">
        <ele>138.1</ele>
        <time>2021-08-21T11:08:01Z</time>
      </trkpt>
      <trkpt lat="48.357" lon="2.73069">
        <ele>138.1</ele>
        <time>2021-08-21T11:08:02Z</time>
      </trkpt>
      <trkpt lat="48.357" lon="2.73069">
        <ele>138.1</ele>
        <time>2021-08-21T11:08:03Z</time>
      </trkpt>
      <trkpt lat="48.35701" lon="2.73069">
        <ele>138.1</ele>
        <time>2021-08-21T11:08:04Z</time>
      </trkpt>
      <trkpt lat="48.357" lon="2.73069">
        <ele>138.1</ele>
        <time>2021-08-21T11:08:05Z</time>
      </trkpt>
      <trkpt lat="48.357" lon="2.73069">
        <ele>138.1</ele>
        <time>2021-08-21T11:08:06Z</time>
      </trkpt>
      <trkpt lat="48.357" lon="2.73069">
        <ele>138.1</ele>
        <time>2021-08-21T11:08:07Z</time>
      </trkpt>
      <trkpt lat="48.357" lon="2.73069">
        <ele>138.1</ele>
        <time>2021-08-21T11:08:08Z</time>
      </trkpt>
      <trkpt lat="48.357" lon="2.73069">
        <ele>138.1</ele>
        <time>2021-08-21T11:08:09Z</time>
      </trkpt>
      <trkpt lat="48.357" lon="2.73069">
        <ele>138.1</ele>
        <time>2021-08-21T11:08:10Z</time>
      </trkpt>
      <trkpt lat="48.357" lon="2.73069">
        <ele>138.1</ele>
        <time>2021-08-21T11:08:11Z</time>
      </trkpt>
      <trkpt lat="48.357" lon="2.73069">
        <ele>138.1</ele>
        <time>2021-08-21T11:08:12Z</time>
      </trkpt>
      <trkpt lat="48.357" lon="2.73069">
        <ele>138.1</ele>
        <time>2021-08-21T11:08:13Z</time>
      </trkpt>
      <trkpt lat="48.357" lon="2.73069">
        <ele>138.1</ele>
        <time>2021-08-21T11:08:14Z</time>
      </trkpt>
      <trkpt lat="48.357" lon="2.73069">
        <ele>138.1</ele>
        <time>2021-08-21T11:08:15Z</time>
      </trkpt>
      <trkpt lat="48.357" lon="2.73069">
        <ele>138.1</ele>
        <time>2021-08-21T11:08:16Z</time>
      </trkpt>
      <trkpt lat="48.357" lon="2.73068">
        <ele>138.1</ele>
        <time>2021-08-21T11:08:17Z</time>
      </trkpt>
      <trkpt lat="48.35701" lon="2.73068">
        <ele>138.1</ele>
        <time>2021-08-21T11:08:18Z</time>
      </trkpt>
      <trkpt lat="48.35701" lon="2.73068">
        <ele>138.1</ele>
        <time>2021-08-21T11:08:19Z</time>
      </trkpt>
      <trkpt lat="48.35701" lon="2.73068">
        <ele>138.1</ele>
        <time>2021-08-21T11:08:20Z</time>
      </trkpt>
      <trkpt lat="48.35701" lon="2.73068">
        <ele>138.1</ele>
        <time>2021-08-21T11:08:21Z</time>
      </trkpt>
      <trkpt lat="48.35702" lon="2.73067">
        <ele>138.1</ele>
        <time>2021-08-21T11:08:22Z</time>
      </trkpt>
      <trkpt lat="48.35703" lon="2.73068">
        <ele>138.1</ele>
        <time>2021-08-21T11:08:23Z</time>
      </trkpt>
      <trkpt lat="48.35704" lon="2.73067">
        <ele>138.1</ele>
        <time>2021-08-21T11:08:24Z</time>
      </trkpt>
      <trkpt lat="48.35705" lon="2.73067">
        <ele>138.1</ele>
        <time>2021-08-21T11:08:25Z</time>
      </trkpt>
      <trkpt lat="48.35705" lon="2.73066">
        <ele>138.1</ele>
        <time>2021-08-21T11:08:26Z</time>
      </trkpt>
      <trkpt lat="48.35706" lon="2.73066">
        <ele>138.1</ele>
        <time>2021-08-21T11:08:27Z</time>
      </trkpt>
      <trkpt lat="48.35707" lon="2.73066">
        <ele>138.1</ele>
        <time>2021-08-21T11:08:28Z</time>
      </trkpt>
      <trkpt lat="48.35708" lon="2.73066">
        <ele>138.1</ele>
        <time>2021-08-21T11:08:29Z</time>
      </trkpt>
      <trkpt lat="48.35708" lon="2.73066">
        <ele>138.1</ele>
        <time>2021-08-21T11:08:30Z</time>
      </trkpt>
      <trkpt lat="48.35708" lon="2.73065">
        <ele>138.1</ele>
        <time>2021-08-21T11:08:31Z</time>
      </trkpt>
      <trkpt lat="48.35709" lon="2.73065">
        <ele>138.1</ele>
        <time>2021-08-21T11:08:32Z</time>
      </trkpt>
      <trkpt lat="48.35709" lon="2.73064">
        <ele>138.1</ele>
        <time>2021-08-21T11:08:33Z</time>
      </trkpt>
      <trkpt lat="48.3571" lon="2.73064">
        <ele>138.1</ele>
        <time>2021-08-21T11:08:34Z</time>
      </trkpt>
      <trkpt lat="48.3571" lon="2.73064">
        <ele>138.1</ele>
        <time>2021-08-21T11:08:35Z</time>
      </trkpt>
      <trkpt lat="48.3571" lon="2.73064">
        <ele>138.1</ele>
        <time>2021-08-21T11:08:36Z</time>
      </trkpt>
      <trkpt lat="48.3571" lon="2.73064">
        <ele>138.1</ele>
        <time>2021-08-21T11:08:37Z</time>
      </trkpt>
      <trkpt lat="48.3571" lon="2.73064">
        <ele>138.1</ele>
        <time>2021-08-21T11:08:38Z</time>
      </trkpt>
      <trkpt lat="48.3571" lon="2.73064">
        <ele>138.1</ele>
        <time>2021-08-21T11:08:39Z</time>
      </trkpt>
      <trkpt lat="48.3571" lon="2.73063">
        <ele>138.1</ele>
        <time>2021-08-21T11:08:40Z</time>
      </trkpt>
      <trkpt lat="48.3571" lon="2.73062">
        <ele>138.2</ele>
        <time>2021-08-21T11:08:41Z</time>
      </trkpt>
      <trkpt lat="48.3571" lon="2.73062">
        <ele>138.2</ele>
        <time>2021-08-21T11:08:42Z</time>
      </trkpt>
      <trkpt lat="48.3571" lon="2.73062">
        <ele>138.2</ele>
        <time>2021-08-21T11:08:43Z</time>
      </trkpt>
      <trkpt lat="48.3571" lon="2.73061">
        <ele>138.2</ele>
        <time>2021-08-21T11:08:44Z</time>
      </trkpt>
      <trkpt lat="48.35711" lon="2.73061">
        <ele>138.2</ele>
        <time>2021-08-21T11:08:45Z</time>
      </trkpt>
      <trkpt lat="48.35711" lon="2.73061">
        <ele>138.2</ele>
        <time>2021-08-21T11:08:46Z</time>
      </trkpt>
      <trkpt lat="48.35711" lon="2.73061">
        <ele>138.2</ele>
        <time>2021-08-21T11:08:47Z</time>
      </trkpt>
      <trkpt lat="48.35711" lon="2.73061">
        <ele>138.2</ele>
        <time>2021-08-21T11:08:48Z</time>
      </trkpt>
      <trkpt lat="48.35711" lon="2.73061">
        <ele>138.2</ele>
        <time>2021-08-21T11:08:49Z</time>
      </trkpt>
      <trkpt lat="48.35712" lon="2.73063">
        <ele>138.2</ele>
        <time>2021-08-21T11:08:50Z</time>
      </trkpt>
      <trkpt lat="48.35712" lon="2.73062">
        <ele>138.2</ele>
        <time>2021-08-21T11:08:51Z</time>
      </trkpt>
      <trkpt lat="48.35712" lon="2.73062">
        <ele>138.2</ele>
        <time>2021-08-21T11:08:52Z</time>
      </trkpt>
      <trkpt lat="48.35712" lon="2.73062">
        <ele>138.2</ele>
        <time>2021-08-21T11:08:53Z</time>
      </trkpt>
      <trkpt lat="48.35712" lon="2.73062">
        <ele>138.2</ele>
        <time>2021-08-21T11:08:54Z</time>
      </trkpt>
      <trkpt lat="48.35712" lon="2.73062">
        <ele>138.2</ele>
        <time>2021-08-21T11:08:55Z</time>
      </trkpt>
      <trkpt lat="48.35712" lon="2.73063">
        <ele>138.2</ele>
        <time>2021-08-21T11:08:56Z</time>
      </trkpt>
      <trkpt lat="48.35712" lon="2.73063">
        <ele>138.2</ele>
        <time>2021-08-21T11:08:57Z</time>
      </trkpt>
      <trkpt lat="48.35712" lon="2.73064">
        <ele>138.2</ele>
        <time>2021-08-21T11:08:58Z</time>
      </trkpt>
      <trkpt lat="48.35712" lon="2.73064">
        <ele>138.2</ele>
        <time>2021-08-21T11:08:59Z</time>
      </trkpt>
      <trkpt lat="48.35712" lon="2.73064">
        <ele>138.2</ele>
        <time>2021-08-21T11:09:00Z</time>
      </trkpt>
      <trkpt lat="48.35712" lon="2.73064">
        <ele>138.2</ele>
        <time>2021-08-21T11:09:01Z</time>
      </trkpt>
      <trkpt lat="48.35712" lon="2.73064">
        <ele>138.2</ele>
        <time>2021-08-21T11:09:02Z</time>
      </trkpt>
      <trkpt lat="48.35712" lon="2.73064">
        <ele>138.2</ele>
        <time>2021-08-21T11:09:03Z</time>
      </trkpt>
      <trkpt lat="48.35712" lon="2.73064">
        <ele>138.2</ele>
        <time>2021-08-21T11:09:04Z</time>
      </trkpt>
      <trkpt lat="48.35712" lon="2.73065">
        <ele>138.2</ele>
        <time>2021-08-21T11:09:05Z</time>
      </trkpt>
      <trkpt lat="48.35712" lon="2.73065">
        <ele>138.2</ele>
        <time>2021-08-21T11:09:06Z</time>
      </trkpt>
      <trkpt lat="48.35712" lon="2.73065">
        <ele>138.2</ele>
        <time>2021-08-21T11:09:07Z</time>
      </trkpt>
      <trkpt lat="48.35711" lon="2.73066">
        <ele>138.2</ele>
        <time>2021-08-21T11:09:08Z</time>
      </trkpt>
      <trkpt lat="48.35711" lon="2.73066">
        <ele>138.2</ele>
        <time>2021-08-21T11:09:09Z</time>
      </trkpt>
      <trkpt lat="48.35711" lon="2.73066">
        <ele>138.2</ele>
        <time>2021-08-21T11:09:10Z</time>
      </trkpt>
      <trkpt lat="48.3571" lon="2.73066">
        <ele>138.2</ele>
        <time>2021-08-21T11:09:11Z</time>
      </trkpt>
      <trkpt lat="48.3571" lon="2.73066">
        <ele>138.2</ele>
        <time>2021-08-21T11:09:12Z</time>
      </trkpt>
      <trkpt lat="48.35709" lon="2.73066">
        <ele>138.2</ele>
        <time>2021-08-21T11:09:13Z</time>
      </trkpt>
      <trkpt lat="48.35709" lon="2.73066">
        <ele>138.2</ele>
        <time>2021-08-21T11:09:14Z</time>
      </trkpt>
      <trkpt lat="48.35709" lon="2.73066">
        <ele>138.2</ele>
        <time>2021-08-21T11:09:15Z</time>
      </trkpt>
      <trkpt lat="48.35709" lon="2.73066">
        <ele>138.2</ele>
        <time>2021-08-21T11:09:16Z</time>
      </trkpt>
      <trkpt lat="48.35709" lon="2.73067">
        <ele>138.2</ele>
        <time>2021-08-21T11:09:17Z</time>
      </trkpt>
      <trkpt lat="48.35709" lon="2.73067">
        <ele>138.2</ele>
        <time>2021-08-21T11:09:18Z</time>
      </trkpt>
      <trkpt lat="48.35709" lon="2.73067">
        <ele>138.2</ele>
        <time>2021-08-21T11:09:19Z</time>
      </trkpt>
      <trkpt lat="48.3571" lon="2.73067">
        <ele>138.2</ele>
        <time>2021-08-21T11:09:20Z</time>
      </trkpt>
      <trkpt lat="48.3571" lon="2.73067">
        <ele>138.2</ele>
        <time>2021-08-21T11:09:21Z</time>
      </trkpt>
      <trkpt lat="48.3571" lon="2.73067">
        <ele>138.2</ele>
        <time>2021-08-21T11:09:22Z</time>
      </trkpt>
      <trkpt lat="48.3571" lon="2.73067">
        <ele>138.2</ele>
        <time>2021-08-21T11:09:23Z</time>
      </trkpt>
      <trkpt lat="48.3571" lon="2.73067">
        <ele>138.2</ele>
        <time>2021-08-21T11:09:24Z</time>
      </trkpt>
      <trkpt lat="48.3571" lon="2.73067">
        <ele>138.2</ele>
        <time>2021-08-21T11:09:25Z</time>
      </trkpt>
      <trkpt lat="48.35709" lon="2.73066">
        <ele>138.2</ele>
        <time>2021-08-21T11:09:26Z</time>
      </trkpt>
      <trkpt lat="48.35709" lon="2.73066">
        <ele>138.2</ele>
        <time>2021-08-21T11:09:27Z</time>
      </trkpt>
      <trkpt lat="48.35709" lon="2.73065">
        <ele>138.2</ele>
        <time>2021-08-21T11:09:28Z</time>
      </trkpt>
      <trkpt lat="48.35708" lon="2.73064">
        <ele>138.2</ele>
        <time>2021-08-21T11:09:29Z</time>
      </trkpt>
      <trkpt lat="48.35708" lon="2.73063">
        <ele>138.2</ele>
        <time>2021-08-21T11:09:30Z</time>
      </trkpt>
      <trkpt lat="48.35708" lon="2.73062">
        <ele>138.2</ele>
        <time>2021-08-21T11:09:31Z</time>
      </trkpt>
      <trkpt lat="48.35707" lon="2.73062">
        <ele>138.2</ele>
        <time>2021-08-21T11:09:32Z</time>
      </trkpt>
      <trkpt lat="48.35707" lon="2.73061">
        <ele>138.2</ele>
        <time>2021-08-21T11:09:33Z</time>
      </trkpt>
      <trkpt lat="48.35708" lon="2.73061">
        <ele>138.2</ele>
        <time>2021-08-21T11:09:34Z</time>
      </trkpt>
      <trkpt lat="48.35708" lon="2.7306">
        <ele>138.2</ele>
        <time>2021-08-21T11:09:35Z</time>
      </trkpt>
      <trkpt lat="48.35708" lon="2.7306">
        <ele>138.2</ele>
        <time>2021-08-21T11:09:36Z</time>
      </trkpt>
      <trkpt lat="48.35709" lon="2.7306">
        <ele>138.2</ele>
        <time>2021-08-21T11:09:37Z</time>
      </trkpt>
      <trkpt lat="48.35709" lon="2.7306">
        <ele>138.2</ele>
        <time>2021-08-21T11:09:38Z</time>
      </trkpt>
      <trkpt lat="48.35709" lon="2.7306">
        <ele>138.2</ele>
        <time>2021-08-21T11:09:39Z</time>
      </trkpt>
      <trkpt lat="48.35709" lon="2.73059">
        <ele>138.2</ele>
        <time>2021-08-21T11:09:40Z</time>
      </trkpt>
      <trkpt lat="48.35709" lon="2.73059">
        <ele>138.2</ele>
        <time>2021-08-21T11:09:41Z</time>
      </trkpt>
      <trkpt lat="48.35709" lon="2.73059">
        <ele>138.2</ele>
        <time>2021-08-21T11:09:42Z</time>
      </trkpt>
      <trkpt lat="48.35709" lon="2.73059">
        <ele>138.2</ele>
        <time>2021-08-21T11:09:43Z</time>
      </trkpt>
      <trkpt lat="48.35709" lon="2.7306">
        <ele>138.2</ele>
        <time>2021-08-21T11:09:44Z</time>
      </trkpt>
      <trkpt lat="48.35709" lon="2.7306">
        <ele>138.2</ele>
        <time>2021-08-21T11:09:45Z</time>
      </trkpt>
      <trkpt lat="48.35709" lon="2.7306">
        <ele>138.2</ele>
        <time>2021-08-21T11:09:46Z</time>
      </trkpt>
      <trkpt lat="48.35709" lon="2.7306">
        <ele>138.2</ele>
        <time>2021-08-21T11:09:47Z</time>
      </trkpt>
      <trkpt lat="48.35709" lon="2.7306">
        <ele>138.2</ele>
        <time>2021-08-21T11:09:48Z</time>
      </trkpt>
      <trkpt lat="48.35709" lon="2.7306">
        <ele>138.2</ele>
        <time>2021-08-21T11:09:49Z</time>
      </trkpt>
      <trkpt lat="48.35709" lon="2.7306">
        <ele>138.2</ele>
        <time>2021-08-21T11:09:50Z</time>
      </trkpt>
      <trkpt lat="48.35709" lon="2.7306">
        <ele>138.2</ele>
        <time>2021-08-21T11:09:51Z</time>
      </trkpt>
      <trkpt lat="48.35709" lon="2.7306">
        <ele>138.2</ele>
        <time>2021-08-21T11:09:52Z</time>
      </trkpt>
      <trkpt lat="48.35709" lon="2.7306">
        <ele>138.2</ele>
        <time>2021-08-21T11:09:53Z</time>
      </trkpt>
      <trkpt lat="48.35709" lon="2.7306">
        <ele>138.2</ele>
        <time>2021-08-21T11:09:54Z</time>
      </trkpt>
      <trkpt lat="48.35709" lon="2.7306">
        <ele>138.2</ele>
        <time>2021-08-21T11:09:55Z</time>
      </trkpt>
      <trkpt lat="48.35709" lon="2.7306">
        <ele>138.2</ele>
        <time>2021-08-21T11:09:56Z</time>
      </trkpt>
      <trkpt lat="48.35709" lon="2.73061">
        <ele>138.2</ele>
        <time>2021-08-21T11:09:57Z</time>
      </trkpt>
      <trkpt lat="48.35709" lon="2.73061">
        <ele>138.2</ele>
        <time>2021-08-21T11:09:58Z</time>
      </trkpt>
      <trkpt lat="48.35709" lon="2.73061">
        <ele>138.2</ele>
        <time>2021-08-21T11:09:59Z</time>
      </trkpt>
      <trkpt lat="48.35709" lon="2.7306">
        <ele>138.2</ele>
        <time>2021-08-21T11:10:00Z</time>
      </trkpt>
      <trkpt lat="48.35709" lon="2.7306">
        <ele>138.2</ele>
        <time>2021-08-21T11:10:01Z</time>
      </trkpt>
      <trkpt lat="48.35709" lon="2.7306">
        <ele>138.2</ele>
        <time>2021-08-21T11:10:02Z</time>
      </trkpt>
      <trkpt lat="48.35709" lon="2.7306">
        <ele>138.2</ele>
        <time>2021-08-21T11:10:03Z</time>
      </trkpt>
      <trkpt lat="48.35709" lon="2.7306">
        <ele>138.2</ele>
        <time>2021-08-21T11:10:04Z</time>
      </trkpt>
      <trkpt lat="48.35709" lon="2.7306">
        <ele>138.2</ele>
        <time>2021-08-21T11:10:05Z</time>
      </trkpt>
      <trkpt lat="48.35709" lon="2.7306">
        <ele>138.2</ele>
        <time>2021-08-21T11:10:06Z</time>
      </trkpt>
      <trkpt lat="48.35709" lon="2.7306">
        <ele>138.2</ele>
        <time>2021-08-21T11:10:07Z</time>
      </trkpt>
      <trkpt lat="48.35709" lon="2.7306">
        <ele>138.2</ele>
        <time>2021-08-21T11:10:08Z</time>
      </trkpt>
      <trkpt lat="48.35709" lon="2.7306">
        <ele>138.2</ele>
        <time>2021-08-21T11:10:09Z</time>
      </trkpt>
      <trkpt lat="48.35709" lon="2.7306">
        <ele>138.2</ele>
        <time>2021-08-21T11:10:10Z</time>
      </trkpt>
      <trkpt lat="48.35709" lon="2.7306">
        <ele>138.2</ele>
        <time>2021-08-21T11:10:11Z</time>
      </trkpt>
      <trkpt lat="48.35709" lon="2.7306">
        <ele>138.2</ele>
        <time>2021-08-21T11:10:12Z</time>
      </trkpt>
      <trkpt lat="48.35709" lon="2.7306">
        <ele>138.2</ele>
        <time>2021-08-21T11:10:13Z</time>
      </trkpt>
      <trkpt lat="48.35709" lon="2.7306">
        <ele>138.2</ele>
        <time>2021-08-21T11:10:14Z</time>
      </trkpt>
      <trkpt lat="48.35709" lon="2.7306">
        <ele>138.2</ele>
        <time>2021-08-21T11:10:15Z</time>
      </trkpt>
      <trkpt lat="48.35709" lon="2.7306">
        <ele>138.2</ele>
        <time>2021-08-21T11:10:16Z</time>
      </trkpt>
      <trkpt lat="48.3571" lon="2.73061">
        <ele>138.2</ele>
        <time>2021-08-21T11:10:17Z</time>
      </trkpt>
      <trkpt lat="48.3571" lon="2.73062">
        <ele>138.2</ele>
        <time>2021-08-21T11:10:18Z</time>
      </trkpt>
      <trkpt lat="48.3571" lon="2.73062">
        <ele>138.2</ele>
        <time>2021-08-21T11:10:19Z</time>
      </trkpt>
      <trkpt lat="48.3571" lon="2.73063">
        <ele>138.2</ele>
        <time>2021-08-21T11:10:20Z</time>
      </trkpt>
      <trkpt lat="48.3571" lon="2.73063">
        <ele>138.2</ele>
        <time>2021-08-21T11:10:21Z</time>
      </trkpt>
      <trkpt lat="48.3571" lon="2.73064">
        <ele>138.2</ele>
        <time>2021-08-21T11:10:22Z</time>
      </trkpt>
      <trkpt lat="48.3571" lon="2.73065">
        <ele>138.2</ele>
        <time>2021-08-21T11:10:23Z</time>
      </trkpt>
      <trkpt lat="48.35711" lon="2.73065">
        <ele>138.2</ele>
        <time>2021-08-21T11:10:24Z</time>
      </trkpt>
      <trkpt lat="48.35711" lon="2.73066">
        <ele>138.2</ele>
        <time>2021-08-21T11:10:25Z</time>
      </trkpt>
      <trkpt lat="48.35711" lon="2.73067">
        <ele>138.2</ele>
        <time>2021-08-21T11:10:26Z</time>
      </trkpt>
      <trkpt lat="48.35711" lon="2.73067">
        <ele>138.2</ele>
        <time>2021-08-21T11:10:27Z</time>
      </trkpt>
      <trkpt lat="48.35711" lon="2.73068">
        <ele>138.2</ele>
        <time>2021-08-21T11:10:28Z</time>
      </trkpt>
      <trkpt lat="48.35711" lon="2.73068">
        <ele>138.2</ele>
        <time>2021-08-21T11:10:29Z</time>
      </trkpt>
      <trkpt lat="48.35711" lon="2.73068">
        <ele>138.2</ele>
        <time>2021-08-21T11:10:30Z</time>
      </trkpt>
      <trkpt lat="48.35711" lon="2.73068">
        <ele>138.2</ele>
        <time>2021-08-21T11:10:31Z</time>
      </trkpt>
      <trkpt lat="48.35711" lon="2.73068">
        <ele>138.2</ele>
        <time>2021-08-21T11:10:32Z</time>
      </trkpt>
      <trkpt lat="48.3571" lon="2.73067">
        <ele>138.2</ele>
        <time>2021-08-21T11:10:33Z</time>
      </trkpt>
      <trkpt lat="48.3571" lon="2.73067">
        <ele>138.2</ele>
        <time>2021-08-21T11:10:34Z</time>
      </trkpt>
      <trkpt lat="48.3571" lon="2.73067">
        <ele>138.2</ele>
        <time>2021-08-21T11:10:35Z</time>
      </trkpt>
      <trkpt lat="48.3571" lon="2.73067">
        <ele>138.2</ele>
        <time>2021-08-21T11:10:36Z</time>
      </trkpt>
      <trkpt lat="48.35709" lon="2.73067">
        <ele>138.2</ele>
        <time>2021-08-21T11:10:37Z</time>
      </trkpt>
      <trkpt lat="48.35709" lon="2.73068">
        <ele>138.2</ele>
        <time>2021-08-21T11:10:38Z</time>
      </trkpt>
      <trkpt lat="48.35709" lon="2.73068">
        <ele>138.2</ele>
        <time>2021-08-21T11:10:39Z</time>
      </trkpt>
      <trkpt lat="48.35708" lon="2.73068">
        <ele>138.2</ele>
        <time>2021-08-21T11:10:40Z</time>
      </trkpt>
      <trkpt lat="48.35708" lon="2.73068">
        <ele>138.2</ele>
        <time>2021-08-21T11:10:41Z</time>
      </trkpt>
      <trkpt lat="48.35708" lon="2.73067">
        <ele>138.2</ele>
        <time>2021-08-21T11:10:42Z</time>
      </trkpt>
      <trkpt lat="48.35708" lon="2.73067">
        <ele>138.2</ele>
        <time>2021-08-21T11:10:43Z</time>
      </trkpt>
      <trkpt lat="48.35709" lon="2.73067">
        <ele>138.2</ele>
        <time>2021-08-21T11:10:44Z</time>
      </trkpt>
      <trkpt lat="48.35709" lon="2.73067">
        <ele>138.2</ele>
        <time>2021-08-21T11:10:45Z</time>
      </trkpt>
      <trkpt lat="48.35709" lon="2.73067">
        <ele>138.3</ele>
        <time>2021-08-21T11:10:46Z</time>
      </trkpt>
      <trkpt lat="48.35709" lon="2.73067">
        <ele>138.3</ele>
        <time>2021-08-21T11:10:47Z</time>
      </trkpt>
      <trkpt lat="48.35709" lon="2.73067">
        <ele>138.3</ele>
        <time>2021-08-21T11:10:48Z</time>
      </trkpt>
      <trkpt lat="48.35709" lon="2.73067">
        <ele>138.3</ele>
        <time>2021-08-21T11:10:49Z</time>
      </trkpt>
      <trkpt lat="48.35709" lon="2.73067">
        <ele>138.3</ele>
        <time>2021-08-21T11:10:50Z</time>
      </trkpt>
      <trkpt lat="48.35709" lon="2.73066">
        <ele>138.3</ele>
        <time>2021-08-21T11:10:51Z</time>
      </trkpt>
      <trkpt lat="48.35708" lon="2.73066">
        <ele>138.3</ele>
        <time>2021-08-21T11:10:52Z</time>
      </trkpt>
      <trkpt lat="48.35708" lon="2.73066">
        <ele>138.3</ele>
        <time>2021-08-21T11:10:53Z</time>
      </trkpt>
      <trkpt lat="48.35707" lon="2.73066">
        <ele>138.3</ele>
        <time>2021-08-21T11:10:54Z</time>
      </trkpt>
      <trkpt lat="48.35707" lon="2.73066">
        <ele>138.3</ele>
        <time>2021-08-21T11:10:55Z</time>
      </trkpt>
      <trkpt lat="48.35707" lon="2.73066">
        <ele>138.3</ele>
        <time>2021-08-21T11:10:56Z</time>
      </trkpt>
      <trkpt lat="48.35707" lon="2.73066">
        <ele>138.3</ele>
        <time>2021-08-21T11:10:57Z</time>
      </trkpt>
      <trkpt lat="48.35707" lon="2.73066">
        <ele>138.3</ele>
        <time>2021-08-21T11:10:58Z</time>
      </trkpt>
      <trkpt lat="48.35707" lon="2.73066">
        <ele>138.3</ele>
        <time>2021-08-21T11:10:59Z</time>
      </trkpt>
      <trkpt lat="48.35707" lon="2.73066">
        <ele>138.3</ele>
        <time>2021-08-21T11:11:00Z</time>
      </trkpt>
      <trkpt lat="48.35707" lon="2.73066">
        <ele>138.3</ele>
        <time>2021-08-21T11:11:01Z</time>
      </trkpt>
      <trkpt lat="48.35707" lon="2.73066">
        <ele>138.3</ele>
        <time>2021-08-21T11:11:02Z</time>
      </trkpt>
      <trkpt lat="48.35707" lon="2.73066">
        <ele>138.3</ele>
        <time>2021-08-21T11:11:03Z</time>
      </trkpt>
      <trkpt lat="48.35707" lon="2.73066">
        <ele>138.3</ele>
        <time>2021-08-21T11:11:04Z</time>
      </trkpt>
      <trkpt lat="48.35707" lon="2.73066">
        <ele>138.3</ele>
        <time>2021-08-21T11:11:05Z</time>
      </trkpt>
      <trkpt lat="48.35707" lon="2.73066">
        <ele>138.3</ele>
        <time>2021-08-21T11:11:06Z</time>
      </trkpt>
      <trkpt lat="48.35707" lon="2.73066">
        <ele>138.3</ele>
        <time>2021-08-21T11:11:07Z</time>
      </trkpt>
      <trkpt lat="48.35707" lon="2.73065">
        <ele>138.3</ele>
        <time>2021-08-21T11:11:08Z</time>
      </trkpt>
      <trkpt lat="48.35707" lon="2.73065">
        <ele>138.3</ele>
        <time>2021-08-21T11:11:09Z</time>
      </trkpt>
      <trkpt lat="48.35707" lon="2.73065">
        <ele>138.3</ele>
        <time>2021-08-21T11:11:10Z</time>
      </trkpt>
      <trkpt lat="48.35707" lon="2.73065">
        <ele>138.3</ele>
        <time>2021-08-21T11:11:11Z</time>
      </trkpt>
      <trkpt lat="48.35708" lon="2.73065">
        <ele>138.3</ele>
        <time>2021-08-21T11:11:12Z</time>
      </trkpt>
      <trkpt lat="48.35708" lon="2.73065">
        <ele>138.3</ele>
        <time>2021-08-21T11:11:13Z</time>
      </trkpt>
      <trkpt lat="48.35708" lon="2.73065">
        <ele>138.3</ele>
        <time>2021-08-21T11:11:14Z</time>
      </trkpt>
      <trkpt lat="48.35708" lon="2.73065">
        <ele>138.3</ele>
        <time>2021-08-21T11:11:15Z</time>
      </trkpt>
      <trkpt lat="48.35708" lon="2.73065">
        <ele>138.3</ele>
        <time>2021-08-21T11:11:16Z</time>
      </trkpt>
      <trkpt lat="48.35708" lon="2.73065">
        <ele>138.3</ele>
        <time>2021-08-21T11:11:17Z</time>
      </trkpt>
      <trkpt lat="48.35708" lon="2.73065">
        <ele>138.3</ele>
        <time>2021-08-21T11:11:18Z</time>
      </trkpt>
      <trkpt lat="48.35708" lon="2.73065">
        <ele>138.3</ele>
        <time>2021-08-21T11:11:19Z</time>
      </trkpt>
      <trkpt lat="48.35709" lon="2.73066">
        <ele>138.3</ele>
        <time>2021-08-21T11:11:20Z</time>
      </trkpt>
      <trkpt lat="48.35709" lon="2.73065">
        <ele>138.3</ele>
        <time>2021-08-21T11:11:21Z</time>
      </trkpt>
      <trkpt lat="48.35709" lon="2.73065">
        <ele>138.3</ele>
        <time>2021-08-21T11:11:22Z</time>
      </trkpt>
      <trkpt lat="48.35709" lon="2.73065">
        <ele>138.3</ele>
        <time>2021-08-21T11:11:23Z</time>
      </trkpt>
      <trkpt lat="48.35709" lon="2.73065">
        <ele>138.3</ele>
        <time>2021-08-21T11:11:24Z</time>
      </trkpt>
      <trkpt lat="48.35709" lon="2.73064">
        <ele>138.3</ele>
        <time>2021-08-21T11:11:25Z</time>
      </trkpt>
      <trkpt lat="48.35709" lon="2.73064">
        <ele>138.3</ele>
        <time>2021-08-21T11:11:26Z</time>
      </trkpt>
      <trkpt lat="48.35709" lon="2.73064">
        <ele>138.3</ele>
        <time>2021-08-21T11:11:27Z</time>
      </trkpt>
      <trkpt lat="48.35709" lon="2.73064">
        <ele>138.3</ele>
        <time>2021-08-21T11:11:28Z</time>
      </trkpt>
      <trkpt lat="48.35709" lon="2.73065">
        <ele>138.3</ele>
        <time>2021-08-21T11:11:29Z</time>
      </trkpt>
      <trkpt lat="48.35709" lon="2.73065">
        <ele>138.3</ele>
        <time>2021-08-21T11:11:30Z</time>
      </trkpt>
      <trkpt lat="48.35709" lon="2.73065">
        <ele>138.3</ele>
        <time>2021-08-21T11:11:31Z</time>
      </trkpt>
      <trkpt lat="48.35708" lon="2.73066">
        <ele>138.3</ele>
        <time>2021-08-21T11:11:32Z</time>
      </trkpt>
      <trkpt lat="48.35708" lon="2.73066">
        <ele>138.3</ele>
        <time>2021-08-21T11:11:33Z</time>
      </trkpt>
      <trkpt lat="48.35708" lon="2.73066">
        <ele>138.3</ele>
        <time>2021-08-21T11:11:34Z</time>
      </trkpt>
      <trkpt lat="48.35709" lon="2.73066">
        <ele>138.3</ele>
        <time>2021-08-21T11:11:35Z</time>
      </trkpt>
      <trkpt lat="48.35709" lon="2.73066">
        <ele>138.3</ele>
        <time>2021-08-21T11:11:36Z</time>
      </trkpt>
      <trkpt lat="48.35709" lon="2.73065">
        <ele>138.3</ele>
        <time>2021-08-21T11:11:37Z</time>
      </trkpt>
      <trkpt lat="48.35709" lon="2.73065">
        <ele>138.3</ele>
        <time>2021-08-21T11:11:38Z</time>
      </trkpt>
      <trkpt lat="48.35709" lon="2.73065">
        <ele>138.3</ele>
        <time>2021-08-21T11:11:39Z</time>
      </trkpt>
      <trkpt lat="48.35709" lon="2.73065">
        <ele>138.3</ele>
        <time>2021-08-21T11:11:40Z</time>
      </trkpt>
      <trkpt lat="48.35709" lon="2.73065">
        <ele>138.3</ele>
        <time>2021-08-21T11:11:41Z</time>
      </trkpt>
      <trkpt lat="48.35709" lon="2.73065">
        <ele>138.3</ele>
        <time>2021-08-21T11:11:42Z</time>
      </trkpt>
      <trkpt lat="48.35708" lon="2.73065">
        <ele>138.3</ele>
        <time>2021-08-21T11:11:43Z</time>
      </trkpt>
      <trkpt lat="48.35708" lon="2.73064">
        <ele>138.3</ele>
        <time>2021-08-21T11:11:44Z</time>
      </trkpt>
      <trkpt lat="48.35708" lon="2.73064">
        <ele>138.3</ele>
        <time>2021-08-21T11:11:45Z</time>
      </trkpt>
      <trkpt lat="48.35707" lon="2.73064">
        <ele>138.3</ele>
        <time>2021-08-21T11:11:46Z</time>
      </trkpt>
      <trkpt lat="48.35707" lon="2.73064">
        <ele>138.3</ele>
        <time>2021-08-21T11:11:47Z</time>
      </trkpt>
      <trkpt lat="48.35707" lon="2.73064">
        <ele>138.3</ele>
        <time>2021-08-21T11:11:48Z</time>
      </trkpt>
      <trkpt lat="48.35707" lon="2.73064">
        <ele>138.3</ele>
        <time>2021-08-21T11:11:49Z</time>
      </trkpt>
      <trkpt lat="48.35707" lon="2.73064">
        <ele>138.3</ele>
        <time>2021-08-21T11:11:50Z</time>
      </trkpt>
      <trkpt lat="48.35707" lon="2.73064">
        <ele>138.3</ele>
        <time>2021-08-21T11:11:51Z</time>
      </trkpt>
      <trkpt lat="48.35707" lon="2.73064">
        <ele>138.3</ele>
        <time>2021-08-21T11:11:52Z</time>
      </trkpt>
      <trkpt lat="48.35707" lon="2.73064">
        <ele>138.3</ele>
        <time>2021-08-21T11:11:53Z</time>
      </trkpt>
      <trkpt lat="48.35707" lon="2.73064">
        <ele>138.3</ele>
        <time>2021-08-21T11:11:54Z</time>
      </trkpt>
      <trkpt lat="48.35707" lon="2.73064">
        <ele>138.3</ele>
        <time>2021-08-21T11:11:55Z</time>
      </trkpt>
      <trkpt lat="48.35707" lon="2.73064">
        <ele>138.3</ele>
        <time>2021-08-21T11:11:56Z</time>
      </trkpt>
      <trkpt lat="48.35707" lon="2.73064">
        <ele>138.3</ele>
        <time>2021-08-21T11:11:57Z</time>
      </trkpt>
      <trkpt lat="48.35707" lon="2.73064">
        <ele>138.3</ele>
        <time>2021-08-21T11:11:58Z</time>
      </trkpt>
      <trkpt lat="48.35707" lon="2.73064">
        <ele>138.3</ele>
        <time>2021-08-21T11:11:59Z</time>
      </trkpt>
      <trkpt lat="48.35707" lon="2.73064">
        <ele>138.3</ele>
        <time>2021-08-21T11:12:00Z</time>
      </trkpt>
      <trkpt lat="48.35707" lon="2.73063">
        <ele>138.3</ele>
        <time>2021-08-21T11:12:01Z</time>
      </trkpt>
      <trkpt lat="48.35707" lon="2.73063">
        <ele>138.3</ele>
        <time>2021-08-21T11:12:02Z</time>
      </trkpt>
      <trkpt lat="48.35707" lon="2.73064">
        <ele>138.3</ele>
        <time>2021-08-21T11:12:03Z</time>
      </trkpt>
      <trkpt lat="48.35707" lon="2.73064">
        <ele>138.3</ele>
        <time>2021-08-21T11:12:04Z</time>
      </trkpt>
      <trkpt lat="48.35708" lon="2.73065">
        <ele>138.3</ele>
        <time>2021-08-21T11:12:05Z</time>
      </trkpt>
      <trkpt lat="48.35709" lon="2.73065">
        <ele>138.3</ele>
        <time>2021-08-21T11:12:06Z</time>
      </trkpt>
      <trkpt lat="48.35709" lon="2.73064">
        <ele>138.3</ele>
        <time>2021-08-21T11:12:07Z</time>
      </trkpt>
      <trkpt lat="48.35709" lon="2.73064">
        <ele>138.3</ele>
        <time>2021-08-21T11:12:08Z</time>
      </trkpt>
      <trkpt lat="48.35709" lon="2.73064">
        <ele>138.3</ele>
        <time>2021-08-21T11:12:09Z</time>
      </trkpt>
      <trkpt lat="48.35709" lon="2.73064">
        <ele>138.3</ele>
        <time>2021-08-21T11:12:10Z</time>
      </trkpt>
      <trkpt lat="48.35709" lon="2.73064">
        <ele>138.3</ele>
        <time>2021-08-21T11:12:11Z</time>
      </trkpt>
      <trkpt lat="48.35709" lon="2.73065">
        <ele>138.3</ele>
        <time>2021-08-21T11:12:12Z</time>
      </trkpt>
      <trkpt lat="48.35709" lon="2.73065">
        <ele>138.3</ele>
        <time>2021-08-21T11:12:13Z</time>
      </trkpt>
      <trkpt lat="48.35709" lon="2.73065">
        <ele>138.3</ele>
        <time>2021-08-21T11:12:14Z</time>
      </trkpt>
      <trkpt lat="48.35708" lon="2.73065">
        <ele>138.3</ele>
        <time>2021-08-21T11:12:15Z</time>
      </trkpt>
      <trkpt lat="48.35708" lon="2.73065">
        <ele>138.3</ele>
        <time>2021-08-21T11:12:16Z</time>
      </trkpt>
      <trkpt lat="48.35709" lon="2.73065">
        <ele>138.3</ele>
        <time>2021-08-21T11:12:17Z</time>
      </trkpt>
      <trkpt lat="48.35708" lon="2.73065">
        <ele>138.3</ele>
        <time>2021-08-21T11:12:18Z</time>
      </trkpt>
      <trkpt lat="48.35708" lon="2.73065">
        <ele>138.3</ele>
        <time>2021-08-21T11:12:19Z</time>
      </trkpt>
      <trkpt lat="48.35708" lon="2.73065">
        <ele>138.3</ele>
        <time>2021-08-21T11:12:20Z</time>
      </trkpt>
      <trkpt lat="48.35708" lon="2.73065">
        <ele>138.3</ele>
        <time>2021-08-21T11:12:21Z</time>
      </trkpt>
      <trkpt lat="48.35708" lon="2.73065">
        <ele>138.3</ele>
        <time>2021-08-21T11:12:22Z</time>
      </trkpt>
      <trkpt lat="48.35708" lon="2.73066">
        <ele>138.3</ele>
        <time>2021-08-21T11:12:23Z</time>
      </trkpt>
      <trkpt lat="48.35708" lon="2.73066">
        <ele>138.3</ele>
        <time>2021-08-21T11:12:24Z</time>
      </trkpt>
      <trkpt lat="48.35708" lon="2.73066">
        <ele>138.3</ele>
        <time>2021-08-21T11:12:25Z</time>
      </trkpt>
      <trkpt lat="48.35707" lon="2.73065">
        <ele>138.3</ele>
        <time>2021-08-21T11:12:26Z</time>
      </trkpt>
      <trkpt lat="48.35707" lon="2.73065">
        <ele>138.3</ele>
        <time>2021-08-21T11:12:27Z</time>
      </trkpt>
      <trkpt lat="48.35707" lon="2.73065">
        <ele>138.3</ele>
        <time>2021-08-21T11:12:28Z</time>
      </trkpt>
      <trkpt lat="48.35707" lon="2.73065">
        <ele>138.3</ele>
        <time>2021-08-21T11:12:29Z</time>
      </trkpt>
      <trkpt lat="48.35707" lon="2.73065">
        <ele>138.3</ele>
        <time>2021-08-21T11:12:30Z</time>
      </trkpt>
      <trkpt lat="48.35707" lon="2.73065">
        <ele>138.3</ele>
        <time>2021-08-21T11:12:31Z</time>
      </trkpt>
      <trkpt lat="48.35707" lon="2.73065">
        <ele>138.3</ele>
        <time>2021-08-21T11:12:32Z</time>
      </trkpt>
      <trkpt lat="48.35707" lon="2.73065">
        <ele>138.3</ele>
        <time>2021-08-21T11:12:33Z</time>
      </trkpt>
      <trkpt lat="48.35707" lon="2.73065">
        <ele>138.3</ele>
        <time>2021-08-21T11:12:34Z</time>
      </trkpt>
      <trkpt lat="48.35707" lon="2.73065">
        <ele>138.3</ele>
        <time>2021-08-21T11:12:35Z</time>
      </trkpt>
      <trkpt lat="48.35707" lon="2.73065">
        <ele>138.3</ele>
        <time>2021-08-21T11:12:36Z</time>
      </trkpt>
      <trkpt lat="48.35708" lon="2.73065">
        <ele>138.3</ele>
        <time>2021-08-21T11:12:37Z</time>
      </trkpt>
      <trkpt lat="48.35708" lon="2.73065">
        <ele>138.3</ele>
        <time>2021-08-21T11:12:38Z</time>
      </trkpt>
      <trkpt lat="48.35708" lon="2.73065">
        <ele>138.3</ele>
        <time>2021-08-21T11:12:39Z</time>
      </trkpt>
      <trkpt lat="48.35708" lon="2.73065">
        <ele>138.3</ele>
        <time>2021-08-21T11:12:40Z</time>
      </trkpt>
      <trkpt lat="48.35708" lon="2.73065">
        <ele>138.3</ele>
        <time>2021-08-21T11:12:41Z</time>
      </trkpt>
      <trkpt lat="48.35708" lon="2.73065">
        <ele>138.3</ele>
        <time>2021-08-21T11:12:42Z</time>
      </trkpt>
      <trkpt lat="48.35708" lon="2.73065">
        <ele>138.3</ele>
        <time>2021-08-21T11:12:43Z</time>
      </trkpt>
      <trkpt lat="48.35708" lon="2.73065">
        <ele>138.3</ele>
        <time>2021-08-21T11:12:44Z</time>
      </trkpt>
      <trkpt lat="48.35708" lon="2.73065">
        <ele>138.3</ele>
        <time>2021-08-21T11:12:45Z</time>
      </trkpt>
      <trkpt lat="48.35708" lon="2.73065">
        <ele>138.3</ele>
        <time>2021-08-21T11:12:46Z</time>
      </trkpt>
      <trkpt lat="48.35708" lon="2.73065">
        <ele>138.3</ele>
        <time>2021-08-21T11:12:47Z</time>
      </trkpt>
      <trkpt lat="48.35708" lon="2.73065">
        <ele>138.3</ele>
        <time>2021-08-21T11:12:48Z</time>
      </trkpt>
      <trkpt lat="48.35708" lon="2.73065">
        <ele>138.3</ele>
        <time>2021-08-21T11:12:49Z</time>
      </trkpt>
      <trkpt lat="48.35708" lon="2.73065">
        <ele>138.3</ele>
        <time>2021-08-21T11:12:50Z</time>
      </trkpt>
      <trkpt lat="48.35708" lon="2.73065">
        <ele>138.3</ele>
        <time>2021-08-21T11:12:51Z</time>
      </trkpt>
      <trkpt lat="48.35708" lon="2.73065">
        <ele>138.3</ele>
        <time>2021-08-21T11:12:52Z</time>
      </trkpt>
      <trkpt lat="48.35708" lon="2.73065">
        <ele>138.3</ele>
        <time>2021-08-21T11:12:53Z</time>
      </trkpt>
      <trkpt lat="48.35708" lon="2.73065">
        <ele>138.3</ele>
        <time>2021-08-21T11:12:54Z</time>
      </trkpt>
      <trkpt lat="48.35708" lon="2.73065">
        <ele>138.3</ele>
        <time>2021-08-21T11:12:55Z</time>
      </trkpt>
      <trkpt lat="48.35708" lon="2.73065">
        <ele>138.3</ele>
        <time>2021-08-21T11:12:56Z</time>
      </trkpt>
      <trkpt lat="48.35708" lon="2.73065">
        <ele>138.3</ele>
        <time>2021-08-21T11:12:57Z</time>
      </trkpt>
      <trkpt lat="48.35708" lon="2.73065">
        <ele>138.3</ele>
        <time>2021-08-21T11:12:58Z</time>
      </trkpt>
      <trkpt lat="48.35708" lon="2.73065">
        <ele>138.3</ele>
        <time>2021-08-21T11:12:59Z</time>
      </trkpt>
      <trkpt lat="48.35708" lon="2.73064">
        <ele>138.3</ele>
        <time>2021-08-21T11:13:00Z</time>
      </trkpt>
      <trkpt lat="48.35708" lon="2.73064">
        <ele>138.3</ele>
        <time>2021-08-21T11:13:01Z</time>
      </trkpt>
      <trkpt lat="48.35708" lon="2.73064">
        <ele>138.3</ele>
        <time>2021-08-21T11:13:02Z</time>
      </trkpt>
      <trkpt lat="48.35708" lon="2.73063">
        <ele>138.3</ele>
        <time>2021-08-21T11:13:03Z</time>
      </trkpt>
      <trkpt lat="48.35708" lon="2.73063">
        <ele>138.3</ele>
        <time>2021-08-21T11:13:04Z</time>
      </trkpt>
      <trkpt lat="48.35708" lon="2.73063">
        <ele>138.3</ele>
        <time>2021-08-21T11:13:05Z</time>
      </trkpt>
      <trkpt lat="48.35709" lon="2.73063">
        <ele>138.3</ele>
        <time>2021-08-21T11:13:06Z</time>
      </trkpt>
      <trkpt lat="48.35709" lon="2.73063">
        <ele>138.3</ele>
        <time>2021-08-21T11:13:07Z</time>
      </trkpt>
      <trkpt lat="48.35709" lon="2.73062">
        <ele>138.3</ele>
        <time>2021-08-21T11:13:08Z</time>
      </trkpt>
      <trkpt lat="48.35709" lon="2.73062">
        <ele>138.3</ele>
        <time>2021-08-21T11:13:09Z</time>
      </trkpt>
      <trkpt lat="48.3571" lon="2.73062">
        <ele>138.3</ele>
        <time>2021-08-21T11:13:10Z</time>
      </trkpt>
      <trkpt lat="48.3571" lon="2.73062">
        <ele>138.3</ele>
        <time>2021-08-21T11:13:11Z</time>
      </trkpt>
      <trkpt lat="48.3571" lon="2.73062">
        <ele>138.3</ele>
        <time>2021-08-21T11:13:12Z</time>
      </trkpt>
      <trkpt lat="48.35711" lon="2.73062">
        <ele>138.3</ele>
        <time>2021-08-21T11:13:13Z</time>
      </trkpt>
      <trkpt lat="48.35711" lon="2.73062">
        <ele>138.3</ele>
        <time>2021-08-21T11:13:14Z</time>
      </trkpt>
      <trkpt lat="48.35711" lon="2.73062">
        <ele>138.3</ele>
        <time>2021-08-21T11:13:15Z</time>
      </trkpt>
      <trkpt lat="48.35712" lon="2.73062">
        <ele>138.3</ele>
        <time>2021-08-21T11:13:16Z</time>
      </trkpt>
      <trkpt lat="48.35712" lon="2.73062">
        <ele>138.3</ele>
        <time>2021-08-21T11:13:17Z</time>
      </trkpt>
      <trkpt lat="48.35712" lon="2.73063">
        <ele>138.3</ele>
        <time>2021-08-21T11:13:18Z</time>
      </trkpt>
      <trkpt lat="48.35711" lon="2.73063">
        <ele>138.3</ele>
        <time>2021-08-21T11:13:19Z</time>
      </trkpt>
      <trkpt lat="48.3571" lon="2.73064">
        <ele>138.3</ele>
        <time>2021-08-21T11:13:20Z</time>
      </trkpt>
      <trkpt lat="48.35709" lon="2.73065">
        <ele>138.3</ele>
        <time>2021-08-21T11:13:21Z</time>
      </trkpt>
      <trkpt lat="48.35708" lon="2.73065">
        <ele>138.3</ele>
        <time>2021-08-21T11:13:22Z</time>
      </trkpt>
      <trkpt lat="48.35707" lon="2.73065">
        <ele>138.3</ele>
        <time>2021-08-21T11:13:23Z</time>
      </trkpt>
      <trkpt lat="48.35706" lon="2.73065">
        <ele>138.3</ele>
        <time>2021-08-21T11:13:24Z</time>
      </trkpt>
      <trkpt lat="48.35705" lon="2.73066">
        <ele>138.3</ele>
        <time>2021-08-21T11:13:25Z</time>
      </trkpt>
      <trkpt lat="48.35704" lon="2.73066">
        <ele>138.3</ele>
        <time>2021-08-21T11:13:26Z</time>
      </trkpt>
      <trkpt lat="48.35703" lon="2.73067">
        <ele>138.3</ele>
        <time>2021-08-21T11:13:27Z</time>
      </trkpt>
      <trkpt lat="48.35702" lon="2.73067">
        <ele>138.3</ele>
        <time>2021-08-21T11:13:28Z</time>
      </trkpt>
      <trkpt lat="48.35702" lon="2.73068">
        <ele>138.3</ele>
        <time>2021-08-21T11:13:29Z</time>
      </trkpt>
      <trkpt lat="48.35701" lon="2.73068">
        <ele>138.3</ele>
        <time>2021-08-21T11:13:30Z</time>
      </trkpt>
      <trkpt lat="48.357" lon="2.73068">
        <ele>138.3</ele>
        <time>2021-08-21T11:13:31Z</time>
      </trkpt>
      <trkpt lat="48.357" lon="2.73069">
        <ele>138.3</ele>
        <time>2021-08-21T11:13:32Z</time>
      </trkpt>
      <trkpt lat="48.35699" lon="2.73069">
        <ele>138.3</ele>
        <time>2021-08-21T11:13:33Z</time>
      </trkpt>
      <trkpt lat="48.35698" lon="2.7307">
        <ele>138.3</ele>
        <time>2021-08-21T11:13:34Z</time>
      </trkpt>
      <trkpt lat="48.35697" lon="2.73071">
        <ele>138.3</ele>
        <time>2021-08-21T11:13:35Z</time>
      </trkpt>
      <trkpt lat="48.35696" lon="2.73071">
        <ele>138.3</ele>
        <time>2021-08-21T11:13:36Z</time>
      </trkpt>
      <trkpt lat="48.35696" lon="2.73072">
        <ele>138.3</ele>
        <time>2021-08-21T11:13:37Z</time>
      </trkpt>
      <trkpt lat="48.35694" lon="2.73073">
        <ele>138.3</ele>
        <time>2021-08-21T11:13:38Z</time>
      </trkpt>
      <trkpt lat="48.35693" lon="2.73073">
        <ele>138.3</ele>
        <time>2021-08-21T11:13:39Z</time>
      </trkpt>
      <trkpt lat="48.35692" lon="2.73073">
        <ele>138.3</ele>
        <time>2021-08-21T11:13:40Z</time>
      </trkpt>
      <trkpt lat="48.3569" lon="2.73072">
        <ele>138.3</ele>
        <time>2021-08-21T11:13:41Z</time>
      </trkpt>
      <trkpt lat="48.35689" lon="2.73072">
        <ele>138.3</ele>
        <time>2021-08-21T11:13:42Z</time>
      </trkpt>
      <trkpt lat="48.35689" lon="2.73071">
        <ele>138.3</ele>
        <time>2021-08-21T11:13:43Z</time>
      </trkpt>
      <trkpt lat="48.35688" lon="2.73071">
        <ele>138.3</ele>
        <time>2021-08-21T11:13:44Z</time>
      </trkpt>
      <trkpt lat="48.35687" lon="2.73071">
        <ele>138.3</ele>
        <time>2021-08-21T11:13:45Z</time>
      </trkpt>
      <trkpt lat="48.35686" lon="2.73071">
        <ele>138.3</ele>
        <time>2021-08-21T11:13:46Z</time>
      </trkpt>
      <trkpt lat="48.35685" lon="2.7307">
        <ele>138.3</ele>
        <time>2021-08-21T11:13:47Z</time>
      </trkpt>
      <trkpt lat="48.35685" lon="2.7307">
        <ele>138.3</ele>
        <time>2021-08-21T11:13:48Z</time>
      </trkpt>
      <trkpt lat="48.35684" lon="2.73069">
        <ele>138.3</ele>
        <time>2021-08-21T11:13:49Z</time>
      </trkpt>
      <trkpt lat="48.35683" lon="2.73068">
        <ele>138.3</ele>
        <time>2021-08-21T11:13:50Z</time>
      </trkpt>
      <trkpt lat="48.35681" lon="2.73067">
        <ele>138.3</ele>
        <time>2021-08-21T11:13:51Z</time>
      </trkpt>
      <trkpt lat="48.35681" lon="2.73066">
        <ele>138.3</ele>
        <time>2021-08-21T11:13:52Z</time>
      </trkpt>
      <trkpt lat="48.3568" lon="2.73066">
        <ele>138.3</ele>
        <time>2021-08-21T11:13:53Z</time>
      </trkpt>
      <trkpt lat="48.35679" lon="2.73066">
        <ele>138.3</ele>
        <time>2021-08-21T11:13:54Z</time>
      </trkpt>
      <trkpt lat="48.35678" lon="2.73065">
        <ele>138.3</ele>
        <time>2021-08-21T11:13:55Z</time>
      </trkpt>
      <trkpt lat="48.35677" lon="2.73064">
        <ele>138.3</ele>
        <time>2021-08-21T11:13:56Z</time>
      </trkpt>
      <trkpt lat="48.35676" lon="2.73064">
        <ele>138.3</ele>
        <time>2021-08-21T11:13:57Z</time>
      </trkpt>
      <trkpt lat="48.35676" lon="2.73063">
        <ele>138.3</ele>
        <time>2021-08-21T11:13:58Z</time>
      </trkpt>
      <trkpt lat="48.35675" lon="2.73063">
        <ele>138.3</ele>
        <time>2021-08-21T11:13:59Z</time>
      </trkpt>
      <trkpt lat="48.35674" lon="2.73062">
        <ele>138.3</ele>
        <time>2021-08-21T11:14:00Z</time>
      </trkpt>
      <trkpt lat="48.35672" lon="2.7306">
        <ele>138.3</ele>
        <time>2021-08-21T11:14:01Z</time>
      </trkpt>
      <trkpt lat="48.35672" lon="2.7306">
        <ele>138.3</ele>
        <time>2021-08-21T11:14:02Z</time>
      </trkpt>
      <trkpt lat="48.35671" lon="2.73059">
        <ele>138.3</ele>
        <time>2021-08-21T11:14:03Z</time>
      </trkpt>
      <trkpt lat="48.3567" lon="2.73058">
        <ele>138.3</ele>
        <time>2021-08-21T11:14:04Z</time>
      </trkpt>
      <trkpt lat="48.35669" lon="2.73058">
        <ele>138.3</ele>
        <time>2021-08-21T11:14:05Z</time>
      </trkpt>
      <trkpt lat="48.35668" lon="2.73057">
        <ele>138.3</ele>
        <time>2021-08-21T11:14:06Z</time>
      </trkpt>
      <trkpt lat="48.35666" lon="2.73056">
        <ele>138.3</ele>
        <time>2021-08-21T11:14:07Z</time>
      </trkpt>
      <trkpt lat="48.35665" lon="2.73055">
        <ele>138.3</ele>
        <time>2021-08-21T11:14:08Z</time>
      </trkpt>
      <trkpt lat="48.35664" lon="2.73055">
        <ele>138.3</ele>
        <time>2021-08-21T11:14:09Z</time>
      </trkpt>
      <trkpt lat="48.35663" lon="2.73054">
        <ele>137.9</ele>
        <time>2021-08-21T11:14:10Z</time>
      </trkpt>
      <trkpt lat="48.35662" lon="2.73053">
        <ele>137.8</ele>
        <time>2021-08-21T11:14:11Z</time>
      </trkpt>
      <trkpt lat="48.35661" lon="2.73052">
        <ele>137.7</ele>
        <time>2021-08-21T11:14:12Z</time>
      </trkpt>
      <trkpt lat="48.3566" lon="2.73052">
        <ele>137.7</ele>
        <time>2021-08-21T11:14:13Z</time>
      </trkpt>
      <trkpt lat="48.3566" lon="2.73051">
        <ele>137.6</ele>
        <time>2021-08-21T11:14:14Z</time>
      </trkpt>
      <trkpt lat="48.35658" lon="2.7305">
        <ele>137.6</ele>
        <time>2021-08-21T11:14:15Z</time>
      </trkpt>
      <trkpt lat="48.35657" lon="2.7305">
        <ele>137.5</ele>
        <time>2021-08-21T11:14:16Z</time>
      </trkpt>
      <trkpt lat="48.35657" lon="2.73049">
        <ele>137.5</ele>
        <time>2021-08-21T11:14:17Z</time>
      </trkpt>
      <trkpt lat="48.35656" lon="2.73048">
        <ele>137.4</ele>
        <time>2021-08-21T11:14:18Z</time>
      </trkpt>
      <trkpt lat="48.35656" lon="2.73048">
        <ele>137.4</ele>
        <time>2021-08-21T11:14:19Z</time>
      </trkpt>
      <trkpt lat="48.35655" lon="2.73047">
        <ele>137.4</ele>
        <time>2021-08-21T11:14:20Z</time>
      </trkpt>
      <trkpt lat="48.35654" lon="2.73046">
        <ele>137.3</ele>
        <time>2021-08-21T11:14:21Z</time>
      </trkpt>
      <trkpt lat="48.35653" lon="2.73047">
        <ele>137.3</ele>
        <time>2021-08-21T11:14:22Z</time>
      </trkpt>
      <trkpt lat="48.35653" lon="2.73047">
        <ele>137.2</ele>
        <time>2021-08-21T11:14:23Z</time>
      </trkpt>
      <trkpt lat="48.35653" lon="2.73047">
        <ele>137.2</ele>
        <time>2021-08-21T11:14:24Z</time>
      </trkpt>
      <trkpt lat="48.35653" lon="2.73047">
        <ele>137.2</ele>
        <time>2021-08-21T11:14:25Z</time>
      </trkpt>
      <trkpt lat="48.35653" lon="2.73047">
        <ele>137.2</ele>
        <time>2021-08-21T11:14:26Z</time>
      </trkpt>
      <trkpt lat="48.35653" lon="2.73046">
        <ele>137.2</ele>
        <time>2021-08-21T11:14:27Z</time>
      </trkpt>
      <trkpt lat="48.35653" lon="2.73046">
        <ele>137.2</ele>
        <time>2021-08-21T11:14:28Z</time>
      </trkpt>
      <trkpt lat="48.35653" lon="2.73045">
        <ele>137.2</ele>
        <time>2021-08-21T11:14:29Z</time>
      </trkpt>
      <trkpt lat="48.35653" lon="2.73045">
        <ele>137.2</ele>
        <time>2021-08-21T11:14:30Z</time>
      </trkpt>
      <trkpt lat="48.35653" lon="2.73045">
        <ele>137.1</ele>
        <time>2021-08-21T11:14:31Z</time>
      </trkpt>
      <trkpt lat="48.35653" lon="2.73044">
        <ele>137.1</ele>
        <time>2021-08-21T11:14:32Z</time>
      </trkpt>
      <trkpt lat="48.35653" lon="2.73044">
        <ele>137.1</ele>
        <time>2021-08-21T11:14:33Z</time>
      </trkpt>
      <trkpt lat="48.35653" lon="2.73044">
        <ele>137.1</ele>
        <time>2021-08-21T11:14:34Z</time>
      </trkpt>
      <trkpt lat="48.35653" lon="2.73043">
        <ele>137.1</ele>
        <time>2021-08-21T11:14:35Z</time>
      </trkpt>
      <trkpt lat="48.35653" lon="2.73043">
        <ele>137.1</ele>
        <time>2021-08-21T11:14:36Z</time>
      </trkpt>
      <trkpt lat="48.35654" lon="2.73042">
        <ele>137</ele>
        <time>2021-08-21T11:14:37Z</time>
      </trkpt>
      <trkpt lat="48.35654" lon="2.73042">
        <ele>137</ele>
        <time>2021-08-21T11:14:38Z</time>
      </trkpt>
      <trkpt lat="48.35654" lon="2.73042">
        <ele>137</ele>
        <time>2021-08-21T11:14:39Z</time>
      </trkpt>
      <trkpt lat="48.35655" lon="2.73042">
        <ele>137</ele>
        <time>2021-08-21T11:14:40Z</time>
      </trkpt>
      <trkpt lat="48.35655" lon="2.73043">
        <ele>136.9</ele>
        <time>2021-08-21T11:14:41Z</time>
      </trkpt>
      <trkpt lat="48.35655" lon="2.73043">
        <ele>136.9</ele>
        <time>2021-08-21T11:14:42Z</time>
      </trkpt>
      <trkpt lat="48.35656" lon="2.73043">
        <ele>136.9</ele>
        <time>2021-08-21T11:14:43Z</time>
      </trkpt>
      <trkpt lat="48.35656" lon="2.73043">
        <ele>136.9</ele>
        <time>2021-08-21T11:14:44Z</time>
      </trkpt>
      <trkpt lat="48.35657" lon="2.73043">
        <ele>136.9</ele>
        <time>2021-08-21T11:14:45Z</time>
      </trkpt>
      <trkpt lat="48.35657" lon="2.73043">
        <ele>136.9</ele>
        <time>2021-08-21T11:14:46Z</time>
      </trkpt>
      <trkpt lat="48.35657" lon="2.73043">
        <ele>136.9</ele>
        <time>2021-08-21T11:14:47Z</time>
      </trkpt>
      <trkpt lat="48.35657" lon="2.73043">
        <ele>136.9</ele>
        <time>2021-08-21T11:14:48Z</time>
      </trkpt>
      <trkpt lat="48.35657" lon="2.73043">
        <ele>136.8</ele>
        <time>2021-08-21T11:14:49Z</time>
      </trkpt>
      <trkpt lat="48.35657" lon="2.73043">
        <ele>136.8</ele>
        <time>2021-08-21T11:14:50Z</time>
      </trkpt>
      <trkpt lat="48.35657" lon="2.73043">
        <ele>136.8</ele>
        <time>2021-08-21T11:14:51Z</time>
      </trkpt>
      <trkpt lat="48.35657" lon="2.73043">
        <ele>136.8</ele>
        <time>2021-08-21T11:14:52Z</time>
      </trkpt>
      <trkpt lat="48.35657" lon="2.73043">
        <ele>136.8</ele>
        <time>2021-08-21T11:14:53Z</time>
      </trkpt>
      <trkpt lat="48.35657" lon="2.73043">
        <ele>136.8</ele>
        <time>2021-08-21T11:14:54Z</time>
      </trkpt>
      <trkpt lat="48.35657" lon="2.73043">
        <ele>136.8</ele>
        <time>2021-08-21T11:14:55Z</time>
      </trkpt>
      <trkpt lat="48.35657" lon="2.73043">
        <ele>136.8</ele>
        <time>2021-08-21T11:14:56Z</time>
      </trkpt>
      <trkpt lat="48.35657" lon="2.73043">
        <ele>136.8</ele>
        <time>2021-08-21T11:14:57Z</time>
      </trkpt>
      <trkpt lat="48.35657" lon="2.73043">
        <ele>136.8</ele>
        <time>2021-08-21T11:14:58Z</time>
      </trkpt>
      <trkpt lat="48.35657" lon="2.73043">
        <ele>136.8</ele>
        <time>2021-08-21T11:14:59Z</time>
      </trkpt>
      <trkpt lat="48.35657" lon="2.73043">
        <ele>136.8</ele>
        <time>2021-08-21T11:15:00Z</time>
      </trkpt>
      <trkpt lat="48.35657" lon="2.73043">
        <ele>136.8</ele>
        <time>2021-08-21T11:15:01Z</time>
      </trkpt>
      <trkpt lat="48.35657" lon="2.73043">
        <ele>136.8</ele>
        <time>2021-08-21T11:15:02Z</time>
      </trkpt>
      <trkpt lat="48.35657" lon="2.73043">
        <ele>136.8</ele>
        <time>2021-08-21T11:15:03Z</time>
      </trkpt>
      <trkpt lat="48.35657" lon="2.73043">
        <ele>136.8</ele>
        <time>2021-08-21T11:15:04Z</time>
      </trkpt>
      <trkpt lat="48.35657" lon="2.73043">
        <ele>136.9</ele>
        <time>2021-08-21T11:15:05Z</time>
      </trkpt>
      <trkpt lat="48.35658" lon="2.73044">
        <ele>136.9</ele>
        <time>2021-08-21T11:15:06Z</time>
      </trkpt>
      <trkpt lat="48.35658" lon="2.73044">
        <ele>136.9</ele>
        <time>2021-08-21T11:15:07Z</time>
      </trkpt>
      <trkpt lat="48.35658" lon="2.73044">
        <ele>136.8</ele>
        <time>2021-08-21T11:15:08Z</time>
      </trkpt>
      <trkpt lat="48.35659" lon="2.73045">
        <ele>136.8</ele>
        <time>2021-08-21T11:15:09Z</time>
      </trkpt>
      <trkpt lat="48.35659" lon="2.73045">
        <ele>136.8</ele>
        <time>2021-08-21T11:15:10Z</time>
      </trkpt>
      <trkpt lat="48.35659" lon="2.73045">
        <ele>136.9</ele>
        <time>2021-08-21T11:15:11Z</time>
      </trkpt>
      <trkpt lat="48.35659" lon="2.73045">
        <ele>136.9</ele>
        <time>2021-08-21T11:15:12Z</time>
      </trkpt>
      <trkpt lat="48.35659" lon="2.73045">
        <ele>136.9</ele>
        <time>2021-08-21T11:15:13Z</time>
      </trkpt>
      <trkpt lat="48.35659" lon="2.73045">
        <ele>136.9</ele>
        <time>2021-08-21T11:15:14Z</time>
      </trkpt>
      <trkpt lat="48.35659" lon="2.73045">
        <ele>136.9</ele>
        <time>2021-08-21T11:15:15Z</time>
      </trkpt>
      <trkpt lat="48.35659" lon="2.73045">
        <ele>136.9</ele>
        <time>2021-08-21T11:15:16Z</time>
      </trkpt>
      <trkpt lat="48.35659" lon="2.73045">
        <ele>137</ele>
        <time>2021-08-21T11:15:17Z</time>
      </trkpt>
      <trkpt lat="48.35659" lon="2.73045">
        <ele>137</ele>
        <time>2021-08-21T11:15:18Z</time>
      </trkpt>
      <trkpt lat="48.35659" lon="2.73045">
        <ele>137</ele>
        <time>2021-08-21T11:15:19Z</time>
      </trkpt>
      <trkpt lat="48.35659" lon="2.73045">
        <ele>137</ele>
        <time>2021-08-21T11:15:20Z</time>
      </trkpt>
      <trkpt lat="48.35659" lon="2.73045">
        <ele>137</ele>
        <time>2021-08-21T11:15:21Z</time>
      </trkpt>
      <trkpt lat="48.35659" lon="2.73045">
        <ele>137</ele>
        <time>2021-08-21T11:15:22Z</time>
      </trkpt>
      <trkpt lat="48.35659" lon="2.73045">
        <ele>137.1</ele>
        <time>2021-08-21T11:15:23Z</time>
      </trkpt>
      <trkpt lat="48.35659" lon="2.73045">
        <ele>137.1</ele>
        <time>2021-08-21T11:15:24Z</time>
      </trkpt>
      <trkpt lat="48.35659" lon="2.73045">
        <ele>137.1</ele>
        <time>2021-08-21T11:15:25Z</time>
      </trkpt>
      <trkpt lat="48.35659" lon="2.73045">
        <ele>137.1</ele>
        <time>2021-08-21T11:15:26Z</time>
      </trkpt>
      <trkpt lat="48.35659" lon="2.73045">
        <ele>137.1</ele>
        <time>2021-08-21T11:15:27Z</time>
      </trkpt>
      <trkpt lat="48.35659" lon="2.73045">
        <ele>137.1</ele>
        <time>2021-08-21T11:15:28Z</time>
      </trkpt>
      <trkpt lat="48.35659" lon="2.73045">
        <ele>137.1</ele>
        <time>2021-08-21T11:15:29Z</time>
      </trkpt>
      <trkpt lat="48.35659" lon="2.73045">
        <ele>137.2</ele>
        <time>2021-08-21T11:15:30Z</time>
      </trkpt>
      <trkpt lat="48.35659" lon="2.73045">
        <ele>137.2</ele>
        <time>2021-08-21T11:15:31Z</time>
      </trkpt>
      <trkpt lat="48.35659" lon="2.73045">
        <ele>137.2</ele>
        <time>2021-08-21T11:15:32Z</time>
      </trkpt>
      <trkpt lat="48.35659" lon="2.73045">
        <ele>137.2</ele>
        <time>2021-08-21T11:15:33Z</time>
      </trkpt>
      <trkpt lat="48.35659" lon="2.73045">
        <ele>137.2</ele>
        <time>2021-08-21T11:15:34Z</time>
      </trkpt>
      <trkpt lat="48.35659" lon="2.73045">
        <ele>137.2</ele>
        <time>2021-08-21T11:15:35Z</time>
      </trkpt>
      <trkpt lat="48.35659" lon="2.73045">
        <ele>137.3</ele>
        <time>2021-08-21T11:15:36Z</time>
      </trkpt>
      <trkpt lat="48.35659" lon="2.73045">
        <ele>137.3</ele>
        <time>2021-08-21T11:15:37Z</time>
      </trkpt>
      <trkpt lat="48.35659" lon="2.73045">
        <ele>137.3</ele>
        <time>2021-08-21T11:15:38Z</time>
      </trkpt>
      <trkpt lat="48.35659" lon="2.73045">
        <ele>137.3</ele>
        <time>2021-08-21T11:15:39Z</time>
      </trkpt>
      <trkpt lat="48.35659" lon="2.73045">
        <ele>137.3</ele>
        <time>2021-08-21T11:15:40Z</time>
      </trkpt>
      <trkpt lat="48.35659" lon="2.73045">
        <ele>137.3</ele>
        <time>2021-08-21T11:15:41Z</time>
      </trkpt>
      <trkpt lat="48.35659" lon="2.73045">
        <ele>137.4</ele>
        <time>2021-08-21T11:15:42Z</time>
      </trkpt>
      <trkpt lat="48.35659" lon="2.73046">
        <ele>137.3</ele>
        <time>2021-08-21T11:15:43Z</time>
      </trkpt>
      <trkpt lat="48.35659" lon="2.73047">
        <ele>137.3</ele>
        <time>2021-08-21T11:15:44Z</time>
      </trkpt>
      <trkpt lat="48.3566" lon="2.73047">
        <ele>137.3</ele>
        <time>2021-08-21T11:15:45Z</time>
      </trkpt>
      <trkpt lat="48.3566" lon="2.73048">
        <ele>137.4</ele>
        <time>2021-08-21T11:15:46Z</time>
      </trkpt>
      <trkpt lat="48.3566" lon="2.73048">
        <ele>137.4</ele>
        <time>2021-08-21T11:15:47Z</time>
      </trkpt>
      <trkpt lat="48.3566" lon="2.73048">
        <ele>137.4</ele>
        <time>2021-08-21T11:15:48Z</time>
      </trkpt>
      <trkpt lat="48.3566" lon="2.73048">
        <ele>137.4</ele>
        <time>2021-08-21T11:15:49Z</time>
      </trkpt>
      <trkpt lat="48.3566" lon="2.73048">
        <ele>137.4</ele>
        <time>2021-08-21T11:15:50Z</time>
      </trkpt>
      <trkpt lat="48.3566" lon="2.73048">
        <ele>137.5</ele>
        <time>2021-08-21T11:15:51Z</time>
      </trkpt>
      <trkpt lat="48.3566" lon="2.73048">
        <ele>137.5</ele>
        <time>2021-08-21T11:15:52Z</time>
      </trkpt>
      <trkpt lat="48.3566" lon="2.73048">
        <ele>137.5</ele>
        <time>2021-08-21T11:15:53Z</time>
      </trkpt>
      <trkpt lat="48.3566" lon="2.73048">
        <ele>137.5</ele>
        <time>2021-08-21T11:15:54Z</time>
      </trkpt>
      <trkpt lat="48.3566" lon="2.73048">
        <ele>137.5</ele>
        <time>2021-08-21T11:15:55Z</time>
      </trkpt>
      <trkpt lat="48.3566" lon="2.73048">
        <ele>137.5</ele>
        <time>2021-08-21T11:15:56Z</time>
      </trkpt>
      <trkpt lat="48.35659" lon="2.73048">
        <ele>137.6</ele>
        <time>2021-08-21T11:15:57Z</time>
      </trkpt>
      <trkpt lat="48.35659" lon="2.73049">
        <ele>137.5</ele>
        <time>2021-08-21T11:15:58Z</time>
      </trkpt>
      <trkpt lat="48.35659" lon="2.73049">
        <ele>137.5</ele>
        <time>2021-08-21T11:15:59Z</time>
      </trkpt>
      <trkpt lat="48.35659" lon="2.73049">
        <ele>137.6</ele>
        <time>2021-08-21T11:16:00Z</time>
      </trkpt>
      <trkpt lat="48.35659" lon="2.73049">
        <ele>137.6</ele>
        <time>2021-08-21T11:16:01Z</time>
      </trkpt>
      <trkpt lat="48.35659" lon="2.73049">
        <ele>137.6</ele>
        <time>2021-08-21T11:16:02Z</time>
      </trkpt>
      <trkpt lat="48.35659" lon="2.73049">
        <ele>137.6</ele>
        <time>2021-08-21T11:16:03Z</time>
      </trkpt>
      <trkpt lat="48.35659" lon="2.73049">
        <ele>137.6</ele>
        <time>2021-08-21T11:16:04Z</time>
      </trkpt>
      <trkpt lat="48.35659" lon="2.73049">
        <ele>137.7</ele>
        <time>2021-08-21T11:16:05Z</time>
      </trkpt>
      <trkpt lat="48.35659" lon="2.73049">
        <ele>137.7</ele>
        <time>2021-08-21T11:16:06Z</time>
      </trkpt>
      <trkpt lat="48.35659" lon="2.73049">
        <ele>137.7</ele>
        <time>2021-08-21T11:16:07Z</time>
      </trkpt>
      <trkpt lat="48.35659" lon="2.73049">
        <ele>137.7</ele>
        <time>2021-08-21T11:16:08Z</time>
      </trkpt>
      <trkpt lat="48.35659" lon="2.73049">
        <ele>137.7</ele>
        <time>2021-08-21T11:16:09Z</time>
      </trkpt>
      <trkpt lat="48.35659" lon="2.73049">
        <ele>137.7</ele>
        <time>2021-08-21T11:16:10Z</time>
      </trkpt>
      <trkpt lat="48.35659" lon="2.73049">
        <ele>137.8</ele>
        <time>2021-08-21T11:16:11Z</time>
      </trkpt>
      <trkpt lat="48.35659" lon="2.73049">
        <ele>137.8</ele>
        <time>2021-08-21T11:16:12Z</time>
      </trkpt>
      <trkpt lat="48.35659" lon="2.73049">
        <ele>137.8</ele>
        <time>2021-08-21T11:16:13Z</time>
      </trkpt>
      <trkpt lat="48.35659" lon="2.73049">
        <ele>137.8</ele>
        <time>2021-08-21T11:16:14Z</time>
      </trkpt>
      <trkpt lat="48.35659" lon="2.73049">
        <ele>137.8</ele>
        <time>2021-08-21T11:16:15Z</time>
      </trkpt>
      <trkpt lat="48.35659" lon="2.73049">
        <ele>137.9</ele>
        <time>2021-08-21T11:16:16Z</time>
      </trkpt>
      <trkpt lat="48.35659" lon="2.73049">
        <ele>137.9</ele>
        <time>2021-08-21T11:16:17Z</time>
      </trkpt>
      <trkpt lat="48.35659" lon="2.73049">
        <ele>137.9</ele>
        <time>2021-08-21T11:16:18Z</time>
      </trkpt>
      <trkpt lat="48.35659" lon="2.73049">
        <ele>137.9</ele>
        <time>2021-08-21T11:16:19Z</time>
      </trkpt>
      <trkpt lat="48.35659" lon="2.73049">
        <ele>137.9</ele>
        <time>2021-08-21T11:16:20Z</time>
      </trkpt>
      <trkpt lat="48.35659" lon="2.73049">
        <ele>137.9</ele>
        <time>2021-08-21T11:16:21Z</time>
      </trkpt>
      <trkpt lat="48.35659" lon="2.73049">
        <ele>138</ele>
        <time>2021-08-21T11:16:22Z</time>
      </trkpt>
      <trkpt lat="48.35659" lon="2.73049">
        <ele>138</ele>
        <time>2021-08-21T11:16:23Z</time>
      </trkpt>
      <trkpt lat="48.35659" lon="2.73049">
        <ele>138</ele>
        <time>2021-08-21T11:16:24Z</time>
      </trkpt>
      <trkpt lat="48.35659" lon="2.73049">
        <ele>138</ele>
        <time>2021-08-21T11:16:25Z</time>
      </trkpt>
      <trkpt lat="48.35659" lon="2.73049">
        <ele>138</ele>
        <time>2021-08-21T11:16:26Z</time>
      </trkpt>
      <trkpt lat="48.35659" lon="2.73049">
        <ele>138</ele>
        <time>2021-08-21T11:16:27Z</time>
      </trkpt>
      <trkpt lat="48.35659" lon="2.73049">
        <ele>138.1</ele>
        <time>2021-08-21T11:16:28Z</time>
      </trkpt>
      <trkpt lat="48.35659" lon="2.73049">
        <ele>138.1</ele>
        <time>2021-08-21T11:16:29Z</time>
      </trkpt>
      <trkpt lat="48.35659" lon="2.73049">
        <ele>138.1</ele>
        <time>2021-08-21T11:16:30Z</time>
      </trkpt>
      <trkpt lat="48.35659" lon="2.73049">
        <ele>138.1</ele>
        <time>2021-08-21T11:16:31Z</time>
      </trkpt>
      <trkpt lat="48.35659" lon="2.73049">
        <ele>138.1</ele>
        <time>2021-08-21T11:16:32Z</time>
      </trkpt>
      <trkpt lat="48.35659" lon="2.73049">
        <ele>138.2</ele>
        <time>2021-08-21T11:16:33Z</time>
      </trkpt>
      <trkpt lat="48.35659" lon="2.73049">
        <ele>138.2</ele>
        <time>2021-08-21T11:16:34Z</time>
      </trkpt>
      <trkpt lat="48.35659" lon="2.73049">
        <ele>138.2</ele>
        <time>2021-08-21T11:16:35Z</time>
      </trkpt>
      <trkpt lat="48.35659" lon="2.73049">
        <ele>138.2</ele>
        <time>2021-08-21T11:16:36Z</time>
      </trkpt>
      <trkpt lat="48.35659" lon="2.73049">
        <ele>138.2</ele>
        <time>2021-08-21T11:16:37Z</time>
      </trkpt>
      <trkpt lat="48.35659" lon="2.73049">
        <ele>138.2</ele>
        <time>2021-08-21T11:16:38Z</time>
      </trkpt>
      <trkpt lat="48.35659" lon="2.73049">
        <ele>138.3</ele>
        <time>2021-08-21T11:16:39Z</time>
      </trkpt>
      <trkpt lat="48.35659" lon="2.73049">
        <ele>138.3</ele>
        <time>2021-08-21T11:16:40Z</time>
      </trkpt>
      <trkpt lat="48.35659" lon="2.73049">
        <ele>138.3</ele>
        <time>2021-08-21T11:16:41Z</time>
      </trkpt>
      <trkpt lat="48.35659" lon="2.73049">
        <ele>138.3</ele>
        <time>2021-08-21T11:16:42Z</time>
      </trkpt>
      <trkpt lat="48.35659" lon="2.73049">
        <ele>138.3</ele>
        <time>2021-08-21T11:16:43Z</time>
      </trkpt>
      <trkpt lat="48.35659" lon="2.73049">
        <ele>138.3</ele>
        <time>2021-08-21T11:16:44Z</time>
      </trkpt>
      <trkpt lat="48.35659" lon="2.73049">
        <ele>138.3</ele>
        <time>2021-08-21T11:16:45Z</time>
      </trkpt>
      <trkpt lat="48.35659" lon="2.73049">
        <ele>138.3</ele>
        <time>2021-08-21T11:16:46Z</time>
      </trkpt>
      <trkpt lat="48.35659" lon="2.73049">
        <ele>138.3</ele>
        <time>2021-08-21T11:16:47Z</time>
      </trkpt>
      <trkpt lat="48.35659" lon="2.73049">
        <ele>138.3</ele>
        <time>2021-08-21T11:16:48Z</time>
      </trkpt>
      <trkpt lat="48.35659" lon="2.73049">
        <ele>138.3</ele>
        <time>2021-08-21T11:16:49Z</time>
      </trkpt>
      <trkpt lat="48.35659" lon="2.73049">
        <ele>138.3</ele>
        <time>2021-08-21T11:16:50Z</time>
      </trkpt>
      <trkpt lat="48.35659" lon="2.73049">
        <ele>138.3</ele>
        <time>2021-08-21T11:16:51Z</time>
      </trkpt>
      <trkpt lat="48.35659" lon="2.73049">
        <ele>138.3</ele>
        <time>2021-08-21T11:16:52Z</time>
      </trkpt>
      <trkpt lat="48.35659" lon="2.73049">
        <ele>138.3</ele>
        <time>2021-08-21T11:16:53Z</time>
      </trkpt>
      <trkpt lat="48.35659" lon="2.73049">
        <ele>138.3</ele>
        <time>2021-08-21T11:16:54Z</time>
      </trkpt>
      <trkpt lat="48.35659" lon="2.73049">
        <ele>138.3</ele>
        <time>2021-08-21T11:16:55Z</time>
      </trkpt>
      <trkpt lat="48.35659" lon="2.73049">
        <ele>138.3</ele>
        <time>2021-08-21T11:16:56Z</time>
      </trkpt>
      <trkpt lat="48.35659" lon="2.73049">
        <ele>138.3</ele>
        <time>2021-08-21T11:16:57Z</time>
      </trkpt>
      <trkpt lat="48.35659" lon="2.73049">
        <ele>138.3</ele>
        <time>2021-08-21T11:16:58Z</time>
      </trkpt>
      <trkpt lat="48.35659" lon="2.73049">
        <ele>138.3</ele>
        <time>2021-08-21T11:16:59Z</time>
      </trkpt>
      <trkpt lat="48.35659" lon="2.73049">
        <ele>138.3</ele>
        <time>2021-08-21T11:17:00Z</time>
      </trkpt>
      <trkpt lat="48.35659" lon="2.73049">
        <ele>138.3</ele>
        <time>2021-08-21T11:17:01Z</time>
      </trkpt>
      <trkpt lat="48.35659" lon="2.73049">
        <ele>138.3</ele>
        <time>2021-08-21T11:17:02Z</time>
      </trkpt>
      <trkpt lat="48.35659" lon="2.73049">
        <ele>138.3</ele>
        <time>2021-08-21T11:17:03Z</time>
      </trkpt>
      <trkpt lat="48.35659" lon="2.73049">
        <ele>138.3</ele>
        <time>2021-08-21T11:17:04Z</time>
      </trkpt>
      <trkpt lat="48.35659" lon="2.73049">
        <ele>138.3</ele>
        <time>2021-08-21T11:17:05Z</time>
      </trkpt>
      <trkpt lat="48.35659" lon="2.73049">
        <ele>138.3</ele>
        <time>2021-08-21T11:17:06Z</time>
      </trkpt>
      <trkpt lat="48.35659" lon="2.73049">
        <ele>138.3</ele>
        <time>2021-08-21T11:17:07Z</time>
      </trkpt>
      <trkpt lat="48.35659" lon="2.73049">
        <ele>138.3</ele>
        <time>2021-08-21T11:17:08Z</time>
      </trkpt>
      <trkpt lat="48.35659" lon="2.73049">
        <ele>138.3</ele>
        <time>2021-08-21T11:17:09Z</time>
      </trkpt>
      <trkpt lat="48.35659" lon="2.73049">
        <ele>138.3</ele>
        <time>2021-08-21T11:17:10Z</time>
      </trkpt>
      <trkpt lat="48.35659" lon="2.73049">
        <ele>138.3</ele>
        <time>2021-08-21T11:17:11Z</time>
      </trkpt>
      <trkpt lat="48.35659" lon="2.73049">
        <ele>138.3</ele>
        <time>2021-08-21T11:17:12Z</time>
      </trkpt>
      <trkpt lat="48.35659" lon="2.73049">
        <ele>138.3</ele>
        <time>2021-08-21T11:17:13Z</time>
      </trkpt>
      <trkpt lat="48.35659" lon="2.73049">
        <ele>138.3</ele>
        <time>2021-08-21T11:17:14Z</time>
      </trkpt>
      <trkpt lat="48.35659" lon="2.73049">
        <ele>138.3</ele>
        <time>2021-08-21T11:17:15Z</time>
      </trkpt>
      <trkpt lat="48.35659" lon="2.73049">
        <ele>138.3</ele>
        <time>2021-08-21T11:17:16Z</time>
      </trkpt>
      <trkpt lat="48.35659" lon="2.73049">
        <ele>138.3</ele>
        <time>2021-08-21T11:17:17Z</time>
      </trkpt>
      <trkpt lat="48.35659" lon="2.73049">
        <ele>138.3</ele>
        <time>2021-08-21T11:17:18Z</time>
      </trkpt>
      <trkpt lat="48.35659" lon="2.73049">
        <ele>138.3</ele>
        <time>2021-08-21T11:17:19Z</time>
      </trkpt>
      <trkpt lat="48.35659" lon="2.73049">
        <ele>138.3</ele>
        <time>2021-08-21T11:17:20Z</time>
      </trkpt>
      <trkpt lat="48.35659" lon="2.73049">
        <ele>138.3</ele>
        <time>2021-08-21T11:17:21Z</time>
      </trkpt>
      <trkpt lat="48.35659" lon="2.73049">
        <ele>138.3</ele>
        <time>2021-08-21T11:17:22Z</time>
      </trkpt>
      <trkpt lat="48.35659" lon="2.73049">
        <ele>138.3</ele>
        <time>2021-08-21T11:17:23Z</time>
      </trkpt>
      <trkpt lat="48.35659" lon="2.73049">
        <ele>138.3</ele>
        <time>2021-08-21T11:17:24Z</time>
      </trkpt>
      <trkpt lat="48.35659" lon="2.73049">
        <ele>138.3</ele>
        <time>2021-08-21T11:17:25Z</time>
      </trkpt>
      <trkpt lat="48.35659" lon="2.73049">
        <ele>138.3</ele>
        <time>2021-08-21T11:17:26Z</time>
      </trkpt>
      <trkpt lat="48.35659" lon="2.73049">
        <ele>138.3</ele>
        <time>2021-08-21T11:17:27Z</time>
      </trkpt>
      <trkpt lat="48.35659" lon="2.73049">
        <ele>138.3</ele>
        <time>2021-08-21T11:17:28Z</time>
      </trkpt>
      <trkpt lat="48.35659" lon="2.73049">
        <ele>138.3</ele>
        <time>2021-08-21T11:17:29Z</time>
      </trkpt>
      <trkpt lat="48.35659" lon="2.73049">
        <ele>138.3</ele>
        <time>2021-08-21T11:17:30Z</time>
      </trkpt>
      <trkpt lat="48.35659" lon="2.73049">
        <ele>138.3</ele>
        <time>2021-08-21T11:17:31Z</time>
      </trkpt>
      <trkpt lat="48.35659" lon="2.73049">
        <ele>138.3</ele>
        <time>2021-08-21T11:17:32Z</time>
      </trkpt>
      <trkpt lat="48.35659" lon="2.73049">
        <ele>138.3</ele>
        <time>2021-08-21T11:17:33Z</time>
      </trkpt>
      <trkpt lat="48.35659" lon="2.73049">
        <ele>138.3</ele>
        <time>2021-08-21T11:17:34Z</time>
      </trkpt>
      <trkpt lat="48.35659" lon="2.73049">
        <ele>138.3</ele>
        <time>2021-08-21T11:17:35Z</time>
      </trkpt>
      <trkpt lat="48.35659" lon="2.73049">
        <ele>138.3</ele>
        <time>2021-08-21T11:17:36Z</time>
      </trkpt>
      <trkpt lat="48.35659" lon="2.73049">
        <ele>138.3</ele>
        <time>2021-08-21T11:17:37Z</time>
      </trkpt>
      <trkpt lat="48.35659" lon="2.73049">
        <ele>138.3</ele>
        <time>2021-08-21T11:17:38Z</time>
      </trkpt>
      <trkpt lat="48.35659" lon="2.73049">
        <ele>138.3</ele>
        <time>2021-08-21T11:17:39Z</time>
      </trkpt>
      <trkpt lat="48.35659" lon="2.73049">
        <ele>138.3</ele>
        <time>2021-08-21T11:17:40Z</time>
      </trkpt>
      <trkpt lat="48.35659" lon="2.73049">
        <ele>138.3</ele>
        <time>2021-08-21T11:17:41Z</time>
      </trkpt>
      <trkpt lat="48.35659" lon="2.73049">
        <ele>138.3</ele>
        <time>2021-08-21T11:17:42Z</time>
      </trkpt>
      <trkpt lat="48.35659" lon="2.73049">
        <ele>138.3</ele>
        <time>2021-08-21T11:17:43Z</time>
      </trkpt>
      <trkpt lat="48.35659" lon="2.73049">
        <ele>138.3</ele>
        <time>2021-08-21T11:17:44Z</time>
      </trkpt>
      <trkpt lat="48.35659" lon="2.73049">
        <ele>138.3</ele>
        <time>2021-08-21T11:17:45Z</time>
      </trkpt>
      <trkpt lat="48.35659" lon="2.73049">
        <ele>138.3</ele>
        <time>2021-08-21T11:17:46Z</time>
      </trkpt>
      <trkpt lat="48.35659" lon="2.73049">
        <ele>138.3</ele>
        <time>2021-08-21T11:17:47Z</time>
      </trkpt>
      <trkpt lat="48.35659" lon="2.73049">
        <ele>138.3</ele>
        <time>2021-08-21T11:17:48Z</time>
      </trkpt>
      <trkpt lat="48.35659" lon="2.73049">
        <ele>138.3</ele>
        <time>2021-08-21T11:17:49Z</time>
      </trkpt>
      <trkpt lat="48.35659" lon="2.73049">
        <ele>138.3</ele>
        <time>2021-08-21T11:17:50Z</time>
      </trkpt>
      <trkpt lat="48.35659" lon="2.73049">
        <ele>138.3</ele>
        <time>2021-08-21T11:17:51Z</time>
      </trkpt>
      <trkpt lat="48.35659" lon="2.73049">
        <ele>138.3</ele>
        <time>2021-08-21T11:17:52Z</time>
      </trkpt>
      <trkpt lat="48.35659" lon="2.73049">
        <ele>138.3</ele>
        <time>2021-08-21T11:17:53Z</time>
      </trkpt>
      <trkpt lat="48.35659" lon="2.73049">
        <ele>138.3</ele>
        <time>2021-08-21T11:17:54Z</time>
      </trkpt>
      <trkpt lat="48.35659" lon="2.73049">
        <ele>138.3</ele>
        <time>2021-08-21T11:17:55Z</time>
      </trkpt>
      <trkpt lat="48.35659" lon="2.73049">
        <ele>138.3</ele>
        <time>2021-08-21T11:17:56Z</time>
      </trkpt>
      <trkpt lat="48.35659" lon="2.73049">
        <ele>138.3</ele>
        <time>2021-08-21T11:17:57Z</time>
      </trkpt>
      <trkpt lat="48.35659" lon="2.73049">
        <ele>138.3</ele>
        <time>2021-08-21T11:17:58Z</time>
      </trkpt>
      <trkpt lat="48.35659" lon="2.73049">
        <ele>138.3</ele>
        <time>2021-08-21T11:17:59Z</time>
      </trkpt>
      <trkpt lat="48.35659" lon="2.73049">
        <ele>138.3</ele>
        <time>2021-08-21T11:18:00Z</time>
      </trkpt>
      <trkpt lat="48.35659" lon="2.73049">
        <ele>138.3</ele>
        <time>2021-08-21T11:18:01Z</time>
      </trkpt>
      <trkpt lat="48.35659" lon="2.73049">
        <ele>138.3</ele>
        <time>2021-08-21T11:18:02Z</time>
      </trkpt>
      <trkpt lat="48.35659" lon="2.73049">
        <ele>138.3</ele>
        <time>2021-08-21T11:18:03Z</time>
      </trkpt>
      <trkpt lat="48.35659" lon="2.73049">
        <ele>138.3</ele>
        <time>2021-08-21T11:18:04Z</time>
      </trkpt>
      <trkpt lat="48.35659" lon="2.73049">
        <ele>138.3</ele>
        <time>2021-08-21T11:18:05Z</time>
      </trkpt>
      <trkpt lat="48.35659" lon="2.73049">
        <ele>138.3</ele>
        <time>2021-08-21T11:18:06Z</time>
      </trkpt>
      <trkpt lat="48.35659" lon="2.73049">
        <ele>138.3</ele>
        <time>2021-08-21T11:18:07Z</time>
      </trkpt>
      <trkpt lat="48.35659" lon="2.73049">
        <ele>138.3</ele>
        <time>2021-08-21T11:18:08Z</time>
      </trkpt>
      <trkpt lat="48.35659" lon="2.73049">
        <ele>138.3</ele>
        <time>2021-08-21T11:18:09Z</time>
      </trkpt>
      <trkpt lat="48.35659" lon="2.73049">
        <ele>138.3</ele>
        <time>2021-08-21T11:18:10Z</time>
      </trkpt>
      <trkpt lat="48.35659" lon="2.73049">
        <ele>138.3</ele>
        <time>2021-08-21T11:18:11Z</time>
      </trkpt>
      <trkpt lat="48.35659" lon="2.73049">
        <ele>138.3</ele>
        <time>2021-08-21T11:18:12Z</time>
      </trkpt>
      <trkpt lat="48.35659" lon="2.73049">
        <ele>138.3</ele>
        <time>2021-08-21T11:18:13Z</time>
      </trkpt>
      <trkpt lat="48.35659" lon="2.73049">
        <ele>138.3</ele>
        <time>2021-08-21T11:18:14Z</time>
      </trkpt>
      <trkpt lat="48.35659" lon="2.73049">
        <ele>138.3</ele>
        <time>2021-08-21T11:18:15Z</time>
      </trkpt>
      <trkpt lat="48.35659" lon="2.73049">
        <ele>138.3</ele>
        <time>2021-08-21T11:18:16Z</time>
      </trkpt>
      <trkpt lat="48.35659" lon="2.73049">
        <ele>138.3</ele>
        <time>2021-08-21T11:18:17Z</time>
      </trkpt>
      <trkpt lat="48.35659" lon="2.73049">
        <ele>138.3</ele>
        <time>2021-08-21T11:18:18Z</time>
      </trkpt>
      <trkpt lat="48.35659" lon="2.73049">
        <ele>138.3</ele>
        <time>2021-08-21T11:18:19Z</time>
      </trkpt>
      <trkpt lat="48.35659" lon="2.73049">
        <ele>138.3</ele>
        <time>2021-08-21T11:18:20Z</time>
      </trkpt>
      <trkpt lat="48.35659" lon="2.73049">
        <ele>138.3</ele>
        <time>2021-08-21T11:18:21Z</time>
      </trkpt>
      <trkpt lat="48.35659" lon="2.73049">
        <ele>138.3</ele>
        <time>2021-08-21T11:18:22Z</time>
      </trkpt>
      <trkpt lat="48.35659" lon="2.73049">
        <ele>138.3</ele>
        <time>2021-08-21T11:18:23Z</time>
      </trkpt>
      <trkpt lat="48.35659" lon="2.73049">
        <ele>138.3</ele>
        <time>2021-08-21T11:18:24Z</time>
      </trkpt>
      <trkpt lat="48.35659" lon="2.73049">
        <ele>138.3</ele>
        <time>2021-08-21T11:18:25Z</time>
      </trkpt>
      <trkpt lat="48.35659" lon="2.73049">
        <ele>138.3</ele>
        <time>2021-08-21T11:18:26Z</time>
      </trkpt>
      <trkpt lat="48.35659" lon="2.73049">
        <ele>138.3</ele>
        <time>2021-08-21T11:18:27Z</time>
      </trkpt>
      <trkpt lat="48.35659" lon="2.73049">
        <ele>138.3</ele>
        <time>2021-08-21T11:18:28Z</time>
      </trkpt>
      <trkpt lat="48.35659" lon="2.73049">
        <ele>138.3</ele>
        <time>2021-08-21T11:18:29Z</time>
      </trkpt>
      <trkpt lat="48.35659" lon="2.73049">
        <ele>138.3</ele>
        <time>2021-08-21T11:18:30Z</time>
      </trkpt>
      <trkpt lat="48.35659" lon="2.73049">
        <ele>138.3</ele>
        <time>2021-08-21T11:18:31Z</time>
      </trkpt>
      <trkpt lat="48.35659" lon="2.73049">
        <ele>138.3</ele>
        <time>2021-08-21T11:18:32Z</time>
      </trkpt>
      <trkpt lat="48.35659" lon="2.73049">
        <ele>138.3</ele>
        <time>2021-08-21T11:18:33Z</time>
      </trkpt>
      <trkpt lat="48.35659" lon="2.73049">
        <ele>138.3</ele>
        <time>2021-08-21T11:18:34Z</time>
      </trkpt>
      <trkpt lat="48.35659" lon="2.73049">
        <ele>138.3</ele>
        <time>2021-08-21T11:18:35Z</time>
      </trkpt>
      <trkpt lat="48.35659" lon="2.73049">
        <ele>138.3</ele>
        <time>2021-08-21T11:18:36Z</time>
      </trkpt>
      <trkpt lat="48.35659" lon="2.73049">
        <ele>138.3</ele>
        <time>2021-08-21T11:18:37Z</time>
      </trkpt>
      <trkpt lat="48.35659" lon="2.73049">
        <ele>138.3</ele>
        <time>2021-08-21T11:18:38Z</time>
      </trkpt>
      <trkpt lat="48.3566" lon="2.73049">
        <ele>138.3</ele>
        <time>2021-08-21T11:18:39Z</time>
      </trkpt>
      <trkpt lat="48.3566" lon="2.73049">
        <ele>138.3</ele>
        <time>2021-08-21T11:18:40Z</time>
      </trkpt>
      <trkpt lat="48.3566" lon="2.73049">
        <ele>138.3</ele>
        <time>2021-08-21T11:18:41Z</time>
      </trkpt>
      <trkpt lat="48.3566" lon="2.73049">
        <ele>138.3</ele>
        <time>2021-08-21T11:18:42Z</time>
      </trkpt>
      <trkpt lat="48.35659" lon="2.73049">
        <ele>138.3</ele>
        <time>2021-08-21T11:18:43Z</time>
      </trkpt>
      <trkpt lat="48.35659" lon="2.73049">
        <ele>138.3</ele>
        <time>2021-08-21T11:18:44Z</time>
      </trkpt>
      <trkpt lat="48.35659" lon="2.73049">
        <ele>138.3</ele>
        <time>2021-08-21T11:18:45Z</time>
      </trkpt>
      <trkpt lat="48.35659" lon="2.73049">
        <ele>138.3</ele>
        <time>2021-08-21T11:18:46Z</time>
      </trkpt>
      <trkpt lat="48.35659" lon="2.73049">
        <ele>138.3</ele>
        <time>2021-08-21T11:18:47Z</time>
      </trkpt>
      <trkpt lat="48.35659" lon="2.73049">
        <ele>138.3</ele>
        <time>2021-08-21T11:18:48Z</time>
      </trkpt>
      <trkpt lat="48.35659" lon="2.73049">
        <ele>138.3</ele>
        <time>2021-08-21T11:18:49Z</time>
      </trkpt>
      <trkpt lat="48.35659" lon="2.73049">
        <ele>138.3</ele>
        <time>2021-08-21T11:18:50Z</time>
      </trkpt>
      <trkpt lat="48.35659" lon="2.73049">
        <ele>138.3</ele>
        <time>2021-08-21T11:18:51Z</time>
      </trkpt>
      <trkpt lat="48.35659" lon="2.73049">
        <ele>138.3</ele>
        <time>2021-08-21T11:18:52Z</time>
      </trkpt>
      <trkpt lat="48.35659" lon="2.73049">
        <ele>138.3</ele>
        <time>2021-08-21T11:18:53Z</time>
      </trkpt>
      <trkpt lat="48.35659" lon="2.73049">
        <ele>138.3</ele>
        <time>2021-08-21T11:18:54Z</time>
      </trkpt>
      <trkpt lat="48.35659" lon="2.73049">
        <ele>138.3</ele>
        <time>2021-08-21T11:18:55Z</time>
      </trkpt>
      <trkpt lat="48.35659" lon="2.73049">
        <ele>138.3</ele>
        <time>2021-08-21T11:18:56Z</time>
      </trkpt>
      <trkpt lat="48.35659" lon="2.73049">
        <ele>138.3</ele>
        <time>2021-08-21T11:18:57Z</time>
      </trkpt>
      <trkpt lat="48.35659" lon="2.73049">
        <ele>138.3</ele>
        <time>2021-08-21T11:18:58Z</time>
      </trkpt>
      <trkpt lat="48.35659" lon="2.73049">
        <ele>138.3</ele>
        <time>2021-08-21T11:18:59Z</time>
      </trkpt>
      <trkpt lat="48.35659" lon="2.73049">
        <ele>138.3</ele>
        <time>2021-08-21T11:19:00Z</time>
      </trkpt>
      <trkpt lat="48.35659" lon="2.73049">
        <ele>138.3</ele>
        <time>2021-08-21T11:19:01Z</time>
      </trkpt>
      <trkpt lat="48.35659" lon="2.73049">
        <ele>138.3</ele>
        <time>2021-08-21T11:19:02Z</time>
      </trkpt>
      <trkpt lat="48.35659" lon="2.73049">
        <ele>138.3</ele>
        <time>2021-08-21T11:19:03Z</time>
      </trkpt>
      <trkpt lat="48.35659" lon="2.73049">
        <ele>138.3</ele>
        <time>2021-08-21T11:19:04Z</time>
      </trkpt>
      <trkpt lat="48.35659" lon="2.73049">
        <ele>138.3</ele>
        <time>2021-08-21T11:19:05Z</time>
      </trkpt>
      <trkpt lat="48.35659" lon="2.73049">
        <ele>138.3</ele>
        <time>2021-08-21T11:19:06Z</time>
      </trkpt>
      <trkpt lat="48.35659" lon="2.73049">
        <ele>138.3</ele>
        <time>2021-08-21T11:19:07Z</time>
      </trkpt>
      <trkpt lat="48.35659" lon="2.73049">
        <ele>138.3</ele>
        <time>2021-08-21T11:19:08Z</time>
      </trkpt>
      <trkpt lat="48.35659" lon="2.7305">
        <ele>138.3</ele>
        <time>2021-08-21T11:19:09Z</time>
      </trkpt>
      <trkpt lat="48.35659" lon="2.7305">
        <ele>138.3</ele>
        <time>2021-08-21T11:19:10Z</time>
      </trkpt>
      <trkpt lat="48.35659" lon="2.7305">
        <ele>138.3</ele>
        <time>2021-08-21T11:19:11Z</time>
      </trkpt>
      <trkpt lat="48.35659" lon="2.7305">
        <ele>138.3</ele>
        <time>2021-08-21T11:19:12Z</time>
      </trkpt>
      <trkpt lat="48.35659" lon="2.7305">
        <ele>138.3</ele>
        <time>2021-08-21T11:19:13Z</time>
      </trkpt>
      <trkpt lat="48.35659" lon="2.7305">
        <ele>138.3</ele>
        <time>2021-08-21T11:19:14Z</time>
      </trkpt>
      <trkpt lat="48.35659" lon="2.7305">
        <ele>138.3</ele>
        <time>2021-08-21T11:19:15Z</time>
      </trkpt>
      <trkpt lat="48.35659" lon="2.7305">
        <ele>138.3</ele>
        <time>2021-08-21T11:19:16Z</time>
      </trkpt>
      <trkpt lat="48.35659" lon="2.7305">
        <ele>138.3</ele>
        <time>2021-08-21T11:19:17Z</time>
      </trkpt>
      <trkpt lat="48.35659" lon="2.7305">
        <ele>138.3</ele>
        <time>2021-08-21T11:19:18Z</time>
      </trkpt>
      <trkpt lat="48.35659" lon="2.7305">
        <ele>138.3</ele>
        <time>2021-08-21T11:19:19Z</time>
      </trkpt>
      <trkpt lat="48.35659" lon="2.7305">
        <ele>138.3</ele>
        <time>2021-08-21T11:19:20Z</time>
      </trkpt>
      <trkpt lat="48.35659" lon="2.7305">
        <ele>138.3</ele>
        <time>2021-08-21T11:19:21Z</time>
      </trkpt>
      <trkpt lat="48.35659" lon="2.7305">
        <ele>138.3</ele>
        <time>2021-08-21T11:19:22Z</time>
      </trkpt>
      <trkpt lat="48.35659" lon="2.7305">
        <ele>138.3</ele>
        <time>2021-08-21T11:19:23Z</time>
      </trkpt>
      <trkpt lat="48.35659" lon="2.7305">
        <ele>138.3</ele>
        <time>2021-08-21T11:19:24Z</time>
      </trkpt>
      <trkpt lat="48.35659" lon="2.7305">
        <ele>138.3</ele>
        <time>2021-08-21T11:19:25Z</time>
      </trkpt>
      <trkpt lat="48.35659" lon="2.7305">
        <ele>138.3</ele>
        <time>2021-08-21T11:19:26Z</time>
      </trkpt>
      <trkpt lat="48.35659" lon="2.7305">
        <ele>138.3</ele>
        <time>2021-08-21T11:19:27Z</time>
      </trkpt>
      <trkpt lat="48.35659" lon="2.7305">
        <ele>138.3</ele>
        <time>2021-08-21T11:19:28Z</time>
      </trkpt>
      <trkpt lat="48.35659" lon="2.7305">
        <ele>138.3</ele>
        <time>2021-08-21T11:19:29Z</time>
      </trkpt>
      <trkpt lat="48.35659" lon="2.7305">
        <ele>138.3</ele>
        <time>2021-08-21T11:19:30Z</time>
      </trkpt>
      <trkpt lat="48.35659" lon="2.7305">
        <ele>138.3</ele>
        <time>2021-08-21T11:19:31Z</time>
      </trkpt>
      <trkpt lat="48.35659" lon="2.7305">
        <ele>138.3</ele>
        <time>2021-08-21T11:19:32Z</time>
      </trkpt>
      <trkpt lat="48.3566" lon="2.73049">
        <ele>138.3</ele>
        <time>2021-08-21T11:19:33Z</time>
      </trkpt>
      <trkpt lat="48.3566" lon="2.73049">
        <ele>138.3</ele>
        <time>2021-08-21T11:19:34Z</time>
      </trkpt>
      <trkpt lat="48.3566" lon="2.73049">
        <ele>138.3</ele>
        <time>2021-08-21T11:19:35Z</time>
      </trkpt>
      <trkpt lat="48.3566" lon="2.73049">
        <ele>138.3</ele>
        <time>2021-08-21T11:19:36Z</time>
      </trkpt>
      <trkpt lat="48.3566" lon="2.73049">
        <ele>138.2</ele>
        <time>2021-08-21T11:19:37Z</time>
      </trkpt>
      <trkpt lat="48.3566" lon="2.73049">
        <ele>138.2</ele>
        <time>2021-08-21T11:19:38Z</time>
      </trkpt>
      <trkpt lat="48.3566" lon="2.73049">
        <ele>138.2</ele>
        <time>2021-08-21T11:19:39Z</time>
      </trkpt>
      <trkpt lat="48.3566" lon="2.73049">
        <ele>138.2</ele>
        <time>2021-08-21T11:19:40Z</time>
      </trkpt>
      <trkpt lat="48.3566" lon="2.73049">
        <ele>138.2</ele>
        <time>2021-08-21T11:19:41Z</time>
      </trkpt>
      <trkpt lat="48.3566" lon="2.73049">
        <ele>138.2</ele>
        <time>2021-08-21T11:19:42Z</time>
      </trkpt>
      <trkpt lat="48.3566" lon="2.73049">
        <ele>138.2</ele>
        <time>2021-08-21T11:19:43Z</time>
      </trkpt>
      <trkpt lat="48.3566" lon="2.73049">
        <ele>138.2</ele>
        <time>2021-08-21T11:19:44Z</time>
      </trkpt>
      <trkpt lat="48.3566" lon="2.73049">
        <ele>138.2</ele>
        <time>2021-08-21T11:19:45Z</time>
      </trkpt>
      <trkpt lat="48.3566" lon="2.73049">
        <ele>138.2</ele>
        <time>2021-08-21T11:19:46Z</time>
      </trkpt>
      <trkpt lat="48.3566" lon="2.73049">
        <ele>138.2</ele>
        <time>2021-08-21T11:19:47Z</time>
      </trkpt>
      <trkpt lat="48.3566" lon="2.73049">
        <ele>138.2</ele>
        <time>2021-08-21T11:19:48Z</time>
      </trkpt>
      <trkpt lat="48.3566" lon="2.73049">
        <ele>138.2</ele>
        <time>2021-08-21T11:19:49Z</time>
      </trkpt>
      <trkpt lat="48.3566" lon="2.73049">
        <ele>138.2</ele>
        <time>2021-08-21T11:19:50Z</time>
      </trkpt>
      <trkpt lat="48.3566" lon="2.73049">
        <ele>138.2</ele>
        <time>2021-08-21T11:19:51Z</time>
      </trkpt>
      <trkpt lat="48.3566" lon="2.73049">
        <ele>138.2</ele>
        <time>2021-08-21T11:19:52Z</time>
      </trkpt>
      <trkpt lat="48.3566" lon="2.73049">
        <ele>138.2</ele>
        <time>2021-08-21T11:19:53Z</time>
      </trkpt>
      <trkpt lat="48.3566" lon="2.73049">
        <ele>138.2</ele>
        <time>2021-08-21T11:19:54Z</time>
      </trkpt>
      <trkpt lat="48.3566" lon="2.73049">
        <ele>138.2</ele>
        <time>2021-08-21T11:19:55Z</time>
      </trkpt>
      <trkpt lat="48.3566" lon="2.73049">
        <ele>138.2</ele>
        <time>2021-08-21T11:19:56Z</time>
      </trkpt>
      <trkpt lat="48.3566" lon="2.73049">
        <ele>138.2</ele>
        <time>2021-08-21T11:19:57Z</time>
      </trkpt>
      <trkpt lat="48.3566" lon="2.73049">
        <ele>138.2</ele>
        <time>2021-08-21T11:19:58Z</time>
      </trkpt>
      <trkpt lat="48.3566" lon="2.73049">
        <ele>138.2</ele>
        <time>2021-08-21T11:19:59Z</time>
      </trkpt>
      <trkpt lat="48.3566" lon="2.73049">
        <ele>138.2</ele>
        <time>2021-08-21T11:20:00Z</time>
      </trkpt>
      <trkpt lat="48.3566" lon="2.73049">
        <ele>138.2</ele>
        <time>2021-08-21T11:20:01Z</time>
      </trkpt>
      <trkpt lat="48.3566" lon="2.73049">
        <ele>138.2</ele>
        <time>2021-08-21T11:20:02Z</time>
      </trkpt>
      <trkpt lat="48.3566" lon="2.73049">
        <ele>138.2</ele>
        <time>2021-08-21T11:20:03Z</time>
      </trkpt>
      <trkpt lat="48.3566" lon="2.73049">
        <ele>138.2</ele>
        <time>2021-08-21T11:20:04Z</time>
      </trkpt>
      <trkpt lat="48.3566" lon="2.73049">
        <ele>138.2</ele>
        <time>2021-08-21T11:20:05Z</time>
      </trkpt>
      <trkpt lat="48.3566" lon="2.73049">
        <ele>138.2</ele>
        <time>2021-08-21T11:20:06Z</time>
      </trkpt>
      <trkpt lat="48.3566" lon="2.73049">
        <ele>138.2</ele>
        <time>2021-08-21T11:20:07Z</time>
      </trkpt>
      <trkpt lat="48.3566" lon="2.73049">
        <ele>138.2</ele>
        <time>2021-08-21T11:20:08Z</time>
      </trkpt>
      <trkpt lat="48.3566" lon="2.73049">
        <ele>138.2</ele>
        <time>2021-08-21T11:20:09Z</time>
      </trkpt>
      <trkpt lat="48.3566" lon="2.73049">
        <ele>138.2</ele>
        <time>2021-08-21T11:20:10Z</time>
      </trkpt>
      <trkpt lat="48.3566" lon="2.73049">
        <ele>138.2</ele>
        <time>2021-08-21T11:20:11Z</time>
      </trkpt>
      <trkpt lat="48.3566" lon="2.73049">
        <ele>138.2</ele>
        <time>2021-08-21T11:20:12Z</time>
      </trkpt>
      <trkpt lat="48.3566" lon="2.73049">
        <ele>138.2</ele>
        <time>2021-08-21T11:20:13Z</time>
      </trkpt>
      <trkpt lat="48.3566" lon="2.73049">
        <ele>138.2</ele>
        <time>2021-08-21T11:20:14Z</time>
      </trkpt>
      <trkpt lat="48.3566" lon="2.73049">
        <ele>138.2</ele>
        <time>2021-08-21T11:20:15Z</time>
      </trkpt>
      <trkpt lat="48.3566" lon="2.73049">
        <ele>138.2</ele>
        <time>2021-08-21T11:20:16Z</time>
      </trkpt>
      <trkpt lat="48.3566" lon="2.73049">
        <ele>138.2</ele>
        <time>2021-08-21T11:20:17Z</time>
      </trkpt>
      <trkpt lat="48.3566" lon="2.73049">
        <ele>138.2</ele>
        <time>2021-08-21T11:20:18Z</time>
      </trkpt>
      <trkpt lat="48.3566" lon="2.73049">
        <ele>138.2</ele>
        <time>2021-08-21T11:20:19Z</time>
      </trkpt>
      <trkpt lat="48.3566" lon="2.73049">
        <ele>138.2</ele>
        <time>2021-08-21T11:20:20Z</time>
      </trkpt>
      <trkpt lat="48.3566" lon="2.73049">
        <ele>138.2</ele>
        <time>2021-08-21T11:20:21Z</time>
      </trkpt>
      <trkpt lat="48.3566" lon="2.73049">
        <ele>138.2</ele>
        <time>2021-08-21T11:20:22Z</time>
      </trkpt>
      <trkpt lat="48.3566" lon="2.73049">
        <ele>138.2</ele>
        <time>2021-08-21T11:20:23Z</time>
      </trkpt>
      <trkpt lat="48.3566" lon="2.73049">
        <ele>138.2</ele>
        <time>2021-08-21T11:20:24Z</time>
      </trkpt>
      <trkpt lat="48.3566" lon="2.73049">
        <ele>138.2</ele>
        <time>2021-08-21T11:20:25Z</time>
      </trkpt>
      <trkpt lat="48.3566" lon="2.73049">
        <ele>138.2</ele>
        <time>2021-08-21T11:20:26Z</time>
      </trkpt>
      <trkpt lat="48.3566" lon="2.73049">
        <ele>138.2</ele>
        <time>2021-08-21T11:20:27Z</time>
      </trkpt>
      <trkpt lat="48.3566" lon="2.73049">
        <ele>138.2</ele>
        <time>2021-08-21T11:20:28Z</time>
      </trkpt>
      <trkpt lat="48.3566" lon="2.73049">
        <ele>138.2</ele>
        <time>2021-08-21T11:20:29Z</time>
      </trkpt>
      <trkpt lat="48.3566" lon="2.73049">
        <ele>138.2</ele>
        <time>2021-08-21T11:20:30Z</time>
      </trkpt>
      <trkpt lat="48.3566" lon="2.73049">
        <ele>138.2</ele>
        <time>2021-08-21T11:20:31Z</time>
      </trkpt>
      <trkpt lat="48.3566" lon="2.73049">
        <ele>138.2</ele>
        <time>2021-08-21T11:20:32Z</time>
      </trkpt>
      <trkpt lat="48.3566" lon="2.73049">
        <ele>138.2</ele>
        <time>2021-08-21T11:20:33Z</time>
      </trkpt>
      <trkpt lat="48.3566" lon="2.73049">
        <ele>138.2</ele>
        <time>2021-08-21T11:20:34Z</time>
      </trkpt>
      <trkpt lat="48.3566" lon="2.73049">
        <ele>138.2</ele>
        <time>2021-08-21T11:20:35Z</time>
      </trkpt>
      <trkpt lat="48.3566" lon="2.7305">
        <ele>138.2</ele>
        <time>2021-08-21T11:20:36Z</time>
      </trkpt>
      <trkpt lat="48.35659" lon="2.7305">
        <ele>138.2</ele>
        <time>2021-08-21T11:20:37Z</time>
      </trkpt>
      <trkpt lat="48.3566" lon="2.7305">
        <ele>138.2</ele>
        <time>2021-08-21T11:20:38Z</time>
      </trkpt>
      <trkpt lat="48.3566" lon="2.7305">
        <ele>138.2</ele>
        <time>2021-08-21T11:20:39Z</time>
      </trkpt>
      <trkpt lat="48.35659" lon="2.7305">
        <ele>138.2</ele>
        <time>2021-08-21T11:20:40Z</time>
      </trkpt>
      <trkpt lat="48.35659" lon="2.7305">
        <ele>138.2</ele>
        <time>2021-08-21T11:20:41Z</time>
      </trkpt>
      <trkpt lat="48.35659" lon="2.7305">
        <ele>138.2</ele>
        <time>2021-08-21T11:20:42Z</time>
      </trkpt>
      <trkpt lat="48.35659" lon="2.7305">
        <ele>138.2</ele>
        <time>2021-08-21T11:20:43Z</time>
      </trkpt>
      <trkpt lat="48.35659" lon="2.7305">
        <ele>138.2</ele>
        <time>2021-08-21T11:20:44Z</time>
      </trkpt>
      <trkpt lat="48.35659" lon="2.7305">
        <ele>138.2</ele>
        <time>2021-08-21T11:20:45Z</time>
      </trkpt>
      <trkpt lat="48.35659" lon="2.7305">
        <ele>138.2</ele>
        <time>2021-08-21T11:20:46Z</time>
      </trkpt>
      <trkpt lat="48.35659" lon="2.7305">
        <ele>138.2</ele>
        <time>2021-08-21T11:20:47Z</time>
      </trkpt>
      <trkpt lat="48.35659" lon="2.7305">
        <ele>138.2</ele>
        <time>2021-08-21T11:20:48Z</time>
      </trkpt>
      <trkpt lat="48.35659" lon="2.7305">
        <ele>138.2</ele>
        <time>2021-08-21T11:20:49Z</time>
      </trkpt>
      <trkpt lat="48.35659" lon="2.7305">
        <ele>138.2</ele>
        <time>2021-08-21T11:20:50Z</time>
      </trkpt>
      <trkpt lat="48.35659" lon="2.7305">
        <ele>138.2</ele>
        <time>2021-08-21T11:20:51Z</time>
      </trkpt>
      <trkpt lat="48.35659" lon="2.7305">
        <ele>138.2</ele>
        <time>2021-08-21T11:20:52Z</time>
      </trkpt>
      <trkpt lat="48.35659" lon="2.7305">
        <ele>138.2</ele>
        <time>2021-08-21T11:20:53Z</time>
      </trkpt>
      <trkpt lat="48.35659" lon="2.7305">
        <ele>138.2</ele>
        <time>2021-08-21T11:20:54Z</time>
      </trkpt>
      <trkpt lat="48.35659" lon="2.7305">
        <ele>138.2</ele>
        <time>2021-08-21T11:20:55Z</time>
      </trkpt>
      <trkpt lat="48.35659" lon="2.7305">
        <ele>138.2</ele>
        <time>2021-08-21T11:20:56Z</time>
      </trkpt>
      <trkpt lat="48.35659" lon="2.7305">
        <ele>138.2</ele>
        <time>2021-08-21T11:20:57Z</time>
      </trkpt>
      <trkpt lat="48.35659" lon="2.7305">
        <ele>138.2</ele>
        <time>2021-08-21T11:20:58Z</time>
      </trkpt>
      <trkpt lat="48.35659" lon="2.7305">
        <ele>138.2</ele>
        <time>2021-08-21T11:20:59Z</time>
      </trkpt>
      <trkpt lat="48.35659" lon="2.7305">
        <ele>138.2</ele>
        <time>2021-08-21T11:21:00Z</time>
      </trkpt>
      <trkpt lat="48.35659" lon="2.7305">
        <ele>138.2</ele>
        <time>2021-08-21T11:21:01Z</time>
      </trkpt>
      <trkpt lat="48.35659" lon="2.7305">
        <ele>138.2</ele>
        <time>2021-08-21T11:21:02Z</time>
      </trkpt>
      <trkpt lat="48.35659" lon="2.7305">
        <ele>138.2</ele>
        <time>2021-08-21T11:21:03Z</time>
      </trkpt>
      <trkpt lat="48.35659" lon="2.7305">
        <ele>138.2</ele>
        <time>2021-08-21T11:21:04Z</time>
      </trkpt>
      <trkpt lat="48.35659" lon="2.7305">
        <ele>138.2</ele>
        <time>2021-08-21T11:21:05Z</time>
      </trkpt>
      <trkpt lat="48.35659" lon="2.7305">
        <ele>138.2</ele>
        <time>2021-08-21T11:21:06Z</time>
      </trkpt>
      <trkpt lat="48.35659" lon="2.7305">
        <ele>138.2</ele>
        <time>2021-08-21T11:21:07Z</time>
      </trkpt>
      <trkpt lat="48.35659" lon="2.7305">
        <ele>138.2</ele>
        <time>2021-08-21T11:21:08Z</time>
      </trkpt>
      <trkpt lat="48.35659" lon="2.7305">
        <ele>138.2</ele>
        <time>2021-08-21T11:21:09Z</time>
      </trkpt>
      <trkpt lat="48.35659" lon="2.7305">
        <ele>138.2</ele>
        <time>2021-08-21T11:21:10Z</time>
      </trkpt>
      <trkpt lat="48.35659" lon="2.7305">
        <ele>138.2</ele>
        <time>2021-08-21T11:21:11Z</time>
      </trkpt>
      <trkpt lat="48.35659" lon="2.7305">
        <ele>138.2</ele>
        <time>2021-08-21T11:21:12Z</time>
      </trkpt>
      <trkpt lat="48.35659" lon="2.7305">
        <ele>138.2</ele>
        <time>2021-08-21T11:21:13Z</time>
      </trkpt>
      <trkpt lat="48.35659" lon="2.7305">
        <ele>138.2</ele>
        <time>2021-08-21T11:21:14Z</time>
      </trkpt>
      <trkpt lat="48.35659" lon="2.7305">
        <ele>138.2</ele>
        <time>2021-08-21T11:21:15Z</time>
      </trkpt>
      <trkpt lat="48.35659" lon="2.7305">
        <ele>138.2</ele>
        <time>2021-08-21T11:21:16Z</time>
      </trkpt>
      <trkpt lat="48.35659" lon="2.7305">
        <ele>138.2</ele>
        <time>2021-08-21T11:21:17Z</time>
      </trkpt>
      <trkpt lat="48.35659" lon="2.7305">
        <ele>138.2</ele>
        <time>2021-08-21T11:21:18Z</time>
      </trkpt>
      <trkpt lat="48.35659" lon="2.7305">
        <ele>138.2</ele>
        <time>2021-08-21T11:21:19Z</time>
      </trkpt>
      <trkpt lat="48.35659" lon="2.7305">
        <ele>138.2</ele>
        <time>2021-08-21T11:21:20Z</time>
      </trkpt>
      <trkpt lat="48.35659" lon="2.7305">
        <ele>138.2</ele>
        <time>2021-08-21T11:21:21Z</time>
      </trkpt>
      <trkpt lat="48.35659" lon="2.7305">
        <ele>138.2</ele>
        <time>2021-08-21T11:21:22Z</time>
      </trkpt>
      <trkpt lat="48.35659" lon="2.7305">
        <ele>138.2</ele>
        <time>2021-08-21T11:21:23Z</time>
      </trkpt>
      <trkpt lat="48.35659" lon="2.7305">
        <ele>138.2</ele>
        <time>2021-08-21T11:21:24Z</time>
      </trkpt>
      <trkpt lat="48.35659" lon="2.7305">
        <ele>138.2</ele>
        <time>2021-08-21T11:21:25Z</time>
      </trkpt>
      <trkpt lat="48.35659" lon="2.7305">
        <ele>138.2</ele>
        <time>2021-08-21T11:21:26Z</time>
      </trkpt>
      <trkpt lat="48.35659" lon="2.7305">
        <ele>138.2</ele>
        <time>2021-08-21T11:21:27Z</time>
      </trkpt>
      <trkpt lat="48.35659" lon="2.7305">
        <ele>138.2</ele>
        <time>2021-08-21T11:21:28Z</time>
      </trkpt>
      <trkpt lat="48.35659" lon="2.7305">
        <ele>138.2</ele>
        <time>2021-08-21T11:21:29Z</time>
      </trkpt>
      <trkpt lat="48.35659" lon="2.7305">
        <ele>138.2</ele>
        <time>2021-08-21T11:21:30Z</time>
      </trkpt>
      <trkpt lat="48.35659" lon="2.7305">
        <ele>138.2</ele>
        <time>2021-08-21T11:21:31Z</time>
      </trkpt>
      <trkpt lat="48.35659" lon="2.7305">
        <ele>138.2</ele>
        <time>2021-08-21T11:21:32Z</time>
      </trkpt>
      <trkpt lat="48.35659" lon="2.7305">
        <ele>138.2</ele>
        <time>2021-08-21T11:21:33Z</time>
      </trkpt>
      <trkpt lat="48.35659" lon="2.7305">
        <ele>138.2</ele>
        <time>2021-08-21T11:21:34Z</time>
      </trkpt>
      <trkpt lat="48.35659" lon="2.7305">
        <ele>138.2</ele>
        <time>2021-08-21T11:21:35Z</time>
      </trkpt>
      <trkpt lat="48.35659" lon="2.7305">
        <ele>138.2</ele>
        <time>2021-08-21T11:21:36Z</time>
      </trkpt>
      <trkpt lat="48.35659" lon="2.7305">
        <ele>138.2</ele>
        <time>2021-08-21T11:21:37Z</time>
      </trkpt>
      <trkpt lat="48.35659" lon="2.7305">
        <ele>138.2</ele>
        <time>2021-08-21T11:21:38Z</time>
      </trkpt>
      <trkpt lat="48.35659" lon="2.7305">
        <ele>138.2</ele>
        <time>2021-08-21T11:21:39Z</time>
      </trkpt>
      <trkpt lat="48.35659" lon="2.7305">
        <ele>138.2</ele>
        <time>2021-08-21T11:21:40Z</time>
      </trkpt>
      <trkpt lat="48.35659" lon="2.7305">
        <ele>138.2</ele>
        <time>2021-08-21T11:21:41Z</time>
      </trkpt>
      <trkpt lat="48.35659" lon="2.7305">
        <ele>138.2</ele>
        <time>2021-08-21T11:21:42Z</time>
      </trkpt>
      <trkpt lat="48.35659" lon="2.7305">
        <ele>138.2</ele>
        <time>2021-08-21T11:21:43Z</time>
      </trkpt>
      <trkpt lat="48.35659" lon="2.7305">
        <ele>138.2</ele>
        <time>2021-08-21T11:21:44Z</time>
      </trkpt>
      <trkpt lat="48.35659" lon="2.7305">
        <ele>138.2</ele>
        <time>2021-08-21T11:21:45Z</time>
      </trkpt>
      <trkpt lat="48.35659" lon="2.7305">
        <ele>138.2</ele>
        <time>2021-08-21T11:21:46Z</time>
      </trkpt>
      <trkpt lat="48.35659" lon="2.7305">
        <ele>138.2</ele>
        <time>2021-08-21T11:21:47Z</time>
      </trkpt>
      <trkpt lat="48.35659" lon="2.7305">
        <ele>138.2</ele>
        <time>2021-08-21T11:21:48Z</time>
      </trkpt>
      <trkpt lat="48.35659" lon="2.7305">
        <ele>138.2</ele>
        <time>2021-08-21T11:21:49Z</time>
      </trkpt>
      <trkpt lat="48.35659" lon="2.7305">
        <ele>138.2</ele>
        <time>2021-08-21T11:21:50Z</time>
      </trkpt>
      <trkpt lat="48.35659" lon="2.7305">
        <ele>138.2</ele>
        <time>2021-08-21T11:21:51Z</time>
      </trkpt>
      <trkpt lat="48.35659" lon="2.7305">
        <ele>138.2</ele>
        <time>2021-08-21T11:21:52Z</time>
      </trkpt>
      <trkpt lat="48.35659" lon="2.73051">
        <ele>138.2</ele>
        <time>2021-08-21T11:21:53Z</time>
      </trkpt>
      <trkpt lat="48.35659" lon="2.73051">
        <ele>138.2</ele>
        <time>2021-08-21T11:21:54Z</time>
      </trkpt>
      <trkpt lat="48.35658" lon="2.73051">
        <ele>138.2</ele>
        <time>2021-08-21T11:21:55Z</time>
      </trkpt>
      <trkpt lat="48.35658" lon="2.73051">
        <ele>138.2</ele>
        <time>2021-08-21T11:21:56Z</time>
      </trkpt>
      <trkpt lat="48.35658" lon="2.73051">
        <ele>138.2</ele>
        <time>2021-08-21T11:21:57Z</time>
      </trkpt>
      <trkpt lat="48.35658" lon="2.73051">
        <ele>138.2</ele>
        <time>2021-08-21T11:21:58Z</time>
      </trkpt>
      <trkpt lat="48.35658" lon="2.73051">
        <ele>138.2</ele>
        <time>2021-08-21T11:21:59Z</time>
      </trkpt>
      <trkpt lat="48.35658" lon="2.73051">
        <ele>138.2</ele>
        <time>2021-08-21T11:22:00Z</time>
      </trkpt>
      <trkpt lat="48.35658" lon="2.73051">
        <ele>138.2</ele>
        <time>2021-08-21T11:22:01Z</time>
      </trkpt>
      <trkpt lat="48.35658" lon="2.73051">
        <ele>138.2</ele>
        <time>2021-08-21T11:22:02Z</time>
      </trkpt>
      <trkpt lat="48.35658" lon="2.73051">
        <ele>138.2</ele>
        <time>2021-08-21T11:22:03Z</time>
      </trkpt>
      <trkpt lat="48.35657" lon="2.73051">
        <ele>138.2</ele>
        <time>2021-08-21T11:22:04Z</time>
      </trkpt>
      <trkpt lat="48.35657" lon="2.73051">
        <ele>138.2</ele>
        <time>2021-08-21T11:22:05Z</time>
      </trkpt>
      <trkpt lat="48.35657" lon="2.73051">
        <ele>138.2</ele>
        <time>2021-08-21T11:22:06Z</time>
      </trkpt>
      <trkpt lat="48.35657" lon="2.73051">
        <ele>138.2</ele>
        <time>2021-08-21T11:22:07Z</time>
      </trkpt>
      <trkpt lat="48.35657" lon="2.73051">
        <ele>138.2</ele>
        <time>2021-08-21T11:22:08Z</time>
      </trkpt>
      <trkpt lat="48.35657" lon="2.73051">
        <ele>138.2</ele>
        <time>2021-08-21T11:22:09Z</time>
      </trkpt>
      <trkpt lat="48.35657" lon="2.73051">
        <ele>138.2</ele>
        <time>2021-08-21T11:22:10Z</time>
      </trkpt>
      <trkpt lat="48.35657" lon="2.73051">
        <ele>138.2</ele>
        <time>2021-08-21T11:22:11Z</time>
      </trkpt>
      <trkpt lat="48.35657" lon="2.73051">
        <ele>138.2</ele>
        <time>2021-08-21T11:22:12Z</time>
      </trkpt>
      <trkpt lat="48.35657" lon="2.73051">
        <ele>138.2</ele>
        <time>2021-08-21T11:22:13Z</time>
      </trkpt>
      <trkpt lat="48.35657" lon="2.7305">
        <ele>138.2</ele>
        <time>2021-08-21T11:22:14Z</time>
      </trkpt>
      <trkpt lat="48.35657" lon="2.7305">
        <ele>138.2</ele>
        <time>2021-08-21T11:22:15Z</time>
      </trkpt>
      <trkpt lat="48.35657" lon="2.7305">
        <ele>138.2</ele>
        <time>2021-08-21T11:22:16Z</time>
      </trkpt>
      <trkpt lat="48.35657" lon="2.7305">
        <ele>138.2</ele>
        <time>2021-08-21T11:22:17Z</time>
      </trkpt>
      <trkpt lat="48.35657" lon="2.73049">
        <ele>138.2</ele>
        <time>2021-08-21T11:22:18Z</time>
      </trkpt>
      <trkpt lat="48.35658" lon="2.73048">
        <ele>138.2</ele>
        <time>2021-08-21T11:22:19Z</time>
      </trkpt>
      <trkpt lat="48.35659" lon="2.73048">
        <ele>138.2</ele>
        <time>2021-08-21T11:22:20Z</time>
      </trkpt>
      <trkpt lat="48.35659" lon="2.73049">
        <ele>138.2</ele>
        <time>2021-08-21T11:22:21Z</time>
      </trkpt>
      <trkpt lat="48.35658" lon="2.7305">
        <ele>138.2</ele>
        <time>2021-08-21T11:22:22Z</time>
      </trkpt>
      <trkpt lat="48.35659" lon="2.7305">
        <ele>138.2</ele>
        <time>2021-08-21T11:22:23Z</time>
      </trkpt>
      <trkpt lat="48.3566" lon="2.73049">
        <ele>138.2</ele>
        <time>2021-08-21T11:22:24Z</time>
      </trkpt>
      <trkpt lat="48.35662" lon="2.73049">
        <ele>138.2</ele>
        <time>2021-08-21T11:22:25Z</time>
      </trkpt>
      <trkpt lat="48.35663" lon="2.73049">
        <ele>138.2</ele>
        <time>2021-08-21T11:22:26Z</time>
      </trkpt>
      <trkpt lat="48.35663" lon="2.7305">
        <ele>138.2</ele>
        <time>2021-08-21T11:22:27Z</time>
      </trkpt>
      <trkpt lat="48.35663" lon="2.73051">
        <ele>138.2</ele>
        <time>2021-08-21T11:22:28Z</time>
      </trkpt>
      <trkpt lat="48.35663" lon="2.73051">
        <ele>138.2</ele>
        <time>2021-08-21T11:22:29Z</time>
      </trkpt>
      <trkpt lat="48.35664" lon="2.73051">
        <ele>138.2</ele>
        <time>2021-08-21T11:22:30Z</time>
      </trkpt>
      <trkpt lat="48.35664" lon="2.7305">
        <ele>138.2</ele>
        <time>2021-08-21T11:22:31Z</time>
      </trkpt>
      <trkpt lat="48.35665" lon="2.73049">
        <ele>138.2</ele>
        <time>2021-08-21T11:22:32Z</time>
      </trkpt>
      <trkpt lat="48.35666" lon="2.73048">
        <ele>138.2</ele>
        <time>2021-08-21T11:22:33Z</time>
      </trkpt>
      <trkpt lat="48.35666" lon="2.73047">
        <ele>138.2</ele>
        <time>2021-08-21T11:22:34Z</time>
      </trkpt>
      <trkpt lat="48.35665" lon="2.73047">
        <ele>138.2</ele>
        <time>2021-08-21T11:22:35Z</time>
      </trkpt>
      <trkpt lat="48.35665" lon="2.73047">
        <ele>138.2</ele>
        <time>2021-08-21T11:22:36Z</time>
      </trkpt>
      <trkpt lat="48.35665" lon="2.73047">
        <ele>138.2</ele>
        <time>2021-08-21T11:22:37Z</time>
      </trkpt>
      <trkpt lat="48.35664" lon="2.73047">
        <ele>138.2</ele>
        <time>2021-08-21T11:22:38Z</time>
      </trkpt>
      <trkpt lat="48.35664" lon="2.73047">
        <ele>138.2</ele>
        <time>2021-08-21T11:22:39Z</time>
      </trkpt>
      <trkpt lat="48.35664" lon="2.73047">
        <ele>138.2</ele>
        <time>2021-08-21T11:22:40Z</time>
      </trkpt>
      <trkpt lat="48.35664" lon="2.73047">
        <ele>138.2</ele>
        <time>2021-08-21T11:22:41Z</time>
      </trkpt>
      <trkpt lat="48.35664" lon="2.73047">
        <ele>138.2</ele>
        <time>2021-08-21T11:22:42Z</time>
      </trkpt>
      <trkpt lat="48.35664" lon="2.73047">
        <ele>138.2</ele>
        <time>2021-08-21T11:22:43Z</time>
      </trkpt>
      <trkpt lat="48.35664" lon="2.73047">
        <ele>138.2</ele>
        <time>2021-08-21T11:22:44Z</time>
      </trkpt>
      <trkpt lat="48.35664" lon="2.73047">
        <ele>138.2</ele>
        <time>2021-08-21T11:22:45Z</time>
      </trkpt>
      <trkpt lat="48.35664" lon="2.73047">
        <ele>138.2</ele>
        <time>2021-08-21T11:22:46Z</time>
      </trkpt>
      <trkpt lat="48.35664" lon="2.73047">
        <ele>138.2</ele>
        <time>2021-08-21T11:22:47Z</time>
      </trkpt>
      <trkpt lat="48.35664" lon="2.73047">
        <ele>138.2</ele>
        <time>2021-08-21T11:22:48Z</time>
      </trkpt>
      <trkpt lat="48.35664" lon="2.73048">
        <ele>138.2</ele>
        <time>2021-08-21T11:22:49Z</time>
      </trkpt>
      <trkpt lat="48.35665" lon="2.73048">
        <ele>138.2</ele>
        <time>2021-08-21T11:22:50Z</time>
      </trkpt>
      <trkpt lat="48.35665" lon="2.73048">
        <ele>138.2</ele>
        <time>2021-08-21T11:22:51Z</time>
      </trkpt>
      <trkpt lat="48.35665" lon="2.73048">
        <ele>138.1</ele>
        <time>2021-08-21T11:22:52Z</time>
      </trkpt>
      <trkpt lat="48.35665" lon="2.73048">
        <ele>138.1</ele>
        <time>2021-08-21T11:22:53Z</time>
      </trkpt>
      <trkpt lat="48.35665" lon="2.73048">
        <ele>138.1</ele>
        <time>2021-08-21T11:22:54Z</time>
      </trkpt>
      <trkpt lat="48.35666" lon="2.73048">
        <ele>138.1</ele>
        <time>2021-08-21T11:22:55Z</time>
      </trkpt>
      <trkpt lat="48.35666" lon="2.73047">
        <ele>138.1</ele>
        <time>2021-08-21T11:22:56Z</time>
      </trkpt>
      <trkpt lat="48.35667" lon="2.73048">
        <ele>138.1</ele>
        <time>2021-08-21T11:22:57Z</time>
      </trkpt>
      <trkpt lat="48.35667" lon="2.73048">
        <ele>138.1</ele>
        <time>2021-08-21T11:22:58Z</time>
      </trkpt>
      <trkpt lat="48.35668" lon="2.73048">
        <ele>138.1</ele>
        <time>2021-08-21T11:22:59Z</time>
      </trkpt>
      <trkpt lat="48.35668" lon="2.73048">
        <ele>138.1</ele>
        <time>2021-08-21T11:23:00Z</time>
      </trkpt>
      <trkpt lat="48.35668" lon="2.73049">
        <ele>138.1</ele>
        <time>2021-08-21T11:23:01Z</time>
      </trkpt>
      <trkpt lat="48.35668" lon="2.73049">
        <ele>138.1</ele>
        <time>2021-08-21T11:23:02Z</time>
      </trkpt>
      <trkpt lat="48.35668" lon="2.7305">
        <ele>138.1</ele>
        <time>2021-08-21T11:23:03Z</time>
      </trkpt>
      <trkpt lat="48.35667" lon="2.73052">
        <ele>138.1</ele>
        <time>2021-08-21T11:23:04Z</time>
      </trkpt>
      <trkpt lat="48.35666" lon="2.73054">
        <ele>138.1</ele>
        <time>2021-08-21T11:23:05Z</time>
      </trkpt>
      <trkpt lat="48.35666" lon="2.73057">
        <ele>138.1</ele>
        <time>2021-08-21T11:23:06Z</time>
      </trkpt>
      <trkpt lat="48.35665" lon="2.73059">
        <ele>138.1</ele>
        <time>2021-08-21T11:23:07Z</time>
      </trkpt>
      <trkpt lat="48.35664" lon="2.73061">
        <ele>138.1</ele>
        <time>2021-08-21T11:23:08Z</time>
      </trkpt>
      <trkpt lat="48.35663" lon="2.73063">
        <ele>138.1</ele>
        <time>2021-08-21T11:23:09Z</time>
      </trkpt>
      <trkpt lat="48.35663" lon="2.73065">
        <ele>138.1</ele>
        <time>2021-08-21T11:23:10Z</time>
      </trkpt>
      <trkpt lat="48.35662" lon="2.73067">
        <ele>138.1</ele>
        <time>2021-08-21T11:23:11Z</time>
      </trkpt>
      <trkpt lat="48.35661" lon="2.73069">
        <ele>138.1</ele>
        <time>2021-08-21T11:23:12Z</time>
      </trkpt>
      <trkpt lat="48.3566" lon="2.73072">
        <ele>138.1</ele>
        <time>2021-08-21T11:23:13Z</time>
      </trkpt>
      <trkpt lat="48.35659" lon="2.73074">
        <ele>138.1</ele>
        <time>2021-08-21T11:23:14Z</time>
      </trkpt>
      <trkpt lat="48.35658" lon="2.73078">
        <ele>138</ele>
        <time>2021-08-21T11:23:15Z</time>
      </trkpt>
      <trkpt lat="48.35657" lon="2.7308">
        <ele>138</ele>
        <time>2021-08-21T11:23:16Z</time>
      </trkpt>
      <trkpt lat="48.35657" lon="2.73082">
        <ele>138</ele>
        <time>2021-08-21T11:23:17Z</time>
      </trkpt>
      <trkpt lat="48.35656" lon="2.73084">
        <ele>138</ele>
        <time>2021-08-21T11:23:18Z</time>
      </trkpt>
      <trkpt lat="48.35656" lon="2.73085">
        <ele>138</ele>
        <time>2021-08-21T11:23:19Z</time>
      </trkpt>
      <trkpt lat="48.35655" lon="2.73088">
        <ele>138</ele>
        <time>2021-08-21T11:23:20Z</time>
      </trkpt>
      <trkpt lat="48.35655" lon="2.7309">
        <ele>138</ele>
        <time>2021-08-21T11:23:21Z</time>
      </trkpt>
      <trkpt lat="48.35655" lon="2.73092">
        <ele>138</ele>
        <time>2021-08-21T11:23:22Z</time>
      </trkpt>
      <trkpt lat="48.35654" lon="2.73095">
        <ele>138</ele>
        <time>2021-08-21T11:23:23Z</time>
      </trkpt>
      <trkpt lat="48.35654" lon="2.73096">
        <ele>138</ele>
        <time>2021-08-21T11:23:24Z</time>
      </trkpt>
      <trkpt lat="48.35654" lon="2.73097">
        <ele>138</ele>
        <time>2021-08-21T11:23:25Z</time>
      </trkpt>
      <trkpt lat="48.35653" lon="2.73099">
        <ele>138</ele>
        <time>2021-08-21T11:23:26Z</time>
      </trkpt>
      <trkpt lat="48.35653" lon="2.73101">
        <ele>138</ele>
        <time>2021-08-21T11:23:27Z</time>
      </trkpt>
      <trkpt lat="48.35652" lon="2.73102">
        <ele>138</ele>
        <time>2021-08-21T11:23:28Z</time>
      </trkpt>
      <trkpt lat="48.35652" lon="2.73104">
        <ele>138</ele>
        <time>2021-08-21T11:23:29Z</time>
      </trkpt>
      <trkpt lat="48.35651" lon="2.73105">
        <ele>138</ele>
        <time>2021-08-21T11:23:30Z</time>
      </trkpt>
      <trkpt lat="48.35651" lon="2.73106">
        <ele>138</ele>
        <time>2021-08-21T11:23:31Z</time>
      </trkpt>
      <trkpt lat="48.3565" lon="2.73108">
        <ele>138</ele>
        <time>2021-08-21T11:23:32Z</time>
      </trkpt>
      <trkpt lat="48.3565" lon="2.73109">
        <ele>138</ele>
        <time>2021-08-21T11:23:33Z</time>
      </trkpt>
      <trkpt lat="48.35649" lon="2.7311">
        <ele>138</ele>
        <time>2021-08-21T11:23:34Z</time>
      </trkpt>
      <trkpt lat="48.35648" lon="2.73111">
        <ele>138</ele>
        <time>2021-08-21T11:23:35Z</time>
      </trkpt>
      <trkpt lat="48.35648" lon="2.73113">
        <ele>138</ele>
        <time>2021-08-21T11:23:36Z</time>
      </trkpt>
      <trkpt lat="48.35647" lon="2.73114">
        <ele>138</ele>
        <time>2021-08-21T11:23:37Z</time>
      </trkpt>
      <trkpt lat="48.35646" lon="2.73115">
        <ele>138</ele>
        <time>2021-08-21T11:23:38Z</time>
      </trkpt>
      <trkpt lat="48.35645" lon="2.73115">
        <ele>138</ele>
        <time>2021-08-21T11:23:39Z</time>
      </trkpt>
      <trkpt lat="48.35644" lon="2.73116">
        <ele>138</ele>
        <time>2021-08-21T11:23:40Z</time>
      </trkpt>
      <trkpt lat="48.35643" lon="2.73117">
        <ele>138</ele>
        <time>2021-08-21T11:23:41Z</time>
      </trkpt>
      <trkpt lat="48.35642" lon="2.73117">
        <ele>138</ele>
        <time>2021-08-21T11:23:42Z</time>
      </trkpt>
      <trkpt lat="48.35641" lon="2.73118">
        <ele>138</ele>
        <time>2021-08-21T11:23:43Z</time>
      </trkpt>
      <trkpt lat="48.35641" lon="2.73119">
        <ele>138</ele>
        <time>2021-08-21T11:23:44Z</time>
      </trkpt>
      <trkpt lat="48.3564" lon="2.7312">
        <ele>138</ele>
        <time>2021-08-21T11:23:45Z</time>
      </trkpt>
      <trkpt lat="48.35638" lon="2.7312">
        <ele>138</ele>
        <time>2021-08-21T11:23:46Z</time>
      </trkpt>
      <trkpt lat="48.35637" lon="2.7312">
        <ele>138.1</ele>
        <time>2021-08-21T11:23:47Z</time>
      </trkpt>
      <trkpt lat="48.35636" lon="2.7312">
        <ele>138.1</ele>
        <time>2021-08-21T11:23:48Z</time>
      </trkpt>
      <trkpt lat="48.35635" lon="2.7312">
        <ele>138.1</ele>
        <time>2021-08-21T11:23:49Z</time>
      </trkpt>
      <trkpt lat="48.35633" lon="2.7312">
        <ele>138.1</ele>
        <time>2021-08-21T11:23:50Z</time>
      </trkpt>
      <trkpt lat="48.35632" lon="2.73119">
        <ele>138.1</ele>
        <time>2021-08-21T11:23:51Z</time>
      </trkpt>
      <trkpt lat="48.3563" lon="2.73119">
        <ele>138.1</ele>
        <time>2021-08-21T11:23:52Z</time>
      </trkpt>
      <trkpt lat="48.35629" lon="2.73119">
        <ele>138.1</ele>
        <time>2021-08-21T11:23:53Z</time>
      </trkpt>
      <trkpt lat="48.35627" lon="2.73118">
        <ele>138.1</ele>
        <time>2021-08-21T11:23:54Z</time>
      </trkpt>
      <trkpt lat="48.35626" lon="2.73118">
        <ele>138.1</ele>
        <time>2021-08-21T11:23:55Z</time>
      </trkpt>
      <trkpt lat="48.35625" lon="2.73118">
        <ele>138.1</ele>
        <time>2021-08-21T11:23:56Z</time>
      </trkpt>
      <trkpt lat="48.35624" lon="2.73117">
        <ele>138.1</ele>
        <time>2021-08-21T11:23:57Z</time>
      </trkpt>
      <trkpt lat="48.35622" lon="2.73117">
        <ele>138.1</ele>
        <time>2021-08-21T11:23:58Z</time>
      </trkpt>
      <trkpt lat="48.35621" lon="2.73115">
        <ele>138.1</ele>
        <time>2021-08-21T11:23:59Z</time>
      </trkpt>
      <trkpt lat="48.3562" lon="2.73114">
        <ele>138.1</ele>
        <time>2021-08-21T11:24:00Z</time>
      </trkpt>
      <trkpt lat="48.35619" lon="2.73114">
        <ele>138.1</ele>
        <time>2021-08-21T11:24:01Z</time>
      </trkpt>
      <trkpt lat="48.35618" lon="2.73113">
        <ele>138.1</ele>
        <time>2021-08-21T11:24:02Z</time>
      </trkpt>
      <trkpt lat="48.35617" lon="2.73112">
        <ele>138.1</ele>
        <time>2021-08-21T11:24:03Z</time>
      </trkpt>
      <trkpt lat="48.35616" lon="2.73111">
        <ele>138.1</ele>
        <time>2021-08-21T11:24:04Z</time>
      </trkpt>
      <trkpt lat="48.35615" lon="2.7311">
        <ele>138.2</ele>
        <time>2021-08-21T11:24:05Z</time>
      </trkpt>
      <trkpt lat="48.35614" lon="2.73109">
        <ele>138.2</ele>
        <time>2021-08-21T11:24:06Z</time>
      </trkpt>
      <trkpt lat="48.35614" lon="2.73108">
        <ele>138.2</ele>
        <time>2021-08-21T11:24:07Z</time>
      </trkpt>
      <trkpt lat="48.35613" lon="2.73107">
        <ele>138.2</ele>
        <time>2021-08-21T11:24:08Z</time>
      </trkpt>
      <trkpt lat="48.35612" lon="2.73106">
        <ele>138.2</ele>
        <time>2021-08-21T11:24:09Z</time>
      </trkpt>
      <trkpt lat="48.35611" lon="2.73106">
        <ele>138.2</ele>
        <time>2021-08-21T11:24:10Z</time>
      </trkpt>
      <trkpt lat="48.35611" lon="2.73105">
        <ele>138.2</ele>
        <time>2021-08-21T11:24:11Z</time>
      </trkpt>
      <trkpt lat="48.3561" lon="2.73104">
        <ele>138.2</ele>
        <time>2021-08-21T11:24:12Z</time>
      </trkpt>
      <trkpt lat="48.35609" lon="2.73103">
        <ele>138.2</ele>
        <time>2021-08-21T11:24:13Z</time>
      </trkpt>
      <trkpt lat="48.35608" lon="2.73102">
        <ele>138.2</ele>
        <time>2021-08-21T11:24:14Z</time>
      </trkpt>
      <trkpt lat="48.35608" lon="2.73101">
        <ele>138.2</ele>
        <time>2021-08-21T11:24:15Z</time>
      </trkpt>
      <trkpt lat="48.35607" lon="2.731">
        <ele>138.2</ele>
        <time>2021-08-21T11:24:16Z</time>
      </trkpt>
      <trkpt lat="48.35606" lon="2.73099">
        <ele>138.2</ele>
        <time>2021-08-21T11:24:17Z</time>
      </trkpt>
      <trkpt lat="48.35605" lon="2.73098">
        <ele>138.3</ele>
        <time>2021-08-21T11:24:18Z</time>
      </trkpt>
      <trkpt lat="48.35604" lon="2.73098">
        <ele>138.3</ele>
        <time>2021-08-21T11:24:19Z</time>
      </trkpt>
      <trkpt lat="48.35603" lon="2.73097">
        <ele>138.3</ele>
        <time>2021-08-21T11:24:20Z</time>
      </trkpt>
      <trkpt lat="48.35602" lon="2.73097">
        <ele>138.3</ele>
        <time>2021-08-21T11:24:21Z</time>
      </trkpt>
      <trkpt lat="48.35601" lon="2.73097">
        <ele>138.3</ele>
        <time>2021-08-21T11:24:22Z</time>
      </trkpt>
      <trkpt lat="48.356" lon="2.73096">
        <ele>138.3</ele>
        <time>2021-08-21T11:24:23Z</time>
      </trkpt>
      <trkpt lat="48.35599" lon="2.73096">
        <ele>138.3</ele>
        <time>2021-08-21T11:24:24Z</time>
      </trkpt>
      <trkpt lat="48.35598" lon="2.73096">
        <ele>138.3</ele>
        <time>2021-08-21T11:24:25Z</time>
      </trkpt>
      <trkpt lat="48.35597" lon="2.73096">
        <ele>138.3</ele>
        <time>2021-08-21T11:24:26Z</time>
      </trkpt>
      <trkpt lat="48.35596" lon="2.73096">
        <ele>138.3</ele>
        <time>2021-08-21T11:24:27Z</time>
      </trkpt>
      <trkpt lat="48.35595" lon="2.73096">
        <ele>138.3</ele>
        <time>2021-08-21T11:24:28Z</time>
      </trkpt>
      <trkpt lat="48.35594" lon="2.73096">
        <ele>138.3</ele>
        <time>2021-08-21T11:24:29Z</time>
      </trkpt>
      <trkpt lat="48.35593" lon="2.73096">
        <ele>138.3</ele>
        <time>2021-08-21T11:24:30Z</time>
      </trkpt>
      <trkpt lat="48.35592" lon="2.73096">
        <ele>138.3</ele>
        <time>2021-08-21T11:24:31Z</time>
      </trkpt>
      <trkpt lat="48.35591" lon="2.73097">
        <ele>138.3</ele>
        <time>2021-08-21T11:24:32Z</time>
      </trkpt>
      <trkpt lat="48.3559" lon="2.73097">
        <ele>138.3</ele>
        <time>2021-08-21T11:24:33Z</time>
      </trkpt>
      <trkpt lat="48.3559" lon="2.73098">
        <ele>138.3</ele>
        <time>2021-08-21T11:24:34Z</time>
      </trkpt>
      <trkpt lat="48.35588" lon="2.73098">
        <ele>138.3</ele>
        <time>2021-08-21T11:24:35Z</time>
      </trkpt>
      <trkpt lat="48.35588" lon="2.73099">
        <ele>138.3</ele>
        <time>2021-08-21T11:24:36Z</time>
      </trkpt>
      <trkpt lat="48.35587" lon="2.731">
        <ele>138.3</ele>
        <time>2021-08-21T11:24:37Z</time>
      </trkpt>
      <trkpt lat="48.35586" lon="2.73101">
        <ele>138.3</ele>
        <time>2021-08-21T11:24:38Z</time>
      </trkpt>
      <trkpt lat="48.35585" lon="2.73102">
        <ele>138.3</ele>
        <time>2021-08-21T11:24:39Z</time>
      </trkpt>
      <trkpt lat="48.35584" lon="2.73103">
        <ele>138.3</ele>
        <time>2021-08-21T11:24:40Z</time>
      </trkpt>
      <trkpt lat="48.35583" lon="2.73104">
        <ele>138.3</ele>
        <time>2021-08-21T11:24:41Z</time>
      </trkpt>
      <trkpt lat="48.35582" lon="2.73104">
        <ele>138.3</ele>
        <time>2021-08-21T11:24:42Z</time>
      </trkpt>
      <trkpt lat="48.35582" lon="2.73105">
        <ele>138.3</ele>
        <time>2021-08-21T11:24:43Z</time>
      </trkpt>
      <trkpt lat="48.35581" lon="2.73105">
        <ele>138.3</ele>
        <time>2021-08-21T11:24:44Z</time>
      </trkpt>
      <trkpt lat="48.35581" lon="2.73106">
        <ele>138.3</ele>
        <time>2021-08-21T11:24:45Z</time>
      </trkpt>
      <trkpt lat="48.35581" lon="2.73107">
        <ele>138.3</ele>
        <time>2021-08-21T11:24:46Z</time>
      </trkpt>
      <trkpt lat="48.3558" lon="2.73107">
        <ele>138.3</ele>
        <time>2021-08-21T11:24:47Z</time>
      </trkpt>
      <trkpt lat="48.3558" lon="2.73107">
        <ele>138.3</ele>
        <time>2021-08-21T11:24:48Z</time>
      </trkpt>
      <trkpt lat="48.3558" lon="2.73108">
        <ele>138.3</ele>
        <time>2021-08-21T11:24:49Z</time>
      </trkpt>
      <trkpt lat="48.35579" lon="2.73108">
        <ele>138.3</ele>
        <time>2021-08-21T11:24:50Z</time>
      </trkpt>
      <trkpt lat="48.35579" lon="2.73109">
        <ele>138.3</ele>
        <time>2021-08-21T11:24:51Z</time>
      </trkpt>
      <trkpt lat="48.35579" lon="2.73109">
        <ele>138.3</ele>
        <time>2021-08-21T11:24:52Z</time>
      </trkpt>
      <trkpt lat="48.35579" lon="2.73109">
        <ele>138.3</ele>
        <time>2021-08-21T11:24:53Z</time>
      </trkpt>
      <trkpt lat="48.35579" lon="2.73109">
        <ele>138.3</ele>
        <time>2021-08-21T11:24:54Z</time>
      </trkpt>
      <trkpt lat="48.35579" lon="2.7311">
        <ele>138.3</ele>
        <time>2021-08-21T11:24:55Z</time>
      </trkpt>
      <trkpt lat="48.35578" lon="2.7311">
        <ele>138.3</ele>
        <time>2021-08-21T11:24:56Z</time>
      </trkpt>
      <trkpt lat="48.35578" lon="2.73111">
        <ele>138.3</ele>
        <time>2021-08-21T11:24:57Z</time>
      </trkpt>
      <trkpt lat="48.35578" lon="2.73111">
        <ele>138.3</ele>
        <time>2021-08-21T11:24:58Z</time>
      </trkpt>
      <trkpt lat="48.35578" lon="2.73112">
        <ele>138.3</ele>
        <time>2021-08-21T11:24:59Z</time>
      </trkpt>
      <trkpt lat="48.35579" lon="2.73114">
        <ele>138.3</ele>
        <time>2021-08-21T11:25:00Z</time>
      </trkpt>
      <trkpt lat="48.3558" lon="2.73114">
        <ele>138.3</ele>
        <time>2021-08-21T11:25:01Z</time>
      </trkpt>
      <trkpt lat="48.3558" lon="2.73115">
        <ele>138.3</ele>
        <time>2021-08-21T11:25:02Z</time>
      </trkpt>
      <trkpt lat="48.3558" lon="2.73116">
        <ele>138.3</ele>
        <time>2021-08-21T11:25:03Z</time>
      </trkpt>
      <trkpt lat="48.35581" lon="2.73116">
        <ele>138.3</ele>
        <time>2021-08-21T11:25:04Z</time>
      </trkpt>
      <trkpt lat="48.35581" lon="2.73115">
        <ele>138.3</ele>
        <time>2021-08-21T11:25:05Z</time>
      </trkpt>
      <trkpt lat="48.35581" lon="2.73115">
        <ele>138.3</ele>
        <time>2021-08-21T11:25:06Z</time>
      </trkpt>
      <trkpt lat="48.35581" lon="2.73115">
        <ele>138.3</ele>
        <time>2021-08-21T11:25:07Z</time>
      </trkpt>
      <trkpt lat="48.35581" lon="2.73116">
        <ele>138.3</ele>
        <time>2021-08-21T11:25:08Z</time>
      </trkpt>
      <trkpt lat="48.35581" lon="2.73117">
        <ele>138.3</ele>
        <time>2021-08-21T11:25:09Z</time>
      </trkpt>
      <trkpt lat="48.35581" lon="2.73118">
        <ele>138.3</ele>
        <time>2021-08-21T11:25:10Z</time>
      </trkpt>
      <trkpt lat="48.35581" lon="2.73119">
        <ele>138.3</ele>
        <time>2021-08-21T11:25:11Z</time>
      </trkpt>
      <trkpt lat="48.35581" lon="2.7312">
        <ele>138.3</ele>
        <time>2021-08-21T11:25:12Z</time>
      </trkpt>
      <trkpt lat="48.35581" lon="2.73121">
        <ele>138.3</ele>
        <time>2021-08-21T11:25:13Z</time>
      </trkpt>
      <trkpt lat="48.35582" lon="2.73122">
        <ele>138.3</ele>
        <time>2021-08-21T11:25:14Z</time>
      </trkpt>
      <trkpt lat="48.35582" lon="2.73122">
        <ele>138.3</ele>
        <time>2021-08-21T11:25:15Z</time>
      </trkpt>
      <trkpt lat="48.35583" lon="2.73123">
        <ele>138.3</ele>
        <time>2021-08-21T11:25:16Z</time>
      </trkpt>
      <trkpt lat="48.35584" lon="2.73123">
        <ele>138.3</ele>
        <time>2021-08-21T11:25:17Z</time>
      </trkpt>
      <trkpt lat="48.35585" lon="2.73124">
        <ele>138.3</ele>
        <time>2021-08-21T11:25:18Z</time>
      </trkpt>
      <trkpt lat="48.35586" lon="2.73124">
        <ele>138.3</ele>
        <time>2021-08-21T11:25:19Z</time>
      </trkpt>
      <trkpt lat="48.35588" lon="2.73125">
        <ele>138.2</ele>
        <time>2021-08-21T11:25:20Z</time>
      </trkpt>
      <trkpt lat="48.35589" lon="2.73125">
        <ele>138.2</ele>
        <time>2021-08-21T11:25:21Z</time>
      </trkpt>
      <trkpt lat="48.3559" lon="2.73125">
        <ele>138.2</ele>
        <time>2021-08-21T11:25:22Z</time>
      </trkpt>
      <trkpt lat="48.35592" lon="2.73126">
        <ele>138.2</ele>
        <time>2021-08-21T11:25:23Z</time>
      </trkpt>
      <trkpt lat="48.35592" lon="2.73126">
        <ele>138.2</ele>
        <time>2021-08-21T11:25:24Z</time>
      </trkpt>
      <trkpt lat="48.35593" lon="2.73127">
        <ele>138.2</ele>
        <time>2021-08-21T11:25:25Z</time>
      </trkpt>
      <trkpt lat="48.35594" lon="2.73127">
        <ele>138.2</ele>
        <time>2021-08-21T11:25:26Z</time>
      </trkpt>
      <trkpt lat="48.35595" lon="2.73128">
        <ele>138.2</ele>
        <time>2021-08-21T11:25:27Z</time>
      </trkpt>
      <trkpt lat="48.35596" lon="2.73129">
        <ele>138.2</ele>
        <time>2021-08-21T11:25:28Z</time>
      </trkpt>
      <trkpt lat="48.35597" lon="2.73131">
        <ele>138.2</ele>
        <time>2021-08-21T11:25:29Z</time>
      </trkpt>
      <trkpt lat="48.35597" lon="2.73132">
        <ele>138.2</ele>
        <time>2021-08-21T11:25:30Z</time>
      </trkpt>
      <trkpt lat="48.35597" lon="2.73133">
        <ele>138.2</ele>
        <time>2021-08-21T11:25:31Z</time>
      </trkpt>
      <trkpt lat="48.35598" lon="2.73134">
        <ele>138.2</ele>
        <time>2021-08-21T11:25:32Z</time>
      </trkpt>
      <trkpt lat="48.35598" lon="2.73135">
        <ele>138.2</ele>
        <time>2021-08-21T11:25:33Z</time>
      </trkpt>
      <trkpt lat="48.35598" lon="2.73137">
        <ele>138.2</ele>
        <time>2021-08-21T11:25:34Z</time>
      </trkpt>
      <trkpt lat="48.35598" lon="2.73138">
        <ele>138.2</ele>
        <time>2021-08-21T11:25:35Z</time>
      </trkpt>
      <trkpt lat="48.35598" lon="2.7314">
        <ele>138.2</ele>
        <time>2021-08-21T11:25:36Z</time>
      </trkpt>
      <trkpt lat="48.35598" lon="2.73142">
        <ele>138.2</ele>
        <time>2021-08-21T11:25:37Z</time>
      </trkpt>
      <trkpt lat="48.35598" lon="2.73143">
        <ele>138.2</ele>
        <time>2021-08-21T11:25:38Z</time>
      </trkpt>
      <trkpt lat="48.35597" lon="2.73146">
        <ele>138.2</ele>
        <time>2021-08-21T11:25:39Z</time>
      </trkpt>
      <trkpt lat="48.35597" lon="2.73148">
        <ele>138.2</ele>
        <time>2021-08-21T11:25:40Z</time>
      </trkpt>
      <trkpt lat="48.35597" lon="2.73149">
        <ele>138.2</ele>
        <time>2021-08-21T11:25:41Z</time>
      </trkpt>
      <trkpt lat="48.35596" lon="2.73151">
        <ele>138.2</ele>
        <time>2021-08-21T11:25:42Z</time>
      </trkpt>
      <trkpt lat="48.35595" lon="2.73152">
        <ele>138.2</ele>
        <time>2021-08-21T11:25:43Z</time>
      </trkpt>
      <trkpt lat="48.35594" lon="2.73154">
        <ele>138.2</ele>
        <time>2021-08-21T11:25:44Z</time>
      </trkpt>
      <trkpt lat="48.35593" lon="2.73155">
        <ele>138.2</ele>
        <time>2021-08-21T11:25:45Z</time>
      </trkpt>
      <trkpt lat="48.35592" lon="2.73158">
        <ele>138.2</ele>
        <time>2021-08-21T11:25:46Z</time>
      </trkpt>
      <trkpt lat="48.35591" lon="2.73158">
        <ele>138.2</ele>
        <time>2021-08-21T11:25:47Z</time>
      </trkpt>
      <trkpt lat="48.3559" lon="2.73159">
        <ele>138.2</ele>
        <time>2021-08-21T11:25:48Z</time>
      </trkpt>
      <trkpt lat="48.35589" lon="2.7316">
        <ele>138.2</ele>
        <time>2021-08-21T11:25:49Z</time>
      </trkpt>
      <trkpt lat="48.35588" lon="2.73161">
        <ele>138.3</ele>
        <time>2021-08-21T11:25:50Z</time>
      </trkpt>
      <trkpt lat="48.35586" lon="2.73163">
        <ele>138.3</ele>
        <time>2021-08-21T11:25:51Z</time>
      </trkpt>
      <trkpt lat="48.35585" lon="2.73164">
        <ele>138.3</ele>
        <time>2021-08-21T11:25:52Z</time>
      </trkpt>
      <trkpt lat="48.35584" lon="2.73164">
        <ele>138.3</ele>
        <time>2021-08-21T11:25:53Z</time>
      </trkpt>
      <trkpt lat="48.35583" lon="2.73165">
        <ele>138.3</ele>
        <time>2021-08-21T11:25:54Z</time>
      </trkpt>
      <trkpt lat="48.35583" lon="2.73166">
        <ele>138.3</ele>
        <time>2021-08-21T11:25:55Z</time>
      </trkpt>
      <trkpt lat="48.35582" lon="2.73167">
        <ele>138.3</ele>
        <time>2021-08-21T11:25:56Z</time>
      </trkpt>
      <trkpt lat="48.35581" lon="2.73169">
        <ele>138.3</ele>
        <time>2021-08-21T11:25:57Z</time>
      </trkpt>
      <trkpt lat="48.3558" lon="2.7317">
        <ele>138.4</ele>
        <time>2021-08-21T11:25:58Z</time>
      </trkpt>
      <trkpt lat="48.3558" lon="2.73171">
        <ele>138.4</ele>
        <time>2021-08-21T11:25:59Z</time>
      </trkpt>
      <trkpt lat="48.3558" lon="2.73172">
        <ele>138.4</ele>
        <time>2021-08-21T11:26:00Z</time>
      </trkpt>
      <trkpt lat="48.35579" lon="2.73174">
        <ele>138.4</ele>
        <time>2021-08-21T11:26:01Z</time>
      </trkpt>
      <trkpt lat="48.35579" lon="2.73175">
        <ele>138.4</ele>
        <time>2021-08-21T11:26:02Z</time>
      </trkpt>
      <trkpt lat="48.35579" lon="2.73176">
        <ele>138.4</ele>
        <time>2021-08-21T11:26:03Z</time>
      </trkpt>
      <trkpt lat="48.35579" lon="2.73178">
        <ele>138.4</ele>
        <time>2021-08-21T11:26:04Z</time>
      </trkpt>
      <trkpt lat="48.35579" lon="2.73179">
        <ele>138.4</ele>
        <time>2021-08-21T11:26:05Z</time>
      </trkpt>
      <trkpt lat="48.35579" lon="2.73181">
        <ele>138.4</ele>
        <time>2021-08-21T11:26:06Z</time>
      </trkpt>
      <trkpt lat="48.35578" lon="2.73182">
        <ele>138.4</ele>
        <time>2021-08-21T11:26:07Z</time>
      </trkpt>
      <trkpt lat="48.35578" lon="2.73184">
        <ele>138.4</ele>
        <time>2021-08-21T11:26:08Z</time>
      </trkpt>
      <trkpt lat="48.35577" lon="2.73185">
        <ele>138.4</ele>
        <time>2021-08-21T11:26:09Z</time>
      </trkpt>
      <trkpt lat="48.35577" lon="2.73187">
        <ele>138.4</ele>
        <time>2021-08-21T11:26:10Z</time>
      </trkpt>
      <trkpt lat="48.35576" lon="2.73188">
        <ele>138.4</ele>
        <time>2021-08-21T11:26:11Z</time>
      </trkpt>
      <trkpt lat="48.35575" lon="2.7319">
        <ele>138.4</ele>
        <time>2021-08-21T11:26:12Z</time>
      </trkpt>
      <trkpt lat="48.35575" lon="2.73192">
        <ele>138.4</ele>
        <time>2021-08-21T11:26:13Z</time>
      </trkpt>
      <trkpt lat="48.35574" lon="2.73193">
        <ele>138.4</ele>
        <time>2021-08-21T11:26:14Z</time>
      </trkpt>
      <trkpt lat="48.35574" lon="2.73195">
        <ele>138.4</ele>
        <time>2021-08-21T11:26:15Z</time>
      </trkpt>
      <trkpt lat="48.35574" lon="2.73197">
        <ele>138.4</ele>
        <time>2021-08-21T11:26:16Z</time>
      </trkpt>
      <trkpt lat="48.35573" lon="2.73198">
        <ele>138.4</ele>
        <time>2021-08-21T11:26:17Z</time>
      </trkpt>
      <trkpt lat="48.35573" lon="2.73199">
        <ele>138.3</ele>
        <time>2021-08-21T11:26:18Z</time>
      </trkpt>
      <trkpt lat="48.35572" lon="2.732">
        <ele>138.3</ele>
        <time>2021-08-21T11:26:19Z</time>
      </trkpt>
      <trkpt lat="48.35572" lon="2.732">
        <ele>138.3</ele>
        <time>2021-08-21T11:26:20Z</time>
      </trkpt>
      <trkpt lat="48.35572" lon="2.73201">
        <ele>138.3</ele>
        <time>2021-08-21T11:26:21Z</time>
      </trkpt>
      <trkpt lat="48.35572" lon="2.73201">
        <ele>138.3</ele>
        <time>2021-08-21T11:26:22Z</time>
      </trkpt>
      <trkpt lat="48.35572" lon="2.73202">
        <ele>138.3</ele>
        <time>2021-08-21T11:26:23Z</time>
      </trkpt>
      <trkpt lat="48.35572" lon="2.73202">
        <ele>138.3</ele>
        <time>2021-08-21T11:26:24Z</time>
      </trkpt>
      <trkpt lat="48.35571" lon="2.73203">
        <ele>138.3</ele>
        <time>2021-08-21T11:26:25Z</time>
      </trkpt>
      <trkpt lat="48.35571" lon="2.73205">
        <ele>138.3</ele>
        <time>2021-08-21T11:26:26Z</time>
      </trkpt>
      <trkpt lat="48.35571" lon="2.73205">
        <ele>138.2</ele>
        <time>2021-08-21T11:26:27Z</time>
      </trkpt>
      <trkpt lat="48.35571" lon="2.73206">
        <ele>138.2</ele>
        <time>2021-08-21T11:26:28Z</time>
      </trkpt>
      <trkpt lat="48.35571" lon="2.73207">
        <ele>138.2</ele>
        <time>2021-08-21T11:26:29Z</time>
      </trkpt>
      <trkpt lat="48.35571" lon="2.73208">
        <ele>138.2</ele>
        <time>2021-08-21T11:26:30Z</time>
      </trkpt>
      <trkpt lat="48.35571" lon="2.73209">
        <ele>138.2</ele>
        <time>2021-08-21T11:26:31Z</time>
      </trkpt>
      <trkpt lat="48.35571" lon="2.7321">
        <ele>138.2</ele>
        <time>2021-08-21T11:26:32Z</time>
      </trkpt>
      <trkpt lat="48.35571" lon="2.7321">
        <ele>138.2</ele>
        <time>2021-08-21T11:26:33Z</time>
      </trkpt>
      <trkpt lat="48.35571" lon="2.73211">
        <ele>138.2</ele>
        <time>2021-08-21T11:26:34Z</time>
      </trkpt>
      <trkpt lat="48.35571" lon="2.73212">
        <ele>138.2</ele>
        <time>2021-08-21T11:26:35Z</time>
      </trkpt>
      <trkpt lat="48.3557" lon="2.73212">
        <ele>138.2</ele>
        <time>2021-08-21T11:26:36Z</time>
      </trkpt>
      <trkpt lat="48.3557" lon="2.73212">
        <ele>138.2</ele>
        <time>2021-08-21T11:26:37Z</time>
      </trkpt>
      <trkpt lat="48.3557" lon="2.73213">
        <ele>138.2</ele>
        <time>2021-08-21T11:26:38Z</time>
      </trkpt>
      <trkpt lat="48.35569" lon="2.73214">
        <ele>138.1</ele>
        <time>2021-08-21T11:26:39Z</time>
      </trkpt>
      <trkpt lat="48.35569" lon="2.73214">
        <ele>138.1</ele>
        <time>2021-08-21T11:26:40Z</time>
      </trkpt>
      <trkpt lat="48.35569" lon="2.73215">
        <ele>138.1</ele>
        <time>2021-08-21T11:26:41Z</time>
      </trkpt>
      <trkpt lat="48.35569" lon="2.73216">
        <ele>138.1</ele>
        <time>2021-08-21T11:26:42Z</time>
      </trkpt>
      <trkpt lat="48.35569" lon="2.73217">
        <ele>138.1</ele>
        <time>2021-08-21T11:26:43Z</time>
      </trkpt>
      <trkpt lat="48.35568" lon="2.73218">
        <ele>138.1</ele>
        <time>2021-08-21T11:26:44Z</time>
      </trkpt>
      <trkpt lat="48.35568" lon="2.73219">
        <ele>138</ele>
        <time>2021-08-21T11:26:45Z</time>
      </trkpt>
      <trkpt lat="48.35568" lon="2.7322">
        <ele>138</ele>
        <time>2021-08-21T11:26:46Z</time>
      </trkpt>
      <trkpt lat="48.35567" lon="2.73221">
        <ele>138</ele>
        <time>2021-08-21T11:26:47Z</time>
      </trkpt>
      <trkpt lat="48.35567" lon="2.73223">
        <ele>138</ele>
        <time>2021-08-21T11:26:48Z</time>
      </trkpt>
      <trkpt lat="48.35566" lon="2.73224">
        <ele>137.9</ele>
        <time>2021-08-21T11:26:49Z</time>
      </trkpt>
      <trkpt lat="48.35566" lon="2.73225">
        <ele>137.9</ele>
        <time>2021-08-21T11:26:50Z</time>
      </trkpt>
      <trkpt lat="48.35566" lon="2.73226">
        <ele>137.9</ele>
        <time>2021-08-21T11:26:51Z</time>
      </trkpt>
      <trkpt lat="48.35565" lon="2.73227">
        <ele>137.9</ele>
        <time>2021-08-21T11:26:52Z</time>
      </trkpt>
      <trkpt lat="48.35565" lon="2.73228">
        <ele>137.9</ele>
        <time>2021-08-21T11:26:53Z</time>
      </trkpt>
      <trkpt lat="48.35564" lon="2.7323">
        <ele>137.8</ele>
        <time>2021-08-21T11:26:54Z</time>
      </trkpt>
      <trkpt lat="48.35564" lon="2.73231">
        <ele>137.8</ele>
        <time>2021-08-21T11:26:55Z</time>
      </trkpt>
      <trkpt lat="48.35563" lon="2.73233">
        <ele>137.8</ele>
        <time>2021-08-21T11:26:56Z</time>
      </trkpt>
      <trkpt lat="48.35562" lon="2.73234">
        <ele>137.7</ele>
        <time>2021-08-21T11:26:57Z</time>
      </trkpt>
      <trkpt lat="48.35562" lon="2.73236">
        <ele>137.7</ele>
        <time>2021-08-21T11:26:58Z</time>
      </trkpt>
      <trkpt lat="48.35561" lon="2.73237">
        <ele>137.7</ele>
        <time>2021-08-21T11:26:59Z</time>
      </trkpt>
      <trkpt lat="48.3556" lon="2.73238">
        <ele>137.6</ele>
        <time>2021-08-21T11:27:00Z</time>
      </trkpt>
      <trkpt lat="48.3556" lon="2.73239">
        <ele>137.6</ele>
        <time>2021-08-21T11:27:01Z</time>
      </trkpt>
      <trkpt lat="48.35559" lon="2.7324">
        <ele>137.6</ele>
        <time>2021-08-21T11:27:02Z</time>
      </trkpt>
      <trkpt lat="48.35558" lon="2.73241">
        <ele>137.6</ele>
        <time>2021-08-21T11:27:03Z</time>
      </trkpt>
      <trkpt lat="48.35558" lon="2.73242">
        <ele>137.5</ele>
        <time>2021-08-21T11:27:04Z</time>
      </trkpt>
      <trkpt lat="48.35557" lon="2.73243">
        <ele>137.5</ele>
        <time>2021-08-21T11:27:05Z</time>
      </trkpt>
      <trkpt lat="48.35557" lon="2.73244">
        <ele>137.5</ele>
        <time>2021-08-21T11:27:06Z</time>
      </trkpt>
      <trkpt lat="48.35556" lon="2.73245">
        <ele>137.5</ele>
        <time>2021-08-21T11:27:07Z</time>
      </trkpt>
      <trkpt lat="48.35555" lon="2.73246">
        <ele>137.5</ele>
        <time>2021-08-21T11:27:08Z</time>
      </trkpt>
      <trkpt lat="48.35555" lon="2.73247">
        <ele>137.4</ele>
        <time>2021-08-21T11:27:09Z</time>
      </trkpt>
      <trkpt lat="48.35554" lon="2.73248">
        <ele>137.4</ele>
        <time>2021-08-21T11:27:10Z</time>
      </trkpt>
      <trkpt lat="48.35553" lon="2.73249">
        <ele>137.4</ele>
        <time>2021-08-21T11:27:11Z</time>
      </trkpt>
      <trkpt lat="48.35552" lon="2.7325">
        <ele>137.4</ele>
        <time>2021-08-21T11:27:12Z</time>
      </trkpt>
      <trkpt lat="48.35551" lon="2.73251">
        <ele>137.3</ele>
        <time>2021-08-21T11:27:13Z</time>
      </trkpt>
      <trkpt lat="48.35551" lon="2.73251">
        <ele>137.3</ele>
        <time>2021-08-21T11:27:14Z</time>
      </trkpt>
      <trkpt lat="48.3555" lon="2.73252">
        <ele>137.3</ele>
        <time>2021-08-21T11:27:15Z</time>
      </trkpt>
      <trkpt lat="48.35549" lon="2.73254">
        <ele>137.3</ele>
        <time>2021-08-21T11:27:16Z</time>
      </trkpt>
      <trkpt lat="48.35549" lon="2.73254">
        <ele>137.3</ele>
        <time>2021-08-21T11:27:17Z</time>
      </trkpt>
      <trkpt lat="48.35548" lon="2.73254">
        <ele>137.3</ele>
        <time>2021-08-21T11:27:18Z</time>
      </trkpt>
      <trkpt lat="48.35549" lon="2.73254">
        <ele>137.3</ele>
        <time>2021-08-21T11:27:19Z</time>
      </trkpt>
      <trkpt lat="48.35549" lon="2.73254">
        <ele>137.3</ele>
        <time>2021-08-21T11:27:20Z</time>
      </trkpt>
      <trkpt lat="48.35549" lon="2.73254">
        <ele>137.3</ele>
        <time>2021-08-21T11:27:21Z</time>
      </trkpt>
      <trkpt lat="48.35549" lon="2.73254">
        <ele>137.3</ele>
        <time>2021-08-21T11:27:22Z</time>
      </trkpt>
      <trkpt lat="48.35548" lon="2.73254">
        <ele>137.3</ele>
        <time>2021-08-21T11:27:23Z</time>
      </trkpt>
      <trkpt lat="48.35548" lon="2.73254">
        <ele>137.3</ele>
        <time>2021-08-21T11:27:24Z</time>
      </trkpt>
      <trkpt lat="48.35548" lon="2.73253">
        <ele>137.3</ele>
        <time>2021-08-21T11:27:25Z</time>
      </trkpt>
      <trkpt lat="48.35549" lon="2.73253">
        <ele>137.3</ele>
        <time>2021-08-21T11:27:26Z</time>
      </trkpt>
      <trkpt lat="48.35549" lon="2.73253">
        <ele>137.3</ele>
        <time>2021-08-21T11:27:27Z</time>
      </trkpt>
      <trkpt lat="48.35549" lon="2.73253">
        <ele>137.3</ele>
        <time>2021-08-21T11:27:28Z</time>
      </trkpt>
      <trkpt lat="48.35549" lon="2.73253">
        <ele>137.3</ele>
        <time>2021-08-21T11:27:29Z</time>
      </trkpt>
      <trkpt lat="48.35549" lon="2.73253">
        <ele>137.3</ele>
        <time>2021-08-21T11:27:30Z</time>
      </trkpt>
      <trkpt lat="48.35549" lon="2.73253">
        <ele>137.3</ele>
        <time>2021-08-21T11:27:31Z</time>
      </trkpt>
      <trkpt lat="48.35549" lon="2.73253">
        <ele>137.3</ele>
        <time>2021-08-21T11:27:32Z</time>
      </trkpt>
      <trkpt lat="48.35549" lon="2.73253">
        <ele>137.3</ele>
        <time>2021-08-21T11:27:33Z</time>
      </trkpt>
      <trkpt lat="48.35548" lon="2.73253">
        <ele>137.3</ele>
        <time>2021-08-21T11:27:34Z</time>
      </trkpt>
      <trkpt lat="48.35548" lon="2.73253">
        <ele>137.3</ele>
        <time>2021-08-21T11:27:35Z</time>
      </trkpt>
      <trkpt lat="48.35548" lon="2.73254">
        <ele>137.3</ele>
        <time>2021-08-21T11:27:36Z</time>
      </trkpt>
      <trkpt lat="48.35548" lon="2.73254">
        <ele>137.3</ele>
        <time>2021-08-21T11:27:37Z</time>
      </trkpt>
      <trkpt lat="48.35548" lon="2.73253">
        <ele>137.3</ele>
        <time>2021-08-21T11:27:38Z</time>
      </trkpt>
      <trkpt lat="48.35548" lon="2.73254">
        <ele>137.3</ele>
        <time>2021-08-21T11:27:39Z</time>
      </trkpt>
      <trkpt lat="48.35548" lon="2.73254">
        <ele>137.3</ele>
        <time>2021-08-21T11:27:40Z</time>
      </trkpt>
      <trkpt lat="48.35548" lon="2.73254">
        <ele>137.3</ele>
        <time>2021-08-21T11:27:41Z</time>
      </trkpt>
      <trkpt lat="48.35548" lon="2.73255">
        <ele>137.3</ele>
        <time>2021-08-21T11:27:42Z</time>
      </trkpt>
      <trkpt lat="48.35548" lon="2.73255">
        <ele>137.3</ele>
        <time>2021-08-21T11:27:43Z</time>
      </trkpt>
      <trkpt lat="48.35548" lon="2.73256">
        <ele>137.3</ele>
        <time>2021-08-21T11:27:44Z</time>
      </trkpt>
      <trkpt lat="48.35548" lon="2.73257">
        <ele>137.3</ele>
        <time>2021-08-21T11:27:45Z</time>
      </trkpt>
      <trkpt lat="48.35547" lon="2.73257">
        <ele>137.3</ele>
        <time>2021-08-21T11:27:46Z</time>
      </trkpt>
      <trkpt lat="48.35547" lon="2.73258">
        <ele>137.3</ele>
        <time>2021-08-21T11:27:47Z</time>
      </trkpt>
      <trkpt lat="48.35547" lon="2.73259">
        <ele>137.3</ele>
        <time>2021-08-21T11:27:48Z</time>
      </trkpt>
      <trkpt lat="48.35547" lon="2.7326">
        <ele>137.3</ele>
        <time>2021-08-21T11:27:49Z</time>
      </trkpt>
      <trkpt lat="48.35547" lon="2.73262">
        <ele>137.3</ele>
        <time>2021-08-21T11:27:50Z</time>
      </trkpt>
      <trkpt lat="48.35547" lon="2.73263">
        <ele>137.3</ele>
        <time>2021-08-21T11:27:51Z</time>
      </trkpt>
      <trkpt lat="48.35548" lon="2.73264">
        <ele>137.3</ele>
        <time>2021-08-21T11:27:52Z</time>
      </trkpt>
      <trkpt lat="48.35548" lon="2.73265">
        <ele>137.4</ele>
        <time>2021-08-21T11:27:53Z</time>
      </trkpt>
      <trkpt lat="48.35548" lon="2.73266">
        <ele>137.4</ele>
        <time>2021-08-21T11:27:54Z</time>
      </trkpt>
      <trkpt lat="48.35549" lon="2.73267">
        <ele>137.4</ele>
        <time>2021-08-21T11:27:55Z</time>
      </trkpt>
      <trkpt lat="48.35549" lon="2.73269">
        <ele>137.4</ele>
        <time>2021-08-21T11:27:56Z</time>
      </trkpt>
      <trkpt lat="48.3555" lon="2.7327">
        <ele>137.4</ele>
        <time>2021-08-21T11:27:57Z</time>
      </trkpt>
      <trkpt lat="48.35551" lon="2.73272">
        <ele>137.4</ele>
        <time>2021-08-21T11:27:58Z</time>
      </trkpt>
      <trkpt lat="48.35552" lon="2.73273">
        <ele>137.4</ele>
        <time>2021-08-21T11:27:59Z</time>
      </trkpt>
      <trkpt lat="48.35553" lon="2.73273">
        <ele>137.4</ele>
        <time>2021-08-21T11:28:00Z</time>
      </trkpt>
      <trkpt lat="48.35554" lon="2.73274">
        <ele>137.4</ele>
        <time>2021-08-21T11:28:01Z</time>
      </trkpt>
      <trkpt lat="48.35555" lon="2.73276">
        <ele>137.5</ele>
        <time>2021-08-21T11:28:02Z</time>
      </trkpt>
      <trkpt lat="48.35556" lon="2.73277">
        <ele>137.5</ele>
        <time>2021-08-21T11:28:03Z</time>
      </trkpt>
      <trkpt lat="48.35557" lon="2.73278">
        <ele>137.5</ele>
        <time>2021-08-21T11:28:04Z</time>
      </trkpt>
      <trkpt lat="48.35558" lon="2.73279">
        <ele>137.5</ele>
        <time>2021-08-21T11:28:05Z</time>
      </trkpt>
      <trkpt lat="48.35558" lon="2.7328">
        <ele>137.5</ele>
        <time>2021-08-21T11:28:06Z</time>
      </trkpt>
      <trkpt lat="48.35559" lon="2.73282">
        <ele>137.5</ele>
        <time>2021-08-21T11:28:07Z</time>
      </trkpt>
      <trkpt lat="48.3556" lon="2.73283">
        <ele>137.6</ele>
        <time>2021-08-21T11:28:08Z</time>
      </trkpt>
      <trkpt lat="48.3556" lon="2.73285">
        <ele>137.6</ele>
        <time>2021-08-21T11:28:09Z</time>
      </trkpt>
      <trkpt lat="48.35561" lon="2.73286">
        <ele>137.6</ele>
        <time>2021-08-21T11:28:10Z</time>
      </trkpt>
      <trkpt lat="48.35561" lon="2.73288">
        <ele>137.6</ele>
        <time>2021-08-21T11:28:11Z</time>
      </trkpt>
      <trkpt lat="48.35562" lon="2.7329">
        <ele>137.6</ele>
        <time>2021-08-21T11:28:12Z</time>
      </trkpt>
      <trkpt lat="48.35562" lon="2.73291">
        <ele>137.6</ele>
        <time>2021-08-21T11:28:13Z</time>
      </trkpt>
      <trkpt lat="48.35562" lon="2.73292">
        <ele>137.7</ele>
        <time>2021-08-21T11:28:14Z</time>
      </trkpt>
      <trkpt lat="48.35562" lon="2.73294">
        <ele>137.7</ele>
        <time>2021-08-21T11:28:15Z</time>
      </trkpt>
      <trkpt lat="48.35562" lon="2.73295">
        <ele>137.7</ele>
        <time>2021-08-21T11:28:16Z</time>
      </trkpt>
      <trkpt lat="48.35563" lon="2.73296">
        <ele>137.7</ele>
        <time>2021-08-21T11:28:17Z</time>
      </trkpt>
      <trkpt lat="48.35563" lon="2.73297">
        <ele>137.7</ele>
        <time>2021-08-21T11:28:18Z</time>
      </trkpt>
      <trkpt lat="48.35563" lon="2.73299">
        <ele>137.7</ele>
        <time>2021-08-21T11:28:19Z</time>
      </trkpt>
      <trkpt lat="48.35563" lon="2.733">
        <ele>137.7</ele>
        <time>2021-08-21T11:28:20Z</time>
      </trkpt>
      <trkpt lat="48.35563" lon="2.73301">
        <ele>137.8</ele>
        <time>2021-08-21T11:28:21Z</time>
      </trkpt>
      <trkpt lat="48.35563" lon="2.73302">
        <ele>137.8</ele>
        <time>2021-08-21T11:28:22Z</time>
      </trkpt>
      <trkpt lat="48.35563" lon="2.73303">
        <ele>137.8</ele>
        <time>2021-08-21T11:28:23Z</time>
      </trkpt>
      <trkpt lat="48.35563" lon="2.73304">
        <ele>137.8</ele>
        <time>2021-08-21T11:28:24Z</time>
      </trkpt>
      <trkpt lat="48.35563" lon="2.73306">
        <ele>137.8</ele>
        <time>2021-08-21T11:28:25Z</time>
      </trkpt>
      <trkpt lat="48.35563" lon="2.73307">
        <ele>137.8</ele>
        <time>2021-08-21T11:28:26Z</time>
      </trkpt>
      <trkpt lat="48.35563" lon="2.73308">
        <ele>137.8</ele>
        <time>2021-08-21T11:28:27Z</time>
      </trkpt>
      <trkpt lat="48.35563" lon="2.73309">
        <ele>137.9</ele>
        <time>2021-08-21T11:28:28Z</time>
      </trkpt>
      <trkpt lat="48.35563" lon="2.73311">
        <ele>137.9</ele>
        <time>2021-08-21T11:28:29Z</time>
      </trkpt>
      <trkpt lat="48.35563" lon="2.73312">
        <ele>137.9</ele>
        <time>2021-08-21T11:28:30Z</time>
      </trkpt>
      <trkpt lat="48.35563" lon="2.73314">
        <ele>137.9</ele>
        <time>2021-08-21T11:28:31Z</time>
      </trkpt>
      <trkpt lat="48.35563" lon="2.73315">
        <ele>137.9</ele>
        <time>2021-08-21T11:28:32Z</time>
      </trkpt>
      <trkpt lat="48.35563" lon="2.73317">
        <ele>138</ele>
        <time>2021-08-21T11:28:33Z</time>
      </trkpt>
      <trkpt lat="48.35563" lon="2.73318">
        <ele>138</ele>
        <time>2021-08-21T11:28:34Z</time>
      </trkpt>
      <trkpt lat="48.35563" lon="2.7332">
        <ele>138</ele>
        <time>2021-08-21T11:28:35Z</time>
      </trkpt>
      <trkpt lat="48.35562" lon="2.73322">
        <ele>138</ele>
        <time>2021-08-21T11:28:36Z</time>
      </trkpt>
      <trkpt lat="48.35562" lon="2.73324">
        <ele>138</ele>
        <time>2021-08-21T11:28:37Z</time>
      </trkpt>
      <trkpt lat="48.35562" lon="2.73325">
        <ele>138.1</ele>
        <time>2021-08-21T11:28:38Z</time>
      </trkpt>
      <trkpt lat="48.35561" lon="2.73327">
        <ele>138.1</ele>
        <time>2021-08-21T11:28:39Z</time>
      </trkpt>
      <trkpt lat="48.35561" lon="2.73328">
        <ele>138.1</ele>
        <time>2021-08-21T11:28:40Z</time>
      </trkpt>
      <trkpt lat="48.35561" lon="2.7333">
        <ele>138.1</ele>
        <time>2021-08-21T11:28:41Z</time>
      </trkpt>
      <trkpt lat="48.3556" lon="2.73331">
        <ele>138.1</ele>
        <time>2021-08-21T11:28:42Z</time>
      </trkpt>
      <trkpt lat="48.3556" lon="2.73332">
        <ele>138.1</ele>
        <time>2021-08-21T11:28:43Z</time>
      </trkpt>
      <trkpt lat="48.35559" lon="2.73332">
        <ele>138.2</ele>
        <time>2021-08-21T11:28:44Z</time>
      </trkpt>
      <trkpt lat="48.35558" lon="2.73333">
        <ele>138.2</ele>
        <time>2021-08-21T11:28:45Z</time>
      </trkpt>
      <trkpt lat="48.35557" lon="2.73334">
        <ele>138.2</ele>
        <time>2021-08-21T11:28:46Z</time>
      </trkpt>
      <trkpt lat="48.35556" lon="2.73335">
        <ele>138.2</ele>
        <time>2021-08-21T11:28:47Z</time>
      </trkpt>
      <trkpt lat="48.35555" lon="2.73336">
        <ele>138.2</ele>
        <time>2021-08-21T11:28:48Z</time>
      </trkpt>
      <trkpt lat="48.35554" lon="2.73336">
        <ele>138.3</ele>
        <time>2021-08-21T11:28:49Z</time>
      </trkpt>
      <trkpt lat="48.35553" lon="2.73337">
        <ele>138.3</ele>
        <time>2021-08-21T11:28:50Z</time>
      </trkpt>
      <trkpt lat="48.35552" lon="2.73337">
        <ele>138.3</ele>
        <time>2021-08-21T11:28:51Z</time>
      </trkpt>
      <trkpt lat="48.35551" lon="2.73338">
        <ele>138.3</ele>
        <time>2021-08-21T11:28:52Z</time>
      </trkpt>
      <trkpt lat="48.3555" lon="2.73338">
        <ele>138.3</ele>
        <time>2021-08-21T11:28:53Z</time>
      </trkpt>
      <trkpt lat="48.35549" lon="2.73338">
        <ele>138.3</ele>
        <time>2021-08-21T11:28:54Z</time>
      </trkpt>
      <trkpt lat="48.35548" lon="2.73338">
        <ele>138.4</ele>
        <time>2021-08-21T11:28:55Z</time>
      </trkpt>
      <trkpt lat="48.35547" lon="2.73338">
        <ele>138.4</ele>
        <time>2021-08-21T11:28:56Z</time>
      </trkpt>
      <trkpt lat="48.35546" lon="2.73339">
        <ele>138.4</ele>
        <time>2021-08-21T11:28:57Z</time>
      </trkpt>
      <trkpt lat="48.35545" lon="2.73339">
        <ele>138.4</ele>
        <time>2021-08-21T11:28:58Z</time>
      </trkpt>
      <trkpt lat="48.35544" lon="2.73339">
        <ele>138.4</ele>
        <time>2021-08-21T11:28:59Z</time>
      </trkpt>
      <trkpt lat="48.35543" lon="2.73339">
        <ele>138.4</ele>
        <time>2021-08-21T11:29:00Z</time>
      </trkpt>
      <trkpt lat="48.35542" lon="2.7334">
        <ele>138.5</ele>
        <time>2021-08-21T11:29:01Z</time>
      </trkpt>
      <trkpt lat="48.35541" lon="2.7334">
        <ele>138.5</ele>
        <time>2021-08-21T11:29:02Z</time>
      </trkpt>
      <trkpt lat="48.35541" lon="2.73341">
        <ele>138.5</ele>
        <time>2021-08-21T11:29:03Z</time>
      </trkpt>
      <trkpt lat="48.3554" lon="2.73342">
        <ele>138.5</ele>
        <time>2021-08-21T11:29:04Z</time>
      </trkpt>
      <trkpt lat="48.35539" lon="2.73343">
        <ele>138.5</ele>
        <time>2021-08-21T11:29:05Z</time>
      </trkpt>
      <trkpt lat="48.35538" lon="2.73344">
        <ele>138.5</ele>
        <time>2021-08-21T11:29:06Z</time>
      </trkpt>
      <trkpt lat="48.35538" lon="2.73344">
        <ele>138.5</ele>
        <time>2021-08-21T11:29:07Z</time>
      </trkpt>
      <trkpt lat="48.35537" lon="2.73345">
        <ele>138.6</ele>
        <time>2021-08-21T11:29:08Z</time>
      </trkpt>
      <trkpt lat="48.35536" lon="2.73346">
        <ele>138.6</ele>
        <time>2021-08-21T11:29:09Z</time>
      </trkpt>
      <trkpt lat="48.35536" lon="2.73347">
        <ele>138.6</ele>
        <time>2021-08-21T11:29:10Z</time>
      </trkpt>
      <trkpt lat="48.35535" lon="2.73348">
        <ele>138.6</ele>
        <time>2021-08-21T11:29:11Z</time>
      </trkpt>
      <trkpt lat="48.35535" lon="2.73349">
        <ele>138.6</ele>
        <time>2021-08-21T11:29:12Z</time>
      </trkpt>
      <trkpt lat="48.35535" lon="2.73351">
        <ele>138.6</ele>
        <time>2021-08-21T11:29:13Z</time>
      </trkpt>
      <trkpt lat="48.35534" lon="2.73352">
        <ele>138.7</ele>
        <time>2021-08-21T11:29:14Z</time>
      </trkpt>
      <trkpt lat="48.35534" lon="2.73354">
        <ele>138.7</ele>
        <time>2021-08-21T11:29:15Z</time>
      </trkpt>
      <trkpt lat="48.35535" lon="2.73355">
        <ele>138.7</ele>
        <time>2021-08-21T11:29:16Z</time>
      </trkpt>
      <trkpt lat="48.35535" lon="2.73356">
        <ele>138.7</ele>
        <time>2021-08-21T11:29:17Z</time>
      </trkpt>
      <trkpt lat="48.35535" lon="2.73358">
        <ele>138.7</ele>
        <time>2021-08-21T11:29:18Z</time>
      </trkpt>
      <trkpt lat="48.35536" lon="2.73359">
        <ele>138.7</ele>
        <time>2021-08-21T11:29:19Z</time>
      </trkpt>
      <trkpt lat="48.35536" lon="2.73361">
        <ele>138.8</ele>
        <time>2021-08-21T11:29:20Z</time>
      </trkpt>
      <trkpt lat="48.35537" lon="2.73362">
        <ele>138.8</ele>
        <time>2021-08-21T11:29:21Z</time>
      </trkpt>
      <trkpt lat="48.35537" lon="2.73364">
        <ele>138.8</ele>
        <time>2021-08-21T11:29:22Z</time>
      </trkpt>
      <trkpt lat="48.35538" lon="2.73366">
        <ele>138.8</ele>
        <time>2021-08-21T11:29:23Z</time>
      </trkpt>
      <trkpt lat="48.35539" lon="2.73367">
        <ele>138.8</ele>
        <time>2021-08-21T11:29:24Z</time>
      </trkpt>
      <trkpt lat="48.35539" lon="2.73368">
        <ele>138.8</ele>
        <time>2021-08-21T11:29:25Z</time>
      </trkpt>
      <trkpt lat="48.3554" lon="2.73369">
        <ele>138.8</ele>
        <time>2021-08-21T11:29:26Z</time>
      </trkpt>
      <trkpt lat="48.35541" lon="2.73371">
        <ele>138.9</ele>
        <time>2021-08-21T11:29:27Z</time>
      </trkpt>
      <trkpt lat="48.35542" lon="2.73372">
        <ele>138.9</ele>
        <time>2021-08-21T11:29:28Z</time>
      </trkpt>
      <trkpt lat="48.35543" lon="2.73373">
        <ele>138.9</ele>
        <time>2021-08-21T11:29:29Z</time>
      </trkpt>
      <trkpt lat="48.35544" lon="2.73373">
        <ele>138.9</ele>
        <time>2021-08-21T11:29:30Z</time>
      </trkpt>
      <trkpt lat="48.35545" lon="2.73374">
        <ele>138.9</ele>
        <time>2021-08-21T11:29:31Z</time>
      </trkpt>
      <trkpt lat="48.35546" lon="2.73375">
        <ele>138.9</ele>
        <time>2021-08-21T11:29:32Z</time>
      </trkpt>
      <trkpt lat="48.35547" lon="2.73376">
        <ele>138.9</ele>
        <time>2021-08-21T11:29:33Z</time>
      </trkpt>
      <trkpt lat="48.35548" lon="2.73376">
        <ele>138.9</ele>
        <time>2021-08-21T11:29:34Z</time>
      </trkpt>
      <trkpt lat="48.35549" lon="2.73377">
        <ele>138.9</ele>
        <time>2021-08-21T11:29:35Z</time>
      </trkpt>
      <trkpt lat="48.3555" lon="2.73377">
        <ele>138.9</ele>
        <time>2021-08-21T11:29:36Z</time>
      </trkpt>
      <trkpt lat="48.35551" lon="2.73378">
        <ele>138.9</ele>
        <time>2021-08-21T11:29:37Z</time>
      </trkpt>
      <trkpt lat="48.35552" lon="2.73378">
        <ele>138.9</ele>
        <time>2021-08-21T11:29:38Z</time>
      </trkpt>
      <trkpt lat="48.35553" lon="2.73379">
        <ele>138.9</ele>
        <time>2021-08-21T11:29:39Z</time>
      </trkpt>
      <trkpt lat="48.35554" lon="2.73379">
        <ele>138.9</ele>
        <time>2021-08-21T11:29:40Z</time>
      </trkpt>
      <trkpt lat="48.35555" lon="2.7338">
        <ele>138.9</ele>
        <time>2021-08-21T11:29:41Z</time>
      </trkpt>
      <trkpt lat="48.35557" lon="2.7338">
        <ele>138.9</ele>
        <time>2021-08-21T11:29:42Z</time>
      </trkpt>
      <trkpt lat="48.35558" lon="2.73381">
        <ele>138.9</ele>
        <time>2021-08-21T11:29:43Z</time>
      </trkpt>
      <trkpt lat="48.35559" lon="2.73381">
        <ele>138.9</ele>
        <time>2021-08-21T11:29:44Z</time>
      </trkpt>
      <trkpt lat="48.35559" lon="2.73382">
        <ele>138.8</ele>
        <time>2021-08-21T11:29:45Z</time>
      </trkpt>
      <trkpt lat="48.3556" lon="2.73382">
        <ele>138.8</ele>
        <time>2021-08-21T11:29:46Z</time>
      </trkpt>
      <trkpt lat="48.35561" lon="2.73383">
        <ele>138.8</ele>
        <time>2021-08-21T11:29:47Z</time>
      </trkpt>
      <trkpt lat="48.35562" lon="2.73383">
        <ele>138.8</ele>
        <time>2021-08-21T11:29:48Z</time>
      </trkpt>
      <trkpt lat="48.35563" lon="2.73384">
        <ele>138.8</ele>
        <time>2021-08-21T11:29:49Z</time>
      </trkpt>
      <trkpt lat="48.35564" lon="2.73385">
        <ele>138.8</ele>
        <time>2021-08-21T11:29:50Z</time>
      </trkpt>
      <trkpt lat="48.35564" lon="2.73385">
        <ele>138.7</ele>
        <time>2021-08-21T11:29:51Z</time>
      </trkpt>
      <trkpt lat="48.35565" lon="2.73386">
        <ele>138.7</ele>
        <time>2021-08-21T11:29:52Z</time>
      </trkpt>
      <trkpt lat="48.35566" lon="2.73387">
        <ele>138.7</ele>
        <time>2021-08-21T11:29:53Z</time>
      </trkpt>
      <trkpt lat="48.35567" lon="2.73387">
        <ele>138.7</ele>
        <time>2021-08-21T11:29:54Z</time>
      </trkpt>
      <trkpt lat="48.35568" lon="2.73387">
        <ele>138.7</ele>
        <time>2021-08-21T11:29:55Z</time>
      </trkpt>
      <trkpt lat="48.35569" lon="2.73387">
        <ele>138.6</ele>
        <time>2021-08-21T11:29:56Z</time>
      </trkpt>
      <trkpt lat="48.3557" lon="2.73387">
        <ele>138.6</ele>
        <time>2021-08-21T11:29:57Z</time>
      </trkpt>
      <trkpt lat="48.35571" lon="2.73387">
        <ele>138.6</ele>
        <time>2021-08-21T11:29:58Z</time>
      </trkpt>
      <trkpt lat="48.35572" lon="2.73387">
        <ele>138.5</ele>
        <time>2021-08-21T11:29:59Z</time>
      </trkpt>
      <trkpt lat="48.35573" lon="2.73387">
        <ele>138.5</ele>
        <time>2021-08-21T11:30:00Z</time>
      </trkpt>
      <trkpt lat="48.35574" lon="2.73387">
        <ele>138.5</ele>
        <time>2021-08-21T11:30:01Z</time>
      </trkpt>
      <trkpt lat="48.35575" lon="2.73387">
        <ele>138.4</ele>
        <time>2021-08-21T11:30:02Z</time>
      </trkpt>
      <trkpt lat="48.35576" lon="2.73387">
        <ele>138.4</ele>
        <time>2021-08-21T11:30:03Z</time>
      </trkpt>
      <trkpt lat="48.35577" lon="2.73387">
        <ele>138.3</ele>
        <time>2021-08-21T11:30:04Z</time>
      </trkpt>
      <trkpt lat="48.35578" lon="2.73386">
        <ele>138.3</ele>
        <time>2021-08-21T11:30:05Z</time>
      </trkpt>
      <trkpt lat="48.35579" lon="2.73386">
        <ele>138.2</ele>
        <time>2021-08-21T11:30:06Z</time>
      </trkpt>
      <trkpt lat="48.3558" lon="2.73387">
        <ele>138.2</ele>
        <time>2021-08-21T11:30:07Z</time>
      </trkpt>
      <trkpt lat="48.35581" lon="2.73387">
        <ele>138.1</ele>
        <time>2021-08-21T11:30:08Z</time>
      </trkpt>
      <trkpt lat="48.35582" lon="2.73388">
        <ele>138</ele>
        <time>2021-08-21T11:30:09Z</time>
      </trkpt>
      <trkpt lat="48.35583" lon="2.73388">
        <ele>138</ele>
        <time>2021-08-21T11:30:10Z</time>
      </trkpt>
      <trkpt lat="48.35584" lon="2.73388">
        <ele>137.9</ele>
        <time>2021-08-21T11:30:11Z</time>
      </trkpt>
      <trkpt lat="48.35585" lon="2.73388">
        <ele>137.8</ele>
        <time>2021-08-21T11:30:12Z</time>
      </trkpt>
      <trkpt lat="48.35586" lon="2.73388">
        <ele>137.7</ele>
        <time>2021-08-21T11:30:13Z</time>
      </trkpt>
      <trkpt lat="48.35586" lon="2.73388">
        <ele>137.7</ele>
        <time>2021-08-21T11:30:14Z</time>
      </trkpt>
      <trkpt lat="48.35587" lon="2.73388">
        <ele>137.6</ele>
        <time>2021-08-21T11:30:15Z</time>
      </trkpt>
      <trkpt lat="48.35587" lon="2.73388">
        <ele>137.5</ele>
        <time>2021-08-21T11:30:16Z</time>
      </trkpt>
      <trkpt lat="48.35588" lon="2.73388">
        <ele>137.5</ele>
        <time>2021-08-21T11:30:17Z</time>
      </trkpt>
      <trkpt lat="48.35588" lon="2.73388">
        <ele>137.5</ele>
        <time>2021-08-21T11:30:18Z</time>
      </trkpt>
      <trkpt lat="48.35589" lon="2.73388">
        <ele>137.4</ele>
        <time>2021-08-21T11:30:19Z</time>
      </trkpt>
      <trkpt lat="48.35589" lon="2.73388">
        <ele>137.4</ele>
        <time>2021-08-21T11:30:20Z</time>
      </trkpt>
      <trkpt lat="48.35589" lon="2.73389">
        <ele>137.3</ele>
        <time>2021-08-21T11:30:21Z</time>
      </trkpt>
      <trkpt lat="48.3559" lon="2.73389">
        <ele>137.2</ele>
        <time>2021-08-21T11:30:22Z</time>
      </trkpt>
      <trkpt lat="48.35591" lon="2.73389">
        <ele>137.2</ele>
        <time>2021-08-21T11:30:23Z</time>
      </trkpt>
      <trkpt lat="48.35592" lon="2.73388">
        <ele>137</ele>
        <time>2021-08-21T11:30:24Z</time>
      </trkpt>
      <trkpt lat="48.35592" lon="2.73387">
        <ele>137</ele>
        <time>2021-08-21T11:30:25Z</time>
      </trkpt>
      <trkpt lat="48.35592" lon="2.73386">
        <ele>136.9</ele>
        <time>2021-08-21T11:30:26Z</time>
      </trkpt>
      <trkpt lat="48.35593" lon="2.73386">
        <ele>136.8</ele>
        <time>2021-08-21T11:30:27Z</time>
      </trkpt>
      <trkpt lat="48.35594" lon="2.73385">
        <ele>136.7</ele>
        <time>2021-08-21T11:30:28Z</time>
      </trkpt>
      <trkpt lat="48.35594" lon="2.73384">
        <ele>136.6</ele>
        <time>2021-08-21T11:30:29Z</time>
      </trkpt>
      <trkpt lat="48.35595" lon="2.73384">
        <ele>136.4</ele>
        <time>2021-08-21T11:30:30Z</time>
      </trkpt>
      <trkpt lat="48.35596" lon="2.73384">
        <ele>136.4</ele>
        <time>2021-08-21T11:30:31Z</time>
      </trkpt>
      <trkpt lat="48.35596" lon="2.73384">
        <ele>136.3</ele>
        <time>2021-08-21T11:30:32Z</time>
      </trkpt>
      <trkpt lat="48.35597" lon="2.73384">
        <ele>136.2</ele>
        <time>2021-08-21T11:30:33Z</time>
      </trkpt>
      <trkpt lat="48.35597" lon="2.73384">
        <ele>136.1</ele>
        <time>2021-08-21T11:30:34Z</time>
      </trkpt>
      <trkpt lat="48.35598" lon="2.73384">
        <ele>136</ele>
        <time>2021-08-21T11:30:35Z</time>
      </trkpt>
      <trkpt lat="48.35598" lon="2.73384">
        <ele>136</ele>
        <time>2021-08-21T11:30:36Z</time>
      </trkpt>
      <trkpt lat="48.35599" lon="2.73384">
        <ele>135.8</ele>
        <time>2021-08-21T11:30:37Z</time>
      </trkpt>
      <trkpt lat="48.356" lon="2.73384">
        <ele>135.7</ele>
        <time>2021-08-21T11:30:38Z</time>
      </trkpt>
      <trkpt lat="48.35601" lon="2.73384">
        <ele>135.5</ele>
        <time>2021-08-21T11:30:39Z</time>
      </trkpt>
      <trkpt lat="48.35601" lon="2.73384">
        <ele>135.4</ele>
        <time>2021-08-21T11:30:40Z</time>
      </trkpt>
      <trkpt lat="48.35602" lon="2.73384">
        <ele>135.3</ele>
        <time>2021-08-21T11:30:41Z</time>
      </trkpt>
      <trkpt lat="48.35602" lon="2.73384">
        <ele>135.2</ele>
        <time>2021-08-21T11:30:42Z</time>
      </trkpt>
      <trkpt lat="48.35603" lon="2.73383">
        <ele>135.1</ele>
        <time>2021-08-21T11:30:43Z</time>
      </trkpt>
      <trkpt lat="48.35603" lon="2.73382">
        <ele>135</ele>
        <time>2021-08-21T11:30:44Z</time>
      </trkpt>
      <trkpt lat="48.35603" lon="2.73382">
        <ele>135</ele>
        <time>2021-08-21T11:30:45Z</time>
      </trkpt>
      <trkpt lat="48.35603" lon="2.73382">
        <ele>134.9</ele>
        <time>2021-08-21T11:30:46Z</time>
      </trkpt>
      <trkpt lat="48.35604" lon="2.73382">
        <ele>134.9</ele>
        <time>2021-08-21T11:30:47Z</time>
      </trkpt>
      <trkpt lat="48.35604" lon="2.73382">
        <ele>134.8</ele>
        <time>2021-08-21T11:30:48Z</time>
      </trkpt>
      <trkpt lat="48.35604" lon="2.73383">
        <ele>134.7</ele>
        <time>2021-08-21T11:30:49Z</time>
      </trkpt>
      <trkpt lat="48.35604" lon="2.73384">
        <ele>134.6</ele>
        <time>2021-08-21T11:30:50Z</time>
      </trkpt>
      <trkpt lat="48.35604" lon="2.73384">
        <ele>134.5</ele>
        <time>2021-08-21T11:30:51Z</time>
      </trkpt>
      <trkpt lat="48.35604" lon="2.73385">
        <ele>134.5</ele>
        <time>2021-08-21T11:30:52Z</time>
      </trkpt>
      <trkpt lat="48.35604" lon="2.73385">
        <ele>134.4</ele>
        <time>2021-08-21T11:30:53Z</time>
      </trkpt>
      <trkpt lat="48.35603" lon="2.73386">
        <ele>134.3</ele>
        <time>2021-08-21T11:30:54Z</time>
      </trkpt>
      <trkpt lat="48.35603" lon="2.73386">
        <ele>134.2</ele>
        <time>2021-08-21T11:30:55Z</time>
      </trkpt>
      <trkpt lat="48.35603" lon="2.73386">
        <ele>134.2</ele>
        <time>2021-08-21T11:30:56Z</time>
      </trkpt>
      <trkpt lat="48.35604" lon="2.73387">
        <ele>134.1</ele>
        <time>2021-08-21T11:30:57Z</time>
      </trkpt>
      <trkpt lat="48.35604" lon="2.73387">
        <ele>134.1</ele>
        <time>2021-08-21T11:30:58Z</time>
      </trkpt>
      <trkpt lat="48.35604" lon="2.73388">
        <ele>133.9</ele>
        <time>2021-08-21T11:30:59Z</time>
      </trkpt>
      <trkpt lat="48.35604" lon="2.73389">
        <ele>133.8</ele>
        <time>2021-08-21T11:31:00Z</time>
      </trkpt>
      <trkpt lat="48.35603" lon="2.7339">
        <ele>133.7</ele>
        <time>2021-08-21T11:31:01Z</time>
      </trkpt>
      <trkpt lat="48.35603" lon="2.7339">
        <ele>133.6</ele>
        <time>2021-08-21T11:31:02Z</time>
      </trkpt>
      <trkpt lat="48.35603" lon="2.7339">
        <ele>133.5</ele>
        <time>2021-08-21T11:31:03Z</time>
      </trkpt>
      <trkpt lat="48.35602" lon="2.7339">
        <ele>133.5</ele>
        <time>2021-08-21T11:31:04Z</time>
      </trkpt>
      <trkpt lat="48.35602" lon="2.73391">
        <ele>133.4</ele>
        <time>2021-08-21T11:31:05Z</time>
      </trkpt>
      <trkpt lat="48.35602" lon="2.73392">
        <ele>133.2</ele>
        <time>2021-08-21T11:31:06Z</time>
      </trkpt>
      <trkpt lat="48.35602" lon="2.73394">
        <ele>133</ele>
        <time>2021-08-21T11:31:07Z</time>
      </trkpt>
      <trkpt lat="48.35602" lon="2.73396">
        <ele>132.7</ele>
        <time>2021-08-21T11:31:08Z</time>
      </trkpt>
      <trkpt lat="48.35602" lon="2.73397">
        <ele>132.5</ele>
        <time>2021-08-21T11:31:09Z</time>
      </trkpt>
      <trkpt lat="48.35601" lon="2.73399">
        <ele>132.3</ele>
        <time>2021-08-21T11:31:10Z</time>
      </trkpt>
      <trkpt lat="48.35601" lon="2.734">
        <ele>132.2</ele>
        <time>2021-08-21T11:31:11Z</time>
      </trkpt>
      <trkpt lat="48.35601" lon="2.73401">
        <ele>132</ele>
        <time>2021-08-21T11:31:12Z</time>
      </trkpt>
      <trkpt lat="48.356" lon="2.73403">
        <ele>131.8</ele>
        <time>2021-08-21T11:31:13Z</time>
      </trkpt>
      <trkpt lat="48.356" lon="2.73404">
        <ele>131.6</ele>
        <time>2021-08-21T11:31:14Z</time>
      </trkpt>
      <trkpt lat="48.356" lon="2.73405">
        <ele>131.5</ele>
        <time>2021-08-21T11:31:15Z</time>
      </trkpt>
      <trkpt lat="48.35599" lon="2.73406">
        <ele>131.3</ele>
        <time>2021-08-21T11:31:16Z</time>
      </trkpt>
      <trkpt lat="48.35599" lon="2.73407">
        <ele>131.2</ele>
        <time>2021-08-21T11:31:17Z</time>
      </trkpt>
      <trkpt lat="48.35599" lon="2.73407">
        <ele>131.1</ele>
        <time>2021-08-21T11:31:18Z</time>
      </trkpt>
      <trkpt lat="48.35599" lon="2.73408">
        <ele>131</ele>
        <time>2021-08-21T11:31:19Z</time>
      </trkpt>
      <trkpt lat="48.35599" lon="2.73409">
        <ele>130.9</ele>
        <time>2021-08-21T11:31:20Z</time>
      </trkpt>
      <trkpt lat="48.35599" lon="2.73409">
        <ele>130.8</ele>
        <time>2021-08-21T11:31:21Z</time>
      </trkpt>
      <trkpt lat="48.35599" lon="2.7341">
        <ele>130.8</ele>
        <time>2021-08-21T11:31:22Z</time>
      </trkpt>
      <trkpt lat="48.35599" lon="2.73411">
        <ele>130.7</ele>
        <time>2021-08-21T11:31:23Z</time>
      </trkpt>
      <trkpt lat="48.35599" lon="2.73411">
        <ele>130.6</ele>
        <time>2021-08-21T11:31:24Z</time>
      </trkpt>
      <trkpt lat="48.35599" lon="2.73412">
        <ele>130.5</ele>
        <time>2021-08-21T11:31:25Z</time>
      </trkpt>
      <trkpt lat="48.35599" lon="2.73412">
        <ele>130.4</ele>
        <time>2021-08-21T11:31:26Z</time>
      </trkpt>
      <trkpt lat="48.356" lon="2.73411">
        <ele>130.2</ele>
        <time>2021-08-21T11:31:27Z</time>
      </trkpt>
      <trkpt lat="48.356" lon="2.73411">
        <ele>130.2</ele>
        <time>2021-08-21T11:31:28Z</time>
      </trkpt>
      <trkpt lat="48.35601" lon="2.7341">
        <ele>130</ele>
        <time>2021-08-21T11:31:29Z</time>
      </trkpt>
      <trkpt lat="48.35602" lon="2.7341">
        <ele>129.9</ele>
        <time>2021-08-21T11:31:30Z</time>
      </trkpt>
      <trkpt lat="48.35603" lon="2.7341">
        <ele>129.6</ele>
        <time>2021-08-21T11:31:31Z</time>
      </trkpt>
      <trkpt lat="48.35604" lon="2.7341">
        <ele>129.5</ele>
        <time>2021-08-21T11:31:32Z</time>
      </trkpt>
      <trkpt lat="48.35604" lon="2.73409">
        <ele>129.3</ele>
        <time>2021-08-21T11:31:33Z</time>
      </trkpt>
      <trkpt lat="48.35605" lon="2.73409">
        <ele>129.2</ele>
        <time>2021-08-21T11:31:34Z</time>
      </trkpt>
      <trkpt lat="48.35605" lon="2.73409">
        <ele>129.1</ele>
        <time>2021-08-21T11:31:35Z</time>
      </trkpt>
      <trkpt lat="48.35606" lon="2.73409">
        <ele>129</ele>
        <time>2021-08-21T11:31:36Z</time>
      </trkpt>
      <trkpt lat="48.35606" lon="2.73409">
        <ele>129</ele>
        <time>2021-08-21T11:31:37Z</time>
      </trkpt>
      <trkpt lat="48.35606" lon="2.7341">
        <ele>128.8</ele>
        <time>2021-08-21T11:31:38Z</time>
      </trkpt>
      <trkpt lat="48.35606" lon="2.7341">
        <ele>128.8</ele>
        <time>2021-08-21T11:31:39Z</time>
      </trkpt>
      <trkpt lat="48.35606" lon="2.73411">
        <ele>128.7</ele>
        <time>2021-08-21T11:31:40Z</time>
      </trkpt>
      <trkpt lat="48.35605" lon="2.73411">
        <ele>128.6</ele>
        <time>2021-08-21T11:31:41Z</time>
      </trkpt>
      <trkpt lat="48.35605" lon="2.73412">
        <ele>128.5</ele>
        <time>2021-08-21T11:31:42Z</time>
      </trkpt>
      <trkpt lat="48.35605" lon="2.73413">
        <ele>128.4</ele>
        <time>2021-08-21T11:31:43Z</time>
      </trkpt>
      <trkpt lat="48.35604" lon="2.73414">
        <ele>128.2</ele>
        <time>2021-08-21T11:31:44Z</time>
      </trkpt>
      <trkpt lat="48.35604" lon="2.73416">
        <ele>128</ele>
        <time>2021-08-21T11:31:45Z</time>
      </trkpt>
      <trkpt lat="48.35603" lon="2.73417">
        <ele>127.9</ele>
        <time>2021-08-21T11:31:46Z</time>
      </trkpt>
      <trkpt lat="48.35603" lon="2.73418">
        <ele>127.7</ele>
        <time>2021-08-21T11:31:47Z</time>
      </trkpt>
      <trkpt lat="48.35602" lon="2.73419">
        <ele>127.5</ele>
        <time>2021-08-21T11:31:48Z</time>
      </trkpt>
      <trkpt lat="48.35601" lon="2.7342">
        <ele>127.3</ele>
        <time>2021-08-21T11:31:49Z</time>
      </trkpt>
      <trkpt lat="48.356" lon="2.73421">
        <ele>127.1</ele>
        <time>2021-08-21T11:31:50Z</time>
      </trkpt>
      <trkpt lat="48.35599" lon="2.73421">
        <ele>127</ele>
        <time>2021-08-21T11:31:51Z</time>
      </trkpt>
      <trkpt lat="48.35599" lon="2.73421">
        <ele>126.9</ele>
        <time>2021-08-21T11:31:52Z</time>
      </trkpt>
      <trkpt lat="48.35599" lon="2.73422">
        <ele>126.9</ele>
        <time>2021-08-21T11:31:53Z</time>
      </trkpt>
      <trkpt lat="48.35598" lon="2.73422">
        <ele>126.8</ele>
        <time>2021-08-21T11:31:54Z</time>
      </trkpt>
      <trkpt lat="48.35598" lon="2.73423">
        <ele>126.7</ele>
        <time>2021-08-21T11:31:55Z</time>
      </trkpt>
      <trkpt lat="48.35598" lon="2.73423">
        <ele>126.7</ele>
        <time>2021-08-21T11:31:56Z</time>
      </trkpt>
      <trkpt lat="48.35598" lon="2.73423">
        <ele>126.6</ele>
        <time>2021-08-21T11:31:57Z</time>
      </trkpt>
      <trkpt lat="48.35598" lon="2.73423">
        <ele>126.6</ele>
        <time>2021-08-21T11:31:58Z</time>
      </trkpt>
      <trkpt lat="48.35597" lon="2.73423">
        <ele>126.4</ele>
        <time>2021-08-21T11:31:59Z</time>
      </trkpt>
      <trkpt lat="48.35596" lon="2.73423">
        <ele>126.3</ele>
        <time>2021-08-21T11:32:00Z</time>
      </trkpt>
      <trkpt lat="48.35596" lon="2.73424">
        <ele>126.1</ele>
        <time>2021-08-21T11:32:01Z</time>
      </trkpt>
      <trkpt lat="48.35595" lon="2.73425">
        <ele>125.9</ele>
        <time>2021-08-21T11:32:02Z</time>
      </trkpt>
      <trkpt lat="48.35594" lon="2.73426">
        <ele>125.8</ele>
        <time>2021-08-21T11:32:03Z</time>
      </trkpt>
      <trkpt lat="48.35593" lon="2.73427">
        <ele>125.6</ele>
        <time>2021-08-21T11:32:04Z</time>
      </trkpt>
      <trkpt lat="48.35593" lon="2.73428">
        <ele>125.5</ele>
        <time>2021-08-21T11:32:05Z</time>
      </trkpt>
      <trkpt lat="48.35592" lon="2.73429">
        <ele>125.4</ele>
        <time>2021-08-21T11:32:06Z</time>
      </trkpt>
      <trkpt lat="48.35592" lon="2.73431">
        <ele>125.2</ele>
        <time>2021-08-21T11:32:07Z</time>
      </trkpt>
      <trkpt lat="48.35591" lon="2.73433">
        <ele>125</ele>
        <time>2021-08-21T11:32:08Z</time>
      </trkpt>
      <trkpt lat="48.35591" lon="2.73434">
        <ele>124.9</ele>
        <time>2021-08-21T11:32:09Z</time>
      </trkpt>
      <trkpt lat="48.3559" lon="2.73435">
        <ele>124.8</ele>
        <time>2021-08-21T11:32:10Z</time>
      </trkpt>
      <trkpt lat="48.3559" lon="2.73435">
        <ele>124.7</ele>
        <time>2021-08-21T11:32:11Z</time>
      </trkpt>
      <trkpt lat="48.35589" lon="2.73436">
        <ele>124.6</ele>
        <time>2021-08-21T11:32:12Z</time>
      </trkpt>
      <trkpt lat="48.35588" lon="2.73436">
        <ele>124.5</ele>
        <time>2021-08-21T11:32:13Z</time>
      </trkpt>
      <trkpt lat="48.35588" lon="2.73436">
        <ele>124.3</ele>
        <time>2021-08-21T11:32:14Z</time>
      </trkpt>
      <trkpt lat="48.35586" lon="2.73437">
        <ele>124.2</ele>
        <time>2021-08-21T11:32:15Z</time>
      </trkpt>
      <trkpt lat="48.35585" lon="2.73437">
        <ele>124</ele>
        <time>2021-08-21T11:32:16Z</time>
      </trkpt>
      <trkpt lat="48.35584" lon="2.73437">
        <ele>123.9</ele>
        <time>2021-08-21T11:32:17Z</time>
      </trkpt>
      <trkpt lat="48.35583" lon="2.73438">
        <ele>123.7</ele>
        <time>2021-08-21T11:32:18Z</time>
      </trkpt>
      <trkpt lat="48.35582" lon="2.73439">
        <ele>123.6</ele>
        <time>2021-08-21T11:32:19Z</time>
      </trkpt>
      <trkpt lat="48.35581" lon="2.7344">
        <ele>123.5</ele>
        <time>2021-08-21T11:32:20Z</time>
      </trkpt>
      <trkpt lat="48.35581" lon="2.7344">
        <ele>123.4</ele>
        <time>2021-08-21T11:32:21Z</time>
      </trkpt>
      <trkpt lat="48.3558" lon="2.73441">
        <ele>123.3</ele>
        <time>2021-08-21T11:32:22Z</time>
      </trkpt>
      <trkpt lat="48.3558" lon="2.73442">
        <ele>123.2</ele>
        <time>2021-08-21T11:32:23Z</time>
      </trkpt>
      <trkpt lat="48.3558" lon="2.73443">
        <ele>123.1</ele>
        <time>2021-08-21T11:32:24Z</time>
      </trkpt>
      <trkpt lat="48.35579" lon="2.73443">
        <ele>123</ele>
        <time>2021-08-21T11:32:25Z</time>
      </trkpt>
      <trkpt lat="48.35578" lon="2.73443">
        <ele>122.9</ele>
        <time>2021-08-21T11:32:26Z</time>
      </trkpt>
      <trkpt lat="48.35578" lon="2.73443">
        <ele>122.9</ele>
        <time>2021-08-21T11:32:27Z</time>
      </trkpt>
      <trkpt lat="48.35577" lon="2.73444">
        <ele>122.8</ele>
        <time>2021-08-21T11:32:28Z</time>
      </trkpt>
      <trkpt lat="48.35577" lon="2.73444">
        <ele>122.8</ele>
        <time>2021-08-21T11:32:29Z</time>
      </trkpt>
      <trkpt lat="48.35576" lon="2.73445">
        <ele>122.8</ele>
        <time>2021-08-21T11:32:30Z</time>
      </trkpt>
      <trkpt lat="48.35576" lon="2.73445">
        <ele>122.8</ele>
        <time>2021-08-21T11:32:31Z</time>
      </trkpt>
      <trkpt lat="48.35575" lon="2.73446">
        <ele>122.7</ele>
        <time>2021-08-21T11:32:32Z</time>
      </trkpt>
      <trkpt lat="48.35575" lon="2.73447">
        <ele>122.7</ele>
        <time>2021-08-21T11:32:33Z</time>
      </trkpt>
      <trkpt lat="48.35574" lon="2.73447">
        <ele>122.7</ele>
        <time>2021-08-21T11:32:34Z</time>
      </trkpt>
      <trkpt lat="48.35574" lon="2.73447">
        <ele>122.7</ele>
        <time>2021-08-21T11:32:35Z</time>
      </trkpt>
      <trkpt lat="48.35574" lon="2.73447">
        <ele>122.7</ele>
        <time>2021-08-21T11:32:36Z</time>
      </trkpt>
      <trkpt lat="48.35574" lon="2.73447">
        <ele>122.7</ele>
        <time>2021-08-21T11:32:37Z</time>
      </trkpt>
      <trkpt lat="48.35574" lon="2.73447">
        <ele>122.7</ele>
        <time>2021-08-21T11:32:38Z</time>
      </trkpt>
      <trkpt lat="48.35574" lon="2.73447">
        <ele>122.7</ele>
        <time>2021-08-21T11:32:39Z</time>
      </trkpt>
      <trkpt lat="48.35574" lon="2.73447">
        <ele>122.7</ele>
        <time>2021-08-21T11:32:40Z</time>
      </trkpt>
      <trkpt lat="48.35574" lon="2.73447">
        <ele>122.7</ele>
        <time>2021-08-21T11:32:41Z</time>
      </trkpt>
      <trkpt lat="48.35574" lon="2.73447">
        <ele>122.7</ele>
        <time>2021-08-21T11:32:42Z</time>
      </trkpt>
      <trkpt lat="48.35574" lon="2.73447">
        <ele>122.7</ele>
        <time>2021-08-21T11:32:43Z</time>
      </trkpt>
      <trkpt lat="48.35575" lon="2.73447">
        <ele>122.7</ele>
        <time>2021-08-21T11:32:44Z</time>
      </trkpt>
      <trkpt lat="48.35575" lon="2.73447">
        <ele>122.7</ele>
        <time>2021-08-21T11:32:45Z</time>
      </trkpt>
      <trkpt lat="48.35575" lon="2.73447">
        <ele>122.7</ele>
        <time>2021-08-21T11:32:46Z</time>
      </trkpt>
      <trkpt lat="48.35574" lon="2.73447">
        <ele>122.7</ele>
        <time>2021-08-21T11:32:47Z</time>
      </trkpt>
      <trkpt lat="48.35574" lon="2.73448">
        <ele>122.7</ele>
        <time>2021-08-21T11:32:48Z</time>
      </trkpt>
      <trkpt lat="48.35574" lon="2.73449">
        <ele>122.7</ele>
        <time>2021-08-21T11:32:49Z</time>
      </trkpt>
      <trkpt lat="48.35574" lon="2.73449">
        <ele>122.7</ele>
        <time>2021-08-21T11:32:50Z</time>
      </trkpt>
      <trkpt lat="48.35573" lon="2.7345">
        <ele>122.7</ele>
        <time>2021-08-21T11:32:51Z</time>
      </trkpt>
      <trkpt lat="48.35573" lon="2.73451">
        <ele>122.7</ele>
        <time>2021-08-21T11:32:52Z</time>
      </trkpt>
      <trkpt lat="48.35573" lon="2.73451">
        <ele>122.7</ele>
        <time>2021-08-21T11:32:53Z</time>
      </trkpt>
      <trkpt lat="48.35573" lon="2.73451">
        <ele>122.7</ele>
        <time>2021-08-21T11:32:54Z</time>
      </trkpt>
      <trkpt lat="48.35574" lon="2.73452">
        <ele>122.7</ele>
        <time>2021-08-21T11:32:55Z</time>
      </trkpt>
      <trkpt lat="48.35574" lon="2.73453">
        <ele>122.7</ele>
        <time>2021-08-21T11:32:56Z</time>
      </trkpt>
      <trkpt lat="48.35574" lon="2.73453">
        <ele>122.7</ele>
        <time>2021-08-21T11:32:57Z</time>
      </trkpt>
      <trkpt lat="48.35575" lon="2.73454">
        <ele>122.7</ele>
        <time>2021-08-21T11:32:58Z</time>
      </trkpt>
      <trkpt lat="48.35576" lon="2.73454">
        <ele>122.7</ele>
        <time>2021-08-21T11:32:59Z</time>
      </trkpt>
      <trkpt lat="48.35576" lon="2.73455">
        <ele>122.7</ele>
        <time>2021-08-21T11:33:00Z</time>
      </trkpt>
      <trkpt lat="48.35577" lon="2.73455">
        <ele>122.7</ele>
        <time>2021-08-21T11:33:01Z</time>
      </trkpt>
      <trkpt lat="48.35578" lon="2.73456">
        <ele>122.7</ele>
        <time>2021-08-21T11:33:02Z</time>
      </trkpt>
      <trkpt lat="48.35579" lon="2.73456">
        <ele>122.7</ele>
        <time>2021-08-21T11:33:03Z</time>
      </trkpt>
      <trkpt lat="48.3558" lon="2.73457">
        <ele>122.7</ele>
        <time>2021-08-21T11:33:04Z</time>
      </trkpt>
      <trkpt lat="48.35581" lon="2.73457">
        <ele>122.7</ele>
        <time>2021-08-21T11:33:05Z</time>
      </trkpt>
      <trkpt lat="48.35582" lon="2.73457">
        <ele>122.7</ele>
        <time>2021-08-21T11:33:06Z</time>
      </trkpt>
      <trkpt lat="48.35582" lon="2.73458">
        <ele>122.7</ele>
        <time>2021-08-21T11:33:07Z</time>
      </trkpt>
      <trkpt lat="48.35584" lon="2.73458">
        <ele>122.7</ele>
        <time>2021-08-21T11:33:08Z</time>
      </trkpt>
      <trkpt lat="48.35585" lon="2.73458">
        <ele>122.7</ele>
        <time>2021-08-21T11:33:09Z</time>
      </trkpt>
      <trkpt lat="48.35585" lon="2.73458">
        <ele>122.7</ele>
        <time>2021-08-21T11:33:10Z</time>
      </trkpt>
      <trkpt lat="48.35586" lon="2.73458">
        <ele>122.7</ele>
        <time>2021-08-21T11:33:11Z</time>
      </trkpt>
      <trkpt lat="48.35588" lon="2.73458">
        <ele>122.6</ele>
        <time>2021-08-21T11:33:12Z</time>
      </trkpt>
      <trkpt lat="48.35589" lon="2.73458">
        <ele>122.6</ele>
        <time>2021-08-21T11:33:13Z</time>
      </trkpt>
      <trkpt lat="48.3559" lon="2.73458">
        <ele>122.6</ele>
        <time>2021-08-21T11:33:14Z</time>
      </trkpt>
      <trkpt lat="48.35591" lon="2.73458">
        <ele>122.6</ele>
        <time>2021-08-21T11:33:15Z</time>
      </trkpt>
      <trkpt lat="48.35593" lon="2.73459">
        <ele>122.6</ele>
        <time>2021-08-21T11:33:16Z</time>
      </trkpt>
      <trkpt lat="48.35595" lon="2.73459">
        <ele>122.6</ele>
        <time>2021-08-21T11:33:17Z</time>
      </trkpt>
      <trkpt lat="48.35596" lon="2.73459">
        <ele>122.6</ele>
        <time>2021-08-21T11:33:18Z</time>
      </trkpt>
      <trkpt lat="48.35596" lon="2.73459">
        <ele>122.6</ele>
        <time>2021-08-21T11:33:19Z</time>
      </trkpt>
      <trkpt lat="48.35598" lon="2.73459">
        <ele>122.6</ele>
        <time>2021-08-21T11:33:20Z</time>
      </trkpt>
      <trkpt lat="48.35599" lon="2.73459">
        <ele>122.6</ele>
        <time>2021-08-21T11:33:21Z</time>
      </trkpt>
      <trkpt lat="48.35601" lon="2.73459">
        <ele>122.6</ele>
        <time>2021-08-21T11:33:22Z</time>
      </trkpt>
      <trkpt lat="48.35602" lon="2.73459">
        <ele>122.6</ele>
        <time>2021-08-21T11:33:23Z</time>
      </trkpt>
      <trkpt lat="48.35604" lon="2.73458">
        <ele>122.6</ele>
        <time>2021-08-21T11:33:24Z</time>
      </trkpt>
      <trkpt lat="48.35605" lon="2.73458">
        <ele>122.6</ele>
        <time>2021-08-21T11:33:25Z</time>
      </trkpt>
      <trkpt lat="48.35606" lon="2.73458">
        <ele>122.6</ele>
        <time>2021-08-21T11:33:26Z</time>
      </trkpt>
      <trkpt lat="48.35608" lon="2.73458">
        <ele>122.6</ele>
        <time>2021-08-21T11:33:27Z</time>
      </trkpt>
      <trkpt lat="48.35609" lon="2.73458">
        <ele>122.7</ele>
        <time>2021-08-21T11:33:28Z</time>
      </trkpt>
      <trkpt lat="48.35609" lon="2.73458">
        <ele>122.7</ele>
        <time>2021-08-21T11:33:29Z</time>
      </trkpt>
      <trkpt lat="48.3561" lon="2.73458">
        <ele>122.7</ele>
        <time>2021-08-21T11:33:30Z</time>
      </trkpt>
      <trkpt lat="48.35611" lon="2.73459">
        <ele>122.7</ele>
        <time>2021-08-21T11:33:31Z</time>
      </trkpt>
      <trkpt lat="48.35612" lon="2.73459">
        <ele>122.7</ele>
        <time>2021-08-21T11:33:32Z</time>
      </trkpt>
      <trkpt lat="48.35613" lon="2.7346">
        <ele>122.7</ele>
        <time>2021-08-21T11:33:33Z</time>
      </trkpt>
      <trkpt lat="48.35614" lon="2.7346">
        <ele>122.7</ele>
        <time>2021-08-21T11:33:34Z</time>
      </trkpt>
      <trkpt lat="48.35615" lon="2.73461">
        <ele>122.7</ele>
        <time>2021-08-21T11:33:35Z</time>
      </trkpt>
      <trkpt lat="48.35617" lon="2.73462">
        <ele>122.7</ele>
        <time>2021-08-21T11:33:36Z</time>
      </trkpt>
      <trkpt lat="48.35618" lon="2.73462">
        <ele>122.7</ele>
        <time>2021-08-21T11:33:37Z</time>
      </trkpt>
      <trkpt lat="48.35619" lon="2.73463">
        <ele>122.7</ele>
        <time>2021-08-21T11:33:38Z</time>
      </trkpt>
      <trkpt lat="48.35621" lon="2.73464">
        <ele>122.7</ele>
        <time>2021-08-21T11:33:39Z</time>
      </trkpt>
      <trkpt lat="48.35621" lon="2.73465">
        <ele>122.8</ele>
        <time>2021-08-21T11:33:40Z</time>
      </trkpt>
      <trkpt lat="48.35622" lon="2.73466">
        <ele>122.8</ele>
        <time>2021-08-21T11:33:41Z</time>
      </trkpt>
      <trkpt lat="48.35623" lon="2.73467">
        <ele>122.8</ele>
        <time>2021-08-21T11:33:42Z</time>
      </trkpt>
      <trkpt lat="48.35624" lon="2.73468">
        <ele>122.8</ele>
        <time>2021-08-21T11:33:43Z</time>
      </trkpt>
      <trkpt lat="48.35625" lon="2.73468">
        <ele>122.8</ele>
        <time>2021-08-21T11:33:44Z</time>
      </trkpt>
      <trkpt lat="48.35626" lon="2.73469">
        <ele>122.8</ele>
        <time>2021-08-21T11:33:45Z</time>
      </trkpt>
      <trkpt lat="48.35627" lon="2.73471">
        <ele>122.8</ele>
        <time>2021-08-21T11:33:46Z</time>
      </trkpt>
      <trkpt lat="48.35627" lon="2.73473">
        <ele>122.9</ele>
        <time>2021-08-21T11:33:47Z</time>
      </trkpt>
      <trkpt lat="48.35627" lon="2.73473">
        <ele>122.9</ele>
        <time>2021-08-21T11:33:48Z</time>
      </trkpt>
      <trkpt lat="48.35627" lon="2.73474">
        <ele>122.9</ele>
        <time>2021-08-21T11:33:49Z</time>
      </trkpt>
      <trkpt lat="48.35627" lon="2.73474">
        <ele>122.9</ele>
        <time>2021-08-21T11:33:50Z</time>
      </trkpt>
      <trkpt lat="48.35627" lon="2.73474">
        <ele>122.9</ele>
        <time>2021-08-21T11:33:51Z</time>
      </trkpt>
      <trkpt lat="48.35627" lon="2.73475">
        <ele>122.9</ele>
        <time>2021-08-21T11:33:52Z</time>
      </trkpt>
      <trkpt lat="48.35626" lon="2.73476">
        <ele>122.9</ele>
        <time>2021-08-21T11:33:53Z</time>
      </trkpt>
      <trkpt lat="48.35627" lon="2.73477">
        <ele>122.9</ele>
        <time>2021-08-21T11:33:54Z</time>
      </trkpt>
      <trkpt lat="48.35627" lon="2.73477">
        <ele>122.9</ele>
        <time>2021-08-21T11:33:55Z</time>
      </trkpt>
      <trkpt lat="48.35627" lon="2.73478">
        <ele>122.9</ele>
        <time>2021-08-21T11:33:56Z</time>
      </trkpt>
      <trkpt lat="48.35627" lon="2.73478">
        <ele>122.9</ele>
        <time>2021-08-21T11:33:57Z</time>
      </trkpt>
      <trkpt lat="48.35627" lon="2.73479">
        <ele>122.9</ele>
        <time>2021-08-21T11:33:58Z</time>
      </trkpt>
      <trkpt lat="48.35628" lon="2.73479">
        <ele>122.9</ele>
        <time>2021-08-21T11:33:59Z</time>
      </trkpt>
      <trkpt lat="48.35628" lon="2.73479">
        <ele>122.9</ele>
        <time>2021-08-21T11:34:00Z</time>
      </trkpt>
      <trkpt lat="48.35628" lon="2.73479">
        <ele>122.9</ele>
        <time>2021-08-21T11:34:01Z</time>
      </trkpt>
      <trkpt lat="48.35628" lon="2.73478">
        <ele>123</ele>
        <time>2021-08-21T11:34:02Z</time>
      </trkpt>
      <trkpt lat="48.35628" lon="2.73477">
        <ele>123</ele>
        <time>2021-08-21T11:34:03Z</time>
      </trkpt>
      <trkpt lat="48.35628" lon="2.73476">
        <ele>123</ele>
        <time>2021-08-21T11:34:04Z</time>
      </trkpt>
      <trkpt lat="48.35628" lon="2.73475">
        <ele>123</ele>
        <time>2021-08-21T11:34:05Z</time>
      </trkpt>
      <trkpt lat="48.35628" lon="2.73474">
        <ele>123</ele>
        <time>2021-08-21T11:34:06Z</time>
      </trkpt>
      <trkpt lat="48.35628" lon="2.73474">
        <ele>123</ele>
        <time>2021-08-21T11:34:07Z</time>
      </trkpt>
      <trkpt lat="48.35628" lon="2.73475">
        <ele>123</ele>
        <time>2021-08-21T11:34:08Z</time>
      </trkpt>
      <trkpt lat="48.35628" lon="2.73476">
        <ele>123</ele>
        <time>2021-08-21T11:34:09Z</time>
      </trkpt>
      <trkpt lat="48.35628" lon="2.73478">
        <ele>123.1</ele>
        <time>2021-08-21T11:34:10Z</time>
      </trkpt>
      <trkpt lat="48.35628" lon="2.73479">
        <ele>123.1</ele>
        <time>2021-08-21T11:34:11Z</time>
      </trkpt>
      <trkpt lat="48.35628" lon="2.73479">
        <ele>123.1</ele>
        <time>2021-08-21T11:34:12Z</time>
      </trkpt>
      <trkpt lat="48.35628" lon="2.7348">
        <ele>123.1</ele>
        <time>2021-08-21T11:34:13Z</time>
      </trkpt>
      <trkpt lat="48.35629" lon="2.7348">
        <ele>123.1</ele>
        <time>2021-08-21T11:34:14Z</time>
      </trkpt>
      <trkpt lat="48.35629" lon="2.7348">
        <ele>123.1</ele>
        <time>2021-08-21T11:34:15Z</time>
      </trkpt>
      <trkpt lat="48.35629" lon="2.7348">
        <ele>123.1</ele>
        <time>2021-08-21T11:34:16Z</time>
      </trkpt>
      <trkpt lat="48.35629" lon="2.7348">
        <ele>123.1</ele>
        <time>2021-08-21T11:34:17Z</time>
      </trkpt>
      <trkpt lat="48.35629" lon="2.7348">
        <ele>123.1</ele>
        <time>2021-08-21T11:34:18Z</time>
      </trkpt>
      <trkpt lat="48.35629" lon="2.7348">
        <ele>123.1</ele>
        <time>2021-08-21T11:34:19Z</time>
      </trkpt>
      <trkpt lat="48.35629" lon="2.7348">
        <ele>123.1</ele>
        <time>2021-08-21T11:34:20Z</time>
      </trkpt>
      <trkpt lat="48.35629" lon="2.7348">
        <ele>123.1</ele>
        <time>2021-08-21T11:34:21Z</time>
      </trkpt>
      <trkpt lat="48.35629" lon="2.7348">
        <ele>123.1</ele>
        <time>2021-08-21T11:34:22Z</time>
      </trkpt>
      <trkpt lat="48.35629" lon="2.73482">
        <ele>123.1</ele>
        <time>2021-08-21T11:34:23Z</time>
      </trkpt>
      <trkpt lat="48.35629" lon="2.73483">
        <ele>123.2</ele>
        <time>2021-08-21T11:34:24Z</time>
      </trkpt>
      <trkpt lat="48.35629" lon="2.73484">
        <ele>123.2</ele>
        <time>2021-08-21T11:34:25Z</time>
      </trkpt>
      <trkpt lat="48.35629" lon="2.73484">
        <ele>123.2</ele>
        <time>2021-08-21T11:34:26Z</time>
      </trkpt>
      <trkpt lat="48.35629" lon="2.73485">
        <ele>123.2</ele>
        <time>2021-08-21T11:34:27Z</time>
      </trkpt>
      <trkpt lat="48.35628" lon="2.73485">
        <ele>123.2</ele>
        <time>2021-08-21T11:34:28Z</time>
      </trkpt>
      <trkpt lat="48.35628" lon="2.73486">
        <ele>123.2</ele>
        <time>2021-08-21T11:34:29Z</time>
      </trkpt>
      <trkpt lat="48.35628" lon="2.73486">
        <ele>123.2</ele>
        <time>2021-08-21T11:34:30Z</time>
      </trkpt>
      <trkpt lat="48.35627" lon="2.73486">
        <ele>123.2</ele>
        <time>2021-08-21T11:34:31Z</time>
      </trkpt>
      <trkpt lat="48.35627" lon="2.73486">
        <ele>123.2</ele>
        <time>2021-08-21T11:34:32Z</time>
      </trkpt>
      <trkpt lat="48.35627" lon="2.73486">
        <ele>123.3</ele>
        <time>2021-08-21T11:34:33Z</time>
      </trkpt>
      <trkpt lat="48.35627" lon="2.73485">
        <ele>123.3</ele>
        <time>2021-08-21T11:34:34Z</time>
      </trkpt>
      <trkpt lat="48.35627" lon="2.73485">
        <ele>123.3</ele>
        <time>2021-08-21T11:34:35Z</time>
      </trkpt>
      <trkpt lat="48.35627" lon="2.73485">
        <ele>123.3</ele>
        <time>2021-08-21T11:34:36Z</time>
      </trkpt>
      <trkpt lat="48.35628" lon="2.73484">
        <ele>123.3</ele>
        <time>2021-08-21T11:34:37Z</time>
      </trkpt>
      <trkpt lat="48.35628" lon="2.73484">
        <ele>123.3</ele>
        <time>2021-08-21T11:34:38Z</time>
      </trkpt>
      <trkpt lat="48.35628" lon="2.73484">
        <ele>123.3</ele>
        <time>2021-08-21T11:34:39Z</time>
      </trkpt>
      <trkpt lat="48.35627" lon="2.73484">
        <ele>123.3</ele>
        <time>2021-08-21T11:34:40Z</time>
      </trkpt>
      <trkpt lat="48.35628" lon="2.73484">
        <ele>123.3</ele>
        <time>2021-08-21T11:34:41Z</time>
      </trkpt>
      <trkpt lat="48.35628" lon="2.73485">
        <ele>123.3</ele>
        <time>2021-08-21T11:34:42Z</time>
      </trkpt>
      <trkpt lat="48.35628" lon="2.73484">
        <ele>123.3</ele>
        <time>2021-08-21T11:34:43Z</time>
      </trkpt>
      <trkpt lat="48.35628" lon="2.73484">
        <ele>123.3</ele>
        <time>2021-08-21T11:34:44Z</time>
      </trkpt>
      <trkpt lat="48.35628" lon="2.73485">
        <ele>123.3</ele>
        <time>2021-08-21T11:34:45Z</time>
      </trkpt>
      <trkpt lat="48.35628" lon="2.73484">
        <ele>123.3</ele>
        <time>2021-08-21T11:34:46Z</time>
      </trkpt>
      <trkpt lat="48.35628" lon="2.73484">
        <ele>123.3</ele>
        <time>2021-08-21T11:34:47Z</time>
      </trkpt>
      <trkpt lat="48.35628" lon="2.73484">
        <ele>123.3</ele>
        <time>2021-08-21T11:34:48Z</time>
      </trkpt>
      <trkpt lat="48.35628" lon="2.73484">
        <ele>123.3</ele>
        <time>2021-08-21T11:34:49Z</time>
      </trkpt>
      <trkpt lat="48.35628" lon="2.73484">
        <ele>123.3</ele>
        <time>2021-08-21T11:34:50Z</time>
      </trkpt>
      <trkpt lat="48.35628" lon="2.73485">
        <ele>123.3</ele>
        <time>2021-08-21T11:34:51Z</time>
      </trkpt>
      <trkpt lat="48.35628" lon="2.73485">
        <ele>123.4</ele>
        <time>2021-08-21T11:34:52Z</time>
      </trkpt>
      <trkpt lat="48.35628" lon="2.73486">
        <ele>123.4</ele>
        <time>2021-08-21T11:34:53Z</time>
      </trkpt>
      <trkpt lat="48.35628" lon="2.73486">
        <ele>123.4</ele>
        <time>2021-08-21T11:34:54Z</time>
      </trkpt>
      <trkpt lat="48.35628" lon="2.73486">
        <ele>123.4</ele>
        <time>2021-08-21T11:34:55Z</time>
      </trkpt>
      <trkpt lat="48.35628" lon="2.73486">
        <ele>123.4</ele>
        <time>2021-08-21T11:34:56Z</time>
      </trkpt>
      <trkpt lat="48.35628" lon="2.73486">
        <ele>123.4</ele>
        <time>2021-08-21T11:34:57Z</time>
      </trkpt>
      <trkpt lat="48.35628" lon="2.73487">
        <ele>123.4</ele>
        <time>2021-08-21T11:34:58Z</time>
      </trkpt>
      <trkpt lat="48.35628" lon="2.73487">
        <ele>123.4</ele>
        <time>2021-08-21T11:34:59Z</time>
      </trkpt>
      <trkpt lat="48.35628" lon="2.73487">
        <ele>123.4</ele>
        <time>2021-08-21T11:35:00Z</time>
      </trkpt>
      <trkpt lat="48.35628" lon="2.73487">
        <ele>123.4</ele>
        <time>2021-08-21T11:35:01Z</time>
      </trkpt>
      <trkpt lat="48.35628" lon="2.73487">
        <ele>123.4</ele>
        <time>2021-08-21T11:35:02Z</time>
      </trkpt>
      <trkpt lat="48.35628" lon="2.73487">
        <ele>123.4</ele>
        <time>2021-08-21T11:35:03Z</time>
      </trkpt>
      <trkpt lat="48.35628" lon="2.73487">
        <ele>123.4</ele>
        <time>2021-08-21T11:35:04Z</time>
      </trkpt>
      <trkpt lat="48.35628" lon="2.73487">
        <ele>123.4</ele>
        <time>2021-08-21T11:35:05Z</time>
      </trkpt>
      <trkpt lat="48.35628" lon="2.73487">
        <ele>123.4</ele>
        <time>2021-08-21T11:35:06Z</time>
      </trkpt>
      <trkpt lat="48.35628" lon="2.73487">
        <ele>123.4</ele>
        <time>2021-08-21T11:35:07Z</time>
      </trkpt>
      <trkpt lat="48.35628" lon="2.73487">
        <ele>123.4</ele>
        <time>2021-08-21T11:35:08Z</time>
      </trkpt>
      <trkpt lat="48.35627" lon="2.73486">
        <ele>123.5</ele>
        <time>2021-08-21T11:35:09Z</time>
      </trkpt>
      <trkpt lat="48.35627" lon="2.73486">
        <ele>123.5</ele>
        <time>2021-08-21T11:35:10Z</time>
      </trkpt>
      <trkpt lat="48.35627" lon="2.73487">
        <ele>123.5</ele>
        <time>2021-08-21T11:35:11Z</time>
      </trkpt>
      <trkpt lat="48.35627" lon="2.73487">
        <ele>123.5</ele>
        <time>2021-08-21T11:35:12Z</time>
      </trkpt>
      <trkpt lat="48.35627" lon="2.73486">
        <ele>123.5</ele>
        <time>2021-08-21T11:35:13Z</time>
      </trkpt>
      <trkpt lat="48.35627" lon="2.73486">
        <ele>123.5</ele>
        <time>2021-08-21T11:35:14Z</time>
      </trkpt>
      <trkpt lat="48.35628" lon="2.73486">
        <ele>123.5</ele>
        <time>2021-08-21T11:35:15Z</time>
      </trkpt>
      <trkpt lat="48.35627" lon="2.73487">
        <ele>123.5</ele>
        <time>2021-08-21T11:35:16Z</time>
      </trkpt>
      <trkpt lat="48.35628" lon="2.73487">
        <ele>123.5</ele>
        <time>2021-08-21T11:35:17Z</time>
      </trkpt>
      <trkpt lat="48.35627" lon="2.73487">
        <ele>123.5</ele>
        <time>2021-08-21T11:35:18Z</time>
      </trkpt>
      <trkpt lat="48.35628" lon="2.73487">
        <ele>123.5</ele>
        <time>2021-08-21T11:35:19Z</time>
      </trkpt>
      <trkpt lat="48.35628" lon="2.73488">
        <ele>123.5</ele>
        <time>2021-08-21T11:35:20Z</time>
      </trkpt>
      <trkpt lat="48.35628" lon="2.73488">
        <ele>123.5</ele>
        <time>2021-08-21T11:35:21Z</time>
      </trkpt>
      <trkpt lat="48.35628" lon="2.73488">
        <ele>123.5</ele>
        <time>2021-08-21T11:35:22Z</time>
      </trkpt>
      <trkpt lat="48.35628" lon="2.73489">
        <ele>123.6</ele>
        <time>2021-08-21T11:35:23Z</time>
      </trkpt>
      <trkpt lat="48.35628" lon="2.7349">
        <ele>123.6</ele>
        <time>2021-08-21T11:35:24Z</time>
      </trkpt>
      <trkpt lat="48.35629" lon="2.73491">
        <ele>123.6</ele>
        <time>2021-08-21T11:35:25Z</time>
      </trkpt>
      <trkpt lat="48.35629" lon="2.73492">
        <ele>123.6</ele>
        <time>2021-08-21T11:35:26Z</time>
      </trkpt>
      <trkpt lat="48.3563" lon="2.73492">
        <ele>123.7</ele>
        <time>2021-08-21T11:35:27Z</time>
      </trkpt>
      <trkpt lat="48.3563" lon="2.73492">
        <ele>123.7</ele>
        <time>2021-08-21T11:35:28Z</time>
      </trkpt>
      <trkpt lat="48.3563" lon="2.73492">
        <ele>123.7</ele>
        <time>2021-08-21T11:35:29Z</time>
      </trkpt>
      <trkpt lat="48.3563" lon="2.73492">
        <ele>123.7</ele>
        <time>2021-08-21T11:35:30Z</time>
      </trkpt>
      <trkpt lat="48.35632" lon="2.73492">
        <ele>123.7</ele>
        <time>2021-08-21T11:35:31Z</time>
      </trkpt>
      <trkpt lat="48.35632" lon="2.73492">
        <ele>123.8</ele>
        <time>2021-08-21T11:35:32Z</time>
      </trkpt>
      <trkpt lat="48.35633" lon="2.73493">
        <ele>123.8</ele>
        <time>2021-08-21T11:35:33Z</time>
      </trkpt>
      <trkpt lat="48.35633" lon="2.73494">
        <ele>123.8</ele>
        <time>2021-08-21T11:35:34Z</time>
      </trkpt>
      <trkpt lat="48.35634" lon="2.73495">
        <ele>123.8</ele>
        <time>2021-08-21T11:35:35Z</time>
      </trkpt>
      <trkpt lat="48.35634" lon="2.73495">
        <ele>123.9</ele>
        <time>2021-08-21T11:35:36Z</time>
      </trkpt>
      <trkpt lat="48.35634" lon="2.73495">
        <ele>123.9</ele>
        <time>2021-08-21T11:35:37Z</time>
      </trkpt>
      <trkpt lat="48.35634" lon="2.73496">
        <ele>123.9</ele>
        <time>2021-08-21T11:35:38Z</time>
      </trkpt>
      <trkpt lat="48.35635" lon="2.73497">
        <ele>123.9</ele>
        <time>2021-08-21T11:35:39Z</time>
      </trkpt>
      <trkpt lat="48.35635" lon="2.73498">
        <ele>124</ele>
        <time>2021-08-21T11:35:40Z</time>
      </trkpt>
      <trkpt lat="48.35635" lon="2.735">
        <ele>124</ele>
        <time>2021-08-21T11:35:41Z</time>
      </trkpt>
      <trkpt lat="48.35635" lon="2.73502">
        <ele>124.1</ele>
        <time>2021-08-21T11:35:42Z</time>
      </trkpt>
      <trkpt lat="48.35634" lon="2.73503">
        <ele>124.1</ele>
        <time>2021-08-21T11:35:43Z</time>
      </trkpt>
      <trkpt lat="48.35634" lon="2.73504">
        <ele>124.1</ele>
        <time>2021-08-21T11:35:44Z</time>
      </trkpt>
      <trkpt lat="48.35633" lon="2.73504">
        <ele>124.2</ele>
        <time>2021-08-21T11:35:45Z</time>
      </trkpt>
      <trkpt lat="48.35633" lon="2.73505">
        <ele>124.2</ele>
        <time>2021-08-21T11:35:46Z</time>
      </trkpt>
      <trkpt lat="48.35633" lon="2.73505">
        <ele>124.2</ele>
        <time>2021-08-21T11:35:47Z</time>
      </trkpt>
      <trkpt lat="48.35632" lon="2.73505">
        <ele>124.2</ele>
        <time>2021-08-21T11:35:48Z</time>
      </trkpt>
      <trkpt lat="48.35632" lon="2.73505">
        <ele>124.2</ele>
        <time>2021-08-21T11:35:49Z</time>
      </trkpt>
      <trkpt lat="48.35632" lon="2.73506">
        <ele>124.2</ele>
        <time>2021-08-21T11:35:50Z</time>
      </trkpt>
      <trkpt lat="48.35632" lon="2.73506">
        <ele>124.2</ele>
        <time>2021-08-21T11:35:51Z</time>
      </trkpt>
      <trkpt lat="48.35632" lon="2.73506">
        <ele>124.3</ele>
        <time>2021-08-21T11:35:52Z</time>
      </trkpt>
      <trkpt lat="48.35632" lon="2.73507">
        <ele>124.3</ele>
        <time>2021-08-21T11:35:53Z</time>
      </trkpt>
      <trkpt lat="48.35632" lon="2.73507">
        <ele>124.3</ele>
        <time>2021-08-21T11:35:54Z</time>
      </trkpt>
      <trkpt lat="48.35632" lon="2.73508">
        <ele>124.3</ele>
        <time>2021-08-21T11:35:55Z</time>
      </trkpt>
      <trkpt lat="48.35632" lon="2.73508">
        <ele>124.3</ele>
        <time>2021-08-21T11:35:56Z</time>
      </trkpt>
      <trkpt lat="48.35632" lon="2.73507">
        <ele>124.3</ele>
        <time>2021-08-21T11:35:57Z</time>
      </trkpt>
      <trkpt lat="48.35632" lon="2.73507">
        <ele>124.3</ele>
        <time>2021-08-21T11:35:58Z</time>
      </trkpt>
      <trkpt lat="48.35633" lon="2.73507">
        <ele>124.3</ele>
        <time>2021-08-21T11:35:59Z</time>
      </trkpt>
      <trkpt lat="48.35633" lon="2.73508">
        <ele>124.4</ele>
        <time>2021-08-21T11:36:00Z</time>
      </trkpt>
      <trkpt lat="48.35633" lon="2.73508">
        <ele>124.4</ele>
        <time>2021-08-21T11:36:01Z</time>
      </trkpt>
      <trkpt lat="48.35633" lon="2.73508">
        <ele>124.4</ele>
        <time>2021-08-21T11:36:02Z</time>
      </trkpt>
      <trkpt lat="48.35634" lon="2.73508">
        <ele>124.4</ele>
        <time>2021-08-21T11:36:03Z</time>
      </trkpt>
      <trkpt lat="48.35634" lon="2.73508">
        <ele>124.4</ele>
        <time>2021-08-21T11:36:04Z</time>
      </trkpt>
      <trkpt lat="48.35634" lon="2.73508">
        <ele>124.4</ele>
        <time>2021-08-21T11:36:05Z</time>
      </trkpt>
      <trkpt lat="48.35634" lon="2.73508">
        <ele>124.4</ele>
        <time>2021-08-21T11:36:06Z</time>
      </trkpt>
      <trkpt lat="48.35634" lon="2.73508">
        <ele>124.4</ele>
        <time>2021-08-21T11:36:07Z</time>
      </trkpt>
      <trkpt lat="48.35634" lon="2.73507">
        <ele>124.4</ele>
        <time>2021-08-21T11:36:08Z</time>
      </trkpt>
      <trkpt lat="48.35635" lon="2.73506">
        <ele>124.5</ele>
        <time>2021-08-21T11:36:09Z</time>
      </trkpt>
      <trkpt lat="48.35635" lon="2.73506">
        <ele>124.5</ele>
        <time>2021-08-21T11:36:10Z</time>
      </trkpt>
      <trkpt lat="48.35636" lon="2.73506">
        <ele>124.5</ele>
        <time>2021-08-21T11:36:11Z</time>
      </trkpt>
      <trkpt lat="48.35636" lon="2.73508">
        <ele>124.6</ele>
        <time>2021-08-21T11:36:12Z</time>
      </trkpt>
      <trkpt lat="48.35636" lon="2.73509">
        <ele>124.6</ele>
        <time>2021-08-21T11:36:13Z</time>
      </trkpt>
      <trkpt lat="48.35636" lon="2.7351">
        <ele>124.7</ele>
        <time>2021-08-21T11:36:14Z</time>
      </trkpt>
      <trkpt lat="48.35636" lon="2.73512">
        <ele>124.7</ele>
        <time>2021-08-21T11:36:15Z</time>
      </trkpt>
      <trkpt lat="48.35636" lon="2.73513">
        <ele>124.8</ele>
        <time>2021-08-21T11:36:16Z</time>
      </trkpt>
      <trkpt lat="48.35636" lon="2.73514">
        <ele>124.8</ele>
        <time>2021-08-21T11:36:17Z</time>
      </trkpt>
      <trkpt lat="48.35636" lon="2.73515">
        <ele>124.8</ele>
        <time>2021-08-21T11:36:18Z</time>
      </trkpt>
      <trkpt lat="48.35636" lon="2.73515">
        <ele>124.9</ele>
        <time>2021-08-21T11:36:19Z</time>
      </trkpt>
      <trkpt lat="48.35636" lon="2.73516">
        <ele>124.9</ele>
        <time>2021-08-21T11:36:20Z</time>
      </trkpt>
      <trkpt lat="48.35637" lon="2.73518">
        <ele>125</ele>
        <time>2021-08-21T11:36:21Z</time>
      </trkpt>
      <trkpt lat="48.35637" lon="2.73519">
        <ele>125</ele>
        <time>2021-08-21T11:36:22Z</time>
      </trkpt>
      <trkpt lat="48.35637" lon="2.7352">
        <ele>125.1</ele>
        <time>2021-08-21T11:36:23Z</time>
      </trkpt>
      <trkpt lat="48.35638" lon="2.7352">
        <ele>125.1</ele>
        <time>2021-08-21T11:36:24Z</time>
      </trkpt>
      <trkpt lat="48.35638" lon="2.7352">
        <ele>125.1</ele>
        <time>2021-08-21T11:36:25Z</time>
      </trkpt>
      <trkpt lat="48.35639" lon="2.73521">
        <ele>125.1</ele>
        <time>2021-08-21T11:36:26Z</time>
      </trkpt>
      <trkpt lat="48.35639" lon="2.73522">
        <ele>125.2</ele>
        <time>2021-08-21T11:36:27Z</time>
      </trkpt>
      <trkpt lat="48.35639" lon="2.73523">
        <ele>125.3</ele>
        <time>2021-08-21T11:36:28Z</time>
      </trkpt>
      <trkpt lat="48.35638" lon="2.73524">
        <ele>125.3</ele>
        <time>2021-08-21T11:36:29Z</time>
      </trkpt>
      <trkpt lat="48.35638" lon="2.73525">
        <ele>125.3</ele>
        <time>2021-08-21T11:36:30Z</time>
      </trkpt>
      <trkpt lat="48.35638" lon="2.73526">
        <ele>125.4</ele>
        <time>2021-08-21T11:36:31Z</time>
      </trkpt>
      <trkpt lat="48.35639" lon="2.73528">
        <ele>125.5</ele>
        <time>2021-08-21T11:36:32Z</time>
      </trkpt>
      <trkpt lat="48.35639" lon="2.73529">
        <ele>125.5</ele>
        <time>2021-08-21T11:36:33Z</time>
      </trkpt>
      <trkpt lat="48.35639" lon="2.73531">
        <ele>125.6</ele>
        <time>2021-08-21T11:36:34Z</time>
      </trkpt>
      <trkpt lat="48.35638" lon="2.73532">
        <ele>125.7</ele>
        <time>2021-08-21T11:36:35Z</time>
      </trkpt>
      <trkpt lat="48.35638" lon="2.73533">
        <ele>125.7</ele>
        <time>2021-08-21T11:36:36Z</time>
      </trkpt>
      <trkpt lat="48.35638" lon="2.73534">
        <ele>125.8</ele>
        <time>2021-08-21T11:36:37Z</time>
      </trkpt>
      <trkpt lat="48.35638" lon="2.73536">
        <ele>125.8</ele>
        <time>2021-08-21T11:36:38Z</time>
      </trkpt>
      <trkpt lat="48.35638" lon="2.73537">
        <ele>125.9</ele>
        <time>2021-08-21T11:36:39Z</time>
      </trkpt>
      <trkpt lat="48.35638" lon="2.73538">
        <ele>126</ele>
        <time>2021-08-21T11:36:40Z</time>
      </trkpt>
      <trkpt lat="48.35638" lon="2.73539">
        <ele>126</ele>
        <time>2021-08-21T11:36:41Z</time>
      </trkpt>
      <trkpt lat="48.35638" lon="2.7354">
        <ele>126</ele>
        <time>2021-08-21T11:36:42Z</time>
      </trkpt>
      <trkpt lat="48.35639" lon="2.73542">
        <ele>126.1</ele>
        <time>2021-08-21T11:36:43Z</time>
      </trkpt>
      <trkpt lat="48.35639" lon="2.73543">
        <ele>126.2</ele>
        <time>2021-08-21T11:36:44Z</time>
      </trkpt>
      <trkpt lat="48.35639" lon="2.73544">
        <ele>126.3</ele>
        <time>2021-08-21T11:36:45Z</time>
      </trkpt>
      <trkpt lat="48.35639" lon="2.73545">
        <ele>126.3</ele>
        <time>2021-08-21T11:36:46Z</time>
      </trkpt>
      <trkpt lat="48.35639" lon="2.73547">
        <ele>126.4</ele>
        <time>2021-08-21T11:36:47Z</time>
      </trkpt>
      <trkpt lat="48.35639" lon="2.73548">
        <ele>126.5</ele>
        <time>2021-08-21T11:36:48Z</time>
      </trkpt>
      <trkpt lat="48.35639" lon="2.73549">
        <ele>126.6</ele>
        <time>2021-08-21T11:36:49Z</time>
      </trkpt>
      <trkpt lat="48.35639" lon="2.73552">
        <ele>126.8</ele>
        <time>2021-08-21T11:36:50Z</time>
      </trkpt>
      <trkpt lat="48.35639" lon="2.73553">
        <ele>126.9</ele>
        <time>2021-08-21T11:36:51Z</time>
      </trkpt>
      <trkpt lat="48.3564" lon="2.73555">
        <ele>126.9</ele>
        <time>2021-08-21T11:36:52Z</time>
      </trkpt>
      <trkpt lat="48.3564" lon="2.73558">
        <ele>127.2</ele>
        <time>2021-08-21T11:36:53Z</time>
      </trkpt>
      <trkpt lat="48.3564" lon="2.73559">
        <ele>127.3</ele>
        <time>2021-08-21T11:36:54Z</time>
      </trkpt>
      <trkpt lat="48.3564" lon="2.7356">
        <ele>127.4</ele>
        <time>2021-08-21T11:36:55Z</time>
      </trkpt>
      <trkpt lat="48.35641" lon="2.73564">
        <ele>127.6</ele>
        <time>2021-08-21T11:36:56Z</time>
      </trkpt>
      <trkpt lat="48.35641" lon="2.73565">
        <ele>127.7</ele>
        <time>2021-08-21T11:36:57Z</time>
      </trkpt>
      <trkpt lat="48.35641" lon="2.73566">
        <ele>127.8</ele>
        <time>2021-08-21T11:36:58Z</time>
      </trkpt>
      <trkpt lat="48.35642" lon="2.7357">
        <ele>128.1</ele>
        <time>2021-08-21T11:36:59Z</time>
      </trkpt>
      <trkpt lat="48.35642" lon="2.73571">
        <ele>128.3</ele>
        <time>2021-08-21T11:37:00Z</time>
      </trkpt>
      <trkpt lat="48.35642" lon="2.73572">
        <ele>128.4</ele>
        <time>2021-08-21T11:37:01Z</time>
      </trkpt>
      <trkpt lat="48.35643" lon="2.73575">
        <ele>128.7</ele>
        <time>2021-08-21T11:37:02Z</time>
      </trkpt>
      <trkpt lat="48.35643" lon="2.73576">
        <ele>128.8</ele>
        <time>2021-08-21T11:37:03Z</time>
      </trkpt>
      <trkpt lat="48.35644" lon="2.73577">
        <ele>128.9</ele>
        <time>2021-08-21T11:37:04Z</time>
      </trkpt>
      <trkpt lat="48.35644" lon="2.73579">
        <ele>129.1</ele>
        <time>2021-08-21T11:37:05Z</time>
      </trkpt>
      <trkpt lat="48.35645" lon="2.7358">
        <ele>129.3</ele>
        <time>2021-08-21T11:37:06Z</time>
      </trkpt>
      <trkpt lat="48.35645" lon="2.73582">
        <ele>129.5</ele>
        <time>2021-08-21T11:37:07Z</time>
      </trkpt>
      <trkpt lat="48.35646" lon="2.73584">
        <ele>129.7</ele>
        <time>2021-08-21T11:37:08Z</time>
      </trkpt>
      <trkpt lat="48.35646" lon="2.73585">
        <ele>129.9</ele>
        <time>2021-08-21T11:37:09Z</time>
      </trkpt>
      <trkpt lat="48.35647" lon="2.73587">
        <ele>130.1</ele>
        <time>2021-08-21T11:37:10Z</time>
      </trkpt>
      <trkpt lat="48.35647" lon="2.73588">
        <ele>130.2</ele>
        <time>2021-08-21T11:37:11Z</time>
      </trkpt>
      <trkpt lat="48.35648" lon="2.7359">
        <ele>130.4</ele>
        <time>2021-08-21T11:37:12Z</time>
      </trkpt>
      <trkpt lat="48.35648" lon="2.73591">
        <ele>130.6</ele>
        <time>2021-08-21T11:37:13Z</time>
      </trkpt>
      <trkpt lat="48.35648" lon="2.73593">
        <ele>130.8</ele>
        <time>2021-08-21T11:37:14Z</time>
      </trkpt>
      <trkpt lat="48.35649" lon="2.73594">
        <ele>131</ele>
        <time>2021-08-21T11:37:15Z</time>
      </trkpt>
      <trkpt lat="48.35649" lon="2.73596">
        <ele>131.2</ele>
        <time>2021-08-21T11:37:16Z</time>
      </trkpt>
      <trkpt lat="48.35649" lon="2.73597">
        <ele>131.4</ele>
        <time>2021-08-21T11:37:17Z</time>
      </trkpt>
      <trkpt lat="48.3565" lon="2.73599">
        <ele>131.6</ele>
        <time>2021-08-21T11:37:18Z</time>
      </trkpt>
      <trkpt lat="48.3565" lon="2.736">
        <ele>131.7</ele>
        <time>2021-08-21T11:37:19Z</time>
      </trkpt>
      <trkpt lat="48.35649" lon="2.73602">
        <ele>131.9</ele>
        <time>2021-08-21T11:37:20Z</time>
      </trkpt>
      <trkpt lat="48.35649" lon="2.73603">
        <ele>132.1</ele>
        <time>2021-08-21T11:37:21Z</time>
      </trkpt>
      <trkpt lat="48.35649" lon="2.73604">
        <ele>132.2</ele>
        <time>2021-08-21T11:37:22Z</time>
      </trkpt>
      <trkpt lat="48.35649" lon="2.73605">
        <ele>132.3</ele>
        <time>2021-08-21T11:37:23Z</time>
      </trkpt>
      <trkpt lat="48.35649" lon="2.73606">
        <ele>132.5</ele>
        <time>2021-08-21T11:37:24Z</time>
      </trkpt>
      <trkpt lat="48.3565" lon="2.73607">
        <ele>132.6</ele>
        <time>2021-08-21T11:37:25Z</time>
      </trkpt>
      <trkpt lat="48.3565" lon="2.73607">
        <ele>132.6</ele>
        <time>2021-08-21T11:37:26Z</time>
      </trkpt>
      <trkpt lat="48.3565" lon="2.73608">
        <ele>132.7</ele>
        <time>2021-08-21T11:37:27Z</time>
      </trkpt>
      <trkpt lat="48.3565" lon="2.73608">
        <ele>132.8</ele>
        <time>2021-08-21T11:37:28Z</time>
      </trkpt>
      <trkpt lat="48.35651" lon="2.73608">
        <ele>132.8</ele>
        <time>2021-08-21T11:37:29Z</time>
      </trkpt>
      <trkpt lat="48.35651" lon="2.73609">
        <ele>132.9</ele>
        <time>2021-08-21T11:37:30Z</time>
      </trkpt>
      <trkpt lat="48.35651" lon="2.73609">
        <ele>133</ele>
        <time>2021-08-21T11:37:31Z</time>
      </trkpt>
      <trkpt lat="48.35651" lon="2.7361">
        <ele>133.1</ele>
        <time>2021-08-21T11:37:32Z</time>
      </trkpt>
      <trkpt lat="48.35651" lon="2.73611">
        <ele>133.2</ele>
        <time>2021-08-21T11:37:33Z</time>
      </trkpt>
      <trkpt lat="48.35652" lon="2.73611">
        <ele>133.2</ele>
        <time>2021-08-21T11:37:34Z</time>
      </trkpt>
      <trkpt lat="48.35652" lon="2.73612">
        <ele>133.3</ele>
        <time>2021-08-21T11:37:35Z</time>
      </trkpt>
      <trkpt lat="48.35652" lon="2.73612">
        <ele>133.4</ele>
        <time>2021-08-21T11:37:36Z</time>
      </trkpt>
      <trkpt lat="48.35653" lon="2.73613">
        <ele>133.5</ele>
        <time>2021-08-21T11:37:37Z</time>
      </trkpt>
      <trkpt lat="48.35653" lon="2.73613">
        <ele>133.6</ele>
        <time>2021-08-21T11:37:38Z</time>
      </trkpt>
      <trkpt lat="48.35653" lon="2.73614">
        <ele>133.7</ele>
        <time>2021-08-21T11:37:39Z</time>
      </trkpt>
      <trkpt lat="48.35654" lon="2.73614">
        <ele>133.7</ele>
        <time>2021-08-21T11:37:40Z</time>
      </trkpt>
      <trkpt lat="48.35654" lon="2.73615">
        <ele>133.8</ele>
        <time>2021-08-21T11:37:41Z</time>
      </trkpt>
      <trkpt lat="48.35654" lon="2.73615">
        <ele>133.9</ele>
        <time>2021-08-21T11:37:42Z</time>
      </trkpt>
      <trkpt lat="48.35655" lon="2.73616">
        <ele>134</ele>
        <time>2021-08-21T11:37:43Z</time>
      </trkpt>
      <trkpt lat="48.35655" lon="2.73616">
        <ele>134.1</ele>
        <time>2021-08-21T11:37:44Z</time>
      </trkpt>
      <trkpt lat="48.35656" lon="2.73617">
        <ele>134.2</ele>
        <time>2021-08-21T11:37:45Z</time>
      </trkpt>
      <trkpt lat="48.35656" lon="2.73617">
        <ele>134.2</ele>
        <time>2021-08-21T11:37:46Z</time>
      </trkpt>
      <trkpt lat="48.35656" lon="2.73618">
        <ele>134.3</ele>
        <time>2021-08-21T11:37:47Z</time>
      </trkpt>
      <trkpt lat="48.35657" lon="2.73618">
        <ele>134.4</ele>
        <time>2021-08-21T11:37:48Z</time>
      </trkpt>
      <trkpt lat="48.35657" lon="2.73619">
        <ele>134.5</ele>
        <time>2021-08-21T11:37:49Z</time>
      </trkpt>
      <trkpt lat="48.35658" lon="2.7362">
        <ele>134.6</ele>
        <time>2021-08-21T11:37:50Z</time>
      </trkpt>
      <trkpt lat="48.35658" lon="2.7362">
        <ele>134.7</ele>
        <time>2021-08-21T11:37:51Z</time>
      </trkpt>
      <trkpt lat="48.35659" lon="2.73621">
        <ele>134.8</ele>
        <time>2021-08-21T11:37:52Z</time>
      </trkpt>
      <trkpt lat="48.35659" lon="2.73622">
        <ele>135</ele>
        <time>2021-08-21T11:37:53Z</time>
      </trkpt>
      <trkpt lat="48.3566" lon="2.73622">
        <ele>135.1</ele>
        <time>2021-08-21T11:37:54Z</time>
      </trkpt>
      <trkpt lat="48.3566" lon="2.73623">
        <ele>135.2</ele>
        <time>2021-08-21T11:37:55Z</time>
      </trkpt>
      <trkpt lat="48.35661" lon="2.73624">
        <ele>135.3</ele>
        <time>2021-08-21T11:37:56Z</time>
      </trkpt>
      <trkpt lat="48.35661" lon="2.73625">
        <ele>135.4</ele>
        <time>2021-08-21T11:37:57Z</time>
      </trkpt>
      <trkpt lat="48.35662" lon="2.73625">
        <ele>135.5</ele>
        <time>2021-08-21T11:37:58Z</time>
      </trkpt>
      <trkpt lat="48.35662" lon="2.73626">
        <ele>135.6</ele>
        <time>2021-08-21T11:37:59Z</time>
      </trkpt>
      <trkpt lat="48.35663" lon="2.73627">
        <ele>135.7</ele>
        <time>2021-08-21T11:38:00Z</time>
      </trkpt>
      <trkpt lat="48.35664" lon="2.73628">
        <ele>135.8</ele>
        <time>2021-08-21T11:38:01Z</time>
      </trkpt>
      <trkpt lat="48.35665" lon="2.73629">
        <ele>136</ele>
        <time>2021-08-21T11:38:02Z</time>
      </trkpt>
      <trkpt lat="48.35665" lon="2.73631">
        <ele>136.2</ele>
        <time>2021-08-21T11:38:03Z</time>
      </trkpt>
      <trkpt lat="48.35666" lon="2.73632">
        <ele>136.3</ele>
        <time>2021-08-21T11:38:04Z</time>
      </trkpt>
      <trkpt lat="48.35667" lon="2.73633">
        <ele>136.4</ele>
        <time>2021-08-21T11:38:05Z</time>
      </trkpt>
      <trkpt lat="48.35668" lon="2.73634">
        <ele>136.5</ele>
        <time>2021-08-21T11:38:06Z</time>
      </trkpt>
      <trkpt lat="48.35669" lon="2.73635">
        <ele>136.7</ele>
        <time>2021-08-21T11:38:07Z</time>
      </trkpt>
      <trkpt lat="48.35669" lon="2.73637">
        <ele>136.8</ele>
        <time>2021-08-21T11:38:08Z</time>
      </trkpt>
      <trkpt lat="48.3567" lon="2.73638">
        <ele>136.9</ele>
        <time>2021-08-21T11:38:09Z</time>
      </trkpt>
      <trkpt lat="48.35671" lon="2.73639">
        <ele>137</ele>
        <time>2021-08-21T11:38:10Z</time>
      </trkpt>
      <trkpt lat="48.35672" lon="2.73642">
        <ele>137.2</ele>
        <time>2021-08-21T11:38:11Z</time>
      </trkpt>
      <trkpt lat="48.35673" lon="2.73643">
        <ele>137.3</ele>
        <time>2021-08-21T11:38:12Z</time>
      </trkpt>
      <trkpt lat="48.35673" lon="2.73644">
        <ele>137.4</ele>
        <time>2021-08-21T11:38:13Z</time>
      </trkpt>
      <trkpt lat="48.35675" lon="2.73646">
        <ele>137.6</ele>
        <time>2021-08-21T11:38:14Z</time>
      </trkpt>
      <trkpt lat="48.35675" lon="2.73647">
        <ele>137.6</ele>
        <time>2021-08-21T11:38:15Z</time>
      </trkpt>
      <trkpt lat="48.35676" lon="2.73648">
        <ele>137.7</ele>
        <time>2021-08-21T11:38:16Z</time>
      </trkpt>
      <trkpt lat="48.35676" lon="2.7365">
        <ele>137.8</ele>
        <time>2021-08-21T11:38:17Z</time>
      </trkpt>
      <trkpt lat="48.35677" lon="2.73651">
        <ele>137.9</ele>
        <time>2021-08-21T11:38:18Z</time>
      </trkpt>
      <trkpt lat="48.35678" lon="2.73653">
        <ele>138</ele>
        <time>2021-08-21T11:38:19Z</time>
      </trkpt>
      <trkpt lat="48.35678" lon="2.73654">
        <ele>138</ele>
        <time>2021-08-21T11:38:20Z</time>
      </trkpt>
      <trkpt lat="48.35679" lon="2.73656">
        <ele>138.1</ele>
        <time>2021-08-21T11:38:21Z</time>
      </trkpt>
      <trkpt lat="48.3568" lon="2.73658">
        <ele>138.2</ele>
        <time>2021-08-21T11:38:22Z</time>
      </trkpt>
      <trkpt lat="48.3568" lon="2.73659">
        <ele>138.3</ele>
        <time>2021-08-21T11:38:23Z</time>
      </trkpt>
      <trkpt lat="48.35681" lon="2.73661">
        <ele>138.3</ele>
        <time>2021-08-21T11:38:24Z</time>
      </trkpt>
      <trkpt lat="48.35681" lon="2.73662">
        <ele>138.4</ele>
        <time>2021-08-21T11:38:25Z</time>
      </trkpt>
      <trkpt lat="48.35682" lon="2.73664">
        <ele>138.4</ele>
        <time>2021-08-21T11:38:26Z</time>
      </trkpt>
      <trkpt lat="48.35682" lon="2.73665">
        <ele>138.5</ele>
        <time>2021-08-21T11:38:27Z</time>
      </trkpt>
      <trkpt lat="48.35682" lon="2.73667">
        <ele>138.5</ele>
        <time>2021-08-21T11:38:28Z</time>
      </trkpt>
      <trkpt lat="48.35683" lon="2.73668">
        <ele>138.5</ele>
        <time>2021-08-21T11:38:29Z</time>
      </trkpt>
      <trkpt lat="48.35683" lon="2.73669">
        <ele>138.6</ele>
        <time>2021-08-21T11:38:30Z</time>
      </trkpt>
      <trkpt lat="48.35684" lon="2.7367">
        <ele>138.6</ele>
        <time>2021-08-21T11:38:31Z</time>
      </trkpt>
      <trkpt lat="48.35684" lon="2.73671">
        <ele>138.6</ele>
        <time>2021-08-21T11:38:32Z</time>
      </trkpt>
      <trkpt lat="48.35684" lon="2.73673">
        <ele>138.7</ele>
        <time>2021-08-21T11:38:33Z</time>
      </trkpt>
      <trkpt lat="48.35685" lon="2.73674">
        <ele>138.7</ele>
        <time>2021-08-21T11:38:34Z</time>
      </trkpt>
      <trkpt lat="48.35685" lon="2.73675">
        <ele>138.7</ele>
        <time>2021-08-21T11:38:35Z</time>
      </trkpt>
      <trkpt lat="48.35685" lon="2.73676">
        <ele>138.7</ele>
        <time>2021-08-21T11:38:36Z</time>
      </trkpt>
      <trkpt lat="48.35685" lon="2.73677">
        <ele>138.8</ele>
        <time>2021-08-21T11:38:37Z</time>
      </trkpt>
      <trkpt lat="48.35686" lon="2.73679">
        <ele>138.8</ele>
        <time>2021-08-21T11:38:38Z</time>
      </trkpt>
      <trkpt lat="48.35686" lon="2.73679">
        <ele>138.8</ele>
        <time>2021-08-21T11:38:39Z</time>
      </trkpt>
      <trkpt lat="48.35686" lon="2.73679">
        <ele>138.8</ele>
        <time>2021-08-21T11:38:40Z</time>
      </trkpt>
      <trkpt lat="48.35685" lon="2.73679">
        <ele>138.8</ele>
        <time>2021-08-21T11:38:41Z</time>
      </trkpt>
      <trkpt lat="48.35685" lon="2.73679">
        <ele>138.8</ele>
        <time>2021-08-21T11:38:42Z</time>
      </trkpt>
      <trkpt lat="48.35685" lon="2.73679">
        <ele>138.8</ele>
        <time>2021-08-21T11:38:43Z</time>
      </trkpt>
      <trkpt lat="48.35684" lon="2.73678">
        <ele>138.8</ele>
        <time>2021-08-21T11:38:44Z</time>
      </trkpt>
      <trkpt lat="48.35684" lon="2.73678">
        <ele>138.8</ele>
        <time>2021-08-21T11:38:45Z</time>
      </trkpt>
      <trkpt lat="48.35684" lon="2.73677">
        <ele>138.8</ele>
        <time>2021-08-21T11:38:46Z</time>
      </trkpt>
      <trkpt lat="48.35684" lon="2.73677">
        <ele>138.8</ele>
        <time>2021-08-21T11:38:47Z</time>
      </trkpt>
      <trkpt lat="48.35684" lon="2.73677">
        <ele>138.8</ele>
        <time>2021-08-21T11:38:48Z</time>
      </trkpt>
      <trkpt lat="48.35684" lon="2.73677">
        <ele>138.8</ele>
        <time>2021-08-21T11:38:49Z</time>
      </trkpt>
      <trkpt lat="48.35684" lon="2.73677">
        <ele>138.8</ele>
        <time>2021-08-21T11:38:50Z</time>
      </trkpt>
      <trkpt lat="48.35684" lon="2.73677">
        <ele>138.8</ele>
        <time>2021-08-21T11:38:51Z</time>
      </trkpt>
      <trkpt lat="48.35684" lon="2.73677">
        <ele>138.8</ele>
        <time>2021-08-21T11:38:52Z</time>
      </trkpt>
      <trkpt lat="48.35684" lon="2.73677">
        <ele>138.8</ele>
        <time>2021-08-21T11:38:53Z</time>
      </trkpt>
      <trkpt lat="48.35684" lon="2.73677">
        <ele>138.8</ele>
        <time>2021-08-21T11:38:54Z</time>
      </trkpt>
      <trkpt lat="48.35684" lon="2.73677">
        <ele>138.8</ele>
        <time>2021-08-21T11:38:55Z</time>
      </trkpt>
      <trkpt lat="48.35684" lon="2.73677">
        <ele>138.8</ele>
        <time>2021-08-21T11:38:56Z</time>
      </trkpt>
      <trkpt lat="48.35684" lon="2.73677">
        <ele>138.8</ele>
        <time>2021-08-21T11:38:57Z</time>
      </trkpt>
      <trkpt lat="48.35684" lon="2.73677">
        <ele>138.8</ele>
        <time>2021-08-21T11:38:58Z</time>
      </trkpt>
      <trkpt lat="48.35683" lon="2.73677">
        <ele>138.8</ele>
        <time>2021-08-21T11:38:59Z</time>
      </trkpt>
      <trkpt lat="48.35683" lon="2.73677">
        <ele>138.8</ele>
        <time>2021-08-21T11:39:00Z</time>
      </trkpt>
      <trkpt lat="48.35683" lon="2.73677">
        <ele>138.8</ele>
        <time>2021-08-21T11:39:01Z</time>
      </trkpt>
      <trkpt lat="48.35683" lon="2.73677">
        <ele>138.8</ele>
        <time>2021-08-21T11:39:02Z</time>
      </trkpt>
      <trkpt lat="48.35683" lon="2.73677">
        <ele>138.8</ele>
        <time>2021-08-21T11:39:03Z</time>
      </trkpt>
      <trkpt lat="48.35683" lon="2.73677">
        <ele>138.8</ele>
        <time>2021-08-21T11:39:04Z</time>
      </trkpt>
      <trkpt lat="48.35683" lon="2.73677">
        <ele>138.8</ele>
        <time>2021-08-21T11:39:05Z</time>
      </trkpt>
      <trkpt lat="48.35683" lon="2.73677">
        <ele>138.8</ele>
        <time>2021-08-21T11:39:06Z</time>
      </trkpt>
      <trkpt lat="48.35683" lon="2.73677">
        <ele>138.9</ele>
        <time>2021-08-21T11:39:07Z</time>
      </trkpt>
      <trkpt lat="48.35683" lon="2.73678">
        <ele>138.9</ele>
        <time>2021-08-21T11:39:08Z</time>
      </trkpt>
      <trkpt lat="48.35683" lon="2.73679">
        <ele>138.9</ele>
        <time>2021-08-21T11:39:09Z</time>
      </trkpt>
      <trkpt lat="48.35683" lon="2.7368">
        <ele>138.9</ele>
        <time>2021-08-21T11:39:10Z</time>
      </trkpt>
      <trkpt lat="48.35683" lon="2.73681">
        <ele>138.9</ele>
        <time>2021-08-21T11:39:11Z</time>
      </trkpt>
      <trkpt lat="48.35683" lon="2.73682">
        <ele>138.9</ele>
        <time>2021-08-21T11:39:12Z</time>
      </trkpt>
      <trkpt lat="48.35683" lon="2.73684">
        <ele>139</ele>
        <time>2021-08-21T11:39:13Z</time>
      </trkpt>
      <trkpt lat="48.35683" lon="2.73685">
        <ele>139</ele>
        <time>2021-08-21T11:39:14Z</time>
      </trkpt>
      <trkpt lat="48.35683" lon="2.73686">
        <ele>139</ele>
        <time>2021-08-21T11:39:15Z</time>
      </trkpt>
      <trkpt lat="48.35683" lon="2.73687">
        <ele>139</ele>
        <time>2021-08-21T11:39:16Z</time>
      </trkpt>
      <trkpt lat="48.35682" lon="2.73689">
        <ele>139</ele>
        <time>2021-08-21T11:39:17Z</time>
      </trkpt>
      <trkpt lat="48.35682" lon="2.7369">
        <ele>139</ele>
        <time>2021-08-21T11:39:18Z</time>
      </trkpt>
      <trkpt lat="48.35682" lon="2.73692">
        <ele>139</ele>
        <time>2021-08-21T11:39:19Z</time>
      </trkpt>
      <trkpt lat="48.35681" lon="2.73693">
        <ele>139</ele>
        <time>2021-08-21T11:39:20Z</time>
      </trkpt>
      <trkpt lat="48.35681" lon="2.73694">
        <ele>139</ele>
        <time>2021-08-21T11:39:21Z</time>
      </trkpt>
      <trkpt lat="48.3568" lon="2.73695">
        <ele>139</ele>
        <time>2021-08-21T11:39:22Z</time>
      </trkpt>
      <trkpt lat="48.3568" lon="2.73696">
        <ele>139</ele>
        <time>2021-08-21T11:39:23Z</time>
      </trkpt>
      <trkpt lat="48.35679" lon="2.73697">
        <ele>139</ele>
        <time>2021-08-21T11:39:24Z</time>
      </trkpt>
      <trkpt lat="48.35679" lon="2.73698">
        <ele>139</ele>
        <time>2021-08-21T11:39:25Z</time>
      </trkpt>
      <trkpt lat="48.35678" lon="2.73699">
        <ele>139</ele>
        <time>2021-08-21T11:39:26Z</time>
      </trkpt>
      <trkpt lat="48.35678" lon="2.737">
        <ele>139</ele>
        <time>2021-08-21T11:39:27Z</time>
      </trkpt>
      <trkpt lat="48.35677" lon="2.73701">
        <ele>139</ele>
        <time>2021-08-21T11:39:28Z</time>
      </trkpt>
      <trkpt lat="48.35676" lon="2.73701">
        <ele>139</ele>
        <time>2021-08-21T11:39:29Z</time>
      </trkpt>
      <trkpt lat="48.35676" lon="2.73702">
        <ele>139</ele>
        <time>2021-08-21T11:39:30Z</time>
      </trkpt>
      <trkpt lat="48.35675" lon="2.73703">
        <ele>139</ele>
        <time>2021-08-21T11:39:31Z</time>
      </trkpt>
      <trkpt lat="48.35674" lon="2.73704">
        <ele>139</ele>
        <time>2021-08-21T11:39:32Z</time>
      </trkpt>
      <trkpt lat="48.35674" lon="2.73704">
        <ele>139</ele>
        <time>2021-08-21T11:39:33Z</time>
      </trkpt>
      <trkpt lat="48.35673" lon="2.73705">
        <ele>139</ele>
        <time>2021-08-21T11:39:34Z</time>
      </trkpt>
      <trkpt lat="48.35673" lon="2.73705">
        <ele>139</ele>
        <time>2021-08-21T11:39:35Z</time>
      </trkpt>
      <trkpt lat="48.35672" lon="2.73706">
        <ele>139</ele>
        <time>2021-08-21T11:39:36Z</time>
      </trkpt>
      <trkpt lat="48.35671" lon="2.73707">
        <ele>139</ele>
        <time>2021-08-21T11:39:37Z</time>
      </trkpt>
      <trkpt lat="48.3567" lon="2.73708">
        <ele>139</ele>
        <time>2021-08-21T11:39:38Z</time>
      </trkpt>
      <trkpt lat="48.35669" lon="2.73708">
        <ele>139</ele>
        <time>2021-08-21T11:39:39Z</time>
      </trkpt>
      <trkpt lat="48.35669" lon="2.73709">
        <ele>139</ele>
        <time>2021-08-21T11:39:40Z</time>
      </trkpt>
      <trkpt lat="48.35668" lon="2.7371">
        <ele>139</ele>
        <time>2021-08-21T11:39:41Z</time>
      </trkpt>
      <trkpt lat="48.35667" lon="2.73712">
        <ele>139</ele>
        <time>2021-08-21T11:39:42Z</time>
      </trkpt>
      <trkpt lat="48.35666" lon="2.73713">
        <ele>138.9</ele>
        <time>2021-08-21T11:39:43Z</time>
      </trkpt>
      <trkpt lat="48.35665" lon="2.73714">
        <ele>138.9</ele>
        <time>2021-08-21T11:39:44Z</time>
      </trkpt>
      <trkpt lat="48.35665" lon="2.73715">
        <ele>138.9</ele>
        <time>2021-08-21T11:39:45Z</time>
      </trkpt>
      <trkpt lat="48.35664" lon="2.73717">
        <ele>138.9</ele>
        <time>2021-08-21T11:39:46Z</time>
      </trkpt>
      <trkpt lat="48.35663" lon="2.73718">
        <ele>138.9</ele>
        <time>2021-08-21T11:39:47Z</time>
      </trkpt>
      <trkpt lat="48.35663" lon="2.7372">
        <ele>138.9</ele>
        <time>2021-08-21T11:39:48Z</time>
      </trkpt>
      <trkpt lat="48.35662" lon="2.73721">
        <ele>138.9</ele>
        <time>2021-08-21T11:39:49Z</time>
      </trkpt>
      <trkpt lat="48.35662" lon="2.73723">
        <ele>138.9</ele>
        <time>2021-08-21T11:39:50Z</time>
      </trkpt>
      <trkpt lat="48.35661" lon="2.73724">
        <ele>138.9</ele>
        <time>2021-08-21T11:39:51Z</time>
      </trkpt>
      <trkpt lat="48.3566" lon="2.73725">
        <ele>138.9</ele>
        <time>2021-08-21T11:39:52Z</time>
      </trkpt>
      <trkpt lat="48.35659" lon="2.73727">
        <ele>138.9</ele>
        <time>2021-08-21T11:39:53Z</time>
      </trkpt>
      <trkpt lat="48.35658" lon="2.73728">
        <ele>138.9</ele>
        <time>2021-08-21T11:39:54Z</time>
      </trkpt>
      <trkpt lat="48.35658" lon="2.73729">
        <ele>138.9</ele>
        <time>2021-08-21T11:39:55Z</time>
      </trkpt>
      <trkpt lat="48.35657" lon="2.7373">
        <ele>138.9</ele>
        <time>2021-08-21T11:39:56Z</time>
      </trkpt>
      <trkpt lat="48.35656" lon="2.73731">
        <ele>138.9</ele>
        <time>2021-08-21T11:39:57Z</time>
      </trkpt>
      <trkpt lat="48.35655" lon="2.73733">
        <ele>138.9</ele>
        <time>2021-08-21T11:39:58Z</time>
      </trkpt>
      <trkpt lat="48.35654" lon="2.73734">
        <ele>138.9</ele>
        <time>2021-08-21T11:39:59Z</time>
      </trkpt>
      <trkpt lat="48.35654" lon="2.73735">
        <ele>138.9</ele>
        <time>2021-08-21T11:40:00Z</time>
      </trkpt>
      <trkpt lat="48.35653" lon="2.73737">
        <ele>138.9</ele>
        <time>2021-08-21T11:40:01Z</time>
      </trkpt>
      <trkpt lat="48.35652" lon="2.73738">
        <ele>138.9</ele>
        <time>2021-08-21T11:40:02Z</time>
      </trkpt>
      <trkpt lat="48.35652" lon="2.73739">
        <ele>138.9</ele>
        <time>2021-08-21T11:40:03Z</time>
      </trkpt>
      <trkpt lat="48.35651" lon="2.7374">
        <ele>138.9</ele>
        <time>2021-08-21T11:40:04Z</time>
      </trkpt>
      <trkpt lat="48.35649" lon="2.73743">
        <ele>138.9</ele>
        <time>2021-08-21T11:40:05Z</time>
      </trkpt>
      <trkpt lat="48.35649" lon="2.73743">
        <ele>138.9</ele>
        <time>2021-08-21T11:40:06Z</time>
      </trkpt>
      <trkpt lat="48.35648" lon="2.73744">
        <ele>138.9</ele>
        <time>2021-08-21T11:40:07Z</time>
      </trkpt>
      <trkpt lat="48.35647" lon="2.73745">
        <ele>138.9</ele>
        <time>2021-08-21T11:40:08Z</time>
      </trkpt>
      <trkpt lat="48.35647" lon="2.73747">
        <ele>138.9</ele>
        <time>2021-08-21T11:40:09Z</time>
      </trkpt>
      <trkpt lat="48.35646" lon="2.73748">
        <ele>138.9</ele>
        <time>2021-08-21T11:40:10Z</time>
      </trkpt>
      <trkpt lat="48.35645" lon="2.73749">
        <ele>138.9</ele>
        <time>2021-08-21T11:40:11Z</time>
      </trkpt>
      <trkpt lat="48.35644" lon="2.7375">
        <ele>138.9</ele>
        <time>2021-08-21T11:40:12Z</time>
      </trkpt>
      <trkpt lat="48.35644" lon="2.73751">
        <ele>138.9</ele>
        <time>2021-08-21T11:40:13Z</time>
      </trkpt>
      <trkpt lat="48.35643" lon="2.73752">
        <ele>138.9</ele>
        <time>2021-08-21T11:40:14Z</time>
      </trkpt>
      <trkpt lat="48.35642" lon="2.73753">
        <ele>138.9</ele>
        <time>2021-08-21T11:40:15Z</time>
      </trkpt>
      <trkpt lat="48.35641" lon="2.73754">
        <ele>138.9</ele>
        <time>2021-08-21T11:40:16Z</time>
      </trkpt>
      <trkpt lat="48.35641" lon="2.73756">
        <ele>138.9</ele>
        <time>2021-08-21T11:40:17Z</time>
      </trkpt>
      <trkpt lat="48.3564" lon="2.73757">
        <ele>139</ele>
        <time>2021-08-21T11:40:18Z</time>
      </trkpt>
      <trkpt lat="48.35639" lon="2.73758">
        <ele>139</ele>
        <time>2021-08-21T11:40:19Z</time>
      </trkpt>
      <trkpt lat="48.35638" lon="2.73759">
        <ele>139</ele>
        <time>2021-08-21T11:40:20Z</time>
      </trkpt>
      <trkpt lat="48.35637" lon="2.7376">
        <ele>139</ele>
        <time>2021-08-21T11:40:21Z</time>
      </trkpt>
      <trkpt lat="48.35636" lon="2.73761">
        <ele>139</ele>
        <time>2021-08-21T11:40:22Z</time>
      </trkpt>
      <trkpt lat="48.35634" lon="2.73763">
        <ele>139</ele>
        <time>2021-08-21T11:40:23Z</time>
      </trkpt>
      <trkpt lat="48.35634" lon="2.73764">
        <ele>139</ele>
        <time>2021-08-21T11:40:24Z</time>
      </trkpt>
      <trkpt lat="48.35633" lon="2.73765">
        <ele>139</ele>
        <time>2021-08-21T11:40:25Z</time>
      </trkpt>
      <trkpt lat="48.35632" lon="2.73767">
        <ele>139</ele>
        <time>2021-08-21T11:40:26Z</time>
      </trkpt>
      <trkpt lat="48.35631" lon="2.73768">
        <ele>139</ele>
        <time>2021-08-21T11:40:27Z</time>
      </trkpt>
      <trkpt lat="48.35631" lon="2.73769">
        <ele>139</ele>
        <time>2021-08-21T11:40:28Z</time>
      </trkpt>
      <trkpt lat="48.3563" lon="2.7377">
        <ele>139</ele>
        <time>2021-08-21T11:40:29Z</time>
      </trkpt>
      <trkpt lat="48.35629" lon="2.73771">
        <ele>139</ele>
        <time>2021-08-21T11:40:30Z</time>
      </trkpt>
      <trkpt lat="48.35628" lon="2.73772">
        <ele>139</ele>
        <time>2021-08-21T11:40:31Z</time>
      </trkpt>
      <trkpt lat="48.35627" lon="2.73775">
        <ele>139</ele>
        <time>2021-08-21T11:40:32Z</time>
      </trkpt>
      <trkpt lat="48.35626" lon="2.73776">
        <ele>138.9</ele>
        <time>2021-08-21T11:40:33Z</time>
      </trkpt>
      <trkpt lat="48.35625" lon="2.73776">
        <ele>138.9</ele>
        <time>2021-08-21T11:40:34Z</time>
      </trkpt>
      <trkpt lat="48.35624" lon="2.73779">
        <ele>138.9</ele>
        <time>2021-08-21T11:40:35Z</time>
      </trkpt>
      <trkpt lat="48.35623" lon="2.73779">
        <ele>138.9</ele>
        <time>2021-08-21T11:40:36Z</time>
      </trkpt>
      <trkpt lat="48.35623" lon="2.7378">
        <ele>138.9</ele>
        <time>2021-08-21T11:40:37Z</time>
      </trkpt>
      <trkpt lat="48.35621" lon="2.73782">
        <ele>138.9</ele>
        <time>2021-08-21T11:40:38Z</time>
      </trkpt>
      <trkpt lat="48.3562" lon="2.73783">
        <ele>138.9</ele>
        <time>2021-08-21T11:40:39Z</time>
      </trkpt>
      <trkpt lat="48.3562" lon="2.73784">
        <ele>138.9</ele>
        <time>2021-08-21T11:40:40Z</time>
      </trkpt>
      <trkpt lat="48.35619" lon="2.73785">
        <ele>138.9</ele>
        <time>2021-08-21T11:40:41Z</time>
      </trkpt>
      <trkpt lat="48.35618" lon="2.73787">
        <ele>138.9</ele>
        <time>2021-08-21T11:40:42Z</time>
      </trkpt>
      <trkpt lat="48.35617" lon="2.73788">
        <ele>138.8</ele>
        <time>2021-08-21T11:40:43Z</time>
      </trkpt>
      <trkpt lat="48.35617" lon="2.73789">
        <ele>138.8</ele>
        <time>2021-08-21T11:40:44Z</time>
      </trkpt>
      <trkpt lat="48.35616" lon="2.73791">
        <ele>138.8</ele>
        <time>2021-08-21T11:40:45Z</time>
      </trkpt>
      <trkpt lat="48.35615" lon="2.73792">
        <ele>138.8</ele>
        <time>2021-08-21T11:40:46Z</time>
      </trkpt>
      <trkpt lat="48.35614" lon="2.73794">
        <ele>138.8</ele>
        <time>2021-08-21T11:40:47Z</time>
      </trkpt>
      <trkpt lat="48.35614" lon="2.73795">
        <ele>138.8</ele>
        <time>2021-08-21T11:40:48Z</time>
      </trkpt>
      <trkpt lat="48.35613" lon="2.73797">
        <ele>138.7</ele>
        <time>2021-08-21T11:40:49Z</time>
      </trkpt>
      <trkpt lat="48.35612" lon="2.73798">
        <ele>138.7</ele>
        <time>2021-08-21T11:40:50Z</time>
      </trkpt>
      <trkpt lat="48.35612" lon="2.738">
        <ele>138.7</ele>
        <time>2021-08-21T11:40:51Z</time>
      </trkpt>
      <trkpt lat="48.35611" lon="2.73801">
        <ele>138.7</ele>
        <time>2021-08-21T11:40:52Z</time>
      </trkpt>
      <trkpt lat="48.35611" lon="2.73803">
        <ele>138.7</ele>
        <time>2021-08-21T11:40:53Z</time>
      </trkpt>
      <trkpt lat="48.3561" lon="2.73804">
        <ele>138.7</ele>
        <time>2021-08-21T11:40:54Z</time>
      </trkpt>
      <trkpt lat="48.35609" lon="2.73806">
        <ele>138.6</ele>
        <time>2021-08-21T11:40:55Z</time>
      </trkpt>
      <trkpt lat="48.35609" lon="2.73807">
        <ele>138.6</ele>
        <time>2021-08-21T11:40:56Z</time>
      </trkpt>
      <trkpt lat="48.35608" lon="2.73809">
        <ele>138.6</ele>
        <time>2021-08-21T11:40:57Z</time>
      </trkpt>
      <trkpt lat="48.35607" lon="2.7381">
        <ele>138.6</ele>
        <time>2021-08-21T11:40:58Z</time>
      </trkpt>
      <trkpt lat="48.35607" lon="2.73811">
        <ele>138.6</ele>
        <time>2021-08-21T11:40:59Z</time>
      </trkpt>
      <trkpt lat="48.35606" lon="2.73813">
        <ele>138.6</ele>
        <time>2021-08-21T11:41:00Z</time>
      </trkpt>
      <trkpt lat="48.35605" lon="2.73815">
        <ele>138.5</ele>
        <time>2021-08-21T11:41:01Z</time>
      </trkpt>
      <trkpt lat="48.35604" lon="2.73817">
        <ele>138.5</ele>
        <time>2021-08-21T11:41:02Z</time>
      </trkpt>
      <trkpt lat="48.35604" lon="2.73818">
        <ele>138.5</ele>
        <time>2021-08-21T11:41:03Z</time>
      </trkpt>
      <trkpt lat="48.35603" lon="2.73821">
        <ele>138.5</ele>
        <time>2021-08-21T11:41:04Z</time>
      </trkpt>
      <trkpt lat="48.35602" lon="2.73822">
        <ele>138.5</ele>
        <time>2021-08-21T11:41:05Z</time>
      </trkpt>
      <trkpt lat="48.35602" lon="2.73823">
        <ele>138.4</ele>
        <time>2021-08-21T11:41:06Z</time>
      </trkpt>
      <trkpt lat="48.35601" lon="2.73824">
        <ele>138.4</ele>
        <time>2021-08-21T11:41:07Z</time>
      </trkpt>
      <trkpt lat="48.35601" lon="2.73826">
        <ele>138.4</ele>
        <time>2021-08-21T11:41:08Z</time>
      </trkpt>
      <trkpt lat="48.356" lon="2.73827">
        <ele>138.4</ele>
        <time>2021-08-21T11:41:09Z</time>
      </trkpt>
      <trkpt lat="48.356" lon="2.73829">
        <ele>138.4</ele>
        <time>2021-08-21T11:41:10Z</time>
      </trkpt>
      <trkpt lat="48.35599" lon="2.7383">
        <ele>138.3</ele>
        <time>2021-08-21T11:41:11Z</time>
      </trkpt>
      <trkpt lat="48.35599" lon="2.73831">
        <ele>138.3</ele>
        <time>2021-08-21T11:41:12Z</time>
      </trkpt>
      <trkpt lat="48.35598" lon="2.73833">
        <ele>138.3</ele>
        <time>2021-08-21T11:41:13Z</time>
      </trkpt>
      <trkpt lat="48.35598" lon="2.73834">
        <ele>138.2</ele>
        <time>2021-08-21T11:41:14Z</time>
      </trkpt>
      <trkpt lat="48.35598" lon="2.73836">
        <ele>138.2</ele>
        <time>2021-08-21T11:41:15Z</time>
      </trkpt>
      <trkpt lat="48.35597" lon="2.73837">
        <ele>138.2</ele>
        <time>2021-08-21T11:41:16Z</time>
      </trkpt>
      <trkpt lat="48.35597" lon="2.73838">
        <ele>138.2</ele>
        <time>2021-08-21T11:41:17Z</time>
      </trkpt>
      <trkpt lat="48.35597" lon="2.7384">
        <ele>138.2</ele>
        <time>2021-08-21T11:41:18Z</time>
      </trkpt>
      <trkpt lat="48.35596" lon="2.73841">
        <ele>138.1</ele>
        <time>2021-08-21T11:41:19Z</time>
      </trkpt>
      <trkpt lat="48.35596" lon="2.73842">
        <ele>138.1</ele>
        <time>2021-08-21T11:41:20Z</time>
      </trkpt>
      <trkpt lat="48.35595" lon="2.73844">
        <ele>138.1</ele>
        <time>2021-08-21T11:41:21Z</time>
      </trkpt>
      <trkpt lat="48.35595" lon="2.73845">
        <ele>138</ele>
        <time>2021-08-21T11:41:22Z</time>
      </trkpt>
      <trkpt lat="48.35595" lon="2.73847">
        <ele>138</ele>
        <time>2021-08-21T11:41:23Z</time>
      </trkpt>
      <trkpt lat="48.35594" lon="2.73848">
        <ele>138</ele>
        <time>2021-08-21T11:41:24Z</time>
      </trkpt>
      <trkpt lat="48.35594" lon="2.7385">
        <ele>137.9</ele>
        <time>2021-08-21T11:41:25Z</time>
      </trkpt>
      <trkpt lat="48.35594" lon="2.73852">
        <ele>137.9</ele>
        <time>2021-08-21T11:41:26Z</time>
      </trkpt>
      <trkpt lat="48.35595" lon="2.73854">
        <ele>137.9</ele>
        <time>2021-08-21T11:41:27Z</time>
      </trkpt>
      <trkpt lat="48.35595" lon="2.73857">
        <ele>137.8</ele>
        <time>2021-08-21T11:41:28Z</time>
      </trkpt>
      <trkpt lat="48.35595" lon="2.73858">
        <ele>137.8</ele>
        <time>2021-08-21T11:41:29Z</time>
      </trkpt>
      <trkpt lat="48.35595" lon="2.73859">
        <ele>137.8</ele>
        <time>2021-08-21T11:41:30Z</time>
      </trkpt>
      <trkpt lat="48.35596" lon="2.73863">
        <ele>137.7</ele>
        <time>2021-08-21T11:41:31Z</time>
      </trkpt>
      <trkpt lat="48.35596" lon="2.73864">
        <ele>137.7</ele>
        <time>2021-08-21T11:41:32Z</time>
      </trkpt>
      <trkpt lat="48.35596" lon="2.73865">
        <ele>137.7</ele>
        <time>2021-08-21T11:41:33Z</time>
      </trkpt>
      <trkpt lat="48.35597" lon="2.73868">
        <ele>137.6</ele>
        <time>2021-08-21T11:41:34Z</time>
      </trkpt>
      <trkpt lat="48.35597" lon="2.73869">
        <ele>137.6</ele>
        <time>2021-08-21T11:41:35Z</time>
      </trkpt>
      <trkpt lat="48.35597" lon="2.73871">
        <ele>137.5</ele>
        <time>2021-08-21T11:41:36Z</time>
      </trkpt>
      <trkpt lat="48.35597" lon="2.73872">
        <ele>137.5</ele>
        <time>2021-08-21T11:41:37Z</time>
      </trkpt>
      <trkpt lat="48.35597" lon="2.73874">
        <ele>137.5</ele>
        <time>2021-08-21T11:41:38Z</time>
      </trkpt>
      <trkpt lat="48.35598" lon="2.73875">
        <ele>137.5</ele>
        <time>2021-08-21T11:41:39Z</time>
      </trkpt>
      <trkpt lat="48.35598" lon="2.73877">
        <ele>137.4</ele>
        <time>2021-08-21T11:41:40Z</time>
      </trkpt>
      <trkpt lat="48.35598" lon="2.73879">
        <ele>137.4</ele>
        <time>2021-08-21T11:41:41Z</time>
      </trkpt>
      <trkpt lat="48.35598" lon="2.73881">
        <ele>137.4</ele>
        <time>2021-08-21T11:41:42Z</time>
      </trkpt>
      <trkpt lat="48.35598" lon="2.73883">
        <ele>137.4</ele>
        <time>2021-08-21T11:41:43Z</time>
      </trkpt>
      <trkpt lat="48.35598" lon="2.73884">
        <ele>137.3</ele>
        <time>2021-08-21T11:41:44Z</time>
      </trkpt>
      <trkpt lat="48.35598" lon="2.73884">
        <ele>137.3</ele>
        <time>2021-08-21T11:41:45Z</time>
      </trkpt>
      <trkpt lat="48.35598" lon="2.73884">
        <ele>137.3</ele>
        <time>2021-08-21T11:41:46Z</time>
      </trkpt>
      <trkpt lat="48.35598" lon="2.73884">
        <ele>137.3</ele>
        <time>2021-08-21T11:41:47Z</time>
      </trkpt>
      <trkpt lat="48.35598" lon="2.73884">
        <ele>137.3</ele>
        <time>2021-08-21T11:41:48Z</time>
      </trkpt>
      <trkpt lat="48.35598" lon="2.73884">
        <ele>137.3</ele>
        <time>2021-08-21T11:41:49Z</time>
      </trkpt>
      <trkpt lat="48.35598" lon="2.73884">
        <ele>137.3</ele>
        <time>2021-08-21T11:41:50Z</time>
      </trkpt>
      <trkpt lat="48.35598" lon="2.73883">
        <ele>137.3</ele>
        <time>2021-08-21T11:41:51Z</time>
      </trkpt>
      <trkpt lat="48.35598" lon="2.73883">
        <ele>137.3</ele>
        <time>2021-08-21T11:41:52Z</time>
      </trkpt>
      <trkpt lat="48.35598" lon="2.73883">
        <ele>137.3</ele>
        <time>2021-08-21T11:41:53Z</time>
      </trkpt>
      <trkpt lat="48.35598" lon="2.73884">
        <ele>137.3</ele>
        <time>2021-08-21T11:41:54Z</time>
      </trkpt>
      <trkpt lat="48.35598" lon="2.73885">
        <ele>137.3</ele>
        <time>2021-08-21T11:41:55Z</time>
      </trkpt>
      <trkpt lat="48.35598" lon="2.73886">
        <ele>137.2</ele>
        <time>2021-08-21T11:41:56Z</time>
      </trkpt>
      <trkpt lat="48.35598" lon="2.73887">
        <ele>137.2</ele>
        <time>2021-08-21T11:41:57Z</time>
      </trkpt>
      <trkpt lat="48.35598" lon="2.73888">
        <ele>137.2</ele>
        <time>2021-08-21T11:41:58Z</time>
      </trkpt>
      <trkpt lat="48.35598" lon="2.73889">
        <ele>137.2</ele>
        <time>2021-08-21T11:41:59Z</time>
      </trkpt>
      <trkpt lat="48.35598" lon="2.7389">
        <ele>137.2</ele>
        <time>2021-08-21T11:42:00Z</time>
      </trkpt>
      <trkpt lat="48.35598" lon="2.73891">
        <ele>137.2</ele>
        <time>2021-08-21T11:42:01Z</time>
      </trkpt>
      <trkpt lat="48.35598" lon="2.73893">
        <ele>137.2</ele>
        <time>2021-08-21T11:42:02Z</time>
      </trkpt>
      <trkpt lat="48.35598" lon="2.73894">
        <ele>137.2</ele>
        <time>2021-08-21T11:42:03Z</time>
      </trkpt>
      <trkpt lat="48.35598" lon="2.73895">
        <ele>137.2</ele>
        <time>2021-08-21T11:42:04Z</time>
      </trkpt>
      <trkpt lat="48.35598" lon="2.73896">
        <ele>137.2</ele>
        <time>2021-08-21T11:42:05Z</time>
      </trkpt>
      <trkpt lat="48.35598" lon="2.73897">
        <ele>137.2</ele>
        <time>2021-08-21T11:42:06Z</time>
      </trkpt>
      <trkpt lat="48.35598" lon="2.73898">
        <ele>137.2</ele>
        <time>2021-08-21T11:42:07Z</time>
      </trkpt>
      <trkpt lat="48.35598" lon="2.73899">
        <ele>137.2</ele>
        <time>2021-08-21T11:42:08Z</time>
      </trkpt>
      <trkpt lat="48.35598" lon="2.73901">
        <ele>137.2</ele>
        <time>2021-08-21T11:42:09Z</time>
      </trkpt>
      <trkpt lat="48.35598" lon="2.73902">
        <ele>137.1</ele>
        <time>2021-08-21T11:42:10Z</time>
      </trkpt>
      <trkpt lat="48.35598" lon="2.73903">
        <ele>137.1</ele>
        <time>2021-08-21T11:42:11Z</time>
      </trkpt>
      <trkpt lat="48.35598" lon="2.73904">
        <ele>137.1</ele>
        <time>2021-08-21T11:42:12Z</time>
      </trkpt>
      <trkpt lat="48.35598" lon="2.73906">
        <ele>137.1</ele>
        <time>2021-08-21T11:42:13Z</time>
      </trkpt>
      <trkpt lat="48.35598" lon="2.73908">
        <ele>137.1</ele>
        <time>2021-08-21T11:42:14Z</time>
      </trkpt>
      <trkpt lat="48.35597" lon="2.73909">
        <ele>137.1</ele>
        <time>2021-08-21T11:42:15Z</time>
      </trkpt>
      <trkpt lat="48.35597" lon="2.73911">
        <ele>137.1</ele>
        <time>2021-08-21T11:42:16Z</time>
      </trkpt>
      <trkpt lat="48.35597" lon="2.73912">
        <ele>137.1</ele>
        <time>2021-08-21T11:42:17Z</time>
      </trkpt>
      <trkpt lat="48.35597" lon="2.73914">
        <ele>137.1</ele>
        <time>2021-08-21T11:42:18Z</time>
      </trkpt>
      <trkpt lat="48.35596" lon="2.73916">
        <ele>137.1</ele>
        <time>2021-08-21T11:42:19Z</time>
      </trkpt>
      <trkpt lat="48.35596" lon="2.73917">
        <ele>137.1</ele>
        <time>2021-08-21T11:42:20Z</time>
      </trkpt>
      <trkpt lat="48.35596" lon="2.73919">
        <ele>137.1</ele>
        <time>2021-08-21T11:42:21Z</time>
      </trkpt>
      <trkpt lat="48.35595" lon="2.7392">
        <ele>137.1</ele>
        <time>2021-08-21T11:42:22Z</time>
      </trkpt>
      <trkpt lat="48.35595" lon="2.73922">
        <ele>137.1</ele>
        <time>2021-08-21T11:42:23Z</time>
      </trkpt>
      <trkpt lat="48.35594" lon="2.73923">
        <ele>137.1</ele>
        <time>2021-08-21T11:42:24Z</time>
      </trkpt>
      <trkpt lat="48.35593" lon="2.73926">
        <ele>137.1</ele>
        <time>2021-08-21T11:42:25Z</time>
      </trkpt>
      <trkpt lat="48.35593" lon="2.73927">
        <ele>137.1</ele>
        <time>2021-08-21T11:42:26Z</time>
      </trkpt>
      <trkpt lat="48.35592" lon="2.73928">
        <ele>137.1</ele>
        <time>2021-08-21T11:42:27Z</time>
      </trkpt>
      <trkpt lat="48.35592" lon="2.73929">
        <ele>137.1</ele>
        <time>2021-08-21T11:42:28Z</time>
      </trkpt>
      <trkpt lat="48.35591" lon="2.73931">
        <ele>137.1</ele>
        <time>2021-08-21T11:42:29Z</time>
      </trkpt>
      <trkpt lat="48.3559" lon="2.73932">
        <ele>137.2</ele>
        <time>2021-08-21T11:42:30Z</time>
      </trkpt>
      <trkpt lat="48.3559" lon="2.73933">
        <ele>137.2</ele>
        <time>2021-08-21T11:42:31Z</time>
      </trkpt>
      <trkpt lat="48.35589" lon="2.73934">
        <ele>137.2</ele>
        <time>2021-08-21T11:42:32Z</time>
      </trkpt>
      <trkpt lat="48.35588" lon="2.73936">
        <ele>137.2</ele>
        <time>2021-08-21T11:42:33Z</time>
      </trkpt>
      <trkpt lat="48.35588" lon="2.73937">
        <ele>137.2</ele>
        <time>2021-08-21T11:42:34Z</time>
      </trkpt>
      <trkpt lat="48.35587" lon="2.73938">
        <ele>137.2</ele>
        <time>2021-08-21T11:42:35Z</time>
      </trkpt>
      <trkpt lat="48.35587" lon="2.7394">
        <ele>137.2</ele>
        <time>2021-08-21T11:42:36Z</time>
      </trkpt>
      <trkpt lat="48.35586" lon="2.73943">
        <ele>137.2</ele>
        <time>2021-08-21T11:42:37Z</time>
      </trkpt>
      <trkpt lat="48.35586" lon="2.73944">
        <ele>137.2</ele>
        <time>2021-08-21T11:42:38Z</time>
      </trkpt>
      <trkpt lat="48.35585" lon="2.73945">
        <ele>137.2</ele>
        <time>2021-08-21T11:42:39Z</time>
      </trkpt>
      <trkpt lat="48.35585" lon="2.73948">
        <ele>137.2</ele>
        <time>2021-08-21T11:42:40Z</time>
      </trkpt>
      <trkpt lat="48.35585" lon="2.73949">
        <ele>137.2</ele>
        <time>2021-08-21T11:42:41Z</time>
      </trkpt>
      <trkpt lat="48.35584" lon="2.7395">
        <ele>137.2</ele>
        <time>2021-08-21T11:42:42Z</time>
      </trkpt>
      <trkpt lat="48.35584" lon="2.73952">
        <ele>137.2</ele>
        <time>2021-08-21T11:42:43Z</time>
      </trkpt>
      <trkpt lat="48.35584" lon="2.73954">
        <ele>137.2</ele>
        <time>2021-08-21T11:42:44Z</time>
      </trkpt>
      <trkpt lat="48.35584" lon="2.73955">
        <ele>137.3</ele>
        <time>2021-08-21T11:42:45Z</time>
      </trkpt>
      <trkpt lat="48.35584" lon="2.73957">
        <ele>137.3</ele>
        <time>2021-08-21T11:42:46Z</time>
      </trkpt>
      <trkpt lat="48.35584" lon="2.73959">
        <ele>137.3</ele>
        <time>2021-08-21T11:42:47Z</time>
      </trkpt>
      <trkpt lat="48.35584" lon="2.7396">
        <ele>137.3</ele>
        <time>2021-08-21T11:42:48Z</time>
      </trkpt>
      <trkpt lat="48.35584" lon="2.73961">
        <ele>137.3</ele>
        <time>2021-08-21T11:42:49Z</time>
      </trkpt>
      <trkpt lat="48.35584" lon="2.73963">
        <ele>137.3</ele>
        <time>2021-08-21T11:42:50Z</time>
      </trkpt>
      <trkpt lat="48.35584" lon="2.73964">
        <ele>137.3</ele>
        <time>2021-08-21T11:42:51Z</time>
      </trkpt>
      <trkpt lat="48.35584" lon="2.73966">
        <ele>137.3</ele>
        <time>2021-08-21T11:42:52Z</time>
      </trkpt>
      <trkpt lat="48.35584" lon="2.73967">
        <ele>137.3</ele>
        <time>2021-08-21T11:42:53Z</time>
      </trkpt>
      <trkpt lat="48.35584" lon="2.73969">
        <ele>137.3</ele>
        <time>2021-08-21T11:42:54Z</time>
      </trkpt>
      <trkpt lat="48.35585" lon="2.7397">
        <ele>137.3</ele>
        <time>2021-08-21T11:42:55Z</time>
      </trkpt>
      <trkpt lat="48.35585" lon="2.73972">
        <ele>137.3</ele>
        <time>2021-08-21T11:42:56Z</time>
      </trkpt>
      <trkpt lat="48.35585" lon="2.73973">
        <ele>137.3</ele>
        <time>2021-08-21T11:42:57Z</time>
      </trkpt>
      <trkpt lat="48.35585" lon="2.73975">
        <ele>137.3</ele>
        <time>2021-08-21T11:42:58Z</time>
      </trkpt>
      <trkpt lat="48.35586" lon="2.73976">
        <ele>137.3</ele>
        <time>2021-08-21T11:42:59Z</time>
      </trkpt>
      <trkpt lat="48.35586" lon="2.73978">
        <ele>137.3</ele>
        <time>2021-08-21T11:43:00Z</time>
      </trkpt>
      <trkpt lat="48.35586" lon="2.7398">
        <ele>137.3</ele>
        <time>2021-08-21T11:43:01Z</time>
      </trkpt>
      <trkpt lat="48.35586" lon="2.73981">
        <ele>137.3</ele>
        <time>2021-08-21T11:43:02Z</time>
      </trkpt>
      <trkpt lat="48.35587" lon="2.73983">
        <ele>137.3</ele>
        <time>2021-08-21T11:43:03Z</time>
      </trkpt>
      <trkpt lat="48.35587" lon="2.73985">
        <ele>137.3</ele>
        <time>2021-08-21T11:43:04Z</time>
      </trkpt>
      <trkpt lat="48.35587" lon="2.73986">
        <ele>137.3</ele>
        <time>2021-08-21T11:43:05Z</time>
      </trkpt>
      <trkpt lat="48.35587" lon="2.73988">
        <ele>137.3</ele>
        <time>2021-08-21T11:43:06Z</time>
      </trkpt>
      <trkpt lat="48.35587" lon="2.73989">
        <ele>137.3</ele>
        <time>2021-08-21T11:43:07Z</time>
      </trkpt>
      <trkpt lat="48.35587" lon="2.73991">
        <ele>137.3</ele>
        <time>2021-08-21T11:43:08Z</time>
      </trkpt>
      <trkpt lat="48.35587" lon="2.73993">
        <ele>137.3</ele>
        <time>2021-08-21T11:43:09Z</time>
      </trkpt>
      <trkpt lat="48.35587" lon="2.73994">
        <ele>137.3</ele>
        <time>2021-08-21T11:43:10Z</time>
      </trkpt>
      <trkpt lat="48.35587" lon="2.73996">
        <ele>137.3</ele>
        <time>2021-08-21T11:43:11Z</time>
      </trkpt>
      <trkpt lat="48.35587" lon="2.73997">
        <ele>137.3</ele>
        <time>2021-08-21T11:43:12Z</time>
      </trkpt>
      <trkpt lat="48.35588" lon="2.73999">
        <ele>137.3</ele>
        <time>2021-08-21T11:43:13Z</time>
      </trkpt>
      <trkpt lat="48.35588" lon="2.74001">
        <ele>137.3</ele>
        <time>2021-08-21T11:43:14Z</time>
      </trkpt>
      <trkpt lat="48.35588" lon="2.74003">
        <ele>137.3</ele>
        <time>2021-08-21T11:43:15Z</time>
      </trkpt>
      <trkpt lat="48.35588" lon="2.74006">
        <ele>137.3</ele>
        <time>2021-08-21T11:43:16Z</time>
      </trkpt>
      <trkpt lat="48.35588" lon="2.74008">
        <ele>137.3</ele>
        <time>2021-08-21T11:43:17Z</time>
      </trkpt>
      <trkpt lat="48.35588" lon="2.7401">
        <ele>137.3</ele>
        <time>2021-08-21T11:43:18Z</time>
      </trkpt>
      <trkpt lat="48.35588" lon="2.74012">
        <ele>137.3</ele>
        <time>2021-08-21T11:43:19Z</time>
      </trkpt>
      <trkpt lat="48.35588" lon="2.74015">
        <ele>137.3</ele>
        <time>2021-08-21T11:43:20Z</time>
      </trkpt>
      <trkpt lat="48.35588" lon="2.74017">
        <ele>137.3</ele>
        <time>2021-08-21T11:43:21Z</time>
      </trkpt>
      <trkpt lat="48.35588" lon="2.74019">
        <ele>137.3</ele>
        <time>2021-08-21T11:43:22Z</time>
      </trkpt>
      <trkpt lat="48.35587" lon="2.74021">
        <ele>137.3</ele>
        <time>2021-08-21T11:43:23Z</time>
      </trkpt>
      <trkpt lat="48.35587" lon="2.74023">
        <ele>137.3</ele>
        <time>2021-08-21T11:43:24Z</time>
      </trkpt>
      <trkpt lat="48.35587" lon="2.74025">
        <ele>137.3</ele>
        <time>2021-08-21T11:43:25Z</time>
      </trkpt>
      <trkpt lat="48.35587" lon="2.74027">
        <ele>137.3</ele>
        <time>2021-08-21T11:43:26Z</time>
      </trkpt>
      <trkpt lat="48.35586" lon="2.7403">
        <ele>137.3</ele>
        <time>2021-08-21T11:43:27Z</time>
      </trkpt>
      <trkpt lat="48.35586" lon="2.74031">
        <ele>137.3</ele>
        <time>2021-08-21T11:43:28Z</time>
      </trkpt>
      <trkpt lat="48.35586" lon="2.74033">
        <ele>137.2</ele>
        <time>2021-08-21T11:43:29Z</time>
      </trkpt>
      <trkpt lat="48.35585" lon="2.74035">
        <ele>137.2</ele>
        <time>2021-08-21T11:43:30Z</time>
      </trkpt>
      <trkpt lat="48.35585" lon="2.74036">
        <ele>137.2</ele>
        <time>2021-08-21T11:43:31Z</time>
      </trkpt>
      <trkpt lat="48.35584" lon="2.74038">
        <ele>137.2</ele>
        <time>2021-08-21T11:43:32Z</time>
      </trkpt>
      <trkpt lat="48.35584" lon="2.7404">
        <ele>137.2</ele>
        <time>2021-08-21T11:43:33Z</time>
      </trkpt>
      <trkpt lat="48.35584" lon="2.74041">
        <ele>137.2</ele>
        <time>2021-08-21T11:43:34Z</time>
      </trkpt>
      <trkpt lat="48.35583" lon="2.74043">
        <ele>137.2</ele>
        <time>2021-08-21T11:43:35Z</time>
      </trkpt>
      <trkpt lat="48.35583" lon="2.74044">
        <ele>137.2</ele>
        <time>2021-08-21T11:43:36Z</time>
      </trkpt>
      <trkpt lat="48.35582" lon="2.74046">
        <ele>137.2</ele>
        <time>2021-08-21T11:43:37Z</time>
      </trkpt>
      <trkpt lat="48.35582" lon="2.74047">
        <ele>137.2</ele>
        <time>2021-08-21T11:43:38Z</time>
      </trkpt>
      <trkpt lat="48.35582" lon="2.74048">
        <ele>137.2</ele>
        <time>2021-08-21T11:43:39Z</time>
      </trkpt>
      <trkpt lat="48.35581" lon="2.7405">
        <ele>137.2</ele>
        <time>2021-08-21T11:43:40Z</time>
      </trkpt>
      <trkpt lat="48.35581" lon="2.74051">
        <ele>137.2</ele>
        <time>2021-08-21T11:43:41Z</time>
      </trkpt>
      <trkpt lat="48.3558" lon="2.74053">
        <ele>137.2</ele>
        <time>2021-08-21T11:43:42Z</time>
      </trkpt>
      <trkpt lat="48.3558" lon="2.74055">
        <ele>137.1</ele>
        <time>2021-08-21T11:43:43Z</time>
      </trkpt>
      <trkpt lat="48.3558" lon="2.74056">
        <ele>137.1</ele>
        <time>2021-08-21T11:43:44Z</time>
      </trkpt>
      <trkpt lat="48.35579" lon="2.74057">
        <ele>137.1</ele>
        <time>2021-08-21T11:43:45Z</time>
      </trkpt>
      <trkpt lat="48.35579" lon="2.74058">
        <ele>137.1</ele>
        <time>2021-08-21T11:43:46Z</time>
      </trkpt>
      <trkpt lat="48.35578" lon="2.74059">
        <ele>137.1</ele>
        <time>2021-08-21T11:43:47Z</time>
      </trkpt>
      <trkpt lat="48.35578" lon="2.7406">
        <ele>137.1</ele>
        <time>2021-08-21T11:43:48Z</time>
      </trkpt>
      <trkpt lat="48.35577" lon="2.74062">
        <ele>137.1</ele>
        <time>2021-08-21T11:43:49Z</time>
      </trkpt>
      <trkpt lat="48.35577" lon="2.74063">
        <ele>137.1</ele>
        <time>2021-08-21T11:43:50Z</time>
      </trkpt>
      <trkpt lat="48.35576" lon="2.74064">
        <ele>137.1</ele>
        <time>2021-08-21T11:43:51Z</time>
      </trkpt>
      <trkpt lat="48.35576" lon="2.74066">
        <ele>137.1</ele>
        <time>2021-08-21T11:43:52Z</time>
      </trkpt>
      <trkpt lat="48.35575" lon="2.74067">
        <ele>137.1</ele>
        <time>2021-08-21T11:43:53Z</time>
      </trkpt>
      <trkpt lat="48.35575" lon="2.74069">
        <ele>137.1</ele>
        <time>2021-08-21T11:43:54Z</time>
      </trkpt>
      <trkpt lat="48.35574" lon="2.74071">
        <ele>137.1</ele>
        <time>2021-08-21T11:43:55Z</time>
      </trkpt>
      <trkpt lat="48.35574" lon="2.74072">
        <ele>137.1</ele>
        <time>2021-08-21T11:43:56Z</time>
      </trkpt>
      <trkpt lat="48.35573" lon="2.74074">
        <ele>137.1</ele>
        <time>2021-08-21T11:43:57Z</time>
      </trkpt>
      <trkpt lat="48.35573" lon="2.74075">
        <ele>137.1</ele>
        <time>2021-08-21T11:43:58Z</time>
      </trkpt>
      <trkpt lat="48.35572" lon="2.74077">
        <ele>137.1</ele>
        <time>2021-08-21T11:43:59Z</time>
      </trkpt>
      <trkpt lat="48.35572" lon="2.74079">
        <ele>137</ele>
        <time>2021-08-21T11:44:00Z</time>
      </trkpt>
      <trkpt lat="48.35571" lon="2.74081">
        <ele>137</ele>
        <time>2021-08-21T11:44:01Z</time>
      </trkpt>
      <trkpt lat="48.35571" lon="2.74082">
        <ele>137</ele>
        <time>2021-08-21T11:44:02Z</time>
      </trkpt>
      <trkpt lat="48.3557" lon="2.74084">
        <ele>137</ele>
        <time>2021-08-21T11:44:03Z</time>
      </trkpt>
      <trkpt lat="48.35569" lon="2.74087">
        <ele>137</ele>
        <time>2021-08-21T11:44:04Z</time>
      </trkpt>
      <trkpt lat="48.35569" lon="2.74088">
        <ele>137</ele>
        <time>2021-08-21T11:44:05Z</time>
      </trkpt>
      <trkpt lat="48.35568" lon="2.74089">
        <ele>137</ele>
        <time>2021-08-21T11:44:06Z</time>
      </trkpt>
      <trkpt lat="48.35567" lon="2.74092">
        <ele>137</ele>
        <time>2021-08-21T11:44:07Z</time>
      </trkpt>
      <trkpt lat="48.35567" lon="2.74093">
        <ele>137</ele>
        <time>2021-08-21T11:44:08Z</time>
      </trkpt>
      <trkpt lat="48.35566" lon="2.74094">
        <ele>137</ele>
        <time>2021-08-21T11:44:09Z</time>
      </trkpt>
      <trkpt lat="48.35565" lon="2.74095">
        <ele>137</ele>
        <time>2021-08-21T11:44:10Z</time>
      </trkpt>
      <trkpt lat="48.35565" lon="2.74097">
        <ele>137</ele>
        <time>2021-08-21T11:44:11Z</time>
      </trkpt>
      <trkpt lat="48.35564" lon="2.74098">
        <ele>137</ele>
        <time>2021-08-21T11:44:12Z</time>
      </trkpt>
      <trkpt lat="48.35563" lon="2.74099">
        <ele>137</ele>
        <time>2021-08-21T11:44:13Z</time>
      </trkpt>
      <trkpt lat="48.35562" lon="2.74101">
        <ele>137</ele>
        <time>2021-08-21T11:44:14Z</time>
      </trkpt>
      <trkpt lat="48.35562" lon="2.74102">
        <ele>137</ele>
        <time>2021-08-21T11:44:15Z</time>
      </trkpt>
      <trkpt lat="48.35561" lon="2.74104">
        <ele>137</ele>
        <time>2021-08-21T11:44:16Z</time>
      </trkpt>
      <trkpt lat="48.3556" lon="2.74106">
        <ele>137</ele>
        <time>2021-08-21T11:44:17Z</time>
      </trkpt>
      <trkpt lat="48.35559" lon="2.74107">
        <ele>137</ele>
        <time>2021-08-21T11:44:18Z</time>
      </trkpt>
      <trkpt lat="48.35558" lon="2.74109">
        <ele>137</ele>
        <time>2021-08-21T11:44:19Z</time>
      </trkpt>
      <trkpt lat="48.35558" lon="2.7411">
        <ele>137</ele>
        <time>2021-08-21T11:44:20Z</time>
      </trkpt>
      <trkpt lat="48.35557" lon="2.74111">
        <ele>137</ele>
        <time>2021-08-21T11:44:21Z</time>
      </trkpt>
      <trkpt lat="48.35556" lon="2.74113">
        <ele>137</ele>
        <time>2021-08-21T11:44:22Z</time>
      </trkpt>
      <trkpt lat="48.35555" lon="2.74114">
        <ele>137</ele>
        <time>2021-08-21T11:44:23Z</time>
      </trkpt>
      <trkpt lat="48.35555" lon="2.74115">
        <ele>137</ele>
        <time>2021-08-21T11:44:24Z</time>
      </trkpt>
      <trkpt lat="48.35553" lon="2.74118">
        <ele>137</ele>
        <time>2021-08-21T11:44:25Z</time>
      </trkpt>
      <trkpt lat="48.35552" lon="2.74118">
        <ele>137</ele>
        <time>2021-08-21T11:44:26Z</time>
      </trkpt>
      <trkpt lat="48.35552" lon="2.74119">
        <ele>136.9</ele>
        <time>2021-08-21T11:44:27Z</time>
      </trkpt>
      <trkpt lat="48.3555" lon="2.74121">
        <ele>136.9</ele>
        <time>2021-08-21T11:44:28Z</time>
      </trkpt>
      <trkpt lat="48.3555" lon="2.74122">
        <ele>136.9</ele>
        <time>2021-08-21T11:44:29Z</time>
      </trkpt>
      <trkpt lat="48.35549" lon="2.74123">
        <ele>136.9</ele>
        <time>2021-08-21T11:44:30Z</time>
      </trkpt>
      <trkpt lat="48.35548" lon="2.74125">
        <ele>136.9</ele>
        <time>2021-08-21T11:44:31Z</time>
      </trkpt>
      <trkpt lat="48.35547" lon="2.74126">
        <ele>136.9</ele>
        <time>2021-08-21T11:44:32Z</time>
      </trkpt>
      <trkpt lat="48.35547" lon="2.74127">
        <ele>136.9</ele>
        <time>2021-08-21T11:44:33Z</time>
      </trkpt>
      <trkpt lat="48.35546" lon="2.74128">
        <ele>136.9</ele>
        <time>2021-08-21T11:44:34Z</time>
      </trkpt>
      <trkpt lat="48.35545" lon="2.7413">
        <ele>136.9</ele>
        <time>2021-08-21T11:44:35Z</time>
      </trkpt>
      <trkpt lat="48.35544" lon="2.74131">
        <ele>136.9</ele>
        <time>2021-08-21T11:44:36Z</time>
      </trkpt>
      <trkpt lat="48.35543" lon="2.74133">
        <ele>136.9</ele>
        <time>2021-08-21T11:44:37Z</time>
      </trkpt>
      <trkpt lat="48.35542" lon="2.74134">
        <ele>136.9</ele>
        <time>2021-08-21T11:44:38Z</time>
      </trkpt>
      <trkpt lat="48.35541" lon="2.74135">
        <ele>136.9</ele>
        <time>2021-08-21T11:44:39Z</time>
      </trkpt>
      <trkpt lat="48.3554" lon="2.74136">
        <ele>136.9</ele>
        <time>2021-08-21T11:44:40Z</time>
      </trkpt>
      <trkpt lat="48.3554" lon="2.74138">
        <ele>136.9</ele>
        <time>2021-08-21T11:44:41Z</time>
      </trkpt>
      <trkpt lat="48.35539" lon="2.74139">
        <ele>136.9</ele>
        <time>2021-08-21T11:44:42Z</time>
      </trkpt>
      <trkpt lat="48.35538" lon="2.74141">
        <ele>136.9</ele>
        <time>2021-08-21T11:44:43Z</time>
      </trkpt>
      <trkpt lat="48.35537" lon="2.74142">
        <ele>136.9</ele>
        <time>2021-08-21T11:44:44Z</time>
      </trkpt>
      <trkpt lat="48.35537" lon="2.74143">
        <ele>136.9</ele>
        <time>2021-08-21T11:44:45Z</time>
      </trkpt>
      <trkpt lat="48.35536" lon="2.74144">
        <ele>136.9</ele>
        <time>2021-08-21T11:44:46Z</time>
      </trkpt>
      <trkpt lat="48.35535" lon="2.74145">
        <ele>136.9</ele>
        <time>2021-08-21T11:44:47Z</time>
      </trkpt>
      <trkpt lat="48.35534" lon="2.74147">
        <ele>136.9</ele>
        <time>2021-08-21T11:44:48Z</time>
      </trkpt>
      <trkpt lat="48.35533" lon="2.74148">
        <ele>136.9</ele>
        <time>2021-08-21T11:44:49Z</time>
      </trkpt>
      <trkpt lat="48.35533" lon="2.74149">
        <ele>136.9</ele>
        <time>2021-08-21T11:44:50Z</time>
      </trkpt>
      <trkpt lat="48.35532" lon="2.7415">
        <ele>136.9</ele>
        <time>2021-08-21T11:44:51Z</time>
      </trkpt>
      <trkpt lat="48.35531" lon="2.74151">
        <ele>136.9</ele>
        <time>2021-08-21T11:44:52Z</time>
      </trkpt>
      <trkpt lat="48.35531" lon="2.74152">
        <ele>136.9</ele>
        <time>2021-08-21T11:44:53Z</time>
      </trkpt>
      <trkpt lat="48.3553" lon="2.74153">
        <ele>136.9</ele>
        <time>2021-08-21T11:44:54Z</time>
      </trkpt>
      <trkpt lat="48.35529" lon="2.74154">
        <ele>136.9</ele>
        <time>2021-08-21T11:44:55Z</time>
      </trkpt>
      <trkpt lat="48.35528" lon="2.74155">
        <ele>136.9</ele>
        <time>2021-08-21T11:44:56Z</time>
      </trkpt>
      <trkpt lat="48.35527" lon="2.74156">
        <ele>136.9</ele>
        <time>2021-08-21T11:44:57Z</time>
      </trkpt>
      <trkpt lat="48.35526" lon="2.74157">
        <ele>136.9</ele>
        <time>2021-08-21T11:44:58Z</time>
      </trkpt>
      <trkpt lat="48.35526" lon="2.74158">
        <ele>136.9</ele>
        <time>2021-08-21T11:44:59Z</time>
      </trkpt>
      <trkpt lat="48.35525" lon="2.74159">
        <ele>136.9</ele>
        <time>2021-08-21T11:45:00Z</time>
      </trkpt>
      <trkpt lat="48.35524" lon="2.7416">
        <ele>136.9</ele>
        <time>2021-08-21T11:45:01Z</time>
      </trkpt>
      <trkpt lat="48.35523" lon="2.74161">
        <ele>136.9</ele>
        <time>2021-08-21T11:45:02Z</time>
      </trkpt>
      <trkpt lat="48.35522" lon="2.74163">
        <ele>136.9</ele>
        <time>2021-08-21T11:45:03Z</time>
      </trkpt>
      <trkpt lat="48.35521" lon="2.74164">
        <ele>136.9</ele>
        <time>2021-08-21T11:45:04Z</time>
      </trkpt>
      <trkpt lat="48.3552" lon="2.74164">
        <ele>136.9</ele>
        <time>2021-08-21T11:45:05Z</time>
      </trkpt>
      <trkpt lat="48.3552" lon="2.74165">
        <ele>136.9</ele>
        <time>2021-08-21T11:45:06Z</time>
      </trkpt>
      <trkpt lat="48.35519" lon="2.74166">
        <ele>136.9</ele>
        <time>2021-08-21T11:45:07Z</time>
      </trkpt>
      <trkpt lat="48.35518" lon="2.74167">
        <ele>136.9</ele>
        <time>2021-08-21T11:45:08Z</time>
      </trkpt>
      <trkpt lat="48.35517" lon="2.74168">
        <ele>136.8</ele>
        <time>2021-08-21T11:45:09Z</time>
      </trkpt>
      <trkpt lat="48.35516" lon="2.74169">
        <ele>136.8</ele>
        <time>2021-08-21T11:45:10Z</time>
      </trkpt>
      <trkpt lat="48.35515" lon="2.7417">
        <ele>136.8</ele>
        <time>2021-08-21T11:45:11Z</time>
      </trkpt>
      <trkpt lat="48.35514" lon="2.74171">
        <ele>136.8</ele>
        <time>2021-08-21T11:45:12Z</time>
      </trkpt>
      <trkpt lat="48.35513" lon="2.74173">
        <ele>136.8</ele>
        <time>2021-08-21T11:45:13Z</time>
      </trkpt>
      <trkpt lat="48.35512" lon="2.74173">
        <ele>136.8</ele>
        <time>2021-08-21T11:45:14Z</time>
      </trkpt>
      <trkpt lat="48.35511" lon="2.74174">
        <ele>136.8</ele>
        <time>2021-08-21T11:45:15Z</time>
      </trkpt>
      <trkpt lat="48.35509" lon="2.74176">
        <ele>136.7</ele>
        <time>2021-08-21T11:45:16Z</time>
      </trkpt>
      <trkpt lat="48.35509" lon="2.74176">
        <ele>136.7</ele>
        <time>2021-08-21T11:45:17Z</time>
      </trkpt>
      <trkpt lat="48.35508" lon="2.74177">
        <ele>136.7</ele>
        <time>2021-08-21T11:45:18Z</time>
      </trkpt>
      <trkpt lat="48.35507" lon="2.74178">
        <ele>136.7</ele>
        <time>2021-08-21T11:45:19Z</time>
      </trkpt>
      <trkpt lat="48.35506" lon="2.74179">
        <ele>136.7</ele>
        <time>2021-08-21T11:45:20Z</time>
      </trkpt>
      <trkpt lat="48.35505" lon="2.74179">
        <ele>136.7</ele>
        <time>2021-08-21T11:45:21Z</time>
      </trkpt>
      <trkpt lat="48.35504" lon="2.7418">
        <ele>136.6</ele>
        <time>2021-08-21T11:45:22Z</time>
      </trkpt>
      <trkpt lat="48.35503" lon="2.74181">
        <ele>136.6</ele>
        <time>2021-08-21T11:45:23Z</time>
      </trkpt>
      <trkpt lat="48.35502" lon="2.74182">
        <ele>136.6</ele>
        <time>2021-08-21T11:45:24Z</time>
      </trkpt>
      <trkpt lat="48.35501" lon="2.74183">
        <ele>136.6</ele>
        <time>2021-08-21T11:45:25Z</time>
      </trkpt>
      <trkpt lat="48.355" lon="2.74184">
        <ele>136.6</ele>
        <time>2021-08-21T11:45:26Z</time>
      </trkpt>
      <trkpt lat="48.35499" lon="2.74184">
        <ele>136.6</ele>
        <time>2021-08-21T11:45:27Z</time>
      </trkpt>
      <trkpt lat="48.35499" lon="2.74185">
        <ele>136.5</ele>
        <time>2021-08-21T11:45:28Z</time>
      </trkpt>
      <trkpt lat="48.35498" lon="2.74185">
        <ele>136.5</ele>
        <time>2021-08-21T11:45:29Z</time>
      </trkpt>
      <trkpt lat="48.35497" lon="2.74186">
        <ele>136.5</ele>
        <time>2021-08-21T11:45:30Z</time>
      </trkpt>
      <trkpt lat="48.35496" lon="2.74187">
        <ele>136.5</ele>
        <time>2021-08-21T11:45:31Z</time>
      </trkpt>
      <trkpt lat="48.35495" lon="2.74187">
        <ele>136.5</ele>
        <time>2021-08-21T11:45:32Z</time>
      </trkpt>
      <trkpt lat="48.35494" lon="2.74188">
        <ele>136.5</ele>
        <time>2021-08-21T11:45:33Z</time>
      </trkpt>
      <trkpt lat="48.35493" lon="2.74189">
        <ele>136.4</ele>
        <time>2021-08-21T11:45:34Z</time>
      </trkpt>
      <trkpt lat="48.35492" lon="2.74189">
        <ele>136.4</ele>
        <time>2021-08-21T11:45:35Z</time>
      </trkpt>
      <trkpt lat="48.35491" lon="2.7419">
        <ele>136.4</ele>
        <time>2021-08-21T11:45:36Z</time>
      </trkpt>
      <trkpt lat="48.3549" lon="2.74191">
        <ele>136.4</ele>
        <time>2021-08-21T11:45:37Z</time>
      </trkpt>
      <trkpt lat="48.35489" lon="2.74192">
        <ele>136.4</ele>
        <time>2021-08-21T11:45:38Z</time>
      </trkpt>
      <trkpt lat="48.35488" lon="2.74193">
        <ele>136.3</ele>
        <time>2021-08-21T11:45:39Z</time>
      </trkpt>
      <trkpt lat="48.35487" lon="2.74194">
        <ele>136.3</ele>
        <time>2021-08-21T11:45:40Z</time>
      </trkpt>
      <trkpt lat="48.35487" lon="2.74194">
        <ele>136.3</ele>
        <time>2021-08-21T11:45:41Z</time>
      </trkpt>
      <trkpt lat="48.35487" lon="2.74195">
        <ele>136.3</ele>
        <time>2021-08-21T11:45:42Z</time>
      </trkpt>
      <trkpt lat="48.35487" lon="2.74195">
        <ele>136.3</ele>
        <time>2021-08-21T11:45:43Z</time>
      </trkpt>
      <trkpt lat="48.35486" lon="2.74196">
        <ele>136.3</ele>
        <time>2021-08-21T11:45:44Z</time>
      </trkpt>
      <trkpt lat="48.35486" lon="2.74196">
        <ele>136.2</ele>
        <time>2021-08-21T11:45:45Z</time>
      </trkpt>
      <trkpt lat="48.35485" lon="2.74196">
        <ele>136.2</ele>
        <time>2021-08-21T11:45:46Z</time>
      </trkpt>
      <trkpt lat="48.35485" lon="2.74196">
        <ele>136.2</ele>
        <time>2021-08-21T11:45:47Z</time>
      </trkpt>
      <trkpt lat="48.35486" lon="2.74196">
        <ele>136.2</ele>
        <time>2021-08-21T11:45:48Z</time>
      </trkpt>
      <trkpt lat="48.35486" lon="2.74196">
        <ele>136.2</ele>
        <time>2021-08-21T11:45:49Z</time>
      </trkpt>
      <trkpt lat="48.35486" lon="2.74196">
        <ele>136.2</ele>
        <time>2021-08-21T11:45:50Z</time>
      </trkpt>
      <trkpt lat="48.35486" lon="2.74197">
        <ele>136.2</ele>
        <time>2021-08-21T11:45:51Z</time>
      </trkpt>
      <trkpt lat="48.35485" lon="2.74197">
        <ele>136.1</ele>
        <time>2021-08-21T11:45:52Z</time>
      </trkpt>
      <trkpt lat="48.35485" lon="2.74198">
        <ele>136.1</ele>
        <time>2021-08-21T11:45:53Z</time>
      </trkpt>
      <trkpt lat="48.35484" lon="2.74198">
        <ele>136.1</ele>
        <time>2021-08-21T11:45:54Z</time>
      </trkpt>
      <trkpt lat="48.35484" lon="2.74198">
        <ele>136.1</ele>
        <time>2021-08-21T11:45:55Z</time>
      </trkpt>
      <trkpt lat="48.35484" lon="2.74198">
        <ele>136.1</ele>
        <time>2021-08-21T11:45:56Z</time>
      </trkpt>
      <trkpt lat="48.35484" lon="2.74198">
        <ele>136.1</ele>
        <time>2021-08-21T11:45:57Z</time>
      </trkpt>
      <trkpt lat="48.35484" lon="2.74198">
        <ele>136.1</ele>
        <time>2021-08-21T11:45:58Z</time>
      </trkpt>
      <trkpt lat="48.35484" lon="2.74199">
        <ele>136.1</ele>
        <time>2021-08-21T11:45:59Z</time>
      </trkpt>
      <trkpt lat="48.35484" lon="2.74199">
        <ele>136.1</ele>
        <time>2021-08-21T11:46:00Z</time>
      </trkpt>
      <trkpt lat="48.35484" lon="2.74198">
        <ele>136</ele>
        <time>2021-08-21T11:46:01Z</time>
      </trkpt>
      <trkpt lat="48.35484" lon="2.74198">
        <ele>136</ele>
        <time>2021-08-21T11:46:02Z</time>
      </trkpt>
      <trkpt lat="48.35484" lon="2.74198">
        <ele>136</ele>
        <time>2021-08-21T11:46:03Z</time>
      </trkpt>
      <trkpt lat="48.35483" lon="2.74199">
        <ele>136</ele>
        <time>2021-08-21T11:46:04Z</time>
      </trkpt>
      <trkpt lat="48.35483" lon="2.74199">
        <ele>136</ele>
        <time>2021-08-21T11:46:05Z</time>
      </trkpt>
      <trkpt lat="48.35483" lon="2.74199">
        <ele>136</ele>
        <time>2021-08-21T11:46:06Z</time>
      </trkpt>
      <trkpt lat="48.35483" lon="2.74199">
        <ele>136</ele>
        <time>2021-08-21T11:46:07Z</time>
      </trkpt>
      <trkpt lat="48.35483" lon="2.74199">
        <ele>136</ele>
        <time>2021-08-21T11:46:08Z</time>
      </trkpt>
      <trkpt lat="48.35483" lon="2.74199">
        <ele>136</ele>
        <time>2021-08-21T11:46:09Z</time>
      </trkpt>
      <trkpt lat="48.35483" lon="2.74199">
        <ele>136</ele>
        <time>2021-08-21T11:46:10Z</time>
      </trkpt>
      <trkpt lat="48.35483" lon="2.74199">
        <ele>136</ele>
        <time>2021-08-21T11:46:11Z</time>
      </trkpt>
      <trkpt lat="48.35483" lon="2.74199">
        <ele>136</ele>
        <time>2021-08-21T11:46:12Z</time>
      </trkpt>
      <trkpt lat="48.35482" lon="2.74199">
        <ele>136</ele>
        <time>2021-08-21T11:46:13Z</time>
      </trkpt>
      <trkpt lat="48.35482" lon="2.74199">
        <ele>136</ele>
        <time>2021-08-21T11:46:14Z</time>
      </trkpt>
      <trkpt lat="48.35482" lon="2.742">
        <ele>136</ele>
        <time>2021-08-21T11:46:15Z</time>
      </trkpt>
      <trkpt lat="48.35482" lon="2.742">
        <ele>136</ele>
        <time>2021-08-21T11:46:16Z</time>
      </trkpt>
      <trkpt lat="48.35482" lon="2.742">
        <ele>136</ele>
        <time>2021-08-21T11:46:17Z</time>
      </trkpt>
      <trkpt lat="48.35482" lon="2.742">
        <ele>136</ele>
        <time>2021-08-21T11:46:18Z</time>
      </trkpt>
      <trkpt lat="48.35482" lon="2.742">
        <ele>136</ele>
        <time>2021-08-21T11:46:19Z</time>
      </trkpt>
      <trkpt lat="48.35482" lon="2.742">
        <ele>136</ele>
        <time>2021-08-21T11:46:20Z</time>
      </trkpt>
      <trkpt lat="48.35482" lon="2.742">
        <ele>135.9</ele>
        <time>2021-08-21T11:46:21Z</time>
      </trkpt>
      <trkpt lat="48.35482" lon="2.742">
        <ele>135.9</ele>
        <time>2021-08-21T11:46:22Z</time>
      </trkpt>
      <trkpt lat="48.35481" lon="2.742">
        <ele>135.9</ele>
        <time>2021-08-21T11:46:23Z</time>
      </trkpt>
      <trkpt lat="48.35481" lon="2.742">
        <ele>135.9</ele>
        <time>2021-08-21T11:46:24Z</time>
      </trkpt>
      <trkpt lat="48.35481" lon="2.742">
        <ele>135.9</ele>
        <time>2021-08-21T11:46:25Z</time>
      </trkpt>
      <trkpt lat="48.35481" lon="2.742">
        <ele>135.9</ele>
        <time>2021-08-21T11:46:26Z</time>
      </trkpt>
      <trkpt lat="48.35481" lon="2.74201">
        <ele>135.9</ele>
        <time>2021-08-21T11:46:27Z</time>
      </trkpt>
      <trkpt lat="48.35481" lon="2.74201">
        <ele>135.9</ele>
        <time>2021-08-21T11:46:28Z</time>
      </trkpt>
      <trkpt lat="48.35481" lon="2.74201">
        <ele>135.9</ele>
        <time>2021-08-21T11:46:29Z</time>
      </trkpt>
      <trkpt lat="48.35481" lon="2.74201">
        <ele>135.9</ele>
        <time>2021-08-21T11:46:30Z</time>
      </trkpt>
      <trkpt lat="48.35481" lon="2.74201">
        <ele>135.9</ele>
        <time>2021-08-21T11:46:31Z</time>
      </trkpt>
      <trkpt lat="48.35479" lon="2.742">
        <ele>135.8</ele>
        <time>2021-08-21T11:46:32Z</time>
      </trkpt>
      <trkpt lat="48.35478" lon="2.742">
        <ele>135.8</ele>
        <time>2021-08-21T11:46:33Z</time>
      </trkpt>
      <trkpt lat="48.35477" lon="2.742">
        <ele>135.7</ele>
        <time>2021-08-21T11:46:34Z</time>
      </trkpt>
      <trkpt lat="48.35476" lon="2.742">
        <ele>135.7</ele>
        <time>2021-08-21T11:46:35Z</time>
      </trkpt>
      <trkpt lat="48.35475" lon="2.742">
        <ele>135.6</ele>
        <time>2021-08-21T11:46:36Z</time>
      </trkpt>
      <trkpt lat="48.35474" lon="2.742">
        <ele>135.5</ele>
        <time>2021-08-21T11:46:37Z</time>
      </trkpt>
      <trkpt lat="48.35472" lon="2.742">
        <ele>135.5</ele>
        <time>2021-08-21T11:46:38Z</time>
      </trkpt>
      <trkpt lat="48.35471" lon="2.742">
        <ele>135.4</ele>
        <time>2021-08-21T11:46:39Z</time>
      </trkpt>
      <trkpt lat="48.35471" lon="2.742">
        <ele>135.4</ele>
        <time>2021-08-21T11:46:40Z</time>
      </trkpt>
      <trkpt lat="48.3547" lon="2.742">
        <ele>135.3</ele>
        <time>2021-08-21T11:46:41Z</time>
      </trkpt>
      <trkpt lat="48.35469" lon="2.742">
        <ele>135.2</ele>
        <time>2021-08-21T11:46:42Z</time>
      </trkpt>
      <trkpt lat="48.35468" lon="2.742">
        <ele>135.2</ele>
        <time>2021-08-21T11:46:43Z</time>
      </trkpt>
      <trkpt lat="48.35467" lon="2.742">
        <ele>135.1</ele>
        <time>2021-08-21T11:46:44Z</time>
      </trkpt>
      <trkpt lat="48.35466" lon="2.74201">
        <ele>135</ele>
        <time>2021-08-21T11:46:45Z</time>
      </trkpt>
      <trkpt lat="48.35464" lon="2.74201">
        <ele>134.9</ele>
        <time>2021-08-21T11:46:46Z</time>
      </trkpt>
      <trkpt lat="48.35463" lon="2.74201">
        <ele>134.9</ele>
        <time>2021-08-21T11:46:47Z</time>
      </trkpt>
      <trkpt lat="48.35463" lon="2.74201">
        <ele>134.8</ele>
        <time>2021-08-21T11:46:48Z</time>
      </trkpt>
      <trkpt lat="48.35462" lon="2.742">
        <ele>134.7</ele>
        <time>2021-08-21T11:46:49Z</time>
      </trkpt>
      <trkpt lat="48.35461" lon="2.742">
        <ele>134.7</ele>
        <time>2021-08-21T11:46:50Z</time>
      </trkpt>
      <trkpt lat="48.35461" lon="2.742">
        <ele>134.6</ele>
        <time>2021-08-21T11:46:51Z</time>
      </trkpt>
      <trkpt lat="48.3546" lon="2.74199">
        <ele>134.6</ele>
        <time>2021-08-21T11:46:52Z</time>
      </trkpt>
      <trkpt lat="48.35459" lon="2.74199">
        <ele>134.5</ele>
        <time>2021-08-21T11:46:53Z</time>
      </trkpt>
      <trkpt lat="48.35458" lon="2.74199">
        <ele>134.4</ele>
        <time>2021-08-21T11:46:54Z</time>
      </trkpt>
      <trkpt lat="48.35457" lon="2.74198">
        <ele>134.4</ele>
        <time>2021-08-21T11:46:55Z</time>
      </trkpt>
      <trkpt lat="48.35456" lon="2.74198">
        <ele>134.3</ele>
        <time>2021-08-21T11:46:56Z</time>
      </trkpt>
      <trkpt lat="48.35456" lon="2.74197">
        <ele>134.2</ele>
        <time>2021-08-21T11:46:57Z</time>
      </trkpt>
      <trkpt lat="48.35455" lon="2.74197">
        <ele>134.2</ele>
        <time>2021-08-21T11:46:58Z</time>
      </trkpt>
      <trkpt lat="48.35454" lon="2.74196">
        <ele>134.1</ele>
        <time>2021-08-21T11:46:59Z</time>
      </trkpt>
      <trkpt lat="48.35453" lon="2.74196">
        <ele>134</ele>
        <time>2021-08-21T11:47:00Z</time>
      </trkpt>
      <trkpt lat="48.35452" lon="2.74195">
        <ele>133.9</ele>
        <time>2021-08-21T11:47:01Z</time>
      </trkpt>
      <trkpt lat="48.35451" lon="2.74195">
        <ele>133.9</ele>
        <time>2021-08-21T11:47:02Z</time>
      </trkpt>
      <trkpt lat="48.3545" lon="2.74195">
        <ele>133.8</ele>
        <time>2021-08-21T11:47:03Z</time>
      </trkpt>
      <trkpt lat="48.35449" lon="2.74194">
        <ele>133.7</ele>
        <time>2021-08-21T11:47:04Z</time>
      </trkpt>
      <trkpt lat="48.35448" lon="2.74194">
        <ele>133.6</ele>
        <time>2021-08-21T11:47:05Z</time>
      </trkpt>
      <trkpt lat="48.35447" lon="2.74194">
        <ele>133.5</ele>
        <time>2021-08-21T11:47:06Z</time>
      </trkpt>
      <trkpt lat="48.35446" lon="2.74194">
        <ele>133.5</ele>
        <time>2021-08-21T11:47:07Z</time>
      </trkpt>
      <trkpt lat="48.35445" lon="2.74193">
        <ele>133.4</ele>
        <time>2021-08-21T11:47:08Z</time>
      </trkpt>
      <trkpt lat="48.35444" lon="2.74193">
        <ele>133.3</ele>
        <time>2021-08-21T11:47:09Z</time>
      </trkpt>
      <trkpt lat="48.35443" lon="2.74193">
        <ele>133.2</ele>
        <time>2021-08-21T11:47:10Z</time>
      </trkpt>
      <trkpt lat="48.35442" lon="2.74193">
        <ele>133.1</ele>
        <time>2021-08-21T11:47:11Z</time>
      </trkpt>
      <trkpt lat="48.35441" lon="2.74193">
        <ele>133.1</ele>
        <time>2021-08-21T11:47:12Z</time>
      </trkpt>
      <trkpt lat="48.3544" lon="2.74192">
        <ele>133</ele>
        <time>2021-08-21T11:47:13Z</time>
      </trkpt>
      <trkpt lat="48.35439" lon="2.74192">
        <ele>132.9</ele>
        <time>2021-08-21T11:47:14Z</time>
      </trkpt>
      <trkpt lat="48.35437" lon="2.74192">
        <ele>132.8</ele>
        <time>2021-08-21T11:47:15Z</time>
      </trkpt>
      <trkpt lat="48.35436" lon="2.74192">
        <ele>132.7</ele>
        <time>2021-08-21T11:47:16Z</time>
      </trkpt>
      <trkpt lat="48.35435" lon="2.74192">
        <ele>132.6</ele>
        <time>2021-08-21T11:47:17Z</time>
      </trkpt>
      <trkpt lat="48.35434" lon="2.74192">
        <ele>132.5</ele>
        <time>2021-08-21T11:47:18Z</time>
      </trkpt>
      <trkpt lat="48.35433" lon="2.74192">
        <ele>132.4</ele>
        <time>2021-08-21T11:47:19Z</time>
      </trkpt>
      <trkpt lat="48.35432" lon="2.74192">
        <ele>132.3</ele>
        <time>2021-08-21T11:47:20Z</time>
      </trkpt>
      <trkpt lat="48.3543" lon="2.74192">
        <ele>132.2</ele>
        <time>2021-08-21T11:47:21Z</time>
      </trkpt>
      <trkpt lat="48.35429" lon="2.74193">
        <ele>132.1</ele>
        <time>2021-08-21T11:47:22Z</time>
      </trkpt>
      <trkpt lat="48.35427" lon="2.74194">
        <ele>131.9</ele>
        <time>2021-08-21T11:47:23Z</time>
      </trkpt>
      <trkpt lat="48.35426" lon="2.74194">
        <ele>131.8</ele>
        <time>2021-08-21T11:47:24Z</time>
      </trkpt>
      <trkpt lat="48.35426" lon="2.74194">
        <ele>131.7</ele>
        <time>2021-08-21T11:47:25Z</time>
      </trkpt>
      <trkpt lat="48.35424" lon="2.74195">
        <ele>131.5</ele>
        <time>2021-08-21T11:47:26Z</time>
      </trkpt>
      <trkpt lat="48.35423" lon="2.74196">
        <ele>131.5</ele>
        <time>2021-08-21T11:47:27Z</time>
      </trkpt>
      <trkpt lat="48.35422" lon="2.74196">
        <ele>131.4</ele>
        <time>2021-08-21T11:47:28Z</time>
      </trkpt>
      <trkpt lat="48.3542" lon="2.74197">
        <ele>131.2</ele>
        <time>2021-08-21T11:47:29Z</time>
      </trkpt>
      <trkpt lat="48.35419" lon="2.74198">
        <ele>131.1</ele>
        <time>2021-08-21T11:47:30Z</time>
      </trkpt>
      <trkpt lat="48.35419" lon="2.74198">
        <ele>131.1</ele>
        <time>2021-08-21T11:47:31Z</time>
      </trkpt>
      <trkpt lat="48.35417" lon="2.74199">
        <ele>130.9</ele>
        <time>2021-08-21T11:47:32Z</time>
      </trkpt>
      <trkpt lat="48.35416" lon="2.742">
        <ele>130.8</ele>
        <time>2021-08-21T11:47:33Z</time>
      </trkpt>
      <trkpt lat="48.35415" lon="2.74201">
        <ele>130.7</ele>
        <time>2021-08-21T11:47:34Z</time>
      </trkpt>
      <trkpt lat="48.35413" lon="2.74202">
        <ele>130.6</ele>
        <time>2021-08-21T11:47:35Z</time>
      </trkpt>
      <trkpt lat="48.35412" lon="2.74203">
        <ele>130.4</ele>
        <time>2021-08-21T11:47:36Z</time>
      </trkpt>
      <trkpt lat="48.35411" lon="2.74204">
        <ele>130.3</ele>
        <time>2021-08-21T11:47:37Z</time>
      </trkpt>
      <trkpt lat="48.3541" lon="2.74204">
        <ele>130.2</ele>
        <time>2021-08-21T11:47:38Z</time>
      </trkpt>
      <trkpt lat="48.35409" lon="2.74205">
        <ele>130.1</ele>
        <time>2021-08-21T11:47:39Z</time>
      </trkpt>
      <trkpt lat="48.35408" lon="2.74206">
        <ele>130</ele>
        <time>2021-08-21T11:47:40Z</time>
      </trkpt>
      <trkpt lat="48.35406" lon="2.74208">
        <ele>129.9</ele>
        <time>2021-08-21T11:47:41Z</time>
      </trkpt>
      <trkpt lat="48.35406" lon="2.74209">
        <ele>129.8</ele>
        <time>2021-08-21T11:47:42Z</time>
      </trkpt>
      <trkpt lat="48.35405" lon="2.74209">
        <ele>129.7</ele>
        <time>2021-08-21T11:47:43Z</time>
      </trkpt>
      <trkpt lat="48.35404" lon="2.7421">
        <ele>129.6</ele>
        <time>2021-08-21T11:47:44Z</time>
      </trkpt>
      <trkpt lat="48.35403" lon="2.74211">
        <ele>129.6</ele>
        <time>2021-08-21T11:47:45Z</time>
      </trkpt>
      <trkpt lat="48.35402" lon="2.74212">
        <ele>129.5</ele>
        <time>2021-08-21T11:47:46Z</time>
      </trkpt>
      <trkpt lat="48.35401" lon="2.74212">
        <ele>129.4</ele>
        <time>2021-08-21T11:47:47Z</time>
      </trkpt>
      <trkpt lat="48.354" lon="2.74213">
        <ele>129.3</ele>
        <time>2021-08-21T11:47:48Z</time>
      </trkpt>
      <trkpt lat="48.354" lon="2.74214">
        <ele>129.3</ele>
        <time>2021-08-21T11:47:49Z</time>
      </trkpt>
      <trkpt lat="48.35399" lon="2.74215">
        <ele>129.2</ele>
        <time>2021-08-21T11:47:50Z</time>
      </trkpt>
      <trkpt lat="48.35399" lon="2.74217">
        <ele>129.1</ele>
        <time>2021-08-21T11:47:51Z</time>
      </trkpt>
      <trkpt lat="48.35398" lon="2.74218">
        <ele>129.1</ele>
        <time>2021-08-21T11:47:52Z</time>
      </trkpt>
      <trkpt lat="48.35397" lon="2.74219">
        <ele>129</ele>
        <time>2021-08-21T11:47:53Z</time>
      </trkpt>
      <trkpt lat="48.35397" lon="2.74221">
        <ele>129</ele>
        <time>2021-08-21T11:47:54Z</time>
      </trkpt>
      <trkpt lat="48.35396" lon="2.74222">
        <ele>128.9</ele>
        <time>2021-08-21T11:47:55Z</time>
      </trkpt>
      <trkpt lat="48.35396" lon="2.74223">
        <ele>128.9</ele>
        <time>2021-08-21T11:47:56Z</time>
      </trkpt>
      <trkpt lat="48.35395" lon="2.74224">
        <ele>128.8</ele>
        <time>2021-08-21T11:47:57Z</time>
      </trkpt>
      <trkpt lat="48.35395" lon="2.74226">
        <ele>128.8</ele>
        <time>2021-08-21T11:47:58Z</time>
      </trkpt>
      <trkpt lat="48.35395" lon="2.74227">
        <ele>128.7</ele>
        <time>2021-08-21T11:47:59Z</time>
      </trkpt>
      <trkpt lat="48.35394" lon="2.74228">
        <ele>128.7</ele>
        <time>2021-08-21T11:48:00Z</time>
      </trkpt>
      <trkpt lat="48.35394" lon="2.7423">
        <ele>128.6</ele>
        <time>2021-08-21T11:48:01Z</time>
      </trkpt>
      <trkpt lat="48.35394" lon="2.74231">
        <ele>128.6</ele>
        <time>2021-08-21T11:48:02Z</time>
      </trkpt>
      <trkpt lat="48.35394" lon="2.74233">
        <ele>128.5</ele>
        <time>2021-08-21T11:48:03Z</time>
      </trkpt>
      <trkpt lat="48.35394" lon="2.74235">
        <ele>128.5</ele>
        <time>2021-08-21T11:48:04Z</time>
      </trkpt>
      <trkpt lat="48.35395" lon="2.74236">
        <ele>128.4</ele>
        <time>2021-08-21T11:48:05Z</time>
      </trkpt>
      <trkpt lat="48.35395" lon="2.74238">
        <ele>128.4</ele>
        <time>2021-08-21T11:48:06Z</time>
      </trkpt>
      <trkpt lat="48.35395" lon="2.74239">
        <ele>128.4</ele>
        <time>2021-08-21T11:48:07Z</time>
      </trkpt>
      <trkpt lat="48.35396" lon="2.74242">
        <ele>128.3</ele>
        <time>2021-08-21T11:48:08Z</time>
      </trkpt>
      <trkpt lat="48.35396" lon="2.74244">
        <ele>128.2</ele>
        <time>2021-08-21T11:48:09Z</time>
      </trkpt>
      <trkpt lat="48.35396" lon="2.74245">
        <ele>128.2</ele>
        <time>2021-08-21T11:48:10Z</time>
      </trkpt>
      <trkpt lat="48.35396" lon="2.74248">
        <ele>128.1</ele>
        <time>2021-08-21T11:48:11Z</time>
      </trkpt>
      <trkpt lat="48.35397" lon="2.74249">
        <ele>128.1</ele>
        <time>2021-08-21T11:48:12Z</time>
      </trkpt>
      <trkpt lat="48.35397" lon="2.74251">
        <ele>128.1</ele>
        <time>2021-08-21T11:48:13Z</time>
      </trkpt>
      <trkpt lat="48.35397" lon="2.74252">
        <ele>128.1</ele>
        <time>2021-08-21T11:48:14Z</time>
      </trkpt>
      <trkpt lat="48.35397" lon="2.74254">
        <ele>128</ele>
        <time>2021-08-21T11:48:15Z</time>
      </trkpt>
      <trkpt lat="48.35398" lon="2.74256">
        <ele>128</ele>
        <time>2021-08-21T11:48:16Z</time>
      </trkpt>
      <trkpt lat="48.35398" lon="2.74257">
        <ele>128</ele>
        <time>2021-08-21T11:48:17Z</time>
      </trkpt>
      <trkpt lat="48.35398" lon="2.74259">
        <ele>127.9</ele>
        <time>2021-08-21T11:48:18Z</time>
      </trkpt>
      <trkpt lat="48.35398" lon="2.74261">
        <ele>127.9</ele>
        <time>2021-08-21T11:48:19Z</time>
      </trkpt>
      <trkpt lat="48.35398" lon="2.74263">
        <ele>127.9</ele>
        <time>2021-08-21T11:48:20Z</time>
      </trkpt>
      <trkpt lat="48.35398" lon="2.74265">
        <ele>127.8</ele>
        <time>2021-08-21T11:48:21Z</time>
      </trkpt>
      <trkpt lat="48.35398" lon="2.74267">
        <ele>127.8</ele>
        <time>2021-08-21T11:48:22Z</time>
      </trkpt>
      <trkpt lat="48.35398" lon="2.74269">
        <ele>127.8</ele>
        <time>2021-08-21T11:48:23Z</time>
      </trkpt>
      <trkpt lat="48.35398" lon="2.7427">
        <ele>127.8</ele>
        <time>2021-08-21T11:48:24Z</time>
      </trkpt>
      <trkpt lat="48.35398" lon="2.74272">
        <ele>127.8</ele>
        <time>2021-08-21T11:48:25Z</time>
      </trkpt>
      <trkpt lat="48.35398" lon="2.74274">
        <ele>127.7</ele>
        <time>2021-08-21T11:48:26Z</time>
      </trkpt>
      <trkpt lat="48.35398" lon="2.74275">
        <ele>127.7</ele>
        <time>2021-08-21T11:48:27Z</time>
      </trkpt>
      <trkpt lat="48.35398" lon="2.74277">
        <ele>127.7</ele>
        <time>2021-08-21T11:48:28Z</time>
      </trkpt>
      <trkpt lat="48.35398" lon="2.74278">
        <ele>127.7</ele>
        <time>2021-08-21T11:48:29Z</time>
      </trkpt>
      <trkpt lat="48.35398" lon="2.7428">
        <ele>127.7</ele>
        <time>2021-08-21T11:48:30Z</time>
      </trkpt>
      <trkpt lat="48.35398" lon="2.74282">
        <ele>127.6</ele>
        <time>2021-08-21T11:48:31Z</time>
      </trkpt>
      <trkpt lat="48.35398" lon="2.74284">
        <ele>127.6</ele>
        <time>2021-08-21T11:48:32Z</time>
      </trkpt>
      <trkpt lat="48.35398" lon="2.74285">
        <ele>127.6</ele>
        <time>2021-08-21T11:48:33Z</time>
      </trkpt>
      <trkpt lat="48.35398" lon="2.74287">
        <ele>127.6</ele>
        <time>2021-08-21T11:48:34Z</time>
      </trkpt>
      <trkpt lat="48.35397" lon="2.74288">
        <ele>127.6</ele>
        <time>2021-08-21T11:48:35Z</time>
      </trkpt>
      <trkpt lat="48.35397" lon="2.7429">
        <ele>127.6</ele>
        <time>2021-08-21T11:48:36Z</time>
      </trkpt>
      <trkpt lat="48.35397" lon="2.74292">
        <ele>127.6</ele>
        <time>2021-08-21T11:48:37Z</time>
      </trkpt>
      <trkpt lat="48.35397" lon="2.74293">
        <ele>127.5</ele>
        <time>2021-08-21T11:48:38Z</time>
      </trkpt>
      <trkpt lat="48.35397" lon="2.74295">
        <ele>127.5</ele>
        <time>2021-08-21T11:48:39Z</time>
      </trkpt>
      <trkpt lat="48.35396" lon="2.74297">
        <ele>127.5</ele>
        <time>2021-08-21T11:48:40Z</time>
      </trkpt>
      <trkpt lat="48.35396" lon="2.74298">
        <ele>127.5</ele>
        <time>2021-08-21T11:48:41Z</time>
      </trkpt>
      <trkpt lat="48.35396" lon="2.743">
        <ele>127.5</ele>
        <time>2021-08-21T11:48:42Z</time>
      </trkpt>
      <trkpt lat="48.35395" lon="2.74303">
        <ele>127.5</ele>
        <time>2021-08-21T11:48:43Z</time>
      </trkpt>
      <trkpt lat="48.35395" lon="2.74305">
        <ele>127.4</ele>
        <time>2021-08-21T11:48:44Z</time>
      </trkpt>
      <trkpt lat="48.35395" lon="2.74306">
        <ele>127.4</ele>
        <time>2021-08-21T11:48:45Z</time>
      </trkpt>
      <trkpt lat="48.35395" lon="2.74308">
        <ele>127.4</ele>
        <time>2021-08-21T11:48:46Z</time>
      </trkpt>
      <trkpt lat="48.35394" lon="2.7431">
        <ele>127.4</ele>
        <time>2021-08-21T11:48:47Z</time>
      </trkpt>
      <trkpt lat="48.35394" lon="2.74313">
        <ele>127.3</ele>
        <time>2021-08-21T11:48:48Z</time>
      </trkpt>
      <trkpt lat="48.35393" lon="2.74315">
        <ele>127.3</ele>
        <time>2021-08-21T11:48:49Z</time>
      </trkpt>
      <trkpt lat="48.35393" lon="2.74316">
        <ele>127.3</ele>
        <time>2021-08-21T11:48:50Z</time>
      </trkpt>
      <trkpt lat="48.35393" lon="2.74318">
        <ele>127.3</ele>
        <time>2021-08-21T11:48:51Z</time>
      </trkpt>
      <trkpt lat="48.35393" lon="2.74319">
        <ele>127.2</ele>
        <time>2021-08-21T11:48:52Z</time>
      </trkpt>
      <trkpt lat="48.35392" lon="2.74321">
        <ele>127.2</ele>
        <time>2021-08-21T11:48:53Z</time>
      </trkpt>
      <trkpt lat="48.35392" lon="2.74322">
        <ele>127.2</ele>
        <time>2021-08-21T11:48:54Z</time>
      </trkpt>
      <trkpt lat="48.35392" lon="2.74324">
        <ele>127.2</ele>
        <time>2021-08-21T11:48:55Z</time>
      </trkpt>
      <trkpt lat="48.35391" lon="2.74326">
        <ele>127.1</ele>
        <time>2021-08-21T11:48:56Z</time>
      </trkpt>
      <trkpt lat="48.35391" lon="2.74327">
        <ele>127.1</ele>
        <time>2021-08-21T11:48:57Z</time>
      </trkpt>
      <trkpt lat="48.3539" lon="2.74328">
        <ele>127.1</ele>
        <time>2021-08-21T11:48:58Z</time>
      </trkpt>
      <trkpt lat="48.3539" lon="2.7433">
        <ele>127</ele>
        <time>2021-08-21T11:48:59Z</time>
      </trkpt>
      <trkpt lat="48.35389" lon="2.74331">
        <ele>127</ele>
        <time>2021-08-21T11:49:00Z</time>
      </trkpt>
      <trkpt lat="48.35389" lon="2.74332">
        <ele>127</ele>
        <time>2021-08-21T11:49:01Z</time>
      </trkpt>
      <trkpt lat="48.35388" lon="2.74333">
        <ele>126.9</ele>
        <time>2021-08-21T11:49:02Z</time>
      </trkpt>
      <trkpt lat="48.35387" lon="2.74334">
        <ele>126.9</ele>
        <time>2021-08-21T11:49:03Z</time>
      </trkpt>
      <trkpt lat="48.35387" lon="2.74335">
        <ele>126.9</ele>
        <time>2021-08-21T11:49:04Z</time>
      </trkpt>
      <trkpt lat="48.35386" lon="2.74337">
        <ele>126.8</ele>
        <time>2021-08-21T11:49:05Z</time>
      </trkpt>
      <trkpt lat="48.35385" lon="2.74338">
        <ele>126.8</ele>
        <time>2021-08-21T11:49:06Z</time>
      </trkpt>
      <trkpt lat="48.35385" lon="2.7434">
        <ele>126.7</ele>
        <time>2021-08-21T11:49:07Z</time>
      </trkpt>
      <trkpt lat="48.35384" lon="2.74341">
        <ele>126.7</ele>
        <time>2021-08-21T11:49:08Z</time>
      </trkpt>
      <trkpt lat="48.35383" lon="2.74342">
        <ele>126.7</ele>
        <time>2021-08-21T11:49:09Z</time>
      </trkpt>
      <trkpt lat="48.35383" lon="2.74343">
        <ele>126.6</ele>
        <time>2021-08-21T11:49:10Z</time>
      </trkpt>
      <trkpt lat="48.35382" lon="2.74345">
        <ele>126.6</ele>
        <time>2021-08-21T11:49:11Z</time>
      </trkpt>
      <trkpt lat="48.35381" lon="2.74346">
        <ele>126.5</ele>
        <time>2021-08-21T11:49:12Z</time>
      </trkpt>
      <trkpt lat="48.35381" lon="2.74347">
        <ele>126.5</ele>
        <time>2021-08-21T11:49:13Z</time>
      </trkpt>
      <trkpt lat="48.3538" lon="2.74348">
        <ele>126.5</ele>
        <time>2021-08-21T11:49:14Z</time>
      </trkpt>
      <trkpt lat="48.35379" lon="2.74349">
        <ele>126.4</ele>
        <time>2021-08-21T11:49:15Z</time>
      </trkpt>
      <trkpt lat="48.35378" lon="2.74351">
        <ele>126.4</ele>
        <time>2021-08-21T11:49:16Z</time>
      </trkpt>
      <trkpt lat="48.35378" lon="2.74352">
        <ele>126.3</ele>
        <time>2021-08-21T11:49:17Z</time>
      </trkpt>
      <trkpt lat="48.35377" lon="2.74354">
        <ele>126.3</ele>
        <time>2021-08-21T11:49:18Z</time>
      </trkpt>
      <trkpt lat="48.35377" lon="2.74355">
        <ele>126.2</ele>
        <time>2021-08-21T11:49:19Z</time>
      </trkpt>
      <trkpt lat="48.35376" lon="2.74356">
        <ele>126.2</ele>
        <time>2021-08-21T11:49:20Z</time>
      </trkpt>
      <trkpt lat="48.35376" lon="2.74358">
        <ele>126.1</ele>
        <time>2021-08-21T11:49:21Z</time>
      </trkpt>
      <trkpt lat="48.35376" lon="2.74359">
        <ele>126.1</ele>
        <time>2021-08-21T11:49:22Z</time>
      </trkpt>
      <trkpt lat="48.35375" lon="2.74361">
        <ele>126</ele>
        <time>2021-08-21T11:49:23Z</time>
      </trkpt>
      <trkpt lat="48.35375" lon="2.74364">
        <ele>125.9</ele>
        <time>2021-08-21T11:49:24Z</time>
      </trkpt>
      <trkpt lat="48.35375" lon="2.74365">
        <ele>125.9</ele>
        <time>2021-08-21T11:49:25Z</time>
      </trkpt>
      <trkpt lat="48.35374" lon="2.74366">
        <ele>125.9</ele>
        <time>2021-08-21T11:49:26Z</time>
      </trkpt>
      <trkpt lat="48.35374" lon="2.74368">
        <ele>125.9</ele>
        <time>2021-08-21T11:49:27Z</time>
      </trkpt>
      <trkpt lat="48.35374" lon="2.7437">
        <ele>125.8</ele>
        <time>2021-08-21T11:49:28Z</time>
      </trkpt>
      <trkpt lat="48.35374" lon="2.74371">
        <ele>125.8</ele>
        <time>2021-08-21T11:49:29Z</time>
      </trkpt>
      <trkpt lat="48.35374" lon="2.74374">
        <ele>125.7</ele>
        <time>2021-08-21T11:49:30Z</time>
      </trkpt>
      <trkpt lat="48.35374" lon="2.74376">
        <ele>125.7</ele>
        <time>2021-08-21T11:49:31Z</time>
      </trkpt>
      <trkpt lat="48.35374" lon="2.74378">
        <ele>125.6</ele>
        <time>2021-08-21T11:49:32Z</time>
      </trkpt>
      <trkpt lat="48.35374" lon="2.7438">
        <ele>125.6</ele>
        <time>2021-08-21T11:49:33Z</time>
      </trkpt>
      <trkpt lat="48.35374" lon="2.74382">
        <ele>125.6</ele>
        <time>2021-08-21T11:49:34Z</time>
      </trkpt>
      <trkpt lat="48.35374" lon="2.74384">
        <ele>125.5</ele>
        <time>2021-08-21T11:49:35Z</time>
      </trkpt>
      <trkpt lat="48.35374" lon="2.74387">
        <ele>125.5</ele>
        <time>2021-08-21T11:49:36Z</time>
      </trkpt>
      <trkpt lat="48.35374" lon="2.74389">
        <ele>125.4</ele>
        <time>2021-08-21T11:49:37Z</time>
      </trkpt>
      <trkpt lat="48.35374" lon="2.74391">
        <ele>125.4</ele>
        <time>2021-08-21T11:49:38Z</time>
      </trkpt>
      <trkpt lat="48.35375" lon="2.74393">
        <ele>125.4</ele>
        <time>2021-08-21T11:49:39Z</time>
      </trkpt>
      <trkpt lat="48.35375" lon="2.74396">
        <ele>125.3</ele>
        <time>2021-08-21T11:49:40Z</time>
      </trkpt>
      <trkpt lat="48.35375" lon="2.74397">
        <ele>125.3</ele>
        <time>2021-08-21T11:49:41Z</time>
      </trkpt>
      <trkpt lat="48.35375" lon="2.74399">
        <ele>125.2</ele>
        <time>2021-08-21T11:49:42Z</time>
      </trkpt>
      <trkpt lat="48.35375" lon="2.74401">
        <ele>125.2</ele>
        <time>2021-08-21T11:49:43Z</time>
      </trkpt>
      <trkpt lat="48.35375" lon="2.74402">
        <ele>125.2</ele>
        <time>2021-08-21T11:49:44Z</time>
      </trkpt>
      <trkpt lat="48.35376" lon="2.74404">
        <ele>125.1</ele>
        <time>2021-08-21T11:49:45Z</time>
      </trkpt>
      <trkpt lat="48.35376" lon="2.74406">
        <ele>125.1</ele>
        <time>2021-08-21T11:49:46Z</time>
      </trkpt>
      <trkpt lat="48.35376" lon="2.74408">
        <ele>125.1</ele>
        <time>2021-08-21T11:49:47Z</time>
      </trkpt>
      <trkpt lat="48.35376" lon="2.7441">
        <ele>125.1</ele>
        <time>2021-08-21T11:49:48Z</time>
      </trkpt>
      <trkpt lat="48.35376" lon="2.74413">
        <ele>125</ele>
        <time>2021-08-21T11:49:49Z</time>
      </trkpt>
      <trkpt lat="48.35376" lon="2.74414">
        <ele>125</ele>
        <time>2021-08-21T11:49:50Z</time>
      </trkpt>
      <trkpt lat="48.35376" lon="2.74415">
        <ele>125</ele>
        <time>2021-08-21T11:49:51Z</time>
      </trkpt>
      <trkpt lat="48.35376" lon="2.74418">
        <ele>124.9</ele>
        <time>2021-08-21T11:49:52Z</time>
      </trkpt>
      <trkpt lat="48.35376" lon="2.74419">
        <ele>124.9</ele>
        <time>2021-08-21T11:49:53Z</time>
      </trkpt>
      <trkpt lat="48.35376" lon="2.74421">
        <ele>124.9</ele>
        <time>2021-08-21T11:49:54Z</time>
      </trkpt>
      <trkpt lat="48.35376" lon="2.74422">
        <ele>124.8</ele>
        <time>2021-08-21T11:49:55Z</time>
      </trkpt>
      <trkpt lat="48.35376" lon="2.74424">
        <ele>124.8</ele>
        <time>2021-08-21T11:49:56Z</time>
      </trkpt>
      <trkpt lat="48.35376" lon="2.74426">
        <ele>124.8</ele>
        <time>2021-08-21T11:49:57Z</time>
      </trkpt>
      <trkpt lat="48.35376" lon="2.74427">
        <ele>124.8</ele>
        <time>2021-08-21T11:49:58Z</time>
      </trkpt>
      <trkpt lat="48.35376" lon="2.74429">
        <ele>124.8</ele>
        <time>2021-08-21T11:49:59Z</time>
      </trkpt>
      <trkpt lat="48.35376" lon="2.7443">
        <ele>124.8</ele>
        <time>2021-08-21T11:50:00Z</time>
      </trkpt>
      <trkpt lat="48.35376" lon="2.74434">
        <ele>124.7</ele>
        <time>2021-08-21T11:50:01Z</time>
      </trkpt>
      <trkpt lat="48.35376" lon="2.74435">
        <ele>124.7</ele>
        <time>2021-08-21T11:50:02Z</time>
      </trkpt>
      <trkpt lat="48.35376" lon="2.74437">
        <ele>124.7</ele>
        <time>2021-08-21T11:50:03Z</time>
      </trkpt>
      <trkpt lat="48.35376" lon="2.74437">
        <ele>124.7</ele>
        <time>2021-08-21T11:50:04Z</time>
      </trkpt>
      <trkpt lat="48.35376" lon="2.74438">
        <ele>124.7</ele>
        <time>2021-08-21T11:50:05Z</time>
      </trkpt>
      <trkpt lat="48.35376" lon="2.7444">
        <ele>124.7</ele>
        <time>2021-08-21T11:50:06Z</time>
      </trkpt>
      <trkpt lat="48.35376" lon="2.74441">
        <ele>124.6</ele>
        <time>2021-08-21T11:50:07Z</time>
      </trkpt>
      <trkpt lat="48.35376" lon="2.74443">
        <ele>124.6</ele>
        <time>2021-08-21T11:50:08Z</time>
      </trkpt>
      <trkpt lat="48.35376" lon="2.74445">
        <ele>124.6</ele>
        <time>2021-08-21T11:50:09Z</time>
      </trkpt>
      <trkpt lat="48.35376" lon="2.74446">
        <ele>124.6</ele>
        <time>2021-08-21T11:50:10Z</time>
      </trkpt>
      <trkpt lat="48.35375" lon="2.74449">
        <ele>124.6</ele>
        <time>2021-08-21T11:50:11Z</time>
      </trkpt>
      <trkpt lat="48.35375" lon="2.74451">
        <ele>124.6</ele>
        <time>2021-08-21T11:50:12Z</time>
      </trkpt>
      <trkpt lat="48.35375" lon="2.74453">
        <ele>124.6</ele>
        <time>2021-08-21T11:50:13Z</time>
      </trkpt>
      <trkpt lat="48.35375" lon="2.74454">
        <ele>124.5</ele>
        <time>2021-08-21T11:50:14Z</time>
      </trkpt>
      <trkpt lat="48.35375" lon="2.74456">
        <ele>124.5</ele>
        <time>2021-08-21T11:50:15Z</time>
      </trkpt>
      <trkpt lat="48.35375" lon="2.74458">
        <ele>124.5</ele>
        <time>2021-08-21T11:50:16Z</time>
      </trkpt>
      <trkpt lat="48.35375" lon="2.74459">
        <ele>124.5</ele>
        <time>2021-08-21T11:50:17Z</time>
      </trkpt>
      <trkpt lat="48.35375" lon="2.74461">
        <ele>124.5</ele>
        <time>2021-08-21T11:50:18Z</time>
      </trkpt>
      <trkpt lat="48.35375" lon="2.74462">
        <ele>124.5</ele>
        <time>2021-08-21T11:50:19Z</time>
      </trkpt>
      <trkpt lat="48.35375" lon="2.74464">
        <ele>124.5</ele>
        <time>2021-08-21T11:50:20Z</time>
      </trkpt>
      <trkpt lat="48.35375" lon="2.74465">
        <ele>124.5</ele>
        <time>2021-08-21T11:50:21Z</time>
      </trkpt>
      <trkpt lat="48.35375" lon="2.74467">
        <ele>124.5</ele>
        <time>2021-08-21T11:50:22Z</time>
      </trkpt>
      <trkpt lat="48.35375" lon="2.74469">
        <ele>124.5</ele>
        <time>2021-08-21T11:50:23Z</time>
      </trkpt>
      <trkpt lat="48.35375" lon="2.74471">
        <ele>124.5</ele>
        <time>2021-08-21T11:50:24Z</time>
      </trkpt>
      <trkpt lat="48.35375" lon="2.74472">
        <ele>124.5</ele>
        <time>2021-08-21T11:50:25Z</time>
      </trkpt>
      <trkpt lat="48.35375" lon="2.74474">
        <ele>124.5</ele>
        <time>2021-08-21T11:50:26Z</time>
      </trkpt>
      <trkpt lat="48.35375" lon="2.74475">
        <ele>124.5</ele>
        <time>2021-08-21T11:50:27Z</time>
      </trkpt>
      <trkpt lat="48.35375" lon="2.74477">
        <ele>124.5</ele>
        <time>2021-08-21T11:50:28Z</time>
      </trkpt>
      <trkpt lat="48.35375" lon="2.74478">
        <ele>124.5</ele>
        <time>2021-08-21T11:50:29Z</time>
      </trkpt>
      <trkpt lat="48.35375" lon="2.7448">
        <ele>124.5</ele>
        <time>2021-08-21T11:50:30Z</time>
      </trkpt>
      <trkpt lat="48.35375" lon="2.74482">
        <ele>124.5</ele>
        <time>2021-08-21T11:50:31Z</time>
      </trkpt>
      <trkpt lat="48.35375" lon="2.74483">
        <ele>124.5</ele>
        <time>2021-08-21T11:50:32Z</time>
      </trkpt>
      <trkpt lat="48.35374" lon="2.74485">
        <ele>124.5</ele>
        <time>2021-08-21T11:50:33Z</time>
      </trkpt>
      <trkpt lat="48.35374" lon="2.74488">
        <ele>124.5</ele>
        <time>2021-08-21T11:50:34Z</time>
      </trkpt>
      <trkpt lat="48.35374" lon="2.74489">
        <ele>124.5</ele>
        <time>2021-08-21T11:50:35Z</time>
      </trkpt>
      <trkpt lat="48.35374" lon="2.7449">
        <ele>124.5</ele>
        <time>2021-08-21T11:50:36Z</time>
      </trkpt>
      <trkpt lat="48.35374" lon="2.74492">
        <ele>124.5</ele>
        <time>2021-08-21T11:50:37Z</time>
      </trkpt>
      <trkpt lat="48.35374" lon="2.74494">
        <ele>124.5</ele>
        <time>2021-08-21T11:50:38Z</time>
      </trkpt>
      <trkpt lat="48.35374" lon="2.74496">
        <ele>124.5</ele>
        <time>2021-08-21T11:50:39Z</time>
      </trkpt>
      <trkpt lat="48.35374" lon="2.74498">
        <ele>124.5</ele>
        <time>2021-08-21T11:50:40Z</time>
      </trkpt>
      <trkpt lat="48.35374" lon="2.74499">
        <ele>124.5</ele>
        <time>2021-08-21T11:50:41Z</time>
      </trkpt>
      <trkpt lat="48.35374" lon="2.74501">
        <ele>124.5</ele>
        <time>2021-08-21T11:50:42Z</time>
      </trkpt>
      <trkpt lat="48.35374" lon="2.74505">
        <ele>124.5</ele>
        <time>2021-08-21T11:50:43Z</time>
      </trkpt>
      <trkpt lat="48.35374" lon="2.74506">
        <ele>124.5</ele>
        <time>2021-08-21T11:50:44Z</time>
      </trkpt>
      <trkpt lat="48.35374" lon="2.74507">
        <ele>124.5</ele>
        <time>2021-08-21T11:50:45Z</time>
      </trkpt>
      <trkpt lat="48.35374" lon="2.7451">
        <ele>124.5</ele>
        <time>2021-08-21T11:50:46Z</time>
      </trkpt>
      <trkpt lat="48.35374" lon="2.74511">
        <ele>124.5</ele>
        <time>2021-08-21T11:50:47Z</time>
      </trkpt>
      <trkpt lat="48.35374" lon="2.74512">
        <ele>124.5</ele>
        <time>2021-08-21T11:50:48Z</time>
      </trkpt>
      <trkpt lat="48.35374" lon="2.74515">
        <ele>124.5</ele>
        <time>2021-08-21T11:50:49Z</time>
      </trkpt>
      <trkpt lat="48.35374" lon="2.74517">
        <ele>124.5</ele>
        <time>2021-08-21T11:50:50Z</time>
      </trkpt>
      <trkpt lat="48.35374" lon="2.74518">
        <ele>124.5</ele>
        <time>2021-08-21T11:50:51Z</time>
      </trkpt>
      <trkpt lat="48.35374" lon="2.7452">
        <ele>124.6</ele>
        <time>2021-08-21T11:50:52Z</time>
      </trkpt>
      <trkpt lat="48.35374" lon="2.74521">
        <ele>124.6</ele>
        <time>2021-08-21T11:50:53Z</time>
      </trkpt>
      <trkpt lat="48.35373" lon="2.74523">
        <ele>124.6</ele>
        <time>2021-08-21T11:50:54Z</time>
      </trkpt>
      <trkpt lat="48.35373" lon="2.74525">
        <ele>124.6</ele>
        <time>2021-08-21T11:50:55Z</time>
      </trkpt>
      <trkpt lat="48.35373" lon="2.74526">
        <ele>124.6</ele>
        <time>2021-08-21T11:50:56Z</time>
      </trkpt>
      <trkpt lat="48.35373" lon="2.74527">
        <ele>124.6</ele>
        <time>2021-08-21T11:50:57Z</time>
      </trkpt>
      <trkpt lat="48.35373" lon="2.74528">
        <ele>124.6</ele>
        <time>2021-08-21T11:50:58Z</time>
      </trkpt>
      <trkpt lat="48.35373" lon="2.7453">
        <ele>124.6</ele>
        <time>2021-08-21T11:50:59Z</time>
      </trkpt>
      <trkpt lat="48.35373" lon="2.74531">
        <ele>124.6</ele>
        <time>2021-08-21T11:51:00Z</time>
      </trkpt>
      <trkpt lat="48.35373" lon="2.74532">
        <ele>124.6</ele>
        <time>2021-08-21T11:51:01Z</time>
      </trkpt>
      <trkpt lat="48.35373" lon="2.74534">
        <ele>124.6</ele>
        <time>2021-08-21T11:51:02Z</time>
      </trkpt>
      <trkpt lat="48.35373" lon="2.74536">
        <ele>124.6</ele>
        <time>2021-08-21T11:51:03Z</time>
      </trkpt>
      <trkpt lat="48.35373" lon="2.74537">
        <ele>124.6</ele>
        <time>2021-08-21T11:51:04Z</time>
      </trkpt>
      <trkpt lat="48.35373" lon="2.74539">
        <ele>124.6</ele>
        <time>2021-08-21T11:51:05Z</time>
      </trkpt>
      <trkpt lat="48.35373" lon="2.7454">
        <ele>124.6</ele>
        <time>2021-08-21T11:51:06Z</time>
      </trkpt>
      <trkpt lat="48.35372" lon="2.74542">
        <ele>124.6</ele>
        <time>2021-08-21T11:51:07Z</time>
      </trkpt>
      <trkpt lat="48.35372" lon="2.74543">
        <ele>124.6</ele>
        <time>2021-08-21T11:51:08Z</time>
      </trkpt>
      <trkpt lat="48.35372" lon="2.74545">
        <ele>124.6</ele>
        <time>2021-08-21T11:51:09Z</time>
      </trkpt>
      <trkpt lat="48.35372" lon="2.74546">
        <ele>124.6</ele>
        <time>2021-08-21T11:51:10Z</time>
      </trkpt>
      <trkpt lat="48.35372" lon="2.74548">
        <ele>124.6</ele>
        <time>2021-08-21T11:51:11Z</time>
      </trkpt>
      <trkpt lat="48.35372" lon="2.74549">
        <ele>124.5</ele>
        <time>2021-08-21T11:51:12Z</time>
      </trkpt>
      <trkpt lat="48.35372" lon="2.74551">
        <ele>124.5</ele>
        <time>2021-08-21T11:51:13Z</time>
      </trkpt>
      <trkpt lat="48.35372" lon="2.74554">
        <ele>124.5</ele>
        <time>2021-08-21T11:51:14Z</time>
      </trkpt>
      <trkpt lat="48.35372" lon="2.74555">
        <ele>124.5</ele>
        <time>2021-08-21T11:51:15Z</time>
      </trkpt>
      <trkpt lat="48.35372" lon="2.74557">
        <ele>124.5</ele>
        <time>2021-08-21T11:51:16Z</time>
      </trkpt>
      <trkpt lat="48.35372" lon="2.74559">
        <ele>124.5</ele>
        <time>2021-08-21T11:51:17Z</time>
      </trkpt>
      <trkpt lat="48.35372" lon="2.74561">
        <ele>124.5</ele>
        <time>2021-08-21T11:51:18Z</time>
      </trkpt>
      <trkpt lat="48.35372" lon="2.74563">
        <ele>124.4</ele>
        <time>2021-08-21T11:51:19Z</time>
      </trkpt>
      <trkpt lat="48.35372" lon="2.74564">
        <ele>124.4</ele>
        <time>2021-08-21T11:51:20Z</time>
      </trkpt>
      <trkpt lat="48.35372" lon="2.74566">
        <ele>124.4</ele>
        <time>2021-08-21T11:51:21Z</time>
      </trkpt>
      <trkpt lat="48.35372" lon="2.74569">
        <ele>124.4</ele>
        <time>2021-08-21T11:51:22Z</time>
      </trkpt>
      <trkpt lat="48.35372" lon="2.7457">
        <ele>124.4</ele>
        <time>2021-08-21T11:51:23Z</time>
      </trkpt>
      <trkpt lat="48.35372" lon="2.74572">
        <ele>124.4</ele>
        <time>2021-08-21T11:51:24Z</time>
      </trkpt>
      <trkpt lat="48.35372" lon="2.74573">
        <ele>124.3</ele>
        <time>2021-08-21T11:51:25Z</time>
      </trkpt>
      <trkpt lat="48.35372" lon="2.74575">
        <ele>124.3</ele>
        <time>2021-08-21T11:51:26Z</time>
      </trkpt>
      <trkpt lat="48.35372" lon="2.74577">
        <ele>124.3</ele>
        <time>2021-08-21T11:51:27Z</time>
      </trkpt>
      <trkpt lat="48.35372" lon="2.7458">
        <ele>124.3</ele>
        <time>2021-08-21T11:51:28Z</time>
      </trkpt>
      <trkpt lat="48.35372" lon="2.74582">
        <ele>124.2</ele>
        <time>2021-08-21T11:51:29Z</time>
      </trkpt>
      <trkpt lat="48.35372" lon="2.74583">
        <ele>124.2</ele>
        <time>2021-08-21T11:51:30Z</time>
      </trkpt>
      <trkpt lat="48.35371" lon="2.74586">
        <ele>124.2</ele>
        <time>2021-08-21T11:51:31Z</time>
      </trkpt>
      <trkpt lat="48.35371" lon="2.74587">
        <ele>124.2</ele>
        <time>2021-08-21T11:51:32Z</time>
      </trkpt>
      <trkpt lat="48.35371" lon="2.74589">
        <ele>124.2</ele>
        <time>2021-08-21T11:51:33Z</time>
      </trkpt>
      <trkpt lat="48.35371" lon="2.7459">
        <ele>124.1</ele>
        <time>2021-08-21T11:51:34Z</time>
      </trkpt>
      <trkpt lat="48.35371" lon="2.74592">
        <ele>124.1</ele>
        <time>2021-08-21T11:51:35Z</time>
      </trkpt>
      <trkpt lat="48.35371" lon="2.74594">
        <ele>124.1</ele>
        <time>2021-08-21T11:51:36Z</time>
      </trkpt>
      <trkpt lat="48.35371" lon="2.74596">
        <ele>124.1</ele>
        <time>2021-08-21T11:51:37Z</time>
      </trkpt>
      <trkpt lat="48.3537" lon="2.74598">
        <ele>124</ele>
        <time>2021-08-21T11:51:38Z</time>
      </trkpt>
      <trkpt lat="48.3537" lon="2.74599">
        <ele>124</ele>
        <time>2021-08-21T11:51:39Z</time>
      </trkpt>
      <trkpt lat="48.3537" lon="2.74599">
        <ele>124</ele>
        <time>2021-08-21T11:51:40Z</time>
      </trkpt>
      <trkpt lat="48.3537" lon="2.74599">
        <ele>124</ele>
        <time>2021-08-21T11:51:41Z</time>
      </trkpt>
      <trkpt lat="48.3537" lon="2.746">
        <ele>124</ele>
        <time>2021-08-21T11:51:42Z</time>
      </trkpt>
      <trkpt lat="48.35369" lon="2.74601">
        <ele>124</ele>
        <time>2021-08-21T11:51:43Z</time>
      </trkpt>
      <trkpt lat="48.35369" lon="2.74602">
        <ele>124</ele>
        <time>2021-08-21T11:51:44Z</time>
      </trkpt>
      <trkpt lat="48.35369" lon="2.74601">
        <ele>124</ele>
        <time>2021-08-21T11:51:45Z</time>
      </trkpt>
      <trkpt lat="48.35369" lon="2.74601">
        <ele>124</ele>
        <time>2021-08-21T11:51:46Z</time>
      </trkpt>
      <trkpt lat="48.35369" lon="2.74601">
        <ele>124</ele>
        <time>2021-08-21T11:51:47Z</time>
      </trkpt>
      <trkpt lat="48.35369" lon="2.74601">
        <ele>124</ele>
        <time>2021-08-21T11:51:48Z</time>
      </trkpt>
      <trkpt lat="48.35369" lon="2.74601">
        <ele>124</ele>
        <time>2021-08-21T11:51:49Z</time>
      </trkpt>
      <trkpt lat="48.35369" lon="2.74601">
        <ele>124</ele>
        <time>2021-08-21T11:51:50Z</time>
      </trkpt>
      <trkpt lat="48.35369" lon="2.74601">
        <ele>124</ele>
        <time>2021-08-21T11:51:51Z</time>
      </trkpt>
      <trkpt lat="48.35369" lon="2.74601">
        <ele>124</ele>
        <time>2021-08-21T11:51:52Z</time>
      </trkpt>
      <trkpt lat="48.35369" lon="2.74601">
        <ele>124</ele>
        <time>2021-08-21T11:51:53Z</time>
      </trkpt>
      <trkpt lat="48.35369" lon="2.74601">
        <ele>124</ele>
        <time>2021-08-21T11:51:54Z</time>
      </trkpt>
      <trkpt lat="48.35368" lon="2.74601">
        <ele>124</ele>
        <time>2021-08-21T11:51:55Z</time>
      </trkpt>
      <trkpt lat="48.35368" lon="2.746">
        <ele>124</ele>
        <time>2021-08-21T11:51:56Z</time>
      </trkpt>
      <trkpt lat="48.35368" lon="2.746">
        <ele>124</ele>
        <time>2021-08-21T11:51:57Z</time>
      </trkpt>
      <trkpt lat="48.35368" lon="2.746">
        <ele>124</ele>
        <time>2021-08-21T11:51:58Z</time>
      </trkpt>
      <trkpt lat="48.35368" lon="2.746">
        <ele>124</ele>
        <time>2021-08-21T11:51:59Z</time>
      </trkpt>
      <trkpt lat="48.35368" lon="2.746">
        <ele>124</ele>
        <time>2021-08-21T11:52:00Z</time>
      </trkpt>
      <trkpt lat="48.35368" lon="2.746">
        <ele>124</ele>
        <time>2021-08-21T11:52:01Z</time>
      </trkpt>
      <trkpt lat="48.35368" lon="2.746">
        <ele>124</ele>
        <time>2021-08-21T11:52:02Z</time>
      </trkpt>
      <trkpt lat="48.35368" lon="2.746">
        <ele>124</ele>
        <time>2021-08-21T11:52:03Z</time>
      </trkpt>
      <trkpt lat="48.35368" lon="2.746">
        <ele>124</ele>
        <time>2021-08-21T11:52:04Z</time>
      </trkpt>
      <trkpt lat="48.35368" lon="2.746">
        <ele>124</ele>
        <time>2021-08-21T11:52:05Z</time>
      </trkpt>
      <trkpt lat="48.35368" lon="2.746">
        <ele>124</ele>
        <time>2021-08-21T11:52:06Z</time>
      </trkpt>
      <trkpt lat="48.35368" lon="2.746">
        <ele>124</ele>
        <time>2021-08-21T11:52:07Z</time>
      </trkpt>
      <trkpt lat="48.35368" lon="2.746">
        <ele>124</ele>
        <time>2021-08-21T11:52:08Z</time>
      </trkpt>
      <trkpt lat="48.35368" lon="2.746">
        <ele>124</ele>
        <time>2021-08-21T11:52:09Z</time>
      </trkpt>
      <trkpt lat="48.35368" lon="2.746">
        <ele>124</ele>
        <time>2021-08-21T11:52:10Z</time>
      </trkpt>
      <trkpt lat="48.35368" lon="2.746">
        <ele>124</ele>
        <time>2021-08-21T11:52:11Z</time>
      </trkpt>
      <trkpt lat="48.35368" lon="2.746">
        <ele>124</ele>
        <time>2021-08-21T11:52:12Z</time>
      </trkpt>
      <trkpt lat="48.35368" lon="2.746">
        <ele>124</ele>
        <time>2021-08-21T11:52:13Z</time>
      </trkpt>
      <trkpt lat="48.35368" lon="2.746">
        <ele>124</ele>
        <time>2021-08-21T11:52:14Z</time>
      </trkpt>
      <trkpt lat="48.35368" lon="2.746">
        <ele>124</ele>
        <time>2021-08-21T11:52:15Z</time>
      </trkpt>
      <trkpt lat="48.35368" lon="2.746">
        <ele>124</ele>
        <time>2021-08-21T11:52:16Z</time>
      </trkpt>
      <trkpt lat="48.35368" lon="2.746">
        <ele>124</ele>
        <time>2021-08-21T11:52:17Z</time>
      </trkpt>
      <trkpt lat="48.35368" lon="2.746">
        <ele>124</ele>
        <time>2021-08-21T11:52:18Z</time>
      </trkpt>
      <trkpt lat="48.35368" lon="2.746">
        <ele>124</ele>
        <time>2021-08-21T11:52:19Z</time>
      </trkpt>
      <trkpt lat="48.35368" lon="2.746">
        <ele>124</ele>
        <time>2021-08-21T11:52:20Z</time>
      </trkpt>
      <trkpt lat="48.35368" lon="2.746">
        <ele>124</ele>
        <time>2021-08-21T11:52:21Z</time>
      </trkpt>
      <trkpt lat="48.35368" lon="2.746">
        <ele>124</ele>
        <time>2021-08-21T11:52:22Z</time>
      </trkpt>
      <trkpt lat="48.35368" lon="2.746">
        <ele>124</ele>
        <time>2021-08-21T11:52:23Z</time>
      </trkpt>
      <trkpt lat="48.35368" lon="2.746">
        <ele>124</ele>
        <time>2021-08-21T11:52:24Z</time>
      </trkpt>
      <trkpt lat="48.35368" lon="2.746">
        <ele>124</ele>
        <time>2021-08-21T11:52:25Z</time>
      </trkpt>
      <trkpt lat="48.35368" lon="2.746">
        <ele>124</ele>
        <time>2021-08-21T11:52:26Z</time>
      </trkpt>
      <trkpt lat="48.35368" lon="2.746">
        <ele>124</ele>
        <time>2021-08-21T11:52:27Z</time>
      </trkpt>
      <trkpt lat="48.35368" lon="2.746">
        <ele>124</ele>
        <time>2021-08-21T11:52:28Z</time>
      </trkpt>
      <trkpt lat="48.35368" lon="2.746">
        <ele>124</ele>
        <time>2021-08-21T11:52:29Z</time>
      </trkpt>
      <trkpt lat="48.35368" lon="2.746">
        <ele>124</ele>
        <time>2021-08-21T11:52:30Z</time>
      </trkpt>
      <trkpt lat="48.35368" lon="2.74601">
        <ele>123.9</ele>
        <time>2021-08-21T11:52:31Z</time>
      </trkpt>
      <trkpt lat="48.35368" lon="2.74601">
        <ele>123.9</ele>
        <time>2021-08-21T11:52:32Z</time>
      </trkpt>
      <trkpt lat="48.35367" lon="2.74602">
        <ele>123.9</ele>
        <time>2021-08-21T11:52:33Z</time>
      </trkpt>
      <trkpt lat="48.35367" lon="2.74604">
        <ele>123.9</ele>
        <time>2021-08-21T11:52:34Z</time>
      </trkpt>
      <trkpt lat="48.35367" lon="2.74605">
        <ele>123.9</ele>
        <time>2021-08-21T11:52:35Z</time>
      </trkpt>
      <trkpt lat="48.35367" lon="2.74606">
        <ele>123.9</ele>
        <time>2021-08-21T11:52:36Z</time>
      </trkpt>
      <trkpt lat="48.35366" lon="2.74607">
        <ele>123.9</ele>
        <time>2021-08-21T11:52:37Z</time>
      </trkpt>
      <trkpt lat="48.35366" lon="2.74607">
        <ele>123.9</ele>
        <time>2021-08-21T11:52:38Z</time>
      </trkpt>
      <trkpt lat="48.35366" lon="2.74607">
        <ele>123.9</ele>
        <time>2021-08-21T11:52:39Z</time>
      </trkpt>
      <trkpt lat="48.35365" lon="2.74608">
        <ele>123.9</ele>
        <time>2021-08-21T11:52:40Z</time>
      </trkpt>
      <trkpt lat="48.35364" lon="2.74608">
        <ele>123.8</ele>
        <time>2021-08-21T11:52:41Z</time>
      </trkpt>
      <trkpt lat="48.35363" lon="2.74608">
        <ele>123.8</ele>
        <time>2021-08-21T11:52:42Z</time>
      </trkpt>
      <trkpt lat="48.35363" lon="2.74609">
        <ele>123.8</ele>
        <time>2021-08-21T11:52:43Z</time>
      </trkpt>
      <trkpt lat="48.35363" lon="2.7461">
        <ele>123.8</ele>
        <time>2021-08-21T11:52:44Z</time>
      </trkpt>
      <trkpt lat="48.35363" lon="2.74611">
        <ele>123.8</ele>
        <time>2021-08-21T11:52:45Z</time>
      </trkpt>
      <trkpt lat="48.35363" lon="2.74612">
        <ele>123.8</ele>
        <time>2021-08-21T11:52:46Z</time>
      </trkpt>
      <trkpt lat="48.35363" lon="2.74613">
        <ele>123.8</ele>
        <time>2021-08-21T11:52:47Z</time>
      </trkpt>
      <trkpt lat="48.35363" lon="2.74615">
        <ele>123.8</ele>
        <time>2021-08-21T11:52:48Z</time>
      </trkpt>
      <trkpt lat="48.35363" lon="2.74617">
        <ele>123.7</ele>
        <time>2021-08-21T11:52:49Z</time>
      </trkpt>
      <trkpt lat="48.35364" lon="2.74618">
        <ele>123.7</ele>
        <time>2021-08-21T11:52:50Z</time>
      </trkpt>
      <trkpt lat="48.35364" lon="2.74619">
        <ele>123.7</ele>
        <time>2021-08-21T11:52:51Z</time>
      </trkpt>
      <trkpt lat="48.35364" lon="2.7462">
        <ele>123.7</ele>
        <time>2021-08-21T11:52:52Z</time>
      </trkpt>
      <trkpt lat="48.35364" lon="2.74622">
        <ele>123.7</ele>
        <time>2021-08-21T11:52:53Z</time>
      </trkpt>
      <trkpt lat="48.35364" lon="2.74623">
        <ele>123.7</ele>
        <time>2021-08-21T11:52:54Z</time>
      </trkpt>
      <trkpt lat="48.35364" lon="2.74625">
        <ele>123.7</ele>
        <time>2021-08-21T11:52:55Z</time>
      </trkpt>
      <trkpt lat="48.35365" lon="2.74627">
        <ele>123.7</ele>
        <time>2021-08-21T11:52:56Z</time>
      </trkpt>
      <trkpt lat="48.35365" lon="2.74628">
        <ele>123.7</ele>
        <time>2021-08-21T11:52:57Z</time>
      </trkpt>
      <trkpt lat="48.35364" lon="2.74629">
        <ele>123.7</ele>
        <time>2021-08-21T11:52:58Z</time>
      </trkpt>
      <trkpt lat="48.35364" lon="2.74631">
        <ele>123.6</ele>
        <time>2021-08-21T11:52:59Z</time>
      </trkpt>
      <trkpt lat="48.35365" lon="2.74632">
        <ele>123.6</ele>
        <time>2021-08-21T11:53:00Z</time>
      </trkpt>
      <trkpt lat="48.35365" lon="2.74634">
        <ele>123.6</ele>
        <time>2021-08-21T11:53:01Z</time>
      </trkpt>
      <trkpt lat="48.35365" lon="2.74636">
        <ele>123.6</ele>
        <time>2021-08-21T11:53:02Z</time>
      </trkpt>
      <trkpt lat="48.35365" lon="2.74638">
        <ele>123.6</ele>
        <time>2021-08-21T11:53:03Z</time>
      </trkpt>
      <trkpt lat="48.35365" lon="2.74639">
        <ele>123.6</ele>
        <time>2021-08-21T11:53:04Z</time>
      </trkpt>
      <trkpt lat="48.35365" lon="2.74641">
        <ele>123.6</ele>
        <time>2021-08-21T11:53:05Z</time>
      </trkpt>
      <trkpt lat="48.35365" lon="2.74642">
        <ele>123.6</ele>
        <time>2021-08-21T11:53:06Z</time>
      </trkpt>
      <trkpt lat="48.35365" lon="2.74643">
        <ele>123.6</ele>
        <time>2021-08-21T11:53:07Z</time>
      </trkpt>
      <trkpt lat="48.35365" lon="2.74645">
        <ele>123.6</ele>
        <time>2021-08-21T11:53:08Z</time>
      </trkpt>
      <trkpt lat="48.35365" lon="2.74647">
        <ele>123.6</ele>
        <time>2021-08-21T11:53:09Z</time>
      </trkpt>
      <trkpt lat="48.35365" lon="2.74648">
        <ele>123.6</ele>
        <time>2021-08-21T11:53:10Z</time>
      </trkpt>
      <trkpt lat="48.35365" lon="2.7465">
        <ele>123.6</ele>
        <time>2021-08-21T11:53:11Z</time>
      </trkpt>
      <trkpt lat="48.35365" lon="2.74652">
        <ele>123.6</ele>
        <time>2021-08-21T11:53:12Z</time>
      </trkpt>
      <trkpt lat="48.35366" lon="2.74655">
        <ele>123.6</ele>
        <time>2021-08-21T11:53:13Z</time>
      </trkpt>
      <trkpt lat="48.35366" lon="2.74656">
        <ele>123.6</ele>
        <time>2021-08-21T11:53:14Z</time>
      </trkpt>
      <trkpt lat="48.35366" lon="2.74658">
        <ele>123.6</ele>
        <time>2021-08-21T11:53:15Z</time>
      </trkpt>
      <trkpt lat="48.35366" lon="2.74661">
        <ele>123.7</ele>
        <time>2021-08-21T11:53:16Z</time>
      </trkpt>
      <trkpt lat="48.35367" lon="2.74662">
        <ele>123.7</ele>
        <time>2021-08-21T11:53:17Z</time>
      </trkpt>
      <trkpt lat="48.35367" lon="2.74663">
        <ele>123.7</ele>
        <time>2021-08-21T11:53:18Z</time>
      </trkpt>
      <trkpt lat="48.35367" lon="2.74665">
        <ele>123.7</ele>
        <time>2021-08-21T11:53:19Z</time>
      </trkpt>
      <trkpt lat="48.35367" lon="2.74667">
        <ele>123.7</ele>
        <time>2021-08-21T11:53:20Z</time>
      </trkpt>
      <trkpt lat="48.35367" lon="2.74669">
        <ele>123.7</ele>
        <time>2021-08-21T11:53:21Z</time>
      </trkpt>
      <trkpt lat="48.35367" lon="2.7467">
        <ele>123.7</ele>
        <time>2021-08-21T11:53:22Z</time>
      </trkpt>
      <trkpt lat="48.35367" lon="2.74672">
        <ele>123.7</ele>
        <time>2021-08-21T11:53:23Z</time>
      </trkpt>
      <trkpt lat="48.35367" lon="2.74674">
        <ele>123.7</ele>
        <time>2021-08-21T11:53:24Z</time>
      </trkpt>
      <trkpt lat="48.35367" lon="2.74677">
        <ele>123.8</ele>
        <time>2021-08-21T11:53:25Z</time>
      </trkpt>
      <trkpt lat="48.35367" lon="2.74678">
        <ele>123.8</ele>
        <time>2021-08-21T11:53:26Z</time>
      </trkpt>
      <trkpt lat="48.35367" lon="2.7468">
        <ele>123.8</ele>
        <time>2021-08-21T11:53:27Z</time>
      </trkpt>
      <trkpt lat="48.35367" lon="2.74682">
        <ele>123.8</ele>
        <time>2021-08-21T11:53:28Z</time>
      </trkpt>
      <trkpt lat="48.35366" lon="2.74684">
        <ele>123.9</ele>
        <time>2021-08-21T11:53:29Z</time>
      </trkpt>
      <trkpt lat="48.35366" lon="2.74686">
        <ele>123.9</ele>
        <time>2021-08-21T11:53:30Z</time>
      </trkpt>
      <trkpt lat="48.35366" lon="2.74688">
        <ele>123.9</ele>
        <time>2021-08-21T11:53:31Z</time>
      </trkpt>
      <trkpt lat="48.35366" lon="2.74689">
        <ele>123.9</ele>
        <time>2021-08-21T11:53:32Z</time>
      </trkpt>
      <trkpt lat="48.35366" lon="2.74693">
        <ele>124</ele>
        <time>2021-08-21T11:53:33Z</time>
      </trkpt>
      <trkpt lat="48.35367" lon="2.74694">
        <ele>124</ele>
        <time>2021-08-21T11:53:34Z</time>
      </trkpt>
      <trkpt lat="48.35367" lon="2.74695">
        <ele>124</ele>
        <time>2021-08-21T11:53:35Z</time>
      </trkpt>
      <trkpt lat="48.35367" lon="2.74697">
        <ele>124.1</ele>
        <time>2021-08-21T11:53:36Z</time>
      </trkpt>
      <trkpt lat="48.35367" lon="2.74699">
        <ele>124.1</ele>
        <time>2021-08-21T11:53:37Z</time>
      </trkpt>
      <trkpt lat="48.35367" lon="2.747">
        <ele>124.1</ele>
        <time>2021-08-21T11:53:38Z</time>
      </trkpt>
      <trkpt lat="48.35367" lon="2.74702">
        <ele>124.1</ele>
        <time>2021-08-21T11:53:39Z</time>
      </trkpt>
      <trkpt lat="48.35367" lon="2.74703">
        <ele>124.2</ele>
        <time>2021-08-21T11:53:40Z</time>
      </trkpt>
      <trkpt lat="48.35368" lon="2.74705">
        <ele>124.2</ele>
        <time>2021-08-21T11:53:41Z</time>
      </trkpt>
      <trkpt lat="48.35368" lon="2.74706">
        <ele>124.2</ele>
        <time>2021-08-21T11:53:42Z</time>
      </trkpt>
      <trkpt lat="48.35368" lon="2.74708">
        <ele>124.2</ele>
        <time>2021-08-21T11:53:43Z</time>
      </trkpt>
      <trkpt lat="48.35368" lon="2.74709">
        <ele>124.3</ele>
        <time>2021-08-21T11:53:44Z</time>
      </trkpt>
      <trkpt lat="48.35368" lon="2.74711">
        <ele>124.3</ele>
        <time>2021-08-21T11:53:45Z</time>
      </trkpt>
      <trkpt lat="48.35368" lon="2.74712">
        <ele>124.3</ele>
        <time>2021-08-21T11:53:46Z</time>
      </trkpt>
      <trkpt lat="48.35368" lon="2.74714">
        <ele>124.3</ele>
        <time>2021-08-21T11:53:47Z</time>
      </trkpt>
      <trkpt lat="48.35369" lon="2.74716">
        <ele>124.4</ele>
        <time>2021-08-21T11:53:48Z</time>
      </trkpt>
      <trkpt lat="48.35369" lon="2.74718">
        <ele>124.4</ele>
        <time>2021-08-21T11:53:49Z</time>
      </trkpt>
      <trkpt lat="48.35369" lon="2.74719">
        <ele>124.4</ele>
        <time>2021-08-21T11:53:50Z</time>
      </trkpt>
      <trkpt lat="48.35369" lon="2.7472">
        <ele>124.5</ele>
        <time>2021-08-21T11:53:51Z</time>
      </trkpt>
      <trkpt lat="48.35369" lon="2.74722">
        <ele>124.5</ele>
        <time>2021-08-21T11:53:52Z</time>
      </trkpt>
      <trkpt lat="48.3537" lon="2.74724">
        <ele>124.5</ele>
        <time>2021-08-21T11:53:53Z</time>
      </trkpt>
      <trkpt lat="48.35369" lon="2.74726">
        <ele>124.6</ele>
        <time>2021-08-21T11:53:54Z</time>
      </trkpt>
      <trkpt lat="48.35369" lon="2.74728">
        <ele>124.6</ele>
        <time>2021-08-21T11:53:55Z</time>
      </trkpt>
      <trkpt lat="48.35369" lon="2.7473">
        <ele>124.7</ele>
        <time>2021-08-21T11:53:56Z</time>
      </trkpt>
      <trkpt lat="48.35369" lon="2.74732">
        <ele>124.7</ele>
        <time>2021-08-21T11:53:57Z</time>
      </trkpt>
      <trkpt lat="48.35369" lon="2.74736">
        <ele>124.8</ele>
        <time>2021-08-21T11:53:58Z</time>
      </trkpt>
      <trkpt lat="48.35369" lon="2.74737">
        <ele>124.8</ele>
        <time>2021-08-21T11:53:59Z</time>
      </trkpt>
      <trkpt lat="48.3537" lon="2.74738">
        <ele>124.8</ele>
        <time>2021-08-21T11:54:00Z</time>
      </trkpt>
      <trkpt lat="48.3537" lon="2.7474">
        <ele>124.9</ele>
        <time>2021-08-21T11:54:01Z</time>
      </trkpt>
      <trkpt lat="48.35371" lon="2.74742">
        <ele>124.9</ele>
        <time>2021-08-21T11:54:02Z</time>
      </trkpt>
      <trkpt lat="48.35371" lon="2.74745">
        <ele>125</ele>
        <time>2021-08-21T11:54:03Z</time>
      </trkpt>
      <trkpt lat="48.35371" lon="2.74747">
        <ele>125</ele>
        <time>2021-08-21T11:54:04Z</time>
      </trkpt>
      <trkpt lat="48.35371" lon="2.74748">
        <ele>125</ele>
        <time>2021-08-21T11:54:05Z</time>
      </trkpt>
      <trkpt lat="48.35371" lon="2.74751">
        <ele>125.1</ele>
        <time>2021-08-21T11:54:06Z</time>
      </trkpt>
      <trkpt lat="48.35371" lon="2.74752">
        <ele>125.2</ele>
        <time>2021-08-21T11:54:07Z</time>
      </trkpt>
      <trkpt lat="48.35371" lon="2.74754">
        <ele>125.2</ele>
        <time>2021-08-21T11:54:08Z</time>
      </trkpt>
      <trkpt lat="48.35371" lon="2.74756">
        <ele>125.2</ele>
        <time>2021-08-21T11:54:09Z</time>
      </trkpt>
      <trkpt lat="48.35371" lon="2.74757">
        <ele>125.3</ele>
        <time>2021-08-21T11:54:10Z</time>
      </trkpt>
      <trkpt lat="48.35372" lon="2.74759">
        <ele>125.3</ele>
        <time>2021-08-21T11:54:11Z</time>
      </trkpt>
      <trkpt lat="48.35372" lon="2.7476">
        <ele>125.3</ele>
        <time>2021-08-21T11:54:12Z</time>
      </trkpt>
      <trkpt lat="48.35372" lon="2.74762">
        <ele>125.4</ele>
        <time>2021-08-21T11:54:13Z</time>
      </trkpt>
      <trkpt lat="48.35372" lon="2.74764">
        <ele>125.4</ele>
        <time>2021-08-21T11:54:14Z</time>
      </trkpt>
      <trkpt lat="48.35372" lon="2.74765">
        <ele>125.5</ele>
        <time>2021-08-21T11:54:15Z</time>
      </trkpt>
      <trkpt lat="48.35373" lon="2.74766">
        <ele>125.5</ele>
        <time>2021-08-21T11:54:16Z</time>
      </trkpt>
      <trkpt lat="48.35373" lon="2.74767">
        <ele>125.5</ele>
        <time>2021-08-21T11:54:17Z</time>
      </trkpt>
      <trkpt lat="48.35374" lon="2.74768">
        <ele>125.6</ele>
        <time>2021-08-21T11:54:18Z</time>
      </trkpt>
      <trkpt lat="48.35374" lon="2.74771">
        <ele>125.6</ele>
        <time>2021-08-21T11:54:19Z</time>
      </trkpt>
      <trkpt lat="48.35375" lon="2.74772">
        <ele>125.7</ele>
        <time>2021-08-21T11:54:20Z</time>
      </trkpt>
      <trkpt lat="48.35375" lon="2.74774">
        <ele>125.7</ele>
        <time>2021-08-21T11:54:21Z</time>
      </trkpt>
      <trkpt lat="48.35375" lon="2.74776">
        <ele>125.8</ele>
        <time>2021-08-21T11:54:22Z</time>
      </trkpt>
      <trkpt lat="48.35376" lon="2.74778">
        <ele>125.8</ele>
        <time>2021-08-21T11:54:23Z</time>
      </trkpt>
      <trkpt lat="48.35376" lon="2.74779">
        <ele>125.9</ele>
        <time>2021-08-21T11:54:24Z</time>
      </trkpt>
      <trkpt lat="48.35376" lon="2.74781">
        <ele>125.9</ele>
        <time>2021-08-21T11:54:25Z</time>
      </trkpt>
      <trkpt lat="48.35377" lon="2.74782">
        <ele>126</ele>
        <time>2021-08-21T11:54:26Z</time>
      </trkpt>
      <trkpt lat="48.35377" lon="2.74784">
        <ele>126</ele>
        <time>2021-08-21T11:54:27Z</time>
      </trkpt>
      <trkpt lat="48.35377" lon="2.74785">
        <ele>126</ele>
        <time>2021-08-21T11:54:28Z</time>
      </trkpt>
      <trkpt lat="48.35378" lon="2.74787">
        <ele>126.1</ele>
        <time>2021-08-21T11:54:29Z</time>
      </trkpt>
      <trkpt lat="48.35378" lon="2.74788">
        <ele>126.1</ele>
        <time>2021-08-21T11:54:30Z</time>
      </trkpt>
      <trkpt lat="48.35378" lon="2.74789">
        <ele>126.2</ele>
        <time>2021-08-21T11:54:31Z</time>
      </trkpt>
      <trkpt lat="48.35378" lon="2.74791">
        <ele>126.2</ele>
        <time>2021-08-21T11:54:32Z</time>
      </trkpt>
      <trkpt lat="48.35378" lon="2.74792">
        <ele>126.2</ele>
        <time>2021-08-21T11:54:33Z</time>
      </trkpt>
      <trkpt lat="48.35379" lon="2.74795">
        <ele>126.3</ele>
        <time>2021-08-21T11:54:34Z</time>
      </trkpt>
      <trkpt lat="48.35379" lon="2.74795">
        <ele>126.3</ele>
        <time>2021-08-21T11:54:35Z</time>
      </trkpt>
      <trkpt lat="48.35379" lon="2.74796">
        <ele>126.3</ele>
        <time>2021-08-21T11:54:36Z</time>
      </trkpt>
      <trkpt lat="48.35379" lon="2.74797">
        <ele>126.4</ele>
        <time>2021-08-21T11:54:37Z</time>
      </trkpt>
      <trkpt lat="48.35379" lon="2.74799">
        <ele>126.4</ele>
        <time>2021-08-21T11:54:38Z</time>
      </trkpt>
      <trkpt lat="48.3538" lon="2.748">
        <ele>126.4</ele>
        <time>2021-08-21T11:54:39Z</time>
      </trkpt>
      <trkpt lat="48.3538" lon="2.74802">
        <ele>126.4</ele>
        <time>2021-08-21T11:54:40Z</time>
      </trkpt>
      <trkpt lat="48.3538" lon="2.74803">
        <ele>126.4</ele>
        <time>2021-08-21T11:54:41Z</time>
      </trkpt>
      <trkpt lat="48.3538" lon="2.74805">
        <ele>126.4</ele>
        <time>2021-08-21T11:54:42Z</time>
      </trkpt>
      <trkpt lat="48.3538" lon="2.74806">
        <ele>126.4</ele>
        <time>2021-08-21T11:54:43Z</time>
      </trkpt>
      <trkpt lat="48.35381" lon="2.74807">
        <ele>126.4</ele>
        <time>2021-08-21T11:54:44Z</time>
      </trkpt>
      <trkpt lat="48.35381" lon="2.74807">
        <ele>126.4</ele>
        <time>2021-08-21T11:54:45Z</time>
      </trkpt>
      <trkpt lat="48.3538" lon="2.74807">
        <ele>126.4</ele>
        <time>2021-08-21T11:54:46Z</time>
      </trkpt>
      <trkpt lat="48.3538" lon="2.74807">
        <ele>126.4</ele>
        <time>2021-08-21T11:54:47Z</time>
      </trkpt>
      <trkpt lat="48.3538" lon="2.74808">
        <ele>126.4</ele>
        <time>2021-08-21T11:54:48Z</time>
      </trkpt>
      <trkpt lat="48.35381" lon="2.74809">
        <ele>126.4</ele>
        <time>2021-08-21T11:54:49Z</time>
      </trkpt>
      <trkpt lat="48.35381" lon="2.74811">
        <ele>126.4</ele>
        <time>2021-08-21T11:54:50Z</time>
      </trkpt>
      <trkpt lat="48.35381" lon="2.74812">
        <ele>126.4</ele>
        <time>2021-08-21T11:54:51Z</time>
      </trkpt>
      <trkpt lat="48.35381" lon="2.74813">
        <ele>126.4</ele>
        <time>2021-08-21T11:54:52Z</time>
      </trkpt>
      <trkpt lat="48.35382" lon="2.74814">
        <ele>126.4</ele>
        <time>2021-08-21T11:54:53Z</time>
      </trkpt>
      <trkpt lat="48.35382" lon="2.74816">
        <ele>126.4</ele>
        <time>2021-08-21T11:54:54Z</time>
      </trkpt>
      <trkpt lat="48.35382" lon="2.74817">
        <ele>126.4</ele>
        <time>2021-08-21T11:54:55Z</time>
      </trkpt>
      <trkpt lat="48.35383" lon="2.74818">
        <ele>126.4</ele>
        <time>2021-08-21T11:54:56Z</time>
      </trkpt>
      <trkpt lat="48.35383" lon="2.74819">
        <ele>126.3</ele>
        <time>2021-08-21T11:54:57Z</time>
      </trkpt>
      <trkpt lat="48.35383" lon="2.74821">
        <ele>126.3</ele>
        <time>2021-08-21T11:54:58Z</time>
      </trkpt>
      <trkpt lat="48.35384" lon="2.74822">
        <ele>126.3</ele>
        <time>2021-08-21T11:54:59Z</time>
      </trkpt>
      <trkpt lat="48.35384" lon="2.74823">
        <ele>126.3</ele>
        <time>2021-08-21T11:55:00Z</time>
      </trkpt>
      <trkpt lat="48.35385" lon="2.74824">
        <ele>126.3</ele>
        <time>2021-08-21T11:55:01Z</time>
      </trkpt>
      <trkpt lat="48.35385" lon="2.74825">
        <ele>126.2</ele>
        <time>2021-08-21T11:55:02Z</time>
      </trkpt>
      <trkpt lat="48.35385" lon="2.74826">
        <ele>126.2</ele>
        <time>2021-08-21T11:55:03Z</time>
      </trkpt>
      <trkpt lat="48.35386" lon="2.74828">
        <ele>126.2</ele>
        <time>2021-08-21T11:55:04Z</time>
      </trkpt>
      <trkpt lat="48.35387" lon="2.74829">
        <ele>126.1</ele>
        <time>2021-08-21T11:55:05Z</time>
      </trkpt>
      <trkpt lat="48.35387" lon="2.7483">
        <ele>126.1</ele>
        <time>2021-08-21T11:55:06Z</time>
      </trkpt>
      <trkpt lat="48.35388" lon="2.74831">
        <ele>126.1</ele>
        <time>2021-08-21T11:55:07Z</time>
      </trkpt>
      <trkpt lat="48.35388" lon="2.74832">
        <ele>126</ele>
        <time>2021-08-21T11:55:08Z</time>
      </trkpt>
      <trkpt lat="48.35389" lon="2.74833">
        <ele>126</ele>
        <time>2021-08-21T11:55:09Z</time>
      </trkpt>
      <trkpt lat="48.35389" lon="2.74834">
        <ele>126</ele>
        <time>2021-08-21T11:55:10Z</time>
      </trkpt>
      <trkpt lat="48.3539" lon="2.74835">
        <ele>125.9</ele>
        <time>2021-08-21T11:55:11Z</time>
      </trkpt>
      <trkpt lat="48.35391" lon="2.74838">
        <ele>125.8</ele>
        <time>2021-08-21T11:55:12Z</time>
      </trkpt>
      <trkpt lat="48.35392" lon="2.74839">
        <ele>125.8</ele>
        <time>2021-08-21T11:55:13Z</time>
      </trkpt>
      <trkpt lat="48.35392" lon="2.7484">
        <ele>125.8</ele>
        <time>2021-08-21T11:55:14Z</time>
      </trkpt>
      <trkpt lat="48.35393" lon="2.74841">
        <ele>125.7</ele>
        <time>2021-08-21T11:55:15Z</time>
      </trkpt>
      <trkpt lat="48.35393" lon="2.74842">
        <ele>125.7</ele>
        <time>2021-08-21T11:55:16Z</time>
      </trkpt>
      <trkpt lat="48.35394" lon="2.74844">
        <ele>125.6</ele>
        <time>2021-08-21T11:55:17Z</time>
      </trkpt>
      <trkpt lat="48.35394" lon="2.74845">
        <ele>125.6</ele>
        <time>2021-08-21T11:55:18Z</time>
      </trkpt>
      <trkpt lat="48.35395" lon="2.74847">
        <ele>125.5</ele>
        <time>2021-08-21T11:55:19Z</time>
      </trkpt>
      <trkpt lat="48.35395" lon="2.74848">
        <ele>125.4</ele>
        <time>2021-08-21T11:55:20Z</time>
      </trkpt>
      <trkpt lat="48.35396" lon="2.7485">
        <ele>125.4</ele>
        <time>2021-08-21T11:55:21Z</time>
      </trkpt>
      <trkpt lat="48.35396" lon="2.74851">
        <ele>125.3</ele>
        <time>2021-08-21T11:55:22Z</time>
      </trkpt>
      <trkpt lat="48.35397" lon="2.74853">
        <ele>125.2</ele>
        <time>2021-08-21T11:55:23Z</time>
      </trkpt>
      <trkpt lat="48.35397" lon="2.74854">
        <ele>125.2</ele>
        <time>2021-08-21T11:55:24Z</time>
      </trkpt>
      <trkpt lat="48.35398" lon="2.74856">
        <ele>125.1</ele>
        <time>2021-08-21T11:55:25Z</time>
      </trkpt>
      <trkpt lat="48.35398" lon="2.74857">
        <ele>125</ele>
        <time>2021-08-21T11:55:26Z</time>
      </trkpt>
      <trkpt lat="48.35399" lon="2.74859">
        <ele>125</ele>
        <time>2021-08-21T11:55:27Z</time>
      </trkpt>
      <trkpt lat="48.35399" lon="2.7486">
        <ele>124.9</ele>
        <time>2021-08-21T11:55:28Z</time>
      </trkpt>
      <trkpt lat="48.354" lon="2.74862">
        <ele>124.8</ele>
        <time>2021-08-21T11:55:29Z</time>
      </trkpt>
      <trkpt lat="48.354" lon="2.74864">
        <ele>124.7</ele>
        <time>2021-08-21T11:55:30Z</time>
      </trkpt>
      <trkpt lat="48.35401" lon="2.74865">
        <ele>124.7</ele>
        <time>2021-08-21T11:55:31Z</time>
      </trkpt>
      <trkpt lat="48.35402" lon="2.74867">
        <ele>124.6</ele>
        <time>2021-08-21T11:55:32Z</time>
      </trkpt>
      <trkpt lat="48.35402" lon="2.74868">
        <ele>124.5</ele>
        <time>2021-08-21T11:55:33Z</time>
      </trkpt>
      <trkpt lat="48.35403" lon="2.7487">
        <ele>124.4</ele>
        <time>2021-08-21T11:55:34Z</time>
      </trkpt>
      <trkpt lat="48.35403" lon="2.74871">
        <ele>124.4</ele>
        <time>2021-08-21T11:55:35Z</time>
      </trkpt>
      <trkpt lat="48.35405" lon="2.74874">
        <ele>124.2</ele>
        <time>2021-08-21T11:55:36Z</time>
      </trkpt>
      <trkpt lat="48.35405" lon="2.74875">
        <ele>124.2</ele>
        <time>2021-08-21T11:55:37Z</time>
      </trkpt>
      <trkpt lat="48.35405" lon="2.74876">
        <ele>124.1</ele>
        <time>2021-08-21T11:55:38Z</time>
      </trkpt>
      <trkpt lat="48.35406" lon="2.74877">
        <ele>124</ele>
        <time>2021-08-21T11:55:39Z</time>
      </trkpt>
      <trkpt lat="48.35407" lon="2.74879">
        <ele>124</ele>
        <time>2021-08-21T11:55:40Z</time>
      </trkpt>
      <trkpt lat="48.35407" lon="2.7488">
        <ele>123.9</ele>
        <time>2021-08-21T11:55:41Z</time>
      </trkpt>
      <trkpt lat="48.35408" lon="2.74882">
        <ele>123.8</ele>
        <time>2021-08-21T11:55:42Z</time>
      </trkpt>
      <trkpt lat="48.35409" lon="2.74883">
        <ele>123.7</ele>
        <time>2021-08-21T11:55:43Z</time>
      </trkpt>
      <trkpt lat="48.35409" lon="2.74885">
        <ele>123.7</ele>
        <time>2021-08-21T11:55:44Z</time>
      </trkpt>
      <trkpt lat="48.3541" lon="2.74887">
        <ele>123.5</ele>
        <time>2021-08-21T11:55:45Z</time>
      </trkpt>
      <trkpt lat="48.35411" lon="2.74888">
        <ele>123.4</ele>
        <time>2021-08-21T11:55:46Z</time>
      </trkpt>
      <trkpt lat="48.35412" lon="2.74889">
        <ele>123.4</ele>
        <time>2021-08-21T11:55:47Z</time>
      </trkpt>
      <trkpt lat="48.35413" lon="2.74892">
        <ele>123.2</ele>
        <time>2021-08-21T11:55:48Z</time>
      </trkpt>
      <trkpt lat="48.35413" lon="2.74893">
        <ele>123.2</ele>
        <time>2021-08-21T11:55:49Z</time>
      </trkpt>
      <trkpt lat="48.35414" lon="2.74894">
        <ele>123.1</ele>
        <time>2021-08-21T11:55:50Z</time>
      </trkpt>
      <trkpt lat="48.35415" lon="2.74896">
        <ele>123</ele>
        <time>2021-08-21T11:55:51Z</time>
      </trkpt>
      <trkpt lat="48.35415" lon="2.74898">
        <ele>122.9</ele>
        <time>2021-08-21T11:55:52Z</time>
      </trkpt>
      <trkpt lat="48.35416" lon="2.74899">
        <ele>122.8</ele>
        <time>2021-08-21T11:55:53Z</time>
      </trkpt>
      <trkpt lat="48.35417" lon="2.74901">
        <ele>122.7</ele>
        <time>2021-08-21T11:55:54Z</time>
      </trkpt>
      <trkpt lat="48.35418" lon="2.74903">
        <ele>122.5</ele>
        <time>2021-08-21T11:55:55Z</time>
      </trkpt>
      <trkpt lat="48.35418" lon="2.74905">
        <ele>122.4</ele>
        <time>2021-08-21T11:55:56Z</time>
      </trkpt>
      <trkpt lat="48.35419" lon="2.74907">
        <ele>122.3</ele>
        <time>2021-08-21T11:55:57Z</time>
      </trkpt>
      <trkpt lat="48.3542" lon="2.74909">
        <ele>122.2</ele>
        <time>2021-08-21T11:55:58Z</time>
      </trkpt>
      <trkpt lat="48.3542" lon="2.74911">
        <ele>122.1</ele>
        <time>2021-08-21T11:55:59Z</time>
      </trkpt>
      <trkpt lat="48.35421" lon="2.74913">
        <ele>121.9</ele>
        <time>2021-08-21T11:56:00Z</time>
      </trkpt>
      <trkpt lat="48.35421" lon="2.74915">
        <ele>121.8</ele>
        <time>2021-08-21T11:56:01Z</time>
      </trkpt>
      <trkpt lat="48.35421" lon="2.74916">
        <ele>121.7</ele>
        <time>2021-08-21T11:56:02Z</time>
      </trkpt>
      <trkpt lat="48.35422" lon="2.74918">
        <ele>121.6</ele>
        <time>2021-08-21T11:56:03Z</time>
      </trkpt>
      <trkpt lat="48.35422" lon="2.7492">
        <ele>121.5</ele>
        <time>2021-08-21T11:56:04Z</time>
      </trkpt>
      <trkpt lat="48.35423" lon="2.74921">
        <ele>121.5</ele>
        <time>2021-08-21T11:56:05Z</time>
      </trkpt>
      <trkpt lat="48.35423" lon="2.74923">
        <ele>121.3</ele>
        <time>2021-08-21T11:56:06Z</time>
      </trkpt>
      <trkpt lat="48.35424" lon="2.74926">
        <ele>121.2</ele>
        <time>2021-08-21T11:56:07Z</time>
      </trkpt>
      <trkpt lat="48.35424" lon="2.74927">
        <ele>121.1</ele>
        <time>2021-08-21T11:56:08Z</time>
      </trkpt>
      <trkpt lat="48.35424" lon="2.74928">
        <ele>121</ele>
        <time>2021-08-21T11:56:09Z</time>
      </trkpt>
      <trkpt lat="48.35425" lon="2.7493">
        <ele>120.9</ele>
        <time>2021-08-21T11:56:10Z</time>
      </trkpt>
      <trkpt lat="48.35425" lon="2.74932">
        <ele>120.8</ele>
        <time>2021-08-21T11:56:11Z</time>
      </trkpt>
      <trkpt lat="48.35426" lon="2.74933">
        <ele>120.8</ele>
        <time>2021-08-21T11:56:12Z</time>
      </trkpt>
      <trkpt lat="48.35426" lon="2.74935">
        <ele>120.7</ele>
        <time>2021-08-21T11:56:13Z</time>
      </trkpt>
      <trkpt lat="48.35426" lon="2.74936">
        <ele>120.6</ele>
        <time>2021-08-21T11:56:14Z</time>
      </trkpt>
      <trkpt lat="48.35427" lon="2.74938">
        <ele>120.5</ele>
        <time>2021-08-21T11:56:15Z</time>
      </trkpt>
      <trkpt lat="48.35427" lon="2.74939">
        <ele>120.4</ele>
        <time>2021-08-21T11:56:16Z</time>
      </trkpt>
      <trkpt lat="48.35428" lon="2.7494">
        <ele>120.3</ele>
        <time>2021-08-21T11:56:17Z</time>
      </trkpt>
      <trkpt lat="48.35428" lon="2.74942">
        <ele>120.2</ele>
        <time>2021-08-21T11:56:18Z</time>
      </trkpt>
      <trkpt lat="48.35428" lon="2.74943">
        <ele>120.2</ele>
        <time>2021-08-21T11:56:19Z</time>
      </trkpt>
      <trkpt lat="48.35429" lon="2.74944">
        <ele>120.1</ele>
        <time>2021-08-21T11:56:20Z</time>
      </trkpt>
      <trkpt lat="48.35429" lon="2.74945">
        <ele>120</ele>
        <time>2021-08-21T11:56:21Z</time>
      </trkpt>
      <trkpt lat="48.3543" lon="2.74946">
        <ele>120</ele>
        <time>2021-08-21T11:56:22Z</time>
      </trkpt>
      <trkpt lat="48.35431" lon="2.74948">
        <ele>119.8</ele>
        <time>2021-08-21T11:56:23Z</time>
      </trkpt>
      <trkpt lat="48.35431" lon="2.74949">
        <ele>119.8</ele>
        <time>2021-08-21T11:56:24Z</time>
      </trkpt>
      <trkpt lat="48.35431" lon="2.7495">
        <ele>119.7</ele>
        <time>2021-08-21T11:56:25Z</time>
      </trkpt>
      <trkpt lat="48.35432" lon="2.74951">
        <ele>119.7</ele>
        <time>2021-08-21T11:56:26Z</time>
      </trkpt>
      <trkpt lat="48.35432" lon="2.74952">
        <ele>119.6</ele>
        <time>2021-08-21T11:56:27Z</time>
      </trkpt>
      <trkpt lat="48.35433" lon="2.74953">
        <ele>119.5</ele>
        <time>2021-08-21T11:56:28Z</time>
      </trkpt>
      <trkpt lat="48.35434" lon="2.74953">
        <ele>119.5</ele>
        <time>2021-08-21T11:56:29Z</time>
      </trkpt>
      <trkpt lat="48.35434" lon="2.74954">
        <ele>119.4</ele>
        <time>2021-08-21T11:56:30Z</time>
      </trkpt>
      <trkpt lat="48.35435" lon="2.74955">
        <ele>119.3</ele>
        <time>2021-08-21T11:56:31Z</time>
      </trkpt>
      <trkpt lat="48.35435" lon="2.74956">
        <ele>119.3</ele>
        <time>2021-08-21T11:56:32Z</time>
      </trkpt>
      <trkpt lat="48.35436" lon="2.74957">
        <ele>119.2</ele>
        <time>2021-08-21T11:56:33Z</time>
      </trkpt>
      <trkpt lat="48.35437" lon="2.74959">
        <ele>119.1</ele>
        <time>2021-08-21T11:56:34Z</time>
      </trkpt>
      <trkpt lat="48.35437" lon="2.7496">
        <ele>119</ele>
        <time>2021-08-21T11:56:35Z</time>
      </trkpt>
      <trkpt lat="48.35438" lon="2.74961">
        <ele>119</ele>
        <time>2021-08-21T11:56:36Z</time>
      </trkpt>
      <trkpt lat="48.35438" lon="2.74962">
        <ele>118.9</ele>
        <time>2021-08-21T11:56:37Z</time>
      </trkpt>
      <trkpt lat="48.35439" lon="2.74963">
        <ele>118.8</ele>
        <time>2021-08-21T11:56:38Z</time>
      </trkpt>
      <trkpt lat="48.3544" lon="2.74965">
        <ele>118.8</ele>
        <time>2021-08-21T11:56:39Z</time>
      </trkpt>
      <trkpt lat="48.3544" lon="2.74966">
        <ele>118.7</ele>
        <time>2021-08-21T11:56:40Z</time>
      </trkpt>
      <trkpt lat="48.35441" lon="2.74967">
        <ele>118.6</ele>
        <time>2021-08-21T11:56:41Z</time>
      </trkpt>
      <trkpt lat="48.35442" lon="2.74968">
        <ele>118.5</ele>
        <time>2021-08-21T11:56:42Z</time>
      </trkpt>
      <trkpt lat="48.35443" lon="2.74969">
        <ele>118.5</ele>
        <time>2021-08-21T11:56:43Z</time>
      </trkpt>
      <trkpt lat="48.35443" lon="2.7497">
        <ele>118.4</ele>
        <time>2021-08-21T11:56:44Z</time>
      </trkpt>
      <trkpt lat="48.35444" lon="2.74971">
        <ele>118.3</ele>
        <time>2021-08-21T11:56:45Z</time>
      </trkpt>
      <trkpt lat="48.35445" lon="2.74972">
        <ele>118.3</ele>
        <time>2021-08-21T11:56:46Z</time>
      </trkpt>
      <trkpt lat="48.35446" lon="2.74973">
        <ele>118.2</ele>
        <time>2021-08-21T11:56:47Z</time>
      </trkpt>
      <trkpt lat="48.35446" lon="2.74974">
        <ele>118.1</ele>
        <time>2021-08-21T11:56:48Z</time>
      </trkpt>
      <trkpt lat="48.35447" lon="2.74975">
        <ele>118.1</ele>
        <time>2021-08-21T11:56:49Z</time>
      </trkpt>
      <trkpt lat="48.35448" lon="2.74976">
        <ele>118</ele>
        <time>2021-08-21T11:56:50Z</time>
      </trkpt>
      <trkpt lat="48.35449" lon="2.74977">
        <ele>117.9</ele>
        <time>2021-08-21T11:56:51Z</time>
      </trkpt>
      <trkpt lat="48.3545" lon="2.74979">
        <ele>117.9</ele>
        <time>2021-08-21T11:56:52Z</time>
      </trkpt>
      <trkpt lat="48.35451" lon="2.7498">
        <ele>117.8</ele>
        <time>2021-08-21T11:56:53Z</time>
      </trkpt>
      <trkpt lat="48.35451" lon="2.74981">
        <ele>117.7</ele>
        <time>2021-08-21T11:56:54Z</time>
      </trkpt>
      <trkpt lat="48.35452" lon="2.74982">
        <ele>117.7</ele>
        <time>2021-08-21T11:56:55Z</time>
      </trkpt>
      <trkpt lat="48.35453" lon="2.74983">
        <ele>117.6</ele>
        <time>2021-08-21T11:56:56Z</time>
      </trkpt>
      <trkpt lat="48.35454" lon="2.74984">
        <ele>117.5</ele>
        <time>2021-08-21T11:56:57Z</time>
      </trkpt>
      <trkpt lat="48.35455" lon="2.74985">
        <ele>117.5</ele>
        <time>2021-08-21T11:56:58Z</time>
      </trkpt>
      <trkpt lat="48.35455" lon="2.74985">
        <ele>117.6</ele>
        <time>2021-08-21T11:56:59Z</time>
      </trkpt>
      <trkpt lat="48.35455" lon="2.74986">
        <ele>117.6</ele>
        <time>2021-08-21T11:57:00Z</time>
      </trkpt>
      <trkpt lat="48.35456" lon="2.74986">
        <ele>117.6</ele>
        <time>2021-08-21T11:57:01Z</time>
      </trkpt>
      <trkpt lat="48.35456" lon="2.74986">
        <ele>117.6</ele>
        <time>2021-08-21T11:57:02Z</time>
      </trkpt>
      <trkpt lat="48.35456" lon="2.74987">
        <ele>117.6</ele>
        <time>2021-08-21T11:57:03Z</time>
      </trkpt>
      <trkpt lat="48.35456" lon="2.74987">
        <ele>117.6</ele>
        <time>2021-08-21T11:57:04Z</time>
      </trkpt>
      <trkpt lat="48.35457" lon="2.74988">
        <ele>117.6</ele>
        <time>2021-08-21T11:57:05Z</time>
      </trkpt>
      <trkpt lat="48.35457" lon="2.74989">
        <ele>117.6</ele>
        <time>2021-08-21T11:57:06Z</time>
      </trkpt>
      <trkpt lat="48.35458" lon="2.74989">
        <ele>117.6</ele>
        <time>2021-08-21T11:57:07Z</time>
      </trkpt>
      <trkpt lat="48.35458" lon="2.74988">
        <ele>117.6</ele>
        <time>2021-08-21T11:57:08Z</time>
      </trkpt>
      <trkpt lat="48.35458" lon="2.74988">
        <ele>117.7</ele>
        <time>2021-08-21T11:57:09Z</time>
      </trkpt>
      <trkpt lat="48.35458" lon="2.74988">
        <ele>117.7</ele>
        <time>2021-08-21T11:57:10Z</time>
      </trkpt>
      <trkpt lat="48.35458" lon="2.74988">
        <ele>117.7</ele>
        <time>2021-08-21T11:57:11Z</time>
      </trkpt>
      <trkpt lat="48.35458" lon="2.74988">
        <ele>117.7</ele>
        <time>2021-08-21T11:57:12Z</time>
      </trkpt>
      <trkpt lat="48.35458" lon="2.74988">
        <ele>117.7</ele>
        <time>2021-08-21T11:57:13Z</time>
      </trkpt>
      <trkpt lat="48.35458" lon="2.74988">
        <ele>117.7</ele>
        <time>2021-08-21T11:57:14Z</time>
      </trkpt>
      <trkpt lat="48.35458" lon="2.74988">
        <ele>117.7</ele>
        <time>2021-08-21T11:57:15Z</time>
      </trkpt>
      <trkpt lat="48.35459" lon="2.74989">
        <ele>117.7</ele>
        <time>2021-08-21T11:57:16Z</time>
      </trkpt>
      <trkpt lat="48.3546" lon="2.7499">
        <ele>117.7</ele>
        <time>2021-08-21T11:57:17Z</time>
      </trkpt>
      <trkpt lat="48.35461" lon="2.74991">
        <ele>117.8</ele>
        <time>2021-08-21T11:57:18Z</time>
      </trkpt>
      <trkpt lat="48.35461" lon="2.74992">
        <ele>117.8</ele>
        <time>2021-08-21T11:57:19Z</time>
      </trkpt>
      <trkpt lat="48.35462" lon="2.74993">
        <ele>117.8</ele>
        <time>2021-08-21T11:57:20Z</time>
      </trkpt>
      <trkpt lat="48.35463" lon="2.74994">
        <ele>117.9</ele>
        <time>2021-08-21T11:57:21Z</time>
      </trkpt>
      <trkpt lat="48.35464" lon="2.74995">
        <ele>117.9</ele>
        <time>2021-08-21T11:57:22Z</time>
      </trkpt>
      <trkpt lat="48.35465" lon="2.74996">
        <ele>117.9</ele>
        <time>2021-08-21T11:57:23Z</time>
      </trkpt>
      <trkpt lat="48.35465" lon="2.74996">
        <ele>117.9</ele>
        <time>2021-08-21T11:57:24Z</time>
      </trkpt>
      <trkpt lat="48.35466" lon="2.74997">
        <ele>118</ele>
        <time>2021-08-21T11:57:25Z</time>
      </trkpt>
      <trkpt lat="48.35466" lon="2.74997">
        <ele>118</ele>
        <time>2021-08-21T11:57:26Z</time>
      </trkpt>
      <trkpt lat="48.35466" lon="2.74998">
        <ele>118</ele>
        <time>2021-08-21T11:57:27Z</time>
      </trkpt>
      <trkpt lat="48.35466" lon="2.74998">
        <ele>118</ele>
        <time>2021-08-21T11:57:28Z</time>
      </trkpt>
      <trkpt lat="48.35467" lon="2.74999">
        <ele>118.1</ele>
        <time>2021-08-21T11:57:29Z</time>
      </trkpt>
      <trkpt lat="48.35467" lon="2.75">
        <ele>118.1</ele>
        <time>2021-08-21T11:57:30Z</time>
      </trkpt>
      <trkpt lat="48.35467" lon="2.75">
        <ele>118.1</ele>
        <time>2021-08-21T11:57:31Z</time>
      </trkpt>
      <trkpt lat="48.35467" lon="2.75001">
        <ele>118.1</ele>
        <time>2021-08-21T11:57:32Z</time>
      </trkpt>
      <trkpt lat="48.35467" lon="2.75002">
        <ele>118.1</ele>
        <time>2021-08-21T11:57:33Z</time>
      </trkpt>
      <trkpt lat="48.35468" lon="2.75003">
        <ele>118.2</ele>
        <time>2021-08-21T11:57:34Z</time>
      </trkpt>
      <trkpt lat="48.35468" lon="2.75004">
        <ele>118.2</ele>
        <time>2021-08-21T11:57:35Z</time>
      </trkpt>
      <trkpt lat="48.35468" lon="2.75005">
        <ele>118.2</ele>
        <time>2021-08-21T11:57:36Z</time>
      </trkpt>
      <trkpt lat="48.35468" lon="2.75007">
        <ele>118.2</ele>
        <time>2021-08-21T11:57:37Z</time>
      </trkpt>
      <trkpt lat="48.35468" lon="2.75008">
        <ele>118.3</ele>
        <time>2021-08-21T11:57:38Z</time>
      </trkpt>
      <trkpt lat="48.35468" lon="2.75009">
        <ele>118.3</ele>
        <time>2021-08-21T11:57:39Z</time>
      </trkpt>
      <trkpt lat="48.35469" lon="2.75011">
        <ele>118.3</ele>
        <time>2021-08-21T11:57:40Z</time>
      </trkpt>
      <trkpt lat="48.35469" lon="2.75012">
        <ele>118.4</ele>
        <time>2021-08-21T11:57:41Z</time>
      </trkpt>
      <trkpt lat="48.35469" lon="2.75014">
        <ele>118.4</ele>
        <time>2021-08-21T11:57:42Z</time>
      </trkpt>
      <trkpt lat="48.35469" lon="2.75017">
        <ele>118.5</ele>
        <time>2021-08-21T11:57:43Z</time>
      </trkpt>
      <trkpt lat="48.35469" lon="2.75018">
        <ele>118.5</ele>
        <time>2021-08-21T11:57:44Z</time>
      </trkpt>
      <trkpt lat="48.3547" lon="2.7502">
        <ele>118.5</ele>
        <time>2021-08-21T11:57:45Z</time>
      </trkpt>
      <trkpt lat="48.3547" lon="2.75023">
        <ele>118.6</ele>
        <time>2021-08-21T11:57:46Z</time>
      </trkpt>
      <trkpt lat="48.3547" lon="2.75024">
        <ele>118.6</ele>
        <time>2021-08-21T11:57:47Z</time>
      </trkpt>
      <trkpt lat="48.3547" lon="2.75025">
        <ele>118.6</ele>
        <time>2021-08-21T11:57:48Z</time>
      </trkpt>
      <trkpt lat="48.3547" lon="2.75027">
        <ele>118.7</ele>
        <time>2021-08-21T11:57:49Z</time>
      </trkpt>
      <trkpt lat="48.3547" lon="2.75029">
        <ele>118.7</ele>
        <time>2021-08-21T11:57:50Z</time>
      </trkpt>
      <trkpt lat="48.3547" lon="2.7503">
        <ele>118.7</ele>
        <time>2021-08-21T11:57:51Z</time>
      </trkpt>
      <trkpt lat="48.3547" lon="2.75033">
        <ele>118.8</ele>
        <time>2021-08-21T11:57:52Z</time>
      </trkpt>
      <trkpt lat="48.3547" lon="2.75035">
        <ele>118.8</ele>
        <time>2021-08-21T11:57:53Z</time>
      </trkpt>
      <trkpt lat="48.3547" lon="2.75036">
        <ele>118.8</ele>
        <time>2021-08-21T11:57:54Z</time>
      </trkpt>
      <trkpt lat="48.3547" lon="2.75039">
        <ele>118.8</ele>
        <time>2021-08-21T11:57:55Z</time>
      </trkpt>
      <trkpt lat="48.3547" lon="2.75041">
        <ele>118.8</ele>
        <time>2021-08-21T11:57:56Z</time>
      </trkpt>
      <trkpt lat="48.3547" lon="2.75042">
        <ele>118.8</ele>
        <time>2021-08-21T11:57:57Z</time>
      </trkpt>
      <trkpt lat="48.3547" lon="2.75046">
        <ele>118.9</ele>
        <time>2021-08-21T11:57:58Z</time>
      </trkpt>
      <trkpt lat="48.3547" lon="2.75047">
        <ele>118.9</ele>
        <time>2021-08-21T11:57:59Z</time>
      </trkpt>
      <trkpt lat="48.3547" lon="2.75048">
        <ele>118.9</ele>
        <time>2021-08-21T11:58:00Z</time>
      </trkpt>
      <trkpt lat="48.3547" lon="2.75051">
        <ele>118.9</ele>
        <time>2021-08-21T11:58:01Z</time>
      </trkpt>
      <trkpt lat="48.3547" lon="2.75052">
        <ele>118.9</ele>
        <time>2021-08-21T11:58:02Z</time>
      </trkpt>
      <trkpt lat="48.35469" lon="2.75054">
        <ele>118.9</ele>
        <time>2021-08-21T11:58:03Z</time>
      </trkpt>
      <trkpt lat="48.35469" lon="2.75055">
        <ele>118.9</ele>
        <time>2021-08-21T11:58:04Z</time>
      </trkpt>
      <trkpt lat="48.35469" lon="2.75057">
        <ele>118.9</ele>
        <time>2021-08-21T11:58:05Z</time>
      </trkpt>
      <trkpt lat="48.35469" lon="2.75058">
        <ele>118.9</ele>
        <time>2021-08-21T11:58:06Z</time>
      </trkpt>
      <trkpt lat="48.35469" lon="2.75059">
        <ele>118.9</ele>
        <time>2021-08-21T11:58:07Z</time>
      </trkpt>
      <trkpt lat="48.35468" lon="2.7506">
        <ele>118.9</ele>
        <time>2021-08-21T11:58:08Z</time>
      </trkpt>
      <trkpt lat="48.35468" lon="2.7506">
        <ele>118.9</ele>
        <time>2021-08-21T11:58:09Z</time>
      </trkpt>
      <trkpt lat="48.35467" lon="2.75062">
        <ele>118.9</ele>
        <time>2021-08-21T11:58:10Z</time>
      </trkpt>
      <trkpt lat="48.35467" lon="2.75063">
        <ele>118.9</ele>
        <time>2021-08-21T11:58:11Z</time>
      </trkpt>
      <trkpt lat="48.35466" lon="2.75064">
        <ele>118.9</ele>
        <time>2021-08-21T11:58:12Z</time>
      </trkpt>
      <trkpt lat="48.35466" lon="2.75066">
        <ele>118.9</ele>
        <time>2021-08-21T11:58:13Z</time>
      </trkpt>
      <trkpt lat="48.35466" lon="2.75067">
        <ele>118.9</ele>
        <time>2021-08-21T11:58:14Z</time>
      </trkpt>
      <trkpt lat="48.35465" lon="2.75068">
        <ele>118.9</ele>
        <time>2021-08-21T11:58:15Z</time>
      </trkpt>
      <trkpt lat="48.35465" lon="2.75069">
        <ele>118.9</ele>
        <time>2021-08-21T11:58:16Z</time>
      </trkpt>
      <trkpt lat="48.35464" lon="2.7507">
        <ele>118.9</ele>
        <time>2021-08-21T11:58:17Z</time>
      </trkpt>
      <trkpt lat="48.35464" lon="2.7507">
        <ele>118.9</ele>
        <time>2021-08-21T11:58:18Z</time>
      </trkpt>
      <trkpt lat="48.35464" lon="2.75071">
        <ele>118.9</ele>
        <time>2021-08-21T11:58:19Z</time>
      </trkpt>
      <trkpt lat="48.35463" lon="2.75072">
        <ele>118.8</ele>
        <time>2021-08-21T11:58:20Z</time>
      </trkpt>
      <trkpt lat="48.35463" lon="2.75073">
        <ele>118.8</ele>
        <time>2021-08-21T11:58:21Z</time>
      </trkpt>
      <trkpt lat="48.35463" lon="2.75075">
        <ele>118.8</ele>
        <time>2021-08-21T11:58:22Z</time>
      </trkpt>
      <trkpt lat="48.35463" lon="2.75076">
        <ele>118.8</ele>
        <time>2021-08-21T11:58:23Z</time>
      </trkpt>
      <trkpt lat="48.35463" lon="2.75078">
        <ele>118.8</ele>
        <time>2021-08-21T11:58:24Z</time>
      </trkpt>
      <trkpt lat="48.35463" lon="2.75079">
        <ele>118.8</ele>
        <time>2021-08-21T11:58:25Z</time>
      </trkpt>
      <trkpt lat="48.35463" lon="2.75081">
        <ele>118.8</ele>
        <time>2021-08-21T11:58:26Z</time>
      </trkpt>
      <trkpt lat="48.35462" lon="2.75082">
        <ele>118.7</ele>
        <time>2021-08-21T11:58:27Z</time>
      </trkpt>
      <trkpt lat="48.35462" lon="2.75083">
        <ele>118.7</ele>
        <time>2021-08-21T11:58:28Z</time>
      </trkpt>
      <trkpt lat="48.35462" lon="2.75084">
        <ele>118.7</ele>
        <time>2021-08-21T11:58:29Z</time>
      </trkpt>
      <trkpt lat="48.35462" lon="2.75086">
        <ele>118.7</ele>
        <time>2021-08-21T11:58:30Z</time>
      </trkpt>
      <trkpt lat="48.35462" lon="2.75087">
        <ele>118.7</ele>
        <time>2021-08-21T11:58:31Z</time>
      </trkpt>
      <trkpt lat="48.35462" lon="2.75089">
        <ele>118.6</ele>
        <time>2021-08-21T11:58:32Z</time>
      </trkpt>
      <trkpt lat="48.35462" lon="2.7509">
        <ele>118.6</ele>
        <time>2021-08-21T11:58:33Z</time>
      </trkpt>
      <trkpt lat="48.35463" lon="2.75091">
        <ele>118.6</ele>
        <time>2021-08-21T11:58:34Z</time>
      </trkpt>
      <trkpt lat="48.35463" lon="2.75093">
        <ele>118.6</ele>
        <time>2021-08-21T11:58:35Z</time>
      </trkpt>
      <trkpt lat="48.35463" lon="2.75094">
        <ele>118.5</ele>
        <time>2021-08-21T11:58:36Z</time>
      </trkpt>
      <trkpt lat="48.35463" lon="2.75095">
        <ele>118.5</ele>
        <time>2021-08-21T11:58:37Z</time>
      </trkpt>
      <trkpt lat="48.35463" lon="2.75097">
        <ele>118.5</ele>
        <time>2021-08-21T11:58:38Z</time>
      </trkpt>
      <trkpt lat="48.35463" lon="2.75098">
        <ele>118.5</ele>
        <time>2021-08-21T11:58:39Z</time>
      </trkpt>
      <trkpt lat="48.35463" lon="2.751">
        <ele>118.4</ele>
        <time>2021-08-21T11:58:40Z</time>
      </trkpt>
      <trkpt lat="48.35463" lon="2.75101">
        <ele>118.4</ele>
        <time>2021-08-21T11:58:41Z</time>
      </trkpt>
      <trkpt lat="48.35464" lon="2.75103">
        <ele>118.4</ele>
        <time>2021-08-21T11:58:42Z</time>
      </trkpt>
      <trkpt lat="48.35464" lon="2.75104">
        <ele>118.4</ele>
        <time>2021-08-21T11:58:43Z</time>
      </trkpt>
      <trkpt lat="48.35464" lon="2.75106">
        <ele>118.3</ele>
        <time>2021-08-21T11:58:44Z</time>
      </trkpt>
      <trkpt lat="48.35464" lon="2.75107">
        <ele>118.3</ele>
        <time>2021-08-21T11:58:45Z</time>
      </trkpt>
      <trkpt lat="48.35464" lon="2.75108">
        <ele>118.3</ele>
        <time>2021-08-21T11:58:46Z</time>
      </trkpt>
      <trkpt lat="48.35465" lon="2.75109">
        <ele>118.3</ele>
        <time>2021-08-21T11:58:47Z</time>
      </trkpt>
      <trkpt lat="48.35465" lon="2.7511">
        <ele>118.2</ele>
        <time>2021-08-21T11:58:48Z</time>
      </trkpt>
      <trkpt lat="48.35465" lon="2.75111">
        <ele>118.2</ele>
        <time>2021-08-21T11:58:49Z</time>
      </trkpt>
      <trkpt lat="48.35465" lon="2.75113">
        <ele>118.2</ele>
        <time>2021-08-21T11:58:50Z</time>
      </trkpt>
      <trkpt lat="48.35465" lon="2.75114">
        <ele>118.1</ele>
        <time>2021-08-21T11:58:51Z</time>
      </trkpt>
      <trkpt lat="48.35465" lon="2.75116">
        <ele>118.1</ele>
        <time>2021-08-21T11:58:52Z</time>
      </trkpt>
      <trkpt lat="48.35465" lon="2.75117">
        <ele>118.1</ele>
        <time>2021-08-21T11:58:53Z</time>
      </trkpt>
      <trkpt lat="48.35465" lon="2.75118">
        <ele>118</ele>
        <time>2021-08-21T11:58:54Z</time>
      </trkpt>
      <trkpt lat="48.35465" lon="2.75119">
        <ele>118</ele>
        <time>2021-08-21T11:58:55Z</time>
      </trkpt>
      <trkpt lat="48.35465" lon="2.75121">
        <ele>118</ele>
        <time>2021-08-21T11:58:56Z</time>
      </trkpt>
      <trkpt lat="48.35465" lon="2.75123">
        <ele>117.9</ele>
        <time>2021-08-21T11:58:57Z</time>
      </trkpt>
      <trkpt lat="48.35465" lon="2.75125">
        <ele>117.9</ele>
        <time>2021-08-21T11:58:58Z</time>
      </trkpt>
      <trkpt lat="48.35466" lon="2.75126">
        <ele>117.9</ele>
        <time>2021-08-21T11:58:59Z</time>
      </trkpt>
      <trkpt lat="48.35466" lon="2.75128">
        <ele>117.8</ele>
        <time>2021-08-21T11:59:00Z</time>
      </trkpt>
      <trkpt lat="48.35466" lon="2.7513">
        <ele>117.8</ele>
        <time>2021-08-21T11:59:01Z</time>
      </trkpt>
      <trkpt lat="48.35466" lon="2.75131">
        <ele>117.7</ele>
        <time>2021-08-21T11:59:02Z</time>
      </trkpt>
      <trkpt lat="48.35467" lon="2.75133">
        <ele>117.7</ele>
        <time>2021-08-21T11:59:03Z</time>
      </trkpt>
      <trkpt lat="48.35467" lon="2.75134">
        <ele>117.6</ele>
        <time>2021-08-21T11:59:04Z</time>
      </trkpt>
      <trkpt lat="48.35467" lon="2.75136">
        <ele>117.6</ele>
        <time>2021-08-21T11:59:05Z</time>
      </trkpt>
      <trkpt lat="48.35468" lon="2.75138">
        <ele>117.5</ele>
        <time>2021-08-21T11:59:06Z</time>
      </trkpt>
      <trkpt lat="48.35468" lon="2.75139">
        <ele>117.5</ele>
        <time>2021-08-21T11:59:07Z</time>
      </trkpt>
      <trkpt lat="48.35468" lon="2.75141">
        <ele>117.5</ele>
        <time>2021-08-21T11:59:08Z</time>
      </trkpt>
      <trkpt lat="48.35468" lon="2.75143">
        <ele>117.4</ele>
        <time>2021-08-21T11:59:09Z</time>
      </trkpt>
      <trkpt lat="48.35468" lon="2.75145">
        <ele>117.4</ele>
        <time>2021-08-21T11:59:10Z</time>
      </trkpt>
      <trkpt lat="48.35468" lon="2.75148">
        <ele>117.3</ele>
        <time>2021-08-21T11:59:11Z</time>
      </trkpt>
      <trkpt lat="48.35468" lon="2.75149">
        <ele>117.3</ele>
        <time>2021-08-21T11:59:12Z</time>
      </trkpt>
      <trkpt lat="48.35468" lon="2.7515">
        <ele>117.2</ele>
        <time>2021-08-21T11:59:13Z</time>
      </trkpt>
      <trkpt lat="48.35468" lon="2.75153">
        <ele>117.2</ele>
        <time>2021-08-21T11:59:14Z</time>
      </trkpt>
      <trkpt lat="48.35468" lon="2.75155">
        <ele>117.1</ele>
        <time>2021-08-21T11:59:15Z</time>
      </trkpt>
      <trkpt lat="48.35468" lon="2.75158">
        <ele>117.1</ele>
        <time>2021-08-21T11:59:16Z</time>
      </trkpt>
      <trkpt lat="48.35468" lon="2.75159">
        <ele>117</ele>
        <time>2021-08-21T11:59:17Z</time>
      </trkpt>
      <trkpt lat="48.35467" lon="2.75161">
        <ele>117</ele>
        <time>2021-08-21T11:59:18Z</time>
      </trkpt>
      <trkpt lat="48.35467" lon="2.75163">
        <ele>117</ele>
        <time>2021-08-21T11:59:19Z</time>
      </trkpt>
      <trkpt lat="48.35467" lon="2.75165">
        <ele>117</ele>
        <time>2021-08-21T11:59:20Z</time>
      </trkpt>
      <trkpt lat="48.35467" lon="2.75168">
        <ele>116.9</ele>
        <time>2021-08-21T11:59:21Z</time>
      </trkpt>
      <trkpt lat="48.35466" lon="2.75169">
        <ele>116.9</ele>
        <time>2021-08-21T11:59:22Z</time>
      </trkpt>
      <trkpt lat="48.35466" lon="2.75171">
        <ele>116.9</ele>
        <time>2021-08-21T11:59:23Z</time>
      </trkpt>
      <trkpt lat="48.35466" lon="2.75172">
        <ele>116.9</ele>
        <time>2021-08-21T11:59:24Z</time>
      </trkpt>
      <trkpt lat="48.35466" lon="2.75174">
        <ele>116.9</ele>
        <time>2021-08-21T11:59:25Z</time>
      </trkpt>
      <trkpt lat="48.35465" lon="2.75175">
        <ele>116.9</ele>
        <time>2021-08-21T11:59:26Z</time>
      </trkpt>
      <trkpt lat="48.35465" lon="2.75176">
        <ele>116.9</ele>
        <time>2021-08-21T11:59:27Z</time>
      </trkpt>
      <trkpt lat="48.35465" lon="2.75178">
        <ele>116.9</ele>
        <time>2021-08-21T11:59:28Z</time>
      </trkpt>
      <trkpt lat="48.35464" lon="2.75179">
        <ele>116.9</ele>
        <time>2021-08-21T11:59:29Z</time>
      </trkpt>
      <trkpt lat="48.35464" lon="2.7518">
        <ele>116.9</ele>
        <time>2021-08-21T11:59:30Z</time>
      </trkpt>
      <trkpt lat="48.35463" lon="2.75182">
        <ele>116.9</ele>
        <time>2021-08-21T11:59:31Z</time>
      </trkpt>
      <trkpt lat="48.35463" lon="2.75183">
        <ele>116.9</ele>
        <time>2021-08-21T11:59:32Z</time>
      </trkpt>
      <trkpt lat="48.35462" lon="2.75184">
        <ele>116.9</ele>
        <time>2021-08-21T11:59:33Z</time>
      </trkpt>
      <trkpt lat="48.35462" lon="2.75185">
        <ele>116.9</ele>
        <time>2021-08-21T11:59:34Z</time>
      </trkpt>
      <trkpt lat="48.3546" lon="2.75186">
        <ele>117</ele>
        <time>2021-08-21T11:59:35Z</time>
      </trkpt>
      <trkpt lat="48.35459" lon="2.75187">
        <ele>117</ele>
        <time>2021-08-21T11:59:36Z</time>
      </trkpt>
      <trkpt lat="48.35458" lon="2.75188">
        <ele>117.1</ele>
        <time>2021-08-21T11:59:37Z</time>
      </trkpt>
      <trkpt lat="48.35456" lon="2.7519">
        <ele>117.2</ele>
        <time>2021-08-21T11:59:38Z</time>
      </trkpt>
      <trkpt lat="48.35455" lon="2.75191">
        <ele>117.2</ele>
        <time>2021-08-21T11:59:39Z</time>
      </trkpt>
      <trkpt lat="48.35455" lon="2.75191">
        <ele>117.2</ele>
        <time>2021-08-21T11:59:40Z</time>
      </trkpt>
      <trkpt lat="48.35454" lon="2.75193">
        <ele>117.3</ele>
        <time>2021-08-21T11:59:41Z</time>
      </trkpt>
      <trkpt lat="48.35453" lon="2.75194">
        <ele>117.4</ele>
        <time>2021-08-21T11:59:42Z</time>
      </trkpt>
      <trkpt lat="48.35452" lon="2.75195">
        <ele>117.4</ele>
        <time>2021-08-21T11:59:43Z</time>
      </trkpt>
      <trkpt lat="48.35451" lon="2.75196">
        <ele>117.5</ele>
        <time>2021-08-21T11:59:44Z</time>
      </trkpt>
      <trkpt lat="48.3545" lon="2.75197">
        <ele>117.6</ele>
        <time>2021-08-21T11:59:45Z</time>
      </trkpt>
      <trkpt lat="48.35449" lon="2.75198">
        <ele>117.7</ele>
        <time>2021-08-21T11:59:46Z</time>
      </trkpt>
      <trkpt lat="48.35448" lon="2.75199">
        <ele>117.8</ele>
        <time>2021-08-21T11:59:47Z</time>
      </trkpt>
      <trkpt lat="48.35447" lon="2.75199">
        <ele>117.9</ele>
        <time>2021-08-21T11:59:48Z</time>
      </trkpt>
      <trkpt lat="48.35446" lon="2.752">
        <ele>118</ele>
        <time>2021-08-21T11:59:49Z</time>
      </trkpt>
      <trkpt lat="48.35446" lon="2.752">
        <ele>118.1</ele>
        <time>2021-08-21T11:59:50Z</time>
      </trkpt>
      <trkpt lat="48.35445" lon="2.75202">
        <ele>118.2</ele>
        <time>2021-08-21T11:59:51Z</time>
      </trkpt>
      <trkpt lat="48.35444" lon="2.75203">
        <ele>118.3</ele>
        <time>2021-08-21T11:59:52Z</time>
      </trkpt>
      <trkpt lat="48.35444" lon="2.75204">
        <ele>118.4</ele>
        <time>2021-08-21T11:59:53Z</time>
      </trkpt>
      <trkpt lat="48.35443" lon="2.75205">
        <ele>118.5</ele>
        <time>2021-08-21T11:59:54Z</time>
      </trkpt>
      <trkpt lat="48.35443" lon="2.75206">
        <ele>118.6</ele>
        <time>2021-08-21T11:59:55Z</time>
      </trkpt>
      <trkpt lat="48.35442" lon="2.75207">
        <ele>118.7</ele>
        <time>2021-08-21T11:59:56Z</time>
      </trkpt>
      <trkpt lat="48.35442" lon="2.75208">
        <ele>118.9</ele>
        <time>2021-08-21T11:59:57Z</time>
      </trkpt>
      <trkpt lat="48.35441" lon="2.75209">
        <ele>119</ele>
        <time>2021-08-21T11:59:58Z</time>
      </trkpt>
      <trkpt lat="48.35441" lon="2.75211">
        <ele>119.1</ele>
        <time>2021-08-21T11:59:59Z</time>
      </trkpt>
      <trkpt lat="48.35441" lon="2.75212">
        <ele>119.2</ele>
        <time>2021-08-21T12:00:00Z</time>
      </trkpt>
      <trkpt lat="48.35441" lon="2.75214">
        <ele>119.5</ele>
        <time>2021-08-21T12:00:01Z</time>
      </trkpt>
      <trkpt lat="48.35441" lon="2.75215">
        <ele>119.6</ele>
        <time>2021-08-21T12:00:02Z</time>
      </trkpt>
      <trkpt lat="48.35441" lon="2.75216">
        <ele>119.7</ele>
        <time>2021-08-21T12:00:03Z</time>
      </trkpt>
      <trkpt lat="48.3544" lon="2.75217">
        <ele>119.8</ele>
        <time>2021-08-21T12:00:04Z</time>
      </trkpt>
      <trkpt lat="48.3544" lon="2.7522">
        <ele>120.1</ele>
        <time>2021-08-21T12:00:05Z</time>
      </trkpt>
      <trkpt lat="48.3544" lon="2.75221">
        <ele>120.2</ele>
        <time>2021-08-21T12:00:06Z</time>
      </trkpt>
      <trkpt lat="48.3544" lon="2.75222">
        <ele>120.3</ele>
        <time>2021-08-21T12:00:07Z</time>
      </trkpt>
      <trkpt lat="48.3544" lon="2.75223">
        <ele>120.5</ele>
        <time>2021-08-21T12:00:08Z</time>
      </trkpt>
      <trkpt lat="48.3544" lon="2.75224">
        <ele>120.6</ele>
        <time>2021-08-21T12:00:09Z</time>
      </trkpt>
      <trkpt lat="48.3544" lon="2.75225">
        <ele>120.8</ele>
        <time>2021-08-21T12:00:10Z</time>
      </trkpt>
      <trkpt lat="48.3544" lon="2.75227">
        <ele>121</ele>
        <time>2021-08-21T12:00:11Z</time>
      </trkpt>
      <trkpt lat="48.3544" lon="2.75228">
        <ele>121.1</ele>
        <time>2021-08-21T12:00:12Z</time>
      </trkpt>
      <trkpt lat="48.35439" lon="2.7523">
        <ele>121.3</ele>
        <time>2021-08-21T12:00:13Z</time>
      </trkpt>
      <trkpt lat="48.35439" lon="2.75231">
        <ele>121.5</ele>
        <time>2021-08-21T12:00:14Z</time>
      </trkpt>
      <trkpt lat="48.35439" lon="2.75232">
        <ele>121.7</ele>
        <time>2021-08-21T12:00:15Z</time>
      </trkpt>
      <trkpt lat="48.35439" lon="2.75234">
        <ele>121.9</ele>
        <time>2021-08-21T12:00:16Z</time>
      </trkpt>
      <trkpt lat="48.35438" lon="2.75235">
        <ele>122.1</ele>
        <time>2021-08-21T12:00:17Z</time>
      </trkpt>
      <trkpt lat="48.35438" lon="2.75236">
        <ele>122.2</ele>
        <time>2021-08-21T12:00:18Z</time>
      </trkpt>
      <trkpt lat="48.35438" lon="2.75237">
        <ele>122.4</ele>
        <time>2021-08-21T12:00:19Z</time>
      </trkpt>
      <trkpt lat="48.35438" lon="2.75239">
        <ele>122.6</ele>
        <time>2021-08-21T12:00:20Z</time>
      </trkpt>
      <trkpt lat="48.35437" lon="2.7524">
        <ele>122.8</ele>
        <time>2021-08-21T12:00:21Z</time>
      </trkpt>
      <trkpt lat="48.35437" lon="2.75241">
        <ele>123.1</ele>
        <time>2021-08-21T12:00:22Z</time>
      </trkpt>
      <trkpt lat="48.35436" lon="2.75243">
        <ele>123.3</ele>
        <time>2021-08-21T12:00:23Z</time>
      </trkpt>
      <trkpt lat="48.35436" lon="2.75244">
        <ele>123.5</ele>
        <time>2021-08-21T12:00:24Z</time>
      </trkpt>
      <trkpt lat="48.35436" lon="2.75245">
        <ele>123.7</ele>
        <time>2021-08-21T12:00:25Z</time>
      </trkpt>
      <trkpt lat="48.35435" lon="2.75246">
        <ele>123.9</ele>
        <time>2021-08-21T12:00:26Z</time>
      </trkpt>
      <trkpt lat="48.35435" lon="2.75247">
        <ele>124.2</ele>
        <time>2021-08-21T12:00:27Z</time>
      </trkpt>
      <trkpt lat="48.35435" lon="2.75248">
        <ele>124.4</ele>
        <time>2021-08-21T12:00:28Z</time>
      </trkpt>
      <trkpt lat="48.35434" lon="2.7525">
        <ele>124.6</ele>
        <time>2021-08-21T12:00:29Z</time>
      </trkpt>
      <trkpt lat="48.35434" lon="2.75251">
        <ele>124.8</ele>
        <time>2021-08-21T12:00:30Z</time>
      </trkpt>
      <trkpt lat="48.35434" lon="2.75252">
        <ele>125</ele>
        <time>2021-08-21T12:00:31Z</time>
      </trkpt>
      <trkpt lat="48.35434" lon="2.75253">
        <ele>125.2</ele>
        <time>2021-08-21T12:00:32Z</time>
      </trkpt>
      <trkpt lat="48.35433" lon="2.75255">
        <ele>125.5</ele>
        <time>2021-08-21T12:00:33Z</time>
      </trkpt>
      <trkpt lat="48.35433" lon="2.75256">
        <ele>125.7</ele>
        <time>2021-08-21T12:00:34Z</time>
      </trkpt>
      <trkpt lat="48.35433" lon="2.75257">
        <ele>125.9</ele>
        <time>2021-08-21T12:00:35Z</time>
      </trkpt>
      <trkpt lat="48.35433" lon="2.75258">
        <ele>126.1</ele>
        <time>2021-08-21T12:00:36Z</time>
      </trkpt>
      <trkpt lat="48.35433" lon="2.75259">
        <ele>126.3</ele>
        <time>2021-08-21T12:00:37Z</time>
      </trkpt>
      <trkpt lat="48.35433" lon="2.7526">
        <ele>126.5</ele>
        <time>2021-08-21T12:00:38Z</time>
      </trkpt>
      <trkpt lat="48.35432" lon="2.75262">
        <ele>126.7</ele>
        <time>2021-08-21T12:00:39Z</time>
      </trkpt>
      <trkpt lat="48.35432" lon="2.75263">
        <ele>126.9</ele>
        <time>2021-08-21T12:00:40Z</time>
      </trkpt>
      <trkpt lat="48.35432" lon="2.75264">
        <ele>127.1</ele>
        <time>2021-08-21T12:00:41Z</time>
      </trkpt>
      <trkpt lat="48.35432" lon="2.75265">
        <ele>127.3</ele>
        <time>2021-08-21T12:00:42Z</time>
      </trkpt>
      <trkpt lat="48.35432" lon="2.75266">
        <ele>127.5</ele>
        <time>2021-08-21T12:00:43Z</time>
      </trkpt>
      <trkpt lat="48.35432" lon="2.75267">
        <ele>127.7</ele>
        <time>2021-08-21T12:00:44Z</time>
      </trkpt>
      <trkpt lat="48.35432" lon="2.75268">
        <ele>127.9</ele>
        <time>2021-08-21T12:00:45Z</time>
      </trkpt>
      <trkpt lat="48.35431" lon="2.75269">
        <ele>128.1</ele>
        <time>2021-08-21T12:00:46Z</time>
      </trkpt>
      <trkpt lat="48.35431" lon="2.75271">
        <ele>128.3</ele>
        <time>2021-08-21T12:00:47Z</time>
      </trkpt>
      <trkpt lat="48.35431" lon="2.75272">
        <ele>128.6</ele>
        <time>2021-08-21T12:00:48Z</time>
      </trkpt>
      <trkpt lat="48.3543" lon="2.75273">
        <ele>128.8</ele>
        <time>2021-08-21T12:00:49Z</time>
      </trkpt>
      <trkpt lat="48.3543" lon="2.75274">
        <ele>129.1</ele>
        <time>2021-08-21T12:00:50Z</time>
      </trkpt>
      <trkpt lat="48.3543" lon="2.75275">
        <ele>129.3</ele>
        <time>2021-08-21T12:00:51Z</time>
      </trkpt>
      <trkpt lat="48.35429" lon="2.75277">
        <ele>129.5</ele>
        <time>2021-08-21T12:00:52Z</time>
      </trkpt>
      <trkpt lat="48.35429" lon="2.75279">
        <ele>129.8</ele>
        <time>2021-08-21T12:00:53Z</time>
      </trkpt>
      <trkpt lat="48.35428" lon="2.7528">
        <ele>130</ele>
        <time>2021-08-21T12:00:54Z</time>
      </trkpt>
      <trkpt lat="48.35428" lon="2.75281">
        <ele>130.2</ele>
        <time>2021-08-21T12:00:55Z</time>
      </trkpt>
      <trkpt lat="48.35428" lon="2.75282">
        <ele>130.4</ele>
        <time>2021-08-21T12:00:56Z</time>
      </trkpt>
      <trkpt lat="48.35427" lon="2.75283">
        <ele>130.6</ele>
        <time>2021-08-21T12:00:57Z</time>
      </trkpt>
      <trkpt lat="48.35427" lon="2.75284">
        <ele>130.8</ele>
        <time>2021-08-21T12:00:58Z</time>
      </trkpt>
      <trkpt lat="48.35426" lon="2.75285">
        <ele>130.9</ele>
        <time>2021-08-21T12:00:59Z</time>
      </trkpt>
      <trkpt lat="48.35426" lon="2.75286">
        <ele>131</ele>
        <time>2021-08-21T12:01:00Z</time>
      </trkpt>
      <trkpt lat="48.35426" lon="2.75286">
        <ele>131.2</ele>
        <time>2021-08-21T12:01:01Z</time>
      </trkpt>
      <trkpt lat="48.35426" lon="2.75287">
        <ele>131.2</ele>
        <time>2021-08-21T12:01:02Z</time>
      </trkpt>
      <trkpt lat="48.35426" lon="2.75287">
        <ele>131.3</ele>
        <time>2021-08-21T12:01:03Z</time>
      </trkpt>
      <trkpt lat="48.35425" lon="2.75287">
        <ele>131.3</ele>
        <time>2021-08-21T12:01:04Z</time>
      </trkpt>
      <trkpt lat="48.35425" lon="2.75288">
        <ele>131.4</ele>
        <time>2021-08-21T12:01:05Z</time>
      </trkpt>
      <trkpt lat="48.35425" lon="2.75288">
        <ele>131.5</ele>
        <time>2021-08-21T12:01:06Z</time>
      </trkpt>
      <trkpt lat="48.35425" lon="2.75289">
        <ele>131.5</ele>
        <time>2021-08-21T12:01:07Z</time>
      </trkpt>
      <trkpt lat="48.35425" lon="2.7529">
        <ele>131.6</ele>
        <time>2021-08-21T12:01:08Z</time>
      </trkpt>
      <trkpt lat="48.35425" lon="2.7529">
        <ele>131.7</ele>
        <time>2021-08-21T12:01:09Z</time>
      </trkpt>
      <trkpt lat="48.35425" lon="2.75291">
        <ele>131.8</ele>
        <time>2021-08-21T12:01:10Z</time>
      </trkpt>
      <trkpt lat="48.35425" lon="2.75292">
        <ele>131.9</ele>
        <time>2021-08-21T12:01:11Z</time>
      </trkpt>
      <trkpt lat="48.35425" lon="2.75292">
        <ele>132</ele>
        <time>2021-08-21T12:01:12Z</time>
      </trkpt>
      <trkpt lat="48.35425" lon="2.75293">
        <ele>132.1</ele>
        <time>2021-08-21T12:01:13Z</time>
      </trkpt>
      <trkpt lat="48.35426" lon="2.75294">
        <ele>132.2</ele>
        <time>2021-08-21T12:01:14Z</time>
      </trkpt>
      <trkpt lat="48.35426" lon="2.75295">
        <ele>132.3</ele>
        <time>2021-08-21T12:01:15Z</time>
      </trkpt>
      <trkpt lat="48.35426" lon="2.75296">
        <ele>132.4</ele>
        <time>2021-08-21T12:01:16Z</time>
      </trkpt>
      <trkpt lat="48.35426" lon="2.75297">
        <ele>132.5</ele>
        <time>2021-08-21T12:01:17Z</time>
      </trkpt>
      <trkpt lat="48.35426" lon="2.75298">
        <ele>132.6</ele>
        <time>2021-08-21T12:01:18Z</time>
      </trkpt>
      <trkpt lat="48.35427" lon="2.75299">
        <ele>132.7</ele>
        <time>2021-08-21T12:01:19Z</time>
      </trkpt>
      <trkpt lat="48.35427" lon="2.75301">
        <ele>132.9</ele>
        <time>2021-08-21T12:01:20Z</time>
      </trkpt>
      <trkpt lat="48.35427" lon="2.75302">
        <ele>133</ele>
        <time>2021-08-21T12:01:21Z</time>
      </trkpt>
      <trkpt lat="48.35427" lon="2.75303">
        <ele>133.1</ele>
        <time>2021-08-21T12:01:22Z</time>
      </trkpt>
      <trkpt lat="48.35427" lon="2.75304">
        <ele>133.2</ele>
        <time>2021-08-21T12:01:23Z</time>
      </trkpt>
      <trkpt lat="48.35427" lon="2.75305">
        <ele>133.2</ele>
        <time>2021-08-21T12:01:24Z</time>
      </trkpt>
      <trkpt lat="48.35427" lon="2.75307">
        <ele>133.4</ele>
        <time>2021-08-21T12:01:25Z</time>
      </trkpt>
      <trkpt lat="48.35427" lon="2.75308">
        <ele>133.4</ele>
        <time>2021-08-21T12:01:26Z</time>
      </trkpt>
      <trkpt lat="48.35427" lon="2.7531">
        <ele>133.5</ele>
        <time>2021-08-21T12:01:27Z</time>
      </trkpt>
      <trkpt lat="48.35427" lon="2.75311">
        <ele>133.6</ele>
        <time>2021-08-21T12:01:28Z</time>
      </trkpt>
      <trkpt lat="48.35426" lon="2.75312">
        <ele>133.7</ele>
        <time>2021-08-21T12:01:29Z</time>
      </trkpt>
      <trkpt lat="48.35426" lon="2.75314">
        <ele>133.8</ele>
        <time>2021-08-21T12:01:30Z</time>
      </trkpt>
      <trkpt lat="48.35426" lon="2.75315">
        <ele>133.8</ele>
        <time>2021-08-21T12:01:31Z</time>
      </trkpt>
      <trkpt lat="48.35426" lon="2.75317">
        <ele>133.9</ele>
        <time>2021-08-21T12:01:32Z</time>
      </trkpt>
      <trkpt lat="48.35426" lon="2.75318">
        <ele>133.9</ele>
        <time>2021-08-21T12:01:33Z</time>
      </trkpt>
      <trkpt lat="48.35426" lon="2.7532">
        <ele>134</ele>
        <time>2021-08-21T12:01:34Z</time>
      </trkpt>
      <trkpt lat="48.35426" lon="2.75322">
        <ele>134.1</ele>
        <time>2021-08-21T12:01:35Z</time>
      </trkpt>
      <trkpt lat="48.35426" lon="2.75323">
        <ele>134.1</ele>
        <time>2021-08-21T12:01:36Z</time>
      </trkpt>
      <trkpt lat="48.35426" lon="2.75325">
        <ele>134.1</ele>
        <time>2021-08-21T12:01:37Z</time>
      </trkpt>
      <trkpt lat="48.35426" lon="2.75326">
        <ele>134.2</ele>
        <time>2021-08-21T12:01:38Z</time>
      </trkpt>
      <trkpt lat="48.35426" lon="2.75328">
        <ele>134.2</ele>
        <time>2021-08-21T12:01:39Z</time>
      </trkpt>
      <trkpt lat="48.35427" lon="2.75329">
        <ele>134.2</ele>
        <time>2021-08-21T12:01:40Z</time>
      </trkpt>
      <trkpt lat="48.35426" lon="2.75331">
        <ele>134.2</ele>
        <time>2021-08-21T12:01:41Z</time>
      </trkpt>
      <trkpt lat="48.35426" lon="2.75332">
        <ele>134.2</ele>
        <time>2021-08-21T12:01:42Z</time>
      </trkpt>
      <trkpt lat="48.35426" lon="2.75333">
        <ele>134.2</ele>
        <time>2021-08-21T12:01:43Z</time>
      </trkpt>
      <trkpt lat="48.35426" lon="2.75334">
        <ele>134.3</ele>
        <time>2021-08-21T12:01:44Z</time>
      </trkpt>
      <trkpt lat="48.35426" lon="2.75335">
        <ele>134.3</ele>
        <time>2021-08-21T12:01:45Z</time>
      </trkpt>
      <trkpt lat="48.35426" lon="2.75336">
        <ele>134.3</ele>
        <time>2021-08-21T12:01:46Z</time>
      </trkpt>
      <trkpt lat="48.35426" lon="2.75337">
        <ele>134.2</ele>
        <time>2021-08-21T12:01:47Z</time>
      </trkpt>
      <trkpt lat="48.35426" lon="2.75338">
        <ele>134.2</ele>
        <time>2021-08-21T12:01:48Z</time>
      </trkpt>
      <trkpt lat="48.35427" lon="2.75339">
        <ele>134.2</ele>
        <time>2021-08-21T12:01:49Z</time>
      </trkpt>
      <trkpt lat="48.35427" lon="2.7534">
        <ele>134.2</ele>
        <time>2021-08-21T12:01:50Z</time>
      </trkpt>
      <trkpt lat="48.35427" lon="2.75342">
        <ele>134.2</ele>
        <time>2021-08-21T12:01:51Z</time>
      </trkpt>
      <trkpt lat="48.35427" lon="2.75343">
        <ele>134.2</ele>
        <time>2021-08-21T12:01:52Z</time>
      </trkpt>
      <trkpt lat="48.35427" lon="2.75344">
        <ele>134.1</ele>
        <time>2021-08-21T12:01:53Z</time>
      </trkpt>
      <trkpt lat="48.35427" lon="2.75346">
        <ele>134.1</ele>
        <time>2021-08-21T12:01:54Z</time>
      </trkpt>
      <trkpt lat="48.35427" lon="2.75347">
        <ele>134.1</ele>
        <time>2021-08-21T12:01:55Z</time>
      </trkpt>
      <trkpt lat="48.35428" lon="2.75348">
        <ele>134</ele>
        <time>2021-08-21T12:01:56Z</time>
      </trkpt>
      <trkpt lat="48.35428" lon="2.75349">
        <ele>134</ele>
        <time>2021-08-21T12:01:57Z</time>
      </trkpt>
      <trkpt lat="48.35428" lon="2.75351">
        <ele>133.9</ele>
        <time>2021-08-21T12:01:58Z</time>
      </trkpt>
      <trkpt lat="48.35428" lon="2.75352">
        <ele>133.9</ele>
        <time>2021-08-21T12:01:59Z</time>
      </trkpt>
      <trkpt lat="48.35428" lon="2.75353">
        <ele>133.8</ele>
        <time>2021-08-21T12:02:00Z</time>
      </trkpt>
      <trkpt lat="48.35428" lon="2.75354">
        <ele>133.7</ele>
        <time>2021-08-21T12:02:01Z</time>
      </trkpt>
      <trkpt lat="48.35428" lon="2.75356">
        <ele>133.7</ele>
        <time>2021-08-21T12:02:02Z</time>
      </trkpt>
      <trkpt lat="48.35428" lon="2.75358">
        <ele>133.6</ele>
        <time>2021-08-21T12:02:03Z</time>
      </trkpt>
      <trkpt lat="48.35428" lon="2.75359">
        <ele>133.5</ele>
        <time>2021-08-21T12:02:04Z</time>
      </trkpt>
      <trkpt lat="48.35428" lon="2.75361">
        <ele>133.4</ele>
        <time>2021-08-21T12:02:05Z</time>
      </trkpt>
      <trkpt lat="48.35428" lon="2.75362">
        <ele>133.3</ele>
        <time>2021-08-21T12:02:06Z</time>
      </trkpt>
      <trkpt lat="48.35427" lon="2.75364">
        <ele>133.2</ele>
        <time>2021-08-21T12:02:07Z</time>
      </trkpt>
      <trkpt lat="48.35427" lon="2.75365">
        <ele>133.2</ele>
        <time>2021-08-21T12:02:08Z</time>
      </trkpt>
      <trkpt lat="48.35427" lon="2.75366">
        <ele>133.1</ele>
        <time>2021-08-21T12:02:09Z</time>
      </trkpt>
      <trkpt lat="48.35427" lon="2.75368">
        <ele>133</ele>
        <time>2021-08-21T12:02:10Z</time>
      </trkpt>
      <trkpt lat="48.35426" lon="2.75369">
        <ele>132.9</ele>
        <time>2021-08-21T12:02:11Z</time>
      </trkpt>
      <trkpt lat="48.35426" lon="2.7537">
        <ele>132.9</ele>
        <time>2021-08-21T12:02:12Z</time>
      </trkpt>
      <trkpt lat="48.35426" lon="2.75371">
        <ele>132.8</ele>
        <time>2021-08-21T12:02:13Z</time>
      </trkpt>
      <trkpt lat="48.35426" lon="2.75372">
        <ele>132.7</ele>
        <time>2021-08-21T12:02:14Z</time>
      </trkpt>
      <trkpt lat="48.35425" lon="2.75374">
        <ele>132.6</ele>
        <time>2021-08-21T12:02:15Z</time>
      </trkpt>
      <trkpt lat="48.35425" lon="2.75375">
        <ele>132.5</ele>
        <time>2021-08-21T12:02:16Z</time>
      </trkpt>
      <trkpt lat="48.35425" lon="2.75377">
        <ele>132.4</ele>
        <time>2021-08-21T12:02:17Z</time>
      </trkpt>
      <trkpt lat="48.35424" lon="2.75378">
        <ele>132.3</ele>
        <time>2021-08-21T12:02:18Z</time>
      </trkpt>
      <trkpt lat="48.35424" lon="2.7538">
        <ele>132.2</ele>
        <time>2021-08-21T12:02:19Z</time>
      </trkpt>
      <trkpt lat="48.35424" lon="2.75381">
        <ele>132.1</ele>
        <time>2021-08-21T12:02:20Z</time>
      </trkpt>
      <trkpt lat="48.35423" lon="2.75383">
        <ele>132</ele>
        <time>2021-08-21T12:02:21Z</time>
      </trkpt>
      <trkpt lat="48.35423" lon="2.75384">
        <ele>132</ele>
        <time>2021-08-21T12:02:22Z</time>
      </trkpt>
      <trkpt lat="48.35423" lon="2.75385">
        <ele>131.9</ele>
        <time>2021-08-21T12:02:23Z</time>
      </trkpt>
      <trkpt lat="48.35422" lon="2.75386">
        <ele>131.9</ele>
        <time>2021-08-21T12:02:24Z</time>
      </trkpt>
      <trkpt lat="48.35422" lon="2.75387">
        <ele>131.8</ele>
        <time>2021-08-21T12:02:25Z</time>
      </trkpt>
      <trkpt lat="48.35422" lon="2.75388">
        <ele>131.8</ele>
        <time>2021-08-21T12:02:26Z</time>
      </trkpt>
      <trkpt lat="48.35422" lon="2.75389">
        <ele>131.7</ele>
        <time>2021-08-21T12:02:27Z</time>
      </trkpt>
      <trkpt lat="48.35422" lon="2.75391">
        <ele>131.7</ele>
        <time>2021-08-21T12:02:28Z</time>
      </trkpt>
      <trkpt lat="48.35422" lon="2.75392">
        <ele>131.6</ele>
        <time>2021-08-21T12:02:29Z</time>
      </trkpt>
      <trkpt lat="48.35422" lon="2.75393">
        <ele>131.6</ele>
        <time>2021-08-21T12:02:30Z</time>
      </trkpt>
      <trkpt lat="48.35422" lon="2.75394">
        <ele>131.6</ele>
        <time>2021-08-21T12:02:31Z</time>
      </trkpt>
      <trkpt lat="48.35422" lon="2.75395">
        <ele>131.6</ele>
        <time>2021-08-21T12:02:32Z</time>
      </trkpt>
      <trkpt lat="48.35422" lon="2.75396">
        <ele>131.6</ele>
        <time>2021-08-21T12:02:33Z</time>
      </trkpt>
      <trkpt lat="48.35421" lon="2.75398">
        <ele>131.5</ele>
        <time>2021-08-21T12:02:34Z</time>
      </trkpt>
      <trkpt lat="48.35421" lon="2.75399">
        <ele>131.5</ele>
        <time>2021-08-21T12:02:35Z</time>
      </trkpt>
      <trkpt lat="48.35421" lon="2.754">
        <ele>131.6</ele>
        <time>2021-08-21T12:02:36Z</time>
      </trkpt>
      <trkpt lat="48.35421" lon="2.75402">
        <ele>131.6</ele>
        <time>2021-08-21T12:02:37Z</time>
      </trkpt>
      <trkpt lat="48.35421" lon="2.75403">
        <ele>131.6</ele>
        <time>2021-08-21T12:02:38Z</time>
      </trkpt>
      <trkpt lat="48.35421" lon="2.75404">
        <ele>131.6</ele>
        <time>2021-08-21T12:02:39Z</time>
      </trkpt>
      <trkpt lat="48.35421" lon="2.75406">
        <ele>131.6</ele>
        <time>2021-08-21T12:02:40Z</time>
      </trkpt>
      <trkpt lat="48.35421" lon="2.75407">
        <ele>131.7</ele>
        <time>2021-08-21T12:02:41Z</time>
      </trkpt>
      <trkpt lat="48.35421" lon="2.75408">
        <ele>131.7</ele>
        <time>2021-08-21T12:02:42Z</time>
      </trkpt>
      <trkpt lat="48.35421" lon="2.7541">
        <ele>131.8</ele>
        <time>2021-08-21T12:02:43Z</time>
      </trkpt>
      <trkpt lat="48.35422" lon="2.75411">
        <ele>131.8</ele>
        <time>2021-08-21T12:02:44Z</time>
      </trkpt>
      <trkpt lat="48.35422" lon="2.75412">
        <ele>131.9</ele>
        <time>2021-08-21T12:02:45Z</time>
      </trkpt>
      <trkpt lat="48.35422" lon="2.75414">
        <ele>132</ele>
        <time>2021-08-21T12:02:46Z</time>
      </trkpt>
      <trkpt lat="48.35422" lon="2.75415">
        <ele>132</ele>
        <time>2021-08-21T12:02:47Z</time>
      </trkpt>
      <trkpt lat="48.35422" lon="2.75416">
        <ele>132.1</ele>
        <time>2021-08-21T12:02:48Z</time>
      </trkpt>
      <trkpt lat="48.35422" lon="2.75417">
        <ele>132.2</ele>
        <time>2021-08-21T12:02:49Z</time>
      </trkpt>
      <trkpt lat="48.35422" lon="2.75418">
        <ele>132.2</ele>
        <time>2021-08-21T12:02:50Z</time>
      </trkpt>
      <trkpt lat="48.35422" lon="2.75419">
        <ele>132.3</ele>
        <time>2021-08-21T12:02:51Z</time>
      </trkpt>
      <trkpt lat="48.35422" lon="2.7542">
        <ele>132.4</ele>
        <time>2021-08-21T12:02:52Z</time>
      </trkpt>
      <trkpt lat="48.35422" lon="2.75421">
        <ele>132.4</ele>
        <time>2021-08-21T12:02:53Z</time>
      </trkpt>
      <trkpt lat="48.35422" lon="2.75422">
        <ele>132.5</ele>
        <time>2021-08-21T12:02:54Z</time>
      </trkpt>
      <trkpt lat="48.35422" lon="2.75423">
        <ele>132.6</ele>
        <time>2021-08-21T12:02:55Z</time>
      </trkpt>
      <trkpt lat="48.35422" lon="2.75424">
        <ele>132.7</ele>
        <time>2021-08-21T12:02:56Z</time>
      </trkpt>
      <trkpt lat="48.35422" lon="2.75425">
        <ele>132.8</ele>
        <time>2021-08-21T12:02:57Z</time>
      </trkpt>
      <trkpt lat="48.35422" lon="2.75427">
        <ele>132.9</ele>
        <time>2021-08-21T12:02:58Z</time>
      </trkpt>
      <trkpt lat="48.35422" lon="2.75428">
        <ele>133</ele>
        <time>2021-08-21T12:02:59Z</time>
      </trkpt>
      <trkpt lat="48.35422" lon="2.75429">
        <ele>133</ele>
        <time>2021-08-21T12:03:00Z</time>
      </trkpt>
      <trkpt lat="48.35422" lon="2.7543">
        <ele>133.1</ele>
        <time>2021-08-21T12:03:01Z</time>
      </trkpt>
      <trkpt lat="48.35421" lon="2.75431">
        <ele>133.2</ele>
        <time>2021-08-21T12:03:02Z</time>
      </trkpt>
      <trkpt lat="48.35421" lon="2.75432">
        <ele>133.3</ele>
        <time>2021-08-21T12:03:03Z</time>
      </trkpt>
      <trkpt lat="48.35421" lon="2.75432">
        <ele>133.4</ele>
        <time>2021-08-21T12:03:04Z</time>
      </trkpt>
      <trkpt lat="48.35421" lon="2.75433">
        <ele>133.4</ele>
        <time>2021-08-21T12:03:05Z</time>
      </trkpt>
      <trkpt lat="48.3542" lon="2.75434">
        <ele>133.5</ele>
        <time>2021-08-21T12:03:06Z</time>
      </trkpt>
      <trkpt lat="48.3542" lon="2.75434">
        <ele>133.5</ele>
        <time>2021-08-21T12:03:08Z</time>
      </trkpt>
      <trkpt lat="48.3542" lon="2.75434">
        <ele>133.5</ele>
        <time>2021-08-21T12:03:09Z</time>
      </trkpt>
      <trkpt lat="48.3542" lon="2.75434">
        <ele>133.5</ele>
        <time>2021-08-21T12:03:10Z</time>
      </trkpt>
      <trkpt lat="48.3542" lon="2.75434">
        <ele>133.5</ele>
        <time>2021-08-21T12:03:11Z</time>
      </trkpt>
      <trkpt lat="48.3542" lon="2.75434">
        <ele>133.5</ele>
        <time>2021-08-21T12:03:12Z</time>
      </trkpt>
      <trkpt lat="48.3542" lon="2.75434">
        <ele>133.5</ele>
        <time>2021-08-21T12:03:13Z</time>
      </trkpt>
      <trkpt lat="48.3542" lon="2.75434">
        <ele>133.6</ele>
        <time>2021-08-21T12:03:14Z</time>
      </trkpt>
      <trkpt lat="48.3542" lon="2.75435">
        <ele>133.6</ele>
        <time>2021-08-21T12:03:15Z</time>
      </trkpt>
      <trkpt lat="48.3542" lon="2.75436">
        <ele>133.7</ele>
        <time>2021-08-21T12:03:16Z</time>
      </trkpt>
      <trkpt lat="48.3542" lon="2.75436">
        <ele>133.7</ele>
        <time>2021-08-21T12:03:17Z</time>
      </trkpt>
      <trkpt lat="48.3542" lon="2.75436">
        <ele>133.7</ele>
        <time>2021-08-21T12:03:18Z</time>
      </trkpt>
      <trkpt lat="48.3542" lon="2.75435">
        <ele>133.7</ele>
        <time>2021-08-21T12:03:19Z</time>
      </trkpt>
      <trkpt lat="48.3542" lon="2.75435">
        <ele>133.7</ele>
        <time>2021-08-21T12:03:20Z</time>
      </trkpt>
      <trkpt lat="48.3542" lon="2.75435">
        <ele>133.7</ele>
        <time>2021-08-21T12:03:21Z</time>
      </trkpt>
      <trkpt lat="48.3542" lon="2.75435">
        <ele>133.7</ele>
        <time>2021-08-21T12:03:22Z</time>
      </trkpt>
      <trkpt lat="48.3542" lon="2.75435">
        <ele>133.7</ele>
        <time>2021-08-21T12:03:23Z</time>
      </trkpt>
      <trkpt lat="48.3542" lon="2.75435">
        <ele>133.7</ele>
        <time>2021-08-21T12:03:24Z</time>
      </trkpt>
      <trkpt lat="48.3542" lon="2.75435">
        <ele>133.7</ele>
        <time>2021-08-21T12:03:25Z</time>
      </trkpt>
      <trkpt lat="48.3542" lon="2.75435">
        <ele>133.8</ele>
        <time>2021-08-21T12:03:26Z</time>
      </trkpt>
      <trkpt lat="48.3542" lon="2.75435">
        <ele>133.8</ele>
        <time>2021-08-21T12:03:27Z</time>
      </trkpt>
      <trkpt lat="48.3542" lon="2.75435">
        <ele>133.8</ele>
        <time>2021-08-21T12:03:28Z</time>
      </trkpt>
      <trkpt lat="48.3542" lon="2.75435">
        <ele>133.8</ele>
        <time>2021-08-21T12:03:29Z</time>
      </trkpt>
      <trkpt lat="48.3542" lon="2.75436">
        <ele>133.8</ele>
        <time>2021-08-21T12:03:30Z</time>
      </trkpt>
      <trkpt lat="48.3542" lon="2.75435">
        <ele>133.8</ele>
        <time>2021-08-21T12:03:31Z</time>
      </trkpt>
      <trkpt lat="48.3542" lon="2.75435">
        <ele>133.8</ele>
        <time>2021-08-21T12:03:32Z</time>
      </trkpt>
      <trkpt lat="48.3542" lon="2.75435">
        <ele>133.8</ele>
        <time>2021-08-21T12:03:33Z</time>
      </trkpt>
      <trkpt lat="48.3542" lon="2.75435">
        <ele>133.8</ele>
        <time>2021-08-21T12:03:34Z</time>
      </trkpt>
      <trkpt lat="48.3542" lon="2.75435">
        <ele>133.8</ele>
        <time>2021-08-21T12:03:35Z</time>
      </trkpt>
      <trkpt lat="48.3542" lon="2.75435">
        <ele>133.8</ele>
        <time>2021-08-21T12:03:36Z</time>
      </trkpt>
      <trkpt lat="48.3542" lon="2.75436">
        <ele>133.9</ele>
        <time>2021-08-21T12:03:37Z</time>
      </trkpt>
      <trkpt lat="48.3542" lon="2.75436">
        <ele>133.9</ele>
        <time>2021-08-21T12:03:38Z</time>
      </trkpt>
      <trkpt lat="48.3542" lon="2.75436">
        <ele>133.9</ele>
        <time>2021-08-21T12:03:39Z</time>
      </trkpt>
      <trkpt lat="48.3542" lon="2.75437">
        <ele>133.9</ele>
        <time>2021-08-21T12:03:40Z</time>
      </trkpt>
      <trkpt lat="48.35419" lon="2.75437">
        <ele>134</ele>
        <time>2021-08-21T12:03:41Z</time>
      </trkpt>
      <trkpt lat="48.35419" lon="2.75438">
        <ele>134.1</ele>
        <time>2021-08-21T12:03:42Z</time>
      </trkpt>
      <trkpt lat="48.35419" lon="2.75439">
        <ele>134.2</ele>
        <time>2021-08-21T12:03:43Z</time>
      </trkpt>
      <trkpt lat="48.35418" lon="2.7544">
        <ele>134.3</ele>
        <time>2021-08-21T12:03:44Z</time>
      </trkpt>
      <trkpt lat="48.35418" lon="2.75441">
        <ele>134.4</ele>
        <time>2021-08-21T12:03:45Z</time>
      </trkpt>
      <trkpt lat="48.35417" lon="2.75442">
        <ele>134.5</ele>
        <time>2021-08-21T12:03:46Z</time>
      </trkpt>
      <trkpt lat="48.35417" lon="2.75444">
        <ele>134.6</ele>
        <time>2021-08-21T12:03:47Z</time>
      </trkpt>
      <trkpt lat="48.35417" lon="2.75445">
        <ele>134.6</ele>
        <time>2021-08-21T12:03:48Z</time>
      </trkpt>
      <trkpt lat="48.35417" lon="2.75446">
        <ele>134.7</ele>
        <time>2021-08-21T12:03:49Z</time>
      </trkpt>
      <trkpt lat="48.35416" lon="2.75447">
        <ele>134.8</ele>
        <time>2021-08-21T12:03:50Z</time>
      </trkpt>
      <trkpt lat="48.35416" lon="2.75448">
        <ele>134.9</ele>
        <time>2021-08-21T12:03:51Z</time>
      </trkpt>
      <trkpt lat="48.35416" lon="2.75449">
        <ele>134.9</ele>
        <time>2021-08-21T12:03:52Z</time>
      </trkpt>
      <trkpt lat="48.35416" lon="2.7545">
        <ele>135</ele>
        <time>2021-08-21T12:03:53Z</time>
      </trkpt>
      <trkpt lat="48.35415" lon="2.75451">
        <ele>135.1</ele>
        <time>2021-08-21T12:03:54Z</time>
      </trkpt>
      <trkpt lat="48.35415" lon="2.75451">
        <ele>135.1</ele>
        <time>2021-08-21T12:03:55Z</time>
      </trkpt>
      <trkpt lat="48.35415" lon="2.75452">
        <ele>135.1</ele>
        <time>2021-08-21T12:03:56Z</time>
      </trkpt>
      <trkpt lat="48.35415" lon="2.75453">
        <ele>135.2</ele>
        <time>2021-08-21T12:03:57Z</time>
      </trkpt>
      <trkpt lat="48.35415" lon="2.75455">
        <ele>135.3</ele>
        <time>2021-08-21T12:03:58Z</time>
      </trkpt>
      <trkpt lat="48.35415" lon="2.75456">
        <ele>135.3</ele>
        <time>2021-08-21T12:03:59Z</time>
      </trkpt>
      <trkpt lat="48.35414" lon="2.75457">
        <ele>135.4</ele>
        <time>2021-08-21T12:04:00Z</time>
      </trkpt>
      <trkpt lat="48.35414" lon="2.75459">
        <ele>135.5</ele>
        <time>2021-08-21T12:04:01Z</time>
      </trkpt>
      <trkpt lat="48.35414" lon="2.7546">
        <ele>135.5</ele>
        <time>2021-08-21T12:04:02Z</time>
      </trkpt>
      <trkpt lat="48.35414" lon="2.75461">
        <ele>135.6</ele>
        <time>2021-08-21T12:04:03Z</time>
      </trkpt>
      <trkpt lat="48.35413" lon="2.75462">
        <ele>135.7</ele>
        <time>2021-08-21T12:04:04Z</time>
      </trkpt>
      <trkpt lat="48.35413" lon="2.75463">
        <ele>135.7</ele>
        <time>2021-08-21T12:04:05Z</time>
      </trkpt>
      <trkpt lat="48.35413" lon="2.75464">
        <ele>135.7</ele>
        <time>2021-08-21T12:04:06Z</time>
      </trkpt>
      <trkpt lat="48.35413" lon="2.75464">
        <ele>135.7</ele>
        <time>2021-08-21T12:04:07Z</time>
      </trkpt>
      <trkpt lat="48.35413" lon="2.75464">
        <ele>135.7</ele>
        <time>2021-08-21T12:04:08Z</time>
      </trkpt>
      <trkpt lat="48.35413" lon="2.75464">
        <ele>135.8</ele>
        <time>2021-08-21T12:04:09Z</time>
      </trkpt>
      <trkpt lat="48.35413" lon="2.75464">
        <ele>135.8</ele>
        <time>2021-08-21T12:04:10Z</time>
      </trkpt>
      <trkpt lat="48.35413" lon="2.75464">
        <ele>135.8</ele>
        <time>2021-08-21T12:04:11Z</time>
      </trkpt>
      <trkpt lat="48.35413" lon="2.75464">
        <ele>135.8</ele>
        <time>2021-08-21T12:04:12Z</time>
      </trkpt>
      <trkpt lat="48.35413" lon="2.75464">
        <ele>135.8</ele>
        <time>2021-08-21T12:04:13Z</time>
      </trkpt>
      <trkpt lat="48.35413" lon="2.75464">
        <ele>135.8</ele>
        <time>2021-08-21T12:04:14Z</time>
      </trkpt>
      <trkpt lat="48.35413" lon="2.75464">
        <ele>135.8</ele>
        <time>2021-08-21T12:04:15Z</time>
      </trkpt>
      <trkpt lat="48.35413" lon="2.75464">
        <ele>135.8</ele>
        <time>2021-08-21T12:04:16Z</time>
      </trkpt>
      <trkpt lat="48.35413" lon="2.75464">
        <ele>135.8</ele>
        <time>2021-08-21T12:04:17Z</time>
      </trkpt>
      <trkpt lat="48.35413" lon="2.75465">
        <ele>135.8</ele>
        <time>2021-08-21T12:04:18Z</time>
      </trkpt>
      <trkpt lat="48.35414" lon="2.75465">
        <ele>135.8</ele>
        <time>2021-08-21T12:04:19Z</time>
      </trkpt>
      <trkpt lat="48.35414" lon="2.75465">
        <ele>135.9</ele>
        <time>2021-08-21T12:04:20Z</time>
      </trkpt>
      <trkpt lat="48.35415" lon="2.75466">
        <ele>135.9</ele>
        <time>2021-08-21T12:04:21Z</time>
      </trkpt>
      <trkpt lat="48.35415" lon="2.75467">
        <ele>136</ele>
        <time>2021-08-21T12:04:22Z</time>
      </trkpt>
      <trkpt lat="48.35414" lon="2.75468">
        <ele>136</ele>
        <time>2021-08-21T12:04:23Z</time>
      </trkpt>
      <trkpt lat="48.35414" lon="2.75468">
        <ele>136</ele>
        <time>2021-08-21T12:04:24Z</time>
      </trkpt>
      <trkpt lat="48.35413" lon="2.75469">
        <ele>136.1</ele>
        <time>2021-08-21T12:04:25Z</time>
      </trkpt>
      <trkpt lat="48.35413" lon="2.75469">
        <ele>136.1</ele>
        <time>2021-08-21T12:04:26Z</time>
      </trkpt>
      <trkpt lat="48.35413" lon="2.7547">
        <ele>136.1</ele>
        <time>2021-08-21T12:04:27Z</time>
      </trkpt>
      <trkpt lat="48.35413" lon="2.75471">
        <ele>136.1</ele>
        <time>2021-08-21T12:04:28Z</time>
      </trkpt>
      <trkpt lat="48.35413" lon="2.75472">
        <ele>136.2</ele>
        <time>2021-08-21T12:04:29Z</time>
      </trkpt>
      <trkpt lat="48.35412" lon="2.75473">
        <ele>136.2</ele>
        <time>2021-08-21T12:04:30Z</time>
      </trkpt>
      <trkpt lat="48.35412" lon="2.75474">
        <ele>136.2</ele>
        <time>2021-08-21T12:04:31Z</time>
      </trkpt>
      <trkpt lat="48.35412" lon="2.75475">
        <ele>136.3</ele>
        <time>2021-08-21T12:04:32Z</time>
      </trkpt>
      <trkpt lat="48.35411" lon="2.75476">
        <ele>136.3</ele>
        <time>2021-08-21T12:04:33Z</time>
      </trkpt>
      <trkpt lat="48.35411" lon="2.75477">
        <ele>136.4</ele>
        <time>2021-08-21T12:04:34Z</time>
      </trkpt>
      <trkpt lat="48.3541" lon="2.75478">
        <ele>136.4</ele>
        <time>2021-08-21T12:04:35Z</time>
      </trkpt>
      <trkpt lat="48.3541" lon="2.75479">
        <ele>136.4</ele>
        <time>2021-08-21T12:04:36Z</time>
      </trkpt>
      <trkpt lat="48.35409" lon="2.7548">
        <ele>136.4</ele>
        <time>2021-08-21T12:04:37Z</time>
      </trkpt>
      <trkpt lat="48.35409" lon="2.75481">
        <ele>136.5</ele>
        <time>2021-08-21T12:04:38Z</time>
      </trkpt>
      <trkpt lat="48.35409" lon="2.75482">
        <ele>136.5</ele>
        <time>2021-08-21T12:04:39Z</time>
      </trkpt>
      <trkpt lat="48.35408" lon="2.75483">
        <ele>136.5</ele>
        <time>2021-08-21T12:04:40Z</time>
      </trkpt>
      <trkpt lat="48.35408" lon="2.75483">
        <ele>136.5</ele>
        <time>2021-08-21T12:04:41Z</time>
      </trkpt>
      <trkpt lat="48.35408" lon="2.75484">
        <ele>136.5</ele>
        <time>2021-08-21T12:04:42Z</time>
      </trkpt>
      <trkpt lat="48.35407" lon="2.75485">
        <ele>136.6</ele>
        <time>2021-08-21T12:04:43Z</time>
      </trkpt>
      <trkpt lat="48.35407" lon="2.75486">
        <ele>136.6</ele>
        <time>2021-08-21T12:04:44Z</time>
      </trkpt>
      <trkpt lat="48.35406" lon="2.75487">
        <ele>136.6</ele>
        <time>2021-08-21T12:04:45Z</time>
      </trkpt>
      <trkpt lat="48.35406" lon="2.75489">
        <ele>136.6</ele>
        <time>2021-08-21T12:04:46Z</time>
      </trkpt>
      <trkpt lat="48.35406" lon="2.7549">
        <ele>136.6</ele>
        <time>2021-08-21T12:04:47Z</time>
      </trkpt>
      <trkpt lat="48.35406" lon="2.75492">
        <ele>136.6</ele>
        <time>2021-08-21T12:04:48Z</time>
      </trkpt>
      <trkpt lat="48.35405" lon="2.75493">
        <ele>136.7</ele>
        <time>2021-08-21T12:04:49Z</time>
      </trkpt>
      <trkpt lat="48.35405" lon="2.75494">
        <ele>136.7</ele>
        <time>2021-08-21T12:04:50Z</time>
      </trkpt>
      <trkpt lat="48.35405" lon="2.75495">
        <ele>136.7</ele>
        <time>2021-08-21T12:04:51Z</time>
      </trkpt>
      <trkpt lat="48.35404" lon="2.75497">
        <ele>136.7</ele>
        <time>2021-08-21T12:04:52Z</time>
      </trkpt>
      <trkpt lat="48.35404" lon="2.75498">
        <ele>136.7</ele>
        <time>2021-08-21T12:04:53Z</time>
      </trkpt>
      <trkpt lat="48.35404" lon="2.75499">
        <ele>136.7</ele>
        <time>2021-08-21T12:04:54Z</time>
      </trkpt>
      <trkpt lat="48.35403" lon="2.75501">
        <ele>136.7</ele>
        <time>2021-08-21T12:04:55Z</time>
      </trkpt>
      <trkpt lat="48.35403" lon="2.75502">
        <ele>136.6</ele>
        <time>2021-08-21T12:04:56Z</time>
      </trkpt>
      <trkpt lat="48.35402" lon="2.75504">
        <ele>136.6</ele>
        <time>2021-08-21T12:04:57Z</time>
      </trkpt>
      <trkpt lat="48.35402" lon="2.75506">
        <ele>136.6</ele>
        <time>2021-08-21T12:04:58Z</time>
      </trkpt>
      <trkpt lat="48.35402" lon="2.75507">
        <ele>136.6</ele>
        <time>2021-08-21T12:04:59Z</time>
      </trkpt>
      <trkpt lat="48.35401" lon="2.75509">
        <ele>136.6</ele>
        <time>2021-08-21T12:05:00Z</time>
      </trkpt>
      <trkpt lat="48.35401" lon="2.7551">
        <ele>136.5</ele>
        <time>2021-08-21T12:05:01Z</time>
      </trkpt>
      <trkpt lat="48.354" lon="2.75512">
        <ele>136.5</ele>
        <time>2021-08-21T12:05:02Z</time>
      </trkpt>
      <trkpt lat="48.354" lon="2.75513">
        <ele>136.5</ele>
        <time>2021-08-21T12:05:03Z</time>
      </trkpt>
      <trkpt lat="48.354" lon="2.75514">
        <ele>136.5</ele>
        <time>2021-08-21T12:05:04Z</time>
      </trkpt>
      <trkpt lat="48.35399" lon="2.75516">
        <ele>136.4</ele>
        <time>2021-08-21T12:05:05Z</time>
      </trkpt>
      <trkpt lat="48.35399" lon="2.75517">
        <ele>136.4</ele>
        <time>2021-08-21T12:05:06Z</time>
      </trkpt>
      <trkpt lat="48.35399" lon="2.75518">
        <ele>136.4</ele>
        <time>2021-08-21T12:05:07Z</time>
      </trkpt>
      <trkpt lat="48.35398" lon="2.75519">
        <ele>136.4</ele>
        <time>2021-08-21T12:05:08Z</time>
      </trkpt>
      <trkpt lat="48.35398" lon="2.7552">
        <ele>136.4</ele>
        <time>2021-08-21T12:05:09Z</time>
      </trkpt>
      <trkpt lat="48.35398" lon="2.75521">
        <ele>136.3</ele>
        <time>2021-08-21T12:05:10Z</time>
      </trkpt>
      <trkpt lat="48.35398" lon="2.75522">
        <ele>136.3</ele>
        <time>2021-08-21T12:05:11Z</time>
      </trkpt>
      <trkpt lat="48.35397" lon="2.75524">
        <ele>136.3</ele>
        <time>2021-08-21T12:05:12Z</time>
      </trkpt>
      <trkpt lat="48.35397" lon="2.75525">
        <ele>136.3</ele>
        <time>2021-08-21T12:05:13Z</time>
      </trkpt>
      <trkpt lat="48.35396" lon="2.75527">
        <ele>136.3</ele>
        <time>2021-08-21T12:05:14Z</time>
      </trkpt>
      <trkpt lat="48.35396" lon="2.75528">
        <ele>136.2</ele>
        <time>2021-08-21T12:05:15Z</time>
      </trkpt>
      <trkpt lat="48.35396" lon="2.75529">
        <ele>136.2</ele>
        <time>2021-08-21T12:05:16Z</time>
      </trkpt>
      <trkpt lat="48.35395" lon="2.75531">
        <ele>136.2</ele>
        <time>2021-08-21T12:05:17Z</time>
      </trkpt>
      <trkpt lat="48.35395" lon="2.75532">
        <ele>136.2</ele>
        <time>2021-08-21T12:05:18Z</time>
      </trkpt>
      <trkpt lat="48.35394" lon="2.75534">
        <ele>136.2</ele>
        <time>2021-08-21T12:05:19Z</time>
      </trkpt>
      <trkpt lat="48.35394" lon="2.75535">
        <ele>136.2</ele>
        <time>2021-08-21T12:05:20Z</time>
      </trkpt>
      <trkpt lat="48.35394" lon="2.75537">
        <ele>136.2</ele>
        <time>2021-08-21T12:05:21Z</time>
      </trkpt>
      <trkpt lat="48.35393" lon="2.75537">
        <ele>136.1</ele>
        <time>2021-08-21T12:05:22Z</time>
      </trkpt>
      <trkpt lat="48.35392" lon="2.75538">
        <ele>136.1</ele>
        <time>2021-08-21T12:05:23Z</time>
      </trkpt>
      <trkpt lat="48.35392" lon="2.75538">
        <ele>136.1</ele>
        <time>2021-08-21T12:05:24Z</time>
      </trkpt>
      <trkpt lat="48.35392" lon="2.75538">
        <ele>136.1</ele>
        <time>2021-08-21T12:05:25Z</time>
      </trkpt>
      <trkpt lat="48.35392" lon="2.75538">
        <ele>136.1</ele>
        <time>2021-08-21T12:05:26Z</time>
      </trkpt>
      <trkpt lat="48.35392" lon="2.75538">
        <ele>136.1</ele>
        <time>2021-08-21T12:05:27Z</time>
      </trkpt>
      <trkpt lat="48.35392" lon="2.75538">
        <ele>136.1</ele>
        <time>2021-08-21T12:05:28Z</time>
      </trkpt>
      <trkpt lat="48.35392" lon="2.75538">
        <ele>136.1</ele>
        <time>2021-08-21T12:05:29Z</time>
      </trkpt>
      <trkpt lat="48.35392" lon="2.75537">
        <ele>136.1</ele>
        <time>2021-08-21T12:05:30Z</time>
      </trkpt>
      <trkpt lat="48.35392" lon="2.75537">
        <ele>136.1</ele>
        <time>2021-08-21T12:05:31Z</time>
      </trkpt>
      <trkpt lat="48.35392" lon="2.75538">
        <ele>136.1</ele>
        <time>2021-08-21T12:05:32Z</time>
      </trkpt>
      <trkpt lat="48.35392" lon="2.75538">
        <ele>136.1</ele>
        <time>2021-08-21T12:05:33Z</time>
      </trkpt>
      <trkpt lat="48.35391" lon="2.75538">
        <ele>136.1</ele>
        <time>2021-08-21T12:05:34Z</time>
      </trkpt>
      <trkpt lat="48.35391" lon="2.75539">
        <ele>136.1</ele>
        <time>2021-08-21T12:05:35Z</time>
      </trkpt>
      <trkpt lat="48.35391" lon="2.7554">
        <ele>136.1</ele>
        <time>2021-08-21T12:05:36Z</time>
      </trkpt>
      <trkpt lat="48.35391" lon="2.7554">
        <ele>136.1</ele>
        <time>2021-08-21T12:05:37Z</time>
      </trkpt>
      <trkpt lat="48.35391" lon="2.7554">
        <ele>136.1</ele>
        <time>2021-08-21T12:05:38Z</time>
      </trkpt>
      <trkpt lat="48.35391" lon="2.75541">
        <ele>136.1</ele>
        <time>2021-08-21T12:05:39Z</time>
      </trkpt>
      <trkpt lat="48.35391" lon="2.75541">
        <ele>136.1</ele>
        <time>2021-08-21T12:05:40Z</time>
      </trkpt>
      <trkpt lat="48.35391" lon="2.75543">
        <ele>136</ele>
        <time>2021-08-21T12:05:41Z</time>
      </trkpt>
      <trkpt lat="48.3539" lon="2.75545">
        <ele>136</ele>
        <time>2021-08-21T12:05:42Z</time>
      </trkpt>
      <trkpt lat="48.3539" lon="2.75546">
        <ele>136</ele>
        <time>2021-08-21T12:05:43Z</time>
      </trkpt>
      <trkpt lat="48.3539" lon="2.75547">
        <ele>135.9</ele>
        <time>2021-08-21T12:05:44Z</time>
      </trkpt>
      <trkpt lat="48.3539" lon="2.75548">
        <ele>135.9</ele>
        <time>2021-08-21T12:05:45Z</time>
      </trkpt>
      <trkpt lat="48.3539" lon="2.7555">
        <ele>135.9</ele>
        <time>2021-08-21T12:05:46Z</time>
      </trkpt>
      <trkpt lat="48.3539" lon="2.75551">
        <ele>135.8</ele>
        <time>2021-08-21T12:05:47Z</time>
      </trkpt>
      <trkpt lat="48.35389" lon="2.75552">
        <ele>135.8</ele>
        <time>2021-08-21T12:05:48Z</time>
      </trkpt>
      <trkpt lat="48.35389" lon="2.75553">
        <ele>135.7</ele>
        <time>2021-08-21T12:05:49Z</time>
      </trkpt>
      <trkpt lat="48.35389" lon="2.75555">
        <ele>135.7</ele>
        <time>2021-08-21T12:05:50Z</time>
      </trkpt>
      <trkpt lat="48.35389" lon="2.75556">
        <ele>135.6</ele>
        <time>2021-08-21T12:05:51Z</time>
      </trkpt>
      <trkpt lat="48.35389" lon="2.75557">
        <ele>135.6</ele>
        <time>2021-08-21T12:05:52Z</time>
      </trkpt>
      <trkpt lat="48.35389" lon="2.75558">
        <ele>135.5</ele>
        <time>2021-08-21T12:05:53Z</time>
      </trkpt>
      <trkpt lat="48.35389" lon="2.75558">
        <ele>135.5</ele>
        <time>2021-08-21T12:05:54Z</time>
      </trkpt>
      <trkpt lat="48.35389" lon="2.7556">
        <ele>135.5</ele>
        <time>2021-08-21T12:05:55Z</time>
      </trkpt>
      <trkpt lat="48.35389" lon="2.75561">
        <ele>135.4</ele>
        <time>2021-08-21T12:05:56Z</time>
      </trkpt>
      <trkpt lat="48.35389" lon="2.75562">
        <ele>135.3</ele>
        <time>2021-08-21T12:05:57Z</time>
      </trkpt>
      <trkpt lat="48.3539" lon="2.75564">
        <ele>135.2</ele>
        <time>2021-08-21T12:05:58Z</time>
      </trkpt>
      <trkpt lat="48.3539" lon="2.75565">
        <ele>135.2</ele>
        <time>2021-08-21T12:05:59Z</time>
      </trkpt>
      <trkpt lat="48.3539" lon="2.75566">
        <ele>135.1</ele>
        <time>2021-08-21T12:06:00Z</time>
      </trkpt>
      <trkpt lat="48.3539" lon="2.75568">
        <ele>135</ele>
        <time>2021-08-21T12:06:01Z</time>
      </trkpt>
      <trkpt lat="48.3539" lon="2.75569">
        <ele>134.9</ele>
        <time>2021-08-21T12:06:02Z</time>
      </trkpt>
      <trkpt lat="48.3539" lon="2.7557">
        <ele>134.9</ele>
        <time>2021-08-21T12:06:03Z</time>
      </trkpt>
      <trkpt lat="48.35389" lon="2.75571">
        <ele>134.8</ele>
        <time>2021-08-21T12:06:04Z</time>
      </trkpt>
      <trkpt lat="48.35389" lon="2.75573">
        <ele>134.7</ele>
        <time>2021-08-21T12:06:05Z</time>
      </trkpt>
      <trkpt lat="48.35389" lon="2.75574">
        <ele>134.6</ele>
        <time>2021-08-21T12:06:06Z</time>
      </trkpt>
      <trkpt lat="48.35389" lon="2.75575">
        <ele>134.6</ele>
        <time>2021-08-21T12:06:07Z</time>
      </trkpt>
      <trkpt lat="48.35389" lon="2.75576">
        <ele>134.5</ele>
        <time>2021-08-21T12:06:08Z</time>
      </trkpt>
      <trkpt lat="48.35388" lon="2.75577">
        <ele>134.5</ele>
        <time>2021-08-21T12:06:09Z</time>
      </trkpt>
      <trkpt lat="48.35388" lon="2.75578">
        <ele>134.4</ele>
        <time>2021-08-21T12:06:10Z</time>
      </trkpt>
      <trkpt lat="48.35387" lon="2.75579">
        <ele>134.4</ele>
        <time>2021-08-21T12:06:11Z</time>
      </trkpt>
      <trkpt lat="48.35387" lon="2.7558">
        <ele>134.3</ele>
        <time>2021-08-21T12:06:12Z</time>
      </trkpt>
      <trkpt lat="48.35387" lon="2.75581">
        <ele>134.2</ele>
        <time>2021-08-21T12:06:13Z</time>
      </trkpt>
      <trkpt lat="48.35386" lon="2.75582">
        <ele>134.2</ele>
        <time>2021-08-21T12:06:14Z</time>
      </trkpt>
      <trkpt lat="48.35386" lon="2.75583">
        <ele>134.1</ele>
        <time>2021-08-21T12:06:15Z</time>
      </trkpt>
      <trkpt lat="48.35385" lon="2.75584">
        <ele>134.1</ele>
        <time>2021-08-21T12:06:16Z</time>
      </trkpt>
      <trkpt lat="48.35385" lon="2.75585">
        <ele>134</ele>
        <time>2021-08-21T12:06:17Z</time>
      </trkpt>
      <trkpt lat="48.35385" lon="2.75586">
        <ele>134</ele>
        <time>2021-08-21T12:06:18Z</time>
      </trkpt>
      <trkpt lat="48.35384" lon="2.75587">
        <ele>134</ele>
        <time>2021-08-21T12:06:19Z</time>
      </trkpt>
      <trkpt lat="48.35384" lon="2.75588">
        <ele>133.9</ele>
        <time>2021-08-21T12:06:20Z</time>
      </trkpt>
      <trkpt lat="48.35384" lon="2.75589">
        <ele>133.9</ele>
        <time>2021-08-21T12:06:21Z</time>
      </trkpt>
      <trkpt lat="48.35384" lon="2.7559">
        <ele>133.9</ele>
        <time>2021-08-21T12:06:22Z</time>
      </trkpt>
      <trkpt lat="48.35383" lon="2.75592">
        <ele>133.8</ele>
        <time>2021-08-21T12:06:23Z</time>
      </trkpt>
      <trkpt lat="48.35383" lon="2.75593">
        <ele>133.8</ele>
        <time>2021-08-21T12:06:24Z</time>
      </trkpt>
      <trkpt lat="48.35383" lon="2.75594">
        <ele>133.6</ele>
        <time>2021-08-21T12:06:25Z</time>
      </trkpt>
      <trkpt lat="48.35383" lon="2.75595">
        <ele>133.6</ele>
        <time>2021-08-21T12:06:26Z</time>
      </trkpt>
      <trkpt lat="48.35383" lon="2.75597">
        <ele>133.5</ele>
        <time>2021-08-21T12:06:27Z</time>
      </trkpt>
      <trkpt lat="48.35383" lon="2.75598">
        <ele>133.5</ele>
        <time>2021-08-21T12:06:28Z</time>
      </trkpt>
      <trkpt lat="48.35384" lon="2.75599">
        <ele>133.5</ele>
        <time>2021-08-21T12:06:29Z</time>
      </trkpt>
      <trkpt lat="48.35384" lon="2.756">
        <ele>133.5</ele>
        <time>2021-08-21T12:06:30Z</time>
      </trkpt>
      <trkpt lat="48.35384" lon="2.75601">
        <ele>133.4</ele>
        <time>2021-08-21T12:06:31Z</time>
      </trkpt>
      <trkpt lat="48.35385" lon="2.75602">
        <ele>133.4</ele>
        <time>2021-08-21T12:06:32Z</time>
      </trkpt>
      <trkpt lat="48.35385" lon="2.75602">
        <ele>133.4</ele>
        <time>2021-08-21T12:06:33Z</time>
      </trkpt>
      <trkpt lat="48.35386" lon="2.75603">
        <ele>133.3</ele>
        <time>2021-08-21T12:06:34Z</time>
      </trkpt>
      <trkpt lat="48.35386" lon="2.75604">
        <ele>133.3</ele>
        <time>2021-08-21T12:06:35Z</time>
      </trkpt>
      <trkpt lat="48.35387" lon="2.75604">
        <ele>133.2</ele>
        <time>2021-08-21T12:06:36Z</time>
      </trkpt>
      <trkpt lat="48.35388" lon="2.75605">
        <ele>133.1</ele>
        <time>2021-08-21T12:06:37Z</time>
      </trkpt>
      <trkpt lat="48.35389" lon="2.75606">
        <ele>133</ele>
        <time>2021-08-21T12:06:38Z</time>
      </trkpt>
      <trkpt lat="48.35389" lon="2.75607">
        <ele>133</ele>
        <time>2021-08-21T12:06:39Z</time>
      </trkpt>
      <trkpt lat="48.35389" lon="2.75608">
        <ele>132.9</ele>
        <time>2021-08-21T12:06:40Z</time>
      </trkpt>
      <trkpt lat="48.3539" lon="2.75608">
        <ele>132.9</ele>
        <time>2021-08-21T12:06:41Z</time>
      </trkpt>
      <trkpt lat="48.3539" lon="2.7561">
        <ele>132.8</ele>
        <time>2021-08-21T12:06:42Z</time>
      </trkpt>
      <trkpt lat="48.3539" lon="2.75609">
        <ele>132.8</ele>
        <time>2021-08-21T12:06:43Z</time>
      </trkpt>
      <trkpt lat="48.3539" lon="2.75609">
        <ele>132.7</ele>
        <time>2021-08-21T12:06:44Z</time>
      </trkpt>
      <trkpt lat="48.3539" lon="2.7561">
        <ele>132.7</ele>
        <time>2021-08-21T12:06:45Z</time>
      </trkpt>
      <trkpt lat="48.3539" lon="2.75609">
        <ele>132.7</ele>
        <time>2021-08-21T12:06:46Z</time>
      </trkpt>
      <trkpt lat="48.35391" lon="2.75609">
        <ele>132.6</ele>
        <time>2021-08-21T12:06:48Z</time>
      </trkpt>
      <trkpt lat="48.35392" lon="2.7561">
        <ele>132.5</ele>
        <time>2021-08-21T12:06:49Z</time>
      </trkpt>
      <trkpt lat="48.35392" lon="2.7561">
        <ele>132.4</ele>
        <time>2021-08-21T12:06:51Z</time>
      </trkpt>
      <trkpt lat="48.35393" lon="2.7561">
        <ele>132.3</ele>
        <time>2021-08-21T12:06:52Z</time>
      </trkpt>
      <trkpt lat="48.35394" lon="2.75611">
        <ele>132.2</ele>
        <time>2021-08-21T12:06:54Z</time>
      </trkpt>
      <trkpt lat="48.35394" lon="2.75611">
        <ele>132.1</ele>
        <time>2021-08-21T12:06:55Z</time>
      </trkpt>
      <trkpt lat="48.35395" lon="2.7561">
        <ele>132</ele>
        <time>2021-08-21T12:06:56Z</time>
      </trkpt>
      <trkpt lat="48.35396" lon="2.7561">
        <ele>131.9</ele>
        <time>2021-08-21T12:06:57Z</time>
      </trkpt>
      <trkpt lat="48.35397" lon="2.75611">
        <ele>131.7</ele>
        <time>2021-08-21T12:06:58Z</time>
      </trkpt>
      <trkpt lat="48.35397" lon="2.7561">
        <ele>131.6</ele>
        <time>2021-08-21T12:07:00Z</time>
      </trkpt>
      <trkpt lat="48.35397" lon="2.7561">
        <ele>131.6</ele>
        <time>2021-08-21T12:07:01Z</time>
      </trkpt>
      <trkpt lat="48.35397" lon="2.7561">
        <ele>131.5</ele>
        <time>2021-08-21T12:07:02Z</time>
      </trkpt>
      <trkpt lat="48.35398" lon="2.75611">
        <ele>131.4</ele>
        <time>2021-08-21T12:07:03Z</time>
      </trkpt>
      <trkpt lat="48.35398" lon="2.75612">
        <ele>131.2</ele>
        <time>2021-08-21T12:07:04Z</time>
      </trkpt>
      <trkpt lat="48.35398" lon="2.75614">
        <ele>131.1</ele>
        <time>2021-08-21T12:07:06Z</time>
      </trkpt>
      <trkpt lat="48.35398" lon="2.75616">
        <ele>130.7</ele>
        <time>2021-08-21T12:07:07Z</time>
      </trkpt>
      <trkpt lat="48.35399" lon="2.7562">
        <ele>130.3</ele>
        <time>2021-08-21T12:07:09Z</time>
      </trkpt>
      <trkpt lat="48.35399" lon="2.75621">
        <ele>130.2</ele>
        <time>2021-08-21T12:07:10Z</time>
      </trkpt>
      <trkpt lat="48.35399" lon="2.75623">
        <ele>129.9</ele>
        <time>2021-08-21T12:07:11Z</time>
      </trkpt>
      <trkpt lat="48.35398" lon="2.75624">
        <ele>129.7</ele>
        <time>2021-08-21T12:07:12Z</time>
      </trkpt>
      <trkpt lat="48.35398" lon="2.75625">
        <ele>129.5</ele>
        <time>2021-08-21T12:07:13Z</time>
      </trkpt>
      <trkpt lat="48.35398" lon="2.75626">
        <ele>129.4</ele>
        <time>2021-08-21T12:07:14Z</time>
      </trkpt>
      <trkpt lat="48.35398" lon="2.75627">
        <ele>129.2</ele>
        <time>2021-08-21T12:07:15Z</time>
      </trkpt>
      <trkpt lat="48.35398" lon="2.75629">
        <ele>129.1</ele>
        <time>2021-08-21T12:07:16Z</time>
      </trkpt>
      <trkpt lat="48.35398" lon="2.7563">
        <ele>128.9</ele>
        <time>2021-08-21T12:07:17Z</time>
      </trkpt>
      <trkpt lat="48.35398" lon="2.75632">
        <ele>128.6</ele>
        <time>2021-08-21T12:07:18Z</time>
      </trkpt>
      <trkpt lat="48.35399" lon="2.75633">
        <ele>128.5</ele>
        <time>2021-08-21T12:07:20Z</time>
      </trkpt>
      <trkpt lat="48.354" lon="2.75634">
        <ele>128.2</ele>
        <time>2021-08-21T12:07:21Z</time>
      </trkpt>
      <trkpt lat="48.354" lon="2.75634">
        <ele>128.1</ele>
        <time>2021-08-21T12:07:23Z</time>
      </trkpt>
      <trkpt lat="48.35401" lon="2.75636">
        <ele>127.8</ele>
        <time>2021-08-21T12:07:24Z</time>
      </trkpt>
      <trkpt lat="48.35403" lon="2.75635">
        <ele>127.6</ele>
        <time>2021-08-21T12:07:25Z</time>
      </trkpt>
      <trkpt lat="48.35403" lon="2.75634">
        <ele>127.5</ele>
        <time>2021-08-21T12:07:26Z</time>
      </trkpt>
      <trkpt lat="48.35403" lon="2.75634">
        <ele>127.4</ele>
        <time>2021-08-21T12:07:27Z</time>
      </trkpt>
      <trkpt lat="48.35403" lon="2.75636">
        <ele>127.2</ele>
        <time>2021-08-21T12:07:29Z</time>
      </trkpt>
      <trkpt lat="48.35403" lon="2.75637">
        <ele>127.1</ele>
        <time>2021-08-21T12:07:30Z</time>
      </trkpt>
      <trkpt lat="48.35403" lon="2.75637">
        <ele>127.1</ele>
        <time>2021-08-21T12:07:31Z</time>
      </trkpt>
      <trkpt lat="48.35403" lon="2.75637">
        <ele>127</ele>
        <time>2021-08-21T12:07:32Z</time>
      </trkpt>
      <trkpt lat="48.35403" lon="2.75638">
        <ele>126.9</ele>
        <time>2021-08-21T12:07:33Z</time>
      </trkpt>
      <trkpt lat="48.35403" lon="2.75638">
        <ele>126.9</ele>
        <time>2021-08-21T12:07:34Z</time>
      </trkpt>
      <trkpt lat="48.35404" lon="2.75639">
        <ele>126.8</ele>
        <time>2021-08-21T12:07:35Z</time>
      </trkpt>
      <trkpt lat="48.35404" lon="2.75639">
        <ele>126.8</ele>
        <time>2021-08-21T12:07:36Z</time>
      </trkpt>
      <trkpt lat="48.35404" lon="2.75639">
        <ele>126.8</ele>
        <time>2021-08-21T12:07:37Z</time>
      </trkpt>
      <trkpt lat="48.35404" lon="2.75639">
        <ele>126.7</ele>
        <time>2021-08-21T12:07:38Z</time>
      </trkpt>
      <trkpt lat="48.35404" lon="2.75639">
        <ele>126.7</ele>
        <time>2021-08-21T12:07:39Z</time>
      </trkpt>
      <trkpt lat="48.35404" lon="2.75639">
        <ele>126.7</ele>
        <time>2021-08-21T12:07:40Z</time>
      </trkpt>
      <trkpt lat="48.35404" lon="2.75639">
        <ele>126.7</ele>
        <time>2021-08-21T12:07:41Z</time>
      </trkpt>
      <trkpt lat="48.35404" lon="2.75639">
        <ele>126.7</ele>
        <time>2021-08-21T12:07:42Z</time>
      </trkpt>
      <trkpt lat="48.35404" lon="2.75639">
        <ele>126.7</ele>
        <time>2021-08-21T12:07:43Z</time>
      </trkpt>
      <trkpt lat="48.35404" lon="2.75639">
        <ele>126.7</ele>
        <time>2021-08-21T12:07:44Z</time>
      </trkpt>
      <trkpt lat="48.35404" lon="2.75639">
        <ele>126.6</ele>
        <time>2021-08-21T12:07:45Z</time>
      </trkpt>
      <trkpt lat="48.35404" lon="2.75639">
        <ele>126.6</ele>
        <time>2021-08-21T12:07:46Z</time>
      </trkpt>
      <trkpt lat="48.35404" lon="2.75639">
        <ele>126.6</ele>
        <time>2021-08-21T12:07:47Z</time>
      </trkpt>
      <trkpt lat="48.35404" lon="2.75639">
        <ele>126.6</ele>
        <time>2021-08-21T12:07:48Z</time>
      </trkpt>
      <trkpt lat="48.35404" lon="2.75639">
        <ele>126.6</ele>
        <time>2021-08-21T12:07:49Z</time>
      </trkpt>
      <trkpt lat="48.35405" lon="2.75639">
        <ele>126.6</ele>
        <time>2021-08-21T12:07:50Z</time>
      </trkpt>
      <trkpt lat="48.35405" lon="2.75639">
        <ele>126.6</ele>
        <time>2021-08-21T12:07:51Z</time>
      </trkpt>
      <trkpt lat="48.35405" lon="2.75639">
        <ele>126.6</ele>
        <time>2021-08-21T12:07:52Z</time>
      </trkpt>
      <trkpt lat="48.35405" lon="2.7564">
        <ele>126.6</ele>
        <time>2021-08-21T12:07:53Z</time>
      </trkpt>
      <trkpt lat="48.35405" lon="2.7564">
        <ele>126.6</ele>
        <time>2021-08-21T12:07:54Z</time>
      </trkpt>
      <trkpt lat="48.35405" lon="2.7564">
        <ele>126.5</ele>
        <time>2021-08-21T12:07:55Z</time>
      </trkpt>
      <trkpt lat="48.35405" lon="2.7564">
        <ele>126.5</ele>
        <time>2021-08-21T12:07:56Z</time>
      </trkpt>
      <trkpt lat="48.35405" lon="2.7564">
        <ele>126.5</ele>
        <time>2021-08-21T12:07:57Z</time>
      </trkpt>
      <trkpt lat="48.35405" lon="2.7564">
        <ele>126.5</ele>
        <time>2021-08-21T12:07:58Z</time>
      </trkpt>
      <trkpt lat="48.35405" lon="2.7564">
        <ele>126.5</ele>
        <time>2021-08-21T12:07:59Z</time>
      </trkpt>
      <trkpt lat="48.35405" lon="2.7564">
        <ele>126.5</ele>
        <time>2021-08-21T12:08:00Z</time>
      </trkpt>
      <trkpt lat="48.35405" lon="2.7564">
        <ele>126.5</ele>
        <time>2021-08-21T12:08:01Z</time>
      </trkpt>
      <trkpt lat="48.35405" lon="2.7564">
        <ele>126.5</ele>
        <time>2021-08-21T12:08:02Z</time>
      </trkpt>
      <trkpt lat="48.35405" lon="2.7564">
        <ele>126.4</ele>
        <time>2021-08-21T12:08:03Z</time>
      </trkpt>
      <trkpt lat="48.35405" lon="2.7564">
        <ele>126.4</ele>
        <time>2021-08-21T12:08:04Z</time>
      </trkpt>
      <trkpt lat="48.35405" lon="2.7564">
        <ele>126.4</ele>
        <time>2021-08-21T12:08:05Z</time>
      </trkpt>
      <trkpt lat="48.35405" lon="2.7564">
        <ele>126.4</ele>
        <time>2021-08-21T12:08:06Z</time>
      </trkpt>
      <trkpt lat="48.35405" lon="2.7564">
        <ele>126.4</ele>
        <time>2021-08-21T12:08:07Z</time>
      </trkpt>
      <trkpt lat="48.35405" lon="2.7564">
        <ele>126.4</ele>
        <time>2021-08-21T12:08:08Z</time>
      </trkpt>
      <trkpt lat="48.35405" lon="2.7564">
        <ele>126.4</ele>
        <time>2021-08-21T12:08:09Z</time>
      </trkpt>
      <trkpt lat="48.35405" lon="2.7564">
        <ele>126.4</ele>
        <time>2021-08-21T12:08:10Z</time>
      </trkpt>
      <trkpt lat="48.35405" lon="2.7564">
        <ele>126.4</ele>
        <time>2021-08-21T12:08:11Z</time>
      </trkpt>
      <trkpt lat="48.35406" lon="2.7564">
        <ele>126.3</ele>
        <time>2021-08-21T12:08:12Z</time>
      </trkpt>
      <trkpt lat="48.35406" lon="2.7564">
        <ele>126.3</ele>
        <time>2021-08-21T12:08:13Z</time>
      </trkpt>
      <trkpt lat="48.35406" lon="2.7564">
        <ele>126.3</ele>
        <time>2021-08-21T12:08:14Z</time>
      </trkpt>
      <trkpt lat="48.35406" lon="2.7564">
        <ele>126.3</ele>
        <time>2021-08-21T12:08:15Z</time>
      </trkpt>
      <trkpt lat="48.35406" lon="2.7564">
        <ele>126.3</ele>
        <time>2021-08-21T12:08:16Z</time>
      </trkpt>
      <trkpt lat="48.35406" lon="2.75641">
        <ele>126.3</ele>
        <time>2021-08-21T12:08:17Z</time>
      </trkpt>
      <trkpt lat="48.35406" lon="2.75641">
        <ele>126.3</ele>
        <time>2021-08-21T12:08:18Z</time>
      </trkpt>
      <trkpt lat="48.35406" lon="2.75641">
        <ele>126.3</ele>
        <time>2021-08-21T12:08:19Z</time>
      </trkpt>
      <trkpt lat="48.35406" lon="2.75641">
        <ele>126.2</ele>
        <time>2021-08-21T12:08:20Z</time>
      </trkpt>
      <trkpt lat="48.35406" lon="2.75641">
        <ele>126.2</ele>
        <time>2021-08-21T12:08:21Z</time>
      </trkpt>
      <trkpt lat="48.35406" lon="2.75641">
        <ele>126.2</ele>
        <time>2021-08-21T12:08:22Z</time>
      </trkpt>
      <trkpt lat="48.35406" lon="2.75641">
        <ele>126.2</ele>
        <time>2021-08-21T12:08:23Z</time>
      </trkpt>
      <trkpt lat="48.35406" lon="2.75641">
        <ele>126.2</ele>
        <time>2021-08-21T12:08:24Z</time>
      </trkpt>
      <trkpt lat="48.35406" lon="2.75641">
        <ele>126.2</ele>
        <time>2021-08-21T12:08:25Z</time>
      </trkpt>
      <trkpt lat="48.35406" lon="2.75641">
        <ele>126.2</ele>
        <time>2021-08-21T12:08:26Z</time>
      </trkpt>
      <trkpt lat="48.35406" lon="2.75641">
        <ele>126.2</ele>
        <time>2021-08-21T12:08:27Z</time>
      </trkpt>
      <trkpt lat="48.35406" lon="2.75641">
        <ele>126.2</ele>
        <time>2021-08-21T12:08:28Z</time>
      </trkpt>
      <trkpt lat="48.35406" lon="2.75641">
        <ele>126.1</ele>
        <time>2021-08-21T12:08:29Z</time>
      </trkpt>
      <trkpt lat="48.35406" lon="2.75641">
        <ele>126.1</ele>
        <time>2021-08-21T12:08:30Z</time>
      </trkpt>
      <trkpt lat="48.35406" lon="2.75641">
        <ele>126.1</ele>
        <time>2021-08-21T12:08:31Z</time>
      </trkpt>
      <trkpt lat="48.35406" lon="2.75641">
        <ele>126.1</ele>
        <time>2021-08-21T12:08:32Z</time>
      </trkpt>
      <trkpt lat="48.35407" lon="2.75641">
        <ele>126.1</ele>
        <time>2021-08-21T12:08:33Z</time>
      </trkpt>
      <trkpt lat="48.35407" lon="2.75641">
        <ele>126.1</ele>
        <time>2021-08-21T12:08:34Z</time>
      </trkpt>
      <trkpt lat="48.35407" lon="2.75641">
        <ele>126.1</ele>
        <time>2021-08-21T12:08:35Z</time>
      </trkpt>
      <trkpt lat="48.35407" lon="2.75641">
        <ele>126.1</ele>
        <time>2021-08-21T12:08:36Z</time>
      </trkpt>
      <trkpt lat="48.35407" lon="2.75641">
        <ele>126</ele>
        <time>2021-08-21T12:08:37Z</time>
      </trkpt>
      <trkpt lat="48.35407" lon="2.75641">
        <ele>126</ele>
        <time>2021-08-21T12:08:38Z</time>
      </trkpt>
      <trkpt lat="48.35407" lon="2.75641">
        <ele>126</ele>
        <time>2021-08-21T12:08:39Z</time>
      </trkpt>
      <trkpt lat="48.35407" lon="2.75641">
        <ele>126</ele>
        <time>2021-08-21T12:08:40Z</time>
      </trkpt>
      <trkpt lat="48.35407" lon="2.75642">
        <ele>126</ele>
        <time>2021-08-21T12:08:41Z</time>
      </trkpt>
      <trkpt lat="48.35407" lon="2.75642">
        <ele>126</ele>
        <time>2021-08-21T12:08:42Z</time>
      </trkpt>
      <trkpt lat="48.35407" lon="2.75642">
        <ele>126</ele>
        <time>2021-08-21T12:08:43Z</time>
      </trkpt>
      <trkpt lat="48.35407" lon="2.75642">
        <ele>126</ele>
        <time>2021-08-21T12:08:44Z</time>
      </trkpt>
      <trkpt lat="48.35408" lon="2.75642">
        <ele>125.8</ele>
        <time>2021-08-21T12:08:45Z</time>
      </trkpt>
      <trkpt lat="48.35408" lon="2.75642">
        <ele>125.8</ele>
        <time>2021-08-21T12:08:46Z</time>
      </trkpt>
      <trkpt lat="48.35408" lon="2.75642">
        <ele>125.8</ele>
        <time>2021-08-21T12:08:47Z</time>
      </trkpt>
      <trkpt lat="48.35408" lon="2.75642">
        <ele>125.8</ele>
        <time>2021-08-21T12:08:48Z</time>
      </trkpt>
      <trkpt lat="48.35408" lon="2.75642">
        <ele>125.8</ele>
        <time>2021-08-21T12:08:49Z</time>
      </trkpt>
      <trkpt lat="48.35408" lon="2.75642">
        <ele>125.8</ele>
        <time>2021-08-21T12:08:50Z</time>
      </trkpt>
      <trkpt lat="48.35408" lon="2.75641">
        <ele>125.7</ele>
        <time>2021-08-21T12:08:51Z</time>
      </trkpt>
      <trkpt lat="48.35408" lon="2.75641">
        <ele>125.7</ele>
        <time>2021-08-21T12:08:52Z</time>
      </trkpt>
      <trkpt lat="48.35408" lon="2.75641">
        <ele>125.7</ele>
        <time>2021-08-21T12:08:53Z</time>
      </trkpt>
      <trkpt lat="48.35408" lon="2.75641">
        <ele>125.7</ele>
        <time>2021-08-21T12:08:54Z</time>
      </trkpt>
      <trkpt lat="48.35408" lon="2.75641">
        <ele>125.7</ele>
        <time>2021-08-21T12:08:55Z</time>
      </trkpt>
      <trkpt lat="48.35408" lon="2.75641">
        <ele>125.7</ele>
        <time>2021-08-21T12:08:56Z</time>
      </trkpt>
      <trkpt lat="48.35408" lon="2.75641">
        <ele>125.7</ele>
        <time>2021-08-21T12:08:57Z</time>
      </trkpt>
      <trkpt lat="48.35408" lon="2.75641">
        <ele>125.7</ele>
        <time>2021-08-21T12:08:58Z</time>
      </trkpt>
      <trkpt lat="48.35408" lon="2.75641">
        <ele>125.7</ele>
        <time>2021-08-21T12:08:59Z</time>
      </trkpt>
      <trkpt lat="48.35408" lon="2.75641">
        <ele>125.7</ele>
        <time>2021-08-21T12:09:00Z</time>
      </trkpt>
      <trkpt lat="48.35408" lon="2.75641">
        <ele>125.7</ele>
        <time>2021-08-21T12:09:01Z</time>
      </trkpt>
      <trkpt lat="48.35408" lon="2.75641">
        <ele>125.7</ele>
        <time>2021-08-21T12:09:02Z</time>
      </trkpt>
      <trkpt lat="48.35408" lon="2.75641">
        <ele>125.7</ele>
        <time>2021-08-21T12:09:03Z</time>
      </trkpt>
      <trkpt lat="48.35408" lon="2.75641">
        <ele>125.7</ele>
        <time>2021-08-21T12:09:04Z</time>
      </trkpt>
      <trkpt lat="48.35408" lon="2.75641">
        <ele>125.7</ele>
        <time>2021-08-21T12:09:05Z</time>
      </trkpt>
      <trkpt lat="48.35408" lon="2.75641">
        <ele>125.7</ele>
        <time>2021-08-21T12:09:06Z</time>
      </trkpt>
      <trkpt lat="48.35408" lon="2.75641">
        <ele>125.7</ele>
        <time>2021-08-21T12:09:07Z</time>
      </trkpt>
      <trkpt lat="48.35408" lon="2.75641">
        <ele>125.7</ele>
        <time>2021-08-21T12:09:08Z</time>
      </trkpt>
      <trkpt lat="48.35408" lon="2.75641">
        <ele>125.7</ele>
        <time>2021-08-21T12:09:09Z</time>
      </trkpt>
      <trkpt lat="48.35408" lon="2.75641">
        <ele>125.7</ele>
        <time>2021-08-21T12:09:10Z</time>
      </trkpt>
      <trkpt lat="48.35408" lon="2.75641">
        <ele>125.7</ele>
        <time>2021-08-21T12:09:11Z</time>
      </trkpt>
      <trkpt lat="48.35408" lon="2.75641">
        <ele>125.7</ele>
        <time>2021-08-21T12:09:12Z</time>
      </trkpt>
      <trkpt lat="48.35408" lon="2.75641">
        <ele>125.7</ele>
        <time>2021-08-21T12:09:13Z</time>
      </trkpt>
      <trkpt lat="48.35408" lon="2.75641">
        <ele>125.7</ele>
        <time>2021-08-21T12:09:14Z</time>
      </trkpt>
      <trkpt lat="48.35408" lon="2.75641">
        <ele>125.7</ele>
        <time>2021-08-21T12:09:15Z</time>
      </trkpt>
      <trkpt lat="48.35408" lon="2.75641">
        <ele>125.7</ele>
        <time>2021-08-21T12:09:16Z</time>
      </trkpt>
      <trkpt lat="48.35408" lon="2.75641">
        <ele>125.7</ele>
        <time>2021-08-21T12:09:17Z</time>
      </trkpt>
      <trkpt lat="48.35408" lon="2.75641">
        <ele>125.7</ele>
        <time>2021-08-21T12:09:18Z</time>
      </trkpt>
      <trkpt lat="48.35408" lon="2.75641">
        <ele>125.7</ele>
        <time>2021-08-21T12:09:19Z</time>
      </trkpt>
      <trkpt lat="48.35408" lon="2.75641">
        <ele>125.7</ele>
        <time>2021-08-21T12:09:20Z</time>
      </trkpt>
      <trkpt lat="48.35408" lon="2.75641">
        <ele>125.7</ele>
        <time>2021-08-21T12:09:21Z</time>
      </trkpt>
      <trkpt lat="48.35408" lon="2.75641">
        <ele>125.7</ele>
        <time>2021-08-21T12:09:22Z</time>
      </trkpt>
      <trkpt lat="48.35408" lon="2.75641">
        <ele>125.7</ele>
        <time>2021-08-21T12:09:23Z</time>
      </trkpt>
      <trkpt lat="48.35408" lon="2.75641">
        <ele>125.7</ele>
        <time>2021-08-21T12:09:24Z</time>
      </trkpt>
      <trkpt lat="48.35408" lon="2.75641">
        <ele>125.7</ele>
        <time>2021-08-21T12:09:25Z</time>
      </trkpt>
      <trkpt lat="48.35408" lon="2.75641">
        <ele>125.7</ele>
        <time>2021-08-21T12:09:26Z</time>
      </trkpt>
      <trkpt lat="48.35408" lon="2.75641">
        <ele>125.7</ele>
        <time>2021-08-21T12:09:27Z</time>
      </trkpt>
      <trkpt lat="48.35408" lon="2.75641">
        <ele>125.7</ele>
        <time>2021-08-21T12:09:28Z</time>
      </trkpt>
      <trkpt lat="48.35408" lon="2.75641">
        <ele>125.7</ele>
        <time>2021-08-21T12:09:29Z</time>
      </trkpt>
      <trkpt lat="48.35408" lon="2.75641">
        <ele>125.7</ele>
        <time>2021-08-21T12:09:30Z</time>
      </trkpt>
      <trkpt lat="48.35408" lon="2.75641">
        <ele>125.7</ele>
        <time>2021-08-21T12:09:31Z</time>
      </trkpt>
      <trkpt lat="48.35408" lon="2.75641">
        <ele>125.7</ele>
        <time>2021-08-21T12:09:32Z</time>
      </trkpt>
      <trkpt lat="48.35408" lon="2.75641">
        <ele>125.7</ele>
        <time>2021-08-21T12:09:33Z</time>
      </trkpt>
      <trkpt lat="48.35408" lon="2.75641">
        <ele>125.7</ele>
        <time>2021-08-21T12:09:34Z</time>
      </trkpt>
      <trkpt lat="48.35408" lon="2.75641">
        <ele>125.7</ele>
        <time>2021-08-21T12:09:35Z</time>
      </trkpt>
      <trkpt lat="48.35408" lon="2.75641">
        <ele>125.7</ele>
        <time>2021-08-21T12:09:36Z</time>
      </trkpt>
      <trkpt lat="48.35408" lon="2.75641">
        <ele>125.7</ele>
        <time>2021-08-21T12:09:37Z</time>
      </trkpt>
      <trkpt lat="48.35408" lon="2.75641">
        <ele>125.7</ele>
        <time>2021-08-21T12:09:38Z</time>
      </trkpt>
      <trkpt lat="48.35408" lon="2.75641">
        <ele>125.7</ele>
        <time>2021-08-21T12:09:39Z</time>
      </trkpt>
      <trkpt lat="48.35408" lon="2.75641">
        <ele>125.7</ele>
        <time>2021-08-21T12:09:40Z</time>
      </trkpt>
      <trkpt lat="48.35408" lon="2.75641">
        <ele>125.7</ele>
        <time>2021-08-21T12:09:41Z</time>
      </trkpt>
      <trkpt lat="48.35408" lon="2.75641">
        <ele>125.7</ele>
        <time>2021-08-21T12:09:42Z</time>
      </trkpt>
      <trkpt lat="48.35408" lon="2.75641">
        <ele>125.7</ele>
        <time>2021-08-21T12:09:43Z</time>
      </trkpt>
      <trkpt lat="48.35408" lon="2.75641">
        <ele>125.7</ele>
        <time>2021-08-21T12:09:44Z</time>
      </trkpt>
      <trkpt lat="48.35408" lon="2.75641">
        <ele>125.7</ele>
        <time>2021-08-21T12:09:45Z</time>
      </trkpt>
      <trkpt lat="48.35408" lon="2.75641">
        <ele>125.7</ele>
        <time>2021-08-21T12:09:46Z</time>
      </trkpt>
      <trkpt lat="48.35408" lon="2.75641">
        <ele>125.7</ele>
        <time>2021-08-21T12:09:47Z</time>
      </trkpt>
      <trkpt lat="48.35408" lon="2.75641">
        <ele>125.7</ele>
        <time>2021-08-21T12:09:48Z</time>
      </trkpt>
      <trkpt lat="48.35408" lon="2.75641">
        <ele>125.7</ele>
        <time>2021-08-21T12:09:49Z</time>
      </trkpt>
      <trkpt lat="48.35408" lon="2.75641">
        <ele>125.7</ele>
        <time>2021-08-21T12:09:50Z</time>
      </trkpt>
      <trkpt lat="48.35408" lon="2.75641">
        <ele>125.7</ele>
        <time>2021-08-21T12:09:51Z</time>
      </trkpt>
      <trkpt lat="48.35408" lon="2.75641">
        <ele>125.7</ele>
        <time>2021-08-21T12:09:52Z</time>
      </trkpt>
      <trkpt lat="48.35408" lon="2.75641">
        <ele>125.7</ele>
        <time>2021-08-21T12:09:53Z</time>
      </trkpt>
      <trkpt lat="48.35408" lon="2.75641">
        <ele>125.7</ele>
        <time>2021-08-21T12:09:54Z</time>
      </trkpt>
      <trkpt lat="48.35408" lon="2.75641">
        <ele>125.7</ele>
        <time>2021-08-21T12:09:55Z</time>
      </trkpt>
      <trkpt lat="48.35408" lon="2.75641">
        <ele>125.7</ele>
        <time>2021-08-21T12:09:56Z</time>
      </trkpt>
      <trkpt lat="48.35408" lon="2.75641">
        <ele>125.7</ele>
        <time>2021-08-21T12:09:57Z</time>
      </trkpt>
      <trkpt lat="48.35408" lon="2.75641">
        <ele>125.7</ele>
        <time>2021-08-21T12:09:58Z</time>
      </trkpt>
      <trkpt lat="48.35408" lon="2.75641">
        <ele>125.7</ele>
        <time>2021-08-21T12:09:59Z</time>
      </trkpt>
      <trkpt lat="48.35408" lon="2.75641">
        <ele>125.7</ele>
        <time>2021-08-21T12:10:00Z</time>
      </trkpt>
      <trkpt lat="48.35408" lon="2.75641">
        <ele>125.7</ele>
        <time>2021-08-21T12:10:01Z</time>
      </trkpt>
      <trkpt lat="48.35408" lon="2.75641">
        <ele>125.7</ele>
        <time>2021-08-21T12:10:02Z</time>
      </trkpt>
      <trkpt lat="48.35408" lon="2.75641">
        <ele>125.7</ele>
        <time>2021-08-21T12:10:03Z</time>
      </trkpt>
      <trkpt lat="48.35408" lon="2.75642">
        <ele>125.6</ele>
        <time>2021-08-21T12:10:04Z</time>
      </trkpt>
      <trkpt lat="48.35407" lon="2.75643">
        <ele>125.5</ele>
        <time>2021-08-21T12:10:05Z</time>
      </trkpt>
      <trkpt lat="48.35407" lon="2.75643">
        <ele>125.5</ele>
        <time>2021-08-21T12:10:06Z</time>
      </trkpt>
      <trkpt lat="48.35407" lon="2.75643">
        <ele>125.5</ele>
        <time>2021-08-21T12:10:07Z</time>
      </trkpt>
      <trkpt lat="48.35407" lon="2.75643">
        <ele>125.4</ele>
        <time>2021-08-21T12:10:08Z</time>
      </trkpt>
      <trkpt lat="48.35407" lon="2.75643">
        <ele>125.4</ele>
        <time>2021-08-21T12:10:09Z</time>
      </trkpt>
      <trkpt lat="48.35407" lon="2.75643">
        <ele>125.4</ele>
        <time>2021-08-21T12:10:10Z</time>
      </trkpt>
      <trkpt lat="48.35407" lon="2.75643">
        <ele>125.4</ele>
        <time>2021-08-21T12:10:11Z</time>
      </trkpt>
      <trkpt lat="48.35407" lon="2.75643">
        <ele>125.4</ele>
        <time>2021-08-21T12:10:12Z</time>
      </trkpt>
      <trkpt lat="48.35407" lon="2.75643">
        <ele>125.3</ele>
        <time>2021-08-21T12:10:13Z</time>
      </trkpt>
      <trkpt lat="48.35407" lon="2.75643">
        <ele>125.3</ele>
        <time>2021-08-21T12:10:14Z</time>
      </trkpt>
      <trkpt lat="48.35407" lon="2.75643">
        <ele>125.3</ele>
        <time>2021-08-21T12:10:15Z</time>
      </trkpt>
      <trkpt lat="48.35407" lon="2.75643">
        <ele>125.3</ele>
        <time>2021-08-21T12:10:16Z</time>
      </trkpt>
      <trkpt lat="48.35407" lon="2.75643">
        <ele>125.2</ele>
        <time>2021-08-21T12:10:17Z</time>
      </trkpt>
      <trkpt lat="48.35407" lon="2.75643">
        <ele>125.2</ele>
        <time>2021-08-21T12:10:18Z</time>
      </trkpt>
      <trkpt lat="48.35407" lon="2.75643">
        <ele>125.2</ele>
        <time>2021-08-21T12:10:19Z</time>
      </trkpt>
      <trkpt lat="48.35407" lon="2.75643">
        <ele>125.2</ele>
        <time>2021-08-21T12:10:20Z</time>
      </trkpt>
      <trkpt lat="48.35407" lon="2.75643">
        <ele>125.2</ele>
        <time>2021-08-21T12:10:21Z</time>
      </trkpt>
      <trkpt lat="48.35407" lon="2.75643">
        <ele>125.2</ele>
        <time>2021-08-21T12:10:22Z</time>
      </trkpt>
      <trkpt lat="48.35407" lon="2.75643">
        <ele>125.2</ele>
        <time>2021-08-21T12:10:23Z</time>
      </trkpt>
      <trkpt lat="48.35407" lon="2.75643">
        <ele>125.2</ele>
        <time>2021-08-21T12:10:25Z</time>
      </trkpt>
      <trkpt lat="48.35407" lon="2.75643">
        <ele>125.2</ele>
        <time>2021-08-21T12:10:26Z</time>
      </trkpt>
      <trkpt lat="48.35407" lon="2.75643">
        <ele>125.2</ele>
        <time>2021-08-21T12:10:27Z</time>
      </trkpt>
      <trkpt lat="48.35407" lon="2.75643">
        <ele>125.2</ele>
        <time>2021-08-21T12:10:28Z</time>
      </trkpt>
      <trkpt lat="48.35407" lon="2.75643">
        <ele>125.2</ele>
        <time>2021-08-21T12:10:29Z</time>
      </trkpt>
      <trkpt lat="48.35407" lon="2.75643">
        <ele>125.2</ele>
        <time>2021-08-21T12:10:30Z</time>
      </trkpt>
      <trkpt lat="48.35407" lon="2.75643">
        <ele>125.2</ele>
        <time>2021-08-21T12:10:31Z</time>
      </trkpt>
      <trkpt lat="48.35407" lon="2.75643">
        <ele>125.2</ele>
        <time>2021-08-21T12:10:32Z</time>
      </trkpt>
      <trkpt lat="48.35407" lon="2.75643">
        <ele>125.2</ele>
        <time>2021-08-21T12:10:33Z</time>
      </trkpt>
      <trkpt lat="48.35407" lon="2.75643">
        <ele>125.2</ele>
        <time>2021-08-21T12:10:34Z</time>
      </trkpt>
      <trkpt lat="48.35407" lon="2.75643">
        <ele>125.2</ele>
        <time>2021-08-21T12:10:35Z</time>
      </trkpt>
      <trkpt lat="48.35407" lon="2.75643">
        <ele>125.2</ele>
        <time>2021-08-21T12:10:36Z</time>
      </trkpt>
      <trkpt lat="48.35407" lon="2.75643">
        <ele>125.2</ele>
        <time>2021-08-21T12:10:37Z</time>
      </trkpt>
      <trkpt lat="48.35407" lon="2.75643">
        <ele>125.2</ele>
        <time>2021-08-21T12:10:38Z</time>
      </trkpt>
      <trkpt lat="48.35407" lon="2.75643">
        <ele>125.2</ele>
        <time>2021-08-21T12:10:39Z</time>
      </trkpt>
      <trkpt lat="48.35407" lon="2.75643">
        <ele>125.2</ele>
        <time>2021-08-21T12:10:40Z</time>
      </trkpt>
      <trkpt lat="48.35407" lon="2.75643">
        <ele>125.2</ele>
        <time>2021-08-21T12:10:41Z</time>
      </trkpt>
      <trkpt lat="48.35407" lon="2.75643">
        <ele>125.2</ele>
        <time>2021-08-21T12:10:42Z</time>
      </trkpt>
      <trkpt lat="48.35407" lon="2.75643">
        <ele>125.2</ele>
        <time>2021-08-21T12:10:43Z</time>
      </trkpt>
      <trkpt lat="48.35407" lon="2.75643">
        <ele>125.2</ele>
        <time>2021-08-21T12:10:44Z</time>
      </trkpt>
      <trkpt lat="48.35407" lon="2.75643">
        <ele>125.2</ele>
        <time>2021-08-21T12:10:45Z</time>
      </trkpt>
      <trkpt lat="48.35407" lon="2.75643">
        <ele>125.2</ele>
        <time>2021-08-21T12:10:46Z</time>
      </trkpt>
      <trkpt lat="48.35407" lon="2.75643">
        <ele>125.2</ele>
        <time>2021-08-21T12:10:47Z</time>
      </trkpt>
      <trkpt lat="48.35407" lon="2.75643">
        <ele>125.2</ele>
        <time>2021-08-21T12:10:48Z</time>
      </trkpt>
      <trkpt lat="48.35407" lon="2.75643">
        <ele>125.2</ele>
        <time>2021-08-21T12:10:49Z</time>
      </trkpt>
      <trkpt lat="48.35407" lon="2.75643">
        <ele>125.2</ele>
        <time>2021-08-21T12:10:50Z</time>
      </trkpt>
      <trkpt lat="48.35407" lon="2.75643">
        <ele>125.2</ele>
        <time>2021-08-21T12:10:51Z</time>
      </trkpt>
      <trkpt lat="48.35407" lon="2.75643">
        <ele>125.2</ele>
        <time>2021-08-21T12:10:52Z</time>
      </trkpt>
      <trkpt lat="48.35407" lon="2.75643">
        <ele>125.2</ele>
        <time>2021-08-21T12:10:53Z</time>
      </trkpt>
      <trkpt lat="48.35407" lon="2.75643">
        <ele>125.2</ele>
        <time>2021-08-21T12:10:54Z</time>
      </trkpt>
      <trkpt lat="48.35407" lon="2.75643">
        <ele>125.2</ele>
        <time>2021-08-21T12:10:55Z</time>
      </trkpt>
      <trkpt lat="48.35407" lon="2.75643">
        <ele>125.2</ele>
        <time>2021-08-21T12:10:56Z</time>
      </trkpt>
      <trkpt lat="48.35407" lon="2.75643">
        <ele>125.2</ele>
        <time>2021-08-21T12:10:57Z</time>
      </trkpt>
      <trkpt lat="48.35407" lon="2.75643">
        <ele>125.2</ele>
        <time>2021-08-21T12:10:58Z</time>
      </trkpt>
      <trkpt lat="48.35407" lon="2.75643">
        <ele>125.2</ele>
        <time>2021-08-21T12:10:59Z</time>
      </trkpt>
      <trkpt lat="48.35407" lon="2.75643">
        <ele>125.2</ele>
        <time>2021-08-21T12:11:00Z</time>
      </trkpt>
      <trkpt lat="48.35407" lon="2.75643">
        <ele>125.2</ele>
        <time>2021-08-21T12:11:01Z</time>
      </trkpt>
      <trkpt lat="48.35407" lon="2.75643">
        <ele>125.2</ele>
        <time>2021-08-21T12:11:02Z</time>
      </trkpt>
      <trkpt lat="48.35407" lon="2.75643">
        <ele>125.2</ele>
        <time>2021-08-21T12:11:03Z</time>
      </trkpt>
      <trkpt lat="48.35407" lon="2.75642">
        <ele>125.2</ele>
        <time>2021-08-21T12:11:04Z</time>
      </trkpt>
      <trkpt lat="48.35407" lon="2.75642">
        <ele>125.1</ele>
        <time>2021-08-21T12:11:05Z</time>
      </trkpt>
      <trkpt lat="48.35407" lon="2.75642">
        <ele>125.1</ele>
        <time>2021-08-21T12:11:06Z</time>
      </trkpt>
      <trkpt lat="48.35407" lon="2.75642">
        <ele>125.1</ele>
        <time>2021-08-21T12:11:07Z</time>
      </trkpt>
      <trkpt lat="48.35407" lon="2.75642">
        <ele>125.1</ele>
        <time>2021-08-21T12:11:08Z</time>
      </trkpt>
      <trkpt lat="48.35407" lon="2.75642">
        <ele>125.1</ele>
        <time>2021-08-21T12:11:09Z</time>
      </trkpt>
      <trkpt lat="48.35407" lon="2.75642">
        <ele>125.1</ele>
        <time>2021-08-21T12:11:11Z</time>
      </trkpt>
      <trkpt lat="48.35407" lon="2.75642">
        <ele>125.1</ele>
        <time>2021-08-21T12:11:12Z</time>
      </trkpt>
      <trkpt lat="48.35407" lon="2.75642">
        <ele>125.1</ele>
        <time>2021-08-21T12:11:13Z</time>
      </trkpt>
      <trkpt lat="48.35407" lon="2.75642">
        <ele>125.1</ele>
        <time>2021-08-21T12:11:14Z</time>
      </trkpt>
      <trkpt lat="48.35407" lon="2.75643">
        <ele>125.1</ele>
        <time>2021-08-21T12:11:16Z</time>
      </trkpt>
      <trkpt lat="48.35407" lon="2.75642">
        <ele>125.1</ele>
        <time>2021-08-21T12:11:17Z</time>
      </trkpt>
      <trkpt lat="48.35407" lon="2.75642">
        <ele>125.1</ele>
        <time>2021-08-21T12:11:18Z</time>
      </trkpt>
      <trkpt lat="48.35407" lon="2.75642">
        <ele>125</ele>
        <time>2021-08-21T12:11:19Z</time>
      </trkpt>
      <trkpt lat="48.35407" lon="2.75642">
        <ele>125</ele>
        <time>2021-08-21T12:11:20Z</time>
      </trkpt>
      <trkpt lat="48.35407" lon="2.75642">
        <ele>125</ele>
        <time>2021-08-21T12:11:22Z</time>
      </trkpt>
      <trkpt lat="48.35407" lon="2.75642">
        <ele>125</ele>
        <time>2021-08-21T12:11:23Z</time>
      </trkpt>
      <trkpt lat="48.35407" lon="2.75642">
        <ele>125</ele>
        <time>2021-08-21T12:11:24Z</time>
      </trkpt>
      <trkpt lat="48.35407" lon="2.75642">
        <ele>125</ele>
        <time>2021-08-21T12:11:25Z</time>
      </trkpt>
      <trkpt lat="48.35407" lon="2.75642">
        <ele>124.9</ele>
        <time>2021-08-21T12:11:27Z</time>
      </trkpt>
      <trkpt lat="48.35407" lon="2.75642">
        <ele>124.9</ele>
        <time>2021-08-21T12:11:28Z</time>
      </trkpt>
      <trkpt lat="48.35406" lon="2.75642">
        <ele>124.9</ele>
        <time>2021-08-21T12:11:29Z</time>
      </trkpt>
      <trkpt lat="48.35406" lon="2.75642">
        <ele>124.9</ele>
        <time>2021-08-21T12:11:31Z</time>
      </trkpt>
      <trkpt lat="48.35407" lon="2.75642">
        <ele>124.8</ele>
        <time>2021-08-21T12:11:32Z</time>
      </trkpt>
      <trkpt lat="48.35407" lon="2.75642">
        <ele>124.8</ele>
        <time>2021-08-21T12:11:33Z</time>
      </trkpt>
      <trkpt lat="48.35407" lon="2.75642">
        <ele>124.8</ele>
        <time>2021-08-21T12:11:34Z</time>
      </trkpt>
      <trkpt lat="48.35407" lon="2.75642">
        <ele>124.8</ele>
        <time>2021-08-21T12:11:35Z</time>
      </trkpt>
      <trkpt lat="48.35407" lon="2.75642">
        <ele>124.7</ele>
        <time>2021-08-21T12:11:36Z</time>
      </trkpt>
      <trkpt lat="48.35407" lon="2.75642">
        <ele>124.7</ele>
        <time>2021-08-21T12:11:37Z</time>
      </trkpt>
      <trkpt lat="48.35407" lon="2.75642">
        <ele>124.7</ele>
        <time>2021-08-21T12:11:38Z</time>
      </trkpt>
      <trkpt lat="48.35407" lon="2.75643">
        <ele>124.7</ele>
        <time>2021-08-21T12:11:39Z</time>
      </trkpt>
      <trkpt lat="48.35408" lon="2.75643">
        <ele>124.6</ele>
        <time>2021-08-21T12:11:40Z</time>
      </trkpt>
      <trkpt lat="48.35407" lon="2.75643">
        <ele>124.6</ele>
        <time>2021-08-21T12:11:42Z</time>
      </trkpt>
      <trkpt lat="48.35407" lon="2.75643">
        <ele>124.6</ele>
        <time>2021-08-21T12:11:43Z</time>
      </trkpt>
      <trkpt lat="48.35408" lon="2.75643">
        <ele>124.5</ele>
        <time>2021-08-21T12:11:44Z</time>
      </trkpt>
      <trkpt lat="48.35408" lon="2.75643">
        <ele>124.4</ele>
        <time>2021-08-21T12:11:46Z</time>
      </trkpt>
      <trkpt lat="48.35408" lon="2.75643">
        <ele>124.4</ele>
        <time>2021-08-21T12:11:47Z</time>
      </trkpt>
      <trkpt lat="48.35409" lon="2.75643">
        <ele>124.3</ele>
        <time>2021-08-21T12:11:48Z</time>
      </trkpt>
      <trkpt lat="48.35409" lon="2.75643">
        <ele>124.3</ele>
        <time>2021-08-21T12:11:49Z</time>
      </trkpt>
      <trkpt lat="48.35409" lon="2.75643">
        <ele>124.2</ele>
        <time>2021-08-21T12:11:50Z</time>
      </trkpt>
      <trkpt lat="48.35409" lon="2.75643">
        <ele>124.2</ele>
        <time>2021-08-21T12:11:51Z</time>
      </trkpt>
      <trkpt lat="48.35409" lon="2.75643">
        <ele>124.2</ele>
        <time>2021-08-21T12:11:52Z</time>
      </trkpt>
      <trkpt lat="48.3541" lon="2.75643">
        <ele>124.1</ele>
        <time>2021-08-21T12:11:53Z</time>
      </trkpt>
      <trkpt lat="48.3541" lon="2.75643">
        <ele>124.1</ele>
        <time>2021-08-21T12:11:54Z</time>
      </trkpt>
      <trkpt lat="48.3541" lon="2.75643">
        <ele>124.1</ele>
        <time>2021-08-21T12:11:55Z</time>
      </trkpt>
      <trkpt lat="48.3541" lon="2.75643">
        <ele>124.1</ele>
        <time>2021-08-21T12:11:56Z</time>
      </trkpt>
      <trkpt lat="48.3541" lon="2.75643">
        <ele>124.1</ele>
        <time>2021-08-21T12:11:57Z</time>
      </trkpt>
      <trkpt lat="48.3541" lon="2.75643">
        <ele>124.1</ele>
        <time>2021-08-21T12:11:58Z</time>
      </trkpt>
      <trkpt lat="48.3541" lon="2.75643">
        <ele>124.1</ele>
        <time>2021-08-21T12:11:59Z</time>
      </trkpt>
      <trkpt lat="48.3541" lon="2.75643">
        <ele>124.1</ele>
        <time>2021-08-21T12:12:00Z</time>
      </trkpt>
      <trkpt lat="48.3541" lon="2.75643">
        <ele>124.1</ele>
        <time>2021-08-21T12:12:01Z</time>
      </trkpt>
      <trkpt lat="48.3541" lon="2.75643">
        <ele>124.1</ele>
        <time>2021-08-21T12:12:02Z</time>
      </trkpt>
      <trkpt lat="48.3541" lon="2.75643">
        <ele>124.1</ele>
        <time>2021-08-21T12:12:03Z</time>
      </trkpt>
      <trkpt lat="48.3541" lon="2.75643">
        <ele>124.1</ele>
        <time>2021-08-21T12:12:04Z</time>
      </trkpt>
      <trkpt lat="48.3541" lon="2.75643">
        <ele>124.1</ele>
        <time>2021-08-21T12:12:05Z</time>
      </trkpt>
      <trkpt lat="48.3541" lon="2.75643">
        <ele>124.1</ele>
        <time>2021-08-21T12:12:06Z</time>
      </trkpt>
      <trkpt lat="48.3541" lon="2.75643">
        <ele>124.1</ele>
        <time>2021-08-21T12:12:07Z</time>
      </trkpt>
      <trkpt lat="48.3541" lon="2.75643">
        <ele>124.1</ele>
        <time>2021-08-21T12:12:08Z</time>
      </trkpt>
      <trkpt lat="48.3541" lon="2.75643">
        <ele>124.1</ele>
        <time>2021-08-21T12:12:09Z</time>
      </trkpt>
      <trkpt lat="48.3541" lon="2.75643">
        <ele>124.1</ele>
        <time>2021-08-21T12:12:10Z</time>
      </trkpt>
      <trkpt lat="48.3541" lon="2.75643">
        <ele>124.1</ele>
        <time>2021-08-21T12:12:11Z</time>
      </trkpt>
      <trkpt lat="48.3541" lon="2.75643">
        <ele>124.1</ele>
        <time>2021-08-21T12:12:12Z</time>
      </trkpt>
      <trkpt lat="48.3541" lon="2.75643">
        <ele>124.1</ele>
        <time>2021-08-21T12:12:13Z</time>
      </trkpt>
      <trkpt lat="48.3541" lon="2.75643">
        <ele>124.1</ele>
        <time>2021-08-21T12:12:14Z</time>
      </trkpt>
      <trkpt lat="48.3541" lon="2.75643">
        <ele>124.1</ele>
        <time>2021-08-21T12:12:15Z</time>
      </trkpt>
      <trkpt lat="48.3541" lon="2.75643">
        <ele>124.1</ele>
        <time>2021-08-21T12:12:16Z</time>
      </trkpt>
      <trkpt lat="48.3541" lon="2.75643">
        <ele>124.1</ele>
        <time>2021-08-21T12:12:17Z</time>
      </trkpt>
      <trkpt lat="48.3541" lon="2.75643">
        <ele>124.1</ele>
        <time>2021-08-21T12:12:18Z</time>
      </trkpt>
      <trkpt lat="48.3541" lon="2.75643">
        <ele>124.1</ele>
        <time>2021-08-21T12:12:19Z</time>
      </trkpt>
      <trkpt lat="48.3541" lon="2.75643">
        <ele>124.1</ele>
        <time>2021-08-21T12:12:20Z</time>
      </trkpt>
      <trkpt lat="48.3541" lon="2.75643">
        <ele>124.1</ele>
        <time>2021-08-21T12:12:21Z</time>
      </trkpt>
      <trkpt lat="48.3541" lon="2.75643">
        <ele>124.1</ele>
        <time>2021-08-21T12:12:22Z</time>
      </trkpt>
      <trkpt lat="48.3541" lon="2.75643">
        <ele>124.1</ele>
        <time>2021-08-21T12:12:23Z</time>
      </trkpt>
      <trkpt lat="48.3541" lon="2.75643">
        <ele>124.1</ele>
        <time>2021-08-21T12:12:24Z</time>
      </trkpt>
      <trkpt lat="48.3541" lon="2.75643">
        <ele>124.1</ele>
        <time>2021-08-21T12:12:25Z</time>
      </trkpt>
      <trkpt lat="48.3541" lon="2.75643">
        <ele>124.1</ele>
        <time>2021-08-21T12:12:26Z</time>
      </trkpt>
      <trkpt lat="48.3541" lon="2.75643">
        <ele>124.1</ele>
        <time>2021-08-21T12:12:27Z</time>
      </trkpt>
      <trkpt lat="48.3541" lon="2.75643">
        <ele>124.1</ele>
        <time>2021-08-21T12:12:28Z</time>
      </trkpt>
      <trkpt lat="48.3541" lon="2.75643">
        <ele>124.1</ele>
        <time>2021-08-21T12:12:29Z</time>
      </trkpt>
      <trkpt lat="48.3541" lon="2.75643">
        <ele>124.1</ele>
        <time>2021-08-21T12:12:30Z</time>
      </trkpt>
      <trkpt lat="48.3541" lon="2.75643">
        <ele>124.1</ele>
        <time>2021-08-21T12:12:31Z</time>
      </trkpt>
      <trkpt lat="48.3541" lon="2.75643">
        <ele>124.1</ele>
        <time>2021-08-21T12:12:32Z</time>
      </trkpt>
      <trkpt lat="48.3541" lon="2.75643">
        <ele>124.1</ele>
        <time>2021-08-21T12:12:33Z</time>
      </trkpt>
      <trkpt lat="48.3541" lon="2.75643">
        <ele>124.1</ele>
        <time>2021-08-21T12:12:34Z</time>
      </trkpt>
      <trkpt lat="48.3541" lon="2.75643">
        <ele>124.1</ele>
        <time>2021-08-21T12:12:35Z</time>
      </trkpt>
      <trkpt lat="48.3541" lon="2.75643">
        <ele>124.1</ele>
        <time>2021-08-21T12:12:36Z</time>
      </trkpt>
      <trkpt lat="48.3541" lon="2.75643">
        <ele>124.1</ele>
        <time>2021-08-21T12:12:37Z</time>
      </trkpt>
      <trkpt lat="48.3541" lon="2.75643">
        <ele>124.1</ele>
        <time>2021-08-21T12:12:38Z</time>
      </trkpt>
      <trkpt lat="48.3541" lon="2.75643">
        <ele>124.1</ele>
        <time>2021-08-21T12:12:39Z</time>
      </trkpt>
      <trkpt lat="48.3541" lon="2.75643">
        <ele>124.1</ele>
        <time>2021-08-21T12:12:40Z</time>
      </trkpt>
      <trkpt lat="48.3541" lon="2.75643">
        <ele>124.1</ele>
        <time>2021-08-21T12:12:41Z</time>
      </trkpt>
      <trkpt lat="48.3541" lon="2.75643">
        <ele>124.1</ele>
        <time>2021-08-21T12:12:42Z</time>
      </trkpt>
      <trkpt lat="48.3541" lon="2.75643">
        <ele>124.1</ele>
        <time>2021-08-21T12:12:43Z</time>
      </trkpt>
      <trkpt lat="48.3541" lon="2.75643">
        <ele>124.1</ele>
        <time>2021-08-21T12:12:44Z</time>
      </trkpt>
      <trkpt lat="48.3541" lon="2.75643">
        <ele>124.1</ele>
        <time>2021-08-21T12:12:45Z</time>
      </trkpt>
      <trkpt lat="48.3541" lon="2.75643">
        <ele>124.1</ele>
        <time>2021-08-21T12:12:46Z</time>
      </trkpt>
      <trkpt lat="48.3541" lon="2.75643">
        <ele>124.1</ele>
        <time>2021-08-21T12:12:47Z</time>
      </trkpt>
      <trkpt lat="48.3541" lon="2.75643">
        <ele>124.1</ele>
        <time>2021-08-21T12:12:48Z</time>
      </trkpt>
      <trkpt lat="48.3541" lon="2.75643">
        <ele>124.1</ele>
        <time>2021-08-21T12:12:49Z</time>
      </trkpt>
      <trkpt lat="48.3541" lon="2.75642">
        <ele>124.1</ele>
        <time>2021-08-21T12:12:50Z</time>
      </trkpt>
      <trkpt lat="48.35409" lon="2.75642">
        <ele>124</ele>
        <time>2021-08-21T12:12:51Z</time>
      </trkpt>
      <trkpt lat="48.35409" lon="2.7564">
        <ele>123.8</ele>
        <time>2021-08-21T12:12:52Z</time>
      </trkpt>
      <trkpt lat="48.35409" lon="2.75638">
        <ele>123.5</ele>
        <time>2021-08-21T12:12:53Z</time>
      </trkpt>
      <trkpt lat="48.35409" lon="2.75637">
        <ele>123.4</ele>
        <time>2021-08-21T12:12:54Z</time>
      </trkpt>
      <trkpt lat="48.35408" lon="2.75637">
        <ele>123.3</ele>
        <time>2021-08-21T12:12:55Z</time>
      </trkpt>
      <trkpt lat="48.35408" lon="2.75637">
        <ele>123.3</ele>
        <time>2021-08-21T12:12:56Z</time>
      </trkpt>
      <trkpt lat="48.35408" lon="2.75637">
        <ele>123.2</ele>
        <time>2021-08-21T12:12:57Z</time>
      </trkpt>
      <trkpt lat="48.35408" lon="2.75637">
        <ele>123.2</ele>
        <time>2021-08-21T12:12:58Z</time>
      </trkpt>
      <trkpt lat="48.35408" lon="2.75637">
        <ele>123.2</ele>
        <time>2021-08-21T12:12:59Z</time>
      </trkpt>
      <trkpt lat="48.35408" lon="2.75637">
        <ele>123.2</ele>
        <time>2021-08-21T12:13:00Z</time>
      </trkpt>
      <trkpt lat="48.35408" lon="2.75637">
        <ele>123.2</ele>
        <time>2021-08-21T12:13:01Z</time>
      </trkpt>
      <trkpt lat="48.35408" lon="2.75637">
        <ele>123.2</ele>
        <time>2021-08-21T12:13:02Z</time>
      </trkpt>
      <trkpt lat="48.35408" lon="2.75637">
        <ele>123.2</ele>
        <time>2021-08-21T12:13:03Z</time>
      </trkpt>
      <trkpt lat="48.35408" lon="2.75637">
        <ele>123.2</ele>
        <time>2021-08-21T12:13:04Z</time>
      </trkpt>
      <trkpt lat="48.35408" lon="2.75637">
        <ele>123.2</ele>
        <time>2021-08-21T12:13:05Z</time>
      </trkpt>
      <trkpt lat="48.35408" lon="2.75637">
        <ele>123.1</ele>
        <time>2021-08-21T12:13:06Z</time>
      </trkpt>
      <trkpt lat="48.35408" lon="2.75637">
        <ele>123.1</ele>
        <time>2021-08-21T12:13:07Z</time>
      </trkpt>
      <trkpt lat="48.35408" lon="2.75637">
        <ele>123.1</ele>
        <time>2021-08-21T12:13:08Z</time>
      </trkpt>
      <trkpt lat="48.35408" lon="2.75636">
        <ele>123.1</ele>
        <time>2021-08-21T12:13:09Z</time>
      </trkpt>
      <trkpt lat="48.35408" lon="2.75636">
        <ele>123</ele>
        <time>2021-08-21T12:13:10Z</time>
      </trkpt>
      <trkpt lat="48.35408" lon="2.75636">
        <ele>123</ele>
        <time>2021-08-21T12:13:12Z</time>
      </trkpt>
      <trkpt lat="48.35408" lon="2.75636">
        <ele>123</ele>
        <time>2021-08-21T12:13:13Z</time>
      </trkpt>
      <trkpt lat="48.35408" lon="2.75636">
        <ele>122.9</ele>
        <time>2021-08-21T12:13:14Z</time>
      </trkpt>
      <trkpt lat="48.35408" lon="2.75635">
        <ele>122.9</ele>
        <time>2021-08-21T12:13:15Z</time>
      </trkpt>
      <trkpt lat="48.35407" lon="2.75635">
        <ele>122.9</ele>
        <time>2021-08-21T12:13:16Z</time>
      </trkpt>
      <trkpt lat="48.35407" lon="2.75635">
        <ele>122.9</ele>
        <time>2021-08-21T12:13:17Z</time>
      </trkpt>
      <trkpt lat="48.35407" lon="2.75635">
        <ele>122.9</ele>
        <time>2021-08-21T12:13:18Z</time>
      </trkpt>
      <trkpt lat="48.35407" lon="2.75635">
        <ele>122.9</ele>
        <time>2021-08-21T12:13:19Z</time>
      </trkpt>
      <trkpt lat="48.35407" lon="2.75635">
        <ele>122.9</ele>
        <time>2021-08-21T12:13:20Z</time>
      </trkpt>
      <trkpt lat="48.35407" lon="2.75635">
        <ele>122.9</ele>
        <time>2021-08-21T12:13:21Z</time>
      </trkpt>
      <trkpt lat="48.35407" lon="2.75635">
        <ele>122.8</ele>
        <time>2021-08-21T12:13:23Z</time>
      </trkpt>
      <trkpt lat="48.35407" lon="2.75634">
        <ele>122.8</ele>
        <time>2021-08-21T12:13:24Z</time>
      </trkpt>
      <trkpt lat="48.35407" lon="2.75634">
        <ele>122.7</ele>
        <time>2021-08-21T12:13:25Z</time>
      </trkpt>
      <trkpt lat="48.35407" lon="2.75634">
        <ele>122.7</ele>
        <time>2021-08-21T12:13:26Z</time>
      </trkpt>
      <trkpt lat="48.35407" lon="2.75633">
        <ele>122.6</ele>
        <time>2021-08-21T12:13:27Z</time>
      </trkpt>
      <trkpt lat="48.35407" lon="2.75633">
        <ele>122.6</ele>
        <time>2021-08-21T12:13:28Z</time>
      </trkpt>
      <trkpt lat="48.35407" lon="2.75632">
        <ele>122.5</ele>
        <time>2021-08-21T12:13:30Z</time>
      </trkpt>
      <trkpt lat="48.35407" lon="2.75632">
        <ele>122.5</ele>
        <time>2021-08-21T12:13:31Z</time>
      </trkpt>
      <trkpt lat="48.35407" lon="2.75632">
        <ele>122.5</ele>
        <time>2021-08-21T12:13:32Z</time>
      </trkpt>
      <trkpt lat="48.35407" lon="2.75632">
        <ele>122.5</ele>
        <time>2021-08-21T12:13:33Z</time>
      </trkpt>
      <trkpt lat="48.35407" lon="2.75632">
        <ele>122.4</ele>
        <time>2021-08-21T12:13:34Z</time>
      </trkpt>
      <trkpt lat="48.35407" lon="2.75632">
        <ele>122.4</ele>
        <time>2021-08-21T12:13:35Z</time>
      </trkpt>
      <trkpt lat="48.35407" lon="2.75632">
        <ele>122.4</ele>
        <time>2021-08-21T12:13:36Z</time>
      </trkpt>
      <trkpt lat="48.35407" lon="2.75632">
        <ele>122.4</ele>
        <time>2021-08-21T12:13:37Z</time>
      </trkpt>
      <trkpt lat="48.35407" lon="2.75631">
        <ele>122.4</ele>
        <time>2021-08-21T12:13:38Z</time>
      </trkpt>
      <trkpt lat="48.35406" lon="2.75631">
        <ele>122.4</ele>
        <time>2021-08-21T12:13:39Z</time>
      </trkpt>
      <trkpt lat="48.35406" lon="2.75631">
        <ele>122.4</ele>
        <time>2021-08-21T12:13:40Z</time>
      </trkpt>
      <trkpt lat="48.35406" lon="2.75632">
        <ele>122.3</ele>
        <time>2021-08-21T12:13:41Z</time>
      </trkpt>
      <trkpt lat="48.35406" lon="2.75632">
        <ele>122.3</ele>
        <time>2021-08-21T12:13:42Z</time>
      </trkpt>
      <trkpt lat="48.35406" lon="2.75633">
        <ele>122.2</ele>
        <time>2021-08-21T12:13:43Z</time>
      </trkpt>
      <trkpt lat="48.35406" lon="2.75633">
        <ele>122.2</ele>
        <time>2021-08-21T12:13:44Z</time>
      </trkpt>
      <trkpt lat="48.35405" lon="2.75633">
        <ele>122.1</ele>
        <time>2021-08-21T12:13:45Z</time>
      </trkpt>
      <trkpt lat="48.35405" lon="2.75634">
        <ele>122.1</ele>
        <time>2021-08-21T12:13:46Z</time>
      </trkpt>
      <trkpt lat="48.35405" lon="2.75634">
        <ele>122</ele>
        <time>2021-08-21T12:13:47Z</time>
      </trkpt>
      <trkpt lat="48.35405" lon="2.75635">
        <ele>121.9</ele>
        <time>2021-08-21T12:13:48Z</time>
      </trkpt>
      <trkpt lat="48.35405" lon="2.75635">
        <ele>121.9</ele>
        <time>2021-08-21T12:13:49Z</time>
      </trkpt>
      <trkpt lat="48.35405" lon="2.75636">
        <ele>121.8</ele>
        <time>2021-08-21T12:13:50Z</time>
      </trkpt>
      <trkpt lat="48.35404" lon="2.75636">
        <ele>121.8</ele>
        <time>2021-08-21T12:13:52Z</time>
      </trkpt>
      <trkpt lat="48.35404" lon="2.75636">
        <ele>121.7</ele>
        <time>2021-08-21T12:13:53Z</time>
      </trkpt>
      <trkpt lat="48.35404" lon="2.75637">
        <ele>121.7</ele>
        <time>2021-08-21T12:13:55Z</time>
      </trkpt>
      <trkpt lat="48.35404" lon="2.75637">
        <ele>121.6</ele>
        <time>2021-08-21T12:13:56Z</time>
      </trkpt>
      <trkpt lat="48.35404" lon="2.75638">
        <ele>121.6</ele>
        <time>2021-08-21T12:13:58Z</time>
      </trkpt>
      <trkpt lat="48.35404" lon="2.75638">
        <ele>121.5</ele>
        <time>2021-08-21T12:13:59Z</time>
      </trkpt>
      <trkpt lat="48.35403" lon="2.75638">
        <ele>121.5</ele>
        <time>2021-08-21T12:14:00Z</time>
      </trkpt>
      <trkpt lat="48.35404" lon="2.75642">
        <ele>121.1</ele>
        <time>2021-08-21T12:14:02Z</time>
      </trkpt>
      <trkpt lat="48.35404" lon="2.75643">
        <ele>121</ele>
        <time>2021-08-21T12:14:03Z</time>
      </trkpt>
      <trkpt lat="48.35404" lon="2.75643">
        <ele>121</ele>
        <time>2021-08-21T12:14:04Z</time>
      </trkpt>
      <trkpt lat="48.35404" lon="2.75644">
        <ele>120.9</ele>
        <time>2021-08-21T12:14:05Z</time>
      </trkpt>
      <trkpt lat="48.35404" lon="2.75645">
        <ele>120.8</ele>
        <time>2021-08-21T12:14:06Z</time>
      </trkpt>
      <trkpt lat="48.35404" lon="2.75646">
        <ele>120.7</ele>
        <time>2021-08-21T12:14:07Z</time>
      </trkpt>
      <trkpt lat="48.35404" lon="2.75646">
        <ele>120.7</ele>
        <time>2021-08-21T12:14:08Z</time>
      </trkpt>
      <trkpt lat="48.35404" lon="2.75647">
        <ele>120.6</ele>
        <time>2021-08-21T12:14:09Z</time>
      </trkpt>
      <trkpt lat="48.35405" lon="2.75648">
        <ele>120.5</ele>
        <time>2021-08-21T12:14:10Z</time>
      </trkpt>
      <trkpt lat="48.35405" lon="2.75649">
        <ele>120.4</ele>
        <time>2021-08-21T12:14:11Z</time>
      </trkpt>
      <trkpt lat="48.35405" lon="2.75649">
        <ele>120.3</ele>
        <time>2021-08-21T12:14:12Z</time>
      </trkpt>
      <trkpt lat="48.35405" lon="2.7565">
        <ele>120.3</ele>
        <time>2021-08-21T12:14:14Z</time>
      </trkpt>
      <trkpt lat="48.35405" lon="2.75651">
        <ele>120.2</ele>
        <time>2021-08-21T12:14:15Z</time>
      </trkpt>
      <trkpt lat="48.35405" lon="2.75652">
        <ele>120.1</ele>
        <time>2021-08-21T12:14:16Z</time>
      </trkpt>
      <trkpt lat="48.35405" lon="2.75652">
        <ele>120</ele>
        <time>2021-08-21T12:14:17Z</time>
      </trkpt>
      <trkpt lat="48.35406" lon="2.75653">
        <ele>120</ele>
        <time>2021-08-21T12:14:18Z</time>
      </trkpt>
      <trkpt lat="48.35406" lon="2.75653">
        <ele>119.8</ele>
        <time>2021-08-21T12:14:20Z</time>
      </trkpt>
      <trkpt lat="48.35408" lon="2.75654">
        <ele>119.5</ele>
        <time>2021-08-21T12:14:21Z</time>
      </trkpt>
      <trkpt lat="48.3541" lon="2.75655">
        <ele>119.3</ele>
        <time>2021-08-21T12:14:22Z</time>
      </trkpt>
      <trkpt lat="48.3541" lon="2.75656">
        <ele>119.1</ele>
        <time>2021-08-21T12:14:24Z</time>
      </trkpt>
      <trkpt lat="48.35411" lon="2.75657">
        <ele>119</ele>
        <time>2021-08-21T12:14:25Z</time>
      </trkpt>
      <trkpt lat="48.35412" lon="2.75659">
        <ele>118.7</ele>
        <time>2021-08-21T12:14:27Z</time>
      </trkpt>
      <trkpt lat="48.35413" lon="2.7566">
        <ele>118.6</ele>
        <time>2021-08-21T12:14:28Z</time>
      </trkpt>
      <trkpt lat="48.35413" lon="2.7566">
        <ele>118.5</ele>
        <time>2021-08-21T12:14:29Z</time>
      </trkpt>
      <trkpt lat="48.35414" lon="2.75662">
        <ele>118.3</ele>
        <time>2021-08-21T12:14:30Z</time>
      </trkpt>
      <trkpt lat="48.35415" lon="2.75664">
        <ele>118</ele>
        <time>2021-08-21T12:14:31Z</time>
      </trkpt>
      <trkpt lat="48.35416" lon="2.75664">
        <ele>117.9</ele>
        <time>2021-08-21T12:14:32Z</time>
      </trkpt>
      <trkpt lat="48.35417" lon="2.75664">
        <ele>117.6</ele>
        <time>2021-08-21T12:14:33Z</time>
      </trkpt>
      <trkpt lat="48.35419" lon="2.75663">
        <ele>117.4</ele>
        <time>2021-08-21T12:14:35Z</time>
      </trkpt>
      <trkpt lat="48.35418" lon="2.75663">
        <ele>117.3</ele>
        <time>2021-08-21T12:14:37Z</time>
      </trkpt>
      <trkpt lat="48.35417" lon="2.75662">
        <ele>117.1</ele>
        <time>2021-08-21T12:14:38Z</time>
      </trkpt>
      <trkpt lat="48.35415" lon="2.75663">
        <ele>116.9</ele>
        <time>2021-08-21T12:14:40Z</time>
      </trkpt>
      <trkpt lat="48.35415" lon="2.75664">
        <ele>116.8</ele>
        <time>2021-08-21T12:14:41Z</time>
      </trkpt>
      <trkpt lat="48.35416" lon="2.75665">
        <ele>116.7</ele>
        <time>2021-08-21T12:14:42Z</time>
      </trkpt>
      <trkpt lat="48.35416" lon="2.75665">
        <ele>116.7</ele>
        <time>2021-08-21T12:14:43Z</time>
      </trkpt>
      <trkpt lat="48.35416" lon="2.75665">
        <ele>116.6</ele>
        <time>2021-08-21T12:14:44Z</time>
      </trkpt>
      <trkpt lat="48.35416" lon="2.75666">
        <ele>116.5</ele>
        <time>2021-08-21T12:14:45Z</time>
      </trkpt>
      <trkpt lat="48.35416" lon="2.75666">
        <ele>116.5</ele>
        <time>2021-08-21T12:14:46Z</time>
      </trkpt>
      <trkpt lat="48.35417" lon="2.75667">
        <ele>116.4</ele>
        <time>2021-08-21T12:14:47Z</time>
      </trkpt>
      <trkpt lat="48.35417" lon="2.75668">
        <ele>116.3</ele>
        <time>2021-08-21T12:14:48Z</time>
      </trkpt>
      <trkpt lat="48.35417" lon="2.75668">
        <ele>116.3</ele>
        <time>2021-08-21T12:14:49Z</time>
      </trkpt>
      <trkpt lat="48.35417" lon="2.75668">
        <ele>116.2</ele>
        <time>2021-08-21T12:14:50Z</time>
      </trkpt>
      <trkpt lat="48.35417" lon="2.75669">
        <ele>116.2</ele>
        <time>2021-08-21T12:14:51Z</time>
      </trkpt>
      <trkpt lat="48.35417" lon="2.75669">
        <ele>116.1</ele>
        <time>2021-08-21T12:14:52Z</time>
      </trkpt>
      <trkpt lat="48.35417" lon="2.75669">
        <ele>116.1</ele>
        <time>2021-08-21T12:14:53Z</time>
      </trkpt>
      <trkpt lat="48.35418" lon="2.7567">
        <ele>116.1</ele>
        <time>2021-08-21T12:14:54Z</time>
      </trkpt>
      <trkpt lat="48.35418" lon="2.7567">
        <ele>116</ele>
        <time>2021-08-21T12:14:55Z</time>
      </trkpt>
      <trkpt lat="48.35419" lon="2.75669">
        <ele>115.9</ele>
        <time>2021-08-21T12:14:57Z</time>
      </trkpt>
      <trkpt lat="48.3542" lon="2.75668">
        <ele>115.7</ele>
        <time>2021-08-21T12:14:58Z</time>
      </trkpt>
      <trkpt lat="48.35422" lon="2.75667">
        <ele>115.4</ele>
        <time>2021-08-21T12:14:59Z</time>
      </trkpt>
      <trkpt lat="48.35423" lon="2.75667">
        <ele>115.2</ele>
        <time>2021-08-21T12:15:01Z</time>
      </trkpt>
      <trkpt lat="48.35424" lon="2.75667">
        <ele>115.1</ele>
        <time>2021-08-21T12:15:02Z</time>
      </trkpt>
      <trkpt lat="48.35426" lon="2.75667">
        <ele>114.9</ele>
        <time>2021-08-21T12:15:03Z</time>
      </trkpt>
      <trkpt lat="48.35427" lon="2.75666">
        <ele>114.8</ele>
        <time>2021-08-21T12:15:04Z</time>
      </trkpt>
      <trkpt lat="48.35427" lon="2.75666">
        <ele>114.7</ele>
        <time>2021-08-21T12:15:05Z</time>
      </trkpt>
      <trkpt lat="48.35429" lon="2.75665">
        <ele>114.5</ele>
        <time>2021-08-21T12:15:07Z</time>
      </trkpt>
      <trkpt lat="48.35429" lon="2.75665">
        <ele>114.4</ele>
        <time>2021-08-21T12:15:08Z</time>
      </trkpt>
      <trkpt lat="48.3543" lon="2.75665">
        <ele>114.3</ele>
        <time>2021-08-21T12:15:09Z</time>
      </trkpt>
      <trkpt lat="48.35432" lon="2.75666">
        <ele>114.1</ele>
        <time>2021-08-21T12:15:10Z</time>
      </trkpt>
      <trkpt lat="48.35433" lon="2.75667">
        <ele>114</ele>
        <time>2021-08-21T12:15:11Z</time>
      </trkpt>
      <trkpt lat="48.35434" lon="2.75667">
        <ele>113.9</ele>
        <time>2021-08-21T12:15:12Z</time>
      </trkpt>
      <trkpt lat="48.35434" lon="2.75669">
        <ele>113.8</ele>
        <time>2021-08-21T12:15:13Z</time>
      </trkpt>
      <trkpt lat="48.35434" lon="2.7567">
        <ele>113.6</ele>
        <time>2021-08-21T12:15:14Z</time>
      </trkpt>
      <trkpt lat="48.35435" lon="2.75672">
        <ele>113.5</ele>
        <time>2021-08-21T12:15:16Z</time>
      </trkpt>
      <trkpt lat="48.35435" lon="2.75673">
        <ele>113.4</ele>
        <time>2021-08-21T12:15:17Z</time>
      </trkpt>
      <trkpt lat="48.35435" lon="2.75674">
        <ele>113.3</ele>
        <time>2021-08-21T12:15:18Z</time>
      </trkpt>
      <trkpt lat="48.35435" lon="2.75676">
        <ele>113.2</ele>
        <time>2021-08-21T12:15:19Z</time>
      </trkpt>
      <trkpt lat="48.35436" lon="2.7568">
        <ele>112.9</ele>
        <time>2021-08-21T12:15:20Z</time>
      </trkpt>
      <trkpt lat="48.35437" lon="2.75681">
        <ele>112.8</ele>
        <time>2021-08-21T12:15:21Z</time>
      </trkpt>
      <trkpt lat="48.35437" lon="2.75683">
        <ele>112.7</ele>
        <time>2021-08-21T12:15:22Z</time>
      </trkpt>
      <trkpt lat="48.35437" lon="2.75684">
        <ele>112.6</ele>
        <time>2021-08-21T12:15:23Z</time>
      </trkpt>
      <trkpt lat="48.35437" lon="2.75685">
        <ele>112.6</ele>
        <time>2021-08-21T12:15:24Z</time>
      </trkpt>
      <trkpt lat="48.35438" lon="2.75685">
        <ele>112.5</ele>
        <time>2021-08-21T12:15:25Z</time>
      </trkpt>
      <trkpt lat="48.35439" lon="2.75683">
        <ele>112.3</ele>
        <time>2021-08-21T12:15:28Z</time>
      </trkpt>
      <trkpt lat="48.35439" lon="2.75683">
        <ele>112.3</ele>
        <time>2021-08-21T12:15:29Z</time>
      </trkpt>
      <trkpt lat="48.35439" lon="2.75682">
        <ele>112.2</ele>
        <time>2021-08-21T12:15:30Z</time>
      </trkpt>
      <trkpt lat="48.35439" lon="2.75682">
        <ele>112.2</ele>
        <time>2021-08-21T12:15:31Z</time>
      </trkpt>
      <trkpt lat="48.35439" lon="2.75682">
        <ele>112.2</ele>
        <time>2021-08-21T12:15:32Z</time>
      </trkpt>
      <trkpt lat="48.35439" lon="2.75683">
        <ele>112.1</ele>
        <time>2021-08-21T12:15:34Z</time>
      </trkpt>
      <trkpt lat="48.35438" lon="2.75684">
        <ele>112</ele>
        <time>2021-08-21T12:15:35Z</time>
      </trkpt>
      <trkpt lat="48.35438" lon="2.75687">
        <ele>111.8</ele>
        <time>2021-08-21T12:15:37Z</time>
      </trkpt>
      <trkpt lat="48.35437" lon="2.75688">
        <ele>111.7</ele>
        <time>2021-08-21T12:15:39Z</time>
      </trkpt>
      <trkpt lat="48.35437" lon="2.75689">
        <ele>111.7</ele>
        <time>2021-08-21T12:15:40Z</time>
      </trkpt>
      <trkpt lat="48.35438" lon="2.75689">
        <ele>111.6</ele>
        <time>2021-08-21T12:15:41Z</time>
      </trkpt>
      <trkpt lat="48.35439" lon="2.75689">
        <ele>111.5</ele>
        <time>2021-08-21T12:15:42Z</time>
      </trkpt>
      <trkpt lat="48.35439" lon="2.75689">
        <ele>111.4</ele>
        <time>2021-08-21T12:15:43Z</time>
      </trkpt>
      <trkpt lat="48.3544" lon="2.75689">
        <ele>111.4</ele>
        <time>2021-08-21T12:15:44Z</time>
      </trkpt>
      <trkpt lat="48.35441" lon="2.75689">
        <ele>111.3</ele>
        <time>2021-08-21T12:15:45Z</time>
      </trkpt>
      <trkpt lat="48.35442" lon="2.7569">
        <ele>111.1</ele>
        <time>2021-08-21T12:15:46Z</time>
      </trkpt>
      <trkpt lat="48.35443" lon="2.75693">
        <ele>110.9</ele>
        <time>2021-08-21T12:15:48Z</time>
      </trkpt>
      <trkpt lat="48.35444" lon="2.75694">
        <ele>110.8</ele>
        <time>2021-08-21T12:15:49Z</time>
      </trkpt>
      <trkpt lat="48.35444" lon="2.75695">
        <ele>110.6</ele>
        <time>2021-08-21T12:15:50Z</time>
      </trkpt>
      <trkpt lat="48.35445" lon="2.75696">
        <ele>110.5</ele>
        <time>2021-08-21T12:15:51Z</time>
      </trkpt>
      <trkpt lat="48.35446" lon="2.75699">
        <ele>110.3</ele>
        <time>2021-08-21T12:15:52Z</time>
      </trkpt>
      <trkpt lat="48.35446" lon="2.75701">
        <ele>110.1</ele>
        <time>2021-08-21T12:15:54Z</time>
      </trkpt>
      <trkpt lat="48.35445" lon="2.75702">
        <ele>110</ele>
        <time>2021-08-21T12:15:55Z</time>
      </trkpt>
      <trkpt lat="48.35444" lon="2.75706">
        <ele>109.7</ele>
        <time>2021-08-21T12:15:56Z</time>
      </trkpt>
      <trkpt lat="48.35444" lon="2.75707">
        <ele>109.5</ele>
        <time>2021-08-21T12:15:57Z</time>
      </trkpt>
      <trkpt lat="48.35444" lon="2.75709">
        <ele>109.4</ele>
        <time>2021-08-21T12:15:58Z</time>
      </trkpt>
      <trkpt lat="48.35444" lon="2.75712">
        <ele>109.2</ele>
        <time>2021-08-21T12:15:59Z</time>
      </trkpt>
      <trkpt lat="48.35445" lon="2.75714">
        <ele>108.9</ele>
        <time>2021-08-21T12:16:00Z</time>
      </trkpt>
      <trkpt lat="48.35445" lon="2.75718">
        <ele>108.6</ele>
        <time>2021-08-21T12:16:02Z</time>
      </trkpt>
      <trkpt lat="48.35446" lon="2.7572">
        <ele>108.4</ele>
        <time>2021-08-21T12:16:03Z</time>
      </trkpt>
      <trkpt lat="48.35446" lon="2.75721">
        <ele>108.2</ele>
        <time>2021-08-21T12:16:04Z</time>
      </trkpt>
      <trkpt lat="48.35447" lon="2.75723">
        <ele>108.1</ele>
        <time>2021-08-21T12:16:05Z</time>
      </trkpt>
      <trkpt lat="48.35448" lon="2.75726">
        <ele>107.7</ele>
        <time>2021-08-21T12:16:07Z</time>
      </trkpt>
      <trkpt lat="48.35448" lon="2.75727">
        <ele>107.6</ele>
        <time>2021-08-21T12:16:08Z</time>
      </trkpt>
      <trkpt lat="48.35449" lon="2.75729">
        <ele>107.5</ele>
        <time>2021-08-21T12:16:09Z</time>
      </trkpt>
      <trkpt lat="48.35449" lon="2.7573">
        <ele>107.3</ele>
        <time>2021-08-21T12:16:10Z</time>
      </trkpt>
      <trkpt lat="48.35449" lon="2.75733">
        <ele>107</ele>
        <time>2021-08-21T12:16:12Z</time>
      </trkpt>
      <trkpt lat="48.3545" lon="2.75735">
        <ele>106.9</ele>
        <time>2021-08-21T12:16:13Z</time>
      </trkpt>
      <trkpt lat="48.35451" lon="2.75735">
        <ele>106.8</ele>
        <time>2021-08-21T12:16:14Z</time>
      </trkpt>
      <trkpt lat="48.35451" lon="2.75735">
        <ele>106.7</ele>
        <time>2021-08-21T12:16:15Z</time>
      </trkpt>
      <trkpt lat="48.35452" lon="2.75735">
        <ele>106.6</ele>
        <time>2021-08-21T12:16:16Z</time>
      </trkpt>
      <trkpt lat="48.35452" lon="2.75735">
        <ele>106.5</ele>
        <time>2021-08-21T12:16:18Z</time>
      </trkpt>
      <trkpt lat="48.35453" lon="2.75735">
        <ele>106.4</ele>
        <time>2021-08-21T12:16:19Z</time>
      </trkpt>
      <trkpt lat="48.35455" lon="2.75735">
        <ele>106.2</ele>
        <time>2021-08-21T12:16:20Z</time>
      </trkpt>
      <trkpt lat="48.35456" lon="2.75735">
        <ele>106</ele>
        <time>2021-08-21T12:16:21Z</time>
      </trkpt>
      <trkpt lat="48.35458" lon="2.75735">
        <ele>105.7</ele>
        <time>2021-08-21T12:16:22Z</time>
      </trkpt>
      <trkpt lat="48.35459" lon="2.75735">
        <ele>105.5</ele>
        <time>2021-08-21T12:16:23Z</time>
      </trkpt>
      <trkpt lat="48.3546" lon="2.75738">
        <ele>105.1</ele>
        <time>2021-08-21T12:16:25Z</time>
      </trkpt>
      <trkpt lat="48.35461" lon="2.75743">
        <ele>104.7</ele>
        <time>2021-08-21T12:16:26Z</time>
      </trkpt>
      <trkpt lat="48.35461" lon="2.75748">
        <ele>104.2</ele>
        <time>2021-08-21T12:16:27Z</time>
      </trkpt>
      <trkpt lat="48.35461" lon="2.75753">
        <ele>103.8</ele>
        <time>2021-08-21T12:16:28Z</time>
      </trkpt>
      <trkpt lat="48.35461" lon="2.75757">
        <ele>103.4</ele>
        <time>2021-08-21T12:16:29Z</time>
      </trkpt>
      <trkpt lat="48.35462" lon="2.75759">
        <ele>103.1</ele>
        <time>2021-08-21T12:16:30Z</time>
      </trkpt>
      <trkpt lat="48.35464" lon="2.75762">
        <ele>102.8</ele>
        <time>2021-08-21T12:16:32Z</time>
      </trkpt>
      <trkpt lat="48.35467" lon="2.75763">
        <ele>102.3</ele>
        <time>2021-08-21T12:16:33Z</time>
      </trkpt>
      <trkpt lat="48.35467" lon="2.75763">
        <ele>102.2</ele>
        <time>2021-08-21T12:16:34Z</time>
      </trkpt>
      <trkpt lat="48.35469" lon="2.75764">
        <ele>101.8</ele>
        <time>2021-08-21T12:16:35Z</time>
      </trkpt>
      <trkpt lat="48.3547" lon="2.75765">
        <ele>101.6</ele>
        <time>2021-08-21T12:16:36Z</time>
      </trkpt>
      <trkpt lat="48.35471" lon="2.75766">
        <ele>101.5</ele>
        <time>2021-08-21T12:16:37Z</time>
      </trkpt>
      <trkpt lat="48.35472" lon="2.75769">
        <ele>101.2</ele>
        <time>2021-08-21T12:16:38Z</time>
      </trkpt>
      <trkpt lat="48.35473" lon="2.7577">
        <ele>101</ele>
        <time>2021-08-21T12:16:39Z</time>
      </trkpt>
      <trkpt lat="48.35473" lon="2.75771">
        <ele>100.9</ele>
        <time>2021-08-21T12:16:40Z</time>
      </trkpt>
      <trkpt lat="48.35473" lon="2.75773">
        <ele>100.7</ele>
        <time>2021-08-21T12:16:42Z</time>
      </trkpt>
      <trkpt lat="48.35474" lon="2.75775">
        <ele>100.5</ele>
        <time>2021-08-21T12:16:43Z</time>
      </trkpt>
      <trkpt lat="48.35472" lon="2.75776">
        <ele>100.2</ele>
        <time>2021-08-21T12:16:44Z</time>
      </trkpt>
      <trkpt lat="48.35471" lon="2.75777">
        <ele>100.1</ele>
        <time>2021-08-21T12:16:45Z</time>
      </trkpt>
      <trkpt lat="48.35471" lon="2.75778">
        <ele>99.9</ele>
        <time>2021-08-21T12:16:46Z</time>
      </trkpt>
      <trkpt lat="48.35471" lon="2.75781">
        <ele>99.6</ele>
        <time>2021-08-21T12:16:47Z</time>
      </trkpt>
      <trkpt lat="48.35471" lon="2.75782">
        <ele>99.6</ele>
        <time>2021-08-21T12:16:48Z</time>
      </trkpt>
      <trkpt lat="48.35471" lon="2.75783">
        <ele>99.5</ele>
        <time>2021-08-21T12:16:49Z</time>
      </trkpt>
      <trkpt lat="48.35471" lon="2.75784">
        <ele>99.4</ele>
        <time>2021-08-21T12:16:50Z</time>
      </trkpt>
      <trkpt lat="48.35472" lon="2.75785">
        <ele>99.3</ele>
        <time>2021-08-21T12:16:51Z</time>
      </trkpt>
      <trkpt lat="48.35473" lon="2.75786">
        <ele>99.1</ele>
        <time>2021-08-21T12:16:52Z</time>
      </trkpt>
      <trkpt lat="48.35474" lon="2.75786">
        <ele>99</ele>
        <time>2021-08-21T12:16:53Z</time>
      </trkpt>
      <trkpt lat="48.35475" lon="2.75786">
        <ele>98.8</ele>
        <time>2021-08-21T12:16:54Z</time>
      </trkpt>
      <trkpt lat="48.35476" lon="2.75786">
        <ele>98.7</ele>
        <time>2021-08-21T12:16:55Z</time>
      </trkpt>
      <trkpt lat="48.35478" lon="2.75787">
        <ele>98.5</ele>
        <time>2021-08-21T12:16:56Z</time>
      </trkpt>
      <trkpt lat="48.35479" lon="2.75788">
        <ele>98.3</ele>
        <time>2021-08-21T12:16:58Z</time>
      </trkpt>
      <trkpt lat="48.3548" lon="2.75788">
        <ele>98.2</ele>
        <time>2021-08-21T12:16:59Z</time>
      </trkpt>
      <trkpt lat="48.3548" lon="2.75789">
        <ele>98.1</ele>
        <time>2021-08-21T12:17:00Z</time>
      </trkpt>
      <trkpt lat="48.35481" lon="2.7579">
        <ele>98</ele>
        <time>2021-08-21T12:17:01Z</time>
      </trkpt>
      <trkpt lat="48.35482" lon="2.75791">
        <ele>97.9</ele>
        <time>2021-08-21T12:17:02Z</time>
      </trkpt>
      <trkpt lat="48.35484" lon="2.75792">
        <ele>97.6</ele>
        <time>2021-08-21T12:17:03Z</time>
      </trkpt>
      <trkpt lat="48.35485" lon="2.75792">
        <ele>97.6</ele>
        <time>2021-08-21T12:17:04Z</time>
      </trkpt>
      <trkpt lat="48.35485" lon="2.75792">
        <ele>97.5</ele>
        <time>2021-08-21T12:17:05Z</time>
      </trkpt>
      <trkpt lat="48.35488" lon="2.75793">
        <ele>97.1</ele>
        <time>2021-08-21T12:17:07Z</time>
      </trkpt>
      <trkpt lat="48.35489" lon="2.75793">
        <ele>97.1</ele>
        <time>2021-08-21T12:17:08Z</time>
      </trkpt>
      <trkpt lat="48.3549" lon="2.75794">
        <ele>97</ele>
        <time>2021-08-21T12:17:10Z</time>
      </trkpt>
      <trkpt lat="48.35491" lon="2.75795">
        <ele>96.9</ele>
        <time>2021-08-21T12:17:11Z</time>
      </trkpt>
      <trkpt lat="48.35492" lon="2.75795">
        <ele>96.8</ele>
        <time>2021-08-21T12:17:12Z</time>
      </trkpt>
      <trkpt lat="48.35495" lon="2.75796">
        <ele>96.5</ele>
        <time>2021-08-21T12:17:13Z</time>
      </trkpt>
      <trkpt lat="48.35496" lon="2.75796">
        <ele>96.4</ele>
        <time>2021-08-21T12:17:14Z</time>
      </trkpt>
      <trkpt lat="48.35497" lon="2.75796">
        <ele>96.2</ele>
        <time>2021-08-21T12:17:15Z</time>
      </trkpt>
      <trkpt lat="48.35499" lon="2.75796">
        <ele>96.1</ele>
        <time>2021-08-21T12:17:16Z</time>
      </trkpt>
      <trkpt lat="48.355" lon="2.75797">
        <ele>95.9</ele>
        <time>2021-08-21T12:17:18Z</time>
      </trkpt>
      <trkpt lat="48.35501" lon="2.75797">
        <ele>95.9</ele>
        <time>2021-08-21T12:17:19Z</time>
      </trkpt>
      <trkpt lat="48.35502" lon="2.75798">
        <ele>95.8</ele>
        <time>2021-08-21T12:17:20Z</time>
      </trkpt>
      <trkpt lat="48.35503" lon="2.75799">
        <ele>95.6</ele>
        <time>2021-08-21T12:17:21Z</time>
      </trkpt>
      <trkpt lat="48.35505" lon="2.75799">
        <ele>95.5</ele>
        <time>2021-08-21T12:17:22Z</time>
      </trkpt>
      <trkpt lat="48.35508" lon="2.758">
        <ele>95.2</ele>
        <time>2021-08-21T12:17:23Z</time>
      </trkpt>
      <trkpt lat="48.35509" lon="2.758">
        <ele>95.1</ele>
        <time>2021-08-21T12:17:24Z</time>
      </trkpt>
      <trkpt lat="48.35511" lon="2.75801">
        <ele>95</ele>
        <time>2021-08-21T12:17:25Z</time>
      </trkpt>
      <trkpt lat="48.35512" lon="2.75801">
        <ele>94.9</ele>
        <time>2021-08-21T12:17:26Z</time>
      </trkpt>
      <trkpt lat="48.35513" lon="2.75802">
        <ele>94.7</ele>
        <time>2021-08-21T12:17:27Z</time>
      </trkpt>
      <trkpt lat="48.35515" lon="2.75803">
        <ele>94.6</ele>
        <time>2021-08-21T12:17:28Z</time>
      </trkpt>
      <trkpt lat="48.35516" lon="2.75802">
        <ele>94.5</ele>
        <time>2021-08-21T12:17:29Z</time>
      </trkpt>
      <trkpt lat="48.35517" lon="2.75802">
        <ele>94.4</ele>
        <time>2021-08-21T12:17:30Z</time>
      </trkpt>
      <trkpt lat="48.35518" lon="2.75803">
        <ele>94.3</ele>
        <time>2021-08-21T12:17:31Z</time>
      </trkpt>
      <trkpt lat="48.35519" lon="2.75803">
        <ele>94.3</ele>
        <time>2021-08-21T12:17:32Z</time>
      </trkpt>
      <trkpt lat="48.35519" lon="2.75803">
        <ele>94.3</ele>
        <time>2021-08-21T12:17:33Z</time>
      </trkpt>
      <trkpt lat="48.35519" lon="2.75803">
        <ele>94.2</ele>
        <time>2021-08-21T12:17:34Z</time>
      </trkpt>
      <trkpt lat="48.35519" lon="2.75804">
        <ele>94.2</ele>
        <time>2021-08-21T12:17:35Z</time>
      </trkpt>
      <trkpt lat="48.35519" lon="2.75805">
        <ele>94.2</ele>
        <time>2021-08-21T12:17:37Z</time>
      </trkpt>
      <trkpt lat="48.3552" lon="2.75806">
        <ele>94.1</ele>
        <time>2021-08-21T12:17:38Z</time>
      </trkpt>
      <trkpt lat="48.35519" lon="2.75806">
        <ele>94.1</ele>
        <time>2021-08-21T12:17:39Z</time>
      </trkpt>
      <trkpt lat="48.35519" lon="2.75807">
        <ele>94</ele>
        <time>2021-08-21T12:17:40Z</time>
      </trkpt>
      <trkpt lat="48.35519" lon="2.75807">
        <ele>94</ele>
        <time>2021-08-21T12:17:41Z</time>
      </trkpt>
      <trkpt lat="48.35519" lon="2.75808">
        <ele>93.9</ele>
        <time>2021-08-21T12:17:42Z</time>
      </trkpt>
      <trkpt lat="48.35518" lon="2.75808">
        <ele>93.9</ele>
        <time>2021-08-21T12:17:43Z</time>
      </trkpt>
      <trkpt lat="48.35518" lon="2.75808">
        <ele>93.8</ele>
        <time>2021-08-21T12:17:45Z</time>
      </trkpt>
      <trkpt lat="48.35518" lon="2.75808">
        <ele>93.8</ele>
        <time>2021-08-21T12:17:47Z</time>
      </trkpt>
      <trkpt lat="48.35517" lon="2.75809">
        <ele>93.7</ele>
        <time>2021-08-21T12:17:48Z</time>
      </trkpt>
      <trkpt lat="48.35517" lon="2.75809">
        <ele>93.7</ele>
        <time>2021-08-21T12:17:49Z</time>
      </trkpt>
      <trkpt lat="48.35518" lon="2.75809">
        <ele>93.7</ele>
        <time>2021-08-21T12:17:50Z</time>
      </trkpt>
      <trkpt lat="48.35518" lon="2.75809">
        <ele>93.6</ele>
        <time>2021-08-21T12:17:51Z</time>
      </trkpt>
      <trkpt lat="48.35519" lon="2.75809">
        <ele>93.6</ele>
        <time>2021-08-21T12:17:52Z</time>
      </trkpt>
      <trkpt lat="48.35519" lon="2.75809">
        <ele>93.6</ele>
        <time>2021-08-21T12:17:53Z</time>
      </trkpt>
      <trkpt lat="48.3552" lon="2.75809">
        <ele>93.5</ele>
        <time>2021-08-21T12:17:54Z</time>
      </trkpt>
      <trkpt lat="48.3552" lon="2.75809">
        <ele>93.5</ele>
        <time>2021-08-21T12:17:55Z</time>
      </trkpt>
      <trkpt lat="48.3552" lon="2.75809">
        <ele>93.4</ele>
        <time>2021-08-21T12:17:57Z</time>
      </trkpt>
      <trkpt lat="48.35521" lon="2.75809">
        <ele>93.4</ele>
        <time>2021-08-21T12:17:58Z</time>
      </trkpt>
      <trkpt lat="48.35522" lon="2.75809">
        <ele>93.3</ele>
        <time>2021-08-21T12:17:59Z</time>
      </trkpt>
      <trkpt lat="48.35523" lon="2.7581">
        <ele>93.2</ele>
        <time>2021-08-21T12:18:00Z</time>
      </trkpt>
      <trkpt lat="48.35524" lon="2.75811">
        <ele>93.1</ele>
        <time>2021-08-21T12:18:01Z</time>
      </trkpt>
      <trkpt lat="48.35526" lon="2.75812">
        <ele>93</ele>
        <time>2021-08-21T12:18:02Z</time>
      </trkpt>
      <trkpt lat="48.35527" lon="2.75813">
        <ele>92.9</ele>
        <time>2021-08-21T12:18:03Z</time>
      </trkpt>
      <trkpt lat="48.35528" lon="2.75815">
        <ele>92.8</ele>
        <time>2021-08-21T12:18:04Z</time>
      </trkpt>
      <trkpt lat="48.35529" lon="2.75816">
        <ele>92.7</ele>
        <time>2021-08-21T12:18:05Z</time>
      </trkpt>
      <trkpt lat="48.35532" lon="2.75817">
        <ele>92.5</ele>
        <time>2021-08-21T12:18:06Z</time>
      </trkpt>
      <trkpt lat="48.35534" lon="2.75818">
        <ele>92.4</ele>
        <time>2021-08-21T12:18:07Z</time>
      </trkpt>
      <trkpt lat="48.35535" lon="2.75818">
        <ele>92.3</ele>
        <time>2021-08-21T12:18:09Z</time>
      </trkpt>
      <trkpt lat="48.35537" lon="2.75819">
        <ele>92.1</ele>
        <time>2021-08-21T12:18:10Z</time>
      </trkpt>
      <trkpt lat="48.35539" lon="2.75819">
        <ele>92</ele>
        <time>2021-08-21T12:18:11Z</time>
      </trkpt>
      <trkpt lat="48.35541" lon="2.75819">
        <ele>91.9</ele>
        <time>2021-08-21T12:18:13Z</time>
      </trkpt>
      <trkpt lat="48.35543" lon="2.7582">
        <ele>91.7</ele>
        <time>2021-08-21T12:18:14Z</time>
      </trkpt>
      <trkpt lat="48.35544" lon="2.7582">
        <ele>91.7</ele>
        <time>2021-08-21T12:18:15Z</time>
      </trkpt>
      <trkpt lat="48.35545" lon="2.75821">
        <ele>91.6</ele>
        <time>2021-08-21T12:18:16Z</time>
      </trkpt>
      <trkpt lat="48.35547" lon="2.75821">
        <ele>91.5</ele>
        <time>2021-08-21T12:18:17Z</time>
      </trkpt>
      <trkpt lat="48.35549" lon="2.75822">
        <ele>91.4</ele>
        <time>2021-08-21T12:18:18Z</time>
      </trkpt>
      <trkpt lat="48.35551" lon="2.75823">
        <ele>91.3</ele>
        <time>2021-08-21T12:18:19Z</time>
      </trkpt>
      <trkpt lat="48.35553" lon="2.75825">
        <ele>91.2</ele>
        <time>2021-08-21T12:18:20Z</time>
      </trkpt>
      <trkpt lat="48.35554" lon="2.75826">
        <ele>91.1</ele>
        <time>2021-08-21T12:18:21Z</time>
      </trkpt>
      <trkpt lat="48.35557" lon="2.75828">
        <ele>90.9</ele>
        <time>2021-08-21T12:18:23Z</time>
      </trkpt>
      <trkpt lat="48.35559" lon="2.7583">
        <ele>90.9</ele>
        <time>2021-08-21T12:18:24Z</time>
      </trkpt>
      <trkpt lat="48.35561" lon="2.75832">
        <ele>90.7</ele>
        <time>2021-08-21T12:18:26Z</time>
      </trkpt>
      <trkpt lat="48.35564" lon="2.75834">
        <ele>90.6</ele>
        <time>2021-08-21T12:18:27Z</time>
      </trkpt>
      <trkpt lat="48.35566" lon="2.75835">
        <ele>90.5</ele>
        <time>2021-08-21T12:18:28Z</time>
      </trkpt>
      <trkpt lat="48.35568" lon="2.75837">
        <ele>90.4</ele>
        <time>2021-08-21T12:18:29Z</time>
      </trkpt>
      <trkpt lat="48.35569" lon="2.75838">
        <ele>90.4</ele>
        <time>2021-08-21T12:18:30Z</time>
      </trkpt>
      <trkpt lat="48.35572" lon="2.7584">
        <ele>90.2</ele>
        <time>2021-08-21T12:18:32Z</time>
      </trkpt>
      <trkpt lat="48.35574" lon="2.75841">
        <ele>90.2</ele>
        <time>2021-08-21T12:18:33Z</time>
      </trkpt>
      <trkpt lat="48.35575" lon="2.75842">
        <ele>90.1</ele>
        <time>2021-08-21T12:18:34Z</time>
      </trkpt>
      <trkpt lat="48.35576" lon="2.75843">
        <ele>90.1</ele>
        <time>2021-08-21T12:18:35Z</time>
      </trkpt>
      <trkpt lat="48.35579" lon="2.75846">
        <ele>89.9</ele>
        <time>2021-08-21T12:18:36Z</time>
      </trkpt>
      <trkpt lat="48.35581" lon="2.75847">
        <ele>89.9</ele>
        <time>2021-08-21T12:18:37Z</time>
      </trkpt>
      <trkpt lat="48.35583" lon="2.75849">
        <ele>89.8</ele>
        <time>2021-08-21T12:18:39Z</time>
      </trkpt>
      <trkpt lat="48.35585" lon="2.75851">
        <ele>89.6</ele>
        <time>2021-08-21T12:18:40Z</time>
      </trkpt>
      <trkpt lat="48.35587" lon="2.75852">
        <ele>89.6</ele>
        <time>2021-08-21T12:18:41Z</time>
      </trkpt>
      <trkpt lat="48.3559" lon="2.75854">
        <ele>89.5</ele>
        <time>2021-08-21T12:18:42Z</time>
      </trkpt>
      <trkpt lat="48.35591" lon="2.75854">
        <ele>89.4</ele>
        <time>2021-08-21T12:18:43Z</time>
      </trkpt>
      <trkpt lat="48.35594" lon="2.75856">
        <ele>89.3</ele>
        <time>2021-08-21T12:18:45Z</time>
      </trkpt>
      <trkpt lat="48.35596" lon="2.75857">
        <ele>89.2</ele>
        <time>2021-08-21T12:18:46Z</time>
      </trkpt>
      <trkpt lat="48.35597" lon="2.75857">
        <ele>89.2</ele>
        <time>2021-08-21T12:18:47Z</time>
      </trkpt>
      <trkpt lat="48.356" lon="2.75857">
        <ele>89</ele>
        <time>2021-08-21T12:18:48Z</time>
      </trkpt>
      <trkpt lat="48.35601" lon="2.75857">
        <ele>89</ele>
        <time>2021-08-21T12:18:49Z</time>
      </trkpt>
      <trkpt lat="48.35603" lon="2.75858">
        <ele>89</ele>
        <time>2021-08-21T12:18:50Z</time>
      </trkpt>
      <trkpt lat="48.35604" lon="2.75858">
        <ele>88.9</ele>
        <time>2021-08-21T12:18:51Z</time>
      </trkpt>
      <trkpt lat="48.35607" lon="2.7586">
        <ele>88.8</ele>
        <time>2021-08-21T12:18:52Z</time>
      </trkpt>
      <trkpt lat="48.35608" lon="2.7586">
        <ele>88.8</ele>
        <time>2021-08-21T12:18:53Z</time>
      </trkpt>
      <trkpt lat="48.3561" lon="2.75861">
        <ele>88.7</ele>
        <time>2021-08-21T12:18:54Z</time>
      </trkpt>
      <trkpt lat="48.35611" lon="2.75861">
        <ele>88.6</ele>
        <time>2021-08-21T12:18:55Z</time>
      </trkpt>
      <trkpt lat="48.35612" lon="2.75861">
        <ele>88.6</ele>
        <time>2021-08-21T12:18:56Z</time>
      </trkpt>
      <trkpt lat="48.35612" lon="2.75861">
        <ele>88.6</ele>
        <time>2021-08-21T12:18:57Z</time>
      </trkpt>
      <trkpt lat="48.35613" lon="2.75862">
        <ele>88.5</ele>
        <time>2021-08-21T12:18:58Z</time>
      </trkpt>
      <trkpt lat="48.35614" lon="2.75863">
        <ele>88.5</ele>
        <time>2021-08-21T12:18:59Z</time>
      </trkpt>
      <trkpt lat="48.35615" lon="2.75863">
        <ele>88.5</ele>
        <time>2021-08-21T12:19:00Z</time>
      </trkpt>
      <trkpt lat="48.35616" lon="2.75864">
        <ele>88.4</ele>
        <time>2021-08-21T12:19:01Z</time>
      </trkpt>
      <trkpt lat="48.35617" lon="2.75867">
        <ele>88.3</ele>
        <time>2021-08-21T12:19:03Z</time>
      </trkpt>
      <trkpt lat="48.35618" lon="2.75868">
        <ele>88.3</ele>
        <time>2021-08-21T12:19:04Z</time>
      </trkpt>
      <trkpt lat="48.35619" lon="2.75869">
        <ele>88.3</ele>
        <time>2021-08-21T12:19:05Z</time>
      </trkpt>
      <trkpt lat="48.35619" lon="2.7587">
        <ele>88.2</ele>
        <time>2021-08-21T12:19:06Z</time>
      </trkpt>
      <trkpt lat="48.3562" lon="2.75871">
        <ele>88.2</ele>
        <time>2021-08-21T12:19:07Z</time>
      </trkpt>
      <trkpt lat="48.3562" lon="2.75872">
        <ele>88.2</ele>
        <time>2021-08-21T12:19:08Z</time>
      </trkpt>
      <trkpt lat="48.35621" lon="2.75873">
        <ele>88.1</ele>
        <time>2021-08-21T12:19:09Z</time>
      </trkpt>
      <trkpt lat="48.35622" lon="2.75875">
        <ele>88</ele>
        <time>2021-08-21T12:19:11Z</time>
      </trkpt>
      <trkpt lat="48.35622" lon="2.75877">
        <ele>88</ele>
        <time>2021-08-21T12:19:12Z</time>
      </trkpt>
      <trkpt lat="48.35623" lon="2.7588">
        <ele>87.9</ele>
        <time>2021-08-21T12:19:14Z</time>
      </trkpt>
      <trkpt lat="48.35623" lon="2.75881">
        <ele>87.9</ele>
        <time>2021-08-21T12:19:15Z</time>
      </trkpt>
      <trkpt lat="48.35624" lon="2.75885">
        <ele>87.8</ele>
        <time>2021-08-21T12:19:17Z</time>
      </trkpt>
      <trkpt lat="48.35624" lon="2.75887">
        <ele>87.8</ele>
        <time>2021-08-21T12:19:18Z</time>
      </trkpt>
      <trkpt lat="48.35624" lon="2.75888">
        <ele>87.8</ele>
        <time>2021-08-21T12:19:19Z</time>
      </trkpt>
      <trkpt lat="48.35624" lon="2.7589">
        <ele>87.8</ele>
        <time>2021-08-21T12:19:21Z</time>
      </trkpt>
      <trkpt lat="48.35624" lon="2.75891">
        <ele>87.8</ele>
        <time>2021-08-21T12:19:22Z</time>
      </trkpt>
      <trkpt lat="48.35624" lon="2.75893">
        <ele>87.8</ele>
        <time>2021-08-21T12:19:23Z</time>
      </trkpt>
      <trkpt lat="48.35624" lon="2.75895">
        <ele>87.7</ele>
        <time>2021-08-21T12:19:24Z</time>
      </trkpt>
      <trkpt lat="48.35624" lon="2.75898">
        <ele>87.7</ele>
        <time>2021-08-21T12:19:25Z</time>
      </trkpt>
      <trkpt lat="48.35624" lon="2.759">
        <ele>87.7</ele>
        <time>2021-08-21T12:19:26Z</time>
      </trkpt>
      <trkpt lat="48.35624" lon="2.75902">
        <ele>87.7</ele>
        <time>2021-08-21T12:19:27Z</time>
      </trkpt>
      <trkpt lat="48.35624" lon="2.75903">
        <ele>87.7</ele>
        <time>2021-08-21T12:19:28Z</time>
      </trkpt>
      <trkpt lat="48.35624" lon="2.75907">
        <ele>87.6</ele>
        <time>2021-08-21T12:19:30Z</time>
      </trkpt>
      <trkpt lat="48.35624" lon="2.75908">
        <ele>87.6</ele>
        <time>2021-08-21T12:19:31Z</time>
      </trkpt>
      <trkpt lat="48.35623" lon="2.7591">
        <ele>87.6</ele>
        <time>2021-08-21T12:19:32Z</time>
      </trkpt>
      <trkpt lat="48.35623" lon="2.75912">
        <ele>87.6</ele>
        <time>2021-08-21T12:19:33Z</time>
      </trkpt>
      <trkpt lat="48.35622" lon="2.75915">
        <ele>87.5</ele>
        <time>2021-08-21T12:19:35Z</time>
      </trkpt>
      <trkpt lat="48.35621" lon="2.75917">
        <ele>87.5</ele>
        <time>2021-08-21T12:19:36Z</time>
      </trkpt>
      <trkpt lat="48.35619" lon="2.7592">
        <ele>87.5</ele>
        <time>2021-08-21T12:19:37Z</time>
      </trkpt>
      <trkpt lat="48.35619" lon="2.75921">
        <ele>87.5</ele>
        <time>2021-08-21T12:19:38Z</time>
      </trkpt>
      <trkpt lat="48.35617" lon="2.75923">
        <ele>87.4</ele>
        <time>2021-08-21T12:19:39Z</time>
      </trkpt>
      <trkpt lat="48.35616" lon="2.75925">
        <ele>87.4</ele>
        <time>2021-08-21T12:19:40Z</time>
      </trkpt>
      <trkpt lat="48.35615" lon="2.75926">
        <ele>87.4</ele>
        <time>2021-08-21T12:19:41Z</time>
      </trkpt>
      <trkpt lat="48.35614" lon="2.75928">
        <ele>87.4</ele>
        <time>2021-08-21T12:19:42Z</time>
      </trkpt>
      <trkpt lat="48.35612" lon="2.75932">
        <ele>87.3</ele>
        <time>2021-08-21T12:19:44Z</time>
      </trkpt>
      <trkpt lat="48.35612" lon="2.75933">
        <ele>87.3</ele>
        <time>2021-08-21T12:19:45Z</time>
      </trkpt>
      <trkpt lat="48.35611" lon="2.75935">
        <ele>87.3</ele>
        <time>2021-08-21T12:19:47Z</time>
      </trkpt>
      <trkpt lat="48.3561" lon="2.75937">
        <ele>87.3</ele>
        <time>2021-08-21T12:19:48Z</time>
      </trkpt>
      <trkpt lat="48.35609" lon="2.7594">
        <ele>87.2</ele>
        <time>2021-08-21T12:19:49Z</time>
      </trkpt>
      <trkpt lat="48.35608" lon="2.75941">
        <ele>87.2</ele>
        <time>2021-08-21T12:19:50Z</time>
      </trkpt>
      <trkpt lat="48.35608" lon="2.75944">
        <ele>87.2</ele>
        <time>2021-08-21T12:19:51Z</time>
      </trkpt>
      <trkpt lat="48.35607" lon="2.75945">
        <ele>87.2</ele>
        <time>2021-08-21T12:19:52Z</time>
      </trkpt>
      <trkpt lat="48.35607" lon="2.75946">
        <ele>87.2</ele>
        <time>2021-08-21T12:19:53Z</time>
      </trkpt>
      <trkpt lat="48.35606" lon="2.75949">
        <ele>87.1</ele>
        <time>2021-08-21T12:19:54Z</time>
      </trkpt>
      <trkpt lat="48.35606" lon="2.7595">
        <ele>87.1</ele>
        <time>2021-08-21T12:19:55Z</time>
      </trkpt>
      <trkpt lat="48.35606" lon="2.75951">
        <ele>87.1</ele>
        <time>2021-08-21T12:19:56Z</time>
      </trkpt>
      <trkpt lat="48.35606" lon="2.75954">
        <ele>87.1</ele>
        <time>2021-08-21T12:19:57Z</time>
      </trkpt>
      <trkpt lat="48.35606" lon="2.75955">
        <ele>87.1</ele>
        <time>2021-08-21T12:19:58Z</time>
      </trkpt>
      <trkpt lat="48.35606" lon="2.75957">
        <ele>87.1</ele>
        <time>2021-08-21T12:19:59Z</time>
      </trkpt>
      <trkpt lat="48.35606" lon="2.7596">
        <ele>87</ele>
        <time>2021-08-21T12:20:00Z</time>
      </trkpt>
      <trkpt lat="48.35607" lon="2.75962">
        <ele>87</ele>
        <time>2021-08-21T12:20:01Z</time>
      </trkpt>
      <trkpt lat="48.35607" lon="2.75964">
        <ele>87</ele>
        <time>2021-08-21T12:20:03Z</time>
      </trkpt>
      <trkpt lat="48.35607" lon="2.75966">
        <ele>87</ele>
        <time>2021-08-21T12:20:05Z</time>
      </trkpt>
      <trkpt lat="48.35608" lon="2.75968">
        <ele>87</ele>
        <time>2021-08-21T12:20:06Z</time>
      </trkpt>
      <trkpt lat="48.35608" lon="2.7597">
        <ele>87</ele>
        <time>2021-08-21T12:20:07Z</time>
      </trkpt>
      <trkpt lat="48.35608" lon="2.75972">
        <ele>87</ele>
        <time>2021-08-21T12:20:08Z</time>
      </trkpt>
      <trkpt lat="48.35609" lon="2.75975">
        <ele>86.9</ele>
        <time>2021-08-21T12:20:09Z</time>
      </trkpt>
      <trkpt lat="48.3561" lon="2.75977">
        <ele>86.9</ele>
        <time>2021-08-21T12:20:10Z</time>
      </trkpt>
      <trkpt lat="48.3561" lon="2.75981">
        <ele>86.9</ele>
        <time>2021-08-21T12:20:11Z</time>
      </trkpt>
      <trkpt lat="48.35611" lon="2.75982">
        <ele>86.9</ele>
        <time>2021-08-21T12:20:13Z</time>
      </trkpt>
      <trkpt lat="48.35611" lon="2.75984">
        <ele>86.9</ele>
        <time>2021-08-21T12:20:14Z</time>
      </trkpt>
      <trkpt lat="48.35611" lon="2.75985">
        <ele>86.9</ele>
        <time>2021-08-21T12:20:15Z</time>
      </trkpt>
      <trkpt lat="48.35611" lon="2.75987">
        <ele>86.9</ele>
        <time>2021-08-21T12:20:16Z</time>
      </trkpt>
      <trkpt lat="48.35612" lon="2.75989">
        <ele>86.9</ele>
        <time>2021-08-21T12:20:17Z</time>
      </trkpt>
      <trkpt lat="48.35612" lon="2.75991">
        <ele>86.8</ele>
        <time>2021-08-21T12:20:18Z</time>
      </trkpt>
      <trkpt lat="48.35611" lon="2.75993">
        <ele>86.8</ele>
        <time>2021-08-21T12:20:19Z</time>
      </trkpt>
      <trkpt lat="48.35611" lon="2.75995">
        <ele>86.8</ele>
        <time>2021-08-21T12:20:20Z</time>
      </trkpt>
      <trkpt lat="48.35611" lon="2.75998">
        <ele>86.8</ele>
        <time>2021-08-21T12:20:21Z</time>
      </trkpt>
      <trkpt lat="48.35611" lon="2.75999">
        <ele>86.8</ele>
        <time>2021-08-21T12:20:22Z</time>
      </trkpt>
      <trkpt lat="48.35611" lon="2.76001">
        <ele>86.8</ele>
        <time>2021-08-21T12:20:23Z</time>
      </trkpt>
      <trkpt lat="48.35611" lon="2.76003">
        <ele>86.8</ele>
        <time>2021-08-21T12:20:24Z</time>
      </trkpt>
      <trkpt lat="48.35611" lon="2.76006">
        <ele>86.7</ele>
        <time>2021-08-21T12:20:25Z</time>
      </trkpt>
      <trkpt lat="48.35611" lon="2.76007">
        <ele>86.7</ele>
        <time>2021-08-21T12:20:26Z</time>
      </trkpt>
      <trkpt lat="48.35611" lon="2.76009">
        <ele>86.7</ele>
        <time>2021-08-21T12:20:27Z</time>
      </trkpt>
      <trkpt lat="48.35611" lon="2.76011">
        <ele>86.7</ele>
        <time>2021-08-21T12:20:28Z</time>
      </trkpt>
      <trkpt lat="48.35612" lon="2.76013">
        <ele>86.7</ele>
        <time>2021-08-21T12:20:29Z</time>
      </trkpt>
      <trkpt lat="48.35612" lon="2.76016">
        <ele>86.7</ele>
        <time>2021-08-21T12:20:30Z</time>
      </trkpt>
      <trkpt lat="48.35612" lon="2.76017">
        <ele>86.7</ele>
        <time>2021-08-21T12:20:31Z</time>
      </trkpt>
      <trkpt lat="48.35611" lon="2.76019">
        <ele>86.7</ele>
        <time>2021-08-21T12:20:32Z</time>
      </trkpt>
      <trkpt lat="48.35611" lon="2.76021">
        <ele>86.7</ele>
        <time>2021-08-21T12:20:33Z</time>
      </trkpt>
      <trkpt lat="48.35611" lon="2.76025">
        <ele>86.6</ele>
        <time>2021-08-21T12:20:34Z</time>
      </trkpt>
      <trkpt lat="48.3561" lon="2.76028">
        <ele>86.6</ele>
        <time>2021-08-21T12:20:35Z</time>
      </trkpt>
      <trkpt lat="48.3561" lon="2.76032">
        <ele>86.6</ele>
        <time>2021-08-21T12:20:36Z</time>
      </trkpt>
      <trkpt lat="48.3561" lon="2.76034">
        <ele>86.6</ele>
        <time>2021-08-21T12:20:38Z</time>
      </trkpt>
      <trkpt lat="48.35609" lon="2.76036">
        <ele>86.6</ele>
        <time>2021-08-21T12:20:39Z</time>
      </trkpt>
      <trkpt lat="48.35609" lon="2.76038">
        <ele>86.6</ele>
        <time>2021-08-21T12:20:40Z</time>
      </trkpt>
      <trkpt lat="48.35608" lon="2.76041">
        <ele>86.5</ele>
        <time>2021-08-21T12:20:42Z</time>
      </trkpt>
      <trkpt lat="48.35608" lon="2.76043">
        <ele>86.5</ele>
        <time>2021-08-21T12:20:43Z</time>
      </trkpt>
      <trkpt lat="48.35608" lon="2.76044">
        <ele>86.5</ele>
        <time>2021-08-21T12:20:44Z</time>
      </trkpt>
      <trkpt lat="48.35607" lon="2.76047">
        <ele>86.5</ele>
        <time>2021-08-21T12:20:45Z</time>
      </trkpt>
      <trkpt lat="48.35607" lon="2.76049">
        <ele>86.5</ele>
        <time>2021-08-21T12:20:46Z</time>
      </trkpt>
      <trkpt lat="48.35607" lon="2.76052">
        <ele>86.4</ele>
        <time>2021-08-21T12:20:47Z</time>
      </trkpt>
      <trkpt lat="48.35607" lon="2.76054">
        <ele>86.4</ele>
        <time>2021-08-21T12:20:48Z</time>
      </trkpt>
      <trkpt lat="48.35606" lon="2.76057">
        <ele>86.4</ele>
        <time>2021-08-21T12:20:49Z</time>
      </trkpt>
      <trkpt lat="48.35606" lon="2.76058">
        <ele>86.4</ele>
        <time>2021-08-21T12:20:50Z</time>
      </trkpt>
      <trkpt lat="48.35606" lon="2.7606">
        <ele>86.4</ele>
        <time>2021-08-21T12:20:52Z</time>
      </trkpt>
      <trkpt lat="48.35605" lon="2.76063">
        <ele>86.4</ele>
        <time>2021-08-21T12:20:53Z</time>
      </trkpt>
      <trkpt lat="48.35605" lon="2.76066">
        <ele>86.3</ele>
        <time>2021-08-21T12:20:54Z</time>
      </trkpt>
      <trkpt lat="48.35605" lon="2.76067">
        <ele>86.3</ele>
        <time>2021-08-21T12:20:56Z</time>
      </trkpt>
      <trkpt lat="48.35604" lon="2.7607">
        <ele>86.3</ele>
        <time>2021-08-21T12:20:57Z</time>
      </trkpt>
      <trkpt lat="48.35604" lon="2.76072">
        <ele>86.3</ele>
        <time>2021-08-21T12:20:58Z</time>
      </trkpt>
      <trkpt lat="48.35603" lon="2.76075">
        <ele>86.3</ele>
        <time>2021-08-21T12:20:59Z</time>
      </trkpt>
      <trkpt lat="48.35603" lon="2.76076">
        <ele>86.3</ele>
        <time>2021-08-21T12:21:01Z</time>
      </trkpt>
      <trkpt lat="48.35602" lon="2.76078">
        <ele>86.2</ele>
        <time>2021-08-21T12:21:02Z</time>
      </trkpt>
      <trkpt lat="48.35602" lon="2.76079">
        <ele>86.2</ele>
        <time>2021-08-21T12:21:03Z</time>
      </trkpt>
      <trkpt lat="48.35601" lon="2.76081">
        <ele>86.2</ele>
        <time>2021-08-21T12:21:04Z</time>
      </trkpt>
      <trkpt lat="48.35601" lon="2.76084">
        <ele>86.2</ele>
        <time>2021-08-21T12:21:05Z</time>
      </trkpt>
      <trkpt lat="48.356" lon="2.76085">
        <ele>86.2</ele>
        <time>2021-08-21T12:21:06Z</time>
      </trkpt>
      <trkpt lat="48.356" lon="2.76088">
        <ele>86.2</ele>
        <time>2021-08-21T12:21:07Z</time>
      </trkpt>
      <trkpt lat="48.356" lon="2.76089">
        <ele>86.2</ele>
        <time>2021-08-21T12:21:08Z</time>
      </trkpt>
      <trkpt lat="48.35599" lon="2.76091">
        <ele>86.1</ele>
        <time>2021-08-21T12:21:09Z</time>
      </trkpt>
      <trkpt lat="48.35599" lon="2.76093">
        <ele>86.1</ele>
        <time>2021-08-21T12:21:10Z</time>
      </trkpt>
      <trkpt lat="48.35598" lon="2.76094">
        <ele>86.1</ele>
        <time>2021-08-21T12:21:11Z</time>
      </trkpt>
      <trkpt lat="48.35598" lon="2.76096">
        <ele>86.1</ele>
        <time>2021-08-21T12:21:12Z</time>
      </trkpt>
      <trkpt lat="48.35598" lon="2.76099">
        <ele>86.1</ele>
        <time>2021-08-21T12:21:13Z</time>
      </trkpt>
      <trkpt lat="48.35597" lon="2.76102">
        <ele>86.1</ele>
        <time>2021-08-21T12:21:15Z</time>
      </trkpt>
      <trkpt lat="48.35596" lon="2.76104">
        <ele>86.1</ele>
        <time>2021-08-21T12:21:17Z</time>
      </trkpt>
      <trkpt lat="48.35595" lon="2.76107">
        <ele>86</ele>
        <time>2021-08-21T12:21:18Z</time>
      </trkpt>
      <trkpt lat="48.35595" lon="2.76108">
        <ele>86</ele>
        <time>2021-08-21T12:21:19Z</time>
      </trkpt>
      <trkpt lat="48.35595" lon="2.7611">
        <ele>86</ele>
        <time>2021-08-21T12:21:20Z</time>
      </trkpt>
      <trkpt lat="48.35594" lon="2.76111">
        <ele>86</ele>
        <time>2021-08-21T12:21:21Z</time>
      </trkpt>
      <trkpt lat="48.35594" lon="2.76112">
        <ele>86</ele>
        <time>2021-08-21T12:21:22Z</time>
      </trkpt>
      <trkpt lat="48.35593" lon="2.76114">
        <ele>86</ele>
        <time>2021-08-21T12:21:23Z</time>
      </trkpt>
      <trkpt lat="48.35592" lon="2.76116">
        <ele>86</ele>
        <time>2021-08-21T12:21:25Z</time>
      </trkpt>
      <trkpt lat="48.35591" lon="2.76117">
        <ele>86</ele>
        <time>2021-08-21T12:21:26Z</time>
      </trkpt>
      <trkpt lat="48.35592" lon="2.76118">
        <ele>86</ele>
        <time>2021-08-21T12:21:28Z</time>
      </trkpt>
      <trkpt lat="48.35593" lon="2.7612">
        <ele>85.9</ele>
        <time>2021-08-21T12:21:30Z</time>
      </trkpt>
      <trkpt lat="48.35593" lon="2.7612">
        <ele>85.9</ele>
        <time>2021-08-21T12:21:31Z</time>
      </trkpt>
      <trkpt lat="48.35593" lon="2.7612">
        <ele>85.9</ele>
        <time>2021-08-21T12:21:32Z</time>
      </trkpt>
      <trkpt lat="48.35593" lon="2.7612">
        <ele>85.9</ele>
        <time>2021-08-21T12:21:33Z</time>
      </trkpt>
      <trkpt lat="48.35594" lon="2.7612">
        <ele>85.9</ele>
        <time>2021-08-21T12:21:34Z</time>
      </trkpt>
      <trkpt lat="48.35594" lon="2.7612">
        <ele>85.9</ele>
        <time>2021-08-21T12:21:35Z</time>
      </trkpt>
      <trkpt lat="48.35593" lon="2.7612">
        <ele>85.9</ele>
        <time>2021-08-21T12:21:37Z</time>
      </trkpt>
      <trkpt lat="48.35593" lon="2.7612">
        <ele>85.9</ele>
        <time>2021-08-21T12:21:38Z</time>
      </trkpt>
      <trkpt lat="48.35593" lon="2.7612">
        <ele>85.9</ele>
        <time>2021-08-21T12:21:39Z</time>
      </trkpt>
      <trkpt lat="48.35593" lon="2.7612">
        <ele>85.9</ele>
        <time>2021-08-21T12:21:41Z</time>
      </trkpt>
      <trkpt lat="48.35593" lon="2.7612">
        <ele>85.9</ele>
        <time>2021-08-21T12:21:42Z</time>
      </trkpt>
      <trkpt lat="48.35594" lon="2.76121">
        <ele>85.9</ele>
        <time>2021-08-21T12:21:43Z</time>
      </trkpt>
      <trkpt lat="48.35594" lon="2.76121">
        <ele>85.9</ele>
        <time>2021-08-21T12:21:44Z</time>
      </trkpt>
      <trkpt lat="48.35594" lon="2.76121">
        <ele>85.9</ele>
        <time>2021-08-21T12:21:46Z</time>
      </trkpt>
      <trkpt lat="48.35594" lon="2.76121">
        <ele>85.9</ele>
        <time>2021-08-21T12:21:47Z</time>
      </trkpt>
      <trkpt lat="48.35594" lon="2.76121">
        <ele>85.9</ele>
        <time>2021-08-21T12:21:48Z</time>
      </trkpt>
      <trkpt lat="48.35594" lon="2.76122">
        <ele>85.9</ele>
        <time>2021-08-21T12:21:49Z</time>
      </trkpt>
      <trkpt lat="48.35595" lon="2.76123">
        <ele>85.9</ele>
        <time>2021-08-21T12:21:50Z</time>
      </trkpt>
      <trkpt lat="48.35595" lon="2.76123">
        <ele>85.9</ele>
        <time>2021-08-21T12:21:51Z</time>
      </trkpt>
      <trkpt lat="48.35596" lon="2.76124">
        <ele>85.9</ele>
        <time>2021-08-21T12:21:52Z</time>
      </trkpt>
      <trkpt lat="48.35596" lon="2.76124">
        <ele>85.9</ele>
        <time>2021-08-21T12:21:53Z</time>
      </trkpt>
      <trkpt lat="48.35597" lon="2.76124">
        <ele>85.9</ele>
        <time>2021-08-21T12:21:54Z</time>
      </trkpt>
      <trkpt lat="48.35597" lon="2.76124">
        <ele>85.9</ele>
        <time>2021-08-21T12:21:55Z</time>
      </trkpt>
      <trkpt lat="48.35597" lon="2.76124">
        <ele>85.9</ele>
        <time>2021-08-21T12:21:56Z</time>
      </trkpt>
      <trkpt lat="48.35597" lon="2.76123">
        <ele>85.9</ele>
        <time>2021-08-21T12:21:57Z</time>
      </trkpt>
      <trkpt lat="48.35597" lon="2.76123">
        <ele>85.9</ele>
        <time>2021-08-21T12:21:58Z</time>
      </trkpt>
      <trkpt lat="48.35597" lon="2.76124">
        <ele>85.9</ele>
        <time>2021-08-21T12:21:59Z</time>
      </trkpt>
      <trkpt lat="48.35597" lon="2.76124">
        <ele>85.9</ele>
        <time>2021-08-21T12:22:00Z</time>
      </trkpt>
      <trkpt lat="48.35597" lon="2.76124">
        <ele>85.9</ele>
        <time>2021-08-21T12:22:01Z</time>
      </trkpt>
      <trkpt lat="48.35597" lon="2.76122">
        <ele>85.8</ele>
        <time>2021-08-21T12:22:02Z</time>
      </trkpt>
      <trkpt lat="48.35597" lon="2.76121">
        <ele>85.8</ele>
        <time>2021-08-21T12:22:03Z</time>
      </trkpt>
      <trkpt lat="48.35597" lon="2.76121">
        <ele>85.8</ele>
        <time>2021-08-21T12:22:04Z</time>
      </trkpt>
      <trkpt lat="48.35597" lon="2.76119">
        <ele>85.8</ele>
        <time>2021-08-21T12:22:05Z</time>
      </trkpt>
      <trkpt lat="48.35597" lon="2.76118">
        <ele>85.8</ele>
        <time>2021-08-21T12:22:06Z</time>
      </trkpt>
      <trkpt lat="48.35597" lon="2.76118">
        <ele>85.8</ele>
        <time>2021-08-21T12:22:07Z</time>
      </trkpt>
      <trkpt lat="48.35597" lon="2.76117">
        <ele>85.8</ele>
        <time>2021-08-21T12:22:08Z</time>
      </trkpt>
      <trkpt lat="48.35596" lon="2.76117">
        <ele>85.8</ele>
        <time>2021-08-21T12:22:09Z</time>
      </trkpt>
      <trkpt lat="48.35596" lon="2.76117">
        <ele>85.8</ele>
        <time>2021-08-21T12:22:11Z</time>
      </trkpt>
      <trkpt lat="48.35596" lon="2.76117">
        <ele>85.8</ele>
        <time>2021-08-21T12:22:12Z</time>
      </trkpt>
      <trkpt lat="48.35595" lon="2.76116">
        <ele>85.8</ele>
        <time>2021-08-21T12:22:13Z</time>
      </trkpt>
      <trkpt lat="48.35594" lon="2.76115">
        <ele>85.8</ele>
        <time>2021-08-21T12:22:14Z</time>
      </trkpt>
      <trkpt lat="48.35594" lon="2.76115">
        <ele>85.8</ele>
        <time>2021-08-21T12:22:15Z</time>
      </trkpt>
      <trkpt lat="48.35593" lon="2.76114">
        <ele>85.8</ele>
        <time>2021-08-21T12:22:16Z</time>
      </trkpt>
      <trkpt lat="48.35593" lon="2.76114">
        <ele>85.8</ele>
        <time>2021-08-21T12:22:17Z</time>
      </trkpt>
      <trkpt lat="48.35592" lon="2.76114">
        <ele>85.8</ele>
        <time>2021-08-21T12:22:18Z</time>
      </trkpt>
      <trkpt lat="48.35591" lon="2.76115">
        <ele>85.7</ele>
        <time>2021-08-21T12:22:19Z</time>
      </trkpt>
      <trkpt lat="48.35591" lon="2.76116">
        <ele>85.7</ele>
        <time>2021-08-21T12:22:20Z</time>
      </trkpt>
      <trkpt lat="48.3559" lon="2.76117">
        <ele>85.7</ele>
        <time>2021-08-21T12:22:21Z</time>
      </trkpt>
      <trkpt lat="48.3559" lon="2.76118">
        <ele>85.7</ele>
        <time>2021-08-21T12:22:22Z</time>
      </trkpt>
      <trkpt lat="48.3559" lon="2.7612">
        <ele>85.7</ele>
        <time>2021-08-21T12:22:23Z</time>
      </trkpt>
      <trkpt lat="48.3559" lon="2.76123">
        <ele>85.7</ele>
        <time>2021-08-21T12:22:24Z</time>
      </trkpt>
      <trkpt lat="48.35589" lon="2.76124">
        <ele>85.7</ele>
        <time>2021-08-21T12:22:25Z</time>
      </trkpt>
      <trkpt lat="48.35589" lon="2.76126">
        <ele>85.7</ele>
        <time>2021-08-21T12:22:26Z</time>
      </trkpt>
      <trkpt lat="48.3559" lon="2.76126">
        <ele>85.7</ele>
        <time>2021-08-21T12:22:27Z</time>
      </trkpt>
      <trkpt lat="48.3559" lon="2.76128">
        <ele>85.6</ele>
        <time>2021-08-21T12:22:28Z</time>
      </trkpt>
      <trkpt lat="48.3559" lon="2.76129">
        <ele>85.6</ele>
        <time>2021-08-21T12:22:29Z</time>
      </trkpt>
      <trkpt lat="48.3559" lon="2.76129">
        <ele>85.6</ele>
        <time>2021-08-21T12:22:30Z</time>
      </trkpt>
      <trkpt lat="48.35591" lon="2.76131">
        <ele>85.6</ele>
        <time>2021-08-21T12:22:31Z</time>
      </trkpt>
      <trkpt lat="48.35591" lon="2.76132">
        <ele>85.6</ele>
        <time>2021-08-21T12:22:32Z</time>
      </trkpt>
      <trkpt lat="48.35591" lon="2.76132">
        <ele>85.6</ele>
        <time>2021-08-21T12:22:33Z</time>
      </trkpt>
      <trkpt lat="48.35591" lon="2.76133">
        <ele>85.6</ele>
        <time>2021-08-21T12:22:34Z</time>
      </trkpt>
      <trkpt lat="48.35591" lon="2.76134">
        <ele>85.6</ele>
        <time>2021-08-21T12:22:35Z</time>
      </trkpt>
      <trkpt lat="48.35592" lon="2.76135">
        <ele>85.6</ele>
        <time>2021-08-21T12:22:36Z</time>
      </trkpt>
      <trkpt lat="48.35592" lon="2.76136">
        <ele>85.6</ele>
        <time>2021-08-21T12:22:37Z</time>
      </trkpt>
      <trkpt lat="48.35592" lon="2.76137">
        <ele>85.6</ele>
        <time>2021-08-21T12:22:38Z</time>
      </trkpt>
      <trkpt lat="48.35592" lon="2.76138">
        <ele>85.6</ele>
        <time>2021-08-21T12:22:39Z</time>
      </trkpt>
      <trkpt lat="48.35592" lon="2.76139">
        <ele>85.6</ele>
        <time>2021-08-21T12:22:40Z</time>
      </trkpt>
      <trkpt lat="48.35593" lon="2.7614">
        <ele>85.6</ele>
        <time>2021-08-21T12:22:41Z</time>
      </trkpt>
      <trkpt lat="48.35593" lon="2.7614">
        <ele>85.5</ele>
        <time>2021-08-21T12:22:42Z</time>
      </trkpt>
      <trkpt lat="48.35594" lon="2.76141">
        <ele>85.5</ele>
        <time>2021-08-21T12:22:43Z</time>
      </trkpt>
      <trkpt lat="48.35595" lon="2.76142">
        <ele>85.5</ele>
        <time>2021-08-21T12:22:44Z</time>
      </trkpt>
      <trkpt lat="48.35596" lon="2.76143">
        <ele>85.5</ele>
        <time>2021-08-21T12:22:45Z</time>
      </trkpt>
      <trkpt lat="48.35597" lon="2.76144">
        <ele>85.5</ele>
        <time>2021-08-21T12:22:46Z</time>
      </trkpt>
      <trkpt lat="48.35597" lon="2.76144">
        <ele>85.5</ele>
        <time>2021-08-21T12:22:47Z</time>
      </trkpt>
      <trkpt lat="48.35597" lon="2.76144">
        <ele>85.5</ele>
        <time>2021-08-21T12:22:48Z</time>
      </trkpt>
      <trkpt lat="48.35596" lon="2.76144">
        <ele>85.5</ele>
        <time>2021-08-21T12:22:49Z</time>
      </trkpt>
      <trkpt lat="48.35596" lon="2.76143">
        <ele>85.5</ele>
        <time>2021-08-21T12:22:50Z</time>
      </trkpt>
      <trkpt lat="48.35597" lon="2.76144">
        <ele>85.5</ele>
        <time>2021-08-21T12:22:51Z</time>
      </trkpt>
      <trkpt lat="48.35597" lon="2.76145">
        <ele>85.5</ele>
        <time>2021-08-21T12:22:52Z</time>
      </trkpt>
      <trkpt lat="48.35597" lon="2.76146">
        <ele>85.5</ele>
        <time>2021-08-21T12:22:53Z</time>
      </trkpt>
      <trkpt lat="48.35598" lon="2.76146">
        <ele>85.4</ele>
        <time>2021-08-21T12:22:54Z</time>
      </trkpt>
      <trkpt lat="48.35599" lon="2.76147">
        <ele>85.4</ele>
        <time>2021-08-21T12:22:55Z</time>
      </trkpt>
      <trkpt lat="48.35599" lon="2.76148">
        <ele>85.4</ele>
        <time>2021-08-21T12:22:56Z</time>
      </trkpt>
      <trkpt lat="48.35599" lon="2.76148">
        <ele>85.4</ele>
        <time>2021-08-21T12:22:57Z</time>
      </trkpt>
      <trkpt lat="48.35599" lon="2.76149">
        <ele>85.4</ele>
        <time>2021-08-21T12:22:58Z</time>
      </trkpt>
      <trkpt lat="48.35599" lon="2.7615">
        <ele>85.4</ele>
        <time>2021-08-21T12:22:59Z</time>
      </trkpt>
      <trkpt lat="48.35599" lon="2.7615">
        <ele>85.4</ele>
        <time>2021-08-21T12:23:00Z</time>
      </trkpt>
      <trkpt lat="48.356" lon="2.7615">
        <ele>85.4</ele>
        <time>2021-08-21T12:23:01Z</time>
      </trkpt>
      <trkpt lat="48.35601" lon="2.7615">
        <ele>85.4</ele>
        <time>2021-08-21T12:23:02Z</time>
      </trkpt>
      <trkpt lat="48.35601" lon="2.7615">
        <ele>85.4</ele>
        <time>2021-08-21T12:23:03Z</time>
      </trkpt>
      <trkpt lat="48.35601" lon="2.76151">
        <ele>85.4</ele>
        <time>2021-08-21T12:23:04Z</time>
      </trkpt>
      <trkpt lat="48.35601" lon="2.76151">
        <ele>85.4</ele>
        <time>2021-08-21T12:23:05Z</time>
      </trkpt>
      <trkpt lat="48.35602" lon="2.76152">
        <ele>85.4</ele>
        <time>2021-08-21T12:23:06Z</time>
      </trkpt>
      <trkpt lat="48.35602" lon="2.76152">
        <ele>85.4</ele>
        <time>2021-08-21T12:23:07Z</time>
      </trkpt>
      <trkpt lat="48.35602" lon="2.76152">
        <ele>85.4</ele>
        <time>2021-08-21T12:23:08Z</time>
      </trkpt>
      <trkpt lat="48.35602" lon="2.76153">
        <ele>85.4</ele>
        <time>2021-08-21T12:23:09Z</time>
      </trkpt>
      <trkpt lat="48.35602" lon="2.76154">
        <ele>85.4</ele>
        <time>2021-08-21T12:23:11Z</time>
      </trkpt>
      <trkpt lat="48.35602" lon="2.76154">
        <ele>85.4</ele>
        <time>2021-08-21T12:23:12Z</time>
      </trkpt>
      <trkpt lat="48.35602" lon="2.76154">
        <ele>85.4</ele>
        <time>2021-08-21T12:23:13Z</time>
      </trkpt>
      <trkpt lat="48.35602" lon="2.76154">
        <ele>85.4</ele>
        <time>2021-08-21T12:23:14Z</time>
      </trkpt>
      <trkpt lat="48.35603" lon="2.76155">
        <ele>85.4</ele>
        <time>2021-08-21T12:23:15Z</time>
      </trkpt>
      <trkpt lat="48.35603" lon="2.76155">
        <ele>85.4</ele>
        <time>2021-08-21T12:23:16Z</time>
      </trkpt>
      <trkpt lat="48.35603" lon="2.76155">
        <ele>85.4</ele>
        <time>2021-08-21T12:23:17Z</time>
      </trkpt>
      <trkpt lat="48.35603" lon="2.76155">
        <ele>85.4</ele>
        <time>2021-08-21T12:23:18Z</time>
      </trkpt>
      <trkpt lat="48.35603" lon="2.76155">
        <ele>85.4</ele>
        <time>2021-08-21T12:23:19Z</time>
      </trkpt>
      <trkpt lat="48.35604" lon="2.76155">
        <ele>85.4</ele>
        <time>2021-08-21T12:23:20Z</time>
      </trkpt>
      <trkpt lat="48.35604" lon="2.76155">
        <ele>85.4</ele>
        <time>2021-08-21T12:23:21Z</time>
      </trkpt>
      <trkpt lat="48.35603" lon="2.76155">
        <ele>85.4</ele>
        <time>2021-08-21T12:23:22Z</time>
      </trkpt>
      <trkpt lat="48.35603" lon="2.76155">
        <ele>85.4</ele>
        <time>2021-08-21T12:23:23Z</time>
      </trkpt>
      <trkpt lat="48.35603" lon="2.76155">
        <ele>85.4</ele>
        <time>2021-08-21T12:23:24Z</time>
      </trkpt>
      <trkpt lat="48.35603" lon="2.76154">
        <ele>85.4</ele>
        <time>2021-08-21T12:23:25Z</time>
      </trkpt>
      <trkpt lat="48.35603" lon="2.76154">
        <ele>85.4</ele>
        <time>2021-08-21T12:23:26Z</time>
      </trkpt>
      <trkpt lat="48.35603" lon="2.76154">
        <ele>85.4</ele>
        <time>2021-08-21T12:23:27Z</time>
      </trkpt>
      <trkpt lat="48.35603" lon="2.76154">
        <ele>85.4</ele>
        <time>2021-08-21T12:23:28Z</time>
      </trkpt>
      <trkpt lat="48.35603" lon="2.76154">
        <ele>85.4</ele>
        <time>2021-08-21T12:23:29Z</time>
      </trkpt>
      <trkpt lat="48.35603" lon="2.76154">
        <ele>85.4</ele>
        <time>2021-08-21T12:23:30Z</time>
      </trkpt>
      <trkpt lat="48.35603" lon="2.76154">
        <ele>85.4</ele>
        <time>2021-08-21T12:23:31Z</time>
      </trkpt>
      <trkpt lat="48.35603" lon="2.76154">
        <ele>85.4</ele>
        <time>2021-08-21T12:23:32Z</time>
      </trkpt>
      <trkpt lat="48.35603" lon="2.76154">
        <ele>85.4</ele>
        <time>2021-08-21T12:23:33Z</time>
      </trkpt>
      <trkpt lat="48.35603" lon="2.76154">
        <ele>85.4</ele>
        <time>2021-08-21T12:23:34Z</time>
      </trkpt>
      <trkpt lat="48.35603" lon="2.76154">
        <ele>85.4</ele>
        <time>2021-08-21T12:23:35Z</time>
      </trkpt>
      <trkpt lat="48.35603" lon="2.76154">
        <ele>85.4</ele>
        <time>2021-08-21T12:23:36Z</time>
      </trkpt>
      <trkpt lat="48.35603" lon="2.76154">
        <ele>85.4</ele>
        <time>2021-08-21T12:23:37Z</time>
      </trkpt>
      <trkpt lat="48.35603" lon="2.76154">
        <ele>85.4</ele>
        <time>2021-08-21T12:23:38Z</time>
      </trkpt>
      <trkpt lat="48.35603" lon="2.76154">
        <ele>85.4</ele>
        <time>2021-08-21T12:23:39Z</time>
      </trkpt>
      <trkpt lat="48.35603" lon="2.76154">
        <ele>85.4</ele>
        <time>2021-08-21T12:23:40Z</time>
      </trkpt>
      <trkpt lat="48.35603" lon="2.76154">
        <ele>85.4</ele>
        <time>2021-08-21T12:23:41Z</time>
      </trkpt>
      <trkpt lat="48.35603" lon="2.76154">
        <ele>85.4</ele>
        <time>2021-08-21T12:23:42Z</time>
      </trkpt>
      <trkpt lat="48.35603" lon="2.76154">
        <ele>85.4</ele>
        <time>2021-08-21T12:23:43Z</time>
      </trkpt>
      <trkpt lat="48.35603" lon="2.76154">
        <ele>85.4</ele>
        <time>2021-08-21T12:23:44Z</time>
      </trkpt>
      <trkpt lat="48.35603" lon="2.76154">
        <ele>85.4</ele>
        <time>2021-08-21T12:23:45Z</time>
      </trkpt>
      <trkpt lat="48.35603" lon="2.76154">
        <ele>85.4</ele>
        <time>2021-08-21T12:23:46Z</time>
      </trkpt>
      <trkpt lat="48.35603" lon="2.76154">
        <ele>85.4</ele>
        <time>2021-08-21T12:23:47Z</time>
      </trkpt>
      <trkpt lat="48.35603" lon="2.76154">
        <ele>85.4</ele>
        <time>2021-08-21T12:23:48Z</time>
      </trkpt>
      <trkpt lat="48.35603" lon="2.76154">
        <ele>85.4</ele>
        <time>2021-08-21T12:23:50Z</time>
      </trkpt>
      <trkpt lat="48.35603" lon="2.76155">
        <ele>85.4</ele>
        <time>2021-08-21T12:23:51Z</time>
      </trkpt>
      <trkpt lat="48.35603" lon="2.76155">
        <ele>85.4</ele>
        <time>2021-08-21T12:23:52Z</time>
      </trkpt>
      <trkpt lat="48.35603" lon="2.76155">
        <ele>85.4</ele>
        <time>2021-08-21T12:23:53Z</time>
      </trkpt>
      <trkpt lat="48.35603" lon="2.76155">
        <ele>85.4</ele>
        <time>2021-08-21T12:23:54Z</time>
      </trkpt>
      <trkpt lat="48.35603" lon="2.76155">
        <ele>85.4</ele>
        <time>2021-08-21T12:23:55Z</time>
      </trkpt>
      <trkpt lat="48.35603" lon="2.76155">
        <ele>85.4</ele>
        <time>2021-08-21T12:23:56Z</time>
      </trkpt>
      <trkpt lat="48.35603" lon="2.76155">
        <ele>85.4</ele>
        <time>2021-08-21T12:23:57Z</time>
      </trkpt>
      <trkpt lat="48.35603" lon="2.76155">
        <ele>85.4</ele>
        <time>2021-08-21T12:23:58Z</time>
      </trkpt>
      <trkpt lat="48.35603" lon="2.76155">
        <ele>85.4</ele>
        <time>2021-08-21T12:23:59Z</time>
      </trkpt>
      <trkpt lat="48.35603" lon="2.76155">
        <ele>85.4</ele>
        <time>2021-08-21T12:24:00Z</time>
      </trkpt>
      <trkpt lat="48.35603" lon="2.76155">
        <ele>85.4</ele>
        <time>2021-08-21T12:24:01Z</time>
      </trkpt>
      <trkpt lat="48.35603" lon="2.76155">
        <ele>85.4</ele>
        <time>2021-08-21T12:24:02Z</time>
      </trkpt>
      <trkpt lat="48.35603" lon="2.76155">
        <ele>85.4</ele>
        <time>2021-08-21T12:24:03Z</time>
      </trkpt>
      <trkpt lat="48.35603" lon="2.76155">
        <ele>85.4</ele>
        <time>2021-08-21T12:24:05Z</time>
      </trkpt>
      <trkpt lat="48.35603" lon="2.76155">
        <ele>85.4</ele>
        <time>2021-08-21T12:24:06Z</time>
      </trkpt>
      <trkpt lat="48.35603" lon="2.76155">
        <ele>85.4</ele>
        <time>2021-08-21T12:24:07Z</time>
      </trkpt>
      <trkpt lat="48.35603" lon="2.76155">
        <ele>85.4</ele>
        <time>2021-08-21T12:24:08Z</time>
      </trkpt>
      <trkpt lat="48.35603" lon="2.76155">
        <ele>85.4</ele>
        <time>2021-08-21T12:24:09Z</time>
      </trkpt>
      <trkpt lat="48.35603" lon="2.76155">
        <ele>85.4</ele>
        <time>2021-08-21T12:24:10Z</time>
      </trkpt>
      <trkpt lat="48.35603" lon="2.76155">
        <ele>85.4</ele>
        <time>2021-08-21T12:24:11Z</time>
      </trkpt>
      <trkpt lat="48.35603" lon="2.76155">
        <ele>85.4</ele>
        <time>2021-08-21T12:24:12Z</time>
      </trkpt>
      <trkpt lat="48.35603" lon="2.76155">
        <ele>85.4</ele>
        <time>2021-08-21T12:24:13Z</time>
      </trkpt>
      <trkpt lat="48.35603" lon="2.76155">
        <ele>85.4</ele>
        <time>2021-08-21T12:24:14Z</time>
      </trkpt>
      <trkpt lat="48.35603" lon="2.76155">
        <ele>85.4</ele>
        <time>2021-08-21T12:24:15Z</time>
      </trkpt>
      <trkpt lat="48.35603" lon="2.76155">
        <ele>85.4</ele>
        <time>2021-08-21T12:24:16Z</time>
      </trkpt>
      <trkpt lat="48.35603" lon="2.76155">
        <ele>85.4</ele>
        <time>2021-08-21T12:24:17Z</time>
      </trkpt>
      <trkpt lat="48.35603" lon="2.76155">
        <ele>85.4</ele>
        <time>2021-08-21T12:24:18Z</time>
      </trkpt>
      <trkpt lat="48.35603" lon="2.76155">
        <ele>85.4</ele>
        <time>2021-08-21T12:24:19Z</time>
      </trkpt>
      <trkpt lat="48.35603" lon="2.76155">
        <ele>85.4</ele>
        <time>2021-08-21T12:24:20Z</time>
      </trkpt>
      <trkpt lat="48.35603" lon="2.76155">
        <ele>85.4</ele>
        <time>2021-08-21T12:24:21Z</time>
      </trkpt>
      <trkpt lat="48.35603" lon="2.76155">
        <ele>85.4</ele>
        <time>2021-08-21T12:24:22Z</time>
      </trkpt>
      <trkpt lat="48.35603" lon="2.76155">
        <ele>85.4</ele>
        <time>2021-08-21T12:24:23Z</time>
      </trkpt>
      <trkpt lat="48.35603" lon="2.76155">
        <ele>85.4</ele>
        <time>2021-08-21T12:24:24Z</time>
      </trkpt>
      <trkpt lat="48.35603" lon="2.76155">
        <ele>85.4</ele>
        <time>2021-08-21T12:24:25Z</time>
      </trkpt>
      <trkpt lat="48.35603" lon="2.76155">
        <ele>85.4</ele>
        <time>2021-08-21T12:24:27Z</time>
      </trkpt>
      <trkpt lat="48.35603" lon="2.76155">
        <ele>85.4</ele>
        <time>2021-08-21T12:24:28Z</time>
      </trkpt>
      <trkpt lat="48.35603" lon="2.76155">
        <ele>85.4</ele>
        <time>2021-08-21T12:24:29Z</time>
      </trkpt>
      <trkpt lat="48.35603" lon="2.76155">
        <ele>85.4</ele>
        <time>2021-08-21T12:24:30Z</time>
      </trkpt>
      <trkpt lat="48.35603" lon="2.76155">
        <ele>85.4</ele>
        <time>2021-08-21T12:24:31Z</time>
      </trkpt>
      <trkpt lat="48.35603" lon="2.76155">
        <ele>85.4</ele>
        <time>2021-08-21T12:24:32Z</time>
      </trkpt>
      <trkpt lat="48.35603" lon="2.76155">
        <ele>85.4</ele>
        <time>2021-08-21T12:24:33Z</time>
      </trkpt>
      <trkpt lat="48.35603" lon="2.76155">
        <ele>85.4</ele>
        <time>2021-08-21T12:24:34Z</time>
      </trkpt>
      <trkpt lat="48.35603" lon="2.76155">
        <ele>85.4</ele>
        <time>2021-08-21T12:24:36Z</time>
      </trkpt>
      <trkpt lat="48.35603" lon="2.76155">
        <ele>85.4</ele>
        <time>2021-08-21T12:24:37Z</time>
      </trkpt>
      <trkpt lat="48.35603" lon="2.76155">
        <ele>85.4</ele>
        <time>2021-08-21T12:24:38Z</time>
      </trkpt>
      <trkpt lat="48.35603" lon="2.76155">
        <ele>85.4</ele>
        <time>2021-08-21T12:24:39Z</time>
      </trkpt>
      <trkpt lat="48.35603" lon="2.76155">
        <ele>85.4</ele>
        <time>2021-08-21T12:24:40Z</time>
      </trkpt>
      <trkpt lat="48.35603" lon="2.76155">
        <ele>85.4</ele>
        <time>2021-08-21T12:24:41Z</time>
      </trkpt>
      <trkpt lat="48.35603" lon="2.76155">
        <ele>85.4</ele>
        <time>2021-08-21T12:24:42Z</time>
      </trkpt>
      <trkpt lat="48.35603" lon="2.76155">
        <ele>85.4</ele>
        <time>2021-08-21T12:24:43Z</time>
      </trkpt>
      <trkpt lat="48.35603" lon="2.76155">
        <ele>85.4</ele>
        <time>2021-08-21T12:24:44Z</time>
      </trkpt>
      <trkpt lat="48.35603" lon="2.76155">
        <ele>85.4</ele>
        <time>2021-08-21T12:24:45Z</time>
      </trkpt>
      <trkpt lat="48.35603" lon="2.76155">
        <ele>85.4</ele>
        <time>2021-08-21T12:24:46Z</time>
      </trkpt>
      <trkpt lat="48.35603" lon="2.76155">
        <ele>85.4</ele>
        <time>2021-08-21T12:24:47Z</time>
      </trkpt>
      <trkpt lat="48.35603" lon="2.76155">
        <ele>85.4</ele>
        <time>2021-08-21T12:24:48Z</time>
      </trkpt>
      <trkpt lat="48.35603" lon="2.76154">
        <ele>85.4</ele>
        <time>2021-08-21T12:24:49Z</time>
      </trkpt>
      <trkpt lat="48.35603" lon="2.76154">
        <ele>85.4</ele>
        <time>2021-08-21T12:24:50Z</time>
      </trkpt>
      <trkpt lat="48.35603" lon="2.76154">
        <ele>85.4</ele>
        <time>2021-08-21T12:24:51Z</time>
      </trkpt>
      <trkpt lat="48.35603" lon="2.76154">
        <ele>85.4</ele>
        <time>2021-08-21T12:24:52Z</time>
      </trkpt>
      <trkpt lat="48.35603" lon="2.76155">
        <ele>85.4</ele>
        <time>2021-08-21T12:24:53Z</time>
      </trkpt>
      <trkpt lat="48.35603" lon="2.76155">
        <ele>85.4</ele>
        <time>2021-08-21T12:24:54Z</time>
      </trkpt>
      <trkpt lat="48.35604" lon="2.76155">
        <ele>85.4</ele>
        <time>2021-08-21T12:24:55Z</time>
      </trkpt>
      <trkpt lat="48.35604" lon="2.76155">
        <ele>85.4</ele>
        <time>2021-08-21T12:24:56Z</time>
      </trkpt>
      <trkpt lat="48.35604" lon="2.76155">
        <ele>85.4</ele>
        <time>2021-08-21T12:24:57Z</time>
      </trkpt>
      <trkpt lat="48.35604" lon="2.76155">
        <ele>85.4</ele>
        <time>2021-08-21T12:24:58Z</time>
      </trkpt>
      <trkpt lat="48.35604" lon="2.76155">
        <ele>85.4</ele>
        <time>2021-08-21T12:24:59Z</time>
      </trkpt>
      <trkpt lat="48.35604" lon="2.76155">
        <ele>85.4</ele>
        <time>2021-08-21T12:25:00Z</time>
      </trkpt>
      <trkpt lat="48.35604" lon="2.76155">
        <ele>85.4</ele>
        <time>2021-08-21T12:25:01Z</time>
      </trkpt>
      <trkpt lat="48.35604" lon="2.76155">
        <ele>85.4</ele>
        <time>2021-08-21T12:25:02Z</time>
      </trkpt>
      <trkpt lat="48.35604" lon="2.76155">
        <ele>85.4</ele>
        <time>2021-08-21T12:25:03Z</time>
      </trkpt>
      <trkpt lat="48.35604" lon="2.76155">
        <ele>85.4</ele>
        <time>2021-08-21T12:25:04Z</time>
      </trkpt>
      <trkpt lat="48.35604" lon="2.76155">
        <ele>85.4</ele>
        <time>2021-08-21T12:25:05Z</time>
      </trkpt>
      <trkpt lat="48.35604" lon="2.76155">
        <ele>85.4</ele>
        <time>2021-08-21T12:25:06Z</time>
      </trkpt>
      <trkpt lat="48.35604" lon="2.76155">
        <ele>85.4</ele>
        <time>2021-08-21T12:25:07Z</time>
      </trkpt>
      <trkpt lat="48.35604" lon="2.76155">
        <ele>85.4</ele>
        <time>2021-08-21T12:25:08Z</time>
      </trkpt>
      <trkpt lat="48.35604" lon="2.76155">
        <ele>85.4</ele>
        <time>2021-08-21T12:25:09Z</time>
      </trkpt>
      <trkpt lat="48.35604" lon="2.76155">
        <ele>85.4</ele>
        <time>2021-08-21T12:25:10Z</time>
      </trkpt>
      <trkpt lat="48.35604" lon="2.76155">
        <ele>85.4</ele>
        <time>2021-08-21T12:25:11Z</time>
      </trkpt>
      <trkpt lat="48.35604" lon="2.76155">
        <ele>85.4</ele>
        <time>2021-08-21T12:25:12Z</time>
      </trkpt>
      <trkpt lat="48.35604" lon="2.76155">
        <ele>85.4</ele>
        <time>2021-08-21T12:25:13Z</time>
      </trkpt>
      <trkpt lat="48.35604" lon="2.76155">
        <ele>85.4</ele>
        <time>2021-08-21T12:25:14Z</time>
      </trkpt>
      <trkpt lat="48.35604" lon="2.76155">
        <ele>85.4</ele>
        <time>2021-08-21T12:25:15Z</time>
      </trkpt>
      <trkpt lat="48.35604" lon="2.76155">
        <ele>85.4</ele>
        <time>2021-08-21T12:25:16Z</time>
      </trkpt>
      <trkpt lat="48.35604" lon="2.76155">
        <ele>85.4</ele>
        <time>2021-08-21T12:25:17Z</time>
      </trkpt>
      <trkpt lat="48.35604" lon="2.76155">
        <ele>85.4</ele>
        <time>2021-08-21T12:25:18Z</time>
      </trkpt>
      <trkpt lat="48.35604" lon="2.76155">
        <ele>85.4</ele>
        <time>2021-08-21T12:25:19Z</time>
      </trkpt>
      <trkpt lat="48.35604" lon="2.76155">
        <ele>85.4</ele>
        <time>2021-08-21T12:25:20Z</time>
      </trkpt>
      <trkpt lat="48.35604" lon="2.76155">
        <ele>85.4</ele>
        <time>2021-08-21T12:25:21Z</time>
      </trkpt>
      <trkpt lat="48.35604" lon="2.76155">
        <ele>85.4</ele>
        <time>2021-08-21T12:25:23Z</time>
      </trkpt>
      <trkpt lat="48.35604" lon="2.76155">
        <ele>85.4</ele>
        <time>2021-08-21T12:25:24Z</time>
      </trkpt>
      <trkpt lat="48.35604" lon="2.76155">
        <ele>85.4</ele>
        <time>2021-08-21T12:25:25Z</time>
      </trkpt>
      <trkpt lat="48.35604" lon="2.76155">
        <ele>85.4</ele>
        <time>2021-08-21T12:25:26Z</time>
      </trkpt>
      <trkpt lat="48.35604" lon="2.76155">
        <ele>85.4</ele>
        <time>2021-08-21T12:25:27Z</time>
      </trkpt>
      <trkpt lat="48.35604" lon="2.76155">
        <ele>85.4</ele>
        <time>2021-08-21T12:25:28Z</time>
      </trkpt>
      <trkpt lat="48.35604" lon="2.76155">
        <ele>85.4</ele>
        <time>2021-08-21T12:25:29Z</time>
      </trkpt>
      <trkpt lat="48.35604" lon="2.76155">
        <ele>85.4</ele>
        <time>2021-08-21T12:25:30Z</time>
      </trkpt>
      <trkpt lat="48.35604" lon="2.76155">
        <ele>85.4</ele>
        <time>2021-08-21T12:25:31Z</time>
      </trkpt>
      <trkpt lat="48.35604" lon="2.76155">
        <ele>85.4</ele>
        <time>2021-08-21T12:25:32Z</time>
      </trkpt>
      <trkpt lat="48.35604" lon="2.76155">
        <ele>85.4</ele>
        <time>2021-08-21T12:25:33Z</time>
      </trkpt>
      <trkpt lat="48.35604" lon="2.76155">
        <ele>85.4</ele>
        <time>2021-08-21T12:25:34Z</time>
      </trkpt>
      <trkpt lat="48.35604" lon="2.76155">
        <ele>85.4</ele>
        <time>2021-08-21T12:25:35Z</time>
      </trkpt>
      <trkpt lat="48.35604" lon="2.76155">
        <ele>85.4</ele>
        <time>2021-08-21T12:25:36Z</time>
      </trkpt>
      <trkpt lat="48.35604" lon="2.76155">
        <ele>85.4</ele>
        <time>2021-08-21T12:25:37Z</time>
      </trkpt>
      <trkpt lat="48.35604" lon="2.76155">
        <ele>85.4</ele>
        <time>2021-08-21T12:25:38Z</time>
      </trkpt>
      <trkpt lat="48.35604" lon="2.76155">
        <ele>85.4</ele>
        <time>2021-08-21T12:25:40Z</time>
      </trkpt>
      <trkpt lat="48.35604" lon="2.76155">
        <ele>85.4</ele>
        <time>2021-08-21T12:25:42Z</time>
      </trkpt>
      <trkpt lat="48.35604" lon="2.76155">
        <ele>85.4</ele>
        <time>2021-08-21T12:25:44Z</time>
      </trkpt>
      <trkpt lat="48.35604" lon="2.76155">
        <ele>85.4</ele>
        <time>2021-08-21T12:25:45Z</time>
      </trkpt>
      <trkpt lat="48.35604" lon="2.76155">
        <ele>85.4</ele>
        <time>2021-08-21T12:25:47Z</time>
      </trkpt>
      <trkpt lat="48.35604" lon="2.76155">
        <ele>85.4</ele>
        <time>2021-08-21T12:25:48Z</time>
      </trkpt>
      <trkpt lat="48.35604" lon="2.76155">
        <ele>85.4</ele>
        <time>2021-08-21T12:25:49Z</time>
      </trkpt>
      <trkpt lat="48.35604" lon="2.76155">
        <ele>85.4</ele>
        <time>2021-08-21T12:25:51Z</time>
      </trkpt>
      <trkpt lat="48.35604" lon="2.76155">
        <ele>85.4</ele>
        <time>2021-08-21T12:25:52Z</time>
      </trkpt>
      <trkpt lat="48.35604" lon="2.76155">
        <ele>85.4</ele>
        <time>2021-08-21T12:25:53Z</time>
      </trkpt>
      <trkpt lat="48.35604" lon="2.76155">
        <ele>85.4</ele>
        <time>2021-08-21T12:25:55Z</time>
      </trkpt>
      <trkpt lat="48.35604" lon="2.76155">
        <ele>85.4</ele>
        <time>2021-08-21T12:25:57Z</time>
      </trkpt>
      <trkpt lat="48.35604" lon="2.76155">
        <ele>85.4</ele>
        <time>2021-08-21T12:25:58Z</time>
      </trkpt>
      <trkpt lat="48.35604" lon="2.76155">
        <ele>85.4</ele>
        <time>2021-08-21T12:25:59Z</time>
      </trkpt>
      <trkpt lat="48.35604" lon="2.76155">
        <ele>85.4</ele>
        <time>2021-08-21T12:26:00Z</time>
      </trkpt>
      <trkpt lat="48.35604" lon="2.76155">
        <ele>85.4</ele>
        <time>2021-08-21T12:26:02Z</time>
      </trkpt>
      <trkpt lat="48.35604" lon="2.76155">
        <ele>85.4</ele>
        <time>2021-08-21T12:26:03Z</time>
      </trkpt>
      <trkpt lat="48.35604" lon="2.76155">
        <ele>85.4</ele>
        <time>2021-08-21T12:26:04Z</time>
      </trkpt>
      <trkpt lat="48.35604" lon="2.76155">
        <ele>85.4</ele>
        <time>2021-08-21T12:26:05Z</time>
      </trkpt>
      <trkpt lat="48.35604" lon="2.76155">
        <ele>85.4</ele>
        <time>2021-08-21T12:26:06Z</time>
      </trkpt>
      <trkpt lat="48.35604" lon="2.76155">
        <ele>85.4</ele>
        <time>2021-08-21T12:26:07Z</time>
      </trkpt>
      <trkpt lat="48.35604" lon="2.76155">
        <ele>85.4</ele>
        <time>2021-08-21T12:26:08Z</time>
      </trkpt>
      <trkpt lat="48.35604" lon="2.76155">
        <ele>85.4</ele>
        <time>2021-08-21T12:26:09Z</time>
      </trkpt>
      <trkpt lat="48.35604" lon="2.76155">
        <ele>85.4</ele>
        <time>2021-08-21T12:26:10Z</time>
      </trkpt>
      <trkpt lat="48.35604" lon="2.76155">
        <ele>85.4</ele>
        <time>2021-08-21T12:26:11Z</time>
      </trkpt>
      <trkpt lat="48.35604" lon="2.76155">
        <ele>85.4</ele>
        <time>2021-08-21T12:26:12Z</time>
      </trkpt>
      <trkpt lat="48.35604" lon="2.76155">
        <ele>85.4</ele>
        <time>2021-08-21T12:26:13Z</time>
      </trkpt>
      <trkpt lat="48.35604" lon="2.76155">
        <ele>85.4</ele>
        <time>2021-08-21T12:26:14Z</time>
      </trkpt>
      <trkpt lat="48.35604" lon="2.76155">
        <ele>85.4</ele>
        <time>2021-08-21T12:26:15Z</time>
      </trkpt>
      <trkpt lat="48.35604" lon="2.76155">
        <ele>85.4</ele>
        <time>2021-08-21T12:26:16Z</time>
      </trkpt>
      <trkpt lat="48.35604" lon="2.76155">
        <ele>85.4</ele>
        <time>2021-08-21T12:26:17Z</time>
      </trkpt>
      <trkpt lat="48.35604" lon="2.76155">
        <ele>85.4</ele>
        <time>2021-08-21T12:26:18Z</time>
      </trkpt>
      <trkpt lat="48.35604" lon="2.76155">
        <ele>85.4</ele>
        <time>2021-08-21T12:26:19Z</time>
      </trkpt>
      <trkpt lat="48.35604" lon="2.76155">
        <ele>85.4</ele>
        <time>2021-08-21T12:26:20Z</time>
      </trkpt>
      <trkpt lat="48.35604" lon="2.76155">
        <ele>85.4</ele>
        <time>2021-08-21T12:26:21Z</time>
      </trkpt>
      <trkpt lat="48.35604" lon="2.76155">
        <ele>85.4</ele>
        <time>2021-08-21T12:26:22Z</time>
      </trkpt>
      <trkpt lat="48.35604" lon="2.76155">
        <ele>85.4</ele>
        <time>2021-08-21T12:26:23Z</time>
      </trkpt>
      <trkpt lat="48.35604" lon="2.76155">
        <ele>85.4</ele>
        <time>2021-08-21T12:26:24Z</time>
      </trkpt>
      <trkpt lat="48.35604" lon="2.76155">
        <ele>85.4</ele>
        <time>2021-08-21T12:26:25Z</time>
      </trkpt>
      <trkpt lat="48.35604" lon="2.76155">
        <ele>85.4</ele>
        <time>2021-08-21T12:26:26Z</time>
      </trkpt>
      <trkpt lat="48.35604" lon="2.76155">
        <ele>85.4</ele>
        <time>2021-08-21T12:26:27Z</time>
      </trkpt>
      <trkpt lat="48.35604" lon="2.76155">
        <ele>85.4</ele>
        <time>2021-08-21T12:26:28Z</time>
      </trkpt>
      <trkpt lat="48.35604" lon="2.76155">
        <ele>85.4</ele>
        <time>2021-08-21T12:26:29Z</time>
      </trkpt>
      <trkpt lat="48.35604" lon="2.76155">
        <ele>85.4</ele>
        <time>2021-08-21T12:26:30Z</time>
      </trkpt>
      <trkpt lat="48.35604" lon="2.76155">
        <ele>85.4</ele>
        <time>2021-08-21T12:26:31Z</time>
      </trkpt>
      <trkpt lat="48.35604" lon="2.76155">
        <ele>85.4</ele>
        <time>2021-08-21T12:26:32Z</time>
      </trkpt>
      <trkpt lat="48.35604" lon="2.76155">
        <ele>85.4</ele>
        <time>2021-08-21T12:26:33Z</time>
      </trkpt>
      <trkpt lat="48.35604" lon="2.76155">
        <ele>85.4</ele>
        <time>2021-08-21T12:26:34Z</time>
      </trkpt>
      <trkpt lat="48.35604" lon="2.76155">
        <ele>85.4</ele>
        <time>2021-08-21T12:26:35Z</time>
      </trkpt>
      <trkpt lat="48.35604" lon="2.76155">
        <ele>85.4</ele>
        <time>2021-08-21T12:26:36Z</time>
      </trkpt>
      <trkpt lat="48.35604" lon="2.76155">
        <ele>85.4</ele>
        <time>2021-08-21T12:26:37Z</time>
      </trkpt>
      <trkpt lat="48.35604" lon="2.76155">
        <ele>85.4</ele>
        <time>2021-08-21T12:26:38Z</time>
      </trkpt>
      <trkpt lat="48.35604" lon="2.76155">
        <ele>85.4</ele>
        <time>2021-08-21T12:26:39Z</time>
      </trkpt>
      <trkpt lat="48.35604" lon="2.76155">
        <ele>85.4</ele>
        <time>2021-08-21T12:26:40Z</time>
      </trkpt>
      <trkpt lat="48.35604" lon="2.76155">
        <ele>85.4</ele>
        <time>2021-08-21T12:26:41Z</time>
      </trkpt>
      <trkpt lat="48.35604" lon="2.76155">
        <ele>85.4</ele>
        <time>2021-08-21T12:26:42Z</time>
      </trkpt>
      <trkpt lat="48.35604" lon="2.76155">
        <ele>85.4</ele>
        <time>2021-08-21T12:26:43Z</time>
      </trkpt>
      <trkpt lat="48.35604" lon="2.76155">
        <ele>85.4</ele>
        <time>2021-08-21T12:26:44Z</time>
      </trkpt>
      <trkpt lat="48.35604" lon="2.76155">
        <ele>85.4</ele>
        <time>2021-08-21T12:26:45Z</time>
      </trkpt>
      <trkpt lat="48.35604" lon="2.76155">
        <ele>85.4</ele>
        <time>2021-08-21T12:26:46Z</time>
      </trkpt>
      <trkpt lat="48.35604" lon="2.76155">
        <ele>85.4</ele>
        <time>2021-08-21T12:26:47Z</time>
      </trkpt>
      <trkpt lat="48.35604" lon="2.76155">
        <ele>85.4</ele>
        <time>2021-08-21T12:26:48Z</time>
      </trkpt>
      <trkpt lat="48.35604" lon="2.76155">
        <ele>85.4</ele>
        <time>2021-08-21T12:26:49Z</time>
      </trkpt>
      <trkpt lat="48.35604" lon="2.76155">
        <ele>85.4</ele>
        <time>2021-08-21T12:26:50Z</time>
      </trkpt>
      <trkpt lat="48.35604" lon="2.76155">
        <ele>85.4</ele>
        <time>2021-08-21T12:26:51Z</time>
      </trkpt>
      <trkpt lat="48.35604" lon="2.76155">
        <ele>85.4</ele>
        <time>2021-08-21T12:26:52Z</time>
      </trkpt>
      <trkpt lat="48.35604" lon="2.76155">
        <ele>85.4</ele>
        <time>2021-08-21T12:26:53Z</time>
      </trkpt>
      <trkpt lat="48.35604" lon="2.76155">
        <ele>85.4</ele>
        <time>2021-08-21T12:26:54Z</time>
      </trkpt>
      <trkpt lat="48.35604" lon="2.76155">
        <ele>85.4</ele>
        <time>2021-08-21T12:26:55Z</time>
      </trkpt>
      <trkpt lat="48.35604" lon="2.76155">
        <ele>85.4</ele>
        <time>2021-08-21T12:26:56Z</time>
      </trkpt>
      <trkpt lat="48.35604" lon="2.76155">
        <ele>85.4</ele>
        <time>2021-08-21T12:26:57Z</time>
      </trkpt>
      <trkpt lat="48.35604" lon="2.76155">
        <ele>85.4</ele>
        <time>2021-08-21T12:26:58Z</time>
      </trkpt>
      <trkpt lat="48.35604" lon="2.76155">
        <ele>85.4</ele>
        <time>2021-08-21T12:27:03Z</time>
      </trkpt>
      <trkpt lat="48.35604" lon="2.76155">
        <ele>85.4</ele>
        <time>2021-08-21T12:27:04Z</time>
      </trkpt>
      <trkpt lat="48.35604" lon="2.76155">
        <ele>85.4</ele>
        <time>2021-08-21T12:27:05Z</time>
      </trkpt>
      <trkpt lat="48.35604" lon="2.76155">
        <ele>85.4</ele>
        <time>2021-08-21T12:27:06Z</time>
      </trkpt>
      <trkpt lat="48.35604" lon="2.76155">
        <ele>85.4</ele>
        <time>2021-08-21T12:27:07Z</time>
      </trkpt>
      <trkpt lat="48.35604" lon="2.76155">
        <ele>85.4</ele>
        <time>2021-08-21T12:27:08Z</time>
      </trkpt>
      <trkpt lat="48.35604" lon="2.76155">
        <ele>85.4</ele>
        <time>2021-08-21T12:27:09Z</time>
      </trkpt>
      <trkpt lat="48.35604" lon="2.76155">
        <ele>85.4</ele>
        <time>2021-08-21T12:27:10Z</time>
      </trkpt>
      <trkpt lat="48.35604" lon="2.76155">
        <ele>85.4</ele>
        <time>2021-08-21T12:27:11Z</time>
      </trkpt>
      <trkpt lat="48.35604" lon="2.76155">
        <ele>85.4</ele>
        <time>2021-08-21T12:27:13Z</time>
      </trkpt>
      <trkpt lat="48.35604" lon="2.76155">
        <ele>85.4</ele>
        <time>2021-08-21T12:27:15Z</time>
      </trkpt>
      <trkpt lat="48.35604" lon="2.76155">
        <ele>85.4</ele>
        <time>2021-08-21T12:27:16Z</time>
      </trkpt>
      <trkpt lat="48.35604" lon="2.76155">
        <ele>85.4</ele>
        <time>2021-08-21T12:27:17Z</time>
      </trkpt>
      <trkpt lat="48.35604" lon="2.76155">
        <ele>85.4</ele>
        <time>2021-08-21T12:27:19Z</time>
      </trkpt>
      <trkpt lat="48.35604" lon="2.76155">
        <ele>85.4</ele>
        <time>2021-08-21T12:27:20Z</time>
      </trkpt>
      <trkpt lat="48.35604" lon="2.76155">
        <ele>85.4</ele>
        <time>2021-08-21T12:27:22Z</time>
      </trkpt>
      <trkpt lat="48.35604" lon="2.76155">
        <ele>85.4</ele>
        <time>2021-08-21T12:27:24Z</time>
      </trkpt>
      <trkpt lat="48.35604" lon="2.76155">
        <ele>85.4</ele>
        <time>2021-08-21T12:27:25Z</time>
      </trkpt>
      <trkpt lat="48.35604" lon="2.76155">
        <ele>85.4</ele>
        <time>2021-08-21T12:27:26Z</time>
      </trkpt>
      <trkpt lat="48.35604" lon="2.76155">
        <ele>85.4</ele>
        <time>2021-08-21T12:27:27Z</time>
      </trkpt>
      <trkpt lat="48.35604" lon="2.76155">
        <ele>85.4</ele>
        <time>2021-08-21T12:27:28Z</time>
      </trkpt>
      <trkpt lat="48.35604" lon="2.76155">
        <ele>85.4</ele>
        <time>2021-08-21T12:27:29Z</time>
      </trkpt>
      <trkpt lat="48.35604" lon="2.76155">
        <ele>85.4</ele>
        <time>2021-08-21T12:27:30Z</time>
      </trkpt>
      <trkpt lat="48.35604" lon="2.76155">
        <ele>85.4</ele>
        <time>2021-08-21T12:27:31Z</time>
      </trkpt>
      <trkpt lat="48.35604" lon="2.76155">
        <ele>85.4</ele>
        <time>2021-08-21T12:27:32Z</time>
      </trkpt>
      <trkpt lat="48.35604" lon="2.76155">
        <ele>85.4</ele>
        <time>2021-08-21T12:27:33Z</time>
      </trkpt>
      <trkpt lat="48.35604" lon="2.76155">
        <ele>85.4</ele>
        <time>2021-08-21T12:27:34Z</time>
      </trkpt>
      <trkpt lat="48.35604" lon="2.76155">
        <ele>85.4</ele>
        <time>2021-08-21T12:27:35Z</time>
      </trkpt>
      <trkpt lat="48.35604" lon="2.76155">
        <ele>85.4</ele>
        <time>2021-08-21T12:27:36Z</time>
      </trkpt>
      <trkpt lat="48.35604" lon="2.76155">
        <ele>85.4</ele>
        <time>2021-08-21T12:27:37Z</time>
      </trkpt>
      <trkpt lat="48.35604" lon="2.76155">
        <ele>85.4</ele>
        <time>2021-08-21T12:27:38Z</time>
      </trkpt>
      <trkpt lat="48.35604" lon="2.76155">
        <ele>85.4</ele>
        <time>2021-08-21T12:27:39Z</time>
      </trkpt>
      <trkpt lat="48.35604" lon="2.76155">
        <ele>85.4</ele>
        <time>2021-08-21T12:27:40Z</time>
      </trkpt>
      <trkpt lat="48.35604" lon="2.76155">
        <ele>85.4</ele>
        <time>2021-08-21T12:27:41Z</time>
      </trkpt>
      <trkpt lat="48.35604" lon="2.76155">
        <ele>85.4</ele>
        <time>2021-08-21T12:27:42Z</time>
      </trkpt>
      <trkpt lat="48.35604" lon="2.76154">
        <ele>85.4</ele>
        <time>2021-08-21T12:27:43Z</time>
      </trkpt>
      <trkpt lat="48.35604" lon="2.76154">
        <ele>85.4</ele>
        <time>2021-08-21T12:27:44Z</time>
      </trkpt>
      <trkpt lat="48.35604" lon="2.76154">
        <ele>85.4</ele>
        <time>2021-08-21T12:27:45Z</time>
      </trkpt>
      <trkpt lat="48.35604" lon="2.76154">
        <ele>85.4</ele>
        <time>2021-08-21T12:27:46Z</time>
      </trkpt>
      <trkpt lat="48.35604" lon="2.76154">
        <ele>85.4</ele>
        <time>2021-08-21T12:27:48Z</time>
      </trkpt>
      <trkpt lat="48.35604" lon="2.76154">
        <ele>85.4</ele>
        <time>2021-08-21T12:27:49Z</time>
      </trkpt>
      <trkpt lat="48.35604" lon="2.76154">
        <ele>85.4</ele>
        <time>2021-08-21T12:27:50Z</time>
      </trkpt>
      <trkpt lat="48.35604" lon="2.76154">
        <ele>85.4</ele>
        <time>2021-08-21T12:27:51Z</time>
      </trkpt>
      <trkpt lat="48.35604" lon="2.76154">
        <ele>85.4</ele>
        <time>2021-08-21T12:27:52Z</time>
      </trkpt>
      <trkpt lat="48.35604" lon="2.76154">
        <ele>85.4</ele>
        <time>2021-08-21T12:27:53Z</time>
      </trkpt>
      <trkpt lat="48.35604" lon="2.76154">
        <ele>85.4</ele>
        <time>2021-08-21T12:27:54Z</time>
      </trkpt>
      <trkpt lat="48.35604" lon="2.76154">
        <ele>85.4</ele>
        <time>2021-08-21T12:27:55Z</time>
      </trkpt>
      <trkpt lat="48.35604" lon="2.76154">
        <ele>85.4</ele>
        <time>2021-08-21T12:27:56Z</time>
      </trkpt>
      <trkpt lat="48.35604" lon="2.76154">
        <ele>85.4</ele>
        <time>2021-08-21T12:27:57Z</time>
      </trkpt>
      <trkpt lat="48.35604" lon="2.76154">
        <ele>85.4</ele>
        <time>2021-08-21T12:27:58Z</time>
      </trkpt>
      <trkpt lat="48.35604" lon="2.76154">
        <ele>85.4</ele>
        <time>2021-08-21T12:27:59Z</time>
      </trkpt>
      <trkpt lat="48.35604" lon="2.76154">
        <ele>85.4</ele>
        <time>2021-08-21T12:28:01Z</time>
      </trkpt>
      <trkpt lat="48.35604" lon="2.76154">
        <ele>85.4</ele>
        <time>2021-08-21T12:28:02Z</time>
      </trkpt>
      <trkpt lat="48.35604" lon="2.76154">
        <ele>85.4</ele>
        <time>2021-08-21T12:28:03Z</time>
      </trkpt>
      <trkpt lat="48.35604" lon="2.76154">
        <ele>85.4</ele>
        <time>2021-08-21T12:28:04Z</time>
      </trkpt>
      <trkpt lat="48.35604" lon="2.76154">
        <ele>85.4</ele>
        <time>2021-08-21T12:28:05Z</time>
      </trkpt>
      <trkpt lat="48.35604" lon="2.76154">
        <ele>85.4</ele>
        <time>2021-08-21T12:28:06Z</time>
      </trkpt>
      <trkpt lat="48.35604" lon="2.76154">
        <ele>85.4</ele>
        <time>2021-08-21T12:28:07Z</time>
      </trkpt>
      <trkpt lat="48.35604" lon="2.76154">
        <ele>85.4</ele>
        <time>2021-08-21T12:28:08Z</time>
      </trkpt>
      <trkpt lat="48.35604" lon="2.76154">
        <ele>85.4</ele>
        <time>2021-08-21T12:28:09Z</time>
      </trkpt>
      <trkpt lat="48.35604" lon="2.76154">
        <ele>85.4</ele>
        <time>2021-08-21T12:28:10Z</time>
      </trkpt>
      <trkpt lat="48.35604" lon="2.76154">
        <ele>85.4</ele>
        <time>2021-08-21T12:28:11Z</time>
      </trkpt>
      <trkpt lat="48.35604" lon="2.76154">
        <ele>85.4</ele>
        <time>2021-08-21T12:28:12Z</time>
      </trkpt>
      <trkpt lat="48.35604" lon="2.76154">
        <ele>85.4</ele>
        <time>2021-08-21T12:28:13Z</time>
      </trkpt>
      <trkpt lat="48.35604" lon="2.76154">
        <ele>85.4</ele>
        <time>2021-08-21T12:28:14Z</time>
      </trkpt>
      <trkpt lat="48.35604" lon="2.76154">
        <ele>85.4</ele>
        <time>2021-08-21T12:28:15Z</time>
      </trkpt>
      <trkpt lat="48.35604" lon="2.76154">
        <ele>85.4</ele>
        <time>2021-08-21T12:28:16Z</time>
      </trkpt>
      <trkpt lat="48.35604" lon="2.76154">
        <ele>85.4</ele>
        <time>2021-08-21T12:28:17Z</time>
      </trkpt>
      <trkpt lat="48.35604" lon="2.76154">
        <ele>85.4</ele>
        <time>2021-08-21T12:28:18Z</time>
      </trkpt>
      <trkpt lat="48.35604" lon="2.76154">
        <ele>85.4</ele>
        <time>2021-08-21T12:28:19Z</time>
      </trkpt>
      <trkpt lat="48.35604" lon="2.76154">
        <ele>85.4</ele>
        <time>2021-08-21T12:28:20Z</time>
      </trkpt>
      <trkpt lat="48.35604" lon="2.76154">
        <ele>85.4</ele>
        <time>2021-08-21T12:28:21Z</time>
      </trkpt>
      <trkpt lat="48.35604" lon="2.76154">
        <ele>85.4</ele>
        <time>2021-08-21T12:28:22Z</time>
      </trkpt>
      <trkpt lat="48.35604" lon="2.76154">
        <ele>85.4</ele>
        <time>2021-08-21T12:28:23Z</time>
      </trkpt>
      <trkpt lat="48.35604" lon="2.76154">
        <ele>85.4</ele>
        <time>2021-08-21T12:28:24Z</time>
      </trkpt>
      <trkpt lat="48.35604" lon="2.76154">
        <ele>85.4</ele>
        <time>2021-08-21T12:28:25Z</time>
      </trkpt>
      <trkpt lat="48.35604" lon="2.76154">
        <ele>85.4</ele>
        <time>2021-08-21T12:28:26Z</time>
      </trkpt>
      <trkpt lat="48.35604" lon="2.76154">
        <ele>85.4</ele>
        <time>2021-08-21T12:28:27Z</time>
      </trkpt>
      <trkpt lat="48.35604" lon="2.76154">
        <ele>85.4</ele>
        <time>2021-08-21T12:28:28Z</time>
      </trkpt>
      <trkpt lat="48.35604" lon="2.76154">
        <ele>85.4</ele>
        <time>2021-08-21T12:28:29Z</time>
      </trkpt>
      <trkpt lat="48.35604" lon="2.76154">
        <ele>85.4</ele>
        <time>2021-08-21T12:28:30Z</time>
      </trkpt>
      <trkpt lat="48.35604" lon="2.76154">
        <ele>85.4</ele>
        <time>2021-08-21T12:28:31Z</time>
      </trkpt>
      <trkpt lat="48.35604" lon="2.76154">
        <ele>85.4</ele>
        <time>2021-08-21T12:28:32Z</time>
      </trkpt>
      <trkpt lat="48.35604" lon="2.76154">
        <ele>85.4</ele>
        <time>2021-08-21T12:28:33Z</time>
      </trkpt>
      <trkpt lat="48.35604" lon="2.76154">
        <ele>85.4</ele>
        <time>2021-08-21T12:28:34Z</time>
      </trkpt>
      <trkpt lat="48.35604" lon="2.76154">
        <ele>85.4</ele>
        <time>2021-08-21T12:28:35Z</time>
      </trkpt>
      <trkpt lat="48.35604" lon="2.76154">
        <ele>85.4</ele>
        <time>2021-08-21T12:28:36Z</time>
      </trkpt>
      <trkpt lat="48.35604" lon="2.76154">
        <ele>85.4</ele>
        <time>2021-08-21T12:28:37Z</time>
      </trkpt>
      <trkpt lat="48.35604" lon="2.76154">
        <ele>85.4</ele>
        <time>2021-08-21T12:28:38Z</time>
      </trkpt>
      <trkpt lat="48.35604" lon="2.76154">
        <ele>85.4</ele>
        <time>2021-08-21T12:28:39Z</time>
      </trkpt>
      <trkpt lat="48.35604" lon="2.76154">
        <ele>85.4</ele>
        <time>2021-08-21T12:28:40Z</time>
      </trkpt>
      <trkpt lat="48.35604" lon="2.76154">
        <ele>85.4</ele>
        <time>2021-08-21T12:28:41Z</time>
      </trkpt>
      <trkpt lat="48.35604" lon="2.76154">
        <ele>85.4</ele>
        <time>2021-08-21T12:28:42Z</time>
      </trkpt>
      <trkpt lat="48.35604" lon="2.76154">
        <ele>85.4</ele>
        <time>2021-08-21T12:28:43Z</time>
      </trkpt>
      <trkpt lat="48.35604" lon="2.76154">
        <ele>85.4</ele>
        <time>2021-08-21T12:28:44Z</time>
      </trkpt>
      <trkpt lat="48.35604" lon="2.76154">
        <ele>85.4</ele>
        <time>2021-08-21T12:28:45Z</time>
      </trkpt>
      <trkpt lat="48.35604" lon="2.76154">
        <ele>85.4</ele>
        <time>2021-08-21T12:28:46Z</time>
      </trkpt>
      <trkpt lat="48.35604" lon="2.76154">
        <ele>85.4</ele>
        <time>2021-08-21T12:28:47Z</time>
      </trkpt>
      <trkpt lat="48.35604" lon="2.76154">
        <ele>85.4</ele>
        <time>2021-08-21T12:28:48Z</time>
      </trkpt>
      <trkpt lat="48.35604" lon="2.76154">
        <ele>85.4</ele>
        <time>2021-08-21T12:28:49Z</time>
      </trkpt>
      <trkpt lat="48.35604" lon="2.76154">
        <ele>85.4</ele>
        <time>2021-08-21T12:28:50Z</time>
      </trkpt>
      <trkpt lat="48.35604" lon="2.76154">
        <ele>85.4</ele>
        <time>2021-08-21T12:28:51Z</time>
      </trkpt>
      <trkpt lat="48.35604" lon="2.76154">
        <ele>85.4</ele>
        <time>2021-08-21T12:28:53Z</time>
      </trkpt>
      <trkpt lat="48.35604" lon="2.76154">
        <ele>85.4</ele>
        <time>2021-08-21T12:28:54Z</time>
      </trkpt>
      <trkpt lat="48.35604" lon="2.76154">
        <ele>85.4</ele>
        <time>2021-08-21T12:28:55Z</time>
      </trkpt>
      <trkpt lat="48.35604" lon="2.76154">
        <ele>85.4</ele>
        <time>2021-08-21T12:28:56Z</time>
      </trkpt>
      <trkpt lat="48.35604" lon="2.76154">
        <ele>85.4</ele>
        <time>2021-08-21T12:28:57Z</time>
      </trkpt>
      <trkpt lat="48.35604" lon="2.76154">
        <ele>85.4</ele>
        <time>2021-08-21T12:28:58Z</time>
      </trkpt>
      <trkpt lat="48.35604" lon="2.76154">
        <ele>85.4</ele>
        <time>2021-08-21T12:28:59Z</time>
      </trkpt>
      <trkpt lat="48.35604" lon="2.76154">
        <ele>85.4</ele>
        <time>2021-08-21T12:29:00Z</time>
      </trkpt>
      <trkpt lat="48.35604" lon="2.76154">
        <ele>85.4</ele>
        <time>2021-08-21T12:29:01Z</time>
      </trkpt>
      <trkpt lat="48.35604" lon="2.76154">
        <ele>85.4</ele>
        <time>2021-08-21T12:29:02Z</time>
      </trkpt>
      <trkpt lat="48.35604" lon="2.76154">
        <ele>85.4</ele>
        <time>2021-08-21T12:29:03Z</time>
      </trkpt>
      <trkpt lat="48.35604" lon="2.76154">
        <ele>85.4</ele>
        <time>2021-08-21T12:29:04Z</time>
      </trkpt>
      <trkpt lat="48.35604" lon="2.76154">
        <ele>85.4</ele>
        <time>2021-08-21T12:29:05Z</time>
      </trkpt>
      <trkpt lat="48.35604" lon="2.76154">
        <ele>85.4</ele>
        <time>2021-08-21T12:29:06Z</time>
      </trkpt>
      <trkpt lat="48.35604" lon="2.76154">
        <ele>85.4</ele>
        <time>2021-08-21T12:29:07Z</time>
      </trkpt>
      <trkpt lat="48.35604" lon="2.76154">
        <ele>85.4</ele>
        <time>2021-08-21T12:29:08Z</time>
      </trkpt>
      <trkpt lat="48.35604" lon="2.76154">
        <ele>85.4</ele>
        <time>2021-08-21T12:29:09Z</time>
      </trkpt>
      <trkpt lat="48.35604" lon="2.76154">
        <ele>85.4</ele>
        <time>2021-08-21T12:29:10Z</time>
      </trkpt>
      <trkpt lat="48.35604" lon="2.76154">
        <ele>85.4</ele>
        <time>2021-08-21T12:29:11Z</time>
      </trkpt>
      <trkpt lat="48.35604" lon="2.76154">
        <ele>85.4</ele>
        <time>2021-08-21T12:29:12Z</time>
      </trkpt>
      <trkpt lat="48.35604" lon="2.76154">
        <ele>85.4</ele>
        <time>2021-08-21T12:29:13Z</time>
      </trkpt>
      <trkpt lat="48.35604" lon="2.76154">
        <ele>85.4</ele>
        <time>2021-08-21T12:29:14Z</time>
      </trkpt>
      <trkpt lat="48.35604" lon="2.76154">
        <ele>85.4</ele>
        <time>2021-08-21T12:29:15Z</time>
      </trkpt>
      <trkpt lat="48.35604" lon="2.76154">
        <ele>85.4</ele>
        <time>2021-08-21T12:29:16Z</time>
      </trkpt>
      <trkpt lat="48.35604" lon="2.76154">
        <ele>85.4</ele>
        <time>2021-08-21T12:29:17Z</time>
      </trkpt>
      <trkpt lat="48.35604" lon="2.76154">
        <ele>85.4</ele>
        <time>2021-08-21T12:29:18Z</time>
      </trkpt>
      <trkpt lat="48.35604" lon="2.76154">
        <ele>85.4</ele>
        <time>2021-08-21T12:29:19Z</time>
      </trkpt>
      <trkpt lat="48.35604" lon="2.76154">
        <ele>85.4</ele>
        <time>2021-08-21T12:29:20Z</time>
      </trkpt>
      <trkpt lat="48.35604" lon="2.76154">
        <ele>85.4</ele>
        <time>2021-08-21T12:29:21Z</time>
      </trkpt>
      <trkpt lat="48.35604" lon="2.76154">
        <ele>85.4</ele>
        <time>2021-08-21T12:29:22Z</time>
      </trkpt>
      <trkpt lat="48.35604" lon="2.76154">
        <ele>85.4</ele>
        <time>2021-08-21T12:29:23Z</time>
      </trkpt>
      <trkpt lat="48.35604" lon="2.76154">
        <ele>85.4</ele>
        <time>2021-08-21T12:29:24Z</time>
      </trkpt>
      <trkpt lat="48.35604" lon="2.76154">
        <ele>85.4</ele>
        <time>2021-08-21T12:29:25Z</time>
      </trkpt>
      <trkpt lat="48.35604" lon="2.76154">
        <ele>85.4</ele>
        <time>2021-08-21T12:29:26Z</time>
      </trkpt>
      <trkpt lat="48.35604" lon="2.76154">
        <ele>85.4</ele>
        <time>2021-08-21T12:29:27Z</time>
      </trkpt>
      <trkpt lat="48.35604" lon="2.76154">
        <ele>85.4</ele>
        <time>2021-08-21T12:29:28Z</time>
      </trkpt>
      <trkpt lat="48.35604" lon="2.76154">
        <ele>85.4</ele>
        <time>2021-08-21T12:29:29Z</time>
      </trkpt>
      <trkpt lat="48.35604" lon="2.76154">
        <ele>85.4</ele>
        <time>2021-08-21T12:29:30Z</time>
      </trkpt>
      <trkpt lat="48.35604" lon="2.76154">
        <ele>85.4</ele>
        <time>2021-08-21T12:29:31Z</time>
      </trkpt>
      <trkpt lat="48.35604" lon="2.76154">
        <ele>85.4</ele>
        <time>2021-08-21T12:29:32Z</time>
      </trkpt>
      <trkpt lat="48.35604" lon="2.76154">
        <ele>85.4</ele>
        <time>2021-08-21T12:29:33Z</time>
      </trkpt>
      <trkpt lat="48.35604" lon="2.76154">
        <ele>85.4</ele>
        <time>2021-08-21T12:29:34Z</time>
      </trkpt>
      <trkpt lat="48.35604" lon="2.76154">
        <ele>85.4</ele>
        <time>2021-08-21T12:29:35Z</time>
      </trkpt>
      <trkpt lat="48.35604" lon="2.76154">
        <ele>85.4</ele>
        <time>2021-08-21T12:29:36Z</time>
      </trkpt>
      <trkpt lat="48.35604" lon="2.76154">
        <ele>85.4</ele>
        <time>2021-08-21T12:29:37Z</time>
      </trkpt>
      <trkpt lat="48.35604" lon="2.76154">
        <ele>85.4</ele>
        <time>2021-08-21T12:29:38Z</time>
      </trkpt>
      <trkpt lat="48.35604" lon="2.76154">
        <ele>85.4</ele>
        <time>2021-08-21T12:29:39Z</time>
      </trkpt>
      <trkpt lat="48.35604" lon="2.76154">
        <ele>85.4</ele>
        <time>2021-08-21T12:29:40Z</time>
      </trkpt>
      <trkpt lat="48.35604" lon="2.76154">
        <ele>85.4</ele>
        <time>2021-08-21T12:29:41Z</time>
      </trkpt>
      <trkpt lat="48.35604" lon="2.76154">
        <ele>85.4</ele>
        <time>2021-08-21T12:29:42Z</time>
      </trkpt>
      <trkpt lat="48.35604" lon="2.76154">
        <ele>85.4</ele>
        <time>2021-08-21T12:29:43Z</time>
      </trkpt>
      <trkpt lat="48.35604" lon="2.76154">
        <ele>85.4</ele>
        <time>2021-08-21T12:29:44Z</time>
      </trkpt>
      <trkpt lat="48.35604" lon="2.76154">
        <ele>85.4</ele>
        <time>2021-08-21T12:29:45Z</time>
      </trkpt>
      <trkpt lat="48.35604" lon="2.76154">
        <ele>85.4</ele>
        <time>2021-08-21T12:29:46Z</time>
      </trkpt>
      <trkpt lat="48.35604" lon="2.76154">
        <ele>85.4</ele>
        <time>2021-08-21T12:29:47Z</time>
      </trkpt>
      <trkpt lat="48.35604" lon="2.76154">
        <ele>85.4</ele>
        <time>2021-08-21T12:29:48Z</time>
      </trkpt>
      <trkpt lat="48.35604" lon="2.76154">
        <ele>85.4</ele>
        <time>2021-08-21T12:29:49Z</time>
      </trkpt>
      <trkpt lat="48.35604" lon="2.76154">
        <ele>85.4</ele>
        <time>2021-08-21T12:29:50Z</time>
      </trkpt>
      <trkpt lat="48.35604" lon="2.76154">
        <ele>85.4</ele>
        <time>2021-08-21T12:29:51Z</time>
      </trkpt>
      <trkpt lat="48.35604" lon="2.76154">
        <ele>85.4</ele>
        <time>2021-08-21T12:29:52Z</time>
      </trkpt>
      <trkpt lat="48.35604" lon="2.76154">
        <ele>85.4</ele>
        <time>2021-08-21T12:29:53Z</time>
      </trkpt>
      <trkpt lat="48.35604" lon="2.76154">
        <ele>85.4</ele>
        <time>2021-08-21T12:29:54Z</time>
      </trkpt>
      <trkpt lat="48.35604" lon="2.76154">
        <ele>85.4</ele>
        <time>2021-08-21T12:29:55Z</time>
      </trkpt>
      <trkpt lat="48.35604" lon="2.76154">
        <ele>85.4</ele>
        <time>2021-08-21T12:29:56Z</time>
      </trkpt>
      <trkpt lat="48.35604" lon="2.76154">
        <ele>85.4</ele>
        <time>2021-08-21T12:29:57Z</time>
      </trkpt>
      <trkpt lat="48.35604" lon="2.76154">
        <ele>85.4</ele>
        <time>2021-08-21T12:29:58Z</time>
      </trkpt>
      <trkpt lat="48.35604" lon="2.76154">
        <ele>85.4</ele>
        <time>2021-08-21T12:29:59Z</time>
      </trkpt>
      <trkpt lat="48.35604" lon="2.76154">
        <ele>85.4</ele>
        <time>2021-08-21T12:30:00Z</time>
      </trkpt>
      <trkpt lat="48.35604" lon="2.76154">
        <ele>85.4</ele>
        <time>2021-08-21T12:30:01Z</time>
      </trkpt>
      <trkpt lat="48.35604" lon="2.76154">
        <ele>85.4</ele>
        <time>2021-08-21T12:30:02Z</time>
      </trkpt>
      <trkpt lat="48.35604" lon="2.76154">
        <ele>85.4</ele>
        <time>2021-08-21T12:30:03Z</time>
      </trkpt>
      <trkpt lat="48.35604" lon="2.76154">
        <ele>85.4</ele>
        <time>2021-08-21T12:30:04Z</time>
      </trkpt>
      <trkpt lat="48.35604" lon="2.76154">
        <ele>85.4</ele>
        <time>2021-08-21T12:30:05Z</time>
      </trkpt>
      <trkpt lat="48.35604" lon="2.76154">
        <ele>85.4</ele>
        <time>2021-08-21T12:30:07Z</time>
      </trkpt>
      <trkpt lat="48.35604" lon="2.76154">
        <ele>85.4</ele>
        <time>2021-08-21T12:30:08Z</time>
      </trkpt>
      <trkpt lat="48.35604" lon="2.76154">
        <ele>85.4</ele>
        <time>2021-08-21T12:30:09Z</time>
      </trkpt>
      <trkpt lat="48.35604" lon="2.76154">
        <ele>85.4</ele>
        <time>2021-08-21T12:30:10Z</time>
      </trkpt>
      <trkpt lat="48.35604" lon="2.76154">
        <ele>85.4</ele>
        <time>2021-08-21T12:30:11Z</time>
      </trkpt>
      <trkpt lat="48.35604" lon="2.76154">
        <ele>85.4</ele>
        <time>2021-08-21T12:30:12Z</time>
      </trkpt>
      <trkpt lat="48.35604" lon="2.76154">
        <ele>85.4</ele>
        <time>2021-08-21T12:30:13Z</time>
      </trkpt>
      <trkpt lat="48.35604" lon="2.76154">
        <ele>85.4</ele>
        <time>2021-08-21T12:30:14Z</time>
      </trkpt>
      <trkpt lat="48.35604" lon="2.76154">
        <ele>85.4</ele>
        <time>2021-08-21T12:30:15Z</time>
      </trkpt>
      <trkpt lat="48.35604" lon="2.76154">
        <ele>85.4</ele>
        <time>2021-08-21T12:30:16Z</time>
      </trkpt>
      <trkpt lat="48.35604" lon="2.76154">
        <ele>85.4</ele>
        <time>2021-08-21T12:30:17Z</time>
      </trkpt>
      <trkpt lat="48.35604" lon="2.76154">
        <ele>85.4</ele>
        <time>2021-08-21T12:30:18Z</time>
      </trkpt>
      <trkpt lat="48.35604" lon="2.76154">
        <ele>85.4</ele>
        <time>2021-08-21T12:30:19Z</time>
      </trkpt>
      <trkpt lat="48.35604" lon="2.76154">
        <ele>85.4</ele>
        <time>2021-08-21T12:30:20Z</time>
      </trkpt>
      <trkpt lat="48.35604" lon="2.76154">
        <ele>85.4</ele>
        <time>2021-08-21T12:30:21Z</time>
      </trkpt>
      <trkpt lat="48.35604" lon="2.76154">
        <ele>85.4</ele>
        <time>2021-08-21T12:30:22Z</time>
      </trkpt>
      <trkpt lat="48.35604" lon="2.76154">
        <ele>85.4</ele>
        <time>2021-08-21T12:30:23Z</time>
      </trkpt>
      <trkpt lat="48.35604" lon="2.76154">
        <ele>85.4</ele>
        <time>2021-08-21T12:30:24Z</time>
      </trkpt>
      <trkpt lat="48.35604" lon="2.76154">
        <ele>85.4</ele>
        <time>2021-08-21T12:30:25Z</time>
      </trkpt>
      <trkpt lat="48.35604" lon="2.76154">
        <ele>85.4</ele>
        <time>2021-08-21T12:30:26Z</time>
      </trkpt>
      <trkpt lat="48.35604" lon="2.76153">
        <ele>85.4</ele>
        <time>2021-08-21T12:30:27Z</time>
      </trkpt>
      <trkpt lat="48.35605" lon="2.76152">
        <ele>85.4</ele>
        <time>2021-08-21T12:30:28Z</time>
      </trkpt>
      <trkpt lat="48.35605" lon="2.76151">
        <ele>85.4</ele>
        <time>2021-08-21T12:30:29Z</time>
      </trkpt>
      <trkpt lat="48.35604" lon="2.76151">
        <ele>85.4</ele>
        <time>2021-08-21T12:30:30Z</time>
      </trkpt>
      <trkpt lat="48.35604" lon="2.76151">
        <ele>85.4</ele>
        <time>2021-08-21T12:30:31Z</time>
      </trkpt>
      <trkpt lat="48.35604" lon="2.7615">
        <ele>85.4</ele>
        <time>2021-08-21T12:30:32Z</time>
      </trkpt>
      <trkpt lat="48.35603" lon="2.7615">
        <ele>85.3</ele>
        <time>2021-08-21T12:30:33Z</time>
      </trkpt>
      <trkpt lat="48.35603" lon="2.7615">
        <ele>85.3</ele>
        <time>2021-08-21T12:30:34Z</time>
      </trkpt>
      <trkpt lat="48.35602" lon="2.7615">
        <ele>85.3</ele>
        <time>2021-08-21T12:30:35Z</time>
      </trkpt>
      <trkpt lat="48.35602" lon="2.76149">
        <ele>85.3</ele>
        <time>2021-08-21T12:30:36Z</time>
      </trkpt>
      <trkpt lat="48.35601" lon="2.76149">
        <ele>85.3</ele>
        <time>2021-08-21T12:30:38Z</time>
      </trkpt>
      <trkpt lat="48.35601" lon="2.76149">
        <ele>85.3</ele>
        <time>2021-08-21T12:30:39Z</time>
      </trkpt>
      <trkpt lat="48.356" lon="2.76149">
        <ele>85.3</ele>
        <time>2021-08-21T12:30:40Z</time>
      </trkpt>
      <trkpt lat="48.3559" lon="2.7615">
        <ele>85.3</ele>
        <time>2021-08-21T12:30:41Z</time>
      </trkpt>
      <trkpt lat="48.35576" lon="2.76155">
        <ele>85.3</ele>
        <time>2021-08-21T12:30:42Z</time>
      </trkpt>
      <trkpt lat="48.35549" lon="2.76168">
        <ele>85.5</ele>
        <time>2021-08-21T12:30:44Z</time>
      </trkpt>
      <trkpt lat="48.35538" lon="2.76175">
        <ele>85.7</ele>
        <time>2021-08-21T12:30:45Z</time>
      </trkpt>
      <trkpt lat="48.35518" lon="2.76193">
        <ele>86.2</ele>
        <time>2021-08-21T12:30:47Z</time>
      </trkpt>
      <trkpt lat="48.35501" lon="2.76215">
        <ele>87</ele>
        <time>2021-08-21T12:30:49Z</time>
      </trkpt>
      <trkpt lat="48.35488" lon="2.76237">
        <ele>87.9</ele>
        <time>2021-08-21T12:30:51Z</time>
      </trkpt>
      <trkpt lat="48.35483" lon="2.7625">
        <ele>88.4</ele>
        <time>2021-08-21T12:30:52Z</time>
      </trkpt>
      <trkpt lat="48.35477" lon="2.76276">
        <ele>89.4</ele>
        <time>2021-08-21T12:30:54Z</time>
      </trkpt>
      <trkpt lat="48.35466" lon="2.76294">
        <ele>90.5</ele>
        <time>2021-08-21T12:30:56Z</time>
      </trkpt>
      <trkpt lat="48.35451" lon="2.76296">
        <ele>91.5</ele>
        <time>2021-08-21T12:30:58Z</time>
      </trkpt>
      <trkpt lat="48.35442" lon="2.76281">
        <ele>92.2</ele>
        <time>2021-08-21T12:31:00Z</time>
      </trkpt>
      <trkpt lat="48.35438" lon="2.76261">
        <ele>92.9</ele>
        <time>2021-08-21T12:31:02Z</time>
      </trkpt>
      <trkpt lat="48.35434" lon="2.76234">
        <ele>93.7</ele>
        <time>2021-08-21T12:31:04Z</time>
      </trkpt>
      <trkpt lat="48.35429" lon="2.7622">
        <ele>94.1</ele>
        <time>2021-08-21T12:31:05Z</time>
      </trkpt>
      <trkpt lat="48.35417" lon="2.76197">
        <ele>95.2</ele>
        <time>2021-08-21T12:31:07Z</time>
      </trkpt>
      <trkpt lat="48.35409" lon="2.76186">
        <ele>95.9</ele>
        <time>2021-08-21T12:31:08Z</time>
      </trkpt>
      <trkpt lat="48.35401" lon="2.76174">
        <ele>96.6</ele>
        <time>2021-08-21T12:31:09Z</time>
      </trkpt>
      <trkpt lat="48.35391" lon="2.76145">
        <ele>98.1</ele>
        <time>2021-08-21T12:31:11Z</time>
      </trkpt>
      <trkpt lat="48.35385" lon="2.76116">
        <ele>99.4</ele>
        <time>2021-08-21T12:31:13Z</time>
      </trkpt>
      <trkpt lat="48.35381" lon="2.76105">
        <ele>100</ele>
        <time>2021-08-21T12:31:14Z</time>
      </trkpt>
      <trkpt lat="48.35367" lon="2.76091">
        <ele>100.9</ele>
        <time>2021-08-21T12:31:16Z</time>
      </trkpt>
      <trkpt lat="48.35352" lon="2.76095">
        <ele>101.2</ele>
        <time>2021-08-21T12:31:18Z</time>
      </trkpt>
      <trkpt lat="48.35345" lon="2.76104">
        <ele>101.6</ele>
        <time>2021-08-21T12:31:19Z</time>
      </trkpt>
      <trkpt lat="48.35338" lon="2.7613">
        <ele>102.4</ele>
        <time>2021-08-21T12:31:21Z</time>
      </trkpt>
      <trkpt lat="48.35338" lon="2.76146">
        <ele>102.8</ele>
        <time>2021-08-21T12:31:22Z</time>
      </trkpt>
      <trkpt lat="48.35339" lon="2.76179">
        <ele>103.7</ele>
        <time>2021-08-21T12:31:24Z</time>
      </trkpt>
      <trkpt lat="48.35335" lon="2.76214">
        <ele>104.3</ele>
        <time>2021-08-21T12:31:26Z</time>
      </trkpt>
      <trkpt lat="48.35321" lon="2.76241">
        <ele>104.5</ele>
        <time>2021-08-21T12:31:28Z</time>
      </trkpt>
      <trkpt lat="48.35301" lon="2.76255">
        <ele>103.9</ele>
        <time>2021-08-21T12:31:30Z</time>
      </trkpt>
      <trkpt lat="48.35289" lon="2.76259">
        <ele>103.4</ele>
        <time>2021-08-21T12:31:31Z</time>
      </trkpt>
      <trkpt lat="48.3527" lon="2.7627">
        <ele>102.4</ele>
        <time>2021-08-21T12:31:33Z</time>
      </trkpt>
      <trkpt lat="48.35255" lon="2.76298">
        <ele>101</ele>
        <time>2021-08-21T12:31:35Z</time>
      </trkpt>
      <trkpt lat="48.35249" lon="2.76316">
        <ele>100.3</ele>
        <time>2021-08-21T12:31:36Z</time>
      </trkpt>
      <trkpt lat="48.35242" lon="2.76334">
        <ele>99.3</ele>
        <time>2021-08-21T12:31:37Z</time>
      </trkpt>
      <trkpt lat="48.35235" lon="2.76354">
        <ele>98.2</ele>
        <time>2021-08-21T12:31:38Z</time>
      </trkpt>
      <trkpt lat="48.35227" lon="2.76374">
        <ele>97</ele>
        <time>2021-08-21T12:31:39Z</time>
      </trkpt>
      <trkpt lat="48.35206" lon="2.76412">
        <ele>94.4</ele>
        <time>2021-08-21T12:31:41Z</time>
      </trkpt>
      <trkpt lat="48.35194" lon="2.76428">
        <ele>93.3</ele>
        <time>2021-08-21T12:31:42Z</time>
      </trkpt>
      <trkpt lat="48.35166" lon="2.7646">
        <ele>91.1</ele>
        <time>2021-08-21T12:31:44Z</time>
      </trkpt>
      <trkpt lat="48.35137" lon="2.76489">
        <ele>89.6</ele>
        <time>2021-08-21T12:31:46Z</time>
      </trkpt>
      <trkpt lat="48.35123" lon="2.76503">
        <ele>89.3</ele>
        <time>2021-08-21T12:31:47Z</time>
      </trkpt>
      <trkpt lat="48.35095" lon="2.76529">
        <ele>89.5</ele>
        <time>2021-08-21T12:31:49Z</time>
      </trkpt>
      <trkpt lat="48.35082" lon="2.76542">
        <ele>89.6</ele>
        <time>2021-08-21T12:31:50Z</time>
      </trkpt>
      <trkpt lat="48.35055" lon="2.76571">
        <ele>89.9</ele>
        <time>2021-08-21T12:31:52Z</time>
      </trkpt>
      <trkpt lat="48.35027" lon="2.76599">
        <ele>90.3</ele>
        <time>2021-08-21T12:31:54Z</time>
      </trkpt>
      <trkpt lat="48.35012" lon="2.76614">
        <ele>90.5</ele>
        <time>2021-08-21T12:31:55Z</time>
      </trkpt>
      <trkpt lat="48.34998" lon="2.76628">
        <ele>90.8</ele>
        <time>2021-08-21T12:31:56Z</time>
      </trkpt>
      <trkpt lat="48.34983" lon="2.76643">
        <ele>91.1</ele>
        <time>2021-08-21T12:31:57Z</time>
      </trkpt>
      <trkpt lat="48.34968" lon="2.76659">
        <ele>91.3</ele>
        <time>2021-08-21T12:31:58Z</time>
      </trkpt>
      <trkpt lat="48.34954" lon="2.76677">
        <ele>91.2</ele>
        <time>2021-08-21T12:31:59Z</time>
      </trkpt>
      <trkpt lat="48.34926" lon="2.76709">
        <ele>90.7</ele>
        <time>2021-08-21T12:32:01Z</time>
      </trkpt>
      <trkpt lat="48.34911" lon="2.76726">
        <ele>90.4</ele>
        <time>2021-08-21T12:32:02Z</time>
      </trkpt>
      <trkpt lat="48.34882" lon="2.76761">
        <ele>89.8</ele>
        <time>2021-08-21T12:32:04Z</time>
      </trkpt>
      <trkpt lat="48.34852" lon="2.76798">
        <ele>89.4</ele>
        <time>2021-08-21T12:32:06Z</time>
      </trkpt>
      <trkpt lat="48.34837" lon="2.76817">
        <ele>89.2</ele>
        <time>2021-08-21T12:32:07Z</time>
      </trkpt>
      <trkpt lat="48.34822" lon="2.76835">
        <ele>89</ele>
        <time>2021-08-21T12:32:08Z</time>
      </trkpt>
      <trkpt lat="48.34792" lon="2.76871">
        <ele>88.3</ele>
        <time>2021-08-21T12:32:10Z</time>
      </trkpt>
      <trkpt lat="48.34777" lon="2.76889">
        <ele>87.8</ele>
        <time>2021-08-21T12:32:11Z</time>
      </trkpt>
      <trkpt lat="48.34748" lon="2.76924">
        <ele>86.7</ele>
        <time>2021-08-21T12:32:13Z</time>
      </trkpt>
      <trkpt lat="48.34734" lon="2.76942">
        <ele>86</ele>
        <time>2021-08-21T12:32:14Z</time>
      </trkpt>
      <trkpt lat="48.3472" lon="2.76958">
        <ele>85.2</ele>
        <time>2021-08-21T12:32:15Z</time>
      </trkpt>
      <trkpt lat="48.34705" lon="2.76974">
        <ele>84.2</ele>
        <time>2021-08-21T12:32:16Z</time>
      </trkpt>
      <trkpt lat="48.34691" lon="2.76988">
        <ele>83</ele>
        <time>2021-08-21T12:32:17Z</time>
      </trkpt>
      <trkpt lat="48.34662" lon="2.77014">
        <ele>80.3</ele>
        <time>2021-08-21T12:32:19Z</time>
      </trkpt>
      <trkpt lat="48.34632" lon="2.77043">
        <ele>77.5</ele>
        <time>2021-08-21T12:32:21Z</time>
      </trkpt>
      <trkpt lat="48.34616" lon="2.77057">
        <ele>76.1</ele>
        <time>2021-08-21T12:32:22Z</time>
      </trkpt>
      <trkpt lat="48.34583" lon="2.77086">
        <ele>73.1</ele>
        <time>2021-08-21T12:32:24Z</time>
      </trkpt>
      <trkpt lat="48.34552" lon="2.77113">
        <ele>70.9</ele>
        <time>2021-08-21T12:32:26Z</time>
      </trkpt>
      <trkpt lat="48.34521" lon="2.77142">
        <ele>67.9</ele>
        <time>2021-08-21T12:32:28Z</time>
      </trkpt>
      <trkpt lat="48.34505" lon="2.77157">
        <ele>66.3</ele>
        <time>2021-08-21T12:32:29Z</time>
      </trkpt>
      <trkpt lat="48.34474" lon="2.77186">
        <ele>64.2</ele>
        <time>2021-08-21T12:32:31Z</time>
      </trkpt>
      <trkpt lat="48.34458" lon="2.772">
        <ele>63.7</ele>
        <time>2021-08-21T12:32:32Z</time>
      </trkpt>
      <trkpt lat="48.34429" lon="2.77229">
        <ele>61.9</ele>
        <time>2021-08-21T12:32:34Z</time>
      </trkpt>
      <trkpt lat="48.34416" lon="2.77243">
        <ele>61.1</ele>
        <time>2021-08-21T12:32:35Z</time>
      </trkpt>
      <trkpt lat="48.34391" lon="2.77269">
        <ele>59.5</ele>
        <time>2021-08-21T12:32:37Z</time>
      </trkpt>
      <trkpt lat="48.34379" lon="2.77281">
        <ele>58.9</ele>
        <time>2021-08-21T12:32:38Z</time>
      </trkpt>
      <trkpt lat="48.34357" lon="2.77303">
        <ele>57.9</ele>
        <time>2021-08-21T12:32:40Z</time>
      </trkpt>
      <trkpt lat="48.34338" lon="2.77322">
        <ele>57</ele>
        <time>2021-08-21T12:32:42Z</time>
      </trkpt>
      <trkpt lat="48.34319" lon="2.77342">
        <ele>56.7</ele>
        <time>2021-08-21T12:32:44Z</time>
      </trkpt>
      <trkpt lat="48.34297" lon="2.77361">
        <ele>56.5</ele>
        <time>2021-08-21T12:32:46Z</time>
      </trkpt>
      <trkpt lat="48.34286" lon="2.77369">
        <ele>56.4</ele>
        <time>2021-08-21T12:32:47Z</time>
      </trkpt>
      <trkpt lat="48.34273" lon="2.7738">
        <ele>56.3</ele>
        <time>2021-08-21T12:32:48Z</time>
      </trkpt>
      <trkpt lat="48.3426" lon="2.7739">
        <ele>56.3</ele>
        <time>2021-08-21T12:32:49Z</time>
      </trkpt>
      <trkpt lat="48.34246" lon="2.77401">
        <ele>56.3</ele>
        <time>2021-08-21T12:32:50Z</time>
      </trkpt>
      <trkpt lat="48.34217" lon="2.77424">
        <ele>56.3</ele>
        <time>2021-08-21T12:32:52Z</time>
      </trkpt>
      <trkpt lat="48.34202" lon="2.77435">
        <ele>56.2</ele>
        <time>2021-08-21T12:32:53Z</time>
      </trkpt>
      <trkpt lat="48.34173" lon="2.77453">
        <ele>56.2</ele>
        <time>2021-08-21T12:32:55Z</time>
      </trkpt>
      <trkpt lat="48.34142" lon="2.77463">
        <ele>56.1</ele>
        <time>2021-08-21T12:32:57Z</time>
      </trkpt>
      <trkpt lat="48.34126" lon="2.77466">
        <ele>56</ele>
        <time>2021-08-21T12:32:58Z</time>
      </trkpt>
      <trkpt lat="48.34093" lon="2.77469">
        <ele>55.8</ele>
        <time>2021-08-21T12:33:00Z</time>
      </trkpt>
      <trkpt lat="48.34078" lon="2.77471">
        <ele>55.6</ele>
        <time>2021-08-21T12:33:01Z</time>
      </trkpt>
      <trkpt lat="48.34063" lon="2.77477">
        <ele>55.4</ele>
        <time>2021-08-21T12:33:02Z</time>
      </trkpt>
      <trkpt lat="48.34035" lon="2.77502">
        <ele>54.9</ele>
        <time>2021-08-21T12:33:04Z</time>
      </trkpt>
      <trkpt lat="48.34009" lon="2.77534">
        <ele>54.3</ele>
        <time>2021-08-21T12:33:06Z</time>
      </trkpt>
      <trkpt lat="48.33983" lon="2.77571">
        <ele>53.7</ele>
        <time>2021-08-21T12:33:08Z</time>
      </trkpt>
      <trkpt lat="48.3397" lon="2.77589">
        <ele>53.5</ele>
        <time>2021-08-21T12:33:09Z</time>
      </trkpt>
      <trkpt lat="48.33957" lon="2.77609">
        <ele>53.3</ele>
        <time>2021-08-21T12:33:10Z</time>
      </trkpt>
      <trkpt lat="48.33943" lon="2.77628">
        <ele>53.2</ele>
        <time>2021-08-21T12:33:11Z</time>
      </trkpt>
      <trkpt lat="48.33916" lon="2.7767">
        <ele>53</ele>
        <time>2021-08-21T12:33:13Z</time>
      </trkpt>
      <trkpt lat="48.33903" lon="2.77692">
        <ele>53</ele>
        <time>2021-08-21T12:33:14Z</time>
      </trkpt>
      <trkpt lat="48.33889" lon="2.77714">
        <ele>53</ele>
        <time>2021-08-21T12:33:15Z</time>
      </trkpt>
      <trkpt lat="48.3386" lon="2.77757">
        <ele>52.9</ele>
        <time>2021-08-21T12:33:17Z</time>
      </trkpt>
      <trkpt lat="48.33833" lon="2.77799">
        <ele>52.9</ele>
        <time>2021-08-21T12:33:19Z</time>
      </trkpt>
      <trkpt lat="48.33819" lon="2.7782">
        <ele>53</ele>
        <time>2021-08-21T12:33:20Z</time>
      </trkpt>
      <trkpt lat="48.33805" lon="2.77841">
        <ele>53</ele>
        <time>2021-08-21T12:33:21Z</time>
      </trkpt>
      <trkpt lat="48.3378" lon="2.77881">
        <ele>52.9</ele>
        <time>2021-08-21T12:33:23Z</time>
      </trkpt>
      <trkpt lat="48.33755" lon="2.77918">
        <ele>52.8</ele>
        <time>2021-08-21T12:33:25Z</time>
      </trkpt>
      <trkpt lat="48.33742" lon="2.77934">
        <ele>52.7</ele>
        <time>2021-08-21T12:33:26Z</time>
      </trkpt>
      <trkpt lat="48.33728" lon="2.77946">
        <ele>52.7</ele>
        <time>2021-08-21T12:33:27Z</time>
      </trkpt>
      <trkpt lat="48.33713" lon="2.77956">
        <ele>52.7</ele>
        <time>2021-08-21T12:33:28Z</time>
      </trkpt>
      <trkpt lat="48.33697" lon="2.77962">
        <ele>52.7</ele>
        <time>2021-08-21T12:33:29Z</time>
      </trkpt>
      <trkpt lat="48.33666" lon="2.77967">
        <ele>52.7</ele>
        <time>2021-08-21T12:33:31Z</time>
      </trkpt>
      <trkpt lat="48.33651" lon="2.77968">
        <ele>52.7</ele>
        <time>2021-08-21T12:33:32Z</time>
      </trkpt>
      <trkpt lat="48.33635" lon="2.77969">
        <ele>52.7</ele>
        <time>2021-08-21T12:33:33Z</time>
      </trkpt>
      <trkpt lat="48.3362" lon="2.77969">
        <ele>52.7</ele>
        <time>2021-08-21T12:33:34Z</time>
      </trkpt>
      <trkpt lat="48.33592" lon="2.77973">
        <ele>52.9</ele>
        <time>2021-08-21T12:33:36Z</time>
      </trkpt>
      <trkpt lat="48.33568" lon="2.77987">
        <ele>53</ele>
        <time>2021-08-21T12:33:38Z</time>
      </trkpt>
      <trkpt lat="48.33546" lon="2.7801">
        <ele>53.1</ele>
        <time>2021-08-21T12:33:40Z</time>
      </trkpt>
      <trkpt lat="48.3353" lon="2.7804">
        <ele>53.2</ele>
        <time>2021-08-21T12:33:42Z</time>
      </trkpt>
      <trkpt lat="48.33522" lon="2.78053">
        <ele>53.3</ele>
        <time>2021-08-21T12:33:43Z</time>
      </trkpt>
      <trkpt lat="48.33506" lon="2.78076">
        <ele>53.5</ele>
        <time>2021-08-21T12:33:45Z</time>
      </trkpt>
      <trkpt lat="48.33496" lon="2.78084">
        <ele>53.6</ele>
        <time>2021-08-21T12:33:46Z</time>
      </trkpt>
      <trkpt lat="48.33487" lon="2.78093">
        <ele>53.7</ele>
        <time>2021-08-21T12:33:47Z</time>
      </trkpt>
      <trkpt lat="48.33478" lon="2.78101">
        <ele>53.9</ele>
        <time>2021-08-21T12:33:48Z</time>
      </trkpt>
      <trkpt lat="48.33469" lon="2.78109">
        <ele>54</ele>
        <time>2021-08-21T12:33:49Z</time>
      </trkpt>
      <trkpt lat="48.33461" lon="2.78117">
        <ele>54.1</ele>
        <time>2021-08-21T12:33:50Z</time>
      </trkpt>
      <trkpt lat="48.33446" lon="2.78131">
        <ele>54.3</ele>
        <time>2021-08-21T12:33:52Z</time>
      </trkpt>
      <trkpt lat="48.3344" lon="2.78136">
        <ele>54.4</ele>
        <time>2021-08-21T12:33:53Z</time>
      </trkpt>
      <trkpt lat="48.33434" lon="2.78138">
        <ele>54.4</ele>
        <time>2021-08-21T12:33:54Z</time>
      </trkpt>
      <trkpt lat="48.33423" lon="2.78139">
        <ele>54.3</ele>
        <time>2021-08-21T12:33:56Z</time>
      </trkpt>
      <trkpt lat="48.33419" lon="2.78142">
        <ele>54.2</ele>
        <time>2021-08-21T12:33:57Z</time>
      </trkpt>
      <trkpt lat="48.33414" lon="2.78157">
        <ele>54</ele>
        <time>2021-08-21T12:33:59Z</time>
      </trkpt>
      <trkpt lat="48.33413" lon="2.78168">
        <ele>53.9</ele>
        <time>2021-08-21T12:34:00Z</time>
      </trkpt>
      <trkpt lat="48.33413" lon="2.78191">
        <ele>53.7</ele>
        <time>2021-08-21T12:34:02Z</time>
      </trkpt>
      <trkpt lat="48.33415" lon="2.78214">
        <ele>53.5</ele>
        <time>2021-08-21T12:34:04Z</time>
      </trkpt>
      <trkpt lat="48.33416" lon="2.78226">
        <ele>53.4</ele>
        <time>2021-08-21T12:34:05Z</time>
      </trkpt>
      <trkpt lat="48.33417" lon="2.78238">
        <ele>53.3</ele>
        <time>2021-08-21T12:34:06Z</time>
      </trkpt>
      <trkpt lat="48.33422" lon="2.78265">
        <ele>53.1</ele>
        <time>2021-08-21T12:34:08Z</time>
      </trkpt>
      <trkpt lat="48.33427" lon="2.78293">
        <ele>53</ele>
        <time>2021-08-21T12:34:10Z</time>
      </trkpt>
      <trkpt lat="48.33432" lon="2.78306">
        <ele>53</ele>
        <time>2021-08-21T12:34:11Z</time>
      </trkpt>
      <trkpt lat="48.33437" lon="2.78318">
        <ele>53</ele>
        <time>2021-08-21T12:34:12Z</time>
      </trkpt>
      <trkpt lat="48.3344" lon="2.78329">
        <ele>53</ele>
        <time>2021-08-21T12:34:13Z</time>
      </trkpt>
      <trkpt lat="48.3344" lon="2.7834">
        <ele>53</ele>
        <time>2021-08-21T12:34:14Z</time>
      </trkpt>
      <trkpt lat="48.33438" lon="2.78367">
        <ele>53</ele>
        <time>2021-08-21T12:34:16Z</time>
      </trkpt>
      <trkpt lat="48.33436" lon="2.78382">
        <ele>53.1</ele>
        <time>2021-08-21T12:34:17Z</time>
      </trkpt>
      <trkpt lat="48.33432" lon="2.78412">
        <ele>53.2</ele>
        <time>2021-08-21T12:34:19Z</time>
      </trkpt>
      <trkpt lat="48.33431" lon="2.78426">
        <ele>53.3</ele>
        <time>2021-08-21T12:34:20Z</time>
      </trkpt>
      <trkpt lat="48.3343" lon="2.78454">
        <ele>53.5</ele>
        <time>2021-08-21T12:34:22Z</time>
      </trkpt>
      <trkpt lat="48.33431" lon="2.7848">
        <ele>53.6</ele>
        <time>2021-08-21T12:34:24Z</time>
      </trkpt>
      <trkpt lat="48.33432" lon="2.78491">
        <ele>53.7</ele>
        <time>2021-08-21T12:34:25Z</time>
      </trkpt>
      <trkpt lat="48.33434" lon="2.78505">
        <ele>53.8</ele>
        <time>2021-08-21T12:34:26Z</time>
      </trkpt>
      <trkpt lat="48.33437" lon="2.78535">
        <ele>54</ele>
        <time>2021-08-21T12:34:28Z</time>
      </trkpt>
      <trkpt lat="48.33438" lon="2.78551">
        <ele>54</ele>
        <time>2021-08-21T12:34:29Z</time>
      </trkpt>
      <trkpt lat="48.3344" lon="2.78583">
        <ele>54.2</ele>
        <time>2021-08-21T12:34:31Z</time>
      </trkpt>
      <trkpt lat="48.3344" lon="2.78599">
        <ele>54.3</ele>
        <time>2021-08-21T12:34:32Z</time>
      </trkpt>
      <trkpt lat="48.33438" lon="2.78629">
        <ele>54.5</ele>
        <time>2021-08-21T12:34:34Z</time>
      </trkpt>
      <trkpt lat="48.3343" lon="2.78657">
        <ele>54.8</ele>
        <time>2021-08-21T12:34:36Z</time>
      </trkpt>
      <trkpt lat="48.33421" lon="2.78686">
        <ele>55.3</ele>
        <time>2021-08-21T12:34:38Z</time>
      </trkpt>
      <trkpt lat="48.33417" lon="2.78701">
        <ele>55.6</ele>
        <time>2021-08-21T12:34:39Z</time>
      </trkpt>
      <trkpt lat="48.33413" lon="2.78715">
        <ele>55.9</ele>
        <time>2021-08-21T12:34:40Z</time>
      </trkpt>
      <trkpt lat="48.33405" lon="2.78744">
        <ele>56.6</ele>
        <time>2021-08-21T12:34:42Z</time>
      </trkpt>
      <trkpt lat="48.33401" lon="2.78759">
        <ele>56.9</ele>
        <time>2021-08-21T12:34:43Z</time>
      </trkpt>
      <trkpt lat="48.33398" lon="2.78775">
        <ele>57.2</ele>
        <time>2021-08-21T12:34:44Z</time>
      </trkpt>
      <trkpt lat="48.33396" lon="2.78792">
        <ele>57.6</ele>
        <time>2021-08-21T12:34:45Z</time>
      </trkpt>
      <trkpt lat="48.33392" lon="2.78823">
        <ele>58.5</ele>
        <time>2021-08-21T12:34:47Z</time>
      </trkpt>
      <trkpt lat="48.33381" lon="2.7885">
        <ele>59.2</ele>
        <time>2021-08-21T12:34:49Z</time>
      </trkpt>
      <trkpt lat="48.33366" lon="2.78874">
        <ele>60.5</ele>
        <time>2021-08-21T12:34:51Z</time>
      </trkpt>
      <trkpt lat="48.33347" lon="2.78894">
        <ele>62</ele>
        <time>2021-08-21T12:34:53Z</time>
      </trkpt>
      <trkpt lat="48.33338" lon="2.78905">
        <ele>62.8</ele>
        <time>2021-08-21T12:34:54Z</time>
      </trkpt>
      <trkpt lat="48.33326" lon="2.78935">
        <ele>64.7</ele>
        <time>2021-08-21T12:34:56Z</time>
      </trkpt>
      <trkpt lat="48.33323" lon="2.78953">
        <ele>65.8</ele>
        <time>2021-08-21T12:34:57Z</time>
      </trkpt>
      <trkpt lat="48.3332" lon="2.78972">
        <ele>66.9</ele>
        <time>2021-08-21T12:34:58Z</time>
      </trkpt>
      <trkpt lat="48.33313" lon="2.79014">
        <ele>69.3</ele>
        <time>2021-08-21T12:35:00Z</time>
      </trkpt>
      <trkpt lat="48.33305" lon="2.79056">
        <ele>71</ele>
        <time>2021-08-21T12:35:02Z</time>
      </trkpt>
      <trkpt lat="48.33301" lon="2.79077">
        <ele>71.9</ele>
        <time>2021-08-21T12:35:03Z</time>
      </trkpt>
      <trkpt lat="48.33298" lon="2.79121">
        <ele>74</ele>
        <time>2021-08-21T12:35:05Z</time>
      </trkpt>
      <trkpt lat="48.33301" lon="2.79144">
        <ele>74.9</ele>
        <time>2021-08-21T12:35:06Z</time>
      </trkpt>
      <trkpt lat="48.33309" lon="2.79191">
        <ele>75.8</ele>
        <time>2021-08-21T12:35:08Z</time>
      </trkpt>
      <trkpt lat="48.33313" lon="2.79214">
        <ele>76.3</ele>
        <time>2021-08-21T12:35:09Z</time>
      </trkpt>
      <trkpt lat="48.33317" lon="2.79238">
        <ele>76.7</ele>
        <time>2021-08-21T12:35:10Z</time>
      </trkpt>
      <trkpt lat="48.33321" lon="2.79287">
        <ele>77.2</ele>
        <time>2021-08-21T12:35:12Z</time>
      </trkpt>
      <trkpt lat="48.33322" lon="2.79337">
        <ele>77.2</ele>
        <time>2021-08-21T12:35:14Z</time>
      </trkpt>
      <trkpt lat="48.33323" lon="2.79364">
        <ele>77.1</ele>
        <time>2021-08-21T12:35:15Z</time>
      </trkpt>
      <trkpt lat="48.33329" lon="2.7942">
        <ele>77.1</ele>
        <time>2021-08-21T12:35:17Z</time>
      </trkpt>
      <trkpt lat="48.33333" lon="2.79448">
        <ele>77</ele>
        <time>2021-08-21T12:35:18Z</time>
      </trkpt>
      <trkpt lat="48.33341" lon="2.79505">
        <ele>76.8</ele>
        <time>2021-08-21T12:35:20Z</time>
      </trkpt>
      <trkpt lat="48.33345" lon="2.79535">
        <ele>76.9</ele>
        <time>2021-08-21T12:35:21Z</time>
      </trkpt>
      <trkpt lat="48.33349" lon="2.79565">
        <ele>77.3</ele>
        <time>2021-08-21T12:35:22Z</time>
      </trkpt>
      <trkpt lat="48.33354" lon="2.79595">
        <ele>77.7</ele>
        <time>2021-08-21T12:35:23Z</time>
      </trkpt>
      <trkpt lat="48.3336" lon="2.79653">
        <ele>78.7</ele>
        <time>2021-08-21T12:35:25Z</time>
      </trkpt>
      <trkpt lat="48.33361" lon="2.79681">
        <ele>79.1</ele>
        <time>2021-08-21T12:35:26Z</time>
      </trkpt>
      <trkpt lat="48.3336" lon="2.79709">
        <ele>79.5</ele>
        <time>2021-08-21T12:35:27Z</time>
      </trkpt>
      <trkpt lat="48.33357" lon="2.79765">
        <ele>80</ele>
        <time>2021-08-21T12:35:29Z</time>
      </trkpt>
      <trkpt lat="48.33353" lon="2.79822">
        <ele>80.3</ele>
        <time>2021-08-21T12:35:31Z</time>
      </trkpt>
      <trkpt lat="48.33349" lon="2.79877">
        <ele>80.5</ele>
        <time>2021-08-21T12:35:33Z</time>
      </trkpt>
      <trkpt lat="48.33345" lon="2.79904">
        <ele>80.7</ele>
        <time>2021-08-21T12:35:34Z</time>
      </trkpt>
      <trkpt lat="48.3334" lon="2.79931">
        <ele>80.9</ele>
        <time>2021-08-21T12:35:35Z</time>
      </trkpt>
      <trkpt lat="48.33334" lon="2.79957">
        <ele>81.2</ele>
        <time>2021-08-21T12:35:36Z</time>
      </trkpt>
      <trkpt lat="48.33327" lon="2.79982">
        <ele>81.5</ele>
        <time>2021-08-21T12:35:37Z</time>
      </trkpt>
      <trkpt lat="48.33319" lon="2.80008">
        <ele>81.8</ele>
        <time>2021-08-21T12:35:38Z</time>
      </trkpt>
      <trkpt lat="48.33311" lon="2.80033">
        <ele>81.9</ele>
        <time>2021-08-21T12:35:39Z</time>
      </trkpt>
      <trkpt lat="48.33302" lon="2.80058">
        <ele>82</ele>
        <time>2021-08-21T12:35:40Z</time>
      </trkpt>
      <trkpt lat="48.33285" lon="2.80106">
        <ele>82.1</ele>
        <time>2021-08-21T12:35:42Z</time>
      </trkpt>
      <trkpt lat="48.33276" lon="2.8013">
        <ele>82.1</ele>
        <time>2021-08-21T12:35:43Z</time>
      </trkpt>
      <trkpt lat="48.33269" lon="2.80155">
        <ele>81.9</ele>
        <time>2021-08-21T12:35:44Z</time>
      </trkpt>
      <trkpt lat="48.33256" lon="2.80207">
        <ele>81</ele>
        <time>2021-08-21T12:35:46Z</time>
      </trkpt>
      <trkpt lat="48.33253" lon="2.80235">
        <ele>80.5</ele>
        <time>2021-08-21T12:35:47Z</time>
      </trkpt>
      <trkpt lat="48.3325" lon="2.80264">
        <ele>80</ele>
        <time>2021-08-21T12:35:48Z</time>
      </trkpt>
      <trkpt lat="48.33248" lon="2.80293">
        <ele>79.8</ele>
        <time>2021-08-21T12:35:49Z</time>
      </trkpt>
      <trkpt lat="48.33246" lon="2.80323">
        <ele>79.8</ele>
        <time>2021-08-21T12:35:50Z</time>
      </trkpt>
      <trkpt lat="48.33245" lon="2.80352">
        <ele>80</ele>
        <time>2021-08-21T12:35:51Z</time>
      </trkpt>
      <trkpt lat="48.3324" lon="2.8041">
        <ele>80.8</ele>
        <time>2021-08-21T12:35:53Z</time>
      </trkpt>
      <trkpt lat="48.33232" lon="2.80466">
        <ele>82</ele>
        <time>2021-08-21T12:35:55Z</time>
      </trkpt>
      <trkpt lat="48.3322" lon="2.80523">
        <ele>83.1</ele>
        <time>2021-08-21T12:35:57Z</time>
      </trkpt>
      <trkpt lat="48.33213" lon="2.80552">
        <ele>83.7</ele>
        <time>2021-08-21T12:35:58Z</time>
      </trkpt>
      <trkpt lat="48.33206" lon="2.8058">
        <ele>84.2</ele>
        <time>2021-08-21T12:35:59Z</time>
      </trkpt>
      <trkpt lat="48.33199" lon="2.80608">
        <ele>84.8</ele>
        <time>2021-08-21T12:36:00Z</time>
      </trkpt>
      <trkpt lat="48.33181" lon="2.80662">
        <ele>86.2</ele>
        <time>2021-08-21T12:36:02Z</time>
      </trkpt>
      <trkpt lat="48.33174" lon="2.80689">
        <ele>87</ele>
        <time>2021-08-21T12:36:03Z</time>
      </trkpt>
      <trkpt lat="48.33167" lon="2.80716">
        <ele>87.8</ele>
        <time>2021-08-21T12:36:04Z</time>
      </trkpt>
      <trkpt lat="48.33151" lon="2.80768">
        <ele>89.3</ele>
        <time>2021-08-21T12:36:06Z</time>
      </trkpt>
      <trkpt lat="48.33143" lon="2.80794">
        <ele>89.8</ele>
        <time>2021-08-21T12:36:07Z</time>
      </trkpt>
      <trkpt lat="48.33134" lon="2.80819">
        <ele>90.1</ele>
        <time>2021-08-21T12:36:08Z</time>
      </trkpt>
      <trkpt lat="48.33117" lon="2.80866">
        <ele>90.3</ele>
        <time>2021-08-21T12:36:10Z</time>
      </trkpt>
      <trkpt lat="48.33108" lon="2.8089">
        <ele>90.4</ele>
        <time>2021-08-21T12:36:11Z</time>
      </trkpt>
      <trkpt lat="48.33101" lon="2.80915">
        <ele>90.4</ele>
        <time>2021-08-21T12:36:12Z</time>
      </trkpt>
      <trkpt lat="48.3309" lon="2.80966">
        <ele>89.9</ele>
        <time>2021-08-21T12:36:14Z</time>
      </trkpt>
      <trkpt lat="48.33087" lon="2.80994">
        <ele>89.5</ele>
        <time>2021-08-21T12:36:15Z</time>
      </trkpt>
      <trkpt lat="48.33085" lon="2.81022">
        <ele>89.2</ele>
        <time>2021-08-21T12:36:16Z</time>
      </trkpt>
      <trkpt lat="48.33084" lon="2.81051">
        <ele>89.1</ele>
        <time>2021-08-21T12:36:17Z</time>
      </trkpt>
      <trkpt lat="48.33083" lon="2.81109">
        <ele>88.8</ele>
        <time>2021-08-21T12:36:19Z</time>
      </trkpt>
      <trkpt lat="48.33081" lon="2.81168">
        <ele>88.8</ele>
        <time>2021-08-21T12:36:21Z</time>
      </trkpt>
      <trkpt lat="48.3308" lon="2.81225">
        <ele>88.9</ele>
        <time>2021-08-21T12:36:23Z</time>
      </trkpt>
      <trkpt lat="48.33079" lon="2.81255">
        <ele>88.9</ele>
        <time>2021-08-21T12:36:24Z</time>
      </trkpt>
      <trkpt lat="48.33077" lon="2.81312">
        <ele>88.9</ele>
        <time>2021-08-21T12:36:26Z</time>
      </trkpt>
      <trkpt lat="48.33076" lon="2.81341">
        <ele>88.8</ele>
        <time>2021-08-21T12:36:27Z</time>
      </trkpt>
      <trkpt lat="48.33075" lon="2.81399">
        <ele>88.7</ele>
        <time>2021-08-21T12:36:29Z</time>
      </trkpt>
      <trkpt lat="48.33074" lon="2.81427">
        <ele>88.7</ele>
        <time>2021-08-21T12:36:30Z</time>
      </trkpt>
      <trkpt lat="48.33073" lon="2.81482">
        <ele>88.6</ele>
        <time>2021-08-21T12:36:32Z</time>
      </trkpt>
      <trkpt lat="48.33073" lon="2.81509">
        <ele>88.5</ele>
        <time>2021-08-21T12:36:33Z</time>
      </trkpt>
      <trkpt lat="48.33072" lon="2.81535">
        <ele>88.5</ele>
        <time>2021-08-21T12:36:34Z</time>
      </trkpt>
      <trkpt lat="48.33072" lon="2.81559">
        <ele>88.5</ele>
        <time>2021-08-21T12:36:35Z</time>
      </trkpt>
      <trkpt lat="48.33071" lon="2.81579">
        <ele>88.5</ele>
        <time>2021-08-21T12:36:36Z</time>
      </trkpt>
      <trkpt lat="48.33063" lon="2.81613">
        <ele>88.4</ele>
        <time>2021-08-21T12:36:38Z</time>
      </trkpt>
      <trkpt lat="48.33054" lon="2.81625">
        <ele>88.3</ele>
        <time>2021-08-21T12:36:39Z</time>
      </trkpt>
      <trkpt lat="48.33045" lon="2.81637">
        <ele>88.1</ele>
        <time>2021-08-21T12:36:40Z</time>
      </trkpt>
      <trkpt lat="48.33037" lon="2.81648">
        <ele>88</ele>
        <time>2021-08-21T12:36:41Z</time>
      </trkpt>
      <trkpt lat="48.33026" lon="2.81658">
        <ele>87.8</ele>
        <time>2021-08-21T12:36:42Z</time>
      </trkpt>
      <trkpt lat="48.33004" lon="2.81683">
        <ele>87.4</ele>
        <time>2021-08-21T12:36:44Z</time>
      </trkpt>
      <trkpt lat="48.32982" lon="2.81715">
        <ele>86.5</ele>
        <time>2021-08-21T12:36:46Z</time>
      </trkpt>
      <trkpt lat="48.32959" lon="2.81749">
        <ele>85.3</ele>
        <time>2021-08-21T12:36:48Z</time>
      </trkpt>
      <trkpt lat="48.32946" lon="2.81767">
        <ele>84.7</ele>
        <time>2021-08-21T12:36:49Z</time>
      </trkpt>
      <trkpt lat="48.32933" lon="2.81784">
        <ele>84.2</ele>
        <time>2021-08-21T12:36:50Z</time>
      </trkpt>
      <trkpt lat="48.32902" lon="2.81817">
        <ele>83.9</ele>
        <time>2021-08-21T12:36:52Z</time>
      </trkpt>
      <trkpt lat="48.32887" lon="2.81833">
        <ele>84.3</ele>
        <time>2021-08-21T12:36:53Z</time>
      </trkpt>
      <trkpt lat="48.32857" lon="2.81867">
        <ele>85.7</ele>
        <time>2021-08-21T12:36:55Z</time>
      </trkpt>
      <trkpt lat="48.32827" lon="2.81902">
        <ele>87</ele>
        <time>2021-08-21T12:36:57Z</time>
      </trkpt>
      <trkpt lat="48.328" lon="2.81936">
        <ele>87.9</ele>
        <time>2021-08-21T12:36:59Z</time>
      </trkpt>
      <trkpt lat="48.32771" lon="2.81968">
        <ele>88.7</ele>
        <time>2021-08-21T12:37:01Z</time>
      </trkpt>
      <trkpt lat="48.32746" lon="2.81997">
        <ele>89.4</ele>
        <time>2021-08-21T12:37:03Z</time>
      </trkpt>
      <trkpt lat="48.32735" lon="2.82011">
        <ele>89.6</ele>
        <time>2021-08-21T12:37:04Z</time>
      </trkpt>
      <trkpt lat="48.32726" lon="2.82026">
        <ele>89.8</ele>
        <time>2021-08-21T12:37:05Z</time>
      </trkpt>
      <trkpt lat="48.32716" lon="2.82064">
        <ele>90.1</ele>
        <time>2021-08-21T12:37:07Z</time>
      </trkpt>
      <trkpt lat="48.32716" lon="2.82107">
        <ele>90.5</ele>
        <time>2021-08-21T12:37:09Z</time>
      </trkpt>
      <trkpt lat="48.32716" lon="2.8213">
        <ele>90.7</ele>
        <time>2021-08-21T12:37:10Z</time>
      </trkpt>
      <trkpt lat="48.32716" lon="2.82178">
        <ele>91.6</ele>
        <time>2021-08-21T12:37:12Z</time>
      </trkpt>
      <trkpt lat="48.32715" lon="2.8223">
        <ele>93</ele>
        <time>2021-08-21T12:37:14Z</time>
      </trkpt>
      <trkpt lat="48.32714" lon="2.82259">
        <ele>93.7</ele>
        <time>2021-08-21T12:37:15Z</time>
      </trkpt>
      <trkpt lat="48.32712" lon="2.82316">
        <ele>95.3</ele>
        <time>2021-08-21T12:37:17Z</time>
      </trkpt>
      <trkpt lat="48.3271" lon="2.82344">
        <ele>95.9</ele>
        <time>2021-08-21T12:37:18Z</time>
      </trkpt>
      <trkpt lat="48.32709" lon="2.82372">
        <ele>96.6</ele>
        <time>2021-08-21T12:37:19Z</time>
      </trkpt>
      <trkpt lat="48.32708" lon="2.824">
        <ele>97.1</ele>
        <time>2021-08-21T12:37:20Z</time>
      </trkpt>
      <trkpt lat="48.32706" lon="2.82458">
        <ele>98.2</ele>
        <time>2021-08-21T12:37:22Z</time>
      </trkpt>
      <trkpt lat="48.32704" lon="2.82488">
        <ele>98.7</ele>
        <time>2021-08-21T12:37:23Z</time>
      </trkpt>
      <trkpt lat="48.32703" lon="2.82517">
        <ele>99.2</ele>
        <time>2021-08-21T12:37:24Z</time>
      </trkpt>
      <trkpt lat="48.32701" lon="2.82576">
        <ele>100.3</ele>
        <time>2021-08-21T12:37:26Z</time>
      </trkpt>
      <trkpt lat="48.32701" lon="2.82606">
        <ele>100.8</ele>
        <time>2021-08-21T12:37:27Z</time>
      </trkpt>
      <trkpt lat="48.32702" lon="2.82663">
        <ele>101.9</ele>
        <time>2021-08-21T12:37:29Z</time>
      </trkpt>
      <trkpt lat="48.327" lon="2.82716">
        <ele>102.8</ele>
        <time>2021-08-21T12:37:31Z</time>
      </trkpt>
      <trkpt lat="48.32689" lon="2.82763">
        <ele>103.9</ele>
        <time>2021-08-21T12:37:33Z</time>
      </trkpt>
      <trkpt lat="48.32679" lon="2.82784">
        <ele>104.6</ele>
        <time>2021-08-21T12:37:34Z</time>
      </trkpt>
      <trkpt lat="48.32662" lon="2.82826">
        <ele>105.7</ele>
        <time>2021-08-21T12:37:36Z</time>
      </trkpt>
      <trkpt lat="48.32655" lon="2.82849">
        <ele>106.2</ele>
        <time>2021-08-21T12:37:37Z</time>
      </trkpt>
      <trkpt lat="48.32651" lon="2.82874">
        <ele>106.6</ele>
        <time>2021-08-21T12:37:38Z</time>
      </trkpt>
      <trkpt lat="48.32648" lon="2.82899">
        <ele>106.7</ele>
        <time>2021-08-21T12:37:39Z</time>
      </trkpt>
      <trkpt lat="48.32644" lon="2.8295">
        <ele>106.9</ele>
        <time>2021-08-21T12:37:41Z</time>
      </trkpt>
      <trkpt lat="48.32643" lon="2.82976">
        <ele>107</ele>
        <time>2021-08-21T12:37:42Z</time>
      </trkpt>
      <trkpt lat="48.32645" lon="2.83023">
        <ele>107.2</ele>
        <time>2021-08-21T12:37:44Z</time>
      </trkpt>
      <trkpt lat="48.32655" lon="2.83066">
        <ele>106.9</ele>
        <time>2021-08-21T12:37:46Z</time>
      </trkpt>
      <trkpt lat="48.32662" lon="2.83088">
        <ele>106.5</ele>
        <time>2021-08-21T12:37:47Z</time>
      </trkpt>
      <trkpt lat="48.32672" lon="2.83134">
        <ele>104.9</ele>
        <time>2021-08-21T12:37:49Z</time>
      </trkpt>
      <trkpt lat="48.32673" lon="2.83183">
        <ele>102.4</ele>
        <time>2021-08-21T12:37:51Z</time>
      </trkpt>
      <trkpt lat="48.32669" lon="2.83233">
        <ele>99.4</ele>
        <time>2021-08-21T12:37:53Z</time>
      </trkpt>
      <trkpt lat="48.32664" lon="2.83258">
        <ele>98</ele>
        <time>2021-08-21T12:37:54Z</time>
      </trkpt>
      <trkpt lat="48.32652" lon="2.83306">
        <ele>95.5</ele>
        <time>2021-08-21T12:37:56Z</time>
      </trkpt>
      <trkpt lat="48.32645" lon="2.83329">
        <ele>94.4</ele>
        <time>2021-08-21T12:37:57Z</time>
      </trkpt>
      <trkpt lat="48.32639" lon="2.83352">
        <ele>93.6</ele>
        <time>2021-08-21T12:37:58Z</time>
      </trkpt>
      <trkpt lat="48.32634" lon="2.83397">
        <ele>92.1</ele>
        <time>2021-08-21T12:38:00Z</time>
      </trkpt>
      <trkpt lat="48.32636" lon="2.83419">
        <ele>91.4</ele>
        <time>2021-08-21T12:38:01Z</time>
      </trkpt>
      <trkpt lat="48.32649" lon="2.83461">
        <ele>90.3</ele>
        <time>2021-08-21T12:38:03Z</time>
      </trkpt>
      <trkpt lat="48.32655" lon="2.83482">
        <ele>89.8</ele>
        <time>2021-08-21T12:38:04Z</time>
      </trkpt>
      <trkpt lat="48.32661" lon="2.83502">
        <ele>89.3</ele>
        <time>2021-08-21T12:38:05Z</time>
      </trkpt>
      <trkpt lat="48.32665" lon="2.83524">
        <ele>89.1</ele>
        <time>2021-08-21T12:38:06Z</time>
      </trkpt>
      <trkpt lat="48.32667" lon="2.83547">
        <ele>88.7</ele>
        <time>2021-08-21T12:38:07Z</time>
      </trkpt>
      <trkpt lat="48.32668" lon="2.83594">
        <ele>87.7</ele>
        <time>2021-08-21T12:38:09Z</time>
      </trkpt>
      <trkpt lat="48.32667" lon="2.83618">
        <ele>87</ele>
        <time>2021-08-21T12:38:10Z</time>
      </trkpt>
      <trkpt lat="48.32666" lon="2.83642">
        <ele>86.2</ele>
        <time>2021-08-21T12:38:11Z</time>
      </trkpt>
      <trkpt lat="48.32665" lon="2.83665">
        <ele>85.4</ele>
        <time>2021-08-21T12:38:12Z</time>
      </trkpt>
      <trkpt lat="48.32668" lon="2.83712">
        <ele>83.7</ele>
        <time>2021-08-21T12:38:14Z</time>
      </trkpt>
      <trkpt lat="48.32671" lon="2.83735">
        <ele>82.9</ele>
        <time>2021-08-21T12:38:15Z</time>
      </trkpt>
      <trkpt lat="48.32675" lon="2.83757">
        <ele>82.2</ele>
        <time>2021-08-21T12:38:16Z</time>
      </trkpt>
      <trkpt lat="48.32684" lon="2.83803">
        <ele>80.5</ele>
        <time>2021-08-21T12:38:18Z</time>
      </trkpt>
      <trkpt lat="48.32687" lon="2.83827">
        <ele>79.8</ele>
        <time>2021-08-21T12:38:19Z</time>
      </trkpt>
      <trkpt lat="48.32689" lon="2.83851">
        <ele>79</ele>
        <time>2021-08-21T12:38:20Z</time>
      </trkpt>
      <trkpt lat="48.32692" lon="2.83899">
        <ele>77.7</ele>
        <time>2021-08-21T12:38:22Z</time>
      </trkpt>
      <trkpt lat="48.32701" lon="2.83944">
        <ele>76.6</ele>
        <time>2021-08-21T12:38:24Z</time>
      </trkpt>
      <trkpt lat="48.32714" lon="2.83988">
        <ele>75.6</ele>
        <time>2021-08-21T12:38:26Z</time>
      </trkpt>
      <trkpt lat="48.32721" lon="2.84009">
        <ele>75.3</ele>
        <time>2021-08-21T12:38:27Z</time>
      </trkpt>
      <trkpt lat="48.32728" lon="2.84031">
        <ele>75</ele>
        <time>2021-08-21T12:38:28Z</time>
      </trkpt>
      <trkpt lat="48.32743" lon="2.84075">
        <ele>74.4</ele>
        <time>2021-08-21T12:38:30Z</time>
      </trkpt>
      <trkpt lat="48.32756" lon="2.8412">
        <ele>73.8</ele>
        <time>2021-08-21T12:38:32Z</time>
      </trkpt>
      <trkpt lat="48.32761" lon="2.84142">
        <ele>73.5</ele>
        <time>2021-08-21T12:38:33Z</time>
      </trkpt>
      <trkpt lat="48.32767" lon="2.84188">
        <ele>72.9</ele>
        <time>2021-08-21T12:38:35Z</time>
      </trkpt>
      <trkpt lat="48.32769" lon="2.84211">
        <ele>72.6</ele>
        <time>2021-08-21T12:38:36Z</time>
      </trkpt>
      <trkpt lat="48.32774" lon="2.84258">
        <ele>72.1</ele>
        <time>2021-08-21T12:38:38Z</time>
      </trkpt>
      <trkpt lat="48.32775" lon="2.84281">
        <ele>71.8</ele>
        <time>2021-08-21T12:38:39Z</time>
      </trkpt>
      <trkpt lat="48.32778" lon="2.84303">
        <ele>71.5</ele>
        <time>2021-08-21T12:38:40Z</time>
      </trkpt>
      <trkpt lat="48.32783" lon="2.84347">
        <ele>71</ele>
        <time>2021-08-21T12:38:42Z</time>
      </trkpt>
      <trkpt lat="48.32787" lon="2.84367">
        <ele>70.8</ele>
        <time>2021-08-21T12:38:43Z</time>
      </trkpt>
      <trkpt lat="48.32792" lon="2.84386">
        <ele>70.5</ele>
        <time>2021-08-21T12:38:44Z</time>
      </trkpt>
      <trkpt lat="48.328" lon="2.84422">
        <ele>70</ele>
        <time>2021-08-21T12:38:46Z</time>
      </trkpt>
      <trkpt lat="48.32805" lon="2.84439">
        <ele>69.7</ele>
        <time>2021-08-21T12:38:47Z</time>
      </trkpt>
      <trkpt lat="48.32809" lon="2.84456">
        <ele>69.3</ele>
        <time>2021-08-21T12:38:48Z</time>
      </trkpt>
      <trkpt lat="48.32817" lon="2.84484">
        <ele>68.7</ele>
        <time>2021-08-21T12:38:50Z</time>
      </trkpt>
      <trkpt lat="48.32824" lon="2.84505">
        <ele>68.2</ele>
        <time>2021-08-21T12:38:52Z</time>
      </trkpt>
      <trkpt lat="48.32827" lon="2.84516">
        <ele>68</ele>
        <time>2021-08-21T12:38:54Z</time>
      </trkpt>
      <trkpt lat="48.32828" lon="2.84521">
        <ele>67.9</ele>
        <time>2021-08-21T12:38:55Z</time>
      </trkpt>
      <trkpt lat="48.32828" lon="2.84521">
        <ele>67.8</ele>
        <time>2021-08-21T12:38:56Z</time>
      </trkpt>
      <trkpt lat="48.32828" lon="2.84523">
        <ele>67.8</ele>
        <time>2021-08-21T12:38:57Z</time>
      </trkpt>
      <trkpt lat="48.32827" lon="2.84526">
        <ele>67.7</ele>
        <time>2021-08-21T12:38:58Z</time>
      </trkpt>
      <trkpt lat="48.32821" lon="2.84536">
        <ele>67.3</ele>
        <time>2021-08-21T12:39:00Z</time>
      </trkpt>
      <trkpt lat="48.32811" lon="2.8455">
        <ele>66.8</ele>
        <time>2021-08-21T12:39:02Z</time>
      </trkpt>
      <trkpt lat="48.32798" lon="2.84568">
        <ele>66.5</ele>
        <time>2021-08-21T12:39:03Z</time>
      </trkpt>
      <trkpt lat="48.32791" lon="2.84578">
        <ele>66.4</ele>
        <time>2021-08-21T12:39:05Z</time>
      </trkpt>
      <trkpt lat="48.32782" lon="2.84587">
        <ele>66.2</ele>
        <time>2021-08-21T12:39:06Z</time>
      </trkpt>
      <trkpt lat="48.32763" lon="2.84606">
        <ele>65.8</ele>
        <time>2021-08-21T12:39:08Z</time>
      </trkpt>
      <trkpt lat="48.32745" lon="2.84623">
        <ele>65.6</ele>
        <time>2021-08-21T12:39:10Z</time>
      </trkpt>
      <trkpt lat="48.3273" lon="2.8464">
        <ele>65.7</ele>
        <time>2021-08-21T12:39:12Z</time>
      </trkpt>
      <trkpt lat="48.32721" lon="2.84652">
        <ele>65.7</ele>
        <time>2021-08-21T12:39:14Z</time>
      </trkpt>
      <trkpt lat="48.3272" lon="2.84654">
        <ele>65.7</ele>
        <time>2021-08-21T12:39:15Z</time>
      </trkpt>
      <trkpt lat="48.32721" lon="2.84653">
        <ele>65.7</ele>
        <time>2021-08-21T12:39:17Z</time>
      </trkpt>
      <trkpt lat="48.32719" lon="2.84655">
        <ele>65.8</ele>
        <time>2021-08-21T12:39:19Z</time>
      </trkpt>
      <trkpt lat="48.32711" lon="2.84664">
        <ele>65.7</ele>
        <time>2021-08-21T12:39:21Z</time>
      </trkpt>
      <trkpt lat="48.32706" lon="2.84669">
        <ele>65.6</ele>
        <time>2021-08-21T12:39:22Z</time>
      </trkpt>
      <trkpt lat="48.32697" lon="2.8468">
        <ele>65.3</ele>
        <time>2021-08-21T12:39:24Z</time>
      </trkpt>
      <trkpt lat="48.32687" lon="2.84691">
        <ele>65.1</ele>
        <time>2021-08-21T12:39:26Z</time>
      </trkpt>
      <trkpt lat="48.32675" lon="2.84706">
        <ele>64.8</ele>
        <time>2021-08-21T12:39:28Z</time>
      </trkpt>
      <trkpt lat="48.32667" lon="2.84714">
        <ele>64.6</ele>
        <time>2021-08-21T12:39:29Z</time>
      </trkpt>
      <trkpt lat="48.3266" lon="2.84723">
        <ele>64.5</ele>
        <time>2021-08-21T12:39:30Z</time>
      </trkpt>
      <trkpt lat="48.32642" lon="2.84741">
        <ele>64.2</ele>
        <time>2021-08-21T12:39:32Z</time>
      </trkpt>
      <trkpt lat="48.32624" lon="2.84763">
        <ele>64</ele>
        <time>2021-08-21T12:39:34Z</time>
      </trkpt>
      <trkpt lat="48.32606" lon="2.84786">
        <ele>64</ele>
        <time>2021-08-21T12:39:36Z</time>
      </trkpt>
      <trkpt lat="48.32596" lon="2.84797">
        <ele>64.1</ele>
        <time>2021-08-21T12:39:37Z</time>
      </trkpt>
      <trkpt lat="48.32576" lon="2.84816">
        <ele>64.5</ele>
        <time>2021-08-21T12:39:39Z</time>
      </trkpt>
      <trkpt lat="48.32567" lon="2.84826">
        <ele>64.7</ele>
        <time>2021-08-21T12:39:40Z</time>
      </trkpt>
      <trkpt lat="48.32559" lon="2.84835">
        <ele>65</ele>
        <time>2021-08-21T12:39:41Z</time>
      </trkpt>
      <trkpt lat="48.32547" lon="2.84849">
        <ele>65.7</ele>
        <time>2021-08-21T12:39:43Z</time>
      </trkpt>
      <trkpt lat="48.32543" lon="2.8485">
        <ele>65.6</ele>
        <time>2021-08-21T12:39:44Z</time>
      </trkpt>
      <trkpt lat="48.3254" lon="2.84848">
        <ele>65.5</ele>
        <time>2021-08-21T12:39:45Z</time>
      </trkpt>
      <trkpt lat="48.32536" lon="2.84842">
        <ele>65.3</ele>
        <time>2021-08-21T12:39:46Z</time>
      </trkpt>
      <trkpt lat="48.32531" lon="2.84825">
        <ele>65</ele>
        <time>2021-08-21T12:39:48Z</time>
      </trkpt>
      <trkpt lat="48.32524" lon="2.84807">
        <ele>64.7</ele>
        <time>2021-08-21T12:39:50Z</time>
      </trkpt>
      <trkpt lat="48.3252" lon="2.84797">
        <ele>64.7</ele>
        <time>2021-08-21T12:39:51Z</time>
      </trkpt>
      <trkpt lat="48.32512" lon="2.84778">
        <ele>64.9</ele>
        <time>2021-08-21T12:39:53Z</time>
      </trkpt>
      <trkpt lat="48.32505" lon="2.8476">
        <ele>65</ele>
        <time>2021-08-21T12:39:54Z</time>
      </trkpt>
      <trkpt lat="48.32502" lon="2.84751">
        <ele>65.1</ele>
        <time>2021-08-21T12:39:56Z</time>
      </trkpt>
      <trkpt lat="48.32497" lon="2.84733">
        <ele>65.1</ele>
        <time>2021-08-21T12:39:58Z</time>
      </trkpt>
      <trkpt lat="48.32494" lon="2.84718">
        <ele>65.2</ele>
        <time>2021-08-21T12:40:00Z</time>
      </trkpt>
      <trkpt lat="48.32489" lon="2.84707">
        <ele>65.3</ele>
        <time>2021-08-21T12:40:02Z</time>
      </trkpt>
      <trkpt lat="48.32484" lon="2.84701">
        <ele>65.4</ele>
        <time>2021-08-21T12:40:04Z</time>
      </trkpt>
      <trkpt lat="48.32482" lon="2.847">
        <ele>65.4</ele>
        <time>2021-08-21T12:40:05Z</time>
      </trkpt>
      <trkpt lat="48.32482" lon="2.84697">
        <ele>65.4</ele>
        <time>2021-08-21T12:40:07Z</time>
      </trkpt>
      <trkpt lat="48.32482" lon="2.84696">
        <ele>65.4</ele>
        <time>2021-08-21T12:40:09Z</time>
      </trkpt>
      <trkpt lat="48.32482" lon="2.84696">
        <ele>65.4</ele>
        <time>2021-08-21T12:40:10Z</time>
      </trkpt>
      <trkpt lat="48.32482" lon="2.84697">
        <ele>65.4</ele>
        <time>2021-08-21T12:40:12Z</time>
      </trkpt>
      <trkpt lat="48.32482" lon="2.84698">
        <ele>65.4</ele>
        <time>2021-08-21T12:40:13Z</time>
      </trkpt>
      <trkpt lat="48.32483" lon="2.84699">
        <ele>65.4</ele>
        <time>2021-08-21T12:40:14Z</time>
      </trkpt>
      <trkpt lat="48.32482" lon="2.84699">
        <ele>65.4</ele>
        <time>2021-08-21T12:40:15Z</time>
      </trkpt>
      <trkpt lat="48.32482" lon="2.84699">
        <ele>65.4</ele>
        <time>2021-08-21T12:40:17Z</time>
      </trkpt>
      <trkpt lat="48.32483" lon="2.84701">
        <ele>65.4</ele>
        <time>2021-08-21T12:40:19Z</time>
      </trkpt>
      <trkpt lat="48.32483" lon="2.84701">
        <ele>65.4</ele>
        <time>2021-08-21T12:40:20Z</time>
      </trkpt>
      <trkpt lat="48.32483" lon="2.84701">
        <ele>65.4</ele>
        <time>2021-08-21T12:40:22Z</time>
      </trkpt>
      <trkpt lat="48.32483" lon="2.84701">
        <ele>65.4</ele>
        <time>2021-08-21T12:40:23Z</time>
      </trkpt>
      <trkpt lat="48.32483" lon="2.84701">
        <ele>65.4</ele>
        <time>2021-08-21T12:40:25Z</time>
      </trkpt>
      <trkpt lat="48.32483" lon="2.84701">
        <ele>65.4</ele>
        <time>2021-08-21T12:40:27Z</time>
      </trkpt>
      <trkpt lat="48.32482" lon="2.84701">
        <ele>65.4</ele>
        <time>2021-08-21T12:40:29Z</time>
      </trkpt>
      <trkpt lat="48.32482" lon="2.84701">
        <ele>65.4</ele>
        <time>2021-08-21T12:40:31Z</time>
      </trkpt>
      <trkpt lat="48.32482" lon="2.84701">
        <ele>65.4</ele>
        <time>2021-08-21T12:40:32Z</time>
      </trkpt>
      <trkpt lat="48.32483" lon="2.84701">
        <ele>65.5</ele>
        <time>2021-08-21T12:40:34Z</time>
      </trkpt>
      <trkpt lat="48.32483" lon="2.84701">
        <ele>65.5</ele>
        <time>2021-08-21T12:40:35Z</time>
      </trkpt>
      <trkpt lat="48.32483" lon="2.84701">
        <ele>65.5</ele>
        <time>2021-08-21T12:40:37Z</time>
      </trkpt>
      <trkpt lat="48.32483" lon="2.847">
        <ele>65.5</ele>
        <time>2021-08-21T12:40:39Z</time>
      </trkpt>
      <trkpt lat="48.32483" lon="2.847">
        <ele>65.5</ele>
        <time>2021-08-21T12:40:40Z</time>
      </trkpt>
      <trkpt lat="48.32482" lon="2.847">
        <ele>65.5</ele>
        <time>2021-08-21T12:40:42Z</time>
      </trkpt>
      <trkpt lat="48.32482" lon="2.847">
        <ele>65.5</ele>
        <time>2021-08-21T12:40:43Z</time>
      </trkpt>
      <trkpt lat="48.32481" lon="2.847">
        <ele>65.5</ele>
        <time>2021-08-21T12:40:45Z</time>
      </trkpt>
      <trkpt lat="48.3248" lon="2.84699">
        <ele>65.5</ele>
        <time>2021-08-21T12:40:47Z</time>
      </trkpt>
      <trkpt lat="48.3248" lon="2.84699">
        <ele>65.5</ele>
        <time>2021-08-21T12:40:49Z</time>
      </trkpt>
      <trkpt lat="48.3248" lon="2.84699">
        <ele>65.5</ele>
        <time>2021-08-21T12:40:50Z</time>
      </trkpt>
      <trkpt lat="48.32481" lon="2.84703">
        <ele>65.5</ele>
        <time>2021-08-21T12:40:52Z</time>
      </trkpt>
      <trkpt lat="48.32483" lon="2.84705">
        <ele>65.5</ele>
        <time>2021-08-21T12:40:54Z</time>
      </trkpt>
      <trkpt lat="48.32484" lon="2.84707">
        <ele>65.6</ele>
        <time>2021-08-21T12:40:55Z</time>
      </trkpt>
      <trkpt lat="48.32485" lon="2.84708">
        <ele>65.6</ele>
        <time>2021-08-21T12:40:56Z</time>
      </trkpt>
      <trkpt lat="48.32486" lon="2.84709">
        <ele>65.6</ele>
        <time>2021-08-21T12:40:57Z</time>
      </trkpt>
      <trkpt lat="48.32486" lon="2.8471">
        <ele>65.6</ele>
        <time>2021-08-21T12:40:59Z</time>
      </trkpt>
      <trkpt lat="48.32486" lon="2.84712">
        <ele>65.6</ele>
        <time>2021-08-21T12:41:00Z</time>
      </trkpt>
      <trkpt lat="48.32487" lon="2.84712">
        <ele>65.6</ele>
        <time>2021-08-21T12:41:01Z</time>
      </trkpt>
      <trkpt lat="48.32487" lon="2.84713">
        <ele>65.6</ele>
        <time>2021-08-21T12:41:02Z</time>
      </trkpt>
      <trkpt lat="48.32487" lon="2.84714">
        <ele>65.6</ele>
        <time>2021-08-21T12:41:04Z</time>
      </trkpt>
      <trkpt lat="48.32487" lon="2.84714">
        <ele>65.6</ele>
        <time>2021-08-21T12:41:05Z</time>
      </trkpt>
      <trkpt lat="48.32487" lon="2.84714">
        <ele>65.6</ele>
        <time>2021-08-21T12:41:06Z</time>
      </trkpt>
      <trkpt lat="48.32487" lon="2.84714">
        <ele>65.6</ele>
        <time>2021-08-21T12:41:07Z</time>
      </trkpt>
      <trkpt lat="48.32487" lon="2.84714">
        <ele>65.6</ele>
        <time>2021-08-21T12:41:08Z</time>
      </trkpt>
      <trkpt lat="48.32488" lon="2.84714">
        <ele>65.6</ele>
        <time>2021-08-21T12:41:09Z</time>
      </trkpt>
      <trkpt lat="48.32488" lon="2.84713">
        <ele>65.6</ele>
        <time>2021-08-21T12:41:10Z</time>
      </trkpt>
      <trkpt lat="48.32488" lon="2.84713">
        <ele>65.6</ele>
        <time>2021-08-21T12:41:11Z</time>
      </trkpt>
      <trkpt lat="48.32488" lon="2.84713">
        <ele>65.6</ele>
        <time>2021-08-21T12:41:12Z</time>
      </trkpt>
      <trkpt lat="48.32487" lon="2.84713">
        <ele>65.6</ele>
        <time>2021-08-21T12:41:13Z</time>
      </trkpt>
      <trkpt lat="48.32487" lon="2.84713">
        <ele>65.6</ele>
        <time>2021-08-21T12:41:14Z</time>
      </trkpt>
      <trkpt lat="48.32487" lon="2.84713">
        <ele>65.6</ele>
        <time>2021-08-21T12:41:15Z</time>
      </trkpt>
      <trkpt lat="48.32487" lon="2.84713">
        <ele>65.6</ele>
        <time>2021-08-21T12:41:16Z</time>
      </trkpt>
      <trkpt lat="48.32487" lon="2.84713">
        <ele>65.6</ele>
        <time>2021-08-21T12:41:17Z</time>
      </trkpt>
      <trkpt lat="48.32487" lon="2.84713">
        <ele>65.6</ele>
        <time>2021-08-21T12:41:18Z</time>
      </trkpt>
      <trkpt lat="48.32487" lon="2.84713">
        <ele>65.6</ele>
        <time>2021-08-21T12:41:19Z</time>
      </trkpt>
      <trkpt lat="48.32487" lon="2.84713">
        <ele>65.6</ele>
        <time>2021-08-21T12:41:20Z</time>
      </trkpt>
      <trkpt lat="48.32486" lon="2.84713">
        <ele>65.6</ele>
        <time>2021-08-21T12:41:21Z</time>
      </trkpt>
      <trkpt lat="48.32485" lon="2.84712">
        <ele>65.6</ele>
        <time>2021-08-21T12:41:22Z</time>
      </trkpt>
      <trkpt lat="48.32483" lon="2.84713">
        <ele>65.7</ele>
        <time>2021-08-21T12:41:23Z</time>
      </trkpt>
      <trkpt lat="48.32481" lon="2.84713">
        <ele>65.7</ele>
        <time>2021-08-21T12:41:24Z</time>
      </trkpt>
      <trkpt lat="48.3248" lon="2.84714">
        <ele>65.7</ele>
        <time>2021-08-21T12:41:25Z</time>
      </trkpt>
      <trkpt lat="48.3248" lon="2.84714">
        <ele>65.7</ele>
        <time>2021-08-21T12:41:26Z</time>
      </trkpt>
      <trkpt lat="48.32479" lon="2.84715">
        <ele>65.7</ele>
        <time>2021-08-21T12:41:27Z</time>
      </trkpt>
      <trkpt lat="48.32479" lon="2.84715">
        <ele>65.7</ele>
        <time>2021-08-21T12:41:29Z</time>
      </trkpt>
      <trkpt lat="48.32479" lon="2.84715">
        <ele>65.7</ele>
        <time>2021-08-21T12:41:30Z</time>
      </trkpt>
      <trkpt lat="48.32479" lon="2.84715">
        <ele>65.7</ele>
        <time>2021-08-21T12:41:31Z</time>
      </trkpt>
      <trkpt lat="48.32478" lon="2.84716">
        <ele>65.7</ele>
        <time>2021-08-21T12:41:33Z</time>
      </trkpt>
      <trkpt lat="48.32477" lon="2.84716">
        <ele>65.7</ele>
        <time>2021-08-21T12:41:34Z</time>
      </trkpt>
      <trkpt lat="48.32476" lon="2.84716">
        <ele>65.7</ele>
        <time>2021-08-21T12:41:35Z</time>
      </trkpt>
      <trkpt lat="48.32475" lon="2.84716">
        <ele>65.7</ele>
        <time>2021-08-21T12:41:36Z</time>
      </trkpt>
      <trkpt lat="48.32474" lon="2.84716">
        <ele>65.7</ele>
        <time>2021-08-21T12:41:38Z</time>
      </trkpt>
      <trkpt lat="48.32474" lon="2.84716">
        <ele>65.7</ele>
        <time>2021-08-21T12:41:40Z</time>
      </trkpt>
      <trkpt lat="48.32474" lon="2.84716">
        <ele>65.7</ele>
        <time>2021-08-21T12:41:41Z</time>
      </trkpt>
      <trkpt lat="48.32473" lon="2.84716">
        <ele>65.7</ele>
        <time>2021-08-21T12:41:43Z</time>
      </trkpt>
      <trkpt lat="48.32473" lon="2.84717">
        <ele>65.8</ele>
        <time>2021-08-21T12:41:44Z</time>
      </trkpt>
      <trkpt lat="48.32473" lon="2.84717">
        <ele>65.8</ele>
        <time>2021-08-21T12:41:45Z</time>
      </trkpt>
      <trkpt lat="48.32472" lon="2.84717">
        <ele>65.8</ele>
        <time>2021-08-21T12:41:47Z</time>
      </trkpt>
      <trkpt lat="48.32472" lon="2.84717">
        <ele>65.8</ele>
        <time>2021-08-21T12:41:49Z</time>
      </trkpt>
      <trkpt lat="48.32472" lon="2.84718">
        <ele>65.8</ele>
        <time>2021-08-21T12:41:50Z</time>
      </trkpt>
      <trkpt lat="48.32472" lon="2.84718">
        <ele>65.8</ele>
        <time>2021-08-21T12:41:51Z</time>
      </trkpt>
      <trkpt lat="48.32473" lon="2.84718">
        <ele>65.8</ele>
        <time>2021-08-21T12:41:53Z</time>
      </trkpt>
      <trkpt lat="48.32473" lon="2.84718">
        <ele>65.8</ele>
        <time>2021-08-21T12:41:54Z</time>
      </trkpt>
      <trkpt lat="48.32473" lon="2.84718">
        <ele>65.8</ele>
        <time>2021-08-21T12:41:55Z</time>
      </trkpt>
      <trkpt lat="48.32473" lon="2.84718">
        <ele>65.8</ele>
        <time>2021-08-21T12:41:56Z</time>
      </trkpt>
      <trkpt lat="48.32473" lon="2.84718">
        <ele>65.8</ele>
        <time>2021-08-21T12:41:57Z</time>
      </trkpt>
      <trkpt lat="48.32473" lon="2.84718">
        <ele>65.8</ele>
        <time>2021-08-21T12:41:58Z</time>
      </trkpt>
      <trkpt lat="48.32473" lon="2.84718">
        <ele>65.8</ele>
        <time>2021-08-21T12:41:59Z</time>
      </trkpt>
      <trkpt lat="48.32473" lon="2.84718">
        <ele>65.8</ele>
        <time>2021-08-21T12:42:00Z</time>
      </trkpt>
      <trkpt lat="48.32473" lon="2.84718">
        <ele>65.8</ele>
        <time>2021-08-21T12:42:01Z</time>
      </trkpt>
      <trkpt lat="48.32473" lon="2.84718">
        <ele>65.8</ele>
        <time>2021-08-21T12:42:02Z</time>
      </trkpt>
      <trkpt lat="48.32473" lon="2.84718">
        <ele>65.8</ele>
        <time>2021-08-21T12:42:03Z</time>
      </trkpt>
      <trkpt lat="48.32473" lon="2.84718">
        <ele>65.8</ele>
        <time>2021-08-21T12:42:04Z</time>
      </trkpt>
      <trkpt lat="48.32473" lon="2.84718">
        <ele>65.8</ele>
        <time>2021-08-21T12:42:05Z</time>
      </trkpt>
      <trkpt lat="48.32473" lon="2.84718">
        <ele>65.8</ele>
        <time>2021-08-21T12:42:06Z</time>
      </trkpt>
      <trkpt lat="48.32473" lon="2.84718">
        <ele>65.8</ele>
        <time>2021-08-21T12:42:07Z</time>
      </trkpt>
      <trkpt lat="48.32473" lon="2.84718">
        <ele>65.8</ele>
        <time>2021-08-21T12:42:08Z</time>
      </trkpt>
      <trkpt lat="48.32473" lon="2.84718">
        <ele>65.8</ele>
        <time>2021-08-21T12:42:09Z</time>
      </trkpt>
      <trkpt lat="48.32473" lon="2.84718">
        <ele>65.8</ele>
        <time>2021-08-21T12:42:10Z</time>
      </trkpt>
      <trkpt lat="48.32473" lon="2.84718">
        <ele>65.8</ele>
        <time>2021-08-21T12:42:11Z</time>
      </trkpt>
      <trkpt lat="48.32473" lon="2.84718">
        <ele>65.8</ele>
        <time>2021-08-21T12:42:12Z</time>
      </trkpt>
      <trkpt lat="48.32473" lon="2.84718">
        <ele>65.8</ele>
        <time>2021-08-21T12:42:13Z</time>
      </trkpt>
      <trkpt lat="48.32473" lon="2.84718">
        <ele>65.8</ele>
        <time>2021-08-21T12:42:14Z</time>
      </trkpt>
      <trkpt lat="48.32473" lon="2.84718">
        <ele>65.8</ele>
        <time>2021-08-21T12:42:16Z</time>
      </trkpt>
      <trkpt lat="48.32473" lon="2.84718">
        <ele>65.8</ele>
        <time>2021-08-21T12:42:17Z</time>
      </trkpt>
      <trkpt lat="48.32473" lon="2.84718">
        <ele>65.8</ele>
        <time>2021-08-21T12:42:18Z</time>
      </trkpt>
      <trkpt lat="48.32473" lon="2.84718">
        <ele>65.8</ele>
        <time>2021-08-21T12:42:19Z</time>
      </trkpt>
      <trkpt lat="48.32473" lon="2.84718">
        <ele>65.8</ele>
        <time>2021-08-21T12:42:20Z</time>
      </trkpt>
      <trkpt lat="48.32473" lon="2.84718">
        <ele>65.8</ele>
        <time>2021-08-21T12:42:21Z</time>
      </trkpt>
      <trkpt lat="48.32473" lon="2.84718">
        <ele>65.8</ele>
        <time>2021-08-21T12:42:22Z</time>
      </trkpt>
      <trkpt lat="48.32473" lon="2.84718">
        <ele>65.8</ele>
        <time>2021-08-21T12:42:23Z</time>
      </trkpt>
      <trkpt lat="48.32473" lon="2.84718">
        <ele>65.8</ele>
        <time>2021-08-21T12:42:24Z</time>
      </trkpt>
      <trkpt lat="48.32473" lon="2.84719">
        <ele>65.8</ele>
        <time>2021-08-21T12:42:25Z</time>
      </trkpt>
      <trkpt lat="48.32472" lon="2.84719">
        <ele>65.8</ele>
        <time>2021-08-21T12:42:26Z</time>
      </trkpt>
      <trkpt lat="48.32472" lon="2.84719">
        <ele>65.8</ele>
        <time>2021-08-21T12:42:27Z</time>
      </trkpt>
      <trkpt lat="48.32472" lon="2.84719">
        <ele>65.8</ele>
        <time>2021-08-21T12:42:29Z</time>
      </trkpt>
      <trkpt lat="48.32472" lon="2.84719">
        <ele>65.8</ele>
        <time>2021-08-21T12:42:31Z</time>
      </trkpt>
      <trkpt lat="48.32472" lon="2.84719">
        <ele>65.8</ele>
        <time>2021-08-21T12:42:32Z</time>
      </trkpt>
      <trkpt lat="48.32472" lon="2.84719">
        <ele>65.8</ele>
        <time>2021-08-21T12:42:33Z</time>
      </trkpt>
      <trkpt lat="48.32472" lon="2.84719">
        <ele>65.8</ele>
        <time>2021-08-21T12:42:34Z</time>
      </trkpt>
      <trkpt lat="48.32472" lon="2.84719">
        <ele>65.8</ele>
        <time>2021-08-21T12:42:35Z</time>
      </trkpt>
      <trkpt lat="48.32472" lon="2.84719">
        <ele>65.8</ele>
        <time>2021-08-21T12:42:36Z</time>
      </trkpt>
      <trkpt lat="48.32472" lon="2.84719">
        <ele>65.8</ele>
        <time>2021-08-21T12:42:37Z</time>
      </trkpt>
      <trkpt lat="48.32472" lon="2.84719">
        <ele>65.8</ele>
        <time>2021-08-21T12:42:39Z</time>
      </trkpt>
      <trkpt lat="48.32472" lon="2.84719">
        <ele>65.8</ele>
        <time>2021-08-21T12:42:40Z</time>
      </trkpt>
      <trkpt lat="48.32472" lon="2.84719">
        <ele>65.8</ele>
        <time>2021-08-21T12:42:41Z</time>
      </trkpt>
      <trkpt lat="48.32472" lon="2.84719">
        <ele>65.8</ele>
        <time>2021-08-21T12:42:42Z</time>
      </trkpt>
      <trkpt lat="48.32472" lon="2.84719">
        <ele>65.8</ele>
        <time>2021-08-21T12:42:44Z</time>
      </trkpt>
      <trkpt lat="48.32472" lon="2.84719">
        <ele>65.8</ele>
        <time>2021-08-21T12:42:45Z</time>
      </trkpt>
      <trkpt lat="48.32472" lon="2.84719">
        <ele>65.8</ele>
        <time>2021-08-21T12:42:46Z</time>
      </trkpt>
      <trkpt lat="48.32472" lon="2.84719">
        <ele>65.8</ele>
        <time>2021-08-21T12:42:47Z</time>
      </trkpt>
      <trkpt lat="48.32472" lon="2.84719">
        <ele>65.8</ele>
        <time>2021-08-21T12:42:49Z</time>
      </trkpt>
      <trkpt lat="48.32472" lon="2.84719">
        <ele>65.8</ele>
        <time>2021-08-21T12:42:50Z</time>
      </trkpt>
      <trkpt lat="48.32472" lon="2.84719">
        <ele>65.8</ele>
        <time>2021-08-21T12:42:51Z</time>
      </trkpt>
      <trkpt lat="48.32472" lon="2.84719">
        <ele>65.8</ele>
        <time>2021-08-21T12:42:52Z</time>
      </trkpt>
      <trkpt lat="48.32472" lon="2.84719">
        <ele>65.8</ele>
        <time>2021-08-21T12:42:53Z</time>
      </trkpt>
      <trkpt lat="48.32472" lon="2.84719">
        <ele>65.8</ele>
        <time>2021-08-21T12:42:54Z</time>
      </trkpt>
      <trkpt lat="48.32472" lon="2.84719">
        <ele>65.8</ele>
        <time>2021-08-21T12:42:56Z</time>
      </trkpt>
      <trkpt lat="48.32472" lon="2.84719">
        <ele>65.8</ele>
        <time>2021-08-21T12:42:57Z</time>
      </trkpt>
      <trkpt lat="48.32472" lon="2.84719">
        <ele>65.8</ele>
        <time>2021-08-21T12:42:58Z</time>
      </trkpt>
      <trkpt lat="48.32472" lon="2.84719">
        <ele>65.8</ele>
        <time>2021-08-21T12:43:00Z</time>
      </trkpt>
      <trkpt lat="48.32472" lon="2.84719">
        <ele>65.8</ele>
        <time>2021-08-21T12:43:01Z</time>
      </trkpt>
      <trkpt lat="48.32472" lon="2.84719">
        <ele>65.8</ele>
        <time>2021-08-21T12:43:02Z</time>
      </trkpt>
      <trkpt lat="48.32472" lon="2.84719">
        <ele>65.8</ele>
        <time>2021-08-21T12:43:04Z</time>
      </trkpt>
      <trkpt lat="48.32472" lon="2.84719">
        <ele>65.8</ele>
        <time>2021-08-21T12:43:05Z</time>
      </trkpt>
      <trkpt lat="48.32472" lon="2.84719">
        <ele>65.8</ele>
        <time>2021-08-21T12:43:07Z</time>
      </trkpt>
      <trkpt lat="48.32472" lon="2.84719">
        <ele>65.8</ele>
        <time>2021-08-21T12:43:09Z</time>
      </trkpt>
      <trkpt lat="48.32472" lon="2.84719">
        <ele>65.8</ele>
        <time>2021-08-21T12:43:10Z</time>
      </trkpt>
      <trkpt lat="48.32472" lon="2.84719">
        <ele>65.8</ele>
        <time>2021-08-21T12:43:11Z</time>
      </trkpt>
      <trkpt lat="48.32472" lon="2.84719">
        <ele>65.8</ele>
        <time>2021-08-21T12:43:12Z</time>
      </trkpt>
      <trkpt lat="48.32472" lon="2.84719">
        <ele>65.8</ele>
        <time>2021-08-21T12:43:14Z</time>
      </trkpt>
      <trkpt lat="48.32472" lon="2.84719">
        <ele>65.8</ele>
        <time>2021-08-21T12:43:16Z</time>
      </trkpt>
      <trkpt lat="48.32472" lon="2.84719">
        <ele>65.8</ele>
        <time>2021-08-21T12:43:18Z</time>
      </trkpt>
      <trkpt lat="48.32472" lon="2.84719">
        <ele>65.8</ele>
        <time>2021-08-21T12:43:20Z</time>
      </trkpt>
      <trkpt lat="48.32472" lon="2.84719">
        <ele>65.8</ele>
        <time>2021-08-21T12:43:22Z</time>
      </trkpt>
      <trkpt lat="48.32472" lon="2.84719">
        <ele>65.8</ele>
        <time>2021-08-21T12:43:24Z</time>
      </trkpt>
      <trkpt lat="48.32472" lon="2.84719">
        <ele>65.8</ele>
        <time>2021-08-21T12:43:26Z</time>
      </trkpt>
      <trkpt lat="48.32472" lon="2.84719">
        <ele>65.8</ele>
        <time>2021-08-21T12:43:27Z</time>
      </trkpt>
      <trkpt lat="48.32472" lon="2.84719">
        <ele>65.8</ele>
        <time>2021-08-21T12:43:28Z</time>
      </trkpt>
      <trkpt lat="48.32472" lon="2.84719">
        <ele>65.8</ele>
        <time>2021-08-21T12:43:29Z</time>
      </trkpt>
      <trkpt lat="48.32472" lon="2.84719">
        <ele>65.8</ele>
        <time>2021-08-21T12:43:30Z</time>
      </trkpt>
      <trkpt lat="48.32472" lon="2.84719">
        <ele>65.8</ele>
        <time>2021-08-21T12:43:31Z</time>
      </trkpt>
      <trkpt lat="48.32472" lon="2.84719">
        <ele>65.8</ele>
        <time>2021-08-21T12:43:32Z</time>
      </trkpt>
      <trkpt lat="48.32472" lon="2.84719">
        <ele>65.8</ele>
        <time>2021-08-21T12:43:33Z</time>
      </trkpt>
      <trkpt lat="48.32472" lon="2.84719">
        <ele>65.8</ele>
        <time>2021-08-21T12:43:34Z</time>
      </trkpt>
      <trkpt lat="48.32472" lon="2.84719">
        <ele>65.8</ele>
        <time>2021-08-21T12:43:35Z</time>
      </trkpt>
      <trkpt lat="48.32472" lon="2.84719">
        <ele>65.8</ele>
        <time>2021-08-21T12:43:36Z</time>
      </trkpt>
      <trkpt lat="48.32472" lon="2.84719">
        <ele>65.8</ele>
        <time>2021-08-21T12:43:37Z</time>
      </trkpt>
      <trkpt lat="48.32472" lon="2.84719">
        <ele>65.8</ele>
        <time>2021-08-21T12:43:38Z</time>
      </trkpt>
      <trkpt lat="48.32472" lon="2.84719">
        <ele>65.8</ele>
        <time>2021-08-21T12:43:39Z</time>
      </trkpt>
      <trkpt lat="48.32472" lon="2.84719">
        <ele>65.8</ele>
        <time>2021-08-21T12:43:40Z</time>
      </trkpt>
      <trkpt lat="48.32472" lon="2.84719">
        <ele>65.8</ele>
        <time>2021-08-21T12:43:41Z</time>
      </trkpt>
      <trkpt lat="48.32472" lon="2.84719">
        <ele>65.8</ele>
        <time>2021-08-21T12:43:43Z</time>
      </trkpt>
      <trkpt lat="48.32472" lon="2.84719">
        <ele>65.8</ele>
        <time>2021-08-21T12:43:44Z</time>
      </trkpt>
      <trkpt lat="48.32472" lon="2.84719">
        <ele>65.8</ele>
        <time>2021-08-21T12:43:45Z</time>
      </trkpt>
      <trkpt lat="48.32473" lon="2.84719">
        <ele>65.8</ele>
        <time>2021-08-21T12:43:46Z</time>
      </trkpt>
      <trkpt lat="48.32473" lon="2.84719">
        <ele>65.8</ele>
        <time>2021-08-21T12:43:47Z</time>
      </trkpt>
      <trkpt lat="48.32473" lon="2.84719">
        <ele>65.8</ele>
        <time>2021-08-21T12:43:48Z</time>
      </trkpt>
      <trkpt lat="48.32473" lon="2.84719">
        <ele>65.8</ele>
        <time>2021-08-21T12:43:49Z</time>
      </trkpt>
      <trkpt lat="48.32473" lon="2.84719">
        <ele>65.8</ele>
        <time>2021-08-21T12:43:50Z</time>
      </trkpt>
      <trkpt lat="48.32473" lon="2.84719">
        <ele>65.8</ele>
        <time>2021-08-21T12:43:51Z</time>
      </trkpt>
      <trkpt lat="48.32473" lon="2.84719">
        <ele>65.8</ele>
        <time>2021-08-21T12:43:52Z</time>
      </trkpt>
      <trkpt lat="48.32473" lon="2.84718">
        <ele>65.8</ele>
        <time>2021-08-21T12:43:53Z</time>
      </trkpt>
      <trkpt lat="48.32473" lon="2.84718">
        <ele>65.8</ele>
        <time>2021-08-21T12:43:54Z</time>
      </trkpt>
      <trkpt lat="48.32473" lon="2.84718">
        <ele>65.8</ele>
        <time>2021-08-21T12:43:56Z</time>
      </trkpt>
      <trkpt lat="48.32473" lon="2.84718">
        <ele>65.8</ele>
        <time>2021-08-21T12:43:57Z</time>
      </trkpt>
      <trkpt lat="48.32473" lon="2.84718">
        <ele>65.8</ele>
        <time>2021-08-21T12:43:58Z</time>
      </trkpt>
      <trkpt lat="48.32473" lon="2.84716">
        <ele>65.8</ele>
        <time>2021-08-21T12:43:59Z</time>
      </trkpt>
      <trkpt lat="48.32473" lon="2.84715">
        <ele>65.8</ele>
        <time>2021-08-21T12:44:00Z</time>
      </trkpt>
      <trkpt lat="48.32474" lon="2.84714">
        <ele>65.8</ele>
        <time>2021-08-21T12:44:01Z</time>
      </trkpt>
      <trkpt lat="48.32474" lon="2.84715">
        <ele>65.8</ele>
        <time>2021-08-21T12:44:02Z</time>
      </trkpt>
      <trkpt lat="48.32475" lon="2.84716">
        <ele>65.8</ele>
        <time>2021-08-21T12:44:03Z</time>
      </trkpt>
      <trkpt lat="48.32475" lon="2.84716">
        <ele>65.8</ele>
        <time>2021-08-21T12:44:04Z</time>
      </trkpt>
      <trkpt lat="48.32475" lon="2.84715">
        <ele>65.8</ele>
        <time>2021-08-21T12:44:05Z</time>
      </trkpt>
      <trkpt lat="48.32475" lon="2.84714">
        <ele>65.8</ele>
        <time>2021-08-21T12:44:06Z</time>
      </trkpt>
      <trkpt lat="48.32475" lon="2.84714">
        <ele>65.8</ele>
        <time>2021-08-21T12:44:07Z</time>
      </trkpt>
    </trkseg>
  </trk>
</gpx>